<?xml version="1.0" encoding="UTF-8" standalone="no" ?>
<gpx xmlns="http://www.topografix.com/GPX/1/1" xmlns:xsi="http://www.w3.org/2001/XMLSchema-instance" xsi:schemaLocation="http://www.topografix.com/GPX/1/1 http://www.topografix.com/GPX/1/1/gpx.xsd" version="1.1" creator="VisuGPX - https://www.visugpx.com">
  <metadata>
    <name>NE-O-Indre Sautron Treillières Sucé St Mars Le Cellier Oudon Thouaré Nantes</name>
    <desc><![CDATA[NE-O-Indre Sautron Treillières Sucé St Mars Le Cellier Oudon Thouaré Nantes]]></desc>
  </metadata>
  <trk>
    <name><![CDATA[2021-07-16 08:50 +02:00]]></name>
    <trkseg>
      <trkpt lat="47.16774" lon="-1.6265">
        <ele>66</ele>
        <time>2021-07-16T06:50:13.300Z</time>
      </trkpt>
      <trkpt lat="47.16776" lon="-1.62667">
        <ele>72</ele>
        <time>2021-07-16T06:58:21.000Z</time>
      </trkpt>
      <trkpt lat="47.16764" lon="-1.62676">
        <ele>70</ele>
        <time>2021-07-16T06:58:24.000Z</time>
      </trkpt>
      <trkpt lat="47.16755" lon="-1.6267">
        <ele>70</ele>
        <time>2021-07-16T06:58:26.000Z</time>
      </trkpt>
      <trkpt lat="47.16746" lon="-1.62671">
        <ele>71</ele>
        <time>2021-07-16T06:58:28.000Z</time>
      </trkpt>
      <trkpt lat="47.16736" lon="-1.62678">
        <ele>71</ele>
        <time>2021-07-16T06:58:30.000Z</time>
      </trkpt>
      <trkpt lat="47.16728" lon="-1.62684">
        <ele>71</ele>
        <time>2021-07-16T06:58:32.000Z</time>
      </trkpt>
      <trkpt lat="47.1672" lon="-1.62692">
        <ele>71</ele>
        <time>2021-07-16T06:58:34.000Z</time>
      </trkpt>
      <trkpt lat="47.16717" lon="-1.62704">
        <ele>71</ele>
        <time>2021-07-16T06:58:36.000Z</time>
      </trkpt>
      <trkpt lat="47.16723" lon="-1.62719">
        <ele>72</ele>
        <time>2021-07-16T06:58:38.000Z</time>
      </trkpt>
      <trkpt lat="47.1673" lon="-1.62731">
        <ele>73</ele>
        <time>2021-07-16T06:58:40.000Z</time>
      </trkpt>
      <trkpt lat="47.16738" lon="-1.62744">
        <ele>73</ele>
        <time>2021-07-16T06:58:42.000Z</time>
      </trkpt>
      <trkpt lat="47.16746" lon="-1.62756">
        <ele>73</ele>
        <time>2021-07-16T06:58:44.000Z</time>
      </trkpt>
      <trkpt lat="47.16756" lon="-1.62767">
        <ele>73</ele>
        <time>2021-07-16T06:58:46.000Z</time>
      </trkpt>
      <trkpt lat="47.16766" lon="-1.62776">
        <ele>73</ele>
        <time>2021-07-16T06:58:48.000Z</time>
      </trkpt>
      <trkpt lat="47.16778" lon="-1.62786">
        <ele>73</ele>
        <time>2021-07-16T06:58:50.000Z</time>
      </trkpt>
      <trkpt lat="47.16789" lon="-1.62796">
        <ele>73</ele>
        <time>2021-07-16T06:58:52.000Z</time>
      </trkpt>
      <trkpt lat="47.168" lon="-1.62806">
        <ele>73</ele>
        <time>2021-07-16T06:58:54.000Z</time>
      </trkpt>
      <trkpt lat="47.1681" lon="-1.62816">
        <ele>74</ele>
        <time>2021-07-16T06:58:56.000Z</time>
      </trkpt>
      <trkpt lat="47.16819" lon="-1.62825">
        <ele>75</ele>
        <time>2021-07-16T06:58:58.000Z</time>
      </trkpt>
      <trkpt lat="47.1683" lon="-1.62835">
        <ele>75</ele>
        <time>2021-07-16T06:59:00.000Z</time>
      </trkpt>
      <trkpt lat="47.16839" lon="-1.62844">
        <ele>76</ele>
        <time>2021-07-16T06:59:02.000Z</time>
      </trkpt>
      <trkpt lat="47.16848" lon="-1.62852">
        <ele>76</ele>
        <time>2021-07-16T06:59:04.000Z</time>
      </trkpt>
      <trkpt lat="47.16857" lon="-1.62861">
        <ele>76</ele>
        <time>2021-07-16T06:59:06.000Z</time>
      </trkpt>
      <trkpt lat="47.16866" lon="-1.62872">
        <ele>77</ele>
        <time>2021-07-16T06:59:08.000Z</time>
      </trkpt>
      <trkpt lat="47.16874" lon="-1.62884">
        <ele>77</ele>
        <time>2021-07-16T06:59:10.000Z</time>
      </trkpt>
      <trkpt lat="47.16881" lon="-1.62897">
        <ele>76</ele>
        <time>2021-07-16T06:59:12.000Z</time>
      </trkpt>
      <trkpt lat="47.16886" lon="-1.62912">
        <ele>76</ele>
        <time>2021-07-16T06:59:14.000Z</time>
      </trkpt>
      <trkpt lat="47.16889" lon="-1.62928">
        <ele>77</ele>
        <time>2021-07-16T06:59:16.000Z</time>
      </trkpt>
      <trkpt lat="47.16891" lon="-1.62945">
        <ele>77</ele>
        <time>2021-07-16T06:59:18.000Z</time>
      </trkpt>
      <trkpt lat="47.16891" lon="-1.62963">
        <ele>77</ele>
        <time>2021-07-16T06:59:20.000Z</time>
      </trkpt>
      <trkpt lat="47.1689" lon="-1.62981">
        <ele>77</ele>
        <time>2021-07-16T06:59:22.000Z</time>
      </trkpt>
      <trkpt lat="47.16888" lon="-1.62998">
        <ele>76</ele>
        <time>2021-07-16T06:59:24.000Z</time>
      </trkpt>
      <trkpt lat="47.16887" lon="-1.63015">
        <ele>77</ele>
        <time>2021-07-16T06:59:26.000Z</time>
      </trkpt>
      <trkpt lat="47.16886" lon="-1.63032">
        <ele>77</ele>
        <time>2021-07-16T06:59:28.000Z</time>
      </trkpt>
      <trkpt lat="47.16886" lon="-1.63048">
        <ele>77</ele>
        <time>2021-07-16T06:59:30.000Z</time>
      </trkpt>
      <trkpt lat="47.16887" lon="-1.63065">
        <ele>78</ele>
        <time>2021-07-16T06:59:32.000Z</time>
      </trkpt>
      <trkpt lat="47.1689" lon="-1.63081">
        <ele>78</ele>
        <time>2021-07-16T06:59:34.000Z</time>
      </trkpt>
      <trkpt lat="47.16893" lon="-1.63097">
        <ele>78</ele>
        <time>2021-07-16T06:59:36.000Z</time>
      </trkpt>
      <trkpt lat="47.16896" lon="-1.63113">
        <ele>78</ele>
        <time>2021-07-16T06:59:38.000Z</time>
      </trkpt>
      <trkpt lat="47.169" lon="-1.63129">
        <ele>79</ele>
        <time>2021-07-16T06:59:40.000Z</time>
      </trkpt>
      <trkpt lat="47.16906" lon="-1.63144">
        <ele>79</ele>
        <time>2021-07-16T06:59:42.000Z</time>
      </trkpt>
      <trkpt lat="47.16912" lon="-1.63159">
        <ele>79</ele>
        <time>2021-07-16T06:59:44.000Z</time>
      </trkpt>
      <trkpt lat="47.16918" lon="-1.63173">
        <ele>79</ele>
        <time>2021-07-16T06:59:46.000Z</time>
      </trkpt>
      <trkpt lat="47.16924" lon="-1.63185">
        <ele>79</ele>
        <time>2021-07-16T06:59:48.000Z</time>
      </trkpt>
      <trkpt lat="47.16931" lon="-1.63198">
        <ele>79</ele>
        <time>2021-07-16T06:59:50.000Z</time>
      </trkpt>
      <trkpt lat="47.16938" lon="-1.6321">
        <ele>79</ele>
        <time>2021-07-16T06:59:52.000Z</time>
      </trkpt>
      <trkpt lat="47.16946" lon="-1.63221">
        <ele>80</ele>
        <time>2021-07-16T06:59:54.000Z</time>
      </trkpt>
      <trkpt lat="47.16954" lon="-1.63231">
        <ele>80</ele>
        <time>2021-07-16T06:59:56.000Z</time>
      </trkpt>
      <trkpt lat="47.16962" lon="-1.6324">
        <ele>80</ele>
        <time>2021-07-16T06:59:58.000Z</time>
      </trkpt>
      <trkpt lat="47.16968" lon="-1.63252">
        <ele>80</ele>
        <time>2021-07-16T07:00:01.000Z</time>
      </trkpt>
      <trkpt lat="47.16963" lon="-1.63265">
        <ele>80</ele>
        <time>2021-07-16T07:00:03.000Z</time>
      </trkpt>
      <trkpt lat="47.16955" lon="-1.63279">
        <ele>80</ele>
        <time>2021-07-16T07:00:05.000Z</time>
      </trkpt>
      <trkpt lat="47.16947" lon="-1.63293">
        <ele>80</ele>
        <time>2021-07-16T07:00:07.000Z</time>
      </trkpt>
      <trkpt lat="47.16939" lon="-1.63306">
        <ele>81</ele>
        <time>2021-07-16T07:00:09.000Z</time>
      </trkpt>
      <trkpt lat="47.1693" lon="-1.63319">
        <ele>82</ele>
        <time>2021-07-16T07:00:11.000Z</time>
      </trkpt>
      <trkpt lat="47.16921" lon="-1.63332">
        <ele>82</ele>
        <time>2021-07-16T07:00:13.000Z</time>
      </trkpt>
      <trkpt lat="47.16913" lon="-1.63345">
        <ele>82</ele>
        <time>2021-07-16T07:00:15.000Z</time>
      </trkpt>
      <trkpt lat="47.16904" lon="-1.63357">
        <ele>81</ele>
        <time>2021-07-16T07:00:17.000Z</time>
      </trkpt>
      <trkpt lat="47.16896" lon="-1.6337">
        <ele>81</ele>
        <time>2021-07-16T07:00:19.000Z</time>
      </trkpt>
      <trkpt lat="47.16887" lon="-1.63384">
        <ele>81</ele>
        <time>2021-07-16T07:00:21.000Z</time>
      </trkpt>
      <trkpt lat="47.16879" lon="-1.63398">
        <ele>81</ele>
        <time>2021-07-16T07:00:23.000Z</time>
      </trkpt>
      <trkpt lat="47.16871" lon="-1.63411">
        <ele>81</ele>
        <time>2021-07-16T07:00:25.000Z</time>
      </trkpt>
      <trkpt lat="47.16864" lon="-1.63425">
        <ele>81</ele>
        <time>2021-07-16T07:00:27.000Z</time>
      </trkpt>
      <trkpt lat="47.16856" lon="-1.63439">
        <ele>81</ele>
        <time>2021-07-16T07:00:29.000Z</time>
      </trkpt>
      <trkpt lat="47.16848" lon="-1.63453">
        <ele>81</ele>
        <time>2021-07-16T07:00:31.000Z</time>
      </trkpt>
      <trkpt lat="47.16839" lon="-1.63466">
        <ele>81</ele>
        <time>2021-07-16T07:00:33.000Z</time>
      </trkpt>
      <trkpt lat="47.16831" lon="-1.6348">
        <ele>81</ele>
        <time>2021-07-16T07:00:35.000Z</time>
      </trkpt>
      <trkpt lat="47.16823" lon="-1.63494">
        <ele>80</ele>
        <time>2021-07-16T07:00:37.000Z</time>
      </trkpt>
      <trkpt lat="47.16815" lon="-1.63508">
        <ele>80</ele>
        <time>2021-07-16T07:00:39.000Z</time>
      </trkpt>
      <trkpt lat="47.16807" lon="-1.63522">
        <ele>80</ele>
        <time>2021-07-16T07:00:41.000Z</time>
      </trkpt>
      <trkpt lat="47.16799" lon="-1.63536">
        <ele>79</ele>
        <time>2021-07-16T07:00:43.000Z</time>
      </trkpt>
      <trkpt lat="47.1679" lon="-1.6355">
        <ele>79</ele>
        <time>2021-07-16T07:00:45.000Z</time>
      </trkpt>
      <trkpt lat="47.16782" lon="-1.63565">
        <ele>78</ele>
        <time>2021-07-16T07:00:47.000Z</time>
      </trkpt>
      <trkpt lat="47.16774" lon="-1.63578">
        <ele>78</ele>
        <time>2021-07-16T07:00:49.000Z</time>
      </trkpt>
      <trkpt lat="47.16765" lon="-1.63592">
        <ele>78</ele>
        <time>2021-07-16T07:00:51.000Z</time>
      </trkpt>
      <trkpt lat="47.16757" lon="-1.63606">
        <ele>78</ele>
        <time>2021-07-16T07:00:53.000Z</time>
      </trkpt>
      <trkpt lat="47.1675" lon="-1.63619">
        <ele>78</ele>
        <time>2021-07-16T07:00:55.000Z</time>
      </trkpt>
      <trkpt lat="47.16745" lon="-1.63632">
        <ele>78</ele>
        <time>2021-07-16T07:00:57.000Z</time>
      </trkpt>
      <trkpt lat="47.1675" lon="-1.63644">
        <ele>77</ele>
        <time>2021-07-16T07:00:59.000Z</time>
      </trkpt>
      <trkpt lat="47.16762" lon="-1.63648">
        <ele>77</ele>
        <time>2021-07-16T07:01:01.000Z</time>
      </trkpt>
      <trkpt lat="47.16774" lon="-1.63652">
        <ele>77</ele>
        <time>2021-07-16T07:01:03.000Z</time>
      </trkpt>
      <trkpt lat="47.16786" lon="-1.63656">
        <ele>77</ele>
        <time>2021-07-16T07:01:05.000Z</time>
      </trkpt>
      <trkpt lat="47.16798" lon="-1.6366">
        <ele>76</ele>
        <time>2021-07-16T07:01:07.000Z</time>
      </trkpt>
      <trkpt lat="47.16811" lon="-1.63666">
        <ele>76</ele>
        <time>2021-07-16T07:01:09.000Z</time>
      </trkpt>
      <trkpt lat="47.16823" lon="-1.6367">
        <ele>76</ele>
        <time>2021-07-16T07:01:11.000Z</time>
      </trkpt>
      <trkpt lat="47.16835" lon="-1.63675">
        <ele>76</ele>
        <time>2021-07-16T07:01:13.000Z</time>
      </trkpt>
      <trkpt lat="47.16847" lon="-1.63679">
        <ele>76</ele>
        <time>2021-07-16T07:01:15.000Z</time>
      </trkpt>
      <trkpt lat="47.16859" lon="-1.63684">
        <ele>76</ele>
        <time>2021-07-16T07:01:17.000Z</time>
      </trkpt>
      <trkpt lat="47.16871" lon="-1.63689">
        <ele>75</ele>
        <time>2021-07-16T07:01:19.000Z</time>
      </trkpt>
      <trkpt lat="47.16883" lon="-1.63693">
        <ele>75</ele>
        <time>2021-07-16T07:01:21.000Z</time>
      </trkpt>
      <trkpt lat="47.16895" lon="-1.63697">
        <ele>75</ele>
        <time>2021-07-16T07:01:23.000Z</time>
      </trkpt>
      <trkpt lat="47.16907" lon="-1.63702">
        <ele>76</ele>
        <time>2021-07-16T07:01:25.000Z</time>
      </trkpt>
      <trkpt lat="47.16919" lon="-1.63707">
        <ele>75</ele>
        <time>2021-07-16T07:01:27.000Z</time>
      </trkpt>
      <trkpt lat="47.16932" lon="-1.63712">
        <ele>75</ele>
        <time>2021-07-16T07:01:29.000Z</time>
      </trkpt>
      <trkpt lat="47.16945" lon="-1.63716">
        <ele>75</ele>
        <time>2021-07-16T07:01:31.000Z</time>
      </trkpt>
      <trkpt lat="47.16957" lon="-1.6372">
        <ele>75</ele>
        <time>2021-07-16T07:01:33.000Z</time>
      </trkpt>
      <trkpt lat="47.16969" lon="-1.63725">
        <ele>74</ele>
        <time>2021-07-16T07:01:35.000Z</time>
      </trkpt>
      <trkpt lat="47.16982" lon="-1.63729">
        <ele>75</ele>
        <time>2021-07-16T07:01:37.000Z</time>
      </trkpt>
      <trkpt lat="47.16994" lon="-1.63734">
        <ele>75</ele>
        <time>2021-07-16T07:01:39.000Z</time>
      </trkpt>
      <trkpt lat="47.17006" lon="-1.63739">
        <ele>75</ele>
        <time>2021-07-16T07:01:41.000Z</time>
      </trkpt>
      <trkpt lat="47.17018" lon="-1.63744">
        <ele>75</ele>
        <time>2021-07-16T07:01:43.000Z</time>
      </trkpt>
      <trkpt lat="47.1703" lon="-1.63748">
        <ele>75</ele>
        <time>2021-07-16T07:01:45.000Z</time>
      </trkpt>
      <trkpt lat="47.17041" lon="-1.63753">
        <ele>75</ele>
        <time>2021-07-16T07:01:47.000Z</time>
      </trkpt>
      <trkpt lat="47.17053" lon="-1.6376">
        <ele>74</ele>
        <time>2021-07-16T07:01:49.000Z</time>
      </trkpt>
      <trkpt lat="47.17061" lon="-1.63772">
        <ele>75</ele>
        <time>2021-07-16T07:01:51.000Z</time>
      </trkpt>
      <trkpt lat="47.17068" lon="-1.63787">
        <ele>74</ele>
        <time>2021-07-16T07:01:53.000Z</time>
      </trkpt>
      <trkpt lat="47.17073" lon="-1.63804">
        <ele>74</ele>
        <time>2021-07-16T07:01:55.000Z</time>
      </trkpt>
      <trkpt lat="47.17078" lon="-1.63821">
        <ele>74</ele>
        <time>2021-07-16T07:01:57.000Z</time>
      </trkpt>
      <trkpt lat="47.17083" lon="-1.63837">
        <ele>74</ele>
        <time>2021-07-16T07:01:59.000Z</time>
      </trkpt>
      <trkpt lat="47.17089" lon="-1.63853">
        <ele>74</ele>
        <time>2021-07-16T07:02:01.000Z</time>
      </trkpt>
      <trkpt lat="47.17094" lon="-1.63868">
        <ele>73</ele>
        <time>2021-07-16T07:02:03.000Z</time>
      </trkpt>
      <trkpt lat="47.171" lon="-1.63884">
        <ele>73</ele>
        <time>2021-07-16T07:02:05.000Z</time>
      </trkpt>
      <trkpt lat="47.17105" lon="-1.63899">
        <ele>73</ele>
        <time>2021-07-16T07:02:07.000Z</time>
      </trkpt>
      <trkpt lat="47.1711" lon="-1.63913">
        <ele>73</ele>
        <time>2021-07-16T07:02:09.000Z</time>
      </trkpt>
      <trkpt lat="47.17116" lon="-1.63926">
        <ele>74</ele>
        <time>2021-07-16T07:02:11.000Z</time>
      </trkpt>
      <trkpt lat="47.17123" lon="-1.63935">
        <ele>74</ele>
        <time>2021-07-16T07:02:13.000Z</time>
      </trkpt>
      <trkpt lat="47.17134" lon="-1.63945">
        <ele>74</ele>
        <time>2021-07-16T07:02:16.000Z</time>
      </trkpt>
      <trkpt lat="47.17137" lon="-1.63958">
        <ele>74</ele>
        <time>2021-07-16T07:02:18.000Z</time>
      </trkpt>
      <trkpt lat="47.17138" lon="-1.63977">
        <ele>75</ele>
        <time>2021-07-16T07:02:20.000Z</time>
      </trkpt>
      <trkpt lat="47.17137" lon="-1.63996">
        <ele>75</ele>
        <time>2021-07-16T07:02:22.000Z</time>
      </trkpt>
      <trkpt lat="47.17135" lon="-1.64015">
        <ele>75</ele>
        <time>2021-07-16T07:02:24.000Z</time>
      </trkpt>
      <trkpt lat="47.17133" lon="-1.64033">
        <ele>75</ele>
        <time>2021-07-16T07:02:26.000Z</time>
      </trkpt>
      <trkpt lat="47.17131" lon="-1.64053">
        <ele>76</ele>
        <time>2021-07-16T07:02:28.000Z</time>
      </trkpt>
      <trkpt lat="47.17129" lon="-1.64073">
        <ele>75</ele>
        <time>2021-07-16T07:02:30.000Z</time>
      </trkpt>
      <trkpt lat="47.17127" lon="-1.64091">
        <ele>76</ele>
        <time>2021-07-16T07:02:32.000Z</time>
      </trkpt>
      <trkpt lat="47.17125" lon="-1.6411">
        <ele>76</ele>
        <time>2021-07-16T07:02:34.000Z</time>
      </trkpt>
      <trkpt lat="47.17123" lon="-1.64129">
        <ele>77</ele>
        <time>2021-07-16T07:02:36.000Z</time>
      </trkpt>
      <trkpt lat="47.17121" lon="-1.64148">
        <ele>78</ele>
        <time>2021-07-16T07:02:38.000Z</time>
      </trkpt>
      <trkpt lat="47.17119" lon="-1.64167">
        <ele>77</ele>
        <time>2021-07-16T07:02:40.000Z</time>
      </trkpt>
      <trkpt lat="47.17117" lon="-1.64186">
        <ele>77</ele>
        <time>2021-07-16T07:02:42.000Z</time>
      </trkpt>
      <trkpt lat="47.17115" lon="-1.64204">
        <ele>77</ele>
        <time>2021-07-16T07:02:44.000Z</time>
      </trkpt>
      <trkpt lat="47.17113" lon="-1.64223">
        <ele>77</ele>
        <time>2021-07-16T07:02:46.000Z</time>
      </trkpt>
      <trkpt lat="47.17111" lon="-1.64241">
        <ele>77</ele>
        <time>2021-07-16T07:02:48.000Z</time>
      </trkpt>
      <trkpt lat="47.17109" lon="-1.6426">
        <ele>77</ele>
        <time>2021-07-16T07:02:50.000Z</time>
      </trkpt>
      <trkpt lat="47.17107" lon="-1.6428">
        <ele>77</ele>
        <time>2021-07-16T07:02:52.000Z</time>
      </trkpt>
      <trkpt lat="47.17106" lon="-1.64298">
        <ele>77</ele>
        <time>2021-07-16T07:02:54.000Z</time>
      </trkpt>
      <trkpt lat="47.17104" lon="-1.64317">
        <ele>77</ele>
        <time>2021-07-16T07:02:56.000Z</time>
      </trkpt>
      <trkpt lat="47.17102" lon="-1.64336">
        <ele>77</ele>
        <time>2021-07-16T07:02:58.000Z</time>
      </trkpt>
      <trkpt lat="47.171" lon="-1.64356">
        <ele>76</ele>
        <time>2021-07-16T07:03:00.000Z</time>
      </trkpt>
      <trkpt lat="47.17098" lon="-1.64375">
        <ele>77</ele>
        <time>2021-07-16T07:03:02.000Z</time>
      </trkpt>
      <trkpt lat="47.17096" lon="-1.64393">
        <ele>77</ele>
        <time>2021-07-16T07:03:04.000Z</time>
      </trkpt>
      <trkpt lat="47.17095" lon="-1.64412">
        <ele>77</ele>
        <time>2021-07-16T07:03:06.000Z</time>
      </trkpt>
      <trkpt lat="47.17093" lon="-1.64431">
        <ele>77</ele>
        <time>2021-07-16T07:03:08.000Z</time>
      </trkpt>
      <trkpt lat="47.17092" lon="-1.6445">
        <ele>77</ele>
        <time>2021-07-16T07:03:10.000Z</time>
      </trkpt>
      <trkpt lat="47.17091" lon="-1.64469">
        <ele>77</ele>
        <time>2021-07-16T07:03:12.000Z</time>
      </trkpt>
      <trkpt lat="47.1709" lon="-1.64489">
        <ele>77</ele>
        <time>2021-07-16T07:03:14.000Z</time>
      </trkpt>
      <trkpt lat="47.17089" lon="-1.64509">
        <ele>77</ele>
        <time>2021-07-16T07:03:16.000Z</time>
      </trkpt>
      <trkpt lat="47.17088" lon="-1.64528">
        <ele>77</ele>
        <time>2021-07-16T07:03:18.000Z</time>
      </trkpt>
      <trkpt lat="47.17088" lon="-1.64549">
        <ele>77</ele>
        <time>2021-07-16T07:03:20.000Z</time>
      </trkpt>
      <trkpt lat="47.17087" lon="-1.64568">
        <ele>76</ele>
        <time>2021-07-16T07:03:22.000Z</time>
      </trkpt>
      <trkpt lat="47.17087" lon="-1.64588">
        <ele>76</ele>
        <time>2021-07-16T07:03:24.000Z</time>
      </trkpt>
      <trkpt lat="47.17087" lon="-1.64608">
        <ele>76</ele>
        <time>2021-07-16T07:03:26.000Z</time>
      </trkpt>
      <trkpt lat="47.17087" lon="-1.64628">
        <ele>76</ele>
        <time>2021-07-16T07:03:28.000Z</time>
      </trkpt>
      <trkpt lat="47.17087" lon="-1.64647">
        <ele>76</ele>
        <time>2021-07-16T07:03:30.000Z</time>
      </trkpt>
      <trkpt lat="47.17088" lon="-1.64667">
        <ele>76</ele>
        <time>2021-07-16T07:03:32.000Z</time>
      </trkpt>
      <trkpt lat="47.17088" lon="-1.64686">
        <ele>75</ele>
        <time>2021-07-16T07:03:34.000Z</time>
      </trkpt>
      <trkpt lat="47.17089" lon="-1.64706">
        <ele>75</ele>
        <time>2021-07-16T07:03:36.000Z</time>
      </trkpt>
      <trkpt lat="47.1709" lon="-1.64725">
        <ele>75</ele>
        <time>2021-07-16T07:03:38.000Z</time>
      </trkpt>
      <trkpt lat="47.1709" lon="-1.64744">
        <ele>75</ele>
        <time>2021-07-16T07:03:40.000Z</time>
      </trkpt>
      <trkpt lat="47.17092" lon="-1.64763">
        <ele>75</ele>
        <time>2021-07-16T07:03:42.000Z</time>
      </trkpt>
      <trkpt lat="47.17093" lon="-1.64781">
        <ele>76</ele>
        <time>2021-07-16T07:03:44.000Z</time>
      </trkpt>
      <trkpt lat="47.17094" lon="-1.64801">
        <ele>76</ele>
        <time>2021-07-16T07:03:46.000Z</time>
      </trkpt>
      <trkpt lat="47.17095" lon="-1.6482">
        <ele>76</ele>
        <time>2021-07-16T07:03:48.000Z</time>
      </trkpt>
      <trkpt lat="47.17097" lon="-1.6484">
        <ele>76</ele>
        <time>2021-07-16T07:03:50.000Z</time>
      </trkpt>
      <trkpt lat="47.17097" lon="-1.64861">
        <ele>76</ele>
        <time>2021-07-16T07:03:52.000Z</time>
      </trkpt>
      <trkpt lat="47.17098" lon="-1.64881">
        <ele>75</ele>
        <time>2021-07-16T07:03:54.000Z</time>
      </trkpt>
      <trkpt lat="47.171" lon="-1.649">
        <ele>75</ele>
        <time>2021-07-16T07:03:56.000Z</time>
      </trkpt>
      <trkpt lat="47.17101" lon="-1.64919">
        <ele>74</ele>
        <time>2021-07-16T07:03:58.000Z</time>
      </trkpt>
      <trkpt lat="47.17102" lon="-1.64939">
        <ele>74</ele>
        <time>2021-07-16T07:04:00.000Z</time>
      </trkpt>
      <trkpt lat="47.17104" lon="-1.64958">
        <ele>74</ele>
        <time>2021-07-16T07:04:02.000Z</time>
      </trkpt>
      <trkpt lat="47.17106" lon="-1.64977">
        <ele>74</ele>
        <time>2021-07-16T07:04:04.000Z</time>
      </trkpt>
      <trkpt lat="47.17107" lon="-1.64996">
        <ele>75</ele>
        <time>2021-07-16T07:04:06.000Z</time>
      </trkpt>
      <trkpt lat="47.17108" lon="-1.65014">
        <ele>74</ele>
        <time>2021-07-16T07:04:08.000Z</time>
      </trkpt>
      <trkpt lat="47.1711" lon="-1.65033">
        <ele>74</ele>
        <time>2021-07-16T07:04:10.000Z</time>
      </trkpt>
      <trkpt lat="47.17111" lon="-1.65052">
        <ele>74</ele>
        <time>2021-07-16T07:04:12.000Z</time>
      </trkpt>
      <trkpt lat="47.17112" lon="-1.6507">
        <ele>75</ele>
        <time>2021-07-16T07:04:14.000Z</time>
      </trkpt>
      <trkpt lat="47.17113" lon="-1.65088">
        <ele>75</ele>
        <time>2021-07-16T07:04:16.000Z</time>
      </trkpt>
      <trkpt lat="47.17115" lon="-1.65108">
        <ele>75</ele>
        <time>2021-07-16T07:04:18.000Z</time>
      </trkpt>
      <trkpt lat="47.17116" lon="-1.65127">
        <ele>76</ele>
        <time>2021-07-16T07:04:20.000Z</time>
      </trkpt>
      <trkpt lat="47.17117" lon="-1.65145">
        <ele>76</ele>
        <time>2021-07-16T07:04:22.000Z</time>
      </trkpt>
      <trkpt lat="47.17119" lon="-1.65163">
        <ele>75</ele>
        <time>2021-07-16T07:04:24.000Z</time>
      </trkpt>
      <trkpt lat="47.1712" lon="-1.65181">
        <ele>76</ele>
        <time>2021-07-16T07:04:26.000Z</time>
      </trkpt>
      <trkpt lat="47.17121" lon="-1.65199">
        <ele>76</ele>
        <time>2021-07-16T07:04:28.000Z</time>
      </trkpt>
      <trkpt lat="47.17123" lon="-1.65217">
        <ele>75</ele>
        <time>2021-07-16T07:04:30.000Z</time>
      </trkpt>
      <trkpt lat="47.17125" lon="-1.65235">
        <ele>76</ele>
        <time>2021-07-16T07:04:32.000Z</time>
      </trkpt>
      <trkpt lat="47.17127" lon="-1.65251">
        <ele>76</ele>
        <time>2021-07-16T07:04:34.000Z</time>
      </trkpt>
      <trkpt lat="47.17133" lon="-1.65265">
        <ele>76</ele>
        <time>2021-07-16T07:04:36.000Z</time>
      </trkpt>
      <trkpt lat="47.17142" lon="-1.65276">
        <ele>76</ele>
        <time>2021-07-16T07:04:38.000Z</time>
      </trkpt>
      <trkpt lat="47.1715" lon="-1.65288">
        <ele>76</ele>
        <time>2021-07-16T07:04:40.000Z</time>
      </trkpt>
      <trkpt lat="47.17161" lon="-1.65299">
        <ele>76</ele>
        <time>2021-07-16T07:04:42.000Z</time>
      </trkpt>
      <trkpt lat="47.1717" lon="-1.65312">
        <ele>76</ele>
        <time>2021-07-16T07:04:44.000Z</time>
      </trkpt>
      <trkpt lat="47.17177" lon="-1.65328">
        <ele>76</ele>
        <time>2021-07-16T07:04:46.000Z</time>
      </trkpt>
      <trkpt lat="47.17179" lon="-1.65348">
        <ele>76</ele>
        <time>2021-07-16T07:04:48.000Z</time>
      </trkpt>
      <trkpt lat="47.17178" lon="-1.65368">
        <ele>76</ele>
        <time>2021-07-16T07:04:50.000Z</time>
      </trkpt>
      <trkpt lat="47.17175" lon="-1.65388">
        <ele>76</ele>
        <time>2021-07-16T07:04:52.000Z</time>
      </trkpt>
      <trkpt lat="47.17172" lon="-1.65407">
        <ele>76</ele>
        <time>2021-07-16T07:04:54.000Z</time>
      </trkpt>
      <trkpt lat="47.1717" lon="-1.65427">
        <ele>76</ele>
        <time>2021-07-16T07:04:56.000Z</time>
      </trkpt>
      <trkpt lat="47.17167" lon="-1.65447">
        <ele>76</ele>
        <time>2021-07-16T07:04:58.000Z</time>
      </trkpt>
      <trkpt lat="47.17165" lon="-1.65467">
        <ele>76</ele>
        <time>2021-07-16T07:05:00.000Z</time>
      </trkpt>
      <trkpt lat="47.17162" lon="-1.65487">
        <ele>76</ele>
        <time>2021-07-16T07:05:02.000Z</time>
      </trkpt>
      <trkpt lat="47.1716" lon="-1.65506">
        <ele>76</ele>
        <time>2021-07-16T07:05:04.000Z</time>
      </trkpt>
      <trkpt lat="47.17159" lon="-1.65525">
        <ele>77</ele>
        <time>2021-07-16T07:05:06.000Z</time>
      </trkpt>
      <trkpt lat="47.17157" lon="-1.65544">
        <ele>77</ele>
        <time>2021-07-16T07:05:08.000Z</time>
      </trkpt>
      <trkpt lat="47.17156" lon="-1.65564">
        <ele>77</ele>
        <time>2021-07-16T07:05:10.000Z</time>
      </trkpt>
      <trkpt lat="47.17155" lon="-1.65583">
        <ele>77</ele>
        <time>2021-07-16T07:05:12.000Z</time>
      </trkpt>
      <trkpt lat="47.17154" lon="-1.65604">
        <ele>77</ele>
        <time>2021-07-16T07:05:14.000Z</time>
      </trkpt>
      <trkpt lat="47.17154" lon="-1.65623">
        <ele>77</ele>
        <time>2021-07-16T07:05:16.000Z</time>
      </trkpt>
      <trkpt lat="47.17153" lon="-1.65643">
        <ele>77</ele>
        <time>2021-07-16T07:05:18.000Z</time>
      </trkpt>
      <trkpt lat="47.17154" lon="-1.65663">
        <ele>77</ele>
        <time>2021-07-16T07:05:20.000Z</time>
      </trkpt>
      <trkpt lat="47.17154" lon="-1.65683">
        <ele>77</ele>
        <time>2021-07-16T07:05:22.000Z</time>
      </trkpt>
      <trkpt lat="47.17155" lon="-1.65702">
        <ele>77</ele>
        <time>2021-07-16T07:05:24.000Z</time>
      </trkpt>
      <trkpt lat="47.17156" lon="-1.65722">
        <ele>77</ele>
        <time>2021-07-16T07:05:26.000Z</time>
      </trkpt>
      <trkpt lat="47.17159" lon="-1.65742">
        <ele>76</ele>
        <time>2021-07-16T07:05:28.000Z</time>
      </trkpt>
      <trkpt lat="47.17161" lon="-1.65762">
        <ele>77</ele>
        <time>2021-07-16T07:05:30.000Z</time>
      </trkpt>
      <trkpt lat="47.17163" lon="-1.65782">
        <ele>77</ele>
        <time>2021-07-16T07:05:32.000Z</time>
      </trkpt>
      <trkpt lat="47.17166" lon="-1.65801">
        <ele>76</ele>
        <time>2021-07-16T07:05:34.000Z</time>
      </trkpt>
      <trkpt lat="47.17168" lon="-1.6582">
        <ele>77</ele>
        <time>2021-07-16T07:05:36.000Z</time>
      </trkpt>
      <trkpt lat="47.17171" lon="-1.6584">
        <ele>76</ele>
        <time>2021-07-16T07:05:38.000Z</time>
      </trkpt>
      <trkpt lat="47.17174" lon="-1.6586">
        <ele>76</ele>
        <time>2021-07-16T07:05:40.000Z</time>
      </trkpt>
      <trkpt lat="47.17178" lon="-1.65879">
        <ele>77</ele>
        <time>2021-07-16T07:05:42.000Z</time>
      </trkpt>
      <trkpt lat="47.17181" lon="-1.65897">
        <ele>77</ele>
        <time>2021-07-16T07:05:44.000Z</time>
      </trkpt>
      <trkpt lat="47.17184" lon="-1.65917">
        <ele>77</ele>
        <time>2021-07-16T07:05:46.000Z</time>
      </trkpt>
      <trkpt lat="47.17188" lon="-1.65936">
        <ele>76</ele>
        <time>2021-07-16T07:05:48.000Z</time>
      </trkpt>
      <trkpt lat="47.17192" lon="-1.65955">
        <ele>76</ele>
        <time>2021-07-16T07:05:50.000Z</time>
      </trkpt>
      <trkpt lat="47.17195" lon="-1.65974">
        <ele>76</ele>
        <time>2021-07-16T07:05:52.000Z</time>
      </trkpt>
      <trkpt lat="47.17199" lon="-1.65993">
        <ele>76</ele>
        <time>2021-07-16T07:05:54.000Z</time>
      </trkpt>
      <trkpt lat="47.17202" lon="-1.66011">
        <ele>76</ele>
        <time>2021-07-16T07:05:56.000Z</time>
      </trkpt>
      <trkpt lat="47.17206" lon="-1.6603">
        <ele>76</ele>
        <time>2021-07-16T07:05:58.000Z</time>
      </trkpt>
      <trkpt lat="47.17212" lon="-1.66058">
        <ele>75</ele>
        <time>2021-07-16T07:06:01.000Z</time>
      </trkpt>
      <trkpt lat="47.17215" lon="-1.66077">
        <ele>76</ele>
        <time>2021-07-16T07:06:03.000Z</time>
      </trkpt>
      <trkpt lat="47.17221" lon="-1.66105">
        <ele>76</ele>
        <time>2021-07-16T07:06:06.000Z</time>
      </trkpt>
      <trkpt lat="47.17225" lon="-1.66123">
        <ele>76</ele>
        <time>2021-07-16T07:06:08.000Z</time>
      </trkpt>
      <trkpt lat="47.17231" lon="-1.66151">
        <ele>76</ele>
        <time>2021-07-16T07:06:11.000Z</time>
      </trkpt>
      <trkpt lat="47.17235" lon="-1.66169">
        <ele>76</ele>
        <time>2021-07-16T07:06:13.000Z</time>
      </trkpt>
      <trkpt lat="47.17242" lon="-1.66184">
        <ele>76</ele>
        <time>2021-07-16T07:06:15.000Z</time>
      </trkpt>
      <trkpt lat="47.17251" lon="-1.66196">
        <ele>76</ele>
        <time>2021-07-16T07:06:17.000Z</time>
      </trkpt>
      <trkpt lat="47.17257" lon="-1.6621">
        <ele>76</ele>
        <time>2021-07-16T07:06:19.000Z</time>
      </trkpt>
      <trkpt lat="47.17264" lon="-1.66224">
        <ele>75</ele>
        <time>2021-07-16T07:06:21.000Z</time>
      </trkpt>
      <trkpt lat="47.17272" lon="-1.66238">
        <ele>75</ele>
        <time>2021-07-16T07:06:23.000Z</time>
      </trkpt>
      <trkpt lat="47.17278" lon="-1.66252">
        <ele>75</ele>
        <time>2021-07-16T07:06:25.000Z</time>
      </trkpt>
      <trkpt lat="47.17285" lon="-1.66267">
        <ele>75</ele>
        <time>2021-07-16T07:06:27.000Z</time>
      </trkpt>
      <trkpt lat="47.17293" lon="-1.66283">
        <ele>75</ele>
        <time>2021-07-16T07:06:29.000Z</time>
      </trkpt>
      <trkpt lat="47.17302" lon="-1.66298">
        <ele>75</ele>
        <time>2021-07-16T07:06:31.000Z</time>
      </trkpt>
      <trkpt lat="47.17311" lon="-1.66313">
        <ele>74</ele>
        <time>2021-07-16T07:06:33.000Z</time>
      </trkpt>
      <trkpt lat="47.1732" lon="-1.66329">
        <ele>74</ele>
        <time>2021-07-16T07:06:35.000Z</time>
      </trkpt>
      <trkpt lat="47.17328" lon="-1.66343">
        <ele>74</ele>
        <time>2021-07-16T07:06:37.000Z</time>
      </trkpt>
      <trkpt lat="47.17336" lon="-1.66357">
        <ele>74</ele>
        <time>2021-07-16T07:06:39.000Z</time>
      </trkpt>
      <trkpt lat="47.17343" lon="-1.66371">
        <ele>76</ele>
        <time>2021-07-16T07:06:41.000Z</time>
      </trkpt>
      <trkpt lat="47.17352" lon="-1.66386">
        <ele>76</ele>
        <time>2021-07-16T07:06:43.000Z</time>
      </trkpt>
      <trkpt lat="47.17359" lon="-1.664">
        <ele>77</ele>
        <time>2021-07-16T07:06:45.000Z</time>
      </trkpt>
      <trkpt lat="47.17367" lon="-1.66415">
        <ele>76</ele>
        <time>2021-07-16T07:06:47.000Z</time>
      </trkpt>
      <trkpt lat="47.17376" lon="-1.6643">
        <ele>76</ele>
        <time>2021-07-16T07:06:49.000Z</time>
      </trkpt>
      <trkpt lat="47.17385" lon="-1.66444">
        <ele>76</ele>
        <time>2021-07-16T07:06:51.000Z</time>
      </trkpt>
      <trkpt lat="47.17393" lon="-1.66459">
        <ele>75</ele>
        <time>2021-07-16T07:06:53.000Z</time>
      </trkpt>
      <trkpt lat="47.17402" lon="-1.66474">
        <ele>76</ele>
        <time>2021-07-16T07:06:55.000Z</time>
      </trkpt>
      <trkpt lat="47.1741" lon="-1.6649">
        <ele>76</ele>
        <time>2021-07-16T07:06:57.000Z</time>
      </trkpt>
      <trkpt lat="47.17418" lon="-1.66505">
        <ele>76</ele>
        <time>2021-07-16T07:06:59.000Z</time>
      </trkpt>
      <trkpt lat="47.17426" lon="-1.66519">
        <ele>76</ele>
        <time>2021-07-16T07:07:01.000Z</time>
      </trkpt>
      <trkpt lat="47.17434" lon="-1.66533">
        <ele>76</ele>
        <time>2021-07-16T07:07:03.000Z</time>
      </trkpt>
      <trkpt lat="47.17442" lon="-1.66548">
        <ele>75</ele>
        <time>2021-07-16T07:07:05.000Z</time>
      </trkpt>
      <trkpt lat="47.17449" lon="-1.66562">
        <ele>75</ele>
        <time>2021-07-16T07:07:07.000Z</time>
      </trkpt>
      <trkpt lat="47.17457" lon="-1.66579">
        <ele>74</ele>
        <time>2021-07-16T07:07:09.000Z</time>
      </trkpt>
      <trkpt lat="47.17465" lon="-1.66595">
        <ele>74</ele>
        <time>2021-07-16T07:07:11.000Z</time>
      </trkpt>
      <trkpt lat="47.17473" lon="-1.6661">
        <ele>75</ele>
        <time>2021-07-16T07:07:13.000Z</time>
      </trkpt>
      <trkpt lat="47.17483" lon="-1.66627">
        <ele>76</ele>
        <time>2021-07-16T07:07:15.000Z</time>
      </trkpt>
      <trkpt lat="47.17491" lon="-1.66643">
        <ele>77</ele>
        <time>2021-07-16T07:07:17.000Z</time>
      </trkpt>
      <trkpt lat="47.175" lon="-1.66658">
        <ele>77</ele>
        <time>2021-07-16T07:07:19.000Z</time>
      </trkpt>
      <trkpt lat="47.17508" lon="-1.66673">
        <ele>76</ele>
        <time>2021-07-16T07:07:21.000Z</time>
      </trkpt>
      <trkpt lat="47.17516" lon="-1.66688">
        <ele>77</ele>
        <time>2021-07-16T07:07:23.000Z</time>
      </trkpt>
      <trkpt lat="47.17525" lon="-1.66704">
        <ele>77</ele>
        <time>2021-07-16T07:07:25.000Z</time>
      </trkpt>
      <trkpt lat="47.17532" lon="-1.66719">
        <ele>76</ele>
        <time>2021-07-16T07:07:27.000Z</time>
      </trkpt>
      <trkpt lat="47.1754" lon="-1.66734">
        <ele>76</ele>
        <time>2021-07-16T07:07:29.000Z</time>
      </trkpt>
      <trkpt lat="47.17548" lon="-1.66748">
        <ele>76</ele>
        <time>2021-07-16T07:07:31.000Z</time>
      </trkpt>
      <trkpt lat="47.17557" lon="-1.66765">
        <ele>77</ele>
        <time>2021-07-16T07:07:33.000Z</time>
      </trkpt>
      <trkpt lat="47.17564" lon="-1.6678">
        <ele>76</ele>
        <time>2021-07-16T07:07:35.000Z</time>
      </trkpt>
      <trkpt lat="47.17573" lon="-1.66794">
        <ele>76</ele>
        <time>2021-07-16T07:07:37.000Z</time>
      </trkpt>
      <trkpt lat="47.17581" lon="-1.66809">
        <ele>76</ele>
        <time>2021-07-16T07:07:39.000Z</time>
      </trkpt>
      <trkpt lat="47.17589" lon="-1.66824">
        <ele>76</ele>
        <time>2021-07-16T07:07:41.000Z</time>
      </trkpt>
      <trkpt lat="47.17598" lon="-1.6684">
        <ele>76</ele>
        <time>2021-07-16T07:07:43.000Z</time>
      </trkpt>
      <trkpt lat="47.17607" lon="-1.66857">
        <ele>76</ele>
        <time>2021-07-16T07:07:45.000Z</time>
      </trkpt>
      <trkpt lat="47.17615" lon="-1.66873">
        <ele>76</ele>
        <time>2021-07-16T07:07:47.000Z</time>
      </trkpt>
      <trkpt lat="47.17624" lon="-1.66888">
        <ele>76</ele>
        <time>2021-07-16T07:07:49.000Z</time>
      </trkpt>
      <trkpt lat="47.17633" lon="-1.66903">
        <ele>77</ele>
        <time>2021-07-16T07:07:51.000Z</time>
      </trkpt>
      <trkpt lat="47.1764" lon="-1.66918">
        <ele>78</ele>
        <time>2021-07-16T07:07:53.000Z</time>
      </trkpt>
      <trkpt lat="47.17649" lon="-1.66934">
        <ele>79</ele>
        <time>2021-07-16T07:07:55.000Z</time>
      </trkpt>
      <trkpt lat="47.17657" lon="-1.6695">
        <ele>79</ele>
        <time>2021-07-16T07:07:57.000Z</time>
      </trkpt>
      <trkpt lat="47.17665" lon="-1.66966">
        <ele>78</ele>
        <time>2021-07-16T07:07:59.000Z</time>
      </trkpt>
      <trkpt lat="47.17674" lon="-1.66982">
        <ele>79</ele>
        <time>2021-07-16T07:08:01.000Z</time>
      </trkpt>
      <trkpt lat="47.17683" lon="-1.66998">
        <ele>79</ele>
        <time>2021-07-16T07:08:03.000Z</time>
      </trkpt>
      <trkpt lat="47.17692" lon="-1.67014">
        <ele>79</ele>
        <time>2021-07-16T07:08:05.000Z</time>
      </trkpt>
      <trkpt lat="47.17701" lon="-1.6703">
        <ele>79</ele>
        <time>2021-07-16T07:08:07.000Z</time>
      </trkpt>
      <trkpt lat="47.17709" lon="-1.67046">
        <ele>79</ele>
        <time>2021-07-16T07:08:09.000Z</time>
      </trkpt>
      <trkpt lat="47.17718" lon="-1.67061">
        <ele>78</ele>
        <time>2021-07-16T07:08:11.000Z</time>
      </trkpt>
      <trkpt lat="47.17727" lon="-1.67077">
        <ele>78</ele>
        <time>2021-07-16T07:08:13.000Z</time>
      </trkpt>
      <trkpt lat="47.17735" lon="-1.67093">
        <ele>78</ele>
        <time>2021-07-16T07:08:15.000Z</time>
      </trkpt>
      <trkpt lat="47.17743" lon="-1.67109">
        <ele>78</ele>
        <time>2021-07-16T07:08:17.000Z</time>
      </trkpt>
      <trkpt lat="47.17752" lon="-1.67124">
        <ele>78</ele>
        <time>2021-07-16T07:08:19.000Z</time>
      </trkpt>
      <trkpt lat="47.1776" lon="-1.6714">
        <ele>78</ele>
        <time>2021-07-16T07:08:21.000Z</time>
      </trkpt>
      <trkpt lat="47.17769" lon="-1.67157">
        <ele>78</ele>
        <time>2021-07-16T07:08:23.000Z</time>
      </trkpt>
      <trkpt lat="47.17778" lon="-1.67173">
        <ele>78</ele>
        <time>2021-07-16T07:08:25.000Z</time>
      </trkpt>
      <trkpt lat="47.17786" lon="-1.67189">
        <ele>78</ele>
        <time>2021-07-16T07:08:27.000Z</time>
      </trkpt>
      <trkpt lat="47.17795" lon="-1.67205">
        <ele>78</ele>
        <time>2021-07-16T07:08:29.000Z</time>
      </trkpt>
      <trkpt lat="47.17804" lon="-1.67221">
        <ele>78</ele>
        <time>2021-07-16T07:08:31.000Z</time>
      </trkpt>
      <trkpt lat="47.17812" lon="-1.67238">
        <ele>78</ele>
        <time>2021-07-16T07:08:33.000Z</time>
      </trkpt>
      <trkpt lat="47.17819" lon="-1.67254">
        <ele>78</ele>
        <time>2021-07-16T07:08:35.000Z</time>
      </trkpt>
      <trkpt lat="47.17828" lon="-1.67269">
        <ele>78</ele>
        <time>2021-07-16T07:08:37.000Z</time>
      </trkpt>
      <trkpt lat="47.17836" lon="-1.67284">
        <ele>77</ele>
        <time>2021-07-16T07:08:39.000Z</time>
      </trkpt>
      <trkpt lat="47.17845" lon="-1.67299">
        <ele>77</ele>
        <time>2021-07-16T07:08:41.000Z</time>
      </trkpt>
      <trkpt lat="47.17853" lon="-1.67315">
        <ele>77</ele>
        <time>2021-07-16T07:08:43.000Z</time>
      </trkpt>
      <trkpt lat="47.17861" lon="-1.67331">
        <ele>78</ele>
        <time>2021-07-16T07:08:45.000Z</time>
      </trkpt>
      <trkpt lat="47.1787" lon="-1.67346">
        <ele>78</ele>
        <time>2021-07-16T07:08:47.000Z</time>
      </trkpt>
      <trkpt lat="47.17878" lon="-1.67359">
        <ele>78</ele>
        <time>2021-07-16T07:08:49.000Z</time>
      </trkpt>
      <trkpt lat="47.17884" lon="-1.67372">
        <ele>78</ele>
        <time>2021-07-16T07:08:51.000Z</time>
      </trkpt>
      <trkpt lat="47.17892" lon="-1.67386">
        <ele>78</ele>
        <time>2021-07-16T07:08:54.000Z</time>
      </trkpt>
      <trkpt lat="47.179" lon="-1.67397">
        <ele>78</ele>
        <time>2021-07-16T07:08:57.000Z</time>
      </trkpt>
      <trkpt lat="47.17907" lon="-1.6741">
        <ele>78</ele>
        <time>2021-07-16T07:08:59.000Z</time>
      </trkpt>
      <trkpt lat="47.17912" lon="-1.67426">
        <ele>78</ele>
        <time>2021-07-16T07:09:01.000Z</time>
      </trkpt>
      <trkpt lat="47.17916" lon="-1.67443">
        <ele>78</ele>
        <time>2021-07-16T07:09:03.000Z</time>
      </trkpt>
      <trkpt lat="47.17921" lon="-1.6746">
        <ele>79</ele>
        <time>2021-07-16T07:09:05.000Z</time>
      </trkpt>
      <trkpt lat="47.17926" lon="-1.67477">
        <ele>79</ele>
        <time>2021-07-16T07:09:07.000Z</time>
      </trkpt>
      <trkpt lat="47.17931" lon="-1.67496">
        <ele>79</ele>
        <time>2021-07-16T07:09:09.000Z</time>
      </trkpt>
      <trkpt lat="47.17936" lon="-1.67514">
        <ele>79</ele>
        <time>2021-07-16T07:09:11.000Z</time>
      </trkpt>
      <trkpt lat="47.17941" lon="-1.67531">
        <ele>79</ele>
        <time>2021-07-16T07:09:13.000Z</time>
      </trkpt>
      <trkpt lat="47.17946" lon="-1.67548">
        <ele>80</ele>
        <time>2021-07-16T07:09:15.000Z</time>
      </trkpt>
      <trkpt lat="47.17951" lon="-1.67567">
        <ele>79</ele>
        <time>2021-07-16T07:09:17.000Z</time>
      </trkpt>
      <trkpt lat="47.17955" lon="-1.67584">
        <ele>79</ele>
        <time>2021-07-16T07:09:19.000Z</time>
      </trkpt>
      <trkpt lat="47.1796" lon="-1.67601">
        <ele>79</ele>
        <time>2021-07-16T07:09:21.000Z</time>
      </trkpt>
      <trkpt lat="47.17964" lon="-1.67619">
        <ele>80</ele>
        <time>2021-07-16T07:09:23.000Z</time>
      </trkpt>
      <trkpt lat="47.17969" lon="-1.67636">
        <ele>80</ele>
        <time>2021-07-16T07:09:25.000Z</time>
      </trkpt>
      <trkpt lat="47.17973" lon="-1.67652">
        <ele>80</ele>
        <time>2021-07-16T07:09:27.000Z</time>
      </trkpt>
      <trkpt lat="47.17978" lon="-1.67669">
        <ele>80</ele>
        <time>2021-07-16T07:09:29.000Z</time>
      </trkpt>
      <trkpt lat="47.17983" lon="-1.67686">
        <ele>81</ele>
        <time>2021-07-16T07:09:31.000Z</time>
      </trkpt>
      <trkpt lat="47.17987" lon="-1.67702">
        <ele>80</ele>
        <time>2021-07-16T07:09:33.000Z</time>
      </trkpt>
      <trkpt lat="47.17991" lon="-1.67718">
        <ele>80</ele>
        <time>2021-07-16T07:09:35.000Z</time>
      </trkpt>
      <trkpt lat="47.18" lon="-1.67729">
        <ele>79</ele>
        <time>2021-07-16T07:09:37.000Z</time>
      </trkpt>
      <trkpt lat="47.18012" lon="-1.67727">
        <ele>80</ele>
        <time>2021-07-16T07:09:39.000Z</time>
      </trkpt>
      <trkpt lat="47.18025" lon="-1.67718">
        <ele>79</ele>
        <time>2021-07-16T07:09:41.000Z</time>
      </trkpt>
      <trkpt lat="47.18037" lon="-1.67711">
        <ele>79</ele>
        <time>2021-07-16T07:09:43.000Z</time>
      </trkpt>
      <trkpt lat="47.18049" lon="-1.67704">
        <ele>79</ele>
        <time>2021-07-16T07:09:45.000Z</time>
      </trkpt>
      <trkpt lat="47.18061" lon="-1.67696">
        <ele>79</ele>
        <time>2021-07-16T07:09:47.000Z</time>
      </trkpt>
      <trkpt lat="47.18073" lon="-1.67689">
        <ele>80</ele>
        <time>2021-07-16T07:09:49.000Z</time>
      </trkpt>
      <trkpt lat="47.18085" lon="-1.67681">
        <ele>80</ele>
        <time>2021-07-16T07:09:51.000Z</time>
      </trkpt>
      <trkpt lat="47.18097" lon="-1.67674">
        <ele>81</ele>
        <time>2021-07-16T07:09:53.000Z</time>
      </trkpt>
      <trkpt lat="47.1811" lon="-1.67666">
        <ele>80</ele>
        <time>2021-07-16T07:09:55.000Z</time>
      </trkpt>
      <trkpt lat="47.18122" lon="-1.67659">
        <ele>80</ele>
        <time>2021-07-16T07:09:57.000Z</time>
      </trkpt>
      <trkpt lat="47.18134" lon="-1.67651">
        <ele>80</ele>
        <time>2021-07-16T07:09:59.000Z</time>
      </trkpt>
      <trkpt lat="47.18147" lon="-1.67644">
        <ele>80</ele>
        <time>2021-07-16T07:10:01.000Z</time>
      </trkpt>
      <trkpt lat="47.18159" lon="-1.67637">
        <ele>80</ele>
        <time>2021-07-16T07:10:03.000Z</time>
      </trkpt>
      <trkpt lat="47.18171" lon="-1.67629">
        <ele>80</ele>
        <time>2021-07-16T07:10:05.000Z</time>
      </trkpt>
      <trkpt lat="47.18183" lon="-1.6762">
        <ele>80</ele>
        <time>2021-07-16T07:10:07.000Z</time>
      </trkpt>
      <trkpt lat="47.18195" lon="-1.67609">
        <ele>80</ele>
        <time>2021-07-16T07:10:09.000Z</time>
      </trkpt>
      <trkpt lat="47.18207" lon="-1.67601">
        <ele>80</ele>
        <time>2021-07-16T07:10:11.000Z</time>
      </trkpt>
      <trkpt lat="47.1822" lon="-1.67595">
        <ele>79</ele>
        <time>2021-07-16T07:10:13.000Z</time>
      </trkpt>
      <trkpt lat="47.18233" lon="-1.67588">
        <ele>79</ele>
        <time>2021-07-16T07:10:15.000Z</time>
      </trkpt>
      <trkpt lat="47.18246" lon="-1.67581">
        <ele>79</ele>
        <time>2021-07-16T07:10:17.000Z</time>
      </trkpt>
      <trkpt lat="47.18258" lon="-1.67574">
        <ele>78</ele>
        <time>2021-07-16T07:10:19.000Z</time>
      </trkpt>
      <trkpt lat="47.1827" lon="-1.67566">
        <ele>78</ele>
        <time>2021-07-16T07:10:21.000Z</time>
      </trkpt>
      <trkpt lat="47.18282" lon="-1.67558">
        <ele>78</ele>
        <time>2021-07-16T07:10:23.000Z</time>
      </trkpt>
      <trkpt lat="47.18295" lon="-1.67551">
        <ele>78</ele>
        <time>2021-07-16T07:10:25.000Z</time>
      </trkpt>
      <trkpt lat="47.18306" lon="-1.67544">
        <ele>78</ele>
        <time>2021-07-16T07:10:27.000Z</time>
      </trkpt>
      <trkpt lat="47.18318" lon="-1.67537">
        <ele>78</ele>
        <time>2021-07-16T07:10:29.000Z</time>
      </trkpt>
      <trkpt lat="47.1833" lon="-1.67529">
        <ele>79</ele>
        <time>2021-07-16T07:10:31.000Z</time>
      </trkpt>
      <trkpt lat="47.18342" lon="-1.67522">
        <ele>79</ele>
        <time>2021-07-16T07:10:33.000Z</time>
      </trkpt>
      <trkpt lat="47.18353" lon="-1.67516">
        <ele>78</ele>
        <time>2021-07-16T07:10:35.000Z</time>
      </trkpt>
      <trkpt lat="47.18365" lon="-1.67508">
        <ele>78</ele>
        <time>2021-07-16T07:10:37.000Z</time>
      </trkpt>
      <trkpt lat="47.18377" lon="-1.67502">
        <ele>79</ele>
        <time>2021-07-16T07:10:39.000Z</time>
      </trkpt>
      <trkpt lat="47.18389" lon="-1.67496">
        <ele>79</ele>
        <time>2021-07-16T07:10:41.000Z</time>
      </trkpt>
      <trkpt lat="47.18401" lon="-1.6749">
        <ele>79</ele>
        <time>2021-07-16T07:10:43.000Z</time>
      </trkpt>
      <trkpt lat="47.18412" lon="-1.67483">
        <ele>79</ele>
        <time>2021-07-16T07:10:45.000Z</time>
      </trkpt>
      <trkpt lat="47.18423" lon="-1.67476">
        <ele>79</ele>
        <time>2021-07-16T07:10:47.000Z</time>
      </trkpt>
      <trkpt lat="47.18434" lon="-1.6747">
        <ele>79</ele>
        <time>2021-07-16T07:10:49.000Z</time>
      </trkpt>
      <trkpt lat="47.18445" lon="-1.67463">
        <ele>80</ele>
        <time>2021-07-16T07:10:51.000Z</time>
      </trkpt>
      <trkpt lat="47.18457" lon="-1.67456">
        <ele>79</ele>
        <time>2021-07-16T07:10:53.000Z</time>
      </trkpt>
      <trkpt lat="47.18467" lon="-1.67449">
        <ele>80</ele>
        <time>2021-07-16T07:10:55.000Z</time>
      </trkpt>
      <trkpt lat="47.18478" lon="-1.67442">
        <ele>81</ele>
        <time>2021-07-16T07:10:57.000Z</time>
      </trkpt>
      <trkpt lat="47.18489" lon="-1.67437">
        <ele>81</ele>
        <time>2021-07-16T07:10:59.000Z</time>
      </trkpt>
      <trkpt lat="47.185" lon="-1.67432">
        <ele>81</ele>
        <time>2021-07-16T07:11:01.000Z</time>
      </trkpt>
      <trkpt lat="47.1851" lon="-1.67423">
        <ele>82</ele>
        <time>2021-07-16T07:11:03.000Z</time>
      </trkpt>
      <trkpt lat="47.18519" lon="-1.67414">
        <ele>82</ele>
        <time>2021-07-16T07:11:05.000Z</time>
      </trkpt>
      <trkpt lat="47.18529" lon="-1.6741">
        <ele>83</ele>
        <time>2021-07-16T07:11:07.000Z</time>
      </trkpt>
      <trkpt lat="47.18536" lon="-1.6742">
        <ele>83</ele>
        <time>2021-07-16T07:11:09.000Z</time>
      </trkpt>
      <trkpt lat="47.18537" lon="-1.67437">
        <ele>83</ele>
        <time>2021-07-16T07:11:11.000Z</time>
      </trkpt>
      <trkpt lat="47.18548" lon="-1.67447">
        <ele>82</ele>
        <time>2021-07-16T07:11:14.000Z</time>
      </trkpt>
      <trkpt lat="47.18558" lon="-1.6744">
        <ele>82</ele>
        <time>2021-07-16T07:11:16.000Z</time>
      </trkpt>
      <trkpt lat="47.18566" lon="-1.67432">
        <ele>83</ele>
        <time>2021-07-16T07:11:18.000Z</time>
      </trkpt>
      <trkpt lat="47.18577" lon="-1.67428">
        <ele>83</ele>
        <time>2021-07-16T07:11:20.000Z</time>
      </trkpt>
      <trkpt lat="47.18588" lon="-1.67432">
        <ele>82</ele>
        <time>2021-07-16T07:11:22.000Z</time>
      </trkpt>
      <trkpt lat="47.18597" lon="-1.67447">
        <ele>81</ele>
        <time>2021-07-16T07:11:24.000Z</time>
      </trkpt>
      <trkpt lat="47.18603" lon="-1.67464">
        <ele>81</ele>
        <time>2021-07-16T07:11:26.000Z</time>
      </trkpt>
      <trkpt lat="47.18608" lon="-1.6748">
        <ele>81</ele>
        <time>2021-07-16T07:11:28.000Z</time>
      </trkpt>
      <trkpt lat="47.18614" lon="-1.67497">
        <ele>81</ele>
        <time>2021-07-16T07:11:30.000Z</time>
      </trkpt>
      <trkpt lat="47.18621" lon="-1.67513">
        <ele>81</ele>
        <time>2021-07-16T07:11:32.000Z</time>
      </trkpt>
      <trkpt lat="47.18629" lon="-1.67528">
        <ele>81</ele>
        <time>2021-07-16T07:11:34.000Z</time>
      </trkpt>
      <trkpt lat="47.18637" lon="-1.67541">
        <ele>81</ele>
        <time>2021-07-16T07:11:36.000Z</time>
      </trkpt>
      <trkpt lat="47.18646" lon="-1.67554">
        <ele>81</ele>
        <time>2021-07-16T07:11:38.000Z</time>
      </trkpt>
      <trkpt lat="47.18655" lon="-1.67567">
        <ele>81</ele>
        <time>2021-07-16T07:11:40.000Z</time>
      </trkpt>
      <trkpt lat="47.18665" lon="-1.6758">
        <ele>81</ele>
        <time>2021-07-16T07:11:42.000Z</time>
      </trkpt>
      <trkpt lat="47.18674" lon="-1.67593">
        <ele>81</ele>
        <time>2021-07-16T07:11:44.000Z</time>
      </trkpt>
      <trkpt lat="47.18683" lon="-1.67605">
        <ele>81</ele>
        <time>2021-07-16T07:11:46.000Z</time>
      </trkpt>
      <trkpt lat="47.18693" lon="-1.67613">
        <ele>81</ele>
        <time>2021-07-16T07:11:48.000Z</time>
      </trkpt>
      <trkpt lat="47.18704" lon="-1.67616">
        <ele>81</ele>
        <time>2021-07-16T07:11:50.000Z</time>
      </trkpt>
      <trkpt lat="47.18715" lon="-1.67614">
        <ele>82</ele>
        <time>2021-07-16T07:11:52.000Z</time>
      </trkpt>
      <trkpt lat="47.18725" lon="-1.67612">
        <ele>82</ele>
        <time>2021-07-16T07:11:54.000Z</time>
      </trkpt>
      <trkpt lat="47.18735" lon="-1.6761">
        <ele>84</ele>
        <time>2021-07-16T07:11:56.000Z</time>
      </trkpt>
      <trkpt lat="47.18744" lon="-1.67607">
        <ele>86</ele>
        <time>2021-07-16T07:11:58.000Z</time>
      </trkpt>
      <trkpt lat="47.18753" lon="-1.67622">
        <ele>86</ele>
        <time>2021-07-16T07:12:01.000Z</time>
      </trkpt>
      <trkpt lat="47.18759" lon="-1.67637">
        <ele>86</ele>
        <time>2021-07-16T07:12:03.000Z</time>
      </trkpt>
      <trkpt lat="47.18766" lon="-1.67653">
        <ele>85</ele>
        <time>2021-07-16T07:12:05.000Z</time>
      </trkpt>
      <trkpt lat="47.18775" lon="-1.67666">
        <ele>85</ele>
        <time>2021-07-16T07:12:07.000Z</time>
      </trkpt>
      <trkpt lat="47.18784" lon="-1.67679">
        <ele>85</ele>
        <time>2021-07-16T07:12:09.000Z</time>
      </trkpt>
      <trkpt lat="47.18792" lon="-1.67692">
        <ele>85</ele>
        <time>2021-07-16T07:12:11.000Z</time>
      </trkpt>
      <trkpt lat="47.18798" lon="-1.67707">
        <ele>85</ele>
        <time>2021-07-16T07:12:13.000Z</time>
      </trkpt>
      <trkpt lat="47.18803" lon="-1.67723">
        <ele>84</ele>
        <time>2021-07-16T07:12:15.000Z</time>
      </trkpt>
      <trkpt lat="47.18808" lon="-1.67739">
        <ele>84</ele>
        <time>2021-07-16T07:12:17.000Z</time>
      </trkpt>
      <trkpt lat="47.18815" lon="-1.67755">
        <ele>83</ele>
        <time>2021-07-16T07:12:19.000Z</time>
      </trkpt>
      <trkpt lat="47.18823" lon="-1.67772">
        <ele>82</ele>
        <time>2021-07-16T07:12:21.000Z</time>
      </trkpt>
      <trkpt lat="47.18829" lon="-1.67791">
        <ele>82</ele>
        <time>2021-07-16T07:12:23.000Z</time>
      </trkpt>
      <trkpt lat="47.18836" lon="-1.6781">
        <ele>80</ele>
        <time>2021-07-16T07:12:25.000Z</time>
      </trkpt>
      <trkpt lat="47.18843" lon="-1.6783">
        <ele>79</ele>
        <time>2021-07-16T07:12:27.000Z</time>
      </trkpt>
      <trkpt lat="47.18851" lon="-1.67849">
        <ele>78</ele>
        <time>2021-07-16T07:12:29.000Z</time>
      </trkpt>
      <trkpt lat="47.18859" lon="-1.67869">
        <ele>77</ele>
        <time>2021-07-16T07:12:31.000Z</time>
      </trkpt>
      <trkpt lat="47.18871" lon="-1.67886">
        <ele>76</ele>
        <time>2021-07-16T07:12:33.000Z</time>
      </trkpt>
      <trkpt lat="47.18886" lon="-1.67895">
        <ele>75</ele>
        <time>2021-07-16T07:12:35.000Z</time>
      </trkpt>
      <trkpt lat="47.18902" lon="-1.67899">
        <ele>75</ele>
        <time>2021-07-16T07:12:37.000Z</time>
      </trkpt>
      <trkpt lat="47.18916" lon="-1.67907">
        <ele>75</ele>
        <time>2021-07-16T07:12:39.000Z</time>
      </trkpt>
      <trkpt lat="47.18924" lon="-1.67921">
        <ele>75</ele>
        <time>2021-07-16T07:12:41.000Z</time>
      </trkpt>
      <trkpt lat="47.18932" lon="-1.67936">
        <ele>75</ele>
        <time>2021-07-16T07:12:43.000Z</time>
      </trkpt>
      <trkpt lat="47.18939" lon="-1.67951">
        <ele>75</ele>
        <time>2021-07-16T07:12:45.000Z</time>
      </trkpt>
      <trkpt lat="47.18946" lon="-1.67966">
        <ele>74</ele>
        <time>2021-07-16T07:12:47.000Z</time>
      </trkpt>
      <trkpt lat="47.18954" lon="-1.6798">
        <ele>74</ele>
        <time>2021-07-16T07:12:49.000Z</time>
      </trkpt>
      <trkpt lat="47.18962" lon="-1.67993">
        <ele>74</ele>
        <time>2021-07-16T07:12:51.000Z</time>
      </trkpt>
      <trkpt lat="47.18969" lon="-1.68005">
        <ele>73</ele>
        <time>2021-07-16T07:12:53.000Z</time>
      </trkpt>
      <trkpt lat="47.18977" lon="-1.68018">
        <ele>73</ele>
        <time>2021-07-16T07:12:55.000Z</time>
      </trkpt>
      <trkpt lat="47.18985" lon="-1.6803">
        <ele>73</ele>
        <time>2021-07-16T07:12:57.000Z</time>
      </trkpt>
      <trkpt lat="47.18997" lon="-1.6803">
        <ele>73</ele>
        <time>2021-07-16T07:13:00.000Z</time>
      </trkpt>
      <trkpt lat="47.1901" lon="-1.68019">
        <ele>72</ele>
        <time>2021-07-16T07:13:02.000Z</time>
      </trkpt>
      <trkpt lat="47.19028" lon="-1.68019">
        <ele>72</ele>
        <time>2021-07-16T07:13:04.000Z</time>
      </trkpt>
      <trkpt lat="47.19037" lon="-1.68022">
        <ele>72</ele>
        <time>2021-07-16T07:13:05.000Z</time>
      </trkpt>
      <trkpt lat="47.19055" lon="-1.68027">
        <ele>71</ele>
        <time>2021-07-16T07:13:07.000Z</time>
      </trkpt>
      <trkpt lat="47.19071" lon="-1.68034">
        <ele>71</ele>
        <time>2021-07-16T07:13:09.000Z</time>
      </trkpt>
      <trkpt lat="47.19083" lon="-1.68049">
        <ele>71</ele>
        <time>2021-07-16T07:13:11.000Z</time>
      </trkpt>
      <trkpt lat="47.1909" lon="-1.68068">
        <ele>71</ele>
        <time>2021-07-16T07:13:13.000Z</time>
      </trkpt>
      <trkpt lat="47.19097" lon="-1.68086">
        <ele>71</ele>
        <time>2021-07-16T07:13:15.000Z</time>
      </trkpt>
      <trkpt lat="47.19102" lon="-1.68102">
        <ele>71</ele>
        <time>2021-07-16T07:13:17.000Z</time>
      </trkpt>
      <trkpt lat="47.19107" lon="-1.68117">
        <ele>71</ele>
        <time>2021-07-16T07:13:19.000Z</time>
      </trkpt>
      <trkpt lat="47.19111" lon="-1.68132">
        <ele>71</ele>
        <time>2021-07-16T07:13:21.000Z</time>
      </trkpt>
      <trkpt lat="47.19114" lon="-1.68145">
        <ele>71</ele>
        <time>2021-07-16T07:13:23.000Z</time>
      </trkpt>
      <trkpt lat="47.19117" lon="-1.68159">
        <ele>71</ele>
        <time>2021-07-16T07:13:25.000Z</time>
      </trkpt>
      <trkpt lat="47.19122" lon="-1.68171">
        <ele>70</ele>
        <time>2021-07-16T07:13:28.000Z</time>
      </trkpt>
      <trkpt lat="47.19128" lon="-1.68182">
        <ele>70</ele>
        <time>2021-07-16T07:13:34.000Z</time>
      </trkpt>
      <trkpt lat="47.19137" lon="-1.6818">
        <ele>69</ele>
        <time>2021-07-16T07:13:46.000Z</time>
      </trkpt>
      <trkpt lat="47.19143" lon="-1.68171">
        <ele>67</ele>
        <time>2021-07-16T07:13:51.000Z</time>
      </trkpt>
      <trkpt lat="47.19147" lon="-1.68187">
        <ele>65</ele>
        <time>2021-07-16T07:13:56.000Z</time>
      </trkpt>
      <trkpt lat="47.19152" lon="-1.68201">
        <ele>64</ele>
        <time>2021-07-16T07:14:00.000Z</time>
      </trkpt>
      <trkpt lat="47.19163" lon="-1.68209">
        <ele>63</ele>
        <time>2021-07-16T07:14:03.000Z</time>
      </trkpt>
      <trkpt lat="47.19173" lon="-1.68216">
        <ele>60</ele>
        <time>2021-07-16T07:14:05.000Z</time>
      </trkpt>
      <trkpt lat="47.19182" lon="-1.68223">
        <ele>59</ele>
        <time>2021-07-16T07:14:07.000Z</time>
      </trkpt>
      <trkpt lat="47.19195" lon="-1.68217">
        <ele>57</ele>
        <time>2021-07-16T07:14:10.000Z</time>
      </trkpt>
      <trkpt lat="47.19205" lon="-1.68211">
        <ele>56</ele>
        <time>2021-07-16T07:14:12.000Z</time>
      </trkpt>
      <trkpt lat="47.19216" lon="-1.68204">
        <ele>54</ele>
        <time>2021-07-16T07:14:14.000Z</time>
      </trkpt>
      <trkpt lat="47.19227" lon="-1.68196">
        <ele>53</ele>
        <time>2021-07-16T07:14:16.000Z</time>
      </trkpt>
      <trkpt lat="47.19239" lon="-1.68189">
        <ele>53</ele>
        <time>2021-07-16T07:14:18.000Z</time>
      </trkpt>
      <trkpt lat="47.1925" lon="-1.68182">
        <ele>53</ele>
        <time>2021-07-16T07:14:20.000Z</time>
      </trkpt>
      <trkpt lat="47.19261" lon="-1.68173">
        <ele>52</ele>
        <time>2021-07-16T07:14:22.000Z</time>
      </trkpt>
      <trkpt lat="47.19273" lon="-1.68165">
        <ele>53</ele>
        <time>2021-07-16T07:14:24.000Z</time>
      </trkpt>
      <trkpt lat="47.19284" lon="-1.68157">
        <ele>53</ele>
        <time>2021-07-16T07:14:26.000Z</time>
      </trkpt>
      <trkpt lat="47.19295" lon="-1.68149">
        <ele>53</ele>
        <time>2021-07-16T07:14:28.000Z</time>
      </trkpt>
      <trkpt lat="47.19306" lon="-1.68142">
        <ele>53</ele>
        <time>2021-07-16T07:14:30.000Z</time>
      </trkpt>
      <trkpt lat="47.19317" lon="-1.68134">
        <ele>53</ele>
        <time>2021-07-16T07:14:32.000Z</time>
      </trkpt>
      <trkpt lat="47.19327" lon="-1.68126">
        <ele>53</ele>
        <time>2021-07-16T07:14:34.000Z</time>
      </trkpt>
      <trkpt lat="47.19338" lon="-1.6812">
        <ele>52</ele>
        <time>2021-07-16T07:14:36.000Z</time>
      </trkpt>
      <trkpt lat="47.19348" lon="-1.68111">
        <ele>52</ele>
        <time>2021-07-16T07:14:38.000Z</time>
      </trkpt>
      <trkpt lat="47.19359" lon="-1.68103">
        <ele>53</ele>
        <time>2021-07-16T07:14:40.000Z</time>
      </trkpt>
      <trkpt lat="47.1937" lon="-1.68094">
        <ele>53</ele>
        <time>2021-07-16T07:14:42.000Z</time>
      </trkpt>
      <trkpt lat="47.19381" lon="-1.68085">
        <ele>53</ele>
        <time>2021-07-16T07:14:44.000Z</time>
      </trkpt>
      <trkpt lat="47.19392" lon="-1.68078">
        <ele>53</ele>
        <time>2021-07-16T07:14:46.000Z</time>
      </trkpt>
      <trkpt lat="47.19402" lon="-1.68071">
        <ele>53</ele>
        <time>2021-07-16T07:14:48.000Z</time>
      </trkpt>
      <trkpt lat="47.1941" lon="-1.68064">
        <ele>53</ele>
        <time>2021-07-16T07:14:50.000Z</time>
      </trkpt>
      <trkpt lat="47.19415" lon="-1.68053">
        <ele>52</ele>
        <time>2021-07-16T07:14:52.000Z</time>
      </trkpt>
      <trkpt lat="47.19416" lon="-1.68039">
        <ele>50</ele>
        <time>2021-07-16T07:14:54.000Z</time>
      </trkpt>
      <trkpt lat="47.19412" lon="-1.68019">
        <ele>51</ele>
        <time>2021-07-16T07:14:56.000Z</time>
      </trkpt>
      <trkpt lat="47.19407" lon="-1.68">
        <ele>50</ele>
        <time>2021-07-16T07:14:58.000Z</time>
      </trkpt>
      <trkpt lat="47.19401" lon="-1.67981">
        <ele>50</ele>
        <time>2021-07-16T07:15:00.000Z</time>
      </trkpt>
      <trkpt lat="47.19396" lon="-1.67963">
        <ele>49</ele>
        <time>2021-07-16T07:15:02.000Z</time>
      </trkpt>
      <trkpt lat="47.19391" lon="-1.67946">
        <ele>49</ele>
        <time>2021-07-16T07:15:04.000Z</time>
      </trkpt>
      <trkpt lat="47.19387" lon="-1.67929">
        <ele>49</ele>
        <time>2021-07-16T07:15:06.000Z</time>
      </trkpt>
      <trkpt lat="47.19382" lon="-1.67911">
        <ele>49</ele>
        <time>2021-07-16T07:15:08.000Z</time>
      </trkpt>
      <trkpt lat="47.19378" lon="-1.67893">
        <ele>49</ele>
        <time>2021-07-16T07:15:10.000Z</time>
      </trkpt>
      <trkpt lat="47.19375" lon="-1.67876">
        <ele>49</ele>
        <time>2021-07-16T07:15:12.000Z</time>
      </trkpt>
      <trkpt lat="47.19372" lon="-1.67858">
        <ele>49</ele>
        <time>2021-07-16T07:15:14.000Z</time>
      </trkpt>
      <trkpt lat="47.19369" lon="-1.67839">
        <ele>49</ele>
        <time>2021-07-16T07:15:16.000Z</time>
      </trkpt>
      <trkpt lat="47.19367" lon="-1.67821">
        <ele>48</ele>
        <time>2021-07-16T07:15:18.000Z</time>
      </trkpt>
      <trkpt lat="47.19367" lon="-1.67801">
        <ele>47</ele>
        <time>2021-07-16T07:15:20.000Z</time>
      </trkpt>
      <trkpt lat="47.19367" lon="-1.67782">
        <ele>46</ele>
        <time>2021-07-16T07:15:22.000Z</time>
      </trkpt>
      <trkpt lat="47.19368" lon="-1.67763">
        <ele>46</ele>
        <time>2021-07-16T07:15:24.000Z</time>
      </trkpt>
      <trkpt lat="47.1937" lon="-1.67744">
        <ele>46</ele>
        <time>2021-07-16T07:15:26.000Z</time>
      </trkpt>
      <trkpt lat="47.19373" lon="-1.67725">
        <ele>46</ele>
        <time>2021-07-16T07:15:28.000Z</time>
      </trkpt>
      <trkpt lat="47.19376" lon="-1.67706">
        <ele>46</ele>
        <time>2021-07-16T07:15:30.000Z</time>
      </trkpt>
      <trkpt lat="47.19381" lon="-1.67688">
        <ele>46</ele>
        <time>2021-07-16T07:15:32.000Z</time>
      </trkpt>
      <trkpt lat="47.19386" lon="-1.67671">
        <ele>47</ele>
        <time>2021-07-16T07:15:34.000Z</time>
      </trkpt>
      <trkpt lat="47.19393" lon="-1.67655">
        <ele>46</ele>
        <time>2021-07-16T07:15:36.000Z</time>
      </trkpt>
      <trkpt lat="47.194" lon="-1.6764">
        <ele>47</ele>
        <time>2021-07-16T07:15:38.000Z</time>
      </trkpt>
      <trkpt lat="47.19408" lon="-1.67624">
        <ele>47</ele>
        <time>2021-07-16T07:15:40.000Z</time>
      </trkpt>
      <trkpt lat="47.19416" lon="-1.6761">
        <ele>47</ele>
        <time>2021-07-16T07:15:42.000Z</time>
      </trkpt>
      <trkpt lat="47.19424" lon="-1.67596">
        <ele>47</ele>
        <time>2021-07-16T07:15:44.000Z</time>
      </trkpt>
      <trkpt lat="47.19433" lon="-1.67583">
        <ele>46</ele>
        <time>2021-07-16T07:15:46.000Z</time>
      </trkpt>
      <trkpt lat="47.19442" lon="-1.67572">
        <ele>47</ele>
        <time>2021-07-16T07:15:48.000Z</time>
      </trkpt>
      <trkpt lat="47.19452" lon="-1.67563">
        <ele>47</ele>
        <time>2021-07-16T07:15:50.000Z</time>
      </trkpt>
      <trkpt lat="47.19463" lon="-1.67555">
        <ele>47</ele>
        <time>2021-07-16T07:15:52.000Z</time>
      </trkpt>
      <trkpt lat="47.19472" lon="-1.67547">
        <ele>47</ele>
        <time>2021-07-16T07:15:54.000Z</time>
      </trkpt>
      <trkpt lat="47.19481" lon="-1.67539">
        <ele>46</ele>
        <time>2021-07-16T07:15:56.000Z</time>
      </trkpt>
      <trkpt lat="47.19488" lon="-1.67529">
        <ele>47</ele>
        <time>2021-07-16T07:15:58.000Z</time>
      </trkpt>
      <trkpt lat="47.19495" lon="-1.67514">
        <ele>46</ele>
        <time>2021-07-16T07:16:01.000Z</time>
      </trkpt>
      <trkpt lat="47.19502" lon="-1.67502">
        <ele>46</ele>
        <time>2021-07-16T07:16:04.000Z</time>
      </trkpt>
      <trkpt lat="47.19513" lon="-1.67504">
        <ele>45</ele>
        <time>2021-07-16T07:16:08.000Z</time>
      </trkpt>
      <trkpt lat="47.19523" lon="-1.67507">
        <ele>46</ele>
        <time>2021-07-16T07:16:11.000Z</time>
      </trkpt>
      <trkpt lat="47.19532" lon="-1.67513">
        <ele>46</ele>
        <time>2021-07-16T07:16:14.000Z</time>
      </trkpt>
      <trkpt lat="47.19536" lon="-1.67501">
        <ele>44</ele>
        <time>2021-07-16T07:18:19.000Z</time>
      </trkpt>
      <trkpt lat="47.19535" lon="-1.67487">
        <ele>43</ele>
        <time>2021-07-16T07:18:26.000Z</time>
      </trkpt>
      <trkpt lat="47.19534" lon="-1.67472">
        <ele>42</ele>
        <time>2021-07-16T07:18:30.000Z</time>
      </trkpt>
      <trkpt lat="47.19535" lon="-1.67458">
        <ele>42</ele>
        <time>2021-07-16T07:18:34.000Z</time>
      </trkpt>
      <trkpt lat="47.19533" lon="-1.67445">
        <ele>42</ele>
        <time>2021-07-16T07:18:38.000Z</time>
      </trkpt>
      <trkpt lat="47.1953" lon="-1.67429">
        <ele>42</ele>
        <time>2021-07-16T07:18:42.000Z</time>
      </trkpt>
      <trkpt lat="47.19537" lon="-1.6742">
        <ele>42</ele>
        <time>2021-07-16T07:20:26.000Z</time>
      </trkpt>
      <trkpt lat="47.19539" lon="-1.67406">
        <ele>41</ele>
        <time>2021-07-16T07:20:37.000Z</time>
      </trkpt>
      <trkpt lat="47.19542" lon="-1.67393">
        <ele>42</ele>
        <time>2021-07-16T07:20:44.000Z</time>
      </trkpt>
      <trkpt lat="47.19546" lon="-1.6738">
        <ele>43</ele>
        <time>2021-07-16T07:20:50.000Z</time>
      </trkpt>
      <trkpt lat="47.19552" lon="-1.67369">
        <ele>44</ele>
        <time>2021-07-16T07:20:56.000Z</time>
      </trkpt>
      <trkpt lat="47.19558" lon="-1.67358">
        <ele>44</ele>
        <time>2021-07-16T07:21:02.000Z</time>
      </trkpt>
      <trkpt lat="47.19565" lon="-1.67347">
        <ele>44</ele>
        <time>2021-07-16T07:21:09.000Z</time>
      </trkpt>
      <trkpt lat="47.19573" lon="-1.67338">
        <ele>44</ele>
        <time>2021-07-16T07:21:15.000Z</time>
      </trkpt>
      <trkpt lat="47.19581" lon="-1.67331">
        <ele>45</ele>
        <time>2021-07-16T07:21:20.000Z</time>
      </trkpt>
      <trkpt lat="47.19591" lon="-1.67324">
        <ele>45</ele>
        <time>2021-07-16T07:21:25.000Z</time>
      </trkpt>
      <trkpt lat="47.19602" lon="-1.6732">
        <ele>44</ele>
        <time>2021-07-16T07:21:30.000Z</time>
      </trkpt>
      <trkpt lat="47.1961" lon="-1.67316">
        <ele>44</ele>
        <time>2021-07-16T07:21:34.000Z</time>
      </trkpt>
      <trkpt lat="47.19621" lon="-1.67313">
        <ele>43</ele>
        <time>2021-07-16T07:21:39.000Z</time>
      </trkpt>
      <trkpt lat="47.1963" lon="-1.67312">
        <ele>43</ele>
        <time>2021-07-16T07:21:43.000Z</time>
      </trkpt>
      <trkpt lat="47.19641" lon="-1.67311">
        <ele>42</ele>
        <time>2021-07-16T07:21:48.000Z</time>
      </trkpt>
      <trkpt lat="47.19651" lon="-1.6731">
        <ele>41</ele>
        <time>2021-07-16T07:21:52.000Z</time>
      </trkpt>
      <trkpt lat="47.19661" lon="-1.67311">
        <ele>40</ele>
        <time>2021-07-16T07:21:56.000Z</time>
      </trkpt>
      <trkpt lat="47.1967" lon="-1.67312">
        <ele>40</ele>
        <time>2021-07-16T07:22:00.000Z</time>
      </trkpt>
      <trkpt lat="47.1968" lon="-1.67314">
        <ele>39</ele>
        <time>2021-07-16T07:22:05.000Z</time>
      </trkpt>
      <trkpt lat="47.1969" lon="-1.67316">
        <ele>39</ele>
        <time>2021-07-16T07:22:11.000Z</time>
      </trkpt>
      <trkpt lat="47.19699" lon="-1.67317">
        <ele>40</ele>
        <time>2021-07-16T07:22:19.000Z</time>
      </trkpt>
      <trkpt lat="47.19708" lon="-1.6732">
        <ele>39</ele>
        <time>2021-07-16T07:22:29.000Z</time>
      </trkpt>
      <trkpt lat="47.19718" lon="-1.67322">
        <ele>42</ele>
        <time>2021-07-16T07:22:55.000Z</time>
      </trkpt>
      <trkpt lat="47.19729" lon="-1.6733">
        <ele>44</ele>
        <time>2021-07-16T07:22:58.000Z</time>
      </trkpt>
      <trkpt lat="47.19742" lon="-1.67331">
        <ele>47</ele>
        <time>2021-07-16T07:23:01.000Z</time>
      </trkpt>
      <trkpt lat="47.19752" lon="-1.67328">
        <ele>48</ele>
        <time>2021-07-16T07:23:03.000Z</time>
      </trkpt>
      <trkpt lat="47.19761" lon="-1.6732">
        <ele>48</ele>
        <time>2021-07-16T07:23:05.000Z</time>
      </trkpt>
      <trkpt lat="47.19771" lon="-1.67312">
        <ele>48</ele>
        <time>2021-07-16T07:23:07.000Z</time>
      </trkpt>
      <trkpt lat="47.1978" lon="-1.67306">
        <ele>49</ele>
        <time>2021-07-16T07:23:09.000Z</time>
      </trkpt>
      <trkpt lat="47.19789" lon="-1.67297">
        <ele>49</ele>
        <time>2021-07-16T07:23:11.000Z</time>
      </trkpt>
      <trkpt lat="47.19799" lon="-1.67294">
        <ele>49</ele>
        <time>2021-07-16T07:23:17.000Z</time>
      </trkpt>
      <trkpt lat="47.1981" lon="-1.67307">
        <ele>49</ele>
        <time>2021-07-16T07:23:20.000Z</time>
      </trkpt>
      <trkpt lat="47.19816" lon="-1.67317">
        <ele>49</ele>
        <time>2021-07-16T07:23:22.000Z</time>
      </trkpt>
      <trkpt lat="47.19821" lon="-1.67327">
        <ele>50</ele>
        <time>2021-07-16T07:23:24.000Z</time>
      </trkpt>
      <trkpt lat="47.19828" lon="-1.67339">
        <ele>50</ele>
        <time>2021-07-16T07:23:26.000Z</time>
      </trkpt>
      <trkpt lat="47.19835" lon="-1.67353">
        <ele>50</ele>
        <time>2021-07-16T07:23:28.000Z</time>
      </trkpt>
      <trkpt lat="47.19842" lon="-1.67368">
        <ele>49</ele>
        <time>2021-07-16T07:23:30.000Z</time>
      </trkpt>
      <trkpt lat="47.1985" lon="-1.67383">
        <ele>49</ele>
        <time>2021-07-16T07:23:32.000Z</time>
      </trkpt>
      <trkpt lat="47.19857" lon="-1.67399">
        <ele>49</ele>
        <time>2021-07-16T07:23:34.000Z</time>
      </trkpt>
      <trkpt lat="47.19865" lon="-1.67414">
        <ele>49</ele>
        <time>2021-07-16T07:23:36.000Z</time>
      </trkpt>
      <trkpt lat="47.19872" lon="-1.67428">
        <ele>49</ele>
        <time>2021-07-16T07:23:38.000Z</time>
      </trkpt>
      <trkpt lat="47.19879" lon="-1.67443">
        <ele>48</ele>
        <time>2021-07-16T07:23:40.000Z</time>
      </trkpt>
      <trkpt lat="47.19886" lon="-1.67458">
        <ele>48</ele>
        <time>2021-07-16T07:23:42.000Z</time>
      </trkpt>
      <trkpt lat="47.19894" lon="-1.67474">
        <ele>47</ele>
        <time>2021-07-16T07:23:44.000Z</time>
      </trkpt>
      <trkpt lat="47.19901" lon="-1.6749">
        <ele>47</ele>
        <time>2021-07-16T07:23:46.000Z</time>
      </trkpt>
      <trkpt lat="47.19909" lon="-1.67506">
        <ele>48</ele>
        <time>2021-07-16T07:23:48.000Z</time>
      </trkpt>
      <trkpt lat="47.19917" lon="-1.67523">
        <ele>48</ele>
        <time>2021-07-16T07:23:50.000Z</time>
      </trkpt>
      <trkpt lat="47.19925" lon="-1.67541">
        <ele>48</ele>
        <time>2021-07-16T07:23:52.000Z</time>
      </trkpt>
      <trkpt lat="47.19933" lon="-1.67558">
        <ele>48</ele>
        <time>2021-07-16T07:23:54.000Z</time>
      </trkpt>
      <trkpt lat="47.19941" lon="-1.67576">
        <ele>49</ele>
        <time>2021-07-16T07:23:56.000Z</time>
      </trkpt>
      <trkpt lat="47.19949" lon="-1.67594">
        <ele>49</ele>
        <time>2021-07-16T07:23:58.000Z</time>
      </trkpt>
      <trkpt lat="47.19957" lon="-1.67612">
        <ele>49</ele>
        <time>2021-07-16T07:24:00.000Z</time>
      </trkpt>
      <trkpt lat="47.19966" lon="-1.67629">
        <ele>49</ele>
        <time>2021-07-16T07:24:02.000Z</time>
      </trkpt>
      <trkpt lat="47.19974" lon="-1.67645">
        <ele>48</ele>
        <time>2021-07-16T07:24:04.000Z</time>
      </trkpt>
      <trkpt lat="47.19984" lon="-1.6766">
        <ele>47</ele>
        <time>2021-07-16T07:24:06.000Z</time>
      </trkpt>
      <trkpt lat="47.19994" lon="-1.67676">
        <ele>47</ele>
        <time>2021-07-16T07:24:08.000Z</time>
      </trkpt>
      <trkpt lat="47.20003" lon="-1.67691">
        <ele>47</ele>
        <time>2021-07-16T07:24:10.000Z</time>
      </trkpt>
      <trkpt lat="47.20012" lon="-1.67706">
        <ele>47</ele>
        <time>2021-07-16T07:24:12.000Z</time>
      </trkpt>
      <trkpt lat="47.2002" lon="-1.67722">
        <ele>47</ele>
        <time>2021-07-16T07:24:14.000Z</time>
      </trkpt>
      <trkpt lat="47.2003" lon="-1.67737">
        <ele>47</ele>
        <time>2021-07-16T07:24:16.000Z</time>
      </trkpt>
      <trkpt lat="47.20039" lon="-1.67752">
        <ele>47</ele>
        <time>2021-07-16T07:24:18.000Z</time>
      </trkpt>
      <trkpt lat="47.20049" lon="-1.67768">
        <ele>47</ele>
        <time>2021-07-16T07:24:20.000Z</time>
      </trkpt>
      <trkpt lat="47.20058" lon="-1.67783">
        <ele>47</ele>
        <time>2021-07-16T07:24:22.000Z</time>
      </trkpt>
      <trkpt lat="47.20067" lon="-1.67798">
        <ele>47</ele>
        <time>2021-07-16T07:24:24.000Z</time>
      </trkpt>
      <trkpt lat="47.20076" lon="-1.67814">
        <ele>46</ele>
        <time>2021-07-16T07:24:26.000Z</time>
      </trkpt>
      <trkpt lat="47.20084" lon="-1.6783">
        <ele>46</ele>
        <time>2021-07-16T07:24:28.000Z</time>
      </trkpt>
      <trkpt lat="47.20093" lon="-1.67846">
        <ele>47</ele>
        <time>2021-07-16T07:24:30.000Z</time>
      </trkpt>
      <trkpt lat="47.20101" lon="-1.67862">
        <ele>47</ele>
        <time>2021-07-16T07:24:32.000Z</time>
      </trkpt>
      <trkpt lat="47.20109" lon="-1.67878">
        <ele>47</ele>
        <time>2021-07-16T07:24:34.000Z</time>
      </trkpt>
      <trkpt lat="47.20118" lon="-1.67892">
        <ele>47</ele>
        <time>2021-07-16T07:24:36.000Z</time>
      </trkpt>
      <trkpt lat="47.20127" lon="-1.67907">
        <ele>47</ele>
        <time>2021-07-16T07:24:38.000Z</time>
      </trkpt>
      <trkpt lat="47.20139" lon="-1.67915">
        <ele>47</ele>
        <time>2021-07-16T07:24:40.000Z</time>
      </trkpt>
      <trkpt lat="47.2015" lon="-1.67907">
        <ele>48</ele>
        <time>2021-07-16T07:24:42.000Z</time>
      </trkpt>
      <trkpt lat="47.20159" lon="-1.67895">
        <ele>49</ele>
        <time>2021-07-16T07:24:44.000Z</time>
      </trkpt>
      <trkpt lat="47.20168" lon="-1.67886">
        <ele>50</ele>
        <time>2021-07-16T07:24:46.000Z</time>
      </trkpt>
      <trkpt lat="47.20177" lon="-1.67877">
        <ele>51</ele>
        <time>2021-07-16T07:24:48.000Z</time>
      </trkpt>
      <trkpt lat="47.20185" lon="-1.67868">
        <ele>51</ele>
        <time>2021-07-16T07:24:50.000Z</time>
      </trkpt>
      <trkpt lat="47.20195" lon="-1.6786">
        <ele>52</ele>
        <time>2021-07-16T07:24:52.000Z</time>
      </trkpt>
      <trkpt lat="47.20204" lon="-1.67853">
        <ele>52</ele>
        <time>2021-07-16T07:24:54.000Z</time>
      </trkpt>
      <trkpt lat="47.20215" lon="-1.67844">
        <ele>51</ele>
        <time>2021-07-16T07:24:56.000Z</time>
      </trkpt>
      <trkpt lat="47.20226" lon="-1.67832">
        <ele>51</ele>
        <time>2021-07-16T07:24:58.000Z</time>
      </trkpt>
      <trkpt lat="47.20227" lon="-1.67811">
        <ele>51</ele>
        <time>2021-07-16T07:25:00.000Z</time>
      </trkpt>
      <trkpt lat="47.20218" lon="-1.67789">
        <ele>50</ele>
        <time>2021-07-16T07:25:02.000Z</time>
      </trkpt>
      <trkpt lat="47.2021" lon="-1.67766">
        <ele>49</ele>
        <time>2021-07-16T07:25:04.000Z</time>
      </trkpt>
      <trkpt lat="47.20202" lon="-1.67744">
        <ele>49</ele>
        <time>2021-07-16T07:25:06.000Z</time>
      </trkpt>
      <trkpt lat="47.20195" lon="-1.67722">
        <ele>48</ele>
        <time>2021-07-16T07:25:08.000Z</time>
      </trkpt>
      <trkpt lat="47.20188" lon="-1.67702">
        <ele>47</ele>
        <time>2021-07-16T07:25:10.000Z</time>
      </trkpt>
      <trkpt lat="47.2018" lon="-1.67682">
        <ele>48</ele>
        <time>2021-07-16T07:25:12.000Z</time>
      </trkpt>
      <trkpt lat="47.20172" lon="-1.67662">
        <ele>47</ele>
        <time>2021-07-16T07:25:14.000Z</time>
      </trkpt>
      <trkpt lat="47.20165" lon="-1.67642">
        <ele>47</ele>
        <time>2021-07-16T07:25:16.000Z</time>
      </trkpt>
      <trkpt lat="47.20157" lon="-1.67622">
        <ele>47</ele>
        <time>2021-07-16T07:25:18.000Z</time>
      </trkpt>
      <trkpt lat="47.2015" lon="-1.67603">
        <ele>47</ele>
        <time>2021-07-16T07:25:20.000Z</time>
      </trkpt>
      <trkpt lat="47.20143" lon="-1.67584">
        <ele>47</ele>
        <time>2021-07-16T07:25:22.000Z</time>
      </trkpt>
      <trkpt lat="47.20136" lon="-1.67565">
        <ele>47</ele>
        <time>2021-07-16T07:25:24.000Z</time>
      </trkpt>
      <trkpt lat="47.20129" lon="-1.67547">
        <ele>47</ele>
        <time>2021-07-16T07:25:26.000Z</time>
      </trkpt>
      <trkpt lat="47.20122" lon="-1.67529">
        <ele>47</ele>
        <time>2021-07-16T07:25:28.000Z</time>
      </trkpt>
      <trkpt lat="47.20116" lon="-1.67514">
        <ele>47</ele>
        <time>2021-07-16T07:25:30.000Z</time>
      </trkpt>
      <trkpt lat="47.20111" lon="-1.67499">
        <ele>47</ele>
        <time>2021-07-16T07:25:32.000Z</time>
      </trkpt>
      <trkpt lat="47.2011" lon="-1.67486">
        <ele>47</ele>
        <time>2021-07-16T07:25:34.000Z</time>
      </trkpt>
      <trkpt lat="47.20123" lon="-1.67477">
        <ele>49</ele>
        <time>2021-07-16T07:25:36.000Z</time>
      </trkpt>
      <trkpt lat="47.20138" lon="-1.67472">
        <ele>49</ele>
        <time>2021-07-16T07:25:38.000Z</time>
      </trkpt>
      <trkpt lat="47.20152" lon="-1.67465">
        <ele>50</ele>
        <time>2021-07-16T07:25:40.000Z</time>
      </trkpt>
      <trkpt lat="47.20166" lon="-1.67458">
        <ele>50</ele>
        <time>2021-07-16T07:25:42.000Z</time>
      </trkpt>
      <trkpt lat="47.20179" lon="-1.67452">
        <ele>51</ele>
        <time>2021-07-16T07:25:44.000Z</time>
      </trkpt>
      <trkpt lat="47.20192" lon="-1.67445">
        <ele>51</ele>
        <time>2021-07-16T07:25:46.000Z</time>
      </trkpt>
      <trkpt lat="47.20205" lon="-1.67438">
        <ele>51</ele>
        <time>2021-07-16T07:25:48.000Z</time>
      </trkpt>
      <trkpt lat="47.20219" lon="-1.67431">
        <ele>52</ele>
        <time>2021-07-16T07:25:50.000Z</time>
      </trkpt>
      <trkpt lat="47.20232" lon="-1.67424">
        <ele>52</ele>
        <time>2021-07-16T07:25:52.000Z</time>
      </trkpt>
      <trkpt lat="47.20245" lon="-1.67418">
        <ele>52</ele>
        <time>2021-07-16T07:25:54.000Z</time>
      </trkpt>
      <trkpt lat="47.20258" lon="-1.67412">
        <ele>52</ele>
        <time>2021-07-16T07:25:56.000Z</time>
      </trkpt>
      <trkpt lat="47.20271" lon="-1.67406">
        <ele>52</ele>
        <time>2021-07-16T07:25:58.000Z</time>
      </trkpt>
      <trkpt lat="47.20284" lon="-1.674">
        <ele>52</ele>
        <time>2021-07-16T07:26:00.000Z</time>
      </trkpt>
      <trkpt lat="47.20297" lon="-1.67394">
        <ele>52</ele>
        <time>2021-07-16T07:26:02.000Z</time>
      </trkpt>
      <trkpt lat="47.2031" lon="-1.67387">
        <ele>52</ele>
        <time>2021-07-16T07:26:04.000Z</time>
      </trkpt>
      <trkpt lat="47.20324" lon="-1.67384">
        <ele>52</ele>
        <time>2021-07-16T07:26:06.000Z</time>
      </trkpt>
      <trkpt lat="47.20338" lon="-1.67388">
        <ele>52</ele>
        <time>2021-07-16T07:26:08.000Z</time>
      </trkpt>
      <trkpt lat="47.20349" lon="-1.67398">
        <ele>51</ele>
        <time>2021-07-16T07:26:10.000Z</time>
      </trkpt>
      <trkpt lat="47.20359" lon="-1.67414">
        <ele>51</ele>
        <time>2021-07-16T07:26:12.000Z</time>
      </trkpt>
      <trkpt lat="47.20366" lon="-1.67434">
        <ele>50</ele>
        <time>2021-07-16T07:26:14.000Z</time>
      </trkpt>
      <trkpt lat="47.2037" lon="-1.67454">
        <ele>50</ele>
        <time>2021-07-16T07:26:16.000Z</time>
      </trkpt>
      <trkpt lat="47.20373" lon="-1.67474">
        <ele>50</ele>
        <time>2021-07-16T07:26:18.000Z</time>
      </trkpt>
      <trkpt lat="47.20376" lon="-1.67495">
        <ele>50</ele>
        <time>2021-07-16T07:26:20.000Z</time>
      </trkpt>
      <trkpt lat="47.20379" lon="-1.67515">
        <ele>50</ele>
        <time>2021-07-16T07:26:22.000Z</time>
      </trkpt>
      <trkpt lat="47.20384" lon="-1.67534">
        <ele>50</ele>
        <time>2021-07-16T07:26:24.000Z</time>
      </trkpt>
      <trkpt lat="47.20392" lon="-1.67548">
        <ele>50</ele>
        <time>2021-07-16T07:26:26.000Z</time>
      </trkpt>
      <trkpt lat="47.20404" lon="-1.67552">
        <ele>50</ele>
        <time>2021-07-16T07:26:28.000Z</time>
      </trkpt>
      <trkpt lat="47.20414" lon="-1.67547">
        <ele>50</ele>
        <time>2021-07-16T07:26:30.000Z</time>
      </trkpt>
      <trkpt lat="47.20423" lon="-1.6754">
        <ele>51</ele>
        <time>2021-07-16T07:26:32.000Z</time>
      </trkpt>
      <trkpt lat="47.20435" lon="-1.67541">
        <ele>51</ele>
        <time>2021-07-16T07:26:34.000Z</time>
      </trkpt>
      <trkpt lat="47.20446" lon="-1.67556">
        <ele>51</ele>
        <time>2021-07-16T07:26:36.000Z</time>
      </trkpt>
      <trkpt lat="47.20452" lon="-1.67578">
        <ele>51</ele>
        <time>2021-07-16T07:26:38.000Z</time>
      </trkpt>
      <trkpt lat="47.20463" lon="-1.67594">
        <ele>50</ele>
        <time>2021-07-16T07:26:40.000Z</time>
      </trkpt>
      <trkpt lat="47.20473" lon="-1.67608">
        <ele>50</ele>
        <time>2021-07-16T07:26:42.000Z</time>
      </trkpt>
      <trkpt lat="47.20481" lon="-1.67626">
        <ele>49</ele>
        <time>2021-07-16T07:26:44.000Z</time>
      </trkpt>
      <trkpt lat="47.20489" lon="-1.67646">
        <ele>49</ele>
        <time>2021-07-16T07:26:46.000Z</time>
      </trkpt>
      <trkpt lat="47.20496" lon="-1.67666">
        <ele>49</ele>
        <time>2021-07-16T07:26:48.000Z</time>
      </trkpt>
      <trkpt lat="47.20504" lon="-1.67686">
        <ele>49</ele>
        <time>2021-07-16T07:26:50.000Z</time>
      </trkpt>
      <trkpt lat="47.20511" lon="-1.67706">
        <ele>49</ele>
        <time>2021-07-16T07:26:52.000Z</time>
      </trkpt>
      <trkpt lat="47.20519" lon="-1.67725">
        <ele>50</ele>
        <time>2021-07-16T07:26:54.000Z</time>
      </trkpt>
      <trkpt lat="47.20525" lon="-1.67746">
        <ele>50</ele>
        <time>2021-07-16T07:26:56.000Z</time>
      </trkpt>
      <trkpt lat="47.20533" lon="-1.67766">
        <ele>50</ele>
        <time>2021-07-16T07:26:58.000Z</time>
      </trkpt>
      <trkpt lat="47.2054" lon="-1.67787">
        <ele>50</ele>
        <time>2021-07-16T07:27:00.000Z</time>
      </trkpt>
      <trkpt lat="47.20546" lon="-1.67807">
        <ele>50</ele>
        <time>2021-07-16T07:27:02.000Z</time>
      </trkpt>
      <trkpt lat="47.20553" lon="-1.67828">
        <ele>50</ele>
        <time>2021-07-16T07:27:04.000Z</time>
      </trkpt>
      <trkpt lat="47.20559" lon="-1.67848">
        <ele>50</ele>
        <time>2021-07-16T07:27:06.000Z</time>
      </trkpt>
      <trkpt lat="47.20565" lon="-1.67867">
        <ele>50</ele>
        <time>2021-07-16T07:27:08.000Z</time>
      </trkpt>
      <trkpt lat="47.20571" lon="-1.67887">
        <ele>50</ele>
        <time>2021-07-16T07:27:10.000Z</time>
      </trkpt>
      <trkpt lat="47.20577" lon="-1.67908">
        <ele>50</ele>
        <time>2021-07-16T07:27:12.000Z</time>
      </trkpt>
      <trkpt lat="47.20583" lon="-1.67928">
        <ele>50</ele>
        <time>2021-07-16T07:27:14.000Z</time>
      </trkpt>
      <trkpt lat="47.20589" lon="-1.67949">
        <ele>50</ele>
        <time>2021-07-16T07:27:16.000Z</time>
      </trkpt>
      <trkpt lat="47.20595" lon="-1.67968">
        <ele>50</ele>
        <time>2021-07-16T07:27:18.000Z</time>
      </trkpt>
      <trkpt lat="47.206" lon="-1.67987">
        <ele>50</ele>
        <time>2021-07-16T07:27:20.000Z</time>
      </trkpt>
      <trkpt lat="47.20606" lon="-1.68007">
        <ele>51</ele>
        <time>2021-07-16T07:27:22.000Z</time>
      </trkpt>
      <trkpt lat="47.20612" lon="-1.68027">
        <ele>51</ele>
        <time>2021-07-16T07:27:24.000Z</time>
      </trkpt>
      <trkpt lat="47.20618" lon="-1.68047">
        <ele>50</ele>
        <time>2021-07-16T07:27:26.000Z</time>
      </trkpt>
      <trkpt lat="47.20624" lon="-1.68068">
        <ele>49</ele>
        <time>2021-07-16T07:27:28.000Z</time>
      </trkpt>
      <trkpt lat="47.20629" lon="-1.68087">
        <ele>49</ele>
        <time>2021-07-16T07:27:30.000Z</time>
      </trkpt>
      <trkpt lat="47.20636" lon="-1.68108">
        <ele>49</ele>
        <time>2021-07-16T07:27:32.000Z</time>
      </trkpt>
      <trkpt lat="47.20642" lon="-1.68128">
        <ele>49</ele>
        <time>2021-07-16T07:27:34.000Z</time>
      </trkpt>
      <trkpt lat="47.20648" lon="-1.68148">
        <ele>49</ele>
        <time>2021-07-16T07:27:36.000Z</time>
      </trkpt>
      <trkpt lat="47.20654" lon="-1.68168">
        <ele>49</ele>
        <time>2021-07-16T07:27:38.000Z</time>
      </trkpt>
      <trkpt lat="47.20659" lon="-1.68188">
        <ele>49</ele>
        <time>2021-07-16T07:27:40.000Z</time>
      </trkpt>
      <trkpt lat="47.20665" lon="-1.68207">
        <ele>49</ele>
        <time>2021-07-16T07:27:42.000Z</time>
      </trkpt>
      <trkpt lat="47.20671" lon="-1.68227">
        <ele>50</ele>
        <time>2021-07-16T07:27:44.000Z</time>
      </trkpt>
      <trkpt lat="47.20677" lon="-1.68246">
        <ele>50</ele>
        <time>2021-07-16T07:27:46.000Z</time>
      </trkpt>
      <trkpt lat="47.20682" lon="-1.68265">
        <ele>50</ele>
        <time>2021-07-16T07:27:48.000Z</time>
      </trkpt>
      <trkpt lat="47.20687" lon="-1.68283">
        <ele>50</ele>
        <time>2021-07-16T07:27:50.000Z</time>
      </trkpt>
      <trkpt lat="47.20693" lon="-1.68302">
        <ele>51</ele>
        <time>2021-07-16T07:27:52.000Z</time>
      </trkpt>
      <trkpt lat="47.20699" lon="-1.68321">
        <ele>51</ele>
        <time>2021-07-16T07:27:54.000Z</time>
      </trkpt>
      <trkpt lat="47.20705" lon="-1.6834">
        <ele>51</ele>
        <time>2021-07-16T07:27:56.000Z</time>
      </trkpt>
      <trkpt lat="47.20712" lon="-1.68358">
        <ele>51</ele>
        <time>2021-07-16T07:27:58.000Z</time>
      </trkpt>
      <trkpt lat="47.20723" lon="-1.68371">
        <ele>50</ele>
        <time>2021-07-16T07:28:00.000Z</time>
      </trkpt>
      <trkpt lat="47.20736" lon="-1.68381">
        <ele>50</ele>
        <time>2021-07-16T07:28:02.000Z</time>
      </trkpt>
      <trkpt lat="47.2075" lon="-1.68386">
        <ele>50</ele>
        <time>2021-07-16T07:28:04.000Z</time>
      </trkpt>
      <trkpt lat="47.20765" lon="-1.68387">
        <ele>51</ele>
        <time>2021-07-16T07:28:06.000Z</time>
      </trkpt>
      <trkpt lat="47.20779" lon="-1.68388">
        <ele>51</ele>
        <time>2021-07-16T07:28:08.000Z</time>
      </trkpt>
      <trkpt lat="47.20793" lon="-1.6839">
        <ele>51</ele>
        <time>2021-07-16T07:28:10.000Z</time>
      </trkpt>
      <trkpt lat="47.20808" lon="-1.68391">
        <ele>51</ele>
        <time>2021-07-16T07:28:12.000Z</time>
      </trkpt>
      <trkpt lat="47.20822" lon="-1.68392">
        <ele>51</ele>
        <time>2021-07-16T07:28:14.000Z</time>
      </trkpt>
      <trkpt lat="47.20836" lon="-1.68392">
        <ele>51</ele>
        <time>2021-07-16T07:28:16.000Z</time>
      </trkpt>
      <trkpt lat="47.2085" lon="-1.68393">
        <ele>51</ele>
        <time>2021-07-16T07:28:18.000Z</time>
      </trkpt>
      <trkpt lat="47.20864" lon="-1.68393">
        <ele>51</ele>
        <time>2021-07-16T07:28:20.000Z</time>
      </trkpt>
      <trkpt lat="47.20878" lon="-1.68394">
        <ele>51</ele>
        <time>2021-07-16T07:28:22.000Z</time>
      </trkpt>
      <trkpt lat="47.20893" lon="-1.68394">
        <ele>51</ele>
        <time>2021-07-16T07:28:24.000Z</time>
      </trkpt>
      <trkpt lat="47.20907" lon="-1.68395">
        <ele>51</ele>
        <time>2021-07-16T07:28:26.000Z</time>
      </trkpt>
      <trkpt lat="47.20922" lon="-1.68396">
        <ele>51</ele>
        <time>2021-07-16T07:28:28.000Z</time>
      </trkpt>
      <trkpt lat="47.20936" lon="-1.68397">
        <ele>51</ele>
        <time>2021-07-16T07:28:30.000Z</time>
      </trkpt>
      <trkpt lat="47.2095" lon="-1.68398">
        <ele>51</ele>
        <time>2021-07-16T07:28:32.000Z</time>
      </trkpt>
      <trkpt lat="47.20963" lon="-1.68398">
        <ele>51</ele>
        <time>2021-07-16T07:28:34.000Z</time>
      </trkpt>
      <trkpt lat="47.20977" lon="-1.68398">
        <ele>50</ele>
        <time>2021-07-16T07:28:36.000Z</time>
      </trkpt>
      <trkpt lat="47.20991" lon="-1.684">
        <ele>50</ele>
        <time>2021-07-16T07:28:38.000Z</time>
      </trkpt>
      <trkpt lat="47.21006" lon="-1.684">
        <ele>50</ele>
        <time>2021-07-16T07:28:40.000Z</time>
      </trkpt>
      <trkpt lat="47.21021" lon="-1.68401">
        <ele>50</ele>
        <time>2021-07-16T07:28:42.000Z</time>
      </trkpt>
      <trkpt lat="47.21035" lon="-1.68401">
        <ele>51</ele>
        <time>2021-07-16T07:28:44.000Z</time>
      </trkpt>
      <trkpt lat="47.2105" lon="-1.68402">
        <ele>51</ele>
        <time>2021-07-16T07:28:46.000Z</time>
      </trkpt>
      <trkpt lat="47.21063" lon="-1.68402">
        <ele>51</ele>
        <time>2021-07-16T07:28:48.000Z</time>
      </trkpt>
      <trkpt lat="47.21076" lon="-1.68403">
        <ele>52</ele>
        <time>2021-07-16T07:28:50.000Z</time>
      </trkpt>
      <trkpt lat="47.2109" lon="-1.68404">
        <ele>52</ele>
        <time>2021-07-16T07:28:52.000Z</time>
      </trkpt>
      <trkpt lat="47.21103" lon="-1.68404">
        <ele>51</ele>
        <time>2021-07-16T07:28:54.000Z</time>
      </trkpt>
      <trkpt lat="47.21116" lon="-1.68404">
        <ele>51</ele>
        <time>2021-07-16T07:28:56.000Z</time>
      </trkpt>
      <trkpt lat="47.21129" lon="-1.68404">
        <ele>52</ele>
        <time>2021-07-16T07:28:58.000Z</time>
      </trkpt>
      <trkpt lat="47.21141" lon="-1.68404">
        <ele>52</ele>
        <time>2021-07-16T07:29:00.000Z</time>
      </trkpt>
      <trkpt lat="47.21153" lon="-1.68405">
        <ele>53</ele>
        <time>2021-07-16T07:29:02.000Z</time>
      </trkpt>
      <trkpt lat="47.21164" lon="-1.68406">
        <ele>53</ele>
        <time>2021-07-16T07:29:04.000Z</time>
      </trkpt>
      <trkpt lat="47.21175" lon="-1.68405">
        <ele>53</ele>
        <time>2021-07-16T07:29:06.000Z</time>
      </trkpt>
      <trkpt lat="47.21186" lon="-1.684">
        <ele>53</ele>
        <time>2021-07-16T07:29:08.000Z</time>
      </trkpt>
      <trkpt lat="47.21193" lon="-1.6839">
        <ele>54</ele>
        <time>2021-07-16T07:29:10.000Z</time>
      </trkpt>
      <trkpt lat="47.21193" lon="-1.68377">
        <ele>54</ele>
        <time>2021-07-16T07:29:12.000Z</time>
      </trkpt>
      <trkpt lat="47.21192" lon="-1.68363">
        <ele>54</ele>
        <time>2021-07-16T07:29:14.000Z</time>
      </trkpt>
      <trkpt lat="47.21191" lon="-1.6835">
        <ele>54</ele>
        <time>2021-07-16T07:29:16.000Z</time>
      </trkpt>
      <trkpt lat="47.21189" lon="-1.68337">
        <ele>54</ele>
        <time>2021-07-16T07:29:18.000Z</time>
      </trkpt>
      <trkpt lat="47.21189" lon="-1.68324">
        <ele>55</ele>
        <time>2021-07-16T07:29:20.000Z</time>
      </trkpt>
      <trkpt lat="47.2119" lon="-1.68304">
        <ele>55</ele>
        <time>2021-07-16T07:29:23.000Z</time>
      </trkpt>
      <trkpt lat="47.21197" lon="-1.68288">
        <ele>55</ele>
        <time>2021-07-16T07:29:26.000Z</time>
      </trkpt>
      <trkpt lat="47.21209" lon="-1.68279">
        <ele>56</ele>
        <time>2021-07-16T07:29:29.000Z</time>
      </trkpt>
      <trkpt lat="47.21218" lon="-1.68276">
        <ele>56</ele>
        <time>2021-07-16T07:29:31.000Z</time>
      </trkpt>
      <trkpt lat="47.21227" lon="-1.68275">
        <ele>57</ele>
        <time>2021-07-16T07:29:33.000Z</time>
      </trkpt>
      <trkpt lat="47.21241" lon="-1.68272">
        <ele>58</ele>
        <time>2021-07-16T07:29:36.000Z</time>
      </trkpt>
      <trkpt lat="47.2125" lon="-1.68271">
        <ele>59</ele>
        <time>2021-07-16T07:29:38.000Z</time>
      </trkpt>
      <trkpt lat="47.21262" lon="-1.68266">
        <ele>60</ele>
        <time>2021-07-16T07:29:41.000Z</time>
      </trkpt>
      <trkpt lat="47.21271" lon="-1.68261">
        <ele>62</ele>
        <time>2021-07-16T07:29:43.000Z</time>
      </trkpt>
      <trkpt lat="47.21279" lon="-1.68257">
        <ele>62</ele>
        <time>2021-07-16T07:29:45.000Z</time>
      </trkpt>
      <trkpt lat="47.21288" lon="-1.68252">
        <ele>62</ele>
        <time>2021-07-16T07:29:47.000Z</time>
      </trkpt>
      <trkpt lat="47.21297" lon="-1.68248">
        <ele>63</ele>
        <time>2021-07-16T07:29:49.000Z</time>
      </trkpt>
      <trkpt lat="47.21306" lon="-1.68244">
        <ele>63</ele>
        <time>2021-07-16T07:29:51.000Z</time>
      </trkpt>
      <trkpt lat="47.21318" lon="-1.68238">
        <ele>63</ele>
        <time>2021-07-16T07:29:54.000Z</time>
      </trkpt>
      <trkpt lat="47.21327" lon="-1.68234">
        <ele>63</ele>
        <time>2021-07-16T07:29:56.000Z</time>
      </trkpt>
      <trkpt lat="47.2134" lon="-1.68231">
        <ele>64</ele>
        <time>2021-07-16T07:29:59.000Z</time>
      </trkpt>
      <trkpt lat="47.21349" lon="-1.6823">
        <ele>65</ele>
        <time>2021-07-16T07:30:01.000Z</time>
      </trkpt>
      <trkpt lat="47.21358" lon="-1.68227">
        <ele>65</ele>
        <time>2021-07-16T07:30:03.000Z</time>
      </trkpt>
      <trkpt lat="47.21368" lon="-1.68225">
        <ele>65</ele>
        <time>2021-07-16T07:30:05.000Z</time>
      </trkpt>
      <trkpt lat="47.2138" lon="-1.68223">
        <ele>66</ele>
        <time>2021-07-16T07:30:08.000Z</time>
      </trkpt>
      <trkpt lat="47.21394" lon="-1.68221">
        <ele>67</ele>
        <time>2021-07-16T07:30:11.000Z</time>
      </trkpt>
      <trkpt lat="47.21403" lon="-1.68219">
        <ele>67</ele>
        <time>2021-07-16T07:30:13.000Z</time>
      </trkpt>
      <trkpt lat="47.21412" lon="-1.68217">
        <ele>68</ele>
        <time>2021-07-16T07:30:15.000Z</time>
      </trkpt>
      <trkpt lat="47.21422" lon="-1.68216">
        <ele>68</ele>
        <time>2021-07-16T07:30:17.000Z</time>
      </trkpt>
      <trkpt lat="47.21431" lon="-1.68215">
        <ele>68</ele>
        <time>2021-07-16T07:30:19.000Z</time>
      </trkpt>
      <trkpt lat="47.21441" lon="-1.68214">
        <ele>69</ele>
        <time>2021-07-16T07:30:21.000Z</time>
      </trkpt>
      <trkpt lat="47.21451" lon="-1.68214">
        <ele>70</ele>
        <time>2021-07-16T07:30:23.000Z</time>
      </trkpt>
      <trkpt lat="47.2146" lon="-1.68212">
        <ele>70</ele>
        <time>2021-07-16T07:30:25.000Z</time>
      </trkpt>
      <trkpt lat="47.21469" lon="-1.68211">
        <ele>71</ele>
        <time>2021-07-16T07:30:27.000Z</time>
      </trkpt>
      <trkpt lat="47.21479" lon="-1.68211">
        <ele>71</ele>
        <time>2021-07-16T07:30:29.000Z</time>
      </trkpt>
      <trkpt lat="47.21488" lon="-1.68207">
        <ele>71</ele>
        <time>2021-07-16T07:30:31.000Z</time>
      </trkpt>
      <trkpt lat="47.21497" lon="-1.68202">
        <ele>71</ele>
        <time>2021-07-16T07:30:33.000Z</time>
      </trkpt>
      <trkpt lat="47.21507" lon="-1.68196">
        <ele>71</ele>
        <time>2021-07-16T07:30:35.000Z</time>
      </trkpt>
      <trkpt lat="47.21516" lon="-1.68188">
        <ele>71</ele>
        <time>2021-07-16T07:30:37.000Z</time>
      </trkpt>
      <trkpt lat="47.21526" lon="-1.6818">
        <ele>71</ele>
        <time>2021-07-16T07:30:40.000Z</time>
      </trkpt>
      <trkpt lat="47.21534" lon="-1.68171">
        <ele>72</ele>
        <time>2021-07-16T07:30:47.000Z</time>
      </trkpt>
      <trkpt lat="47.21543" lon="-1.6817">
        <ele>72</ele>
        <time>2021-07-16T07:30:49.000Z</time>
      </trkpt>
      <trkpt lat="47.21554" lon="-1.68175">
        <ele>73</ele>
        <time>2021-07-16T07:30:51.000Z</time>
      </trkpt>
      <trkpt lat="47.21565" lon="-1.68177">
        <ele>74</ele>
        <time>2021-07-16T07:30:53.000Z</time>
      </trkpt>
      <trkpt lat="47.21576" lon="-1.68179">
        <ele>74</ele>
        <time>2021-07-16T07:30:55.000Z</time>
      </trkpt>
      <trkpt lat="47.21587" lon="-1.68181">
        <ele>74</ele>
        <time>2021-07-16T07:30:57.000Z</time>
      </trkpt>
      <trkpt lat="47.21599" lon="-1.68184">
        <ele>74</ele>
        <time>2021-07-16T07:30:59.000Z</time>
      </trkpt>
      <trkpt lat="47.2161" lon="-1.68187">
        <ele>74</ele>
        <time>2021-07-16T07:31:01.000Z</time>
      </trkpt>
      <trkpt lat="47.21621" lon="-1.68189">
        <ele>75</ele>
        <time>2021-07-16T07:31:03.000Z</time>
      </trkpt>
      <trkpt lat="47.21633" lon="-1.6819">
        <ele>74</ele>
        <time>2021-07-16T07:31:05.000Z</time>
      </trkpt>
      <trkpt lat="47.21645" lon="-1.68192">
        <ele>75</ele>
        <time>2021-07-16T07:31:07.000Z</time>
      </trkpt>
      <trkpt lat="47.21658" lon="-1.68194">
        <ele>75</ele>
        <time>2021-07-16T07:31:09.000Z</time>
      </trkpt>
      <trkpt lat="47.21671" lon="-1.68197">
        <ele>75</ele>
        <time>2021-07-16T07:31:11.000Z</time>
      </trkpt>
      <trkpt lat="47.21683" lon="-1.682">
        <ele>74</ele>
        <time>2021-07-16T07:31:13.000Z</time>
      </trkpt>
      <trkpt lat="47.21696" lon="-1.68203">
        <ele>73</ele>
        <time>2021-07-16T07:31:15.000Z</time>
      </trkpt>
      <trkpt lat="47.21709" lon="-1.68206">
        <ele>74</ele>
        <time>2021-07-16T07:31:17.000Z</time>
      </trkpt>
      <trkpt lat="47.21722" lon="-1.68209">
        <ele>74</ele>
        <time>2021-07-16T07:31:19.000Z</time>
      </trkpt>
      <trkpt lat="47.21735" lon="-1.68211">
        <ele>74</ele>
        <time>2021-07-16T07:31:21.000Z</time>
      </trkpt>
      <trkpt lat="47.21748" lon="-1.68215">
        <ele>74</ele>
        <time>2021-07-16T07:31:23.000Z</time>
      </trkpt>
      <trkpt lat="47.21761" lon="-1.68218">
        <ele>74</ele>
        <time>2021-07-16T07:31:25.000Z</time>
      </trkpt>
      <trkpt lat="47.21774" lon="-1.68221">
        <ele>74</ele>
        <time>2021-07-16T07:31:27.000Z</time>
      </trkpt>
      <trkpt lat="47.21787" lon="-1.68223">
        <ele>75</ele>
        <time>2021-07-16T07:31:29.000Z</time>
      </trkpt>
      <trkpt lat="47.21801" lon="-1.68223">
        <ele>75</ele>
        <time>2021-07-16T07:31:31.000Z</time>
      </trkpt>
      <trkpt lat="47.21814" lon="-1.68224">
        <ele>75</ele>
        <time>2021-07-16T07:31:33.000Z</time>
      </trkpt>
      <trkpt lat="47.21828" lon="-1.68227">
        <ele>74</ele>
        <time>2021-07-16T07:31:35.000Z</time>
      </trkpt>
      <trkpt lat="47.21841" lon="-1.68228">
        <ele>74</ele>
        <time>2021-07-16T07:31:37.000Z</time>
      </trkpt>
      <trkpt lat="47.21855" lon="-1.68229">
        <ele>74</ele>
        <time>2021-07-16T07:31:39.000Z</time>
      </trkpt>
      <trkpt lat="47.21868" lon="-1.68226">
        <ele>74</ele>
        <time>2021-07-16T07:31:41.000Z</time>
      </trkpt>
      <trkpt lat="47.21881" lon="-1.68222">
        <ele>74</ele>
        <time>2021-07-16T07:31:43.000Z</time>
      </trkpt>
      <trkpt lat="47.21893" lon="-1.68215">
        <ele>74</ele>
        <time>2021-07-16T07:31:45.000Z</time>
      </trkpt>
      <trkpt lat="47.21906" lon="-1.68209">
        <ele>74</ele>
        <time>2021-07-16T07:31:47.000Z</time>
      </trkpt>
      <trkpt lat="47.21917" lon="-1.68201">
        <ele>74</ele>
        <time>2021-07-16T07:31:49.000Z</time>
      </trkpt>
      <trkpt lat="47.21929" lon="-1.68194">
        <ele>74</ele>
        <time>2021-07-16T07:31:51.000Z</time>
      </trkpt>
      <trkpt lat="47.2194" lon="-1.68186">
        <ele>74</ele>
        <time>2021-07-16T07:31:53.000Z</time>
      </trkpt>
      <trkpt lat="47.21952" lon="-1.68179">
        <ele>74</ele>
        <time>2021-07-16T07:31:55.000Z</time>
      </trkpt>
      <trkpt lat="47.21964" lon="-1.68171">
        <ele>74</ele>
        <time>2021-07-16T07:31:57.000Z</time>
      </trkpt>
      <trkpt lat="47.21976" lon="-1.68164">
        <ele>75</ele>
        <time>2021-07-16T07:31:59.000Z</time>
      </trkpt>
      <trkpt lat="47.21987" lon="-1.68156">
        <ele>75</ele>
        <time>2021-07-16T07:32:01.000Z</time>
      </trkpt>
      <trkpt lat="47.21999" lon="-1.68148">
        <ele>75</ele>
        <time>2021-07-16T07:32:03.000Z</time>
      </trkpt>
      <trkpt lat="47.2201" lon="-1.68139">
        <ele>76</ele>
        <time>2021-07-16T07:32:05.000Z</time>
      </trkpt>
      <trkpt lat="47.22021" lon="-1.68129">
        <ele>76</ele>
        <time>2021-07-16T07:32:07.000Z</time>
      </trkpt>
      <trkpt lat="47.22031" lon="-1.68118">
        <ele>76</ele>
        <time>2021-07-16T07:32:09.000Z</time>
      </trkpt>
      <trkpt lat="47.22041" lon="-1.68106">
        <ele>77</ele>
        <time>2021-07-16T07:32:11.000Z</time>
      </trkpt>
      <trkpt lat="47.22051" lon="-1.68095">
        <ele>77</ele>
        <time>2021-07-16T07:32:13.000Z</time>
      </trkpt>
      <trkpt lat="47.2206" lon="-1.68082">
        <ele>77</ele>
        <time>2021-07-16T07:32:15.000Z</time>
      </trkpt>
      <trkpt lat="47.22069" lon="-1.6807">
        <ele>76</ele>
        <time>2021-07-16T07:32:17.000Z</time>
      </trkpt>
      <trkpt lat="47.22079" lon="-1.68058">
        <ele>77</ele>
        <time>2021-07-16T07:32:19.000Z</time>
      </trkpt>
      <trkpt lat="47.22089" lon="-1.68045">
        <ele>77</ele>
        <time>2021-07-16T07:32:21.000Z</time>
      </trkpt>
      <trkpt lat="47.22098" lon="-1.68032">
        <ele>77</ele>
        <time>2021-07-16T07:32:23.000Z</time>
      </trkpt>
      <trkpt lat="47.22108" lon="-1.6802">
        <ele>77</ele>
        <time>2021-07-16T07:32:25.000Z</time>
      </trkpt>
      <trkpt lat="47.22117" lon="-1.68008">
        <ele>77</ele>
        <time>2021-07-16T07:32:27.000Z</time>
      </trkpt>
      <trkpt lat="47.22127" lon="-1.67997">
        <ele>77</ele>
        <time>2021-07-16T07:32:29.000Z</time>
      </trkpt>
      <trkpt lat="47.22137" lon="-1.67988">
        <ele>77</ele>
        <time>2021-07-16T07:32:31.000Z</time>
      </trkpt>
      <trkpt lat="47.22148" lon="-1.67979">
        <ele>78</ele>
        <time>2021-07-16T07:32:33.000Z</time>
      </trkpt>
      <trkpt lat="47.22159" lon="-1.67971">
        <ele>77</ele>
        <time>2021-07-16T07:32:35.000Z</time>
      </trkpt>
      <trkpt lat="47.22169" lon="-1.67964">
        <ele>77</ele>
        <time>2021-07-16T07:32:37.000Z</time>
      </trkpt>
      <trkpt lat="47.2218" lon="-1.67956">
        <ele>77</ele>
        <time>2021-07-16T07:32:39.000Z</time>
      </trkpt>
      <trkpt lat="47.22191" lon="-1.67949">
        <ele>77</ele>
        <time>2021-07-16T07:32:41.000Z</time>
      </trkpt>
      <trkpt lat="47.22203" lon="-1.67941">
        <ele>77</ele>
        <time>2021-07-16T07:32:43.000Z</time>
      </trkpt>
      <trkpt lat="47.22215" lon="-1.67933">
        <ele>77</ele>
        <time>2021-07-16T07:32:45.000Z</time>
      </trkpt>
      <trkpt lat="47.22227" lon="-1.67925">
        <ele>77</ele>
        <time>2021-07-16T07:32:47.000Z</time>
      </trkpt>
      <trkpt lat="47.22239" lon="-1.67918">
        <ele>77</ele>
        <time>2021-07-16T07:32:49.000Z</time>
      </trkpt>
      <trkpt lat="47.2225" lon="-1.67909">
        <ele>76</ele>
        <time>2021-07-16T07:32:51.000Z</time>
      </trkpt>
      <trkpt lat="47.22262" lon="-1.67901">
        <ele>76</ele>
        <time>2021-07-16T07:32:53.000Z</time>
      </trkpt>
      <trkpt lat="47.22274" lon="-1.67892">
        <ele>75</ele>
        <time>2021-07-16T07:32:55.000Z</time>
      </trkpt>
      <trkpt lat="47.22286" lon="-1.67884">
        <ele>75</ele>
        <time>2021-07-16T07:32:57.000Z</time>
      </trkpt>
      <trkpt lat="47.22299" lon="-1.67876">
        <ele>76</ele>
        <time>2021-07-16T07:32:59.000Z</time>
      </trkpt>
      <trkpt lat="47.22311" lon="-1.67868">
        <ele>75</ele>
        <time>2021-07-16T07:33:01.000Z</time>
      </trkpt>
      <trkpt lat="47.22323" lon="-1.6786">
        <ele>75</ele>
        <time>2021-07-16T07:33:03.000Z</time>
      </trkpt>
      <trkpt lat="47.22335" lon="-1.67852">
        <ele>75</ele>
        <time>2021-07-16T07:33:05.000Z</time>
      </trkpt>
      <trkpt lat="47.22346" lon="-1.67845">
        <ele>75</ele>
        <time>2021-07-16T07:33:07.000Z</time>
      </trkpt>
      <trkpt lat="47.22359" lon="-1.6784">
        <ele>76</ele>
        <time>2021-07-16T07:33:09.000Z</time>
      </trkpt>
      <trkpt lat="47.2237" lon="-1.67835">
        <ele>76</ele>
        <time>2021-07-16T07:33:11.000Z</time>
      </trkpt>
      <trkpt lat="47.22382" lon="-1.6783">
        <ele>76</ele>
        <time>2021-07-16T07:33:13.000Z</time>
      </trkpt>
      <trkpt lat="47.22393" lon="-1.67826">
        <ele>76</ele>
        <time>2021-07-16T07:33:15.000Z</time>
      </trkpt>
      <trkpt lat="47.22405" lon="-1.67823">
        <ele>76</ele>
        <time>2021-07-16T07:33:17.000Z</time>
      </trkpt>
      <trkpt lat="47.22416" lon="-1.67821">
        <ele>76</ele>
        <time>2021-07-16T07:33:19.000Z</time>
      </trkpt>
      <trkpt lat="47.22428" lon="-1.67819">
        <ele>76</ele>
        <time>2021-07-16T07:33:21.000Z</time>
      </trkpt>
      <trkpt lat="47.2244" lon="-1.67819">
        <ele>77</ele>
        <time>2021-07-16T07:33:23.000Z</time>
      </trkpt>
      <trkpt lat="47.22452" lon="-1.6782">
        <ele>77</ele>
        <time>2021-07-16T07:33:25.000Z</time>
      </trkpt>
      <trkpt lat="47.22464" lon="-1.67821">
        <ele>77</ele>
        <time>2021-07-16T07:33:27.000Z</time>
      </trkpt>
      <trkpt lat="47.22476" lon="-1.67823">
        <ele>78</ele>
        <time>2021-07-16T07:33:29.000Z</time>
      </trkpt>
      <trkpt lat="47.22487" lon="-1.67824">
        <ele>78</ele>
        <time>2021-07-16T07:33:31.000Z</time>
      </trkpt>
      <trkpt lat="47.22505" lon="-1.67827">
        <ele>79</ele>
        <time>2021-07-16T07:33:34.000Z</time>
      </trkpt>
      <trkpt lat="47.22516" lon="-1.67829">
        <ele>80</ele>
        <time>2021-07-16T07:33:36.000Z</time>
      </trkpt>
      <trkpt lat="47.22528" lon="-1.67831">
        <ele>80</ele>
        <time>2021-07-16T07:33:38.000Z</time>
      </trkpt>
      <trkpt lat="47.22539" lon="-1.67832">
        <ele>81</ele>
        <time>2021-07-16T07:33:40.000Z</time>
      </trkpt>
      <trkpt lat="47.22551" lon="-1.67833">
        <ele>81</ele>
        <time>2021-07-16T07:33:42.000Z</time>
      </trkpt>
      <trkpt lat="47.22567" lon="-1.67836">
        <ele>82</ele>
        <time>2021-07-16T07:33:45.000Z</time>
      </trkpt>
      <trkpt lat="47.22584" lon="-1.67824">
        <ele>84</ele>
        <time>2021-07-16T07:33:49.000Z</time>
      </trkpt>
      <trkpt lat="47.22595" lon="-1.67826">
        <ele>84</ele>
        <time>2021-07-16T07:33:51.000Z</time>
      </trkpt>
      <trkpt lat="47.22606" lon="-1.67832">
        <ele>83</ele>
        <time>2021-07-16T07:33:53.000Z</time>
      </trkpt>
      <trkpt lat="47.22618" lon="-1.67834">
        <ele>84</ele>
        <time>2021-07-16T07:33:55.000Z</time>
      </trkpt>
      <trkpt lat="47.22629" lon="-1.67833">
        <ele>85</ele>
        <time>2021-07-16T07:33:57.000Z</time>
      </trkpt>
      <trkpt lat="47.22641" lon="-1.6783">
        <ele>85</ele>
        <time>2021-07-16T07:33:59.000Z</time>
      </trkpt>
      <trkpt lat="47.22652" lon="-1.67828">
        <ele>85</ele>
        <time>2021-07-16T07:34:01.000Z</time>
      </trkpt>
      <trkpt lat="47.22664" lon="-1.67825">
        <ele>86</ele>
        <time>2021-07-16T07:34:03.000Z</time>
      </trkpt>
      <trkpt lat="47.22675" lon="-1.67822">
        <ele>86</ele>
        <time>2021-07-16T07:34:05.000Z</time>
      </trkpt>
      <trkpt lat="47.22686" lon="-1.6782">
        <ele>86</ele>
        <time>2021-07-16T07:34:07.000Z</time>
      </trkpt>
      <trkpt lat="47.22697" lon="-1.67818">
        <ele>86</ele>
        <time>2021-07-16T07:34:09.000Z</time>
      </trkpt>
      <trkpt lat="47.22709" lon="-1.67815">
        <ele>87</ele>
        <time>2021-07-16T07:34:11.000Z</time>
      </trkpt>
      <trkpt lat="47.2272" lon="-1.67813">
        <ele>87</ele>
        <time>2021-07-16T07:34:13.000Z</time>
      </trkpt>
      <trkpt lat="47.22731" lon="-1.67811">
        <ele>87</ele>
        <time>2021-07-16T07:34:15.000Z</time>
      </trkpt>
      <trkpt lat="47.22742" lon="-1.67808">
        <ele>88</ele>
        <time>2021-07-16T07:34:17.000Z</time>
      </trkpt>
      <trkpt lat="47.22753" lon="-1.67805">
        <ele>88</ele>
        <time>2021-07-16T07:34:19.000Z</time>
      </trkpt>
      <trkpt lat="47.22764" lon="-1.67801">
        <ele>89</ele>
        <time>2021-07-16T07:34:21.000Z</time>
      </trkpt>
      <trkpt lat="47.22775" lon="-1.67797">
        <ele>89</ele>
        <time>2021-07-16T07:34:23.000Z</time>
      </trkpt>
      <trkpt lat="47.22786" lon="-1.67792">
        <ele>89</ele>
        <time>2021-07-16T07:34:25.000Z</time>
      </trkpt>
      <trkpt lat="47.22797" lon="-1.67788">
        <ele>90</ele>
        <time>2021-07-16T07:34:27.000Z</time>
      </trkpt>
      <trkpt lat="47.22807" lon="-1.67783">
        <ele>90</ele>
        <time>2021-07-16T07:34:29.000Z</time>
      </trkpt>
      <trkpt lat="47.22817" lon="-1.67779">
        <ele>90</ele>
        <time>2021-07-16T07:34:31.000Z</time>
      </trkpt>
      <trkpt lat="47.22827" lon="-1.67773">
        <ele>90</ele>
        <time>2021-07-16T07:34:33.000Z</time>
      </trkpt>
      <trkpt lat="47.22837" lon="-1.67768">
        <ele>90</ele>
        <time>2021-07-16T07:34:35.000Z</time>
      </trkpt>
      <trkpt lat="47.22847" lon="-1.67764">
        <ele>91</ele>
        <time>2021-07-16T07:34:37.000Z</time>
      </trkpt>
      <trkpt lat="47.22856" lon="-1.67758">
        <ele>91</ele>
        <time>2021-07-16T07:34:39.000Z</time>
      </trkpt>
      <trkpt lat="47.22866" lon="-1.67751">
        <ele>91</ele>
        <time>2021-07-16T07:34:41.000Z</time>
      </trkpt>
      <trkpt lat="47.22878" lon="-1.67744">
        <ele>92</ele>
        <time>2021-07-16T07:34:43.000Z</time>
      </trkpt>
      <trkpt lat="47.2289" lon="-1.67738">
        <ele>92</ele>
        <time>2021-07-16T07:34:45.000Z</time>
      </trkpt>
      <trkpt lat="47.22902" lon="-1.67732">
        <ele>92</ele>
        <time>2021-07-16T07:34:47.000Z</time>
      </trkpt>
      <trkpt lat="47.22913" lon="-1.67724">
        <ele>93</ele>
        <time>2021-07-16T07:34:49.000Z</time>
      </trkpt>
      <trkpt lat="47.22925" lon="-1.67717">
        <ele>94</ele>
        <time>2021-07-16T07:34:51.000Z</time>
      </trkpt>
      <trkpt lat="47.22936" lon="-1.67709">
        <ele>94</ele>
        <time>2021-07-16T07:34:53.000Z</time>
      </trkpt>
      <trkpt lat="47.22947" lon="-1.67701">
        <ele>95</ele>
        <time>2021-07-16T07:34:55.000Z</time>
      </trkpt>
      <trkpt lat="47.22958" lon="-1.67693">
        <ele>95</ele>
        <time>2021-07-16T07:34:57.000Z</time>
      </trkpt>
      <trkpt lat="47.22969" lon="-1.67686">
        <ele>95</ele>
        <time>2021-07-16T07:34:59.000Z</time>
      </trkpt>
      <trkpt lat="47.2298" lon="-1.67679">
        <ele>96</ele>
        <time>2021-07-16T07:35:01.000Z</time>
      </trkpt>
      <trkpt lat="47.22991" lon="-1.67671">
        <ele>96</ele>
        <time>2021-07-16T07:35:03.000Z</time>
      </trkpt>
      <trkpt lat="47.23002" lon="-1.67663">
        <ele>96</ele>
        <time>2021-07-16T07:35:05.000Z</time>
      </trkpt>
      <trkpt lat="47.23013" lon="-1.67654">
        <ele>96</ele>
        <time>2021-07-16T07:35:07.000Z</time>
      </trkpt>
      <trkpt lat="47.23023" lon="-1.67645">
        <ele>95</ele>
        <time>2021-07-16T07:35:09.000Z</time>
      </trkpt>
      <trkpt lat="47.23033" lon="-1.67634">
        <ele>95</ele>
        <time>2021-07-16T07:35:11.000Z</time>
      </trkpt>
      <trkpt lat="47.23042" lon="-1.67621">
        <ele>95</ele>
        <time>2021-07-16T07:35:13.000Z</time>
      </trkpt>
      <trkpt lat="47.23051" lon="-1.67608">
        <ele>95</ele>
        <time>2021-07-16T07:35:15.000Z</time>
      </trkpt>
      <trkpt lat="47.23059" lon="-1.67595">
        <ele>95</ele>
        <time>2021-07-16T07:35:17.000Z</time>
      </trkpt>
      <trkpt lat="47.23067" lon="-1.67581">
        <ele>96</ele>
        <time>2021-07-16T07:35:19.000Z</time>
      </trkpt>
      <trkpt lat="47.23076" lon="-1.67569">
        <ele>96</ele>
        <time>2021-07-16T07:35:21.000Z</time>
      </trkpt>
      <trkpt lat="47.23085" lon="-1.67558">
        <ele>95</ele>
        <time>2021-07-16T07:35:23.000Z</time>
      </trkpt>
      <trkpt lat="47.23093" lon="-1.67546">
        <ele>96</ele>
        <time>2021-07-16T07:35:25.000Z</time>
      </trkpt>
      <trkpt lat="47.23103" lon="-1.67536">
        <ele>96</ele>
        <time>2021-07-16T07:35:27.000Z</time>
      </trkpt>
      <trkpt lat="47.23112" lon="-1.67525">
        <ele>96</ele>
        <time>2021-07-16T07:35:29.000Z</time>
      </trkpt>
      <trkpt lat="47.23122" lon="-1.67515">
        <ele>96</ele>
        <time>2021-07-16T07:35:31.000Z</time>
      </trkpt>
      <trkpt lat="47.23131" lon="-1.67505">
        <ele>96</ele>
        <time>2021-07-16T07:35:33.000Z</time>
      </trkpt>
      <trkpt lat="47.2314" lon="-1.67495">
        <ele>96</ele>
        <time>2021-07-16T07:35:35.000Z</time>
      </trkpt>
      <trkpt lat="47.2315" lon="-1.67485">
        <ele>96</ele>
        <time>2021-07-16T07:35:37.000Z</time>
      </trkpt>
      <trkpt lat="47.23159" lon="-1.67475">
        <ele>97</ele>
        <time>2021-07-16T07:35:39.000Z</time>
      </trkpt>
      <trkpt lat="47.23168" lon="-1.67465">
        <ele>98</ele>
        <time>2021-07-16T07:35:41.000Z</time>
      </trkpt>
      <trkpt lat="47.23177" lon="-1.67455">
        <ele>98</ele>
        <time>2021-07-16T07:35:43.000Z</time>
      </trkpt>
      <trkpt lat="47.23186" lon="-1.67445">
        <ele>98</ele>
        <time>2021-07-16T07:35:45.000Z</time>
      </trkpt>
      <trkpt lat="47.23195" lon="-1.67434">
        <ele>98</ele>
        <time>2021-07-16T07:35:47.000Z</time>
      </trkpt>
      <trkpt lat="47.23203" lon="-1.67425">
        <ele>98</ele>
        <time>2021-07-16T07:35:49.000Z</time>
      </trkpt>
      <trkpt lat="47.23211" lon="-1.67415">
        <ele>99</ele>
        <time>2021-07-16T07:35:51.000Z</time>
      </trkpt>
      <trkpt lat="47.23219" lon="-1.67407">
        <ele>99</ele>
        <time>2021-07-16T07:35:53.000Z</time>
      </trkpt>
      <trkpt lat="47.23228" lon="-1.67399">
        <ele>100</ele>
        <time>2021-07-16T07:35:55.000Z</time>
      </trkpt>
      <trkpt lat="47.23236" lon="-1.67391">
        <ele>100</ele>
        <time>2021-07-16T07:35:57.000Z</time>
      </trkpt>
      <trkpt lat="47.23245" lon="-1.67383">
        <ele>101</ele>
        <time>2021-07-16T07:35:59.000Z</time>
      </trkpt>
      <trkpt lat="47.23254" lon="-1.67377">
        <ele>101</ele>
        <time>2021-07-16T07:36:01.000Z</time>
      </trkpt>
      <trkpt lat="47.23263" lon="-1.67371">
        <ele>102</ele>
        <time>2021-07-16T07:36:03.000Z</time>
      </trkpt>
      <trkpt lat="47.23272" lon="-1.67365">
        <ele>102</ele>
        <time>2021-07-16T07:36:05.000Z</time>
      </trkpt>
      <trkpt lat="47.23281" lon="-1.67358">
        <ele>103</ele>
        <time>2021-07-16T07:36:07.000Z</time>
      </trkpt>
      <trkpt lat="47.23291" lon="-1.67351">
        <ele>103</ele>
        <time>2021-07-16T07:36:09.000Z</time>
      </trkpt>
      <trkpt lat="47.233" lon="-1.67345">
        <ele>103</ele>
        <time>2021-07-16T07:36:11.000Z</time>
      </trkpt>
      <trkpt lat="47.23308" lon="-1.67339">
        <ele>104</ele>
        <time>2021-07-16T07:36:13.000Z</time>
      </trkpt>
      <trkpt lat="47.23317" lon="-1.67333">
        <ele>105</ele>
        <time>2021-07-16T07:36:15.000Z</time>
      </trkpt>
      <trkpt lat="47.23326" lon="-1.67327">
        <ele>106</ele>
        <time>2021-07-16T07:36:17.000Z</time>
      </trkpt>
      <trkpt lat="47.23336" lon="-1.67322">
        <ele>106</ele>
        <time>2021-07-16T07:36:19.000Z</time>
      </trkpt>
      <trkpt lat="47.23345" lon="-1.67316">
        <ele>107</ele>
        <time>2021-07-16T07:36:21.000Z</time>
      </trkpt>
      <trkpt lat="47.23355" lon="-1.6731">
        <ele>107</ele>
        <time>2021-07-16T07:36:23.000Z</time>
      </trkpt>
      <trkpt lat="47.23364" lon="-1.67304">
        <ele>107</ele>
        <time>2021-07-16T07:36:25.000Z</time>
      </trkpt>
      <trkpt lat="47.23374" lon="-1.67297">
        <ele>107</ele>
        <time>2021-07-16T07:36:27.000Z</time>
      </trkpt>
      <trkpt lat="47.23383" lon="-1.67291">
        <ele>107</ele>
        <time>2021-07-16T07:36:29.000Z</time>
      </trkpt>
      <trkpt lat="47.23392" lon="-1.67284">
        <ele>107</ele>
        <time>2021-07-16T07:36:31.000Z</time>
      </trkpt>
      <trkpt lat="47.23402" lon="-1.67278">
        <ele>107</ele>
        <time>2021-07-16T07:36:33.000Z</time>
      </trkpt>
      <trkpt lat="47.23411" lon="-1.67272">
        <ele>107</ele>
        <time>2021-07-16T07:36:35.000Z</time>
      </trkpt>
      <trkpt lat="47.23421" lon="-1.67265">
        <ele>108</ele>
        <time>2021-07-16T07:36:37.000Z</time>
      </trkpt>
      <trkpt lat="47.23431" lon="-1.67258">
        <ele>108</ele>
        <time>2021-07-16T07:36:39.000Z</time>
      </trkpt>
      <trkpt lat="47.2344" lon="-1.67252">
        <ele>108</ele>
        <time>2021-07-16T07:36:41.000Z</time>
      </trkpt>
      <trkpt lat="47.2345" lon="-1.67245">
        <ele>108</ele>
        <time>2021-07-16T07:36:43.000Z</time>
      </trkpt>
      <trkpt lat="47.2346" lon="-1.67238">
        <ele>107</ele>
        <time>2021-07-16T07:36:45.000Z</time>
      </trkpt>
      <trkpt lat="47.2347" lon="-1.67231">
        <ele>108</ele>
        <time>2021-07-16T07:36:47.000Z</time>
      </trkpt>
      <trkpt lat="47.2348" lon="-1.67226">
        <ele>108</ele>
        <time>2021-07-16T07:36:49.000Z</time>
      </trkpt>
      <trkpt lat="47.23489" lon="-1.67217">
        <ele>108</ele>
        <time>2021-07-16T07:36:51.000Z</time>
      </trkpt>
      <trkpt lat="47.23498" lon="-1.67208">
        <ele>108</ele>
        <time>2021-07-16T07:36:53.000Z</time>
      </trkpt>
      <trkpt lat="47.23507" lon="-1.672">
        <ele>109</ele>
        <time>2021-07-16T07:36:55.000Z</time>
      </trkpt>
      <trkpt lat="47.23519" lon="-1.67196">
        <ele>109</ele>
        <time>2021-07-16T07:36:57.000Z</time>
      </trkpt>
      <trkpt lat="47.23531" lon="-1.67192">
        <ele>109</ele>
        <time>2021-07-16T07:36:59.000Z</time>
      </trkpt>
      <trkpt lat="47.23542" lon="-1.67187">
        <ele>109</ele>
        <time>2021-07-16T07:37:01.000Z</time>
      </trkpt>
      <trkpt lat="47.23553" lon="-1.67184">
        <ele>109</ele>
        <time>2021-07-16T07:37:03.000Z</time>
      </trkpt>
      <trkpt lat="47.23565" lon="-1.67181">
        <ele>109</ele>
        <time>2021-07-16T07:37:05.000Z</time>
      </trkpt>
      <trkpt lat="47.23575" lon="-1.67179">
        <ele>109</ele>
        <time>2021-07-16T07:37:07.000Z</time>
      </trkpt>
      <trkpt lat="47.23587" lon="-1.67176">
        <ele>109</ele>
        <time>2021-07-16T07:37:09.000Z</time>
      </trkpt>
      <trkpt lat="47.23598" lon="-1.67175">
        <ele>109</ele>
        <time>2021-07-16T07:37:11.000Z</time>
      </trkpt>
      <trkpt lat="47.2361" lon="-1.67174">
        <ele>108</ele>
        <time>2021-07-16T07:37:13.000Z</time>
      </trkpt>
      <trkpt lat="47.23622" lon="-1.67171">
        <ele>108</ele>
        <time>2021-07-16T07:37:15.000Z</time>
      </trkpt>
      <trkpt lat="47.2363" lon="-1.67162">
        <ele>108</ele>
        <time>2021-07-16T07:37:17.000Z</time>
      </trkpt>
      <trkpt lat="47.23639" lon="-1.67154">
        <ele>108</ele>
        <time>2021-07-16T07:37:19.000Z</time>
      </trkpt>
      <trkpt lat="47.23651" lon="-1.67157">
        <ele>108</ele>
        <time>2021-07-16T07:37:21.000Z</time>
      </trkpt>
      <trkpt lat="47.2366" lon="-1.67167">
        <ele>108</ele>
        <time>2021-07-16T07:37:23.000Z</time>
      </trkpt>
      <trkpt lat="47.23672" lon="-1.67169">
        <ele>107</ele>
        <time>2021-07-16T07:37:25.000Z</time>
      </trkpt>
      <trkpt lat="47.23685" lon="-1.67169">
        <ele>108</ele>
        <time>2021-07-16T07:37:27.000Z</time>
      </trkpt>
      <trkpt lat="47.23696" lon="-1.67167">
        <ele>108</ele>
        <time>2021-07-16T07:37:29.000Z</time>
      </trkpt>
      <trkpt lat="47.23708" lon="-1.67164">
        <ele>107</ele>
        <time>2021-07-16T07:37:31.000Z</time>
      </trkpt>
      <trkpt lat="47.2372" lon="-1.6716">
        <ele>107</ele>
        <time>2021-07-16T07:37:33.000Z</time>
      </trkpt>
      <trkpt lat="47.23732" lon="-1.67157">
        <ele>107</ele>
        <time>2021-07-16T07:37:35.000Z</time>
      </trkpt>
      <trkpt lat="47.23745" lon="-1.67153">
        <ele>107</ele>
        <time>2021-07-16T07:37:37.000Z</time>
      </trkpt>
      <trkpt lat="47.23757" lon="-1.67148">
        <ele>107</ele>
        <time>2021-07-16T07:37:39.000Z</time>
      </trkpt>
      <trkpt lat="47.23768" lon="-1.67144">
        <ele>107</ele>
        <time>2021-07-16T07:37:41.000Z</time>
      </trkpt>
      <trkpt lat="47.2378" lon="-1.67139">
        <ele>107</ele>
        <time>2021-07-16T07:37:43.000Z</time>
      </trkpt>
      <trkpt lat="47.23792" lon="-1.67135">
        <ele>108</ele>
        <time>2021-07-16T07:37:45.000Z</time>
      </trkpt>
      <trkpt lat="47.23804" lon="-1.67131">
        <ele>109</ele>
        <time>2021-07-16T07:37:47.000Z</time>
      </trkpt>
      <trkpt lat="47.23816" lon="-1.67129">
        <ele>109</ele>
        <time>2021-07-16T07:37:49.000Z</time>
      </trkpt>
      <trkpt lat="47.23828" lon="-1.67128">
        <ele>108</ele>
        <time>2021-07-16T07:37:51.000Z</time>
      </trkpt>
      <trkpt lat="47.23839" lon="-1.67128">
        <ele>108</ele>
        <time>2021-07-16T07:37:53.000Z</time>
      </trkpt>
      <trkpt lat="47.23852" lon="-1.6713">
        <ele>108</ele>
        <time>2021-07-16T07:37:55.000Z</time>
      </trkpt>
      <trkpt lat="47.23864" lon="-1.67133">
        <ele>109</ele>
        <time>2021-07-16T07:37:57.000Z</time>
      </trkpt>
      <trkpt lat="47.23876" lon="-1.67138">
        <ele>109</ele>
        <time>2021-07-16T07:37:59.000Z</time>
      </trkpt>
      <trkpt lat="47.23887" lon="-1.67144">
        <ele>110</ele>
        <time>2021-07-16T07:38:01.000Z</time>
      </trkpt>
      <trkpt lat="47.23898" lon="-1.67151">
        <ele>110</ele>
        <time>2021-07-16T07:38:03.000Z</time>
      </trkpt>
      <trkpt lat="47.23909" lon="-1.67158">
        <ele>110</ele>
        <time>2021-07-16T07:38:05.000Z</time>
      </trkpt>
      <trkpt lat="47.2392" lon="-1.67163">
        <ele>110</ele>
        <time>2021-07-16T07:38:07.000Z</time>
      </trkpt>
      <trkpt lat="47.23931" lon="-1.6717">
        <ele>111</ele>
        <time>2021-07-16T07:38:09.000Z</time>
      </trkpt>
      <trkpt lat="47.2394" lon="-1.67178">
        <ele>111</ele>
        <time>2021-07-16T07:38:11.000Z</time>
      </trkpt>
      <trkpt lat="47.23949" lon="-1.67189">
        <ele>111</ele>
        <time>2021-07-16T07:38:13.000Z</time>
      </trkpt>
      <trkpt lat="47.23957" lon="-1.67201">
        <ele>111</ele>
        <time>2021-07-16T07:38:15.000Z</time>
      </trkpt>
      <trkpt lat="47.23966" lon="-1.67214">
        <ele>111</ele>
        <time>2021-07-16T07:38:17.000Z</time>
      </trkpt>
      <trkpt lat="47.23973" lon="-1.67227">
        <ele>110</ele>
        <time>2021-07-16T07:38:19.000Z</time>
      </trkpt>
      <trkpt lat="47.23982" lon="-1.67238">
        <ele>110</ele>
        <time>2021-07-16T07:38:21.000Z</time>
      </trkpt>
      <trkpt lat="47.23992" lon="-1.67249">
        <ele>110</ele>
        <time>2021-07-16T07:38:23.000Z</time>
      </trkpt>
      <trkpt lat="47.24002" lon="-1.67259">
        <ele>109</ele>
        <time>2021-07-16T07:38:25.000Z</time>
      </trkpt>
      <trkpt lat="47.24014" lon="-1.67266">
        <ele>108</ele>
        <time>2021-07-16T07:38:27.000Z</time>
      </trkpt>
      <trkpt lat="47.24027" lon="-1.67274">
        <ele>108</ele>
        <time>2021-07-16T07:38:29.000Z</time>
      </trkpt>
      <trkpt lat="47.24041" lon="-1.67279">
        <ele>107</ele>
        <time>2021-07-16T07:38:31.000Z</time>
      </trkpt>
      <trkpt lat="47.24057" lon="-1.67283">
        <ele>106</ele>
        <time>2021-07-16T07:38:33.000Z</time>
      </trkpt>
      <trkpt lat="47.24073" lon="-1.67285">
        <ele>105</ele>
        <time>2021-07-16T07:38:35.000Z</time>
      </trkpt>
      <trkpt lat="47.2409" lon="-1.67287">
        <ele>104</ele>
        <time>2021-07-16T07:38:37.000Z</time>
      </trkpt>
      <trkpt lat="47.24107" lon="-1.67289">
        <ele>103</ele>
        <time>2021-07-16T07:38:39.000Z</time>
      </trkpt>
      <trkpt lat="47.24125" lon="-1.6729">
        <ele>102</ele>
        <time>2021-07-16T07:38:41.000Z</time>
      </trkpt>
      <trkpt lat="47.24141" lon="-1.67291">
        <ele>101</ele>
        <time>2021-07-16T07:38:43.000Z</time>
      </trkpt>
      <trkpt lat="47.24156" lon="-1.67289">
        <ele>102</ele>
        <time>2021-07-16T07:38:45.000Z</time>
      </trkpt>
      <trkpt lat="47.2417" lon="-1.67285">
        <ele>102</ele>
        <time>2021-07-16T07:38:47.000Z</time>
      </trkpt>
      <trkpt lat="47.24184" lon="-1.67281">
        <ele>102</ele>
        <time>2021-07-16T07:38:49.000Z</time>
      </trkpt>
      <trkpt lat="47.24197" lon="-1.67275">
        <ele>101</ele>
        <time>2021-07-16T07:38:51.000Z</time>
      </trkpt>
      <trkpt lat="47.24209" lon="-1.67269">
        <ele>101</ele>
        <time>2021-07-16T07:38:53.000Z</time>
      </trkpt>
      <trkpt lat="47.2422" lon="-1.67258">
        <ele>101</ele>
        <time>2021-07-16T07:38:55.000Z</time>
      </trkpt>
      <trkpt lat="47.24225" lon="-1.67243">
        <ele>100</ele>
        <time>2021-07-16T07:38:57.000Z</time>
      </trkpt>
      <trkpt lat="47.24225" lon="-1.67226">
        <ele>99</ele>
        <time>2021-07-16T07:38:59.000Z</time>
      </trkpt>
      <trkpt lat="47.24225" lon="-1.67211">
        <ele>99</ele>
        <time>2021-07-16T07:39:02.000Z</time>
      </trkpt>
      <trkpt lat="47.24227" lon="-1.67198">
        <ele>98</ele>
        <time>2021-07-16T07:39:07.000Z</time>
      </trkpt>
      <trkpt lat="47.24239" lon="-1.67188">
        <ele>99</ele>
        <time>2021-07-16T07:39:10.000Z</time>
      </trkpt>
      <trkpt lat="47.24244" lon="-1.67175">
        <ele>100</ele>
        <time>2021-07-16T07:39:12.000Z</time>
      </trkpt>
      <trkpt lat="47.24243" lon="-1.67158">
        <ele>99</ele>
        <time>2021-07-16T07:39:14.000Z</time>
      </trkpt>
      <trkpt lat="47.24242" lon="-1.67141">
        <ele>100</ele>
        <time>2021-07-16T07:39:16.000Z</time>
      </trkpt>
      <trkpt lat="47.24241" lon="-1.67123">
        <ele>100</ele>
        <time>2021-07-16T07:39:18.000Z</time>
      </trkpt>
      <trkpt lat="47.2424" lon="-1.67107">
        <ele>100</ele>
        <time>2021-07-16T07:39:20.000Z</time>
      </trkpt>
      <trkpt lat="47.24241" lon="-1.6709">
        <ele>100</ele>
        <time>2021-07-16T07:39:22.000Z</time>
      </trkpt>
      <trkpt lat="47.24241" lon="-1.67073">
        <ele>101</ele>
        <time>2021-07-16T07:39:24.000Z</time>
      </trkpt>
      <trkpt lat="47.24242" lon="-1.67057">
        <ele>101</ele>
        <time>2021-07-16T07:39:26.000Z</time>
      </trkpt>
      <trkpt lat="47.24243" lon="-1.6704">
        <ele>101</ele>
        <time>2021-07-16T07:39:28.000Z</time>
      </trkpt>
      <trkpt lat="47.24245" lon="-1.67023">
        <ele>101</ele>
        <time>2021-07-16T07:39:30.000Z</time>
      </trkpt>
      <trkpt lat="47.24248" lon="-1.67006">
        <ele>102</ele>
        <time>2021-07-16T07:39:32.000Z</time>
      </trkpt>
      <trkpt lat="47.24251" lon="-1.66989">
        <ele>102</ele>
        <time>2021-07-16T07:39:34.000Z</time>
      </trkpt>
      <trkpt lat="47.24254" lon="-1.66972">
        <ele>102</ele>
        <time>2021-07-16T07:39:36.000Z</time>
      </trkpt>
      <trkpt lat="47.24257" lon="-1.66956">
        <ele>102</ele>
        <time>2021-07-16T07:39:38.000Z</time>
      </trkpt>
      <trkpt lat="47.2426" lon="-1.66939">
        <ele>102</ele>
        <time>2021-07-16T07:39:40.000Z</time>
      </trkpt>
      <trkpt lat="47.24264" lon="-1.66922">
        <ele>102</ele>
        <time>2021-07-16T07:39:42.000Z</time>
      </trkpt>
      <trkpt lat="47.24267" lon="-1.66905">
        <ele>102</ele>
        <time>2021-07-16T07:39:44.000Z</time>
      </trkpt>
      <trkpt lat="47.24271" lon="-1.66887">
        <ele>101</ele>
        <time>2021-07-16T07:39:46.000Z</time>
      </trkpt>
      <trkpt lat="47.24274" lon="-1.66869">
        <ele>101</ele>
        <time>2021-07-16T07:39:48.000Z</time>
      </trkpt>
      <trkpt lat="47.2428" lon="-1.66853">
        <ele>102</ele>
        <time>2021-07-16T07:39:50.000Z</time>
      </trkpt>
      <trkpt lat="47.24285" lon="-1.66836">
        <ele>102</ele>
        <time>2021-07-16T07:39:52.000Z</time>
      </trkpt>
      <trkpt lat="47.24291" lon="-1.66819">
        <ele>102</ele>
        <time>2021-07-16T07:39:54.000Z</time>
      </trkpt>
      <trkpt lat="47.24303" lon="-1.66811">
        <ele>102</ele>
        <time>2021-07-16T07:39:56.000Z</time>
      </trkpt>
      <trkpt lat="47.24315" lon="-1.66819">
        <ele>101</ele>
        <time>2021-07-16T07:39:58.000Z</time>
      </trkpt>
      <trkpt lat="47.24326" lon="-1.66834">
        <ele>101</ele>
        <time>2021-07-16T07:40:00.000Z</time>
      </trkpt>
      <trkpt lat="47.24338" lon="-1.66844">
        <ele>100</ele>
        <time>2021-07-16T07:40:02.000Z</time>
      </trkpt>
      <trkpt lat="47.2435" lon="-1.66854">
        <ele>100</ele>
        <time>2021-07-16T07:40:04.000Z</time>
      </trkpt>
      <trkpt lat="47.24363" lon="-1.66866">
        <ele>100</ele>
        <time>2021-07-16T07:40:06.000Z</time>
      </trkpt>
      <trkpt lat="47.24374" lon="-1.66878">
        <ele>99</ele>
        <time>2021-07-16T07:40:08.000Z</time>
      </trkpt>
      <trkpt lat="47.24385" lon="-1.66892">
        <ele>98</ele>
        <time>2021-07-16T07:40:10.000Z</time>
      </trkpt>
      <trkpt lat="47.24395" lon="-1.66905">
        <ele>98</ele>
        <time>2021-07-16T07:40:12.000Z</time>
      </trkpt>
      <trkpt lat="47.24406" lon="-1.66919">
        <ele>98</ele>
        <time>2021-07-16T07:40:14.000Z</time>
      </trkpt>
      <trkpt lat="47.24418" lon="-1.66933">
        <ele>97</ele>
        <time>2021-07-16T07:40:16.000Z</time>
      </trkpt>
      <trkpt lat="47.24428" lon="-1.66949">
        <ele>97</ele>
        <time>2021-07-16T07:40:18.000Z</time>
      </trkpt>
      <trkpt lat="47.24438" lon="-1.66964">
        <ele>97</ele>
        <time>2021-07-16T07:40:20.000Z</time>
      </trkpt>
      <trkpt lat="47.24451" lon="-1.66975">
        <ele>96</ele>
        <time>2021-07-16T07:40:22.000Z</time>
      </trkpt>
      <trkpt lat="47.24461" lon="-1.66991">
        <ele>96</ele>
        <time>2021-07-16T07:40:24.000Z</time>
      </trkpt>
      <trkpt lat="47.24473" lon="-1.67">
        <ele>96</ele>
        <time>2021-07-16T07:40:26.000Z</time>
      </trkpt>
      <trkpt lat="47.24486" lon="-1.67008">
        <ele>97</ele>
        <time>2021-07-16T07:40:28.000Z</time>
      </trkpt>
      <trkpt lat="47.24499" lon="-1.67016">
        <ele>97</ele>
        <time>2021-07-16T07:40:30.000Z</time>
      </trkpt>
      <trkpt lat="47.24512" lon="-1.67024">
        <ele>98</ele>
        <time>2021-07-16T07:40:32.000Z</time>
      </trkpt>
      <trkpt lat="47.24525" lon="-1.67029">
        <ele>98</ele>
        <time>2021-07-16T07:40:34.000Z</time>
      </trkpt>
      <trkpt lat="47.24538" lon="-1.67032">
        <ele>97</ele>
        <time>2021-07-16T07:40:36.000Z</time>
      </trkpt>
      <trkpt lat="47.24551" lon="-1.67033">
        <ele>97</ele>
        <time>2021-07-16T07:40:38.000Z</time>
      </trkpt>
      <trkpt lat="47.24564" lon="-1.67033">
        <ele>98</ele>
        <time>2021-07-16T07:40:40.000Z</time>
      </trkpt>
      <trkpt lat="47.24578" lon="-1.6703">
        <ele>98</ele>
        <time>2021-07-16T07:40:42.000Z</time>
      </trkpt>
      <trkpt lat="47.24591" lon="-1.67027">
        <ele>98</ele>
        <time>2021-07-16T07:40:44.000Z</time>
      </trkpt>
      <trkpt lat="47.24605" lon="-1.67022">
        <ele>99</ele>
        <time>2021-07-16T07:40:46.000Z</time>
      </trkpt>
      <trkpt lat="47.24619" lon="-1.67016">
        <ele>99</ele>
        <time>2021-07-16T07:40:48.000Z</time>
      </trkpt>
      <trkpt lat="47.24632" lon="-1.6701">
        <ele>99</ele>
        <time>2021-07-16T07:40:50.000Z</time>
      </trkpt>
      <trkpt lat="47.24645" lon="-1.67005">
        <ele>99</ele>
        <time>2021-07-16T07:40:52.000Z</time>
      </trkpt>
      <trkpt lat="47.24658" lon="-1.66997">
        <ele>98</ele>
        <time>2021-07-16T07:40:54.000Z</time>
      </trkpt>
      <trkpt lat="47.2467" lon="-1.66986">
        <ele>98</ele>
        <time>2021-07-16T07:40:56.000Z</time>
      </trkpt>
      <trkpt lat="47.24681" lon="-1.66973">
        <ele>97</ele>
        <time>2021-07-16T07:40:58.000Z</time>
      </trkpt>
      <trkpt lat="47.24691" lon="-1.66959">
        <ele>97</ele>
        <time>2021-07-16T07:41:00.000Z</time>
      </trkpt>
      <trkpt lat="47.24701" lon="-1.66944">
        <ele>97</ele>
        <time>2021-07-16T07:41:02.000Z</time>
      </trkpt>
      <trkpt lat="47.24712" lon="-1.66932">
        <ele>97</ele>
        <time>2021-07-16T07:41:04.000Z</time>
      </trkpt>
      <trkpt lat="47.24724" lon="-1.66922">
        <ele>97</ele>
        <time>2021-07-16T07:41:06.000Z</time>
      </trkpt>
      <trkpt lat="47.24736" lon="-1.66913">
        <ele>97</ele>
        <time>2021-07-16T07:41:08.000Z</time>
      </trkpt>
      <trkpt lat="47.24749" lon="-1.66906">
        <ele>97</ele>
        <time>2021-07-16T07:41:10.000Z</time>
      </trkpt>
      <trkpt lat="47.24762" lon="-1.66899">
        <ele>96</ele>
        <time>2021-07-16T07:41:12.000Z</time>
      </trkpt>
      <trkpt lat="47.24774" lon="-1.6689">
        <ele>96</ele>
        <time>2021-07-16T07:41:14.000Z</time>
      </trkpt>
      <trkpt lat="47.24786" lon="-1.66879">
        <ele>96</ele>
        <time>2021-07-16T07:41:16.000Z</time>
      </trkpt>
      <trkpt lat="47.24798" lon="-1.66867">
        <ele>97</ele>
        <time>2021-07-16T07:41:18.000Z</time>
      </trkpt>
      <trkpt lat="47.2481" lon="-1.66857">
        <ele>96</ele>
        <time>2021-07-16T07:41:20.000Z</time>
      </trkpt>
      <trkpt lat="47.24823" lon="-1.66848">
        <ele>96</ele>
        <time>2021-07-16T07:41:22.000Z</time>
      </trkpt>
      <trkpt lat="47.24836" lon="-1.66842">
        <ele>95</ele>
        <time>2021-07-16T07:41:24.000Z</time>
      </trkpt>
      <trkpt lat="47.24849" lon="-1.66838">
        <ele>96</ele>
        <time>2021-07-16T07:41:26.000Z</time>
      </trkpt>
      <trkpt lat="47.24863" lon="-1.66834">
        <ele>95</ele>
        <time>2021-07-16T07:41:28.000Z</time>
      </trkpt>
      <trkpt lat="47.24877" lon="-1.6683">
        <ele>95</ele>
        <time>2021-07-16T07:41:30.000Z</time>
      </trkpt>
      <trkpt lat="47.24891" lon="-1.66825">
        <ele>95</ele>
        <time>2021-07-16T07:41:32.000Z</time>
      </trkpt>
      <trkpt lat="47.24906" lon="-1.66821">
        <ele>94</ele>
        <time>2021-07-16T07:41:34.000Z</time>
      </trkpt>
      <trkpt lat="47.2492" lon="-1.66817">
        <ele>94</ele>
        <time>2021-07-16T07:41:36.000Z</time>
      </trkpt>
      <trkpt lat="47.24935" lon="-1.66812">
        <ele>94</ele>
        <time>2021-07-16T07:41:38.000Z</time>
      </trkpt>
      <trkpt lat="47.24949" lon="-1.66808">
        <ele>94</ele>
        <time>2021-07-16T07:41:40.000Z</time>
      </trkpt>
      <trkpt lat="47.24964" lon="-1.66803">
        <ele>95</ele>
        <time>2021-07-16T07:41:42.000Z</time>
      </trkpt>
      <trkpt lat="47.24979" lon="-1.66799">
        <ele>94</ele>
        <time>2021-07-16T07:41:44.000Z</time>
      </trkpt>
      <trkpt lat="47.24994" lon="-1.66795">
        <ele>94</ele>
        <time>2021-07-16T07:41:46.000Z</time>
      </trkpt>
      <trkpt lat="47.25009" lon="-1.66792">
        <ele>94</ele>
        <time>2021-07-16T07:41:48.000Z</time>
      </trkpt>
      <trkpt lat="47.25025" lon="-1.66791">
        <ele>93</ele>
        <time>2021-07-16T07:41:50.000Z</time>
      </trkpt>
      <trkpt lat="47.25041" lon="-1.6679">
        <ele>93</ele>
        <time>2021-07-16T07:41:52.000Z</time>
      </trkpt>
      <trkpt lat="47.25056" lon="-1.66791">
        <ele>93</ele>
        <time>2021-07-16T07:41:54.000Z</time>
      </trkpt>
      <trkpt lat="47.2507" lon="-1.66792">
        <ele>92</ele>
        <time>2021-07-16T07:41:56.000Z</time>
      </trkpt>
      <trkpt lat="47.25083" lon="-1.66793">
        <ele>92</ele>
        <time>2021-07-16T07:41:58.000Z</time>
      </trkpt>
      <trkpt lat="47.25098" lon="-1.66796">
        <ele>91</ele>
        <time>2021-07-16T07:42:00.000Z</time>
      </trkpt>
      <trkpt lat="47.25114" lon="-1.66801">
        <ele>90</ele>
        <time>2021-07-16T07:42:02.000Z</time>
      </trkpt>
      <trkpt lat="47.25131" lon="-1.66805">
        <ele>90</ele>
        <time>2021-07-16T07:42:04.000Z</time>
      </trkpt>
      <trkpt lat="47.25139" lon="-1.66809">
        <ele>89</ele>
        <time>2021-07-16T07:42:05.000Z</time>
      </trkpt>
      <trkpt lat="47.25157" lon="-1.66815">
        <ele>89</ele>
        <time>2021-07-16T07:42:07.000Z</time>
      </trkpt>
      <trkpt lat="47.25174" lon="-1.6682">
        <ele>89</ele>
        <time>2021-07-16T07:42:09.000Z</time>
      </trkpt>
      <trkpt lat="47.25191" lon="-1.66823">
        <ele>89</ele>
        <time>2021-07-16T07:42:11.000Z</time>
      </trkpt>
      <trkpt lat="47.25207" lon="-1.66827">
        <ele>89</ele>
        <time>2021-07-16T07:42:13.000Z</time>
      </trkpt>
      <trkpt lat="47.25221" lon="-1.66831">
        <ele>89</ele>
        <time>2021-07-16T07:42:15.000Z</time>
      </trkpt>
      <trkpt lat="47.25235" lon="-1.66834">
        <ele>89</ele>
        <time>2021-07-16T07:42:17.000Z</time>
      </trkpt>
      <trkpt lat="47.25247" lon="-1.66836">
        <ele>89</ele>
        <time>2021-07-16T07:42:19.000Z</time>
      </trkpt>
      <trkpt lat="47.25259" lon="-1.66838">
        <ele>90</ele>
        <time>2021-07-16T07:42:21.000Z</time>
      </trkpt>
      <trkpt lat="47.25272" lon="-1.6684">
        <ele>91</ele>
        <time>2021-07-16T07:42:23.000Z</time>
      </trkpt>
      <trkpt lat="47.25283" lon="-1.66842">
        <ele>91</ele>
        <time>2021-07-16T07:42:25.000Z</time>
      </trkpt>
      <trkpt lat="47.25295" lon="-1.66844">
        <ele>92</ele>
        <time>2021-07-16T07:42:27.000Z</time>
      </trkpt>
      <trkpt lat="47.25307" lon="-1.66846">
        <ele>92</ele>
        <time>2021-07-16T07:42:29.000Z</time>
      </trkpt>
      <trkpt lat="47.25318" lon="-1.66847">
        <ele>93</ele>
        <time>2021-07-16T07:42:31.000Z</time>
      </trkpt>
      <trkpt lat="47.2533" lon="-1.66849">
        <ele>93</ele>
        <time>2021-07-16T07:42:33.000Z</time>
      </trkpt>
      <trkpt lat="47.25342" lon="-1.66851">
        <ele>93</ele>
        <time>2021-07-16T07:42:35.000Z</time>
      </trkpt>
      <trkpt lat="47.25353" lon="-1.66852">
        <ele>94</ele>
        <time>2021-07-16T07:42:37.000Z</time>
      </trkpt>
      <trkpt lat="47.25365" lon="-1.66854">
        <ele>93</ele>
        <time>2021-07-16T07:42:39.000Z</time>
      </trkpt>
      <trkpt lat="47.25376" lon="-1.66856">
        <ele>93</ele>
        <time>2021-07-16T07:42:41.000Z</time>
      </trkpt>
      <trkpt lat="47.25388" lon="-1.66858">
        <ele>94</ele>
        <time>2021-07-16T07:42:43.000Z</time>
      </trkpt>
      <trkpt lat="47.254" lon="-1.66859">
        <ele>94</ele>
        <time>2021-07-16T07:42:45.000Z</time>
      </trkpt>
      <trkpt lat="47.25412" lon="-1.66861">
        <ele>94</ele>
        <time>2021-07-16T07:42:47.000Z</time>
      </trkpt>
      <trkpt lat="47.25423" lon="-1.66862">
        <ele>94</ele>
        <time>2021-07-16T07:42:49.000Z</time>
      </trkpt>
      <trkpt lat="47.25435" lon="-1.66864">
        <ele>95</ele>
        <time>2021-07-16T07:42:51.000Z</time>
      </trkpt>
      <trkpt lat="47.25445" lon="-1.66866">
        <ele>95</ele>
        <time>2021-07-16T07:42:53.000Z</time>
      </trkpt>
      <trkpt lat="47.25456" lon="-1.66868">
        <ele>96</ele>
        <time>2021-07-16T07:42:55.000Z</time>
      </trkpt>
      <trkpt lat="47.25468" lon="-1.66869">
        <ele>95</ele>
        <time>2021-07-16T07:42:57.000Z</time>
      </trkpt>
      <trkpt lat="47.2548" lon="-1.66871">
        <ele>95</ele>
        <time>2021-07-16T07:42:59.000Z</time>
      </trkpt>
      <trkpt lat="47.25491" lon="-1.66873">
        <ele>95</ele>
        <time>2021-07-16T07:43:01.000Z</time>
      </trkpt>
      <trkpt lat="47.25502" lon="-1.66875">
        <ele>96</ele>
        <time>2021-07-16T07:43:03.000Z</time>
      </trkpt>
      <trkpt lat="47.25513" lon="-1.66875">
        <ele>96</ele>
        <time>2021-07-16T07:43:05.000Z</time>
      </trkpt>
      <trkpt lat="47.25525" lon="-1.66874">
        <ele>95</ele>
        <time>2021-07-16T07:43:07.000Z</time>
      </trkpt>
      <trkpt lat="47.25538" lon="-1.66878">
        <ele>96</ele>
        <time>2021-07-16T07:43:09.000Z</time>
      </trkpt>
      <trkpt lat="47.25549" lon="-1.66881">
        <ele>96</ele>
        <time>2021-07-16T07:43:11.000Z</time>
      </trkpt>
      <trkpt lat="47.25561" lon="-1.66883">
        <ele>96</ele>
        <time>2021-07-16T07:43:13.000Z</time>
      </trkpt>
      <trkpt lat="47.25573" lon="-1.66884">
        <ele>97</ele>
        <time>2021-07-16T07:43:15.000Z</time>
      </trkpt>
      <trkpt lat="47.25585" lon="-1.66885">
        <ele>96</ele>
        <time>2021-07-16T07:43:17.000Z</time>
      </trkpt>
      <trkpt lat="47.25597" lon="-1.66885">
        <ele>97</ele>
        <time>2021-07-16T07:43:19.000Z</time>
      </trkpt>
      <trkpt lat="47.25609" lon="-1.66885">
        <ele>97</ele>
        <time>2021-07-16T07:43:21.000Z</time>
      </trkpt>
      <trkpt lat="47.25621" lon="-1.66885">
        <ele>97</ele>
        <time>2021-07-16T07:43:23.000Z</time>
      </trkpt>
      <trkpt lat="47.25632" lon="-1.66886">
        <ele>98</ele>
        <time>2021-07-16T07:43:25.000Z</time>
      </trkpt>
      <trkpt lat="47.25643" lon="-1.66887">
        <ele>98</ele>
        <time>2021-07-16T07:43:27.000Z</time>
      </trkpt>
      <trkpt lat="47.25655" lon="-1.66888">
        <ele>98</ele>
        <time>2021-07-16T07:43:29.000Z</time>
      </trkpt>
      <trkpt lat="47.25666" lon="-1.66889">
        <ele>98</ele>
        <time>2021-07-16T07:43:31.000Z</time>
      </trkpt>
      <trkpt lat="47.25676" lon="-1.66887">
        <ele>98</ele>
        <time>2021-07-16T07:43:33.000Z</time>
      </trkpt>
      <trkpt lat="47.25687" lon="-1.66884">
        <ele>98</ele>
        <time>2021-07-16T07:43:35.000Z</time>
      </trkpt>
      <trkpt lat="47.25699" lon="-1.66885">
        <ele>99</ele>
        <time>2021-07-16T07:43:37.000Z</time>
      </trkpt>
      <trkpt lat="47.25711" lon="-1.66891">
        <ele>99</ele>
        <time>2021-07-16T07:43:39.000Z</time>
      </trkpt>
      <trkpt lat="47.25723" lon="-1.66894">
        <ele>99</ele>
        <time>2021-07-16T07:43:41.000Z</time>
      </trkpt>
      <trkpt lat="47.25735" lon="-1.66895">
        <ele>99</ele>
        <time>2021-07-16T07:43:43.000Z</time>
      </trkpt>
      <trkpt lat="47.25747" lon="-1.66896">
        <ele>99</ele>
        <time>2021-07-16T07:43:45.000Z</time>
      </trkpt>
      <trkpt lat="47.25759" lon="-1.66898">
        <ele>100</ele>
        <time>2021-07-16T07:43:47.000Z</time>
      </trkpt>
      <trkpt lat="47.25771" lon="-1.669">
        <ele>101</ele>
        <time>2021-07-16T07:43:49.000Z</time>
      </trkpt>
      <trkpt lat="47.25782" lon="-1.66903">
        <ele>101</ele>
        <time>2021-07-16T07:43:51.000Z</time>
      </trkpt>
      <trkpt lat="47.25794" lon="-1.66904">
        <ele>101</ele>
        <time>2021-07-16T07:43:53.000Z</time>
      </trkpt>
      <trkpt lat="47.25806" lon="-1.66907">
        <ele>101</ele>
        <time>2021-07-16T07:43:55.000Z</time>
      </trkpt>
      <trkpt lat="47.25817" lon="-1.6691">
        <ele>101</ele>
        <time>2021-07-16T07:43:57.000Z</time>
      </trkpt>
      <trkpt lat="47.25829" lon="-1.66912">
        <ele>102</ele>
        <time>2021-07-16T07:43:59.000Z</time>
      </trkpt>
      <trkpt lat="47.25841" lon="-1.66915">
        <ele>102</ele>
        <time>2021-07-16T07:44:01.000Z</time>
      </trkpt>
      <trkpt lat="47.25853" lon="-1.66918">
        <ele>102</ele>
        <time>2021-07-16T07:44:03.000Z</time>
      </trkpt>
      <trkpt lat="47.25865" lon="-1.66921">
        <ele>103</ele>
        <time>2021-07-16T07:44:05.000Z</time>
      </trkpt>
      <trkpt lat="47.25876" lon="-1.66925">
        <ele>102</ele>
        <time>2021-07-16T07:44:07.000Z</time>
      </trkpt>
      <trkpt lat="47.25888" lon="-1.66929">
        <ele>102</ele>
        <time>2021-07-16T07:44:09.000Z</time>
      </trkpt>
      <trkpt lat="47.259" lon="-1.66933">
        <ele>103</ele>
        <time>2021-07-16T07:44:11.000Z</time>
      </trkpt>
      <trkpt lat="47.25911" lon="-1.66936">
        <ele>103</ele>
        <time>2021-07-16T07:44:13.000Z</time>
      </trkpt>
      <trkpt lat="47.25922" lon="-1.6694">
        <ele>103</ele>
        <time>2021-07-16T07:44:15.000Z</time>
      </trkpt>
      <trkpt lat="47.25933" lon="-1.66944">
        <ele>103</ele>
        <time>2021-07-16T07:44:17.000Z</time>
      </trkpt>
      <trkpt lat="47.25945" lon="-1.66949">
        <ele>104</ele>
        <time>2021-07-16T07:44:19.000Z</time>
      </trkpt>
      <trkpt lat="47.25956" lon="-1.66954">
        <ele>104</ele>
        <time>2021-07-16T07:44:21.000Z</time>
      </trkpt>
      <trkpt lat="47.25967" lon="-1.6696">
        <ele>105</ele>
        <time>2021-07-16T07:44:23.000Z</time>
      </trkpt>
      <trkpt lat="47.25979" lon="-1.66965">
        <ele>105</ele>
        <time>2021-07-16T07:44:25.000Z</time>
      </trkpt>
      <trkpt lat="47.2599" lon="-1.66971">
        <ele>105</ele>
        <time>2021-07-16T07:44:27.000Z</time>
      </trkpt>
      <trkpt lat="47.26002" lon="-1.66975">
        <ele>105</ele>
        <time>2021-07-16T07:44:29.000Z</time>
      </trkpt>
      <trkpt lat="47.26013" lon="-1.66981">
        <ele>105</ele>
        <time>2021-07-16T07:44:31.000Z</time>
      </trkpt>
      <trkpt lat="47.26023" lon="-1.66987">
        <ele>106</ele>
        <time>2021-07-16T07:44:33.000Z</time>
      </trkpt>
      <trkpt lat="47.26034" lon="-1.66991">
        <ele>106</ele>
        <time>2021-07-16T07:44:35.000Z</time>
      </trkpt>
      <trkpt lat="47.26045" lon="-1.66997">
        <ele>107</ele>
        <time>2021-07-16T07:44:37.000Z</time>
      </trkpt>
      <trkpt lat="47.26056" lon="-1.67002">
        <ele>108</ele>
        <time>2021-07-16T07:44:39.000Z</time>
      </trkpt>
      <trkpt lat="47.26067" lon="-1.67007">
        <ele>108</ele>
        <time>2021-07-16T07:44:41.000Z</time>
      </trkpt>
      <trkpt lat="47.26078" lon="-1.67013">
        <ele>109</ele>
        <time>2021-07-16T07:44:43.000Z</time>
      </trkpt>
      <trkpt lat="47.26089" lon="-1.67018">
        <ele>108</ele>
        <time>2021-07-16T07:44:45.000Z</time>
      </trkpt>
      <trkpt lat="47.26099" lon="-1.67022">
        <ele>109</ele>
        <time>2021-07-16T07:44:47.000Z</time>
      </trkpt>
      <trkpt lat="47.2611" lon="-1.67027">
        <ele>109</ele>
        <time>2021-07-16T07:44:49.000Z</time>
      </trkpt>
      <trkpt lat="47.26121" lon="-1.67032">
        <ele>110</ele>
        <time>2021-07-16T07:44:51.000Z</time>
      </trkpt>
      <trkpt lat="47.26133" lon="-1.67037">
        <ele>110</ele>
        <time>2021-07-16T07:44:53.000Z</time>
      </trkpt>
      <trkpt lat="47.26143" lon="-1.67042">
        <ele>110</ele>
        <time>2021-07-16T07:44:55.000Z</time>
      </trkpt>
      <trkpt lat="47.26154" lon="-1.67047">
        <ele>110</ele>
        <time>2021-07-16T07:44:57.000Z</time>
      </trkpt>
      <trkpt lat="47.26165" lon="-1.67052">
        <ele>110</ele>
        <time>2021-07-16T07:44:59.000Z</time>
      </trkpt>
      <trkpt lat="47.26175" lon="-1.67057">
        <ele>109</ele>
        <time>2021-07-16T07:45:01.000Z</time>
      </trkpt>
      <trkpt lat="47.26184" lon="-1.67061">
        <ele>110</ele>
        <time>2021-07-16T07:45:03.000Z</time>
      </trkpt>
      <trkpt lat="47.26194" lon="-1.67061">
        <ele>111</ele>
        <time>2021-07-16T07:45:05.000Z</time>
      </trkpt>
      <trkpt lat="47.26203" lon="-1.67066">
        <ele>112</ele>
        <time>2021-07-16T07:45:07.000Z</time>
      </trkpt>
      <trkpt lat="47.2621" lon="-1.6708">
        <ele>111</ele>
        <time>2021-07-16T07:45:09.000Z</time>
      </trkpt>
      <trkpt lat="47.26213" lon="-1.67096">
        <ele>111</ele>
        <time>2021-07-16T07:45:11.000Z</time>
      </trkpt>
      <trkpt lat="47.26216" lon="-1.67113">
        <ele>111</ele>
        <time>2021-07-16T07:45:13.000Z</time>
      </trkpt>
      <trkpt lat="47.26219" lon="-1.67129">
        <ele>112</ele>
        <time>2021-07-16T07:45:15.000Z</time>
      </trkpt>
      <trkpt lat="47.26223" lon="-1.67145">
        <ele>112</ele>
        <time>2021-07-16T07:45:17.000Z</time>
      </trkpt>
      <trkpt lat="47.26227" lon="-1.67162">
        <ele>112</ele>
        <time>2021-07-16T07:45:19.000Z</time>
      </trkpt>
      <trkpt lat="47.2623" lon="-1.67178">
        <ele>113</ele>
        <time>2021-07-16T07:45:21.000Z</time>
      </trkpt>
      <trkpt lat="47.26234" lon="-1.67194">
        <ele>113</ele>
        <time>2021-07-16T07:45:23.000Z</time>
      </trkpt>
      <trkpt lat="47.26238" lon="-1.67209">
        <ele>113</ele>
        <time>2021-07-16T07:45:25.000Z</time>
      </trkpt>
      <trkpt lat="47.26242" lon="-1.67224">
        <ele>112</ele>
        <time>2021-07-16T07:45:27.000Z</time>
      </trkpt>
      <trkpt lat="47.26245" lon="-1.67238">
        <ele>112</ele>
        <time>2021-07-16T07:45:29.000Z</time>
      </trkpt>
      <trkpt lat="47.26258" lon="-1.67237">
        <ele>113</ele>
        <time>2021-07-16T07:45:32.000Z</time>
      </trkpt>
      <trkpt lat="47.26271" lon="-1.67234">
        <ele>113</ele>
        <time>2021-07-16T07:45:34.000Z</time>
      </trkpt>
      <trkpt lat="47.26284" lon="-1.67233">
        <ele>114</ele>
        <time>2021-07-16T07:45:36.000Z</time>
      </trkpt>
      <trkpt lat="47.26296" lon="-1.6723">
        <ele>114</ele>
        <time>2021-07-16T07:45:38.000Z</time>
      </trkpt>
      <trkpt lat="47.26308" lon="-1.67225">
        <ele>114</ele>
        <time>2021-07-16T07:45:40.000Z</time>
      </trkpt>
      <trkpt lat="47.2632" lon="-1.6722">
        <ele>114</ele>
        <time>2021-07-16T07:45:42.000Z</time>
      </trkpt>
      <trkpt lat="47.26331" lon="-1.67216">
        <ele>113</ele>
        <time>2021-07-16T07:45:44.000Z</time>
      </trkpt>
      <trkpt lat="47.26343" lon="-1.67217">
        <ele>114</ele>
        <time>2021-07-16T07:45:46.000Z</time>
      </trkpt>
      <trkpt lat="47.26353" lon="-1.67228">
        <ele>113</ele>
        <time>2021-07-16T07:45:48.000Z</time>
      </trkpt>
      <trkpt lat="47.26357" lon="-1.67249">
        <ele>113</ele>
        <time>2021-07-16T07:45:50.000Z</time>
      </trkpt>
      <trkpt lat="47.26361" lon="-1.67266">
        <ele>113</ele>
        <time>2021-07-16T07:45:52.000Z</time>
      </trkpt>
      <trkpt lat="47.26365" lon="-1.67282">
        <ele>113</ele>
        <time>2021-07-16T07:45:54.000Z</time>
      </trkpt>
      <trkpt lat="47.26374" lon="-1.67292">
        <ele>112</ele>
        <time>2021-07-16T07:45:56.000Z</time>
      </trkpt>
      <trkpt lat="47.26386" lon="-1.67294">
        <ele>112</ele>
        <time>2021-07-16T07:45:58.000Z</time>
      </trkpt>
      <trkpt lat="47.26397" lon="-1.67298">
        <ele>112</ele>
        <time>2021-07-16T07:46:00.000Z</time>
      </trkpt>
      <trkpt lat="47.26408" lon="-1.67302">
        <ele>112</ele>
        <time>2021-07-16T07:46:02.000Z</time>
      </trkpt>
      <trkpt lat="47.26419" lon="-1.67307">
        <ele>112</ele>
        <time>2021-07-16T07:46:04.000Z</time>
      </trkpt>
      <trkpt lat="47.2643" lon="-1.67313">
        <ele>112</ele>
        <time>2021-07-16T07:46:06.000Z</time>
      </trkpt>
      <trkpt lat="47.26441" lon="-1.67317">
        <ele>112</ele>
        <time>2021-07-16T07:46:09.000Z</time>
      </trkpt>
      <trkpt lat="47.26452" lon="-1.67306">
        <ele>111</ele>
        <time>2021-07-16T07:46:12.000Z</time>
      </trkpt>
      <trkpt lat="47.26458" lon="-1.67291">
        <ele>111</ele>
        <time>2021-07-16T07:46:14.000Z</time>
      </trkpt>
      <trkpt lat="47.26464" lon="-1.67274">
        <ele>111</ele>
        <time>2021-07-16T07:46:16.000Z</time>
      </trkpt>
      <trkpt lat="47.26471" lon="-1.67257">
        <ele>110</ele>
        <time>2021-07-16T07:46:18.000Z</time>
      </trkpt>
      <trkpt lat="47.26478" lon="-1.6724">
        <ele>110</ele>
        <time>2021-07-16T07:46:20.000Z</time>
      </trkpt>
      <trkpt lat="47.26486" lon="-1.67222">
        <ele>109</ele>
        <time>2021-07-16T07:46:22.000Z</time>
      </trkpt>
      <trkpt lat="47.26494" lon="-1.67203">
        <ele>108</ele>
        <time>2021-07-16T07:46:24.000Z</time>
      </trkpt>
      <trkpt lat="47.26503" lon="-1.67185">
        <ele>107</ele>
        <time>2021-07-16T07:46:26.000Z</time>
      </trkpt>
      <trkpt lat="47.26513" lon="-1.67168">
        <ele>107</ele>
        <time>2021-07-16T07:46:28.000Z</time>
      </trkpt>
      <trkpt lat="47.26526" lon="-1.67153">
        <ele>106</ele>
        <time>2021-07-16T07:46:30.000Z</time>
      </trkpt>
      <trkpt lat="47.26539" lon="-1.67139">
        <ele>105</ele>
        <time>2021-07-16T07:46:32.000Z</time>
      </trkpt>
      <trkpt lat="47.26554" lon="-1.67127">
        <ele>104</ele>
        <time>2021-07-16T07:46:34.000Z</time>
      </trkpt>
      <trkpt lat="47.26569" lon="-1.67117">
        <ele>103</ele>
        <time>2021-07-16T07:46:36.000Z</time>
      </trkpt>
      <trkpt lat="47.26585" lon="-1.67105">
        <ele>102</ele>
        <time>2021-07-16T07:46:38.000Z</time>
      </trkpt>
      <trkpt lat="47.26592" lon="-1.67098">
        <ele>101</ele>
        <time>2021-07-16T07:46:39.000Z</time>
      </trkpt>
      <trkpt lat="47.26601" lon="-1.67093">
        <ele>100</ele>
        <time>2021-07-16T07:46:40.000Z</time>
      </trkpt>
      <trkpt lat="47.26611" lon="-1.67089">
        <ele>99</ele>
        <time>2021-07-16T07:46:41.000Z</time>
      </trkpt>
      <trkpt lat="47.2662" lon="-1.67084">
        <ele>99</ele>
        <time>2021-07-16T07:46:42.000Z</time>
      </trkpt>
      <trkpt lat="47.26629" lon="-1.67078">
        <ele>98</ele>
        <time>2021-07-16T07:46:43.000Z</time>
      </trkpt>
      <trkpt lat="47.26637" lon="-1.67072">
        <ele>97</ele>
        <time>2021-07-16T07:46:44.000Z</time>
      </trkpt>
      <trkpt lat="47.26646" lon="-1.67066">
        <ele>96</ele>
        <time>2021-07-16T07:46:45.000Z</time>
      </trkpt>
      <trkpt lat="47.26655" lon="-1.6706">
        <ele>96</ele>
        <time>2021-07-16T07:46:46.000Z</time>
      </trkpt>
      <trkpt lat="47.26664" lon="-1.67054">
        <ele>95</ele>
        <time>2021-07-16T07:46:47.000Z</time>
      </trkpt>
      <trkpt lat="47.26674" lon="-1.67047">
        <ele>95</ele>
        <time>2021-07-16T07:46:48.000Z</time>
      </trkpt>
      <trkpt lat="47.26683" lon="-1.67042">
        <ele>95</ele>
        <time>2021-07-16T07:46:49.000Z</time>
      </trkpt>
      <trkpt lat="47.26693" lon="-1.67037">
        <ele>94</ele>
        <time>2021-07-16T07:46:50.000Z</time>
      </trkpt>
      <trkpt lat="47.26702" lon="-1.6703">
        <ele>94</ele>
        <time>2021-07-16T07:46:51.000Z</time>
      </trkpt>
      <trkpt lat="47.26711" lon="-1.67025">
        <ele>93</ele>
        <time>2021-07-16T07:46:52.000Z</time>
      </trkpt>
      <trkpt lat="47.2672" lon="-1.67019">
        <ele>92</ele>
        <time>2021-07-16T07:46:53.000Z</time>
      </trkpt>
      <trkpt lat="47.26729" lon="-1.67013">
        <ele>92</ele>
        <time>2021-07-16T07:46:54.000Z</time>
      </trkpt>
      <trkpt lat="47.26738" lon="-1.67009">
        <ele>91</ele>
        <time>2021-07-16T07:46:55.000Z</time>
      </trkpt>
      <trkpt lat="47.26748" lon="-1.67009">
        <ele>91</ele>
        <time>2021-07-16T07:46:56.000Z</time>
      </trkpt>
      <trkpt lat="47.26758" lon="-1.67011">
        <ele>91</ele>
        <time>2021-07-16T07:46:57.000Z</time>
      </trkpt>
      <trkpt lat="47.26769" lon="-1.67016">
        <ele>90</ele>
        <time>2021-07-16T07:46:58.000Z</time>
      </trkpt>
      <trkpt lat="47.26778" lon="-1.67022">
        <ele>90</ele>
        <time>2021-07-16T07:46:59.000Z</time>
      </trkpt>
      <trkpt lat="47.26795" lon="-1.67039">
        <ele>89</ele>
        <time>2021-07-16T07:47:01.000Z</time>
      </trkpt>
      <trkpt lat="47.26802" lon="-1.67049">
        <ele>88</ele>
        <time>2021-07-16T07:47:02.000Z</time>
      </trkpt>
      <trkpt lat="47.26816" lon="-1.67072">
        <ele>87</ele>
        <time>2021-07-16T07:47:04.000Z</time>
      </trkpt>
      <trkpt lat="47.26829" lon="-1.67094">
        <ele>85</ele>
        <time>2021-07-16T07:47:06.000Z</time>
      </trkpt>
      <trkpt lat="47.26846" lon="-1.6711">
        <ele>84</ele>
        <time>2021-07-16T07:47:08.000Z</time>
      </trkpt>
      <trkpt lat="47.26861" lon="-1.67128">
        <ele>83</ele>
        <time>2021-07-16T07:47:10.000Z</time>
      </trkpt>
      <trkpt lat="47.26869" lon="-1.67139">
        <ele>83</ele>
        <time>2021-07-16T07:47:11.000Z</time>
      </trkpt>
      <trkpt lat="47.26876" lon="-1.67148">
        <ele>82</ele>
        <time>2021-07-16T07:47:12.000Z</time>
      </trkpt>
      <trkpt lat="47.26899" lon="-1.6716">
        <ele>82</ele>
        <time>2021-07-16T07:47:15.000Z</time>
      </trkpt>
      <trkpt lat="47.26912" lon="-1.67159">
        <ele>82</ele>
        <time>2021-07-16T07:47:17.000Z</time>
      </trkpt>
      <trkpt lat="47.26924" lon="-1.67155">
        <ele>82</ele>
        <time>2021-07-16T07:47:19.000Z</time>
      </trkpt>
      <trkpt lat="47.26935" lon="-1.6715">
        <ele>83</ele>
        <time>2021-07-16T07:47:21.000Z</time>
      </trkpt>
      <trkpt lat="47.26946" lon="-1.67146">
        <ele>83</ele>
        <time>2021-07-16T07:47:23.000Z</time>
      </trkpt>
      <trkpt lat="47.26957" lon="-1.6714">
        <ele>85</ele>
        <time>2021-07-16T07:47:25.000Z</time>
      </trkpt>
      <trkpt lat="47.26967" lon="-1.67136">
        <ele>86</ele>
        <time>2021-07-16T07:47:27.000Z</time>
      </trkpt>
      <trkpt lat="47.26978" lon="-1.67131">
        <ele>87</ele>
        <time>2021-07-16T07:47:29.000Z</time>
      </trkpt>
      <trkpt lat="47.26987" lon="-1.67126">
        <ele>87</ele>
        <time>2021-07-16T07:47:31.000Z</time>
      </trkpt>
      <trkpt lat="47.26996" lon="-1.67123">
        <ele>88</ele>
        <time>2021-07-16T07:47:33.000Z</time>
      </trkpt>
      <trkpt lat="47.27005" lon="-1.6712">
        <ele>88</ele>
        <time>2021-07-16T07:47:35.000Z</time>
      </trkpt>
      <trkpt lat="47.27014" lon="-1.67117">
        <ele>88</ele>
        <time>2021-07-16T07:47:37.000Z</time>
      </trkpt>
      <trkpt lat="47.27024" lon="-1.67115">
        <ele>89</ele>
        <time>2021-07-16T07:47:39.000Z</time>
      </trkpt>
      <trkpt lat="47.27034" lon="-1.67112">
        <ele>89</ele>
        <time>2021-07-16T07:47:41.000Z</time>
      </trkpt>
      <trkpt lat="47.27043" lon="-1.67112">
        <ele>90</ele>
        <time>2021-07-16T07:47:43.000Z</time>
      </trkpt>
      <trkpt lat="47.27053" lon="-1.67112">
        <ele>91</ele>
        <time>2021-07-16T07:47:45.000Z</time>
      </trkpt>
      <trkpt lat="47.27063" lon="-1.67113">
        <ele>91</ele>
        <time>2021-07-16T07:47:47.000Z</time>
      </trkpt>
      <trkpt lat="47.27073" lon="-1.67115">
        <ele>91</ele>
        <time>2021-07-16T07:47:49.000Z</time>
      </trkpt>
      <trkpt lat="47.27086" lon="-1.67117">
        <ele>92</ele>
        <time>2021-07-16T07:47:52.000Z</time>
      </trkpt>
      <trkpt lat="47.27095" lon="-1.67119">
        <ele>93</ele>
        <time>2021-07-16T07:47:54.000Z</time>
      </trkpt>
      <trkpt lat="47.27106" lon="-1.67122">
        <ele>93</ele>
        <time>2021-07-16T07:47:56.000Z</time>
      </trkpt>
      <trkpt lat="47.27115" lon="-1.67127">
        <ele>94</ele>
        <time>2021-07-16T07:47:58.000Z</time>
      </trkpt>
      <trkpt lat="47.27124" lon="-1.67131">
        <ele>94</ele>
        <time>2021-07-16T07:48:00.000Z</time>
      </trkpt>
      <trkpt lat="47.27134" lon="-1.67135">
        <ele>95</ele>
        <time>2021-07-16T07:48:02.000Z</time>
      </trkpt>
      <trkpt lat="47.27143" lon="-1.67137">
        <ele>95</ele>
        <time>2021-07-16T07:48:04.000Z</time>
      </trkpt>
      <trkpt lat="47.27154" lon="-1.67142">
        <ele>95</ele>
        <time>2021-07-16T07:48:06.000Z</time>
      </trkpt>
      <trkpt lat="47.27164" lon="-1.67149">
        <ele>93</ele>
        <time>2021-07-16T07:48:08.000Z</time>
      </trkpt>
      <trkpt lat="47.27174" lon="-1.67153">
        <ele>93</ele>
        <time>2021-07-16T07:48:10.000Z</time>
      </trkpt>
      <trkpt lat="47.27186" lon="-1.67157">
        <ele>94</ele>
        <time>2021-07-16T07:48:12.000Z</time>
      </trkpt>
      <trkpt lat="47.27196" lon="-1.67161">
        <ele>95</ele>
        <time>2021-07-16T07:48:14.000Z</time>
      </trkpt>
      <trkpt lat="47.27207" lon="-1.67166">
        <ele>96</ele>
        <time>2021-07-16T07:48:16.000Z</time>
      </trkpt>
      <trkpt lat="47.27217" lon="-1.6717">
        <ele>97</ele>
        <time>2021-07-16T07:48:18.000Z</time>
      </trkpt>
      <trkpt lat="47.27229" lon="-1.67175">
        <ele>98</ele>
        <time>2021-07-16T07:48:20.000Z</time>
      </trkpt>
      <trkpt lat="47.2724" lon="-1.67179">
        <ele>98</ele>
        <time>2021-07-16T07:48:22.000Z</time>
      </trkpt>
      <trkpt lat="47.27251" lon="-1.67183">
        <ele>99</ele>
        <time>2021-07-16T07:48:24.000Z</time>
      </trkpt>
      <trkpt lat="47.27261" lon="-1.67188">
        <ele>99</ele>
        <time>2021-07-16T07:48:26.000Z</time>
      </trkpt>
      <trkpt lat="47.27272" lon="-1.67193">
        <ele>100</ele>
        <time>2021-07-16T07:48:28.000Z</time>
      </trkpt>
      <trkpt lat="47.27284" lon="-1.67197">
        <ele>100</ele>
        <time>2021-07-16T07:48:30.000Z</time>
      </trkpt>
      <trkpt lat="47.27295" lon="-1.67202">
        <ele>101</ele>
        <time>2021-07-16T07:48:32.000Z</time>
      </trkpt>
      <trkpt lat="47.27306" lon="-1.67205">
        <ele>101</ele>
        <time>2021-07-16T07:48:34.000Z</time>
      </trkpt>
      <trkpt lat="47.27317" lon="-1.67208">
        <ele>102</ele>
        <time>2021-07-16T07:48:36.000Z</time>
      </trkpt>
      <trkpt lat="47.27327" lon="-1.67209">
        <ele>103</ele>
        <time>2021-07-16T07:48:38.000Z</time>
      </trkpt>
      <trkpt lat="47.27338" lon="-1.67209">
        <ele>103</ele>
        <time>2021-07-16T07:48:40.000Z</time>
      </trkpt>
      <trkpt lat="47.27349" lon="-1.67208">
        <ele>103</ele>
        <time>2021-07-16T07:48:42.000Z</time>
      </trkpt>
      <trkpt lat="47.27359" lon="-1.67205">
        <ele>103</ele>
        <time>2021-07-16T07:48:44.000Z</time>
      </trkpt>
      <trkpt lat="47.27369" lon="-1.672">
        <ele>103</ele>
        <time>2021-07-16T07:48:46.000Z</time>
      </trkpt>
      <trkpt lat="47.27379" lon="-1.67194">
        <ele>103</ele>
        <time>2021-07-16T07:48:48.000Z</time>
      </trkpt>
      <trkpt lat="47.27389" lon="-1.67187">
        <ele>103</ele>
        <time>2021-07-16T07:48:50.000Z</time>
      </trkpt>
      <trkpt lat="47.27399" lon="-1.67178">
        <ele>103</ele>
        <time>2021-07-16T07:48:52.000Z</time>
      </trkpt>
      <trkpt lat="47.27409" lon="-1.67169">
        <ele>103</ele>
        <time>2021-07-16T07:48:54.000Z</time>
      </trkpt>
      <trkpt lat="47.27417" lon="-1.67161">
        <ele>104</ele>
        <time>2021-07-16T07:48:56.000Z</time>
      </trkpt>
      <trkpt lat="47.27426" lon="-1.67152">
        <ele>104</ele>
        <time>2021-07-16T07:48:58.000Z</time>
      </trkpt>
      <trkpt lat="47.27435" lon="-1.67144">
        <ele>105</ele>
        <time>2021-07-16T07:49:00.000Z</time>
      </trkpt>
      <trkpt lat="47.27445" lon="-1.67135">
        <ele>105</ele>
        <time>2021-07-16T07:49:02.000Z</time>
      </trkpt>
      <trkpt lat="47.27454" lon="-1.67127">
        <ele>106</ele>
        <time>2021-07-16T07:49:04.000Z</time>
      </trkpt>
      <trkpt lat="47.27463" lon="-1.67118">
        <ele>106</ele>
        <time>2021-07-16T07:49:06.000Z</time>
      </trkpt>
      <trkpt lat="47.27472" lon="-1.6711">
        <ele>106</ele>
        <time>2021-07-16T07:49:08.000Z</time>
      </trkpt>
      <trkpt lat="47.27481" lon="-1.671">
        <ele>106</ele>
        <time>2021-07-16T07:49:10.000Z</time>
      </trkpt>
      <trkpt lat="47.27492" lon="-1.67092">
        <ele>106</ele>
        <time>2021-07-16T07:49:12.000Z</time>
      </trkpt>
      <trkpt lat="47.27501" lon="-1.67084">
        <ele>107</ele>
        <time>2021-07-16T07:49:14.000Z</time>
      </trkpt>
      <trkpt lat="47.27511" lon="-1.67077">
        <ele>108</ele>
        <time>2021-07-16T07:49:16.000Z</time>
      </trkpt>
      <trkpt lat="47.27521" lon="-1.67074">
        <ele>109</ele>
        <time>2021-07-16T07:49:18.000Z</time>
      </trkpt>
      <trkpt lat="47.27528" lon="-1.67086">
        <ele>110</ele>
        <time>2021-07-16T07:49:20.000Z</time>
      </trkpt>
      <trkpt lat="47.27531" lon="-1.67103">
        <ele>110</ele>
        <time>2021-07-16T07:49:22.000Z</time>
      </trkpt>
      <trkpt lat="47.27534" lon="-1.6712">
        <ele>110</ele>
        <time>2021-07-16T07:49:24.000Z</time>
      </trkpt>
      <trkpt lat="47.27538" lon="-1.67135">
        <ele>110</ele>
        <time>2021-07-16T07:49:26.000Z</time>
      </trkpt>
      <trkpt lat="47.27541" lon="-1.67152">
        <ele>110</ele>
        <time>2021-07-16T07:49:28.000Z</time>
      </trkpt>
      <trkpt lat="47.27545" lon="-1.67168">
        <ele>110</ele>
        <time>2021-07-16T07:49:30.000Z</time>
      </trkpt>
      <trkpt lat="47.27547" lon="-1.67184">
        <ele>110</ele>
        <time>2021-07-16T07:49:32.000Z</time>
      </trkpt>
      <trkpt lat="47.27551" lon="-1.672">
        <ele>111</ele>
        <time>2021-07-16T07:49:34.000Z</time>
      </trkpt>
      <trkpt lat="47.27554" lon="-1.67216">
        <ele>111</ele>
        <time>2021-07-16T07:49:36.000Z</time>
      </trkpt>
      <trkpt lat="47.27557" lon="-1.67232">
        <ele>111</ele>
        <time>2021-07-16T07:49:38.000Z</time>
      </trkpt>
      <trkpt lat="47.27561" lon="-1.67247">
        <ele>112</ele>
        <time>2021-07-16T07:49:40.000Z</time>
      </trkpt>
      <trkpt lat="47.27564" lon="-1.67263">
        <ele>112</ele>
        <time>2021-07-16T07:49:42.000Z</time>
      </trkpt>
      <trkpt lat="47.27569" lon="-1.67278">
        <ele>112</ele>
        <time>2021-07-16T07:49:44.000Z</time>
      </trkpt>
      <trkpt lat="47.27574" lon="-1.67293">
        <ele>111</ele>
        <time>2021-07-16T07:49:46.000Z</time>
      </trkpt>
      <trkpt lat="47.27581" lon="-1.67306">
        <ele>111</ele>
        <time>2021-07-16T07:49:48.000Z</time>
      </trkpt>
      <trkpt lat="47.27589" lon="-1.67317">
        <ele>111</ele>
        <time>2021-07-16T07:49:50.000Z</time>
      </trkpt>
      <trkpt lat="47.27597" lon="-1.67327">
        <ele>111</ele>
        <time>2021-07-16T07:49:52.000Z</time>
      </trkpt>
      <trkpt lat="47.27605" lon="-1.67338">
        <ele>111</ele>
        <time>2021-07-16T07:49:54.000Z</time>
      </trkpt>
      <trkpt lat="47.27613" lon="-1.6735">
        <ele>111</ele>
        <time>2021-07-16T07:49:56.000Z</time>
      </trkpt>
      <trkpt lat="47.27622" lon="-1.67362">
        <ele>111</ele>
        <time>2021-07-16T07:49:58.000Z</time>
      </trkpt>
      <trkpt lat="47.27631" lon="-1.67374">
        <ele>110</ele>
        <time>2021-07-16T07:50:00.000Z</time>
      </trkpt>
      <trkpt lat="47.27642" lon="-1.67384">
        <ele>110</ele>
        <time>2021-07-16T07:50:02.000Z</time>
      </trkpt>
      <trkpt lat="47.27654" lon="-1.67392">
        <ele>109</ele>
        <time>2021-07-16T07:50:04.000Z</time>
      </trkpt>
      <trkpt lat="47.27666" lon="-1.67398">
        <ele>109</ele>
        <time>2021-07-16T07:50:06.000Z</time>
      </trkpt>
      <trkpt lat="47.27679" lon="-1.67403">
        <ele>109</ele>
        <time>2021-07-16T07:50:08.000Z</time>
      </trkpt>
      <trkpt lat="47.27692" lon="-1.67407">
        <ele>109</ele>
        <time>2021-07-16T07:50:10.000Z</time>
      </trkpt>
      <trkpt lat="47.27706" lon="-1.67411">
        <ele>109</ele>
        <time>2021-07-16T07:50:12.000Z</time>
      </trkpt>
      <trkpt lat="47.27719" lon="-1.67416">
        <ele>108</ele>
        <time>2021-07-16T07:50:14.000Z</time>
      </trkpt>
      <trkpt lat="47.27733" lon="-1.6742">
        <ele>108</ele>
        <time>2021-07-16T07:50:16.000Z</time>
      </trkpt>
      <trkpt lat="47.27747" lon="-1.67422">
        <ele>107</ele>
        <time>2021-07-16T07:50:18.000Z</time>
      </trkpt>
      <trkpt lat="47.27762" lon="-1.67425">
        <ele>107</ele>
        <time>2021-07-16T07:50:20.000Z</time>
      </trkpt>
      <trkpt lat="47.27777" lon="-1.67427">
        <ele>106</ele>
        <time>2021-07-16T07:50:22.000Z</time>
      </trkpt>
      <trkpt lat="47.27792" lon="-1.67429">
        <ele>105</ele>
        <time>2021-07-16T07:50:24.000Z</time>
      </trkpt>
      <trkpt lat="47.27807" lon="-1.67428">
        <ele>106</ele>
        <time>2021-07-16T07:50:26.000Z</time>
      </trkpt>
      <trkpt lat="47.27823" lon="-1.67428">
        <ele>106</ele>
        <time>2021-07-16T07:50:28.000Z</time>
      </trkpt>
      <trkpt lat="47.27838" lon="-1.67427">
        <ele>106</ele>
        <time>2021-07-16T07:50:30.000Z</time>
      </trkpt>
      <trkpt lat="47.27854" lon="-1.67427">
        <ele>106</ele>
        <time>2021-07-16T07:50:32.000Z</time>
      </trkpt>
      <trkpt lat="47.2787" lon="-1.67426">
        <ele>106</ele>
        <time>2021-07-16T07:50:34.000Z</time>
      </trkpt>
      <trkpt lat="47.27886" lon="-1.67427">
        <ele>106</ele>
        <time>2021-07-16T07:50:36.000Z</time>
      </trkpt>
      <trkpt lat="47.27902" lon="-1.67428">
        <ele>106</ele>
        <time>2021-07-16T07:50:38.000Z</time>
      </trkpt>
      <trkpt lat="47.27918" lon="-1.67431">
        <ele>106</ele>
        <time>2021-07-16T07:50:40.000Z</time>
      </trkpt>
      <trkpt lat="47.27933" lon="-1.67435">
        <ele>106</ele>
        <time>2021-07-16T07:50:42.000Z</time>
      </trkpt>
      <trkpt lat="47.27948" lon="-1.67441">
        <ele>105</ele>
        <time>2021-07-16T07:50:44.000Z</time>
      </trkpt>
      <trkpt lat="47.27963" lon="-1.67446">
        <ele>106</ele>
        <time>2021-07-16T07:50:46.000Z</time>
      </trkpt>
      <trkpt lat="47.27978" lon="-1.67452">
        <ele>106</ele>
        <time>2021-07-16T07:50:48.000Z</time>
      </trkpt>
      <trkpt lat="47.27992" lon="-1.67459">
        <ele>106</ele>
        <time>2021-07-16T07:50:50.000Z</time>
      </trkpt>
      <trkpt lat="47.28007" lon="-1.67467">
        <ele>105</ele>
        <time>2021-07-16T07:50:52.000Z</time>
      </trkpt>
      <trkpt lat="47.2802" lon="-1.67475">
        <ele>105</ele>
        <time>2021-07-16T07:50:54.000Z</time>
      </trkpt>
      <trkpt lat="47.28033" lon="-1.67483">
        <ele>105</ele>
        <time>2021-07-16T07:50:56.000Z</time>
      </trkpt>
      <trkpt lat="47.28044" lon="-1.6749">
        <ele>105</ele>
        <time>2021-07-16T07:50:58.000Z</time>
      </trkpt>
      <trkpt lat="47.28056" lon="-1.67496">
        <ele>106</ele>
        <time>2021-07-16T07:51:00.000Z</time>
      </trkpt>
      <trkpt lat="47.28067" lon="-1.67503">
        <ele>106</ele>
        <time>2021-07-16T07:51:02.000Z</time>
      </trkpt>
      <trkpt lat="47.28079" lon="-1.67511">
        <ele>106</ele>
        <time>2021-07-16T07:51:04.000Z</time>
      </trkpt>
      <trkpt lat="47.28091" lon="-1.67519">
        <ele>106</ele>
        <time>2021-07-16T07:51:06.000Z</time>
      </trkpt>
      <trkpt lat="47.28103" lon="-1.67525">
        <ele>106</ele>
        <time>2021-07-16T07:51:08.000Z</time>
      </trkpt>
      <trkpt lat="47.28115" lon="-1.67533">
        <ele>106</ele>
        <time>2021-07-16T07:51:10.000Z</time>
      </trkpt>
      <trkpt lat="47.28128" lon="-1.6754">
        <ele>106</ele>
        <time>2021-07-16T07:51:12.000Z</time>
      </trkpt>
      <trkpt lat="47.2814" lon="-1.67548">
        <ele>106</ele>
        <time>2021-07-16T07:51:14.000Z</time>
      </trkpt>
      <trkpt lat="47.28152" lon="-1.67555">
        <ele>107</ele>
        <time>2021-07-16T07:51:16.000Z</time>
      </trkpt>
      <trkpt lat="47.28164" lon="-1.67561">
        <ele>107</ele>
        <time>2021-07-16T07:51:18.000Z</time>
      </trkpt>
      <trkpt lat="47.28176" lon="-1.67568">
        <ele>107</ele>
        <time>2021-07-16T07:51:20.000Z</time>
      </trkpt>
      <trkpt lat="47.28189" lon="-1.67575">
        <ele>107</ele>
        <time>2021-07-16T07:51:22.000Z</time>
      </trkpt>
      <trkpt lat="47.28201" lon="-1.67582">
        <ele>107</ele>
        <time>2021-07-16T07:51:24.000Z</time>
      </trkpt>
      <trkpt lat="47.28211" lon="-1.67589">
        <ele>107</ele>
        <time>2021-07-16T07:51:26.000Z</time>
      </trkpt>
      <trkpt lat="47.28222" lon="-1.67596">
        <ele>108</ele>
        <time>2021-07-16T07:51:28.000Z</time>
      </trkpt>
      <trkpt lat="47.28233" lon="-1.67604">
        <ele>107</ele>
        <time>2021-07-16T07:51:30.000Z</time>
      </trkpt>
      <trkpt lat="47.28245" lon="-1.6761">
        <ele>107</ele>
        <time>2021-07-16T07:51:32.000Z</time>
      </trkpt>
      <trkpt lat="47.28258" lon="-1.67613">
        <ele>107</ele>
        <time>2021-07-16T07:51:34.000Z</time>
      </trkpt>
      <trkpt lat="47.28271" lon="-1.67615">
        <ele>107</ele>
        <time>2021-07-16T07:51:36.000Z</time>
      </trkpt>
      <trkpt lat="47.28284" lon="-1.67616">
        <ele>107</ele>
        <time>2021-07-16T07:51:38.000Z</time>
      </trkpt>
      <trkpt lat="47.28298" lon="-1.67614">
        <ele>107</ele>
        <time>2021-07-16T07:51:40.000Z</time>
      </trkpt>
      <trkpt lat="47.28312" lon="-1.67611">
        <ele>106</ele>
        <time>2021-07-16T07:51:42.000Z</time>
      </trkpt>
      <trkpt lat="47.28326" lon="-1.67609">
        <ele>106</ele>
        <time>2021-07-16T07:51:44.000Z</time>
      </trkpt>
      <trkpt lat="47.2834" lon="-1.67607">
        <ele>106</ele>
        <time>2021-07-16T07:51:46.000Z</time>
      </trkpt>
      <trkpt lat="47.28354" lon="-1.67604">
        <ele>106</ele>
        <time>2021-07-16T07:51:48.000Z</time>
      </trkpt>
      <trkpt lat="47.28368" lon="-1.67602">
        <ele>106</ele>
        <time>2021-07-16T07:51:50.000Z</time>
      </trkpt>
      <trkpt lat="47.28382" lon="-1.67599">
        <ele>106</ele>
        <time>2021-07-16T07:51:52.000Z</time>
      </trkpt>
      <trkpt lat="47.28395" lon="-1.67597">
        <ele>107</ele>
        <time>2021-07-16T07:51:54.000Z</time>
      </trkpt>
      <trkpt lat="47.28409" lon="-1.67595">
        <ele>107</ele>
        <time>2021-07-16T07:51:56.000Z</time>
      </trkpt>
      <trkpt lat="47.28423" lon="-1.67594">
        <ele>107</ele>
        <time>2021-07-16T07:51:58.000Z</time>
      </trkpt>
      <trkpt lat="47.28436" lon="-1.67594">
        <ele>107</ele>
        <time>2021-07-16T07:52:00.000Z</time>
      </trkpt>
      <trkpt lat="47.2845" lon="-1.67596">
        <ele>107</ele>
        <time>2021-07-16T07:52:02.000Z</time>
      </trkpt>
      <trkpt lat="47.28463" lon="-1.67601">
        <ele>107</ele>
        <time>2021-07-16T07:52:04.000Z</time>
      </trkpt>
      <trkpt lat="47.28477" lon="-1.67606">
        <ele>107</ele>
        <time>2021-07-16T07:52:06.000Z</time>
      </trkpt>
      <trkpt lat="47.2849" lon="-1.67612">
        <ele>107</ele>
        <time>2021-07-16T07:52:08.000Z</time>
      </trkpt>
      <trkpt lat="47.28504" lon="-1.67616">
        <ele>106</ele>
        <time>2021-07-16T07:52:10.000Z</time>
      </trkpt>
      <trkpt lat="47.28517" lon="-1.67619">
        <ele>105</ele>
        <time>2021-07-16T07:52:12.000Z</time>
      </trkpt>
      <trkpt lat="47.28529" lon="-1.67618">
        <ele>105</ele>
        <time>2021-07-16T07:52:14.000Z</time>
      </trkpt>
      <trkpt lat="47.28543" lon="-1.67613">
        <ele>105</ele>
        <time>2021-07-16T07:52:16.000Z</time>
      </trkpt>
      <trkpt lat="47.28556" lon="-1.67608">
        <ele>104</ele>
        <time>2021-07-16T07:52:18.000Z</time>
      </trkpt>
      <trkpt lat="47.2857" lon="-1.67602">
        <ele>104</ele>
        <time>2021-07-16T07:52:20.000Z</time>
      </trkpt>
      <trkpt lat="47.28583" lon="-1.67595">
        <ele>104</ele>
        <time>2021-07-16T07:52:22.000Z</time>
      </trkpt>
      <trkpt lat="47.28596" lon="-1.67589">
        <ele>104</ele>
        <time>2021-07-16T07:52:24.000Z</time>
      </trkpt>
      <trkpt lat="47.28609" lon="-1.67582">
        <ele>104</ele>
        <time>2021-07-16T07:52:26.000Z</time>
      </trkpt>
      <trkpt lat="47.28622" lon="-1.67576">
        <ele>104</ele>
        <time>2021-07-16T07:52:28.000Z</time>
      </trkpt>
      <trkpt lat="47.28635" lon="-1.67573">
        <ele>104</ele>
        <time>2021-07-16T07:52:30.000Z</time>
      </trkpt>
      <trkpt lat="47.28649" lon="-1.67574">
        <ele>104</ele>
        <time>2021-07-16T07:52:32.000Z</time>
      </trkpt>
      <trkpt lat="47.28664" lon="-1.67579">
        <ele>104</ele>
        <time>2021-07-16T07:52:34.000Z</time>
      </trkpt>
      <trkpt lat="47.28678" lon="-1.67588">
        <ele>103</ele>
        <time>2021-07-16T07:52:36.000Z</time>
      </trkpt>
      <trkpt lat="47.28691" lon="-1.67596">
        <ele>103</ele>
        <time>2021-07-16T07:52:38.000Z</time>
      </trkpt>
      <trkpt lat="47.28704" lon="-1.67604">
        <ele>103</ele>
        <time>2021-07-16T07:52:40.000Z</time>
      </trkpt>
      <trkpt lat="47.28717" lon="-1.67612">
        <ele>103</ele>
        <time>2021-07-16T07:52:42.000Z</time>
      </trkpt>
      <trkpt lat="47.28728" lon="-1.6762">
        <ele>103</ele>
        <time>2021-07-16T07:52:44.000Z</time>
      </trkpt>
      <trkpt lat="47.28738" lon="-1.67627">
        <ele>104</ele>
        <time>2021-07-16T07:52:46.000Z</time>
      </trkpt>
      <trkpt lat="47.28747" lon="-1.67628">
        <ele>104</ele>
        <time>2021-07-16T07:52:48.000Z</time>
      </trkpt>
      <trkpt lat="47.28754" lon="-1.67618">
        <ele>104</ele>
        <time>2021-07-16T07:52:50.000Z</time>
      </trkpt>
      <trkpt lat="47.28758" lon="-1.67602">
        <ele>104</ele>
        <time>2021-07-16T07:52:52.000Z</time>
      </trkpt>
      <trkpt lat="47.28762" lon="-1.67585">
        <ele>104</ele>
        <time>2021-07-16T07:52:54.000Z</time>
      </trkpt>
      <trkpt lat="47.28766" lon="-1.67568">
        <ele>104</ele>
        <time>2021-07-16T07:52:56.000Z</time>
      </trkpt>
      <trkpt lat="47.28771" lon="-1.67551">
        <ele>103</ele>
        <time>2021-07-16T07:52:58.000Z</time>
      </trkpt>
      <trkpt lat="47.28775" lon="-1.67533">
        <ele>104</ele>
        <time>2021-07-16T07:53:00.000Z</time>
      </trkpt>
      <trkpt lat="47.28779" lon="-1.67515">
        <ele>104</ele>
        <time>2021-07-16T07:53:02.000Z</time>
      </trkpt>
      <trkpt lat="47.28783" lon="-1.67498">
        <ele>104</ele>
        <time>2021-07-16T07:53:04.000Z</time>
      </trkpt>
      <trkpt lat="47.28788" lon="-1.67481">
        <ele>104</ele>
        <time>2021-07-16T07:53:06.000Z</time>
      </trkpt>
      <trkpt lat="47.28792" lon="-1.67465">
        <ele>104</ele>
        <time>2021-07-16T07:53:08.000Z</time>
      </trkpt>
      <trkpt lat="47.28797" lon="-1.67449">
        <ele>104</ele>
        <time>2021-07-16T07:53:10.000Z</time>
      </trkpt>
      <trkpt lat="47.28802" lon="-1.67433">
        <ele>104</ele>
        <time>2021-07-16T07:53:12.000Z</time>
      </trkpt>
      <trkpt lat="47.28807" lon="-1.67418">
        <ele>104</ele>
        <time>2021-07-16T07:53:14.000Z</time>
      </trkpt>
      <trkpt lat="47.28813" lon="-1.67403">
        <ele>105</ele>
        <time>2021-07-16T07:53:16.000Z</time>
      </trkpt>
      <trkpt lat="47.28818" lon="-1.67387">
        <ele>105</ele>
        <time>2021-07-16T07:53:18.000Z</time>
      </trkpt>
      <trkpt lat="47.28824" lon="-1.67372">
        <ele>106</ele>
        <time>2021-07-16T07:53:20.000Z</time>
      </trkpt>
      <trkpt lat="47.28831" lon="-1.67359">
        <ele>106</ele>
        <time>2021-07-16T07:53:22.000Z</time>
      </trkpt>
      <trkpt lat="47.2884" lon="-1.67347">
        <ele>106</ele>
        <time>2021-07-16T07:53:24.000Z</time>
      </trkpt>
      <trkpt lat="47.2885" lon="-1.67339">
        <ele>106</ele>
        <time>2021-07-16T07:53:26.000Z</time>
      </trkpt>
      <trkpt lat="47.28861" lon="-1.67335">
        <ele>106</ele>
        <time>2021-07-16T07:53:28.000Z</time>
      </trkpt>
      <trkpt lat="47.28873" lon="-1.67333">
        <ele>107</ele>
        <time>2021-07-16T07:53:30.000Z</time>
      </trkpt>
      <trkpt lat="47.28884" lon="-1.67332">
        <ele>107</ele>
        <time>2021-07-16T07:53:32.000Z</time>
      </trkpt>
      <trkpt lat="47.28896" lon="-1.6733">
        <ele>107</ele>
        <time>2021-07-16T07:53:34.000Z</time>
      </trkpt>
      <trkpt lat="47.28907" lon="-1.6733">
        <ele>108</ele>
        <time>2021-07-16T07:53:36.000Z</time>
      </trkpt>
      <trkpt lat="47.28918" lon="-1.67332">
        <ele>107</ele>
        <time>2021-07-16T07:53:38.000Z</time>
      </trkpt>
      <trkpt lat="47.2893" lon="-1.67335">
        <ele>108</ele>
        <time>2021-07-16T07:53:40.000Z</time>
      </trkpt>
      <trkpt lat="47.28941" lon="-1.6734">
        <ele>108</ele>
        <time>2021-07-16T07:53:42.000Z</time>
      </trkpt>
      <trkpt lat="47.28952" lon="-1.67345">
        <ele>108</ele>
        <time>2021-07-16T07:53:44.000Z</time>
      </trkpt>
      <trkpt lat="47.28963" lon="-1.6735">
        <ele>107</ele>
        <time>2021-07-16T07:53:46.000Z</time>
      </trkpt>
      <trkpt lat="47.28976" lon="-1.67353">
        <ele>107</ele>
        <time>2021-07-16T07:53:48.000Z</time>
      </trkpt>
      <trkpt lat="47.28988" lon="-1.67355">
        <ele>107</ele>
        <time>2021-07-16T07:53:50.000Z</time>
      </trkpt>
      <trkpt lat="47.29" lon="-1.67353">
        <ele>108</ele>
        <time>2021-07-16T07:53:52.000Z</time>
      </trkpt>
      <trkpt lat="47.29012" lon="-1.67349">
        <ele>108</ele>
        <time>2021-07-16T07:53:54.000Z</time>
      </trkpt>
      <trkpt lat="47.29024" lon="-1.67346">
        <ele>109</ele>
        <time>2021-07-16T07:53:56.000Z</time>
      </trkpt>
      <trkpt lat="47.29036" lon="-1.67341">
        <ele>109</ele>
        <time>2021-07-16T07:53:58.000Z</time>
      </trkpt>
      <trkpt lat="47.29048" lon="-1.67337">
        <ele>110</ele>
        <time>2021-07-16T07:54:00.000Z</time>
      </trkpt>
      <trkpt lat="47.29059" lon="-1.67333">
        <ele>110</ele>
        <time>2021-07-16T07:54:02.000Z</time>
      </trkpt>
      <trkpt lat="47.29071" lon="-1.67329">
        <ele>111</ele>
        <time>2021-07-16T07:54:04.000Z</time>
      </trkpt>
      <trkpt lat="47.29083" lon="-1.67325">
        <ele>111</ele>
        <time>2021-07-16T07:54:06.000Z</time>
      </trkpt>
      <trkpt lat="47.29095" lon="-1.67322">
        <ele>111</ele>
        <time>2021-07-16T07:54:08.000Z</time>
      </trkpt>
      <trkpt lat="47.29106" lon="-1.67318">
        <ele>111</ele>
        <time>2021-07-16T07:54:10.000Z</time>
      </trkpt>
      <trkpt lat="47.29116" lon="-1.67314">
        <ele>111</ele>
        <time>2021-07-16T07:54:12.000Z</time>
      </trkpt>
      <trkpt lat="47.29127" lon="-1.67312">
        <ele>111</ele>
        <time>2021-07-16T07:54:14.000Z</time>
      </trkpt>
      <trkpt lat="47.29138" lon="-1.67312">
        <ele>111</ele>
        <time>2021-07-16T07:54:16.000Z</time>
      </trkpt>
      <trkpt lat="47.29148" lon="-1.67313">
        <ele>111</ele>
        <time>2021-07-16T07:54:18.000Z</time>
      </trkpt>
      <trkpt lat="47.29158" lon="-1.67315">
        <ele>111</ele>
        <time>2021-07-16T07:54:20.000Z</time>
      </trkpt>
      <trkpt lat="47.29169" lon="-1.67317">
        <ele>111</ele>
        <time>2021-07-16T07:54:22.000Z</time>
      </trkpt>
      <trkpt lat="47.29179" lon="-1.6732">
        <ele>111</ele>
        <time>2021-07-16T07:54:24.000Z</time>
      </trkpt>
      <trkpt lat="47.29189" lon="-1.67321">
        <ele>111</ele>
        <time>2021-07-16T07:54:26.000Z</time>
      </trkpt>
      <trkpt lat="47.292" lon="-1.67322">
        <ele>111</ele>
        <time>2021-07-16T07:54:28.000Z</time>
      </trkpt>
      <trkpt lat="47.29211" lon="-1.67323">
        <ele>112</ele>
        <time>2021-07-16T07:54:30.000Z</time>
      </trkpt>
      <trkpt lat="47.29223" lon="-1.67323">
        <ele>112</ele>
        <time>2021-07-16T07:54:32.000Z</time>
      </trkpt>
      <trkpt lat="47.29236" lon="-1.67323">
        <ele>112</ele>
        <time>2021-07-16T07:54:34.000Z</time>
      </trkpt>
      <trkpt lat="47.29249" lon="-1.67322">
        <ele>112</ele>
        <time>2021-07-16T07:54:36.000Z</time>
      </trkpt>
      <trkpt lat="47.29261" lon="-1.67319">
        <ele>113</ele>
        <time>2021-07-16T07:54:38.000Z</time>
      </trkpt>
      <trkpt lat="47.29272" lon="-1.67313">
        <ele>113</ele>
        <time>2021-07-16T07:54:40.000Z</time>
      </trkpt>
      <trkpt lat="47.29281" lon="-1.67302">
        <ele>113</ele>
        <time>2021-07-16T07:54:42.000Z</time>
      </trkpt>
      <trkpt lat="47.2929" lon="-1.67291">
        <ele>114</ele>
        <time>2021-07-16T07:54:44.000Z</time>
      </trkpt>
      <trkpt lat="47.29297" lon="-1.67277">
        <ele>115</ele>
        <time>2021-07-16T07:54:46.000Z</time>
      </trkpt>
      <trkpt lat="47.29304" lon="-1.67263">
        <ele>115</ele>
        <time>2021-07-16T07:54:48.000Z</time>
      </trkpt>
      <trkpt lat="47.29311" lon="-1.67249">
        <ele>115</ele>
        <time>2021-07-16T07:54:50.000Z</time>
      </trkpt>
      <trkpt lat="47.29318" lon="-1.67234">
        <ele>114</ele>
        <time>2021-07-16T07:54:52.000Z</time>
      </trkpt>
      <trkpt lat="47.29326" lon="-1.67219">
        <ele>114</ele>
        <time>2021-07-16T07:54:54.000Z</time>
      </trkpt>
      <trkpt lat="47.29333" lon="-1.67204">
        <ele>115</ele>
        <time>2021-07-16T07:54:56.000Z</time>
      </trkpt>
      <trkpt lat="47.29341" lon="-1.67189">
        <ele>115</ele>
        <time>2021-07-16T07:54:58.000Z</time>
      </trkpt>
      <trkpt lat="47.29348" lon="-1.67174">
        <ele>115</ele>
        <time>2021-07-16T07:55:00.000Z</time>
      </trkpt>
      <trkpt lat="47.29356" lon="-1.6716">
        <ele>116</ele>
        <time>2021-07-16T07:55:02.000Z</time>
      </trkpt>
      <trkpt lat="47.29364" lon="-1.67146">
        <ele>116</ele>
        <time>2021-07-16T07:55:04.000Z</time>
      </trkpt>
      <trkpt lat="47.2937" lon="-1.67131">
        <ele>116</ele>
        <time>2021-07-16T07:55:06.000Z</time>
      </trkpt>
      <trkpt lat="47.29377" lon="-1.67117">
        <ele>116</ele>
        <time>2021-07-16T07:55:08.000Z</time>
      </trkpt>
      <trkpt lat="47.29384" lon="-1.67103">
        <ele>116</ele>
        <time>2021-07-16T07:55:10.000Z</time>
      </trkpt>
      <trkpt lat="47.29392" lon="-1.67087">
        <ele>116</ele>
        <time>2021-07-16T07:55:12.000Z</time>
      </trkpt>
      <trkpt lat="47.29399" lon="-1.67072">
        <ele>116</ele>
        <time>2021-07-16T07:55:14.000Z</time>
      </trkpt>
      <trkpt lat="47.29407" lon="-1.67057">
        <ele>116</ele>
        <time>2021-07-16T07:55:16.000Z</time>
      </trkpt>
      <trkpt lat="47.29414" lon="-1.67042">
        <ele>116</ele>
        <time>2021-07-16T07:55:18.000Z</time>
      </trkpt>
      <trkpt lat="47.29421" lon="-1.67028">
        <ele>116</ele>
        <time>2021-07-16T07:55:20.000Z</time>
      </trkpt>
      <trkpt lat="47.29429" lon="-1.67014">
        <ele>116</ele>
        <time>2021-07-16T07:55:22.000Z</time>
      </trkpt>
      <trkpt lat="47.29438" lon="-1.67">
        <ele>116</ele>
        <time>2021-07-16T07:55:24.000Z</time>
      </trkpt>
      <trkpt lat="47.29447" lon="-1.66988">
        <ele>116</ele>
        <time>2021-07-16T07:55:26.000Z</time>
      </trkpt>
      <trkpt lat="47.29457" lon="-1.66978">
        <ele>116</ele>
        <time>2021-07-16T07:55:28.000Z</time>
      </trkpt>
      <trkpt lat="47.29469" lon="-1.6697">
        <ele>116</ele>
        <time>2021-07-16T07:55:30.000Z</time>
      </trkpt>
      <trkpt lat="47.2948" lon="-1.66961">
        <ele>116</ele>
        <time>2021-07-16T07:55:32.000Z</time>
      </trkpt>
      <trkpt lat="47.29492" lon="-1.66954">
        <ele>116</ele>
        <time>2021-07-16T07:55:34.000Z</time>
      </trkpt>
      <trkpt lat="47.29504" lon="-1.66948">
        <ele>116</ele>
        <time>2021-07-16T07:55:36.000Z</time>
      </trkpt>
      <trkpt lat="47.29515" lon="-1.66941">
        <ele>116</ele>
        <time>2021-07-16T07:55:38.000Z</time>
      </trkpt>
      <trkpt lat="47.29528" lon="-1.66936">
        <ele>116</ele>
        <time>2021-07-16T07:55:40.000Z</time>
      </trkpt>
      <trkpt lat="47.2954" lon="-1.66929">
        <ele>116</ele>
        <time>2021-07-16T07:55:42.000Z</time>
      </trkpt>
      <trkpt lat="47.29553" lon="-1.66922">
        <ele>115</ele>
        <time>2021-07-16T07:55:44.000Z</time>
      </trkpt>
      <trkpt lat="47.29566" lon="-1.66914">
        <ele>115</ele>
        <time>2021-07-16T07:55:46.000Z</time>
      </trkpt>
      <trkpt lat="47.2958" lon="-1.66906">
        <ele>115</ele>
        <time>2021-07-16T07:55:48.000Z</time>
      </trkpt>
      <trkpt lat="47.29595" lon="-1.66898">
        <ele>115</ele>
        <time>2021-07-16T07:55:50.000Z</time>
      </trkpt>
      <trkpt lat="47.2961" lon="-1.6689">
        <ele>114</ele>
        <time>2021-07-16T07:55:52.000Z</time>
      </trkpt>
      <trkpt lat="47.29624" lon="-1.66882">
        <ele>113</ele>
        <time>2021-07-16T07:55:54.000Z</time>
      </trkpt>
      <trkpt lat="47.29639" lon="-1.66873">
        <ele>113</ele>
        <time>2021-07-16T07:55:56.000Z</time>
      </trkpt>
      <trkpt lat="47.29652" lon="-1.66862">
        <ele>113</ele>
        <time>2021-07-16T07:55:58.000Z</time>
      </trkpt>
      <trkpt lat="47.29665" lon="-1.66849">
        <ele>113</ele>
        <time>2021-07-16T07:56:00.000Z</time>
      </trkpt>
      <trkpt lat="47.29676" lon="-1.66834">
        <ele>113</ele>
        <time>2021-07-16T07:56:02.000Z</time>
      </trkpt>
      <trkpt lat="47.29686" lon="-1.66818">
        <ele>113</ele>
        <time>2021-07-16T07:56:04.000Z</time>
      </trkpt>
      <trkpt lat="47.29695" lon="-1.66801">
        <ele>112</ele>
        <time>2021-07-16T07:56:06.000Z</time>
      </trkpt>
      <trkpt lat="47.29704" lon="-1.66784">
        <ele>112</ele>
        <time>2021-07-16T07:56:08.000Z</time>
      </trkpt>
      <trkpt lat="47.29713" lon="-1.66768">
        <ele>112</ele>
        <time>2021-07-16T07:56:10.000Z</time>
      </trkpt>
      <trkpt lat="47.29722" lon="-1.66753">
        <ele>112</ele>
        <time>2021-07-16T07:56:12.000Z</time>
      </trkpt>
      <trkpt lat="47.29731" lon="-1.66738">
        <ele>111</ele>
        <time>2021-07-16T07:56:14.000Z</time>
      </trkpt>
      <trkpt lat="47.2974" lon="-1.66723">
        <ele>112</ele>
        <time>2021-07-16T07:56:16.000Z</time>
      </trkpt>
      <trkpt lat="47.2975" lon="-1.66708">
        <ele>112</ele>
        <time>2021-07-16T07:56:18.000Z</time>
      </trkpt>
      <trkpt lat="47.2976" lon="-1.66694">
        <ele>112</ele>
        <time>2021-07-16T07:56:20.000Z</time>
      </trkpt>
      <trkpt lat="47.29771" lon="-1.66681">
        <ele>111</ele>
        <time>2021-07-16T07:56:22.000Z</time>
      </trkpt>
      <trkpt lat="47.29781" lon="-1.66668">
        <ele>112</ele>
        <time>2021-07-16T07:56:24.000Z</time>
      </trkpt>
      <trkpt lat="47.29791" lon="-1.66658">
        <ele>112</ele>
        <time>2021-07-16T07:56:26.000Z</time>
      </trkpt>
      <trkpt lat="47.29801" lon="-1.66647">
        <ele>112</ele>
        <time>2021-07-16T07:56:28.000Z</time>
      </trkpt>
      <trkpt lat="47.29812" lon="-1.66635">
        <ele>112</ele>
        <time>2021-07-16T07:56:30.000Z</time>
      </trkpt>
      <trkpt lat="47.29823" lon="-1.66625">
        <ele>112</ele>
        <time>2021-07-16T07:56:32.000Z</time>
      </trkpt>
      <trkpt lat="47.29834" lon="-1.66614">
        <ele>113</ele>
        <time>2021-07-16T07:56:34.000Z</time>
      </trkpt>
      <trkpt lat="47.29845" lon="-1.66603">
        <ele>113</ele>
        <time>2021-07-16T07:56:36.000Z</time>
      </trkpt>
      <trkpt lat="47.29855" lon="-1.6659">
        <ele>113</ele>
        <time>2021-07-16T07:56:38.000Z</time>
      </trkpt>
      <trkpt lat="47.29865" lon="-1.66576">
        <ele>114</ele>
        <time>2021-07-16T07:56:40.000Z</time>
      </trkpt>
      <trkpt lat="47.29874" lon="-1.66562">
        <ele>114</ele>
        <time>2021-07-16T07:56:42.000Z</time>
      </trkpt>
      <trkpt lat="47.29883" lon="-1.66548">
        <ele>114</ele>
        <time>2021-07-16T07:56:44.000Z</time>
      </trkpt>
      <trkpt lat="47.29891" lon="-1.66533">
        <ele>114</ele>
        <time>2021-07-16T07:56:46.000Z</time>
      </trkpt>
      <trkpt lat="47.29899" lon="-1.66519">
        <ele>114</ele>
        <time>2021-07-16T07:56:48.000Z</time>
      </trkpt>
      <trkpt lat="47.29907" lon="-1.66505">
        <ele>114</ele>
        <time>2021-07-16T07:56:50.000Z</time>
      </trkpt>
      <trkpt lat="47.29915" lon="-1.66492">
        <ele>114</ele>
        <time>2021-07-16T07:56:52.000Z</time>
      </trkpt>
      <trkpt lat="47.29923" lon="-1.66481">
        <ele>114</ele>
        <time>2021-07-16T07:56:54.000Z</time>
      </trkpt>
      <trkpt lat="47.2993" lon="-1.6647">
        <ele>114</ele>
        <time>2021-07-16T07:56:56.000Z</time>
      </trkpt>
      <trkpt lat="47.29937" lon="-1.66458">
        <ele>114</ele>
        <time>2021-07-16T07:56:58.000Z</time>
      </trkpt>
      <trkpt lat="47.29943" lon="-1.66448">
        <ele>114</ele>
        <time>2021-07-16T07:57:01.000Z</time>
      </trkpt>
      <trkpt lat="47.29953" lon="-1.66435">
        <ele>114</ele>
        <time>2021-07-16T07:57:04.000Z</time>
      </trkpt>
      <trkpt lat="47.2996" lon="-1.66423">
        <ele>114</ele>
        <time>2021-07-16T07:57:06.000Z</time>
      </trkpt>
      <trkpt lat="47.29968" lon="-1.6641">
        <ele>114</ele>
        <time>2021-07-16T07:57:08.000Z</time>
      </trkpt>
      <trkpt lat="47.29977" lon="-1.66396">
        <ele>114</ele>
        <time>2021-07-16T07:57:10.000Z</time>
      </trkpt>
      <trkpt lat="47.29986" lon="-1.66381">
        <ele>113</ele>
        <time>2021-07-16T07:57:12.000Z</time>
      </trkpt>
      <trkpt lat="47.29995" lon="-1.66366">
        <ele>113</ele>
        <time>2021-07-16T07:57:14.000Z</time>
      </trkpt>
      <trkpt lat="47.30004" lon="-1.66353">
        <ele>113</ele>
        <time>2021-07-16T07:57:16.000Z</time>
      </trkpt>
      <trkpt lat="47.30013" lon="-1.66339">
        <ele>113</ele>
        <time>2021-07-16T07:57:18.000Z</time>
      </trkpt>
      <trkpt lat="47.30022" lon="-1.66324">
        <ele>113</ele>
        <time>2021-07-16T07:57:20.000Z</time>
      </trkpt>
      <trkpt lat="47.30031" lon="-1.6631">
        <ele>113</ele>
        <time>2021-07-16T07:57:22.000Z</time>
      </trkpt>
      <trkpt lat="47.30041" lon="-1.66296">
        <ele>112</ele>
        <time>2021-07-16T07:57:24.000Z</time>
      </trkpt>
      <trkpt lat="47.3005" lon="-1.66281">
        <ele>112</ele>
        <time>2021-07-16T07:57:26.000Z</time>
      </trkpt>
      <trkpt lat="47.3006" lon="-1.66267">
        <ele>112</ele>
        <time>2021-07-16T07:57:28.000Z</time>
      </trkpt>
      <trkpt lat="47.30069" lon="-1.66252">
        <ele>113</ele>
        <time>2021-07-16T07:57:30.000Z</time>
      </trkpt>
      <trkpt lat="47.30078" lon="-1.66237">
        <ele>113</ele>
        <time>2021-07-16T07:57:32.000Z</time>
      </trkpt>
      <trkpt lat="47.30087" lon="-1.66224">
        <ele>113</ele>
        <time>2021-07-16T07:57:34.000Z</time>
      </trkpt>
      <trkpt lat="47.30096" lon="-1.6621">
        <ele>113</ele>
        <time>2021-07-16T07:57:36.000Z</time>
      </trkpt>
      <trkpt lat="47.30106" lon="-1.66197">
        <ele>113</ele>
        <time>2021-07-16T07:57:38.000Z</time>
      </trkpt>
      <trkpt lat="47.30116" lon="-1.66184">
        <ele>113</ele>
        <time>2021-07-16T07:57:40.000Z</time>
      </trkpt>
      <trkpt lat="47.30128" lon="-1.66172">
        <ele>113</ele>
        <time>2021-07-16T07:57:42.000Z</time>
      </trkpt>
      <trkpt lat="47.30138" lon="-1.6616">
        <ele>113</ele>
        <time>2021-07-16T07:57:44.000Z</time>
      </trkpt>
      <trkpt lat="47.30149" lon="-1.6615">
        <ele>113</ele>
        <time>2021-07-16T07:57:46.000Z</time>
      </trkpt>
      <trkpt lat="47.3016" lon="-1.66139">
        <ele>114</ele>
        <time>2021-07-16T07:57:48.000Z</time>
      </trkpt>
      <trkpt lat="47.3017" lon="-1.66127">
        <ele>114</ele>
        <time>2021-07-16T07:57:50.000Z</time>
      </trkpt>
      <trkpt lat="47.3018" lon="-1.66116">
        <ele>114</ele>
        <time>2021-07-16T07:57:52.000Z</time>
      </trkpt>
      <trkpt lat="47.3019" lon="-1.66105">
        <ele>114</ele>
        <time>2021-07-16T07:57:54.000Z</time>
      </trkpt>
      <trkpt lat="47.302" lon="-1.66094">
        <ele>114</ele>
        <time>2021-07-16T07:57:56.000Z</time>
      </trkpt>
      <trkpt lat="47.30212" lon="-1.66082">
        <ele>114</ele>
        <time>2021-07-16T07:57:58.000Z</time>
      </trkpt>
      <trkpt lat="47.30223" lon="-1.66071">
        <ele>114</ele>
        <time>2021-07-16T07:58:00.000Z</time>
      </trkpt>
      <trkpt lat="47.30235" lon="-1.66059">
        <ele>115</ele>
        <time>2021-07-16T07:58:02.000Z</time>
      </trkpt>
      <trkpt lat="47.30246" lon="-1.66048">
        <ele>115</ele>
        <time>2021-07-16T07:58:04.000Z</time>
      </trkpt>
      <trkpt lat="47.30258" lon="-1.66036">
        <ele>114</ele>
        <time>2021-07-16T07:58:06.000Z</time>
      </trkpt>
      <trkpt lat="47.30269" lon="-1.66025">
        <ele>114</ele>
        <time>2021-07-16T07:58:08.000Z</time>
      </trkpt>
      <trkpt lat="47.3028" lon="-1.66015">
        <ele>114</ele>
        <time>2021-07-16T07:58:10.000Z</time>
      </trkpt>
      <trkpt lat="47.30291" lon="-1.66004">
        <ele>114</ele>
        <time>2021-07-16T07:58:12.000Z</time>
      </trkpt>
      <trkpt lat="47.30302" lon="-1.65993">
        <ele>115</ele>
        <time>2021-07-16T07:58:14.000Z</time>
      </trkpt>
      <trkpt lat="47.30313" lon="-1.65982">
        <ele>114</ele>
        <time>2021-07-16T07:58:16.000Z</time>
      </trkpt>
      <trkpt lat="47.30323" lon="-1.6597">
        <ele>115</ele>
        <time>2021-07-16T07:58:18.000Z</time>
      </trkpt>
      <trkpt lat="47.30334" lon="-1.65958">
        <ele>115</ele>
        <time>2021-07-16T07:58:20.000Z</time>
      </trkpt>
      <trkpt lat="47.30346" lon="-1.65947">
        <ele>114</ele>
        <time>2021-07-16T07:58:22.000Z</time>
      </trkpt>
      <trkpt lat="47.30356" lon="-1.65935">
        <ele>114</ele>
        <time>2021-07-16T07:58:24.000Z</time>
      </trkpt>
      <trkpt lat="47.30367" lon="-1.65924">
        <ele>114</ele>
        <time>2021-07-16T07:58:26.000Z</time>
      </trkpt>
      <trkpt lat="47.30378" lon="-1.65913">
        <ele>114</ele>
        <time>2021-07-16T07:58:28.000Z</time>
      </trkpt>
      <trkpt lat="47.30389" lon="-1.65902">
        <ele>115</ele>
        <time>2021-07-16T07:58:30.000Z</time>
      </trkpt>
      <trkpt lat="47.30401" lon="-1.65891">
        <ele>115</ele>
        <time>2021-07-16T07:58:32.000Z</time>
      </trkpt>
      <trkpt lat="47.30412" lon="-1.65879">
        <ele>115</ele>
        <time>2021-07-16T07:58:34.000Z</time>
      </trkpt>
      <trkpt lat="47.30422" lon="-1.65868">
        <ele>115</ele>
        <time>2021-07-16T07:58:36.000Z</time>
      </trkpt>
      <trkpt lat="47.30434" lon="-1.65857">
        <ele>115</ele>
        <time>2021-07-16T07:58:38.000Z</time>
      </trkpt>
      <trkpt lat="47.30444" lon="-1.65845">
        <ele>115</ele>
        <time>2021-07-16T07:58:40.000Z</time>
      </trkpt>
      <trkpt lat="47.30455" lon="-1.65834">
        <ele>115</ele>
        <time>2021-07-16T07:58:42.000Z</time>
      </trkpt>
      <trkpt lat="47.30466" lon="-1.65821">
        <ele>115</ele>
        <time>2021-07-16T07:58:44.000Z</time>
      </trkpt>
      <trkpt lat="47.30477" lon="-1.6581">
        <ele>115</ele>
        <time>2021-07-16T07:58:46.000Z</time>
      </trkpt>
      <trkpt lat="47.30488" lon="-1.65798">
        <ele>115</ele>
        <time>2021-07-16T07:58:48.000Z</time>
      </trkpt>
      <trkpt lat="47.30499" lon="-1.65786">
        <ele>115</ele>
        <time>2021-07-16T07:58:50.000Z</time>
      </trkpt>
      <trkpt lat="47.3051" lon="-1.65774">
        <ele>116</ele>
        <time>2021-07-16T07:58:52.000Z</time>
      </trkpt>
      <trkpt lat="47.30521" lon="-1.65763">
        <ele>116</ele>
        <time>2021-07-16T07:58:54.000Z</time>
      </trkpt>
      <trkpt lat="47.30532" lon="-1.65752">
        <ele>116</ele>
        <time>2021-07-16T07:58:56.000Z</time>
      </trkpt>
      <trkpt lat="47.30543" lon="-1.65741">
        <ele>116</ele>
        <time>2021-07-16T07:58:58.000Z</time>
      </trkpt>
      <trkpt lat="47.30554" lon="-1.65728">
        <ele>116</ele>
        <time>2021-07-16T07:59:00.000Z</time>
      </trkpt>
      <trkpt lat="47.30565" lon="-1.65717">
        <ele>117</ele>
        <time>2021-07-16T07:59:02.000Z</time>
      </trkpt>
      <trkpt lat="47.30575" lon="-1.65707">
        <ele>117</ele>
        <time>2021-07-16T07:59:04.000Z</time>
      </trkpt>
      <trkpt lat="47.30586" lon="-1.65696">
        <ele>118</ele>
        <time>2021-07-16T07:59:06.000Z</time>
      </trkpt>
      <trkpt lat="47.30597" lon="-1.65686">
        <ele>117</ele>
        <time>2021-07-16T07:59:08.000Z</time>
      </trkpt>
      <trkpt lat="47.30608" lon="-1.65675">
        <ele>117</ele>
        <time>2021-07-16T07:59:10.000Z</time>
      </trkpt>
      <trkpt lat="47.30619" lon="-1.65664">
        <ele>117</ele>
        <time>2021-07-16T07:59:12.000Z</time>
      </trkpt>
      <trkpt lat="47.3063" lon="-1.65653">
        <ele>117</ele>
        <time>2021-07-16T07:59:14.000Z</time>
      </trkpt>
      <trkpt lat="47.3064" lon="-1.65642">
        <ele>118</ele>
        <time>2021-07-16T07:59:16.000Z</time>
      </trkpt>
      <trkpt lat="47.30651" lon="-1.6563">
        <ele>117</ele>
        <time>2021-07-16T07:59:18.000Z</time>
      </trkpt>
      <trkpt lat="47.30662" lon="-1.65619">
        <ele>117</ele>
        <time>2021-07-16T07:59:20.000Z</time>
      </trkpt>
      <trkpt lat="47.30673" lon="-1.65607">
        <ele>117</ele>
        <time>2021-07-16T07:59:22.000Z</time>
      </trkpt>
      <trkpt lat="47.30683" lon="-1.65596">
        <ele>117</ele>
        <time>2021-07-16T07:59:24.000Z</time>
      </trkpt>
      <trkpt lat="47.30693" lon="-1.65585">
        <ele>117</ele>
        <time>2021-07-16T07:59:26.000Z</time>
      </trkpt>
      <trkpt lat="47.30703" lon="-1.65573">
        <ele>117</ele>
        <time>2021-07-16T07:59:28.000Z</time>
      </trkpt>
      <trkpt lat="47.30713" lon="-1.65561">
        <ele>117</ele>
        <time>2021-07-16T07:59:30.000Z</time>
      </trkpt>
      <trkpt lat="47.30723" lon="-1.6555">
        <ele>116</ele>
        <time>2021-07-16T07:59:32.000Z</time>
      </trkpt>
      <trkpt lat="47.30732" lon="-1.65537">
        <ele>116</ele>
        <time>2021-07-16T07:59:34.000Z</time>
      </trkpt>
      <trkpt lat="47.3074" lon="-1.65522">
        <ele>117</ele>
        <time>2021-07-16T07:59:36.000Z</time>
      </trkpt>
      <trkpt lat="47.30746" lon="-1.65506">
        <ele>117</ele>
        <time>2021-07-16T07:59:38.000Z</time>
      </trkpt>
      <trkpt lat="47.30753" lon="-1.6549">
        <ele>117</ele>
        <time>2021-07-16T07:59:40.000Z</time>
      </trkpt>
      <trkpt lat="47.30761" lon="-1.65475">
        <ele>117</ele>
        <time>2021-07-16T07:59:42.000Z</time>
      </trkpt>
      <trkpt lat="47.30769" lon="-1.6546">
        <ele>116</ele>
        <time>2021-07-16T07:59:44.000Z</time>
      </trkpt>
      <trkpt lat="47.30778" lon="-1.65446">
        <ele>116</ele>
        <time>2021-07-16T07:59:46.000Z</time>
      </trkpt>
      <trkpt lat="47.30786" lon="-1.65432">
        <ele>117</ele>
        <time>2021-07-16T07:59:48.000Z</time>
      </trkpt>
      <trkpt lat="47.30794" lon="-1.65417">
        <ele>116</ele>
        <time>2021-07-16T07:59:50.000Z</time>
      </trkpt>
      <trkpt lat="47.30802" lon="-1.65402">
        <ele>117</ele>
        <time>2021-07-16T07:59:52.000Z</time>
      </trkpt>
      <trkpt lat="47.30811" lon="-1.65388">
        <ele>117</ele>
        <time>2021-07-16T07:59:54.000Z</time>
      </trkpt>
      <trkpt lat="47.30819" lon="-1.65374">
        <ele>117</ele>
        <time>2021-07-16T07:59:56.000Z</time>
      </trkpt>
      <trkpt lat="47.30827" lon="-1.6536">
        <ele>117</ele>
        <time>2021-07-16T07:59:58.000Z</time>
      </trkpt>
      <trkpt lat="47.30835" lon="-1.65346">
        <ele>117</ele>
        <time>2021-07-16T08:00:00.000Z</time>
      </trkpt>
      <trkpt lat="47.30843" lon="-1.65332">
        <ele>117</ele>
        <time>2021-07-16T08:00:02.000Z</time>
      </trkpt>
      <trkpt lat="47.30851" lon="-1.65317">
        <ele>117</ele>
        <time>2021-07-16T08:00:04.000Z</time>
      </trkpt>
      <trkpt lat="47.30859" lon="-1.65303">
        <ele>116</ele>
        <time>2021-07-16T08:00:06.000Z</time>
      </trkpt>
      <trkpt lat="47.30867" lon="-1.65288">
        <ele>116</ele>
        <time>2021-07-16T08:00:08.000Z</time>
      </trkpt>
      <trkpt lat="47.30875" lon="-1.65274">
        <ele>115</ele>
        <time>2021-07-16T08:00:10.000Z</time>
      </trkpt>
      <trkpt lat="47.30883" lon="-1.6526">
        <ele>115</ele>
        <time>2021-07-16T08:00:12.000Z</time>
      </trkpt>
      <trkpt lat="47.30891" lon="-1.65246">
        <ele>115</ele>
        <time>2021-07-16T08:00:14.000Z</time>
      </trkpt>
      <trkpt lat="47.30899" lon="-1.65231">
        <ele>115</ele>
        <time>2021-07-16T08:00:16.000Z</time>
      </trkpt>
      <trkpt lat="47.30912" lon="-1.65209">
        <ele>115</ele>
        <time>2021-07-16T08:00:19.000Z</time>
      </trkpt>
      <trkpt lat="47.3092" lon="-1.65194">
        <ele>115</ele>
        <time>2021-07-16T08:00:21.000Z</time>
      </trkpt>
      <trkpt lat="47.30929" lon="-1.65179">
        <ele>114</ele>
        <time>2021-07-16T08:00:23.000Z</time>
      </trkpt>
      <trkpt lat="47.30938" lon="-1.65162">
        <ele>114</ele>
        <time>2021-07-16T08:00:25.000Z</time>
      </trkpt>
      <trkpt lat="47.30947" lon="-1.65147">
        <ele>113</ele>
        <time>2021-07-16T08:00:27.000Z</time>
      </trkpt>
      <trkpt lat="47.30956" lon="-1.65131">
        <ele>113</ele>
        <time>2021-07-16T08:00:29.000Z</time>
      </trkpt>
      <trkpt lat="47.30969" lon="-1.65107">
        <ele>114</ele>
        <time>2021-07-16T08:00:32.000Z</time>
      </trkpt>
      <trkpt lat="47.30978" lon="-1.65093">
        <ele>113</ele>
        <time>2021-07-16T08:00:34.000Z</time>
      </trkpt>
      <trkpt lat="47.30994" lon="-1.65077">
        <ele>114</ele>
        <time>2021-07-16T08:00:37.000Z</time>
      </trkpt>
      <trkpt lat="47.31007" lon="-1.65069">
        <ele>113</ele>
        <time>2021-07-16T08:00:39.000Z</time>
      </trkpt>
      <trkpt lat="47.31021" lon="-1.65062">
        <ele>113</ele>
        <time>2021-07-16T08:00:41.000Z</time>
      </trkpt>
      <trkpt lat="47.31034" lon="-1.65056">
        <ele>112</ele>
        <time>2021-07-16T08:00:43.000Z</time>
      </trkpt>
      <trkpt lat="47.31048" lon="-1.6505">
        <ele>112</ele>
        <time>2021-07-16T08:00:45.000Z</time>
      </trkpt>
      <trkpt lat="47.31062" lon="-1.65044">
        <ele>112</ele>
        <time>2021-07-16T08:00:47.000Z</time>
      </trkpt>
      <trkpt lat="47.31076" lon="-1.6504">
        <ele>112</ele>
        <time>2021-07-16T08:00:49.000Z</time>
      </trkpt>
      <trkpt lat="47.3109" lon="-1.65035">
        <ele>112</ele>
        <time>2021-07-16T08:00:51.000Z</time>
      </trkpt>
      <trkpt lat="47.31104" lon="-1.65031">
        <ele>112</ele>
        <time>2021-07-16T08:00:53.000Z</time>
      </trkpt>
      <trkpt lat="47.31117" lon="-1.65029">
        <ele>112</ele>
        <time>2021-07-16T08:00:55.000Z</time>
      </trkpt>
      <trkpt lat="47.3113" lon="-1.6503">
        <ele>112</ele>
        <time>2021-07-16T08:00:57.000Z</time>
      </trkpt>
      <trkpt lat="47.31142" lon="-1.65037">
        <ele>112</ele>
        <time>2021-07-16T08:00:59.000Z</time>
      </trkpt>
      <trkpt lat="47.31154" lon="-1.65046">
        <ele>112</ele>
        <time>2021-07-16T08:01:01.000Z</time>
      </trkpt>
      <trkpt lat="47.31166" lon="-1.65054">
        <ele>112</ele>
        <time>2021-07-16T08:01:03.000Z</time>
      </trkpt>
      <trkpt lat="47.31178" lon="-1.65056">
        <ele>113</ele>
        <time>2021-07-16T08:01:05.000Z</time>
      </trkpt>
      <trkpt lat="47.31191" lon="-1.65054">
        <ele>113</ele>
        <time>2021-07-16T08:01:07.000Z</time>
      </trkpt>
      <trkpt lat="47.31203" lon="-1.65051">
        <ele>114</ele>
        <time>2021-07-16T08:01:09.000Z</time>
      </trkpt>
      <trkpt lat="47.31213" lon="-1.65045">
        <ele>114</ele>
        <time>2021-07-16T08:01:11.000Z</time>
      </trkpt>
      <trkpt lat="47.31223" lon="-1.6504">
        <ele>114</ele>
        <time>2021-07-16T08:01:13.000Z</time>
      </trkpt>
      <trkpt lat="47.31235" lon="-1.65034">
        <ele>115</ele>
        <time>2021-07-16T08:01:15.000Z</time>
      </trkpt>
      <trkpt lat="47.3125" lon="-1.65024">
        <ele>116</ele>
        <time>2021-07-16T08:01:18.000Z</time>
      </trkpt>
      <trkpt lat="47.3126" lon="-1.65018">
        <ele>116</ele>
        <time>2021-07-16T08:01:20.000Z</time>
      </trkpt>
      <trkpt lat="47.3127" lon="-1.65012">
        <ele>116</ele>
        <time>2021-07-16T08:01:22.000Z</time>
      </trkpt>
      <trkpt lat="47.31281" lon="-1.65006">
        <ele>116</ele>
        <time>2021-07-16T08:01:24.000Z</time>
      </trkpt>
      <trkpt lat="47.31292" lon="-1.65">
        <ele>117</ele>
        <time>2021-07-16T08:01:26.000Z</time>
      </trkpt>
      <trkpt lat="47.31302" lon="-1.64994">
        <ele>117</ele>
        <time>2021-07-16T08:01:28.000Z</time>
      </trkpt>
      <trkpt lat="47.31313" lon="-1.64987">
        <ele>117</ele>
        <time>2021-07-16T08:01:30.000Z</time>
      </trkpt>
      <trkpt lat="47.31323" lon="-1.6498">
        <ele>117</ele>
        <time>2021-07-16T08:01:32.000Z</time>
      </trkpt>
      <trkpt lat="47.31334" lon="-1.64974">
        <ele>117</ele>
        <time>2021-07-16T08:01:34.000Z</time>
      </trkpt>
      <trkpt lat="47.31344" lon="-1.64968">
        <ele>118</ele>
        <time>2021-07-16T08:01:36.000Z</time>
      </trkpt>
      <trkpt lat="47.31354" lon="-1.64962">
        <ele>118</ele>
        <time>2021-07-16T08:01:38.000Z</time>
      </trkpt>
      <trkpt lat="47.31365" lon="-1.64954">
        <ele>118</ele>
        <time>2021-07-16T08:01:40.000Z</time>
      </trkpt>
      <trkpt lat="47.31375" lon="-1.64948">
        <ele>118</ele>
        <time>2021-07-16T08:01:42.000Z</time>
      </trkpt>
      <trkpt lat="47.31386" lon="-1.64941">
        <ele>118</ele>
        <time>2021-07-16T08:01:44.000Z</time>
      </trkpt>
      <trkpt lat="47.31396" lon="-1.64934">
        <ele>118</ele>
        <time>2021-07-16T08:01:46.000Z</time>
      </trkpt>
      <trkpt lat="47.31407" lon="-1.64927">
        <ele>119</ele>
        <time>2021-07-16T08:01:48.000Z</time>
      </trkpt>
      <trkpt lat="47.31418" lon="-1.64921">
        <ele>119</ele>
        <time>2021-07-16T08:01:50.000Z</time>
      </trkpt>
      <trkpt lat="47.31429" lon="-1.64915">
        <ele>118</ele>
        <time>2021-07-16T08:01:52.000Z</time>
      </trkpt>
      <trkpt lat="47.31441" lon="-1.64912">
        <ele>118</ele>
        <time>2021-07-16T08:01:54.000Z</time>
      </trkpt>
      <trkpt lat="47.31454" lon="-1.6491">
        <ele>117</ele>
        <time>2021-07-16T08:01:56.000Z</time>
      </trkpt>
      <trkpt lat="47.31468" lon="-1.64909">
        <ele>117</ele>
        <time>2021-07-16T08:01:58.000Z</time>
      </trkpt>
      <trkpt lat="47.31482" lon="-1.64909">
        <ele>116</ele>
        <time>2021-07-16T08:02:00.000Z</time>
      </trkpt>
      <trkpt lat="47.31496" lon="-1.64908">
        <ele>115</ele>
        <time>2021-07-16T08:02:02.000Z</time>
      </trkpt>
      <trkpt lat="47.31508" lon="-1.64906">
        <ele>113</ele>
        <time>2021-07-16T08:02:04.000Z</time>
      </trkpt>
      <trkpt lat="47.3152" lon="-1.64902">
        <ele>113</ele>
        <time>2021-07-16T08:02:06.000Z</time>
      </trkpt>
      <trkpt lat="47.31534" lon="-1.64895">
        <ele>111</ele>
        <time>2021-07-16T08:02:08.000Z</time>
      </trkpt>
      <trkpt lat="47.31548" lon="-1.64886">
        <ele>111</ele>
        <time>2021-07-16T08:02:10.000Z</time>
      </trkpt>
      <trkpt lat="47.31561" lon="-1.64877">
        <ele>111</ele>
        <time>2021-07-16T08:02:12.000Z</time>
      </trkpt>
      <trkpt lat="47.31575" lon="-1.64868">
        <ele>110</ele>
        <time>2021-07-16T08:02:14.000Z</time>
      </trkpt>
      <trkpt lat="47.31589" lon="-1.64858">
        <ele>110</ele>
        <time>2021-07-16T08:02:16.000Z</time>
      </trkpt>
      <trkpt lat="47.31601" lon="-1.64848">
        <ele>109</ele>
        <time>2021-07-16T08:02:18.000Z</time>
      </trkpt>
      <trkpt lat="47.31614" lon="-1.64838">
        <ele>109</ele>
        <time>2021-07-16T08:02:20.000Z</time>
      </trkpt>
      <trkpt lat="47.31627" lon="-1.64825">
        <ele>108</ele>
        <time>2021-07-16T08:02:22.000Z</time>
      </trkpt>
      <trkpt lat="47.3164" lon="-1.64811">
        <ele>107</ele>
        <time>2021-07-16T08:02:24.000Z</time>
      </trkpt>
      <trkpt lat="47.31653" lon="-1.64796">
        <ele>106</ele>
        <time>2021-07-16T08:02:26.000Z</time>
      </trkpt>
      <trkpt lat="47.31665" lon="-1.64781">
        <ele>105</ele>
        <time>2021-07-16T08:02:28.000Z</time>
      </trkpt>
      <trkpt lat="47.31678" lon="-1.64768">
        <ele>104</ele>
        <time>2021-07-16T08:02:30.000Z</time>
      </trkpt>
      <trkpt lat="47.31692" lon="-1.64754">
        <ele>104</ele>
        <time>2021-07-16T08:02:32.000Z</time>
      </trkpt>
      <trkpt lat="47.31705" lon="-1.6474">
        <ele>103</ele>
        <time>2021-07-16T08:02:34.000Z</time>
      </trkpt>
      <trkpt lat="47.31719" lon="-1.64728">
        <ele>103</ele>
        <time>2021-07-16T08:02:36.000Z</time>
      </trkpt>
      <trkpt lat="47.31732" lon="-1.64717">
        <ele>102</ele>
        <time>2021-07-16T08:02:38.000Z</time>
      </trkpt>
      <trkpt lat="47.31746" lon="-1.64705">
        <ele>102</ele>
        <time>2021-07-16T08:02:40.000Z</time>
      </trkpt>
      <trkpt lat="47.3176" lon="-1.64696">
        <ele>102</ele>
        <time>2021-07-16T08:02:42.000Z</time>
      </trkpt>
      <trkpt lat="47.31774" lon="-1.64688">
        <ele>102</ele>
        <time>2021-07-16T08:02:44.000Z</time>
      </trkpt>
      <trkpt lat="47.31788" lon="-1.64682">
        <ele>102</ele>
        <time>2021-07-16T08:02:46.000Z</time>
      </trkpt>
      <trkpt lat="47.31804" lon="-1.64676">
        <ele>102</ele>
        <time>2021-07-16T08:02:48.000Z</time>
      </trkpt>
      <trkpt lat="47.31818" lon="-1.64669">
        <ele>102</ele>
        <time>2021-07-16T08:02:50.000Z</time>
      </trkpt>
      <trkpt lat="47.31832" lon="-1.64664">
        <ele>101</ele>
        <time>2021-07-16T08:02:52.000Z</time>
      </trkpt>
      <trkpt lat="47.31847" lon="-1.64659">
        <ele>101</ele>
        <time>2021-07-16T08:02:54.000Z</time>
      </trkpt>
      <trkpt lat="47.31861" lon="-1.64654">
        <ele>100</ele>
        <time>2021-07-16T08:02:56.000Z</time>
      </trkpt>
      <trkpt lat="47.31876" lon="-1.64649">
        <ele>100</ele>
        <time>2021-07-16T08:02:58.000Z</time>
      </trkpt>
      <trkpt lat="47.31892" lon="-1.64644">
        <ele>100</ele>
        <time>2021-07-16T08:03:00.000Z</time>
      </trkpt>
      <trkpt lat="47.31907" lon="-1.64639">
        <ele>99</ele>
        <time>2021-07-16T08:03:02.000Z</time>
      </trkpt>
      <trkpt lat="47.31921" lon="-1.64633">
        <ele>99</ele>
        <time>2021-07-16T08:03:04.000Z</time>
      </trkpt>
      <trkpt lat="47.31935" lon="-1.64626">
        <ele>99</ele>
        <time>2021-07-16T08:03:06.000Z</time>
      </trkpt>
      <trkpt lat="47.31951" lon="-1.64621">
        <ele>98</ele>
        <time>2021-07-16T08:03:08.000Z</time>
      </trkpt>
      <trkpt lat="47.31966" lon="-1.64615">
        <ele>98</ele>
        <time>2021-07-16T08:03:10.000Z</time>
      </trkpt>
      <trkpt lat="47.31982" lon="-1.6461">
        <ele>97</ele>
        <time>2021-07-16T08:03:12.000Z</time>
      </trkpt>
      <trkpt lat="47.31998" lon="-1.64605">
        <ele>97</ele>
        <time>2021-07-16T08:03:14.000Z</time>
      </trkpt>
      <trkpt lat="47.32015" lon="-1.64599">
        <ele>96</ele>
        <time>2021-07-16T08:03:16.000Z</time>
      </trkpt>
      <trkpt lat="47.32031" lon="-1.64592">
        <ele>95</ele>
        <time>2021-07-16T08:03:18.000Z</time>
      </trkpt>
      <trkpt lat="47.32047" lon="-1.64586">
        <ele>95</ele>
        <time>2021-07-16T08:03:20.000Z</time>
      </trkpt>
      <trkpt lat="47.32064" lon="-1.6458">
        <ele>94</ele>
        <time>2021-07-16T08:03:22.000Z</time>
      </trkpt>
      <trkpt lat="47.3208" lon="-1.64575">
        <ele>93</ele>
        <time>2021-07-16T08:03:24.000Z</time>
      </trkpt>
      <trkpt lat="47.32096" lon="-1.64569">
        <ele>92</ele>
        <time>2021-07-16T08:03:26.000Z</time>
      </trkpt>
      <trkpt lat="47.32112" lon="-1.64563">
        <ele>91</ele>
        <time>2021-07-16T08:03:28.000Z</time>
      </trkpt>
      <trkpt lat="47.3213" lon="-1.64555">
        <ele>90</ele>
        <time>2021-07-16T08:03:30.000Z</time>
      </trkpt>
      <trkpt lat="47.32139" lon="-1.64551">
        <ele>90</ele>
        <time>2021-07-16T08:03:31.000Z</time>
      </trkpt>
      <trkpt lat="47.32148" lon="-1.64546">
        <ele>89</ele>
        <time>2021-07-16T08:03:32.000Z</time>
      </trkpt>
      <trkpt lat="47.32156" lon="-1.64541">
        <ele>89</ele>
        <time>2021-07-16T08:03:33.000Z</time>
      </trkpt>
      <trkpt lat="47.32165" lon="-1.64534">
        <ele>88</ele>
        <time>2021-07-16T08:03:34.000Z</time>
      </trkpt>
      <trkpt lat="47.32173" lon="-1.64526">
        <ele>87</ele>
        <time>2021-07-16T08:03:35.000Z</time>
      </trkpt>
      <trkpt lat="47.32181" lon="-1.64515">
        <ele>87</ele>
        <time>2021-07-16T08:03:36.000Z</time>
      </trkpt>
      <trkpt lat="47.32188" lon="-1.64502">
        <ele>87</ele>
        <time>2021-07-16T08:03:37.000Z</time>
      </trkpt>
      <trkpt lat="47.32194" lon="-1.64488">
        <ele>87</ele>
        <time>2021-07-16T08:03:38.000Z</time>
      </trkpt>
      <trkpt lat="47.32199" lon="-1.64476">
        <ele>87</ele>
        <time>2021-07-16T08:03:39.000Z</time>
      </trkpt>
      <trkpt lat="47.32205" lon="-1.64464">
        <ele>86</ele>
        <time>2021-07-16T08:03:40.000Z</time>
      </trkpt>
      <trkpt lat="47.32211" lon="-1.64452">
        <ele>85</ele>
        <time>2021-07-16T08:03:41.000Z</time>
      </trkpt>
      <trkpt lat="47.32216" lon="-1.64441">
        <ele>84</ele>
        <time>2021-07-16T08:03:42.000Z</time>
      </trkpt>
      <trkpt lat="47.32222" lon="-1.64429">
        <ele>84</ele>
        <time>2021-07-16T08:03:43.000Z</time>
      </trkpt>
      <trkpt lat="47.32227" lon="-1.64418">
        <ele>83</ele>
        <time>2021-07-16T08:03:44.000Z</time>
      </trkpt>
      <trkpt lat="47.32232" lon="-1.64406">
        <ele>82</ele>
        <time>2021-07-16T08:03:45.000Z</time>
      </trkpt>
      <trkpt lat="47.32236" lon="-1.64393">
        <ele>81</ele>
        <time>2021-07-16T08:03:46.000Z</time>
      </trkpt>
      <trkpt lat="47.3224" lon="-1.6438">
        <ele>79</ele>
        <time>2021-07-16T08:03:47.000Z</time>
      </trkpt>
      <trkpt lat="47.32244" lon="-1.64366">
        <ele>78</ele>
        <time>2021-07-16T08:03:48.000Z</time>
      </trkpt>
      <trkpt lat="47.32247" lon="-1.64352">
        <ele>78</ele>
        <time>2021-07-16T08:03:49.000Z</time>
      </trkpt>
      <trkpt lat="47.32249" lon="-1.64338">
        <ele>76</ele>
        <time>2021-07-16T08:03:50.000Z</time>
      </trkpt>
      <trkpt lat="47.32253" lon="-1.64317">
        <ele>74</ele>
        <time>2021-07-16T08:03:52.000Z</time>
      </trkpt>
      <trkpt lat="47.32261" lon="-1.64305">
        <ele>73</ele>
        <time>2021-07-16T08:03:54.000Z</time>
      </trkpt>
      <trkpt lat="47.32274" lon="-1.64309">
        <ele>73</ele>
        <time>2021-07-16T08:03:56.000Z</time>
      </trkpt>
      <trkpt lat="47.32289" lon="-1.64317">
        <ele>72</ele>
        <time>2021-07-16T08:03:58.000Z</time>
      </trkpt>
      <trkpt lat="47.32303" lon="-1.64324">
        <ele>71</ele>
        <time>2021-07-16T08:04:00.000Z</time>
      </trkpt>
      <trkpt lat="47.32317" lon="-1.64331">
        <ele>71</ele>
        <time>2021-07-16T08:04:02.000Z</time>
      </trkpt>
      <trkpt lat="47.32332" lon="-1.64337">
        <ele>70</ele>
        <time>2021-07-16T08:04:04.000Z</time>
      </trkpt>
      <trkpt lat="47.32347" lon="-1.6434">
        <ele>70</ele>
        <time>2021-07-16T08:04:06.000Z</time>
      </trkpt>
      <trkpt lat="47.32363" lon="-1.64343">
        <ele>70</ele>
        <time>2021-07-16T08:04:08.000Z</time>
      </trkpt>
      <trkpt lat="47.32378" lon="-1.64346">
        <ele>70</ele>
        <time>2021-07-16T08:04:10.000Z</time>
      </trkpt>
      <trkpt lat="47.32393" lon="-1.6435">
        <ele>70</ele>
        <time>2021-07-16T08:04:12.000Z</time>
      </trkpt>
      <trkpt lat="47.32407" lon="-1.64353">
        <ele>70</ele>
        <time>2021-07-16T08:04:14.000Z</time>
      </trkpt>
      <trkpt lat="47.32422" lon="-1.64355">
        <ele>70</ele>
        <time>2021-07-16T08:04:16.000Z</time>
      </trkpt>
      <trkpt lat="47.32437" lon="-1.64358">
        <ele>69</ele>
        <time>2021-07-16T08:04:18.000Z</time>
      </trkpt>
      <trkpt lat="47.32451" lon="-1.64362">
        <ele>69</ele>
        <time>2021-07-16T08:04:20.000Z</time>
      </trkpt>
      <trkpt lat="47.32465" lon="-1.6437">
        <ele>69</ele>
        <time>2021-07-16T08:04:22.000Z</time>
      </trkpt>
      <trkpt lat="47.32478" lon="-1.64379">
        <ele>69</ele>
        <time>2021-07-16T08:04:24.000Z</time>
      </trkpt>
      <trkpt lat="47.3249" lon="-1.64387">
        <ele>70</ele>
        <time>2021-07-16T08:04:26.000Z</time>
      </trkpt>
      <trkpt lat="47.32503" lon="-1.64394">
        <ele>69</ele>
        <time>2021-07-16T08:04:28.000Z</time>
      </trkpt>
      <trkpt lat="47.32515" lon="-1.64398">
        <ele>68</ele>
        <time>2021-07-16T08:04:30.000Z</time>
      </trkpt>
      <trkpt lat="47.32529" lon="-1.64398">
        <ele>69</ele>
        <time>2021-07-16T08:04:32.000Z</time>
      </trkpt>
      <trkpt lat="47.32542" lon="-1.64397">
        <ele>69</ele>
        <time>2021-07-16T08:04:34.000Z</time>
      </trkpt>
      <trkpt lat="47.32554" lon="-1.64394">
        <ele>70</ele>
        <time>2021-07-16T08:04:36.000Z</time>
      </trkpt>
      <trkpt lat="47.32564" lon="-1.64392">
        <ele>71</ele>
        <time>2021-07-16T08:04:38.000Z</time>
      </trkpt>
      <trkpt lat="47.32574" lon="-1.64389">
        <ele>71</ele>
        <time>2021-07-16T08:04:40.000Z</time>
      </trkpt>
      <trkpt lat="47.32584" lon="-1.64386">
        <ele>72</ele>
        <time>2021-07-16T08:04:42.000Z</time>
      </trkpt>
      <trkpt lat="47.32593" lon="-1.64383">
        <ele>73</ele>
        <time>2021-07-16T08:04:44.000Z</time>
      </trkpt>
      <trkpt lat="47.32603" lon="-1.64381">
        <ele>74</ele>
        <time>2021-07-16T08:04:46.000Z</time>
      </trkpt>
      <trkpt lat="47.32613" lon="-1.64378">
        <ele>74</ele>
        <time>2021-07-16T08:04:48.000Z</time>
      </trkpt>
      <trkpt lat="47.32622" lon="-1.64375">
        <ele>75</ele>
        <time>2021-07-16T08:04:50.000Z</time>
      </trkpt>
      <trkpt lat="47.32632" lon="-1.64373">
        <ele>75</ele>
        <time>2021-07-16T08:04:52.000Z</time>
      </trkpt>
      <trkpt lat="47.32642" lon="-1.64369">
        <ele>75</ele>
        <time>2021-07-16T08:04:54.000Z</time>
      </trkpt>
      <trkpt lat="47.32652" lon="-1.64366">
        <ele>76</ele>
        <time>2021-07-16T08:04:56.000Z</time>
      </trkpt>
      <trkpt lat="47.32663" lon="-1.64363">
        <ele>77</ele>
        <time>2021-07-16T08:04:58.000Z</time>
      </trkpt>
      <trkpt lat="47.32673" lon="-1.6436">
        <ele>77</ele>
        <time>2021-07-16T08:05:00.000Z</time>
      </trkpt>
      <trkpt lat="47.32684" lon="-1.64357">
        <ele>78</ele>
        <time>2021-07-16T08:05:02.000Z</time>
      </trkpt>
      <trkpt lat="47.32694" lon="-1.64354">
        <ele>78</ele>
        <time>2021-07-16T08:05:04.000Z</time>
      </trkpt>
      <trkpt lat="47.32703" lon="-1.64352">
        <ele>79</ele>
        <time>2021-07-16T08:05:06.000Z</time>
      </trkpt>
      <trkpt lat="47.32713" lon="-1.64348">
        <ele>79</ele>
        <time>2021-07-16T08:05:08.000Z</time>
      </trkpt>
      <trkpt lat="47.32722" lon="-1.64346">
        <ele>80</ele>
        <time>2021-07-16T08:05:10.000Z</time>
      </trkpt>
      <trkpt lat="47.32731" lon="-1.64343">
        <ele>81</ele>
        <time>2021-07-16T08:05:12.000Z</time>
      </trkpt>
      <trkpt lat="47.32744" lon="-1.6434">
        <ele>82</ele>
        <time>2021-07-16T08:05:15.000Z</time>
      </trkpt>
      <trkpt lat="47.32757" lon="-1.64336">
        <ele>82</ele>
        <time>2021-07-16T08:05:18.000Z</time>
      </trkpt>
      <trkpt lat="47.32767" lon="-1.64335">
        <ele>83</ele>
        <time>2021-07-16T08:05:20.000Z</time>
      </trkpt>
      <trkpt lat="47.32776" lon="-1.64334">
        <ele>84</ele>
        <time>2021-07-16T08:05:22.000Z</time>
      </trkpt>
      <trkpt lat="47.32786" lon="-1.64332">
        <ele>84</ele>
        <time>2021-07-16T08:05:24.000Z</time>
      </trkpt>
      <trkpt lat="47.32795" lon="-1.64331">
        <ele>84</ele>
        <time>2021-07-16T08:05:26.000Z</time>
      </trkpt>
      <trkpt lat="47.32805" lon="-1.6433">
        <ele>84</ele>
        <time>2021-07-16T08:05:28.000Z</time>
      </trkpt>
      <trkpt lat="47.32815" lon="-1.64329">
        <ele>84</ele>
        <time>2021-07-16T08:05:30.000Z</time>
      </trkpt>
      <trkpt lat="47.32824" lon="-1.64327">
        <ele>85</ele>
        <time>2021-07-16T08:05:32.000Z</time>
      </trkpt>
      <trkpt lat="47.32833" lon="-1.64325">
        <ele>86</ele>
        <time>2021-07-16T08:05:34.000Z</time>
      </trkpt>
      <trkpt lat="47.32843" lon="-1.64325">
        <ele>86</ele>
        <time>2021-07-16T08:05:36.000Z</time>
      </trkpt>
      <trkpt lat="47.32852" lon="-1.64323">
        <ele>86</ele>
        <time>2021-07-16T08:05:38.000Z</time>
      </trkpt>
      <trkpt lat="47.32865" lon="-1.64321">
        <ele>87</ele>
        <time>2021-07-16T08:05:41.000Z</time>
      </trkpt>
      <trkpt lat="47.32878" lon="-1.64319">
        <ele>87</ele>
        <time>2021-07-16T08:05:44.000Z</time>
      </trkpt>
      <trkpt lat="47.32891" lon="-1.64316">
        <ele>88</ele>
        <time>2021-07-16T08:05:47.000Z</time>
      </trkpt>
      <trkpt lat="47.32904" lon="-1.64312">
        <ele>89</ele>
        <time>2021-07-16T08:05:50.000Z</time>
      </trkpt>
      <trkpt lat="47.32913" lon="-1.6431">
        <ele>89</ele>
        <time>2021-07-16T08:05:52.000Z</time>
      </trkpt>
      <trkpt lat="47.32922" lon="-1.64309">
        <ele>89</ele>
        <time>2021-07-16T08:05:54.000Z</time>
      </trkpt>
      <trkpt lat="47.32931" lon="-1.64309">
        <ele>89</ele>
        <time>2021-07-16T08:05:56.000Z</time>
      </trkpt>
      <trkpt lat="47.32941" lon="-1.64308">
        <ele>90</ele>
        <time>2021-07-16T08:05:58.000Z</time>
      </trkpt>
      <trkpt lat="47.3295" lon="-1.64308">
        <ele>90</ele>
        <time>2021-07-16T08:06:00.000Z</time>
      </trkpt>
      <trkpt lat="47.32963" lon="-1.64308">
        <ele>90</ele>
        <time>2021-07-16T08:06:03.000Z</time>
      </trkpt>
      <trkpt lat="47.32976" lon="-1.6431">
        <ele>92</ele>
        <time>2021-07-16T08:06:06.000Z</time>
      </trkpt>
      <trkpt lat="47.32988" lon="-1.64311">
        <ele>92</ele>
        <time>2021-07-16T08:06:09.000Z</time>
      </trkpt>
      <trkpt lat="47.33" lon="-1.64314">
        <ele>93</ele>
        <time>2021-07-16T08:06:12.000Z</time>
      </trkpt>
      <trkpt lat="47.33011" lon="-1.64318">
        <ele>93</ele>
        <time>2021-07-16T08:06:15.000Z</time>
      </trkpt>
      <trkpt lat="47.33024" lon="-1.64321">
        <ele>93</ele>
        <time>2021-07-16T08:06:18.000Z</time>
      </trkpt>
      <trkpt lat="47.33035" lon="-1.64324">
        <ele>95</ele>
        <time>2021-07-16T08:06:21.000Z</time>
      </trkpt>
      <trkpt lat="47.33047" lon="-1.64329">
        <ele>96</ele>
        <time>2021-07-16T08:06:24.000Z</time>
      </trkpt>
      <trkpt lat="47.33058" lon="-1.64333">
        <ele>97</ele>
        <time>2021-07-16T08:06:27.000Z</time>
      </trkpt>
      <trkpt lat="47.33069" lon="-1.64336">
        <ele>97</ele>
        <time>2021-07-16T08:06:30.000Z</time>
      </trkpt>
      <trkpt lat="47.3308" lon="-1.6434">
        <ele>98</ele>
        <time>2021-07-16T08:06:33.000Z</time>
      </trkpt>
      <trkpt lat="47.33091" lon="-1.64344">
        <ele>99</ele>
        <time>2021-07-16T08:06:36.000Z</time>
      </trkpt>
      <trkpt lat="47.33101" lon="-1.64346">
        <ele>99</ele>
        <time>2021-07-16T08:06:39.000Z</time>
      </trkpt>
      <trkpt lat="47.33112" lon="-1.64346">
        <ele>100</ele>
        <time>2021-07-16T08:06:43.000Z</time>
      </trkpt>
      <trkpt lat="47.33125" lon="-1.64345">
        <ele>101</ele>
        <time>2021-07-16T08:06:46.000Z</time>
      </trkpt>
      <trkpt lat="47.33134" lon="-1.64342">
        <ele>101</ele>
        <time>2021-07-16T08:06:48.000Z</time>
      </trkpt>
      <trkpt lat="47.33147" lon="-1.64339">
        <ele>102</ele>
        <time>2021-07-16T08:06:51.000Z</time>
      </trkpt>
      <trkpt lat="47.33159" lon="-1.64335">
        <ele>103</ele>
        <time>2021-07-16T08:06:54.000Z</time>
      </trkpt>
      <trkpt lat="47.33172" lon="-1.64332">
        <ele>103</ele>
        <time>2021-07-16T08:06:57.000Z</time>
      </trkpt>
      <trkpt lat="47.33183" lon="-1.64328">
        <ele>104</ele>
        <time>2021-07-16T08:07:00.000Z</time>
      </trkpt>
      <trkpt lat="47.33196" lon="-1.64324">
        <ele>105</ele>
        <time>2021-07-16T08:07:03.000Z</time>
      </trkpt>
      <trkpt lat="47.33208" lon="-1.6432">
        <ele>105</ele>
        <time>2021-07-16T08:07:06.000Z</time>
      </trkpt>
      <trkpt lat="47.3322" lon="-1.64317">
        <ele>106</ele>
        <time>2021-07-16T08:07:09.000Z</time>
      </trkpt>
      <trkpt lat="47.33232" lon="-1.64313">
        <ele>107</ele>
        <time>2021-07-16T08:07:12.000Z</time>
      </trkpt>
      <trkpt lat="47.33244" lon="-1.64308">
        <ele>107</ele>
        <time>2021-07-16T08:07:15.000Z</time>
      </trkpt>
      <trkpt lat="47.33256" lon="-1.643">
        <ele>107</ele>
        <time>2021-07-16T08:07:18.000Z</time>
      </trkpt>
      <trkpt lat="47.33267" lon="-1.64289">
        <ele>108</ele>
        <time>2021-07-16T08:07:21.000Z</time>
      </trkpt>
      <trkpt lat="47.33274" lon="-1.6428">
        <ele>109</ele>
        <time>2021-07-16T08:07:23.000Z</time>
      </trkpt>
      <trkpt lat="47.33282" lon="-1.64271">
        <ele>109</ele>
        <time>2021-07-16T08:07:25.000Z</time>
      </trkpt>
      <trkpt lat="47.33289" lon="-1.64263">
        <ele>109</ele>
        <time>2021-07-16T08:07:27.000Z</time>
      </trkpt>
      <trkpt lat="47.33297" lon="-1.64254">
        <ele>109</ele>
        <time>2021-07-16T08:07:29.000Z</time>
      </trkpt>
      <trkpt lat="47.33306" lon="-1.64244">
        <ele>109</ele>
        <time>2021-07-16T08:07:31.000Z</time>
      </trkpt>
      <trkpt lat="47.33314" lon="-1.64234">
        <ele>109</ele>
        <time>2021-07-16T08:07:33.000Z</time>
      </trkpt>
      <trkpt lat="47.33323" lon="-1.64224">
        <ele>109</ele>
        <time>2021-07-16T08:07:35.000Z</time>
      </trkpt>
      <trkpt lat="47.33332" lon="-1.64213">
        <ele>108</ele>
        <time>2021-07-16T08:07:37.000Z</time>
      </trkpt>
      <trkpt lat="47.33341" lon="-1.64203">
        <ele>108</ele>
        <time>2021-07-16T08:07:39.000Z</time>
      </trkpt>
      <trkpt lat="47.33351" lon="-1.64191">
        <ele>108</ele>
        <time>2021-07-16T08:07:41.000Z</time>
      </trkpt>
      <trkpt lat="47.3336" lon="-1.6418">
        <ele>109</ele>
        <time>2021-07-16T08:07:43.000Z</time>
      </trkpt>
      <trkpt lat="47.33369" lon="-1.6417">
        <ele>109</ele>
        <time>2021-07-16T08:07:45.000Z</time>
      </trkpt>
      <trkpt lat="47.33378" lon="-1.64159">
        <ele>109</ele>
        <time>2021-07-16T08:07:47.000Z</time>
      </trkpt>
      <trkpt lat="47.33388" lon="-1.64148">
        <ele>109</ele>
        <time>2021-07-16T08:07:49.000Z</time>
      </trkpt>
      <trkpt lat="47.33398" lon="-1.64136">
        <ele>108</ele>
        <time>2021-07-16T08:07:51.000Z</time>
      </trkpt>
      <trkpt lat="47.33408" lon="-1.64124">
        <ele>108</ele>
        <time>2021-07-16T08:07:53.000Z</time>
      </trkpt>
      <trkpt lat="47.33417" lon="-1.64113">
        <ele>108</ele>
        <time>2021-07-16T08:07:55.000Z</time>
      </trkpt>
      <trkpt lat="47.33426" lon="-1.64102">
        <ele>109</ele>
        <time>2021-07-16T08:07:57.000Z</time>
      </trkpt>
      <trkpt lat="47.33436" lon="-1.64091">
        <ele>109</ele>
        <time>2021-07-16T08:07:59.000Z</time>
      </trkpt>
      <trkpt lat="47.33445" lon="-1.64079">
        <ele>109</ele>
        <time>2021-07-16T08:08:01.000Z</time>
      </trkpt>
      <trkpt lat="47.33455" lon="-1.64068">
        <ele>109</ele>
        <time>2021-07-16T08:08:03.000Z</time>
      </trkpt>
      <trkpt lat="47.33464" lon="-1.64057">
        <ele>110</ele>
        <time>2021-07-16T08:08:05.000Z</time>
      </trkpt>
      <trkpt lat="47.33474" lon="-1.64046">
        <ele>109</ele>
        <time>2021-07-16T08:08:07.000Z</time>
      </trkpt>
      <trkpt lat="47.33484" lon="-1.64036">
        <ele>110</ele>
        <time>2021-07-16T08:08:09.000Z</time>
      </trkpt>
      <trkpt lat="47.33493" lon="-1.64024">
        <ele>110</ele>
        <time>2021-07-16T08:08:11.000Z</time>
      </trkpt>
      <trkpt lat="47.33503" lon="-1.64014">
        <ele>110</ele>
        <time>2021-07-16T08:08:13.000Z</time>
      </trkpt>
      <trkpt lat="47.33512" lon="-1.64003">
        <ele>110</ele>
        <time>2021-07-16T08:08:15.000Z</time>
      </trkpt>
      <trkpt lat="47.33521" lon="-1.63992">
        <ele>110</ele>
        <time>2021-07-16T08:08:17.000Z</time>
      </trkpt>
      <trkpt lat="47.33531" lon="-1.63981">
        <ele>110</ele>
        <time>2021-07-16T08:08:19.000Z</time>
      </trkpt>
      <trkpt lat="47.3354" lon="-1.6397">
        <ele>110</ele>
        <time>2021-07-16T08:08:21.000Z</time>
      </trkpt>
      <trkpt lat="47.3355" lon="-1.63959">
        <ele>110</ele>
        <time>2021-07-16T08:08:23.000Z</time>
      </trkpt>
      <trkpt lat="47.33559" lon="-1.63947">
        <ele>110</ele>
        <time>2021-07-16T08:08:25.000Z</time>
      </trkpt>
      <trkpt lat="47.33568" lon="-1.63936">
        <ele>110</ele>
        <time>2021-07-16T08:08:27.000Z</time>
      </trkpt>
      <trkpt lat="47.33578" lon="-1.63924">
        <ele>110</ele>
        <time>2021-07-16T08:08:29.000Z</time>
      </trkpt>
      <trkpt lat="47.33588" lon="-1.63913">
        <ele>110</ele>
        <time>2021-07-16T08:08:31.000Z</time>
      </trkpt>
      <trkpt lat="47.33598" lon="-1.63902">
        <ele>109</ele>
        <time>2021-07-16T08:08:33.000Z</time>
      </trkpt>
      <trkpt lat="47.33608" lon="-1.63891">
        <ele>109</ele>
        <time>2021-07-16T08:08:35.000Z</time>
      </trkpt>
      <trkpt lat="47.33618" lon="-1.63879">
        <ele>110</ele>
        <time>2021-07-16T08:08:37.000Z</time>
      </trkpt>
      <trkpt lat="47.33629" lon="-1.63867">
        <ele>110</ele>
        <time>2021-07-16T08:08:39.000Z</time>
      </trkpt>
      <trkpt lat="47.33639" lon="-1.63855">
        <ele>110</ele>
        <time>2021-07-16T08:08:41.000Z</time>
      </trkpt>
      <trkpt lat="47.33649" lon="-1.63842">
        <ele>110</ele>
        <time>2021-07-16T08:08:43.000Z</time>
      </trkpt>
      <trkpt lat="47.33659" lon="-1.6383">
        <ele>109</ele>
        <time>2021-07-16T08:08:45.000Z</time>
      </trkpt>
      <trkpt lat="47.33668" lon="-1.63818">
        <ele>109</ele>
        <time>2021-07-16T08:08:47.000Z</time>
      </trkpt>
      <trkpt lat="47.33678" lon="-1.63806">
        <ele>109</ele>
        <time>2021-07-16T08:08:49.000Z</time>
      </trkpt>
      <trkpt lat="47.33688" lon="-1.63794">
        <ele>109</ele>
        <time>2021-07-16T08:08:51.000Z</time>
      </trkpt>
      <trkpt lat="47.33699" lon="-1.63782">
        <ele>109</ele>
        <time>2021-07-16T08:08:53.000Z</time>
      </trkpt>
      <trkpt lat="47.33709" lon="-1.6377">
        <ele>109</ele>
        <time>2021-07-16T08:08:55.000Z</time>
      </trkpt>
      <trkpt lat="47.33719" lon="-1.63758">
        <ele>109</ele>
        <time>2021-07-16T08:08:57.000Z</time>
      </trkpt>
      <trkpt lat="47.33729" lon="-1.63746">
        <ele>110</ele>
        <time>2021-07-16T08:08:59.000Z</time>
      </trkpt>
      <trkpt lat="47.33739" lon="-1.63734">
        <ele>109</ele>
        <time>2021-07-16T08:09:01.000Z</time>
      </trkpt>
      <trkpt lat="47.33748" lon="-1.63722">
        <ele>109</ele>
        <time>2021-07-16T08:09:03.000Z</time>
      </trkpt>
      <trkpt lat="47.33757" lon="-1.63709">
        <ele>109</ele>
        <time>2021-07-16T08:09:05.000Z</time>
      </trkpt>
      <trkpt lat="47.33767" lon="-1.63697">
        <ele>109</ele>
        <time>2021-07-16T08:09:07.000Z</time>
      </trkpt>
      <trkpt lat="47.33777" lon="-1.63685">
        <ele>109</ele>
        <time>2021-07-16T08:09:09.000Z</time>
      </trkpt>
      <trkpt lat="47.33788" lon="-1.63673">
        <ele>110</ele>
        <time>2021-07-16T08:09:11.000Z</time>
      </trkpt>
      <trkpt lat="47.33798" lon="-1.6366">
        <ele>110</ele>
        <time>2021-07-16T08:09:13.000Z</time>
      </trkpt>
      <trkpt lat="47.3381" lon="-1.63647">
        <ele>110</ele>
        <time>2021-07-16T08:09:15.000Z</time>
      </trkpt>
      <trkpt lat="47.33821" lon="-1.63635">
        <ele>110</ele>
        <time>2021-07-16T08:09:17.000Z</time>
      </trkpt>
      <trkpt lat="47.33831" lon="-1.63624">
        <ele>109</ele>
        <time>2021-07-16T08:09:19.000Z</time>
      </trkpt>
      <trkpt lat="47.33841" lon="-1.63613">
        <ele>109</ele>
        <time>2021-07-16T08:09:21.000Z</time>
      </trkpt>
      <trkpt lat="47.3385" lon="-1.63603">
        <ele>110</ele>
        <time>2021-07-16T08:09:23.000Z</time>
      </trkpt>
      <trkpt lat="47.33857" lon="-1.63595">
        <ele>110</ele>
        <time>2021-07-16T08:09:25.000Z</time>
      </trkpt>
      <trkpt lat="47.33869" lon="-1.63583">
        <ele>109</ele>
        <time>2021-07-16T08:09:28.000Z</time>
      </trkpt>
      <trkpt lat="47.33879" lon="-1.63572">
        <ele>109</ele>
        <time>2021-07-16T08:09:30.000Z</time>
      </trkpt>
      <trkpt lat="47.3389" lon="-1.63559">
        <ele>109</ele>
        <time>2021-07-16T08:09:32.000Z</time>
      </trkpt>
      <trkpt lat="47.339" lon="-1.63546">
        <ele>110</ele>
        <time>2021-07-16T08:09:34.000Z</time>
      </trkpt>
      <trkpt lat="47.33912" lon="-1.63535">
        <ele>110</ele>
        <time>2021-07-16T08:09:36.000Z</time>
      </trkpt>
      <trkpt lat="47.33923" lon="-1.63524">
        <ele>110</ele>
        <time>2021-07-16T08:09:38.000Z</time>
      </trkpt>
      <trkpt lat="47.33935" lon="-1.63515">
        <ele>110</ele>
        <time>2021-07-16T08:09:40.000Z</time>
      </trkpt>
      <trkpt lat="47.33946" lon="-1.63507">
        <ele>111</ele>
        <time>2021-07-16T08:09:42.000Z</time>
      </trkpt>
      <trkpt lat="47.33958" lon="-1.63499">
        <ele>111</ele>
        <time>2021-07-16T08:09:44.000Z</time>
      </trkpt>
      <trkpt lat="47.3397" lon="-1.63492">
        <ele>110</ele>
        <time>2021-07-16T08:09:46.000Z</time>
      </trkpt>
      <trkpt lat="47.33982" lon="-1.63485">
        <ele>110</ele>
        <time>2021-07-16T08:09:48.000Z</time>
      </trkpt>
      <trkpt lat="47.33993" lon="-1.63479">
        <ele>110</ele>
        <time>2021-07-16T08:09:50.000Z</time>
      </trkpt>
      <trkpt lat="47.34005" lon="-1.63471">
        <ele>110</ele>
        <time>2021-07-16T08:09:52.000Z</time>
      </trkpt>
      <trkpt lat="47.34018" lon="-1.63463">
        <ele>110</ele>
        <time>2021-07-16T08:09:54.000Z</time>
      </trkpt>
      <trkpt lat="47.34031" lon="-1.63456">
        <ele>110</ele>
        <time>2021-07-16T08:09:56.000Z</time>
      </trkpt>
      <trkpt lat="47.34044" lon="-1.63448">
        <ele>110</ele>
        <time>2021-07-16T08:09:58.000Z</time>
      </trkpt>
      <trkpt lat="47.34057" lon="-1.63441">
        <ele>110</ele>
        <time>2021-07-16T08:10:00.000Z</time>
      </trkpt>
      <trkpt lat="47.3407" lon="-1.63434">
        <ele>111</ele>
        <time>2021-07-16T08:10:02.000Z</time>
      </trkpt>
      <trkpt lat="47.34083" lon="-1.63427">
        <ele>112</ele>
        <time>2021-07-16T08:10:04.000Z</time>
      </trkpt>
      <trkpt lat="47.34096" lon="-1.6342">
        <ele>112</ele>
        <time>2021-07-16T08:10:06.000Z</time>
      </trkpt>
      <trkpt lat="47.34109" lon="-1.63413">
        <ele>112</ele>
        <time>2021-07-16T08:10:08.000Z</time>
      </trkpt>
      <trkpt lat="47.34121" lon="-1.63406">
        <ele>112</ele>
        <time>2021-07-16T08:10:10.000Z</time>
      </trkpt>
      <trkpt lat="47.34134" lon="-1.63397">
        <ele>112</ele>
        <time>2021-07-16T08:10:12.000Z</time>
      </trkpt>
      <trkpt lat="47.34146" lon="-1.63389">
        <ele>111</ele>
        <time>2021-07-16T08:10:14.000Z</time>
      </trkpt>
      <trkpt lat="47.34158" lon="-1.63378">
        <ele>110</ele>
        <time>2021-07-16T08:10:16.000Z</time>
      </trkpt>
      <trkpt lat="47.3417" lon="-1.63367">
        <ele>110</ele>
        <time>2021-07-16T08:10:18.000Z</time>
      </trkpt>
      <trkpt lat="47.34182" lon="-1.63357">
        <ele>110</ele>
        <time>2021-07-16T08:10:20.000Z</time>
      </trkpt>
      <trkpt lat="47.34193" lon="-1.63345">
        <ele>110</ele>
        <time>2021-07-16T08:10:22.000Z</time>
      </trkpt>
      <trkpt lat="47.34204" lon="-1.63333">
        <ele>109</ele>
        <time>2021-07-16T08:10:24.000Z</time>
      </trkpt>
      <trkpt lat="47.34215" lon="-1.63321">
        <ele>109</ele>
        <time>2021-07-16T08:10:26.000Z</time>
      </trkpt>
      <trkpt lat="47.34226" lon="-1.63308">
        <ele>109</ele>
        <time>2021-07-16T08:10:28.000Z</time>
      </trkpt>
      <trkpt lat="47.34236" lon="-1.63294">
        <ele>108</ele>
        <time>2021-07-16T08:10:30.000Z</time>
      </trkpt>
      <trkpt lat="47.34244" lon="-1.63279">
        <ele>108</ele>
        <time>2021-07-16T08:10:32.000Z</time>
      </trkpt>
      <trkpt lat="47.34251" lon="-1.63261">
        <ele>108</ele>
        <time>2021-07-16T08:10:34.000Z</time>
      </trkpt>
      <trkpt lat="47.34257" lon="-1.63243">
        <ele>107</ele>
        <time>2021-07-16T08:10:36.000Z</time>
      </trkpt>
      <trkpt lat="47.34264" lon="-1.63225">
        <ele>107</ele>
        <time>2021-07-16T08:10:38.000Z</time>
      </trkpt>
      <trkpt lat="47.3427" lon="-1.63206">
        <ele>107</ele>
        <time>2021-07-16T08:10:40.000Z</time>
      </trkpt>
      <trkpt lat="47.34278" lon="-1.63188">
        <ele>106</ele>
        <time>2021-07-16T08:10:42.000Z</time>
      </trkpt>
      <trkpt lat="47.34287" lon="-1.63172">
        <ele>106</ele>
        <time>2021-07-16T08:10:44.000Z</time>
      </trkpt>
      <trkpt lat="47.34298" lon="-1.63158">
        <ele>105</ele>
        <time>2021-07-16T08:10:46.000Z</time>
      </trkpt>
      <trkpt lat="47.34309" lon="-1.63143">
        <ele>105</ele>
        <time>2021-07-16T08:10:48.000Z</time>
      </trkpt>
      <trkpt lat="47.3432" lon="-1.63131">
        <ele>105</ele>
        <time>2021-07-16T08:10:50.000Z</time>
      </trkpt>
      <trkpt lat="47.34332" lon="-1.63119">
        <ele>105</ele>
        <time>2021-07-16T08:10:52.000Z</time>
      </trkpt>
      <trkpt lat="47.34344" lon="-1.63106">
        <ele>105</ele>
        <time>2021-07-16T08:10:54.000Z</time>
      </trkpt>
      <trkpt lat="47.34355" lon="-1.63094">
        <ele>105</ele>
        <time>2021-07-16T08:10:56.000Z</time>
      </trkpt>
      <trkpt lat="47.34367" lon="-1.63082">
        <ele>105</ele>
        <time>2021-07-16T08:10:58.000Z</time>
      </trkpt>
      <trkpt lat="47.34378" lon="-1.6307">
        <ele>104</ele>
        <time>2021-07-16T08:11:00.000Z</time>
      </trkpt>
      <trkpt lat="47.3439" lon="-1.63059">
        <ele>104</ele>
        <time>2021-07-16T08:11:02.000Z</time>
      </trkpt>
      <trkpt lat="47.34401" lon="-1.63047">
        <ele>104</ele>
        <time>2021-07-16T08:11:04.000Z</time>
      </trkpt>
      <trkpt lat="47.34412" lon="-1.63035">
        <ele>104</ele>
        <time>2021-07-16T08:11:06.000Z</time>
      </trkpt>
      <trkpt lat="47.34423" lon="-1.63023">
        <ele>105</ele>
        <time>2021-07-16T08:11:08.000Z</time>
      </trkpt>
      <trkpt lat="47.34434" lon="-1.63011">
        <ele>105</ele>
        <time>2021-07-16T08:11:10.000Z</time>
      </trkpt>
      <trkpt lat="47.34445" lon="-1.62999">
        <ele>105</ele>
        <time>2021-07-16T08:11:12.000Z</time>
      </trkpt>
      <trkpt lat="47.34456" lon="-1.62988">
        <ele>105</ele>
        <time>2021-07-16T08:11:14.000Z</time>
      </trkpt>
      <trkpt lat="47.34467" lon="-1.62977">
        <ele>106</ele>
        <time>2021-07-16T08:11:16.000Z</time>
      </trkpt>
      <trkpt lat="47.34477" lon="-1.62965">
        <ele>106</ele>
        <time>2021-07-16T08:11:18.000Z</time>
      </trkpt>
      <trkpt lat="47.34488" lon="-1.62954">
        <ele>106</ele>
        <time>2021-07-16T08:11:20.000Z</time>
      </trkpt>
      <trkpt lat="47.34499" lon="-1.62943">
        <ele>106</ele>
        <time>2021-07-16T08:11:22.000Z</time>
      </trkpt>
      <trkpt lat="47.3451" lon="-1.62931">
        <ele>106</ele>
        <time>2021-07-16T08:11:24.000Z</time>
      </trkpt>
      <trkpt lat="47.34521" lon="-1.6292">
        <ele>106</ele>
        <time>2021-07-16T08:11:26.000Z</time>
      </trkpt>
      <trkpt lat="47.34532" lon="-1.62908">
        <ele>106</ele>
        <time>2021-07-16T08:11:28.000Z</time>
      </trkpt>
      <trkpt lat="47.34543" lon="-1.62897">
        <ele>106</ele>
        <time>2021-07-16T08:11:30.000Z</time>
      </trkpt>
      <trkpt lat="47.34554" lon="-1.62886">
        <ele>105</ele>
        <time>2021-07-16T08:11:32.000Z</time>
      </trkpt>
      <trkpt lat="47.34565" lon="-1.62875">
        <ele>105</ele>
        <time>2021-07-16T08:11:34.000Z</time>
      </trkpt>
      <trkpt lat="47.34576" lon="-1.62865">
        <ele>105</ele>
        <time>2021-07-16T08:11:36.000Z</time>
      </trkpt>
      <trkpt lat="47.34587" lon="-1.62853">
        <ele>105</ele>
        <time>2021-07-16T08:11:38.000Z</time>
      </trkpt>
      <trkpt lat="47.34597" lon="-1.62841">
        <ele>106</ele>
        <time>2021-07-16T08:11:40.000Z</time>
      </trkpt>
      <trkpt lat="47.34607" lon="-1.62829">
        <ele>106</ele>
        <time>2021-07-16T08:11:42.000Z</time>
      </trkpt>
      <trkpt lat="47.34617" lon="-1.62817">
        <ele>106</ele>
        <time>2021-07-16T08:11:44.000Z</time>
      </trkpt>
      <trkpt lat="47.34627" lon="-1.62804">
        <ele>106</ele>
        <time>2021-07-16T08:11:46.000Z</time>
      </trkpt>
      <trkpt lat="47.34636" lon="-1.62791">
        <ele>106</ele>
        <time>2021-07-16T08:11:48.000Z</time>
      </trkpt>
      <trkpt lat="47.34645" lon="-1.62777">
        <ele>105</ele>
        <time>2021-07-16T08:11:50.000Z</time>
      </trkpt>
      <trkpt lat="47.34654" lon="-1.62763">
        <ele>106</ele>
        <time>2021-07-16T08:11:52.000Z</time>
      </trkpt>
      <trkpt lat="47.34663" lon="-1.62749">
        <ele>105</ele>
        <time>2021-07-16T08:11:54.000Z</time>
      </trkpt>
      <trkpt lat="47.34671" lon="-1.62734">
        <ele>105</ele>
        <time>2021-07-16T08:11:56.000Z</time>
      </trkpt>
      <trkpt lat="47.34678" lon="-1.62718">
        <ele>105</ele>
        <time>2021-07-16T08:11:58.000Z</time>
      </trkpt>
      <trkpt lat="47.34685" lon="-1.62702">
        <ele>105</ele>
        <time>2021-07-16T08:12:00.000Z</time>
      </trkpt>
      <trkpt lat="47.34692" lon="-1.62685">
        <ele>104</ele>
        <time>2021-07-16T08:12:02.000Z</time>
      </trkpt>
      <trkpt lat="47.34698" lon="-1.6267">
        <ele>104</ele>
        <time>2021-07-16T08:12:04.000Z</time>
      </trkpt>
      <trkpt lat="47.34703" lon="-1.62653">
        <ele>104</ele>
        <time>2021-07-16T08:12:06.000Z</time>
      </trkpt>
      <trkpt lat="47.34709" lon="-1.62638">
        <ele>104</ele>
        <time>2021-07-16T08:12:08.000Z</time>
      </trkpt>
      <trkpt lat="47.34716" lon="-1.62624">
        <ele>104</ele>
        <time>2021-07-16T08:12:10.000Z</time>
      </trkpt>
      <trkpt lat="47.34721" lon="-1.62609">
        <ele>104</ele>
        <time>2021-07-16T08:12:12.000Z</time>
      </trkpt>
      <trkpt lat="47.34725" lon="-1.62595">
        <ele>103</ele>
        <time>2021-07-16T08:12:14.000Z</time>
      </trkpt>
      <trkpt lat="47.3473" lon="-1.62581">
        <ele>103</ele>
        <time>2021-07-16T08:12:18.000Z</time>
      </trkpt>
      <trkpt lat="47.34736" lon="-1.62563">
        <ele>103</ele>
        <time>2021-07-16T08:12:21.000Z</time>
      </trkpt>
      <trkpt lat="47.34742" lon="-1.62546">
        <ele>103</ele>
        <time>2021-07-16T08:12:23.000Z</time>
      </trkpt>
      <trkpt lat="47.34749" lon="-1.6253">
        <ele>103</ele>
        <time>2021-07-16T08:12:25.000Z</time>
      </trkpt>
      <trkpt lat="47.34755" lon="-1.62513">
        <ele>103</ele>
        <time>2021-07-16T08:12:27.000Z</time>
      </trkpt>
      <trkpt lat="47.34761" lon="-1.62498">
        <ele>103</ele>
        <time>2021-07-16T08:12:29.000Z</time>
      </trkpt>
      <trkpt lat="47.34769" lon="-1.62483">
        <ele>102</ele>
        <time>2021-07-16T08:12:31.000Z</time>
      </trkpt>
      <trkpt lat="47.34777" lon="-1.62467">
        <ele>102</ele>
        <time>2021-07-16T08:12:33.000Z</time>
      </trkpt>
      <trkpt lat="47.34786" lon="-1.62452">
        <ele>101</ele>
        <time>2021-07-16T08:12:35.000Z</time>
      </trkpt>
      <trkpt lat="47.34796" lon="-1.62437">
        <ele>101</ele>
        <time>2021-07-16T08:12:37.000Z</time>
      </trkpt>
      <trkpt lat="47.34807" lon="-1.62422">
        <ele>101</ele>
        <time>2021-07-16T08:12:39.000Z</time>
      </trkpt>
      <trkpt lat="47.34817" lon="-1.62407">
        <ele>101</ele>
        <time>2021-07-16T08:12:41.000Z</time>
      </trkpt>
      <trkpt lat="47.34826" lon="-1.62392">
        <ele>101</ele>
        <time>2021-07-16T08:12:43.000Z</time>
      </trkpt>
      <trkpt lat="47.34835" lon="-1.62377">
        <ele>101</ele>
        <time>2021-07-16T08:12:45.000Z</time>
      </trkpt>
      <trkpt lat="47.34845" lon="-1.62362">
        <ele>101</ele>
        <time>2021-07-16T08:12:47.000Z</time>
      </trkpt>
      <trkpt lat="47.34854" lon="-1.62347">
        <ele>100</ele>
        <time>2021-07-16T08:12:49.000Z</time>
      </trkpt>
      <trkpt lat="47.34863" lon="-1.62332">
        <ele>100</ele>
        <time>2021-07-16T08:12:51.000Z</time>
      </trkpt>
      <trkpt lat="47.34872" lon="-1.62316">
        <ele>99</ele>
        <time>2021-07-16T08:12:53.000Z</time>
      </trkpt>
      <trkpt lat="47.34881" lon="-1.623">
        <ele>99</ele>
        <time>2021-07-16T08:12:55.000Z</time>
      </trkpt>
      <trkpt lat="47.34891" lon="-1.62285">
        <ele>100</ele>
        <time>2021-07-16T08:12:57.000Z</time>
      </trkpt>
      <trkpt lat="47.34901" lon="-1.6227">
        <ele>100</ele>
        <time>2021-07-16T08:12:59.000Z</time>
      </trkpt>
      <trkpt lat="47.34911" lon="-1.62255">
        <ele>100</ele>
        <time>2021-07-16T08:13:01.000Z</time>
      </trkpt>
      <trkpt lat="47.34921" lon="-1.62242">
        <ele>100</ele>
        <time>2021-07-16T08:13:03.000Z</time>
      </trkpt>
      <trkpt lat="47.34934" lon="-1.62231">
        <ele>100</ele>
        <time>2021-07-16T08:13:05.000Z</time>
      </trkpt>
      <trkpt lat="47.34949" lon="-1.62224">
        <ele>101</ele>
        <time>2021-07-16T08:13:07.000Z</time>
      </trkpt>
      <trkpt lat="47.34963" lon="-1.62217">
        <ele>101</ele>
        <time>2021-07-16T08:13:09.000Z</time>
      </trkpt>
      <trkpt lat="47.34976" lon="-1.62211">
        <ele>101</ele>
        <time>2021-07-16T08:13:11.000Z</time>
      </trkpt>
      <trkpt lat="47.34989" lon="-1.62204">
        <ele>101</ele>
        <time>2021-07-16T08:13:13.000Z</time>
      </trkpt>
      <trkpt lat="47.35002" lon="-1.62196">
        <ele>100</ele>
        <time>2021-07-16T08:13:15.000Z</time>
      </trkpt>
      <trkpt lat="47.35014" lon="-1.62185">
        <ele>100</ele>
        <time>2021-07-16T08:13:17.000Z</time>
      </trkpt>
      <trkpt lat="47.35025" lon="-1.62171">
        <ele>99</ele>
        <time>2021-07-16T08:13:19.000Z</time>
      </trkpt>
      <trkpt lat="47.35036" lon="-1.62156">
        <ele>99</ele>
        <time>2021-07-16T08:13:21.000Z</time>
      </trkpt>
      <trkpt lat="47.35046" lon="-1.62141">
        <ele>99</ele>
        <time>2021-07-16T08:13:23.000Z</time>
      </trkpt>
      <trkpt lat="47.35057" lon="-1.62125">
        <ele>99</ele>
        <time>2021-07-16T08:13:25.000Z</time>
      </trkpt>
      <trkpt lat="47.35069" lon="-1.62109">
        <ele>98</ele>
        <time>2021-07-16T08:13:27.000Z</time>
      </trkpt>
      <trkpt lat="47.35081" lon="-1.62095">
        <ele>97</ele>
        <time>2021-07-16T08:13:29.000Z</time>
      </trkpt>
      <trkpt lat="47.35093" lon="-1.6208">
        <ele>97</ele>
        <time>2021-07-16T08:13:31.000Z</time>
      </trkpt>
      <trkpt lat="47.35105" lon="-1.62064">
        <ele>96</ele>
        <time>2021-07-16T08:13:33.000Z</time>
      </trkpt>
      <trkpt lat="47.35117" lon="-1.62048">
        <ele>96</ele>
        <time>2021-07-16T08:13:35.000Z</time>
      </trkpt>
      <trkpt lat="47.35129" lon="-1.62032">
        <ele>96</ele>
        <time>2021-07-16T08:13:37.000Z</time>
      </trkpt>
      <trkpt lat="47.3514" lon="-1.62016">
        <ele>96</ele>
        <time>2021-07-16T08:13:39.000Z</time>
      </trkpt>
      <trkpt lat="47.35152" lon="-1.62">
        <ele>95</ele>
        <time>2021-07-16T08:13:41.000Z</time>
      </trkpt>
      <trkpt lat="47.35163" lon="-1.61985">
        <ele>95</ele>
        <time>2021-07-16T08:13:43.000Z</time>
      </trkpt>
      <trkpt lat="47.35175" lon="-1.61969">
        <ele>94</ele>
        <time>2021-07-16T08:13:45.000Z</time>
      </trkpt>
      <trkpt lat="47.35192" lon="-1.61948">
        <ele>94</ele>
        <time>2021-07-16T08:13:48.000Z</time>
      </trkpt>
      <trkpt lat="47.35203" lon="-1.61933">
        <ele>94</ele>
        <time>2021-07-16T08:13:50.000Z</time>
      </trkpt>
      <trkpt lat="47.35214" lon="-1.6192">
        <ele>94</ele>
        <time>2021-07-16T08:13:52.000Z</time>
      </trkpt>
      <trkpt lat="47.35226" lon="-1.61906">
        <ele>94</ele>
        <time>2021-07-16T08:13:54.000Z</time>
      </trkpt>
      <trkpt lat="47.35237" lon="-1.61891">
        <ele>94</ele>
        <time>2021-07-16T08:13:56.000Z</time>
      </trkpt>
      <trkpt lat="47.35248" lon="-1.61877">
        <ele>94</ele>
        <time>2021-07-16T08:13:58.000Z</time>
      </trkpt>
      <trkpt lat="47.35266" lon="-1.61857">
        <ele>94</ele>
        <time>2021-07-16T08:14:01.000Z</time>
      </trkpt>
      <trkpt lat="47.35277" lon="-1.61843">
        <ele>94</ele>
        <time>2021-07-16T08:14:03.000Z</time>
      </trkpt>
      <trkpt lat="47.35289" lon="-1.6183">
        <ele>94</ele>
        <time>2021-07-16T08:14:05.000Z</time>
      </trkpt>
      <trkpt lat="47.35302" lon="-1.61816">
        <ele>93</ele>
        <time>2021-07-16T08:14:07.000Z</time>
      </trkpt>
      <trkpt lat="47.35314" lon="-1.61803">
        <ele>93</ele>
        <time>2021-07-16T08:14:09.000Z</time>
      </trkpt>
      <trkpt lat="47.35326" lon="-1.6179">
        <ele>92</ele>
        <time>2021-07-16T08:14:11.000Z</time>
      </trkpt>
      <trkpt lat="47.35338" lon="-1.61777">
        <ele>92</ele>
        <time>2021-07-16T08:14:13.000Z</time>
      </trkpt>
      <trkpt lat="47.3535" lon="-1.61764">
        <ele>92</ele>
        <time>2021-07-16T08:14:15.000Z</time>
      </trkpt>
      <trkpt lat="47.35362" lon="-1.61752">
        <ele>92</ele>
        <time>2021-07-16T08:14:17.000Z</time>
      </trkpt>
      <trkpt lat="47.35373" lon="-1.6174">
        <ele>92</ele>
        <time>2021-07-16T08:14:19.000Z</time>
      </trkpt>
      <trkpt lat="47.35385" lon="-1.61729">
        <ele>92</ele>
        <time>2021-07-16T08:14:21.000Z</time>
      </trkpt>
      <trkpt lat="47.35398" lon="-1.61718">
        <ele>92</ele>
        <time>2021-07-16T08:14:23.000Z</time>
      </trkpt>
      <trkpt lat="47.3541" lon="-1.61708">
        <ele>92</ele>
        <time>2021-07-16T08:14:25.000Z</time>
      </trkpt>
      <trkpt lat="47.35424" lon="-1.61696">
        <ele>92</ele>
        <time>2021-07-16T08:14:27.000Z</time>
      </trkpt>
      <trkpt lat="47.35436" lon="-1.61685">
        <ele>92</ele>
        <time>2021-07-16T08:14:29.000Z</time>
      </trkpt>
      <trkpt lat="47.35448" lon="-1.61675">
        <ele>92</ele>
        <time>2021-07-16T08:14:31.000Z</time>
      </trkpt>
      <trkpt lat="47.35461" lon="-1.61665">
        <ele>92</ele>
        <time>2021-07-16T08:14:33.000Z</time>
      </trkpt>
      <trkpt lat="47.35474" lon="-1.61655">
        <ele>92</ele>
        <time>2021-07-16T08:14:35.000Z</time>
      </trkpt>
      <trkpt lat="47.35485" lon="-1.61645">
        <ele>92</ele>
        <time>2021-07-16T08:14:37.000Z</time>
      </trkpt>
      <trkpt lat="47.35496" lon="-1.61637">
        <ele>92</ele>
        <time>2021-07-16T08:14:39.000Z</time>
      </trkpt>
      <trkpt lat="47.35505" lon="-1.61628">
        <ele>92</ele>
        <time>2021-07-16T08:14:41.000Z</time>
      </trkpt>
      <trkpt lat="47.3551" lon="-1.61615">
        <ele>91</ele>
        <time>2021-07-16T08:14:43.000Z</time>
      </trkpt>
      <trkpt lat="47.35509" lon="-1.61596">
        <ele>91</ele>
        <time>2021-07-16T08:14:45.000Z</time>
      </trkpt>
      <trkpt lat="47.35505" lon="-1.61576">
        <ele>90</ele>
        <time>2021-07-16T08:14:47.000Z</time>
      </trkpt>
      <trkpt lat="47.35502" lon="-1.61555">
        <ele>89</ele>
        <time>2021-07-16T08:14:49.000Z</time>
      </trkpt>
      <trkpt lat="47.35498" lon="-1.61534">
        <ele>88</ele>
        <time>2021-07-16T08:14:51.000Z</time>
      </trkpt>
      <trkpt lat="47.35495" lon="-1.61513">
        <ele>88</ele>
        <time>2021-07-16T08:14:53.000Z</time>
      </trkpt>
      <trkpt lat="47.35492" lon="-1.61492">
        <ele>87</ele>
        <time>2021-07-16T08:14:55.000Z</time>
      </trkpt>
      <trkpt lat="47.35489" lon="-1.6147">
        <ele>86</ele>
        <time>2021-07-16T08:14:57.000Z</time>
      </trkpt>
      <trkpt lat="47.35486" lon="-1.61449">
        <ele>86</ele>
        <time>2021-07-16T08:14:59.000Z</time>
      </trkpt>
      <trkpt lat="47.35483" lon="-1.61427">
        <ele>85</ele>
        <time>2021-07-16T08:15:01.000Z</time>
      </trkpt>
      <trkpt lat="47.35479" lon="-1.61405">
        <ele>85</ele>
        <time>2021-07-16T08:15:03.000Z</time>
      </trkpt>
      <trkpt lat="47.35475" lon="-1.61384">
        <ele>85</ele>
        <time>2021-07-16T08:15:05.000Z</time>
      </trkpt>
      <trkpt lat="47.3547" lon="-1.61363">
        <ele>85</ele>
        <time>2021-07-16T08:15:07.000Z</time>
      </trkpt>
      <trkpt lat="47.35465" lon="-1.61342">
        <ele>85</ele>
        <time>2021-07-16T08:15:09.000Z</time>
      </trkpt>
      <trkpt lat="47.3546" lon="-1.61321">
        <ele>84</ele>
        <time>2021-07-16T08:15:11.000Z</time>
      </trkpt>
      <trkpt lat="47.35457" lon="-1.61299">
        <ele>84</ele>
        <time>2021-07-16T08:15:13.000Z</time>
      </trkpt>
      <trkpt lat="47.35452" lon="-1.61277">
        <ele>83</ele>
        <time>2021-07-16T08:15:15.000Z</time>
      </trkpt>
      <trkpt lat="47.35447" lon="-1.61256">
        <ele>83</ele>
        <time>2021-07-16T08:15:17.000Z</time>
      </trkpt>
      <trkpt lat="47.35442" lon="-1.61235">
        <ele>83</ele>
        <time>2021-07-16T08:15:19.000Z</time>
      </trkpt>
      <trkpt lat="47.35439" lon="-1.61215">
        <ele>82</ele>
        <time>2021-07-16T08:15:21.000Z</time>
      </trkpt>
      <trkpt lat="47.35436" lon="-1.61195">
        <ele>82</ele>
        <time>2021-07-16T08:15:23.000Z</time>
      </trkpt>
      <trkpt lat="47.35433" lon="-1.61173">
        <ele>81</ele>
        <time>2021-07-16T08:15:25.000Z</time>
      </trkpt>
      <trkpt lat="47.35432" lon="-1.61152">
        <ele>80</ele>
        <time>2021-07-16T08:15:27.000Z</time>
      </trkpt>
      <trkpt lat="47.35431" lon="-1.61131">
        <ele>80</ele>
        <time>2021-07-16T08:15:29.000Z</time>
      </trkpt>
      <trkpt lat="47.3543" lon="-1.61108">
        <ele>80</ele>
        <time>2021-07-16T08:15:31.000Z</time>
      </trkpt>
      <trkpt lat="47.35431" lon="-1.61085">
        <ele>80</ele>
        <time>2021-07-16T08:15:33.000Z</time>
      </trkpt>
      <trkpt lat="47.35432" lon="-1.61063">
        <ele>79</ele>
        <time>2021-07-16T08:15:35.000Z</time>
      </trkpt>
      <trkpt lat="47.35431" lon="-1.61042">
        <ele>79</ele>
        <time>2021-07-16T08:15:37.000Z</time>
      </trkpt>
      <trkpt lat="47.35431" lon="-1.61022">
        <ele>78</ele>
        <time>2021-07-16T08:15:39.000Z</time>
      </trkpt>
      <trkpt lat="47.35431" lon="-1.61">
        <ele>79</ele>
        <time>2021-07-16T08:15:41.000Z</time>
      </trkpt>
      <trkpt lat="47.35433" lon="-1.60979">
        <ele>79</ele>
        <time>2021-07-16T08:15:43.000Z</time>
      </trkpt>
      <trkpt lat="47.35434" lon="-1.60957">
        <ele>79</ele>
        <time>2021-07-16T08:15:45.000Z</time>
      </trkpt>
      <trkpt lat="47.35435" lon="-1.60937">
        <ele>79</ele>
        <time>2021-07-16T08:15:47.000Z</time>
      </trkpt>
      <trkpt lat="47.35436" lon="-1.60917">
        <ele>80</ele>
        <time>2021-07-16T08:15:49.000Z</time>
      </trkpt>
      <trkpt lat="47.35435" lon="-1.60897">
        <ele>81</ele>
        <time>2021-07-16T08:15:51.000Z</time>
      </trkpt>
      <trkpt lat="47.35432" lon="-1.60877">
        <ele>81</ele>
        <time>2021-07-16T08:15:53.000Z</time>
      </trkpt>
      <trkpt lat="47.35429" lon="-1.60858">
        <ele>82</ele>
        <time>2021-07-16T08:15:55.000Z</time>
      </trkpt>
      <trkpt lat="47.35426" lon="-1.6084">
        <ele>82</ele>
        <time>2021-07-16T08:15:57.000Z</time>
      </trkpt>
      <trkpt lat="47.35423" lon="-1.60822">
        <ele>82</ele>
        <time>2021-07-16T08:15:59.000Z</time>
      </trkpt>
      <trkpt lat="47.3542" lon="-1.60805">
        <ele>83</ele>
        <time>2021-07-16T08:16:01.000Z</time>
      </trkpt>
      <trkpt lat="47.35417" lon="-1.60787">
        <ele>83</ele>
        <time>2021-07-16T08:16:03.000Z</time>
      </trkpt>
      <trkpt lat="47.35415" lon="-1.6077">
        <ele>84</ele>
        <time>2021-07-16T08:16:05.000Z</time>
      </trkpt>
      <trkpt lat="47.35412" lon="-1.60753">
        <ele>84</ele>
        <time>2021-07-16T08:16:07.000Z</time>
      </trkpt>
      <trkpt lat="47.3541" lon="-1.60735">
        <ele>85</ele>
        <time>2021-07-16T08:16:09.000Z</time>
      </trkpt>
      <trkpt lat="47.35408" lon="-1.60718">
        <ele>85</ele>
        <time>2021-07-16T08:16:11.000Z</time>
      </trkpt>
      <trkpt lat="47.35408" lon="-1.607">
        <ele>85</ele>
        <time>2021-07-16T08:16:13.000Z</time>
      </trkpt>
      <trkpt lat="47.35408" lon="-1.60682">
        <ele>86</ele>
        <time>2021-07-16T08:16:15.000Z</time>
      </trkpt>
      <trkpt lat="47.35408" lon="-1.60664">
        <ele>86</ele>
        <time>2021-07-16T08:16:17.000Z</time>
      </trkpt>
      <trkpt lat="47.35408" lon="-1.60647">
        <ele>86</ele>
        <time>2021-07-16T08:16:19.000Z</time>
      </trkpt>
      <trkpt lat="47.35408" lon="-1.6063">
        <ele>86</ele>
        <time>2021-07-16T08:16:21.000Z</time>
      </trkpt>
      <trkpt lat="47.35409" lon="-1.60613">
        <ele>86</ele>
        <time>2021-07-16T08:16:23.000Z</time>
      </trkpt>
      <trkpt lat="47.35409" lon="-1.60595">
        <ele>86</ele>
        <time>2021-07-16T08:16:25.000Z</time>
      </trkpt>
      <trkpt lat="47.3541" lon="-1.60577">
        <ele>87</ele>
        <time>2021-07-16T08:16:27.000Z</time>
      </trkpt>
      <trkpt lat="47.3541" lon="-1.6056">
        <ele>87</ele>
        <time>2021-07-16T08:16:29.000Z</time>
      </trkpt>
      <trkpt lat="47.35411" lon="-1.60544">
        <ele>87</ele>
        <time>2021-07-16T08:16:31.000Z</time>
      </trkpt>
      <trkpt lat="47.35411" lon="-1.60529">
        <ele>87</ele>
        <time>2021-07-16T08:16:33.000Z</time>
      </trkpt>
      <trkpt lat="47.35411" lon="-1.60516">
        <ele>87</ele>
        <time>2021-07-16T08:16:35.000Z</time>
      </trkpt>
      <trkpt lat="47.35412" lon="-1.60501">
        <ele>88</ele>
        <time>2021-07-16T08:16:38.000Z</time>
      </trkpt>
      <trkpt lat="47.35411" lon="-1.60485">
        <ele>88</ele>
        <time>2021-07-16T08:16:40.000Z</time>
      </trkpt>
      <trkpt lat="47.35412" lon="-1.60467">
        <ele>88</ele>
        <time>2021-07-16T08:16:42.000Z</time>
      </trkpt>
      <trkpt lat="47.35412" lon="-1.60447">
        <ele>87</ele>
        <time>2021-07-16T08:16:44.000Z</time>
      </trkpt>
      <trkpt lat="47.35413" lon="-1.60427">
        <ele>87</ele>
        <time>2021-07-16T08:16:46.000Z</time>
      </trkpt>
      <trkpt lat="47.35414" lon="-1.60407">
        <ele>87</ele>
        <time>2021-07-16T08:16:48.000Z</time>
      </trkpt>
      <trkpt lat="47.35415" lon="-1.60387">
        <ele>87</ele>
        <time>2021-07-16T08:16:50.000Z</time>
      </trkpt>
      <trkpt lat="47.35416" lon="-1.60368">
        <ele>87</ele>
        <time>2021-07-16T08:16:52.000Z</time>
      </trkpt>
      <trkpt lat="47.35417" lon="-1.60349">
        <ele>87</ele>
        <time>2021-07-16T08:16:54.000Z</time>
      </trkpt>
      <trkpt lat="47.35417" lon="-1.6033">
        <ele>87</ele>
        <time>2021-07-16T08:16:56.000Z</time>
      </trkpt>
      <trkpt lat="47.35418" lon="-1.60311">
        <ele>87</ele>
        <time>2021-07-16T08:16:58.000Z</time>
      </trkpt>
      <trkpt lat="47.35418" lon="-1.60293">
        <ele>87</ele>
        <time>2021-07-16T08:17:00.000Z</time>
      </trkpt>
      <trkpt lat="47.35419" lon="-1.60274">
        <ele>87</ele>
        <time>2021-07-16T08:17:02.000Z</time>
      </trkpt>
      <trkpt lat="47.3542" lon="-1.60255">
        <ele>87</ele>
        <time>2021-07-16T08:17:04.000Z</time>
      </trkpt>
      <trkpt lat="47.3542" lon="-1.60237">
        <ele>87</ele>
        <time>2021-07-16T08:17:06.000Z</time>
      </trkpt>
      <trkpt lat="47.3542" lon="-1.60219">
        <ele>87</ele>
        <time>2021-07-16T08:17:08.000Z</time>
      </trkpt>
      <trkpt lat="47.35421" lon="-1.602">
        <ele>87</ele>
        <time>2021-07-16T08:17:10.000Z</time>
      </trkpt>
      <trkpt lat="47.35421" lon="-1.60181">
        <ele>87</ele>
        <time>2021-07-16T08:17:12.000Z</time>
      </trkpt>
      <trkpt lat="47.3542" lon="-1.60162">
        <ele>87</ele>
        <time>2021-07-16T08:17:14.000Z</time>
      </trkpt>
      <trkpt lat="47.35418" lon="-1.60142">
        <ele>87</ele>
        <time>2021-07-16T08:17:16.000Z</time>
      </trkpt>
      <trkpt lat="47.35416" lon="-1.60121">
        <ele>86</ele>
        <time>2021-07-16T08:17:18.000Z</time>
      </trkpt>
      <trkpt lat="47.35415" lon="-1.60101">
        <ele>86</ele>
        <time>2021-07-16T08:17:20.000Z</time>
      </trkpt>
      <trkpt lat="47.35417" lon="-1.60082">
        <ele>86</ele>
        <time>2021-07-16T08:17:22.000Z</time>
      </trkpt>
      <trkpt lat="47.35422" lon="-1.60063">
        <ele>86</ele>
        <time>2021-07-16T08:17:24.000Z</time>
      </trkpt>
      <trkpt lat="47.35427" lon="-1.60043">
        <ele>86</ele>
        <time>2021-07-16T08:17:26.000Z</time>
      </trkpt>
      <trkpt lat="47.35432" lon="-1.60024">
        <ele>86</ele>
        <time>2021-07-16T08:17:28.000Z</time>
      </trkpt>
      <trkpt lat="47.35437" lon="-1.60005">
        <ele>85</ele>
        <time>2021-07-16T08:17:30.000Z</time>
      </trkpt>
      <trkpt lat="47.35443" lon="-1.59987">
        <ele>85</ele>
        <time>2021-07-16T08:17:32.000Z</time>
      </trkpt>
      <trkpt lat="47.35447" lon="-1.59968">
        <ele>84</ele>
        <time>2021-07-16T08:17:34.000Z</time>
      </trkpt>
      <trkpt lat="47.35449" lon="-1.59949">
        <ele>85</ele>
        <time>2021-07-16T08:17:36.000Z</time>
      </trkpt>
      <trkpt lat="47.35451" lon="-1.59932">
        <ele>85</ele>
        <time>2021-07-16T08:17:38.000Z</time>
      </trkpt>
      <trkpt lat="47.35453" lon="-1.59914">
        <ele>85</ele>
        <time>2021-07-16T08:17:40.000Z</time>
      </trkpt>
      <trkpt lat="47.35455" lon="-1.59897">
        <ele>86</ele>
        <time>2021-07-16T08:17:42.000Z</time>
      </trkpt>
      <trkpt lat="47.35457" lon="-1.59878">
        <ele>87</ele>
        <time>2021-07-16T08:17:44.000Z</time>
      </trkpt>
      <trkpt lat="47.35459" lon="-1.59861">
        <ele>87</ele>
        <time>2021-07-16T08:17:46.000Z</time>
      </trkpt>
      <trkpt lat="47.35462" lon="-1.59844">
        <ele>87</ele>
        <time>2021-07-16T08:17:48.000Z</time>
      </trkpt>
      <trkpt lat="47.35463" lon="-1.59827">
        <ele>88</ele>
        <time>2021-07-16T08:17:50.000Z</time>
      </trkpt>
      <trkpt lat="47.35466" lon="-1.59812">
        <ele>88</ele>
        <time>2021-07-16T08:17:52.000Z</time>
      </trkpt>
      <trkpt lat="47.35463" lon="-1.59795">
        <ele>89</ele>
        <time>2021-07-16T08:17:55.000Z</time>
      </trkpt>
      <trkpt lat="47.35453" lon="-1.5979">
        <ele>88</ele>
        <time>2021-07-16T08:17:57.000Z</time>
      </trkpt>
      <trkpt lat="47.3544" lon="-1.59787">
        <ele>89</ele>
        <time>2021-07-16T08:17:59.000Z</time>
      </trkpt>
      <trkpt lat="47.35427" lon="-1.59783">
        <ele>89</ele>
        <time>2021-07-16T08:18:01.000Z</time>
      </trkpt>
      <trkpt lat="47.35413" lon="-1.59778">
        <ele>89</ele>
        <time>2021-07-16T08:18:03.000Z</time>
      </trkpt>
      <trkpt lat="47.354" lon="-1.59773">
        <ele>88</ele>
        <time>2021-07-16T08:18:05.000Z</time>
      </trkpt>
      <trkpt lat="47.35385" lon="-1.59769">
        <ele>88</ele>
        <time>2021-07-16T08:18:07.000Z</time>
      </trkpt>
      <trkpt lat="47.35371" lon="-1.59763">
        <ele>88</ele>
        <time>2021-07-16T08:18:09.000Z</time>
      </trkpt>
      <trkpt lat="47.35357" lon="-1.59758">
        <ele>87</ele>
        <time>2021-07-16T08:18:11.000Z</time>
      </trkpt>
      <trkpt lat="47.35342" lon="-1.5975">
        <ele>87</ele>
        <time>2021-07-16T08:18:13.000Z</time>
      </trkpt>
      <trkpt lat="47.35328" lon="-1.59739">
        <ele>86</ele>
        <time>2021-07-16T08:18:15.000Z</time>
      </trkpt>
      <trkpt lat="47.35314" lon="-1.59726">
        <ele>85</ele>
        <time>2021-07-16T08:18:17.000Z</time>
      </trkpt>
      <trkpt lat="47.35301" lon="-1.59712">
        <ele>84</ele>
        <time>2021-07-16T08:18:19.000Z</time>
      </trkpt>
      <trkpt lat="47.35287" lon="-1.59696">
        <ele>83</ele>
        <time>2021-07-16T08:18:21.000Z</time>
      </trkpt>
      <trkpt lat="47.35274" lon="-1.59679">
        <ele>82</ele>
        <time>2021-07-16T08:18:23.000Z</time>
      </trkpt>
      <trkpt lat="47.35267" lon="-1.5967">
        <ele>82</ele>
        <time>2021-07-16T08:18:24.000Z</time>
      </trkpt>
      <trkpt lat="47.3526" lon="-1.59661">
        <ele>81</ele>
        <time>2021-07-16T08:18:25.000Z</time>
      </trkpt>
      <trkpt lat="47.35252" lon="-1.59651">
        <ele>81</ele>
        <time>2021-07-16T08:18:26.000Z</time>
      </trkpt>
      <trkpt lat="47.35245" lon="-1.59642">
        <ele>81</ele>
        <time>2021-07-16T08:18:27.000Z</time>
      </trkpt>
      <trkpt lat="47.35237" lon="-1.59634">
        <ele>80</ele>
        <time>2021-07-16T08:18:28.000Z</time>
      </trkpt>
      <trkpt lat="47.3523" lon="-1.59624">
        <ele>80</ele>
        <time>2021-07-16T08:18:29.000Z</time>
      </trkpt>
      <trkpt lat="47.35222" lon="-1.59615">
        <ele>80</ele>
        <time>2021-07-16T08:18:30.000Z</time>
      </trkpt>
      <trkpt lat="47.35214" lon="-1.59606">
        <ele>80</ele>
        <time>2021-07-16T08:18:31.000Z</time>
      </trkpt>
      <trkpt lat="47.35206" lon="-1.59596">
        <ele>79</ele>
        <time>2021-07-16T08:18:32.000Z</time>
      </trkpt>
      <trkpt lat="47.35198" lon="-1.59586">
        <ele>79</ele>
        <time>2021-07-16T08:18:33.000Z</time>
      </trkpt>
      <trkpt lat="47.35191" lon="-1.59576">
        <ele>78</ele>
        <time>2021-07-16T08:18:34.000Z</time>
      </trkpt>
      <trkpt lat="47.35183" lon="-1.59567">
        <ele>77</ele>
        <time>2021-07-16T08:18:35.000Z</time>
      </trkpt>
      <trkpt lat="47.35175" lon="-1.59557">
        <ele>77</ele>
        <time>2021-07-16T08:18:36.000Z</time>
      </trkpt>
      <trkpt lat="47.35167" lon="-1.59547">
        <ele>76</ele>
        <time>2021-07-16T08:18:37.000Z</time>
      </trkpt>
      <trkpt lat="47.35159" lon="-1.59536">
        <ele>75</ele>
        <time>2021-07-16T08:18:38.000Z</time>
      </trkpt>
      <trkpt lat="47.3515" lon="-1.59526">
        <ele>75</ele>
        <time>2021-07-16T08:18:39.000Z</time>
      </trkpt>
      <trkpt lat="47.35141" lon="-1.59516">
        <ele>75</ele>
        <time>2021-07-16T08:18:40.000Z</time>
      </trkpt>
      <trkpt lat="47.35133" lon="-1.59506">
        <ele>75</ele>
        <time>2021-07-16T08:18:41.000Z</time>
      </trkpt>
      <trkpt lat="47.35125" lon="-1.59496">
        <ele>74</ele>
        <time>2021-07-16T08:18:42.000Z</time>
      </trkpt>
      <trkpt lat="47.35117" lon="-1.59486">
        <ele>74</ele>
        <time>2021-07-16T08:18:43.000Z</time>
      </trkpt>
      <trkpt lat="47.35109" lon="-1.59476">
        <ele>73</ele>
        <time>2021-07-16T08:18:44.000Z</time>
      </trkpt>
      <trkpt lat="47.35101" lon="-1.59466">
        <ele>73</ele>
        <time>2021-07-16T08:18:45.000Z</time>
      </trkpt>
      <trkpt lat="47.35093" lon="-1.59457">
        <ele>72</ele>
        <time>2021-07-16T08:18:46.000Z</time>
      </trkpt>
      <trkpt lat="47.35086" lon="-1.59448">
        <ele>71</ele>
        <time>2021-07-16T08:18:47.000Z</time>
      </trkpt>
      <trkpt lat="47.35078" lon="-1.59439">
        <ele>71</ele>
        <time>2021-07-16T08:18:48.000Z</time>
      </trkpt>
      <trkpt lat="47.35071" lon="-1.59431">
        <ele>71</ele>
        <time>2021-07-16T08:18:49.000Z</time>
      </trkpt>
      <trkpt lat="47.35064" lon="-1.59422">
        <ele>71</ele>
        <time>2021-07-16T08:18:50.000Z</time>
      </trkpt>
      <trkpt lat="47.35051" lon="-1.59406">
        <ele>71</ele>
        <time>2021-07-16T08:18:52.000Z</time>
      </trkpt>
      <trkpt lat="47.35039" lon="-1.5939">
        <ele>71</ele>
        <time>2021-07-16T08:18:54.000Z</time>
      </trkpt>
      <trkpt lat="47.35027" lon="-1.59376">
        <ele>72</ele>
        <time>2021-07-16T08:18:56.000Z</time>
      </trkpt>
      <trkpt lat="47.35017" lon="-1.59362">
        <ele>71</ele>
        <time>2021-07-16T08:18:58.000Z</time>
      </trkpt>
      <trkpt lat="47.35008" lon="-1.5935">
        <ele>72</ele>
        <time>2021-07-16T08:19:00.000Z</time>
      </trkpt>
      <trkpt lat="47.34999" lon="-1.59339">
        <ele>72</ele>
        <time>2021-07-16T08:19:02.000Z</time>
      </trkpt>
      <trkpt lat="47.3499" lon="-1.59329">
        <ele>73</ele>
        <time>2021-07-16T08:19:04.000Z</time>
      </trkpt>
      <trkpt lat="47.34981" lon="-1.59318">
        <ele>74</ele>
        <time>2021-07-16T08:19:06.000Z</time>
      </trkpt>
      <trkpt lat="47.34971" lon="-1.59305">
        <ele>74</ele>
        <time>2021-07-16T08:19:08.000Z</time>
      </trkpt>
      <trkpt lat="47.34962" lon="-1.59294">
        <ele>75</ele>
        <time>2021-07-16T08:19:10.000Z</time>
      </trkpt>
      <trkpt lat="47.34953" lon="-1.59284">
        <ele>75</ele>
        <time>2021-07-16T08:19:12.000Z</time>
      </trkpt>
      <trkpt lat="47.34946" lon="-1.59275">
        <ele>75</ele>
        <time>2021-07-16T08:19:14.000Z</time>
      </trkpt>
      <trkpt lat="47.34935" lon="-1.59262">
        <ele>76</ele>
        <time>2021-07-16T08:19:17.000Z</time>
      </trkpt>
      <trkpt lat="47.34928" lon="-1.59254">
        <ele>76</ele>
        <time>2021-07-16T08:19:19.000Z</time>
      </trkpt>
      <trkpt lat="47.3492" lon="-1.59244">
        <ele>76</ele>
        <time>2021-07-16T08:19:21.000Z</time>
      </trkpt>
      <trkpt lat="47.34909" lon="-1.59232">
        <ele>76</ele>
        <time>2021-07-16T08:19:24.000Z</time>
      </trkpt>
      <trkpt lat="47.34902" lon="-1.59223">
        <ele>77</ele>
        <time>2021-07-16T08:19:26.000Z</time>
      </trkpt>
      <trkpt lat="47.34895" lon="-1.59215">
        <ele>77</ele>
        <time>2021-07-16T08:19:28.000Z</time>
      </trkpt>
      <trkpt lat="47.34886" lon="-1.59203">
        <ele>77</ele>
        <time>2021-07-16T08:19:30.000Z</time>
      </trkpt>
      <trkpt lat="47.34876" lon="-1.5919">
        <ele>78</ele>
        <time>2021-07-16T08:19:32.000Z</time>
      </trkpt>
      <trkpt lat="47.34866" lon="-1.59176">
        <ele>79</ele>
        <time>2021-07-16T08:19:34.000Z</time>
      </trkpt>
      <trkpt lat="47.34857" lon="-1.59162">
        <ele>80</ele>
        <time>2021-07-16T08:19:36.000Z</time>
      </trkpt>
      <trkpt lat="47.34847" lon="-1.5915">
        <ele>81</ele>
        <time>2021-07-16T08:19:38.000Z</time>
      </trkpt>
      <trkpt lat="47.34837" lon="-1.59139">
        <ele>82</ele>
        <time>2021-07-16T08:19:40.000Z</time>
      </trkpt>
      <trkpt lat="47.34828" lon="-1.59128">
        <ele>83</ele>
        <time>2021-07-16T08:19:42.000Z</time>
      </trkpt>
      <trkpt lat="47.34819" lon="-1.59118">
        <ele>85</ele>
        <time>2021-07-16T08:19:44.000Z</time>
      </trkpt>
      <trkpt lat="47.34811" lon="-1.59107">
        <ele>86</ele>
        <time>2021-07-16T08:19:46.000Z</time>
      </trkpt>
      <trkpt lat="47.34802" lon="-1.59097">
        <ele>86</ele>
        <time>2021-07-16T08:19:48.000Z</time>
      </trkpt>
      <trkpt lat="47.34794" lon="-1.59087">
        <ele>87</ele>
        <time>2021-07-16T08:19:50.000Z</time>
      </trkpt>
      <trkpt lat="47.34784" lon="-1.59077">
        <ele>87</ele>
        <time>2021-07-16T08:19:52.000Z</time>
      </trkpt>
      <trkpt lat="47.34776" lon="-1.59066">
        <ele>87</ele>
        <time>2021-07-16T08:19:54.000Z</time>
      </trkpt>
      <trkpt lat="47.34768" lon="-1.59056">
        <ele>87</ele>
        <time>2021-07-16T08:19:56.000Z</time>
      </trkpt>
      <trkpt lat="47.34759" lon="-1.59046">
        <ele>87</ele>
        <time>2021-07-16T08:19:58.000Z</time>
      </trkpt>
      <trkpt lat="47.3475" lon="-1.59035">
        <ele>87</ele>
        <time>2021-07-16T08:20:00.000Z</time>
      </trkpt>
      <trkpt lat="47.34742" lon="-1.59023">
        <ele>87</ele>
        <time>2021-07-16T08:20:02.000Z</time>
      </trkpt>
      <trkpt lat="47.34734" lon="-1.59013">
        <ele>87</ele>
        <time>2021-07-16T08:20:04.000Z</time>
      </trkpt>
      <trkpt lat="47.34726" lon="-1.59003">
        <ele>87</ele>
        <time>2021-07-16T08:20:06.000Z</time>
      </trkpt>
      <trkpt lat="47.34717" lon="-1.58992">
        <ele>87</ele>
        <time>2021-07-16T08:20:08.000Z</time>
      </trkpt>
      <trkpt lat="47.34708" lon="-1.58982">
        <ele>87</ele>
        <time>2021-07-16T08:20:10.000Z</time>
      </trkpt>
      <trkpt lat="47.34699" lon="-1.58972">
        <ele>87</ele>
        <time>2021-07-16T08:20:12.000Z</time>
      </trkpt>
      <trkpt lat="47.34691" lon="-1.58961">
        <ele>88</ele>
        <time>2021-07-16T08:20:14.000Z</time>
      </trkpt>
      <trkpt lat="47.34682" lon="-1.5895">
        <ele>88</ele>
        <time>2021-07-16T08:20:16.000Z</time>
      </trkpt>
      <trkpt lat="47.34673" lon="-1.58939">
        <ele>88</ele>
        <time>2021-07-16T08:20:18.000Z</time>
      </trkpt>
      <trkpt lat="47.34663" lon="-1.58929">
        <ele>88</ele>
        <time>2021-07-16T08:20:20.000Z</time>
      </trkpt>
      <trkpt lat="47.34654" lon="-1.58917">
        <ele>88</ele>
        <time>2021-07-16T08:20:22.000Z</time>
      </trkpt>
      <trkpt lat="47.34645" lon="-1.58906">
        <ele>88</ele>
        <time>2021-07-16T08:20:24.000Z</time>
      </trkpt>
      <trkpt lat="47.34636" lon="-1.58894">
        <ele>88</ele>
        <time>2021-07-16T08:20:26.000Z</time>
      </trkpt>
      <trkpt lat="47.34626" lon="-1.58883">
        <ele>88</ele>
        <time>2021-07-16T08:20:28.000Z</time>
      </trkpt>
      <trkpt lat="47.34617" lon="-1.5887">
        <ele>88</ele>
        <time>2021-07-16T08:20:30.000Z</time>
      </trkpt>
      <trkpt lat="47.34607" lon="-1.58858">
        <ele>88</ele>
        <time>2021-07-16T08:20:32.000Z</time>
      </trkpt>
      <trkpt lat="47.34597" lon="-1.58846">
        <ele>88</ele>
        <time>2021-07-16T08:20:34.000Z</time>
      </trkpt>
      <trkpt lat="47.34587" lon="-1.58835">
        <ele>88</ele>
        <time>2021-07-16T08:20:36.000Z</time>
      </trkpt>
      <trkpt lat="47.34578" lon="-1.58824">
        <ele>88</ele>
        <time>2021-07-16T08:20:38.000Z</time>
      </trkpt>
      <trkpt lat="47.34568" lon="-1.58812">
        <ele>88</ele>
        <time>2021-07-16T08:20:40.000Z</time>
      </trkpt>
      <trkpt lat="47.34558" lon="-1.58799">
        <ele>88</ele>
        <time>2021-07-16T08:20:42.000Z</time>
      </trkpt>
      <trkpt lat="47.34549" lon="-1.58788">
        <ele>88</ele>
        <time>2021-07-16T08:20:44.000Z</time>
      </trkpt>
      <trkpt lat="47.34539" lon="-1.58776">
        <ele>88</ele>
        <time>2021-07-16T08:20:46.000Z</time>
      </trkpt>
      <trkpt lat="47.34529" lon="-1.58764">
        <ele>88</ele>
        <time>2021-07-16T08:20:48.000Z</time>
      </trkpt>
      <trkpt lat="47.3452" lon="-1.58752">
        <ele>88</ele>
        <time>2021-07-16T08:20:50.000Z</time>
      </trkpt>
      <trkpt lat="47.34511" lon="-1.5874">
        <ele>88</ele>
        <time>2021-07-16T08:20:52.000Z</time>
      </trkpt>
      <trkpt lat="47.34501" lon="-1.58729">
        <ele>88</ele>
        <time>2021-07-16T08:20:54.000Z</time>
      </trkpt>
      <trkpt lat="47.34493" lon="-1.58717">
        <ele>88</ele>
        <time>2021-07-16T08:20:56.000Z</time>
      </trkpt>
      <trkpt lat="47.34484" lon="-1.58704">
        <ele>88</ele>
        <time>2021-07-16T08:20:58.000Z</time>
      </trkpt>
      <trkpt lat="47.34476" lon="-1.58692">
        <ele>88</ele>
        <time>2021-07-16T08:21:00.000Z</time>
      </trkpt>
      <trkpt lat="47.34467" lon="-1.58679">
        <ele>88</ele>
        <time>2021-07-16T08:21:02.000Z</time>
      </trkpt>
      <trkpt lat="47.34459" lon="-1.58666">
        <ele>89</ele>
        <time>2021-07-16T08:21:04.000Z</time>
      </trkpt>
      <trkpt lat="47.34451" lon="-1.58653">
        <ele>89</ele>
        <time>2021-07-16T08:21:06.000Z</time>
      </trkpt>
      <trkpt lat="47.34443" lon="-1.5864">
        <ele>89</ele>
        <time>2021-07-16T08:21:08.000Z</time>
      </trkpt>
      <trkpt lat="47.34434" lon="-1.58628">
        <ele>90</ele>
        <time>2021-07-16T08:21:10.000Z</time>
      </trkpt>
      <trkpt lat="47.34426" lon="-1.58616">
        <ele>90</ele>
        <time>2021-07-16T08:21:12.000Z</time>
      </trkpt>
      <trkpt lat="47.34417" lon="-1.58604">
        <ele>90</ele>
        <time>2021-07-16T08:21:14.000Z</time>
      </trkpt>
      <trkpt lat="47.34408" lon="-1.58591">
        <ele>90</ele>
        <time>2021-07-16T08:21:16.000Z</time>
      </trkpt>
      <trkpt lat="47.34399" lon="-1.58579">
        <ele>90</ele>
        <time>2021-07-16T08:21:18.000Z</time>
      </trkpt>
      <trkpt lat="47.3439" lon="-1.58567">
        <ele>91</ele>
        <time>2021-07-16T08:21:20.000Z</time>
      </trkpt>
      <trkpt lat="47.34381" lon="-1.58556">
        <ele>91</ele>
        <time>2021-07-16T08:21:22.000Z</time>
      </trkpt>
      <trkpt lat="47.34371" lon="-1.58545">
        <ele>92</ele>
        <time>2021-07-16T08:21:24.000Z</time>
      </trkpt>
      <trkpt lat="47.34362" lon="-1.58534">
        <ele>92</ele>
        <time>2021-07-16T08:21:26.000Z</time>
      </trkpt>
      <trkpt lat="47.34353" lon="-1.58523">
        <ele>92</ele>
        <time>2021-07-16T08:21:28.000Z</time>
      </trkpt>
      <trkpt lat="47.34344" lon="-1.58511">
        <ele>92</ele>
        <time>2021-07-16T08:21:30.000Z</time>
      </trkpt>
      <trkpt lat="47.34335" lon="-1.58499">
        <ele>93</ele>
        <time>2021-07-16T08:21:32.000Z</time>
      </trkpt>
      <trkpt lat="47.34327" lon="-1.58487">
        <ele>93</ele>
        <time>2021-07-16T08:21:34.000Z</time>
      </trkpt>
      <trkpt lat="47.34318" lon="-1.58474">
        <ele>92</ele>
        <time>2021-07-16T08:21:36.000Z</time>
      </trkpt>
      <trkpt lat="47.34309" lon="-1.5846">
        <ele>92</ele>
        <time>2021-07-16T08:21:38.000Z</time>
      </trkpt>
      <trkpt lat="47.343" lon="-1.58446">
        <ele>92</ele>
        <time>2021-07-16T08:21:40.000Z</time>
      </trkpt>
      <trkpt lat="47.34291" lon="-1.58433">
        <ele>92</ele>
        <time>2021-07-16T08:21:42.000Z</time>
      </trkpt>
      <trkpt lat="47.34282" lon="-1.5842">
        <ele>91</ele>
        <time>2021-07-16T08:21:44.000Z</time>
      </trkpt>
      <trkpt lat="47.34272" lon="-1.58406">
        <ele>91</ele>
        <time>2021-07-16T08:21:46.000Z</time>
      </trkpt>
      <trkpt lat="47.34262" lon="-1.58393">
        <ele>91</ele>
        <time>2021-07-16T08:21:48.000Z</time>
      </trkpt>
      <trkpt lat="47.34251" lon="-1.5838">
        <ele>91</ele>
        <time>2021-07-16T08:21:50.000Z</time>
      </trkpt>
      <trkpt lat="47.34241" lon="-1.58365">
        <ele>91</ele>
        <time>2021-07-16T08:21:52.000Z</time>
      </trkpt>
      <trkpt lat="47.3423" lon="-1.58351">
        <ele>90</ele>
        <time>2021-07-16T08:21:54.000Z</time>
      </trkpt>
      <trkpt lat="47.34219" lon="-1.58335">
        <ele>89</ele>
        <time>2021-07-16T08:21:56.000Z</time>
      </trkpt>
      <trkpt lat="47.34208" lon="-1.5832">
        <ele>90</ele>
        <time>2021-07-16T08:21:58.000Z</time>
      </trkpt>
      <trkpt lat="47.34196" lon="-1.58305">
        <ele>90</ele>
        <time>2021-07-16T08:22:00.000Z</time>
      </trkpt>
      <trkpt lat="47.34185" lon="-1.5829">
        <ele>89</ele>
        <time>2021-07-16T08:22:02.000Z</time>
      </trkpt>
      <trkpt lat="47.34173" lon="-1.58275">
        <ele>88</ele>
        <time>2021-07-16T08:22:04.000Z</time>
      </trkpt>
      <trkpt lat="47.34163" lon="-1.58259">
        <ele>88</ele>
        <time>2021-07-16T08:22:06.000Z</time>
      </trkpt>
      <trkpt lat="47.34152" lon="-1.58244">
        <ele>88</ele>
        <time>2021-07-16T08:22:08.000Z</time>
      </trkpt>
      <trkpt lat="47.3414" lon="-1.58229">
        <ele>87</ele>
        <time>2021-07-16T08:22:10.000Z</time>
      </trkpt>
      <trkpt lat="47.34129" lon="-1.58213">
        <ele>86</ele>
        <time>2021-07-16T08:22:12.000Z</time>
      </trkpt>
      <trkpt lat="47.34117" lon="-1.58198">
        <ele>86</ele>
        <time>2021-07-16T08:22:14.000Z</time>
      </trkpt>
      <trkpt lat="47.34106" lon="-1.58183">
        <ele>85</ele>
        <time>2021-07-16T08:22:16.000Z</time>
      </trkpt>
      <trkpt lat="47.34096" lon="-1.5817">
        <ele>85</ele>
        <time>2021-07-16T08:22:18.000Z</time>
      </trkpt>
      <trkpt lat="47.34087" lon="-1.58158">
        <ele>85</ele>
        <time>2021-07-16T08:22:20.000Z</time>
      </trkpt>
      <trkpt lat="47.34076" lon="-1.58145">
        <ele>85</ele>
        <time>2021-07-16T08:22:22.000Z</time>
      </trkpt>
      <trkpt lat="47.34064" lon="-1.58128">
        <ele>85</ele>
        <time>2021-07-16T08:22:24.000Z</time>
      </trkpt>
      <trkpt lat="47.34051" lon="-1.58111">
        <ele>85</ele>
        <time>2021-07-16T08:22:26.000Z</time>
      </trkpt>
      <trkpt lat="47.34039" lon="-1.58094">
        <ele>85</ele>
        <time>2021-07-16T08:22:28.000Z</time>
      </trkpt>
      <trkpt lat="47.34027" lon="-1.58078">
        <ele>84</ele>
        <time>2021-07-16T08:22:30.000Z</time>
      </trkpt>
      <trkpt lat="47.34016" lon="-1.58062">
        <ele>83</ele>
        <time>2021-07-16T08:22:32.000Z</time>
      </trkpt>
      <trkpt lat="47.34004" lon="-1.58045">
        <ele>83</ele>
        <time>2021-07-16T08:22:34.000Z</time>
      </trkpt>
      <trkpt lat="47.33991" lon="-1.58026">
        <ele>83</ele>
        <time>2021-07-16T08:22:36.000Z</time>
      </trkpt>
      <trkpt lat="47.33979" lon="-1.58009">
        <ele>83</ele>
        <time>2021-07-16T08:22:38.000Z</time>
      </trkpt>
      <trkpt lat="47.33967" lon="-1.57992">
        <ele>83</ele>
        <time>2021-07-16T08:22:40.000Z</time>
      </trkpt>
      <trkpt lat="47.33955" lon="-1.57976">
        <ele>83</ele>
        <time>2021-07-16T08:22:42.000Z</time>
      </trkpt>
      <trkpt lat="47.33944" lon="-1.57961">
        <ele>83</ele>
        <time>2021-07-16T08:22:44.000Z</time>
      </trkpt>
      <trkpt lat="47.33933" lon="-1.57947">
        <ele>84</ele>
        <time>2021-07-16T08:22:46.000Z</time>
      </trkpt>
      <trkpt lat="47.33923" lon="-1.57933">
        <ele>84</ele>
        <time>2021-07-16T08:22:48.000Z</time>
      </trkpt>
      <trkpt lat="47.33913" lon="-1.57919">
        <ele>84</ele>
        <time>2021-07-16T08:22:50.000Z</time>
      </trkpt>
      <trkpt lat="47.33904" lon="-1.57906">
        <ele>84</ele>
        <time>2021-07-16T08:22:52.000Z</time>
      </trkpt>
      <trkpt lat="47.33894" lon="-1.57893">
        <ele>84</ele>
        <time>2021-07-16T08:22:54.000Z</time>
      </trkpt>
      <trkpt lat="47.33884" lon="-1.5788">
        <ele>83</ele>
        <time>2021-07-16T08:22:56.000Z</time>
      </trkpt>
      <trkpt lat="47.33875" lon="-1.57867">
        <ele>83</ele>
        <time>2021-07-16T08:22:58.000Z</time>
      </trkpt>
      <trkpt lat="47.33866" lon="-1.57857">
        <ele>84</ele>
        <time>2021-07-16T08:23:00.000Z</time>
      </trkpt>
      <trkpt lat="47.33857" lon="-1.57849">
        <ele>84</ele>
        <time>2021-07-16T08:23:02.000Z</time>
      </trkpt>
      <trkpt lat="47.33848" lon="-1.57842">
        <ele>84</ele>
        <time>2021-07-16T08:23:04.000Z</time>
      </trkpt>
      <trkpt lat="47.33838" lon="-1.5783">
        <ele>85</ele>
        <time>2021-07-16T08:23:07.000Z</time>
      </trkpt>
      <trkpt lat="47.33837" lon="-1.57814">
        <ele>85</ele>
        <time>2021-07-16T08:23:09.000Z</time>
      </trkpt>
      <trkpt lat="47.33842" lon="-1.57799">
        <ele>85</ele>
        <time>2021-07-16T08:23:11.000Z</time>
      </trkpt>
      <trkpt lat="47.33847" lon="-1.57782">
        <ele>86</ele>
        <time>2021-07-16T08:23:13.000Z</time>
      </trkpt>
      <trkpt lat="47.33852" lon="-1.57764">
        <ele>86</ele>
        <time>2021-07-16T08:23:15.000Z</time>
      </trkpt>
      <trkpt lat="47.33858" lon="-1.57747">
        <ele>87</ele>
        <time>2021-07-16T08:23:17.000Z</time>
      </trkpt>
      <trkpt lat="47.33862" lon="-1.57729">
        <ele>87</ele>
        <time>2021-07-16T08:23:19.000Z</time>
      </trkpt>
      <trkpt lat="47.33867" lon="-1.57712">
        <ele>87</ele>
        <time>2021-07-16T08:23:21.000Z</time>
      </trkpt>
      <trkpt lat="47.33872" lon="-1.57695">
        <ele>87</ele>
        <time>2021-07-16T08:23:23.000Z</time>
      </trkpt>
      <trkpt lat="47.33876" lon="-1.57678">
        <ele>87</ele>
        <time>2021-07-16T08:23:25.000Z</time>
      </trkpt>
      <trkpt lat="47.33881" lon="-1.57662">
        <ele>87</ele>
        <time>2021-07-16T08:23:27.000Z</time>
      </trkpt>
      <trkpt lat="47.33886" lon="-1.57644">
        <ele>87</ele>
        <time>2021-07-16T08:23:29.000Z</time>
      </trkpt>
      <trkpt lat="47.33891" lon="-1.57626">
        <ele>87</ele>
        <time>2021-07-16T08:23:31.000Z</time>
      </trkpt>
      <trkpt lat="47.33896" lon="-1.57611">
        <ele>86</ele>
        <time>2021-07-16T08:23:33.000Z</time>
      </trkpt>
      <trkpt lat="47.33901" lon="-1.57594">
        <ele>86</ele>
        <time>2021-07-16T08:23:35.000Z</time>
      </trkpt>
      <trkpt lat="47.33905" lon="-1.57576">
        <ele>86</ele>
        <time>2021-07-16T08:23:37.000Z</time>
      </trkpt>
      <trkpt lat="47.3391" lon="-1.57559">
        <ele>85</ele>
        <time>2021-07-16T08:23:39.000Z</time>
      </trkpt>
      <trkpt lat="47.33915" lon="-1.57541">
        <ele>85</ele>
        <time>2021-07-16T08:23:41.000Z</time>
      </trkpt>
      <trkpt lat="47.3392" lon="-1.57522">
        <ele>85</ele>
        <time>2021-07-16T08:23:43.000Z</time>
      </trkpt>
      <trkpt lat="47.33926" lon="-1.57503">
        <ele>84</ele>
        <time>2021-07-16T08:23:45.000Z</time>
      </trkpt>
      <trkpt lat="47.33932" lon="-1.57482">
        <ele>83</ele>
        <time>2021-07-16T08:23:47.000Z</time>
      </trkpt>
      <trkpt lat="47.33938" lon="-1.57462">
        <ele>83</ele>
        <time>2021-07-16T08:23:49.000Z</time>
      </trkpt>
      <trkpt lat="47.33944" lon="-1.57441">
        <ele>82</ele>
        <time>2021-07-16T08:23:51.000Z</time>
      </trkpt>
      <trkpt lat="47.3395" lon="-1.5742">
        <ele>82</ele>
        <time>2021-07-16T08:23:53.000Z</time>
      </trkpt>
      <trkpt lat="47.33956" lon="-1.574">
        <ele>81</ele>
        <time>2021-07-16T08:23:55.000Z</time>
      </trkpt>
      <trkpt lat="47.33962" lon="-1.57378">
        <ele>81</ele>
        <time>2021-07-16T08:23:57.000Z</time>
      </trkpt>
      <trkpt lat="47.33968" lon="-1.57357">
        <ele>80</ele>
        <time>2021-07-16T08:23:59.000Z</time>
      </trkpt>
      <trkpt lat="47.33974" lon="-1.57336">
        <ele>80</ele>
        <time>2021-07-16T08:24:01.000Z</time>
      </trkpt>
      <trkpt lat="47.33979" lon="-1.57313">
        <ele>80</ele>
        <time>2021-07-16T08:24:03.000Z</time>
      </trkpt>
      <trkpt lat="47.33982" lon="-1.5729">
        <ele>79</ele>
        <time>2021-07-16T08:24:05.000Z</time>
      </trkpt>
      <trkpt lat="47.33984" lon="-1.57267">
        <ele>79</ele>
        <time>2021-07-16T08:24:07.000Z</time>
      </trkpt>
      <trkpt lat="47.33986" lon="-1.57244">
        <ele>79</ele>
        <time>2021-07-16T08:24:09.000Z</time>
      </trkpt>
      <trkpt lat="47.33989" lon="-1.57222">
        <ele>79</ele>
        <time>2021-07-16T08:24:11.000Z</time>
      </trkpt>
      <trkpt lat="47.3399" lon="-1.57199">
        <ele>80</ele>
        <time>2021-07-16T08:24:13.000Z</time>
      </trkpt>
      <trkpt lat="47.33992" lon="-1.57178">
        <ele>79</ele>
        <time>2021-07-16T08:24:15.000Z</time>
      </trkpt>
      <trkpt lat="47.33993" lon="-1.57156">
        <ele>79</ele>
        <time>2021-07-16T08:24:17.000Z</time>
      </trkpt>
      <trkpt lat="47.33993" lon="-1.57134">
        <ele>79</ele>
        <time>2021-07-16T08:24:19.000Z</time>
      </trkpt>
      <trkpt lat="47.33993" lon="-1.57112">
        <ele>79</ele>
        <time>2021-07-16T08:24:21.000Z</time>
      </trkpt>
      <trkpt lat="47.33992" lon="-1.57091">
        <ele>79</ele>
        <time>2021-07-16T08:24:23.000Z</time>
      </trkpt>
      <trkpt lat="47.33992" lon="-1.5707">
        <ele>78</ele>
        <time>2021-07-16T08:24:25.000Z</time>
      </trkpt>
      <trkpt lat="47.33991" lon="-1.57048">
        <ele>77</ele>
        <time>2021-07-16T08:24:27.000Z</time>
      </trkpt>
      <trkpt lat="47.33991" lon="-1.57026">
        <ele>76</ele>
        <time>2021-07-16T08:24:29.000Z</time>
      </trkpt>
      <trkpt lat="47.33992" lon="-1.57005">
        <ele>76</ele>
        <time>2021-07-16T08:24:31.000Z</time>
      </trkpt>
      <trkpt lat="47.33993" lon="-1.56982">
        <ele>76</ele>
        <time>2021-07-16T08:24:33.000Z</time>
      </trkpt>
      <trkpt lat="47.33994" lon="-1.5696">
        <ele>76</ele>
        <time>2021-07-16T08:24:35.000Z</time>
      </trkpt>
      <trkpt lat="47.33994" lon="-1.56937">
        <ele>75</ele>
        <time>2021-07-16T08:24:37.000Z</time>
      </trkpt>
      <trkpt lat="47.33995" lon="-1.56914">
        <ele>74</ele>
        <time>2021-07-16T08:24:39.000Z</time>
      </trkpt>
      <trkpt lat="47.33995" lon="-1.56891">
        <ele>74</ele>
        <time>2021-07-16T08:24:41.000Z</time>
      </trkpt>
      <trkpt lat="47.33997" lon="-1.56868">
        <ele>73</ele>
        <time>2021-07-16T08:24:43.000Z</time>
      </trkpt>
      <trkpt lat="47.33998" lon="-1.56845">
        <ele>73</ele>
        <time>2021-07-16T08:24:45.000Z</time>
      </trkpt>
      <trkpt lat="47.34" lon="-1.56824">
        <ele>73</ele>
        <time>2021-07-16T08:24:47.000Z</time>
      </trkpt>
      <trkpt lat="47.34001" lon="-1.56803">
        <ele>73</ele>
        <time>2021-07-16T08:24:49.000Z</time>
      </trkpt>
      <trkpt lat="47.34003" lon="-1.56782">
        <ele>73</ele>
        <time>2021-07-16T08:24:51.000Z</time>
      </trkpt>
      <trkpt lat="47.34004" lon="-1.56762">
        <ele>73</ele>
        <time>2021-07-16T08:24:53.000Z</time>
      </trkpt>
      <trkpt lat="47.34004" lon="-1.56742">
        <ele>73</ele>
        <time>2021-07-16T08:24:55.000Z</time>
      </trkpt>
      <trkpt lat="47.34005" lon="-1.56722">
        <ele>74</ele>
        <time>2021-07-16T08:24:57.000Z</time>
      </trkpt>
      <trkpt lat="47.34006" lon="-1.56702">
        <ele>73</ele>
        <time>2021-07-16T08:24:59.000Z</time>
      </trkpt>
      <trkpt lat="47.34007" lon="-1.56682">
        <ele>73</ele>
        <time>2021-07-16T08:25:01.000Z</time>
      </trkpt>
      <trkpt lat="47.34008" lon="-1.56661">
        <ele>73</ele>
        <time>2021-07-16T08:25:03.000Z</time>
      </trkpt>
      <trkpt lat="47.34008" lon="-1.5664">
        <ele>72</ele>
        <time>2021-07-16T08:25:05.000Z</time>
      </trkpt>
      <trkpt lat="47.34009" lon="-1.56618">
        <ele>71</ele>
        <time>2021-07-16T08:25:07.000Z</time>
      </trkpt>
      <trkpt lat="47.3401" lon="-1.56597">
        <ele>71</ele>
        <time>2021-07-16T08:25:09.000Z</time>
      </trkpt>
      <trkpt lat="47.34011" lon="-1.56575">
        <ele>70</ele>
        <time>2021-07-16T08:25:11.000Z</time>
      </trkpt>
      <trkpt lat="47.34013" lon="-1.56552">
        <ele>69</ele>
        <time>2021-07-16T08:25:13.000Z</time>
      </trkpt>
      <trkpt lat="47.34014" lon="-1.56529">
        <ele>69</ele>
        <time>2021-07-16T08:25:15.000Z</time>
      </trkpt>
      <trkpt lat="47.34015" lon="-1.56506">
        <ele>69</ele>
        <time>2021-07-16T08:25:17.000Z</time>
      </trkpt>
      <trkpt lat="47.34016" lon="-1.56483">
        <ele>68</ele>
        <time>2021-07-16T08:25:19.000Z</time>
      </trkpt>
      <trkpt lat="47.34017" lon="-1.5646">
        <ele>68</ele>
        <time>2021-07-16T08:25:21.000Z</time>
      </trkpt>
      <trkpt lat="47.34018" lon="-1.56438">
        <ele>68</ele>
        <time>2021-07-16T08:25:23.000Z</time>
      </trkpt>
      <trkpt lat="47.34019" lon="-1.56417">
        <ele>68</ele>
        <time>2021-07-16T08:25:25.000Z</time>
      </trkpt>
      <trkpt lat="47.3402" lon="-1.56396">
        <ele>68</ele>
        <time>2021-07-16T08:25:27.000Z</time>
      </trkpt>
      <trkpt lat="47.34019" lon="-1.56375">
        <ele>69</ele>
        <time>2021-07-16T08:25:29.000Z</time>
      </trkpt>
      <trkpt lat="47.34018" lon="-1.56355">
        <ele>70</ele>
        <time>2021-07-16T08:25:31.000Z</time>
      </trkpt>
      <trkpt lat="47.34015" lon="-1.56335">
        <ele>70</ele>
        <time>2021-07-16T08:25:33.000Z</time>
      </trkpt>
      <trkpt lat="47.34011" lon="-1.56315">
        <ele>70</ele>
        <time>2021-07-16T08:25:35.000Z</time>
      </trkpt>
      <trkpt lat="47.34007" lon="-1.56295">
        <ele>70</ele>
        <time>2021-07-16T08:25:37.000Z</time>
      </trkpt>
      <trkpt lat="47.34004" lon="-1.56274">
        <ele>70</ele>
        <time>2021-07-16T08:25:39.000Z</time>
      </trkpt>
      <trkpt lat="47.33999" lon="-1.56251">
        <ele>70</ele>
        <time>2021-07-16T08:25:41.000Z</time>
      </trkpt>
      <trkpt lat="47.33994" lon="-1.56227">
        <ele>69</ele>
        <time>2021-07-16T08:25:43.000Z</time>
      </trkpt>
      <trkpt lat="47.33989" lon="-1.56204">
        <ele>69</ele>
        <time>2021-07-16T08:25:45.000Z</time>
      </trkpt>
      <trkpt lat="47.33986" lon="-1.56179">
        <ele>69</ele>
        <time>2021-07-16T08:25:47.000Z</time>
      </trkpt>
      <trkpt lat="47.33982" lon="-1.56155">
        <ele>69</ele>
        <time>2021-07-16T08:25:49.000Z</time>
      </trkpt>
      <trkpt lat="47.3398" lon="-1.56141">
        <ele>69</ele>
        <time>2021-07-16T08:25:50.000Z</time>
      </trkpt>
      <trkpt lat="47.33977" lon="-1.56116">
        <ele>69</ele>
        <time>2021-07-16T08:25:52.000Z</time>
      </trkpt>
      <trkpt lat="47.33975" lon="-1.5609">
        <ele>67</ele>
        <time>2021-07-16T08:25:54.000Z</time>
      </trkpt>
      <trkpt lat="47.33975" lon="-1.56075">
        <ele>66</ele>
        <time>2021-07-16T08:25:55.000Z</time>
      </trkpt>
      <trkpt lat="47.33974" lon="-1.5606">
        <ele>65</ele>
        <time>2021-07-16T08:25:56.000Z</time>
      </trkpt>
      <trkpt lat="47.33976" lon="-1.56046">
        <ele>64</ele>
        <time>2021-07-16T08:25:57.000Z</time>
      </trkpt>
      <trkpt lat="47.33981" lon="-1.56023">
        <ele>62</ele>
        <time>2021-07-16T08:25:59.000Z</time>
      </trkpt>
      <trkpt lat="47.33987" lon="-1.56011">
        <ele>61</ele>
        <time>2021-07-16T08:26:00.000Z</time>
      </trkpt>
      <trkpt lat="47.33993" lon="-1.56001">
        <ele>60</ele>
        <time>2021-07-16T08:26:01.000Z</time>
      </trkpt>
      <trkpt lat="47.34001" lon="-1.5599">
        <ele>59</ele>
        <time>2021-07-16T08:26:02.000Z</time>
      </trkpt>
      <trkpt lat="47.34009" lon="-1.55979">
        <ele>60</ele>
        <time>2021-07-16T08:26:03.000Z</time>
      </trkpt>
      <trkpt lat="47.34019" lon="-1.5597">
        <ele>60</ele>
        <time>2021-07-16T08:26:04.000Z</time>
      </trkpt>
      <trkpt lat="47.34027" lon="-1.55961">
        <ele>60</ele>
        <time>2021-07-16T08:26:05.000Z</time>
      </trkpt>
      <trkpt lat="47.34035" lon="-1.55952">
        <ele>60</ele>
        <time>2021-07-16T08:26:06.000Z</time>
      </trkpt>
      <trkpt lat="47.34042" lon="-1.55944">
        <ele>60</ele>
        <time>2021-07-16T08:26:07.000Z</time>
      </trkpt>
      <trkpt lat="47.3405" lon="-1.55935">
        <ele>60</ele>
        <time>2021-07-16T08:26:08.000Z</time>
      </trkpt>
      <trkpt lat="47.34061" lon="-1.55917">
        <ele>59</ele>
        <time>2021-07-16T08:26:10.000Z</time>
      </trkpt>
      <trkpt lat="47.34065" lon="-1.55897">
        <ele>59</ele>
        <time>2021-07-16T08:26:12.000Z</time>
      </trkpt>
      <trkpt lat="47.34065" lon="-1.55877">
        <ele>59</ele>
        <time>2021-07-16T08:26:14.000Z</time>
      </trkpt>
      <trkpt lat="47.34062" lon="-1.5586">
        <ele>59</ele>
        <time>2021-07-16T08:26:16.000Z</time>
      </trkpt>
      <trkpt lat="47.34059" lon="-1.55845">
        <ele>59</ele>
        <time>2021-07-16T08:26:18.000Z</time>
      </trkpt>
      <trkpt lat="47.34056" lon="-1.55831">
        <ele>59</ele>
        <time>2021-07-16T08:26:20.000Z</time>
      </trkpt>
      <trkpt lat="47.34053" lon="-1.55815">
        <ele>58</ele>
        <time>2021-07-16T08:26:22.000Z</time>
      </trkpt>
      <trkpt lat="47.34051" lon="-1.55798">
        <ele>58</ele>
        <time>2021-07-16T08:26:24.000Z</time>
      </trkpt>
      <trkpt lat="47.3405" lon="-1.55782">
        <ele>57</ele>
        <time>2021-07-16T08:26:26.000Z</time>
      </trkpt>
      <trkpt lat="47.34051" lon="-1.55765">
        <ele>57</ele>
        <time>2021-07-16T08:26:28.000Z</time>
      </trkpt>
      <trkpt lat="47.34053" lon="-1.55747">
        <ele>57</ele>
        <time>2021-07-16T08:26:30.000Z</time>
      </trkpt>
      <trkpt lat="47.34056" lon="-1.5573">
        <ele>58</ele>
        <time>2021-07-16T08:26:32.000Z</time>
      </trkpt>
      <trkpt lat="47.3406" lon="-1.55713">
        <ele>59</ele>
        <time>2021-07-16T08:26:34.000Z</time>
      </trkpt>
      <trkpt lat="47.34063" lon="-1.55696">
        <ele>59</ele>
        <time>2021-07-16T08:26:36.000Z</time>
      </trkpt>
      <trkpt lat="47.34066" lon="-1.55678">
        <ele>61</ele>
        <time>2021-07-16T08:26:38.000Z</time>
      </trkpt>
      <trkpt lat="47.3407" lon="-1.5566">
        <ele>61</ele>
        <time>2021-07-16T08:26:40.000Z</time>
      </trkpt>
      <trkpt lat="47.34073" lon="-1.55642">
        <ele>62</ele>
        <time>2021-07-16T08:26:42.000Z</time>
      </trkpt>
      <trkpt lat="47.34077" lon="-1.55624">
        <ele>62</ele>
        <time>2021-07-16T08:26:44.000Z</time>
      </trkpt>
      <trkpt lat="47.34081" lon="-1.55607">
        <ele>62</ele>
        <time>2021-07-16T08:26:46.000Z</time>
      </trkpt>
      <trkpt lat="47.34086" lon="-1.55589">
        <ele>62</ele>
        <time>2021-07-16T08:26:48.000Z</time>
      </trkpt>
      <trkpt lat="47.3409" lon="-1.55571">
        <ele>62</ele>
        <time>2021-07-16T08:26:50.000Z</time>
      </trkpt>
      <trkpt lat="47.34096" lon="-1.55553">
        <ele>61</ele>
        <time>2021-07-16T08:26:52.000Z</time>
      </trkpt>
      <trkpt lat="47.34103" lon="-1.55536">
        <ele>60</ele>
        <time>2021-07-16T08:26:54.000Z</time>
      </trkpt>
      <trkpt lat="47.34112" lon="-1.5552">
        <ele>59</ele>
        <time>2021-07-16T08:26:56.000Z</time>
      </trkpt>
      <trkpt lat="47.34121" lon="-1.55504">
        <ele>60</ele>
        <time>2021-07-16T08:26:58.000Z</time>
      </trkpt>
      <trkpt lat="47.3413" lon="-1.55487">
        <ele>60</ele>
        <time>2021-07-16T08:27:00.000Z</time>
      </trkpt>
      <trkpt lat="47.34139" lon="-1.55472">
        <ele>61</ele>
        <time>2021-07-16T08:27:02.000Z</time>
      </trkpt>
      <trkpt lat="47.34149" lon="-1.55457">
        <ele>61</ele>
        <time>2021-07-16T08:27:04.000Z</time>
      </trkpt>
      <trkpt lat="47.34159" lon="-1.55443">
        <ele>61</ele>
        <time>2021-07-16T08:27:06.000Z</time>
      </trkpt>
      <trkpt lat="47.34168" lon="-1.55428">
        <ele>62</ele>
        <time>2021-07-16T08:27:08.000Z</time>
      </trkpt>
      <trkpt lat="47.34178" lon="-1.55414">
        <ele>62</ele>
        <time>2021-07-16T08:27:10.000Z</time>
      </trkpt>
      <trkpt lat="47.34187" lon="-1.554">
        <ele>63</ele>
        <time>2021-07-16T08:27:12.000Z</time>
      </trkpt>
      <trkpt lat="47.34196" lon="-1.55386">
        <ele>63</ele>
        <time>2021-07-16T08:27:14.000Z</time>
      </trkpt>
      <trkpt lat="47.34205" lon="-1.55372">
        <ele>63</ele>
        <time>2021-07-16T08:27:16.000Z</time>
      </trkpt>
      <trkpt lat="47.34216" lon="-1.55359">
        <ele>63</ele>
        <time>2021-07-16T08:27:18.000Z</time>
      </trkpt>
      <trkpt lat="47.34225" lon="-1.55345">
        <ele>63</ele>
        <time>2021-07-16T08:27:20.000Z</time>
      </trkpt>
      <trkpt lat="47.34235" lon="-1.55331">
        <ele>63</ele>
        <time>2021-07-16T08:27:22.000Z</time>
      </trkpt>
      <trkpt lat="47.34244" lon="-1.55317">
        <ele>63</ele>
        <time>2021-07-16T08:27:24.000Z</time>
      </trkpt>
      <trkpt lat="47.34254" lon="-1.55302">
        <ele>62</ele>
        <time>2021-07-16T08:27:26.000Z</time>
      </trkpt>
      <trkpt lat="47.34264" lon="-1.55288">
        <ele>62</ele>
        <time>2021-07-16T08:27:28.000Z</time>
      </trkpt>
      <trkpt lat="47.34274" lon="-1.55274">
        <ele>61</ele>
        <time>2021-07-16T08:27:30.000Z</time>
      </trkpt>
      <trkpt lat="47.34283" lon="-1.55259">
        <ele>61</ele>
        <time>2021-07-16T08:27:32.000Z</time>
      </trkpt>
      <trkpt lat="47.34296" lon="-1.55234">
        <ele>61</ele>
        <time>2021-07-16T08:27:35.000Z</time>
      </trkpt>
      <trkpt lat="47.34302" lon="-1.55215">
        <ele>60</ele>
        <time>2021-07-16T08:27:37.000Z</time>
      </trkpt>
      <trkpt lat="47.34307" lon="-1.55194">
        <ele>60</ele>
        <time>2021-07-16T08:27:39.000Z</time>
      </trkpt>
      <trkpt lat="47.3431" lon="-1.55173">
        <ele>59</ele>
        <time>2021-07-16T08:27:41.000Z</time>
      </trkpt>
      <trkpt lat="47.34313" lon="-1.5514">
        <ele>58</ele>
        <time>2021-07-16T08:27:44.000Z</time>
      </trkpt>
      <trkpt lat="47.34315" lon="-1.55117">
        <ele>58</ele>
        <time>2021-07-16T08:27:46.000Z</time>
      </trkpt>
      <trkpt lat="47.34317" lon="-1.55094">
        <ele>58</ele>
        <time>2021-07-16T08:27:48.000Z</time>
      </trkpt>
      <trkpt lat="47.34319" lon="-1.55073">
        <ele>58</ele>
        <time>2021-07-16T08:27:50.000Z</time>
      </trkpt>
      <trkpt lat="47.3432" lon="-1.55052">
        <ele>59</ele>
        <time>2021-07-16T08:27:52.000Z</time>
      </trkpt>
      <trkpt lat="47.34323" lon="-1.55035">
        <ele>59</ele>
        <time>2021-07-16T08:27:54.000Z</time>
      </trkpt>
      <trkpt lat="47.34325" lon="-1.55012">
        <ele>59</ele>
        <time>2021-07-16T08:27:57.000Z</time>
      </trkpt>
      <trkpt lat="47.34326" lon="-1.54997">
        <ele>59</ele>
        <time>2021-07-16T08:27:59.000Z</time>
      </trkpt>
      <trkpt lat="47.34328" lon="-1.54982">
        <ele>60</ele>
        <time>2021-07-16T08:28:01.000Z</time>
      </trkpt>
      <trkpt lat="47.34329" lon="-1.54967">
        <ele>61</ele>
        <time>2021-07-16T08:28:03.000Z</time>
      </trkpt>
      <trkpt lat="47.3433" lon="-1.54952">
        <ele>61</ele>
        <time>2021-07-16T08:28:05.000Z</time>
      </trkpt>
      <trkpt lat="47.34331" lon="-1.54937">
        <ele>61</ele>
        <time>2021-07-16T08:28:07.000Z</time>
      </trkpt>
      <trkpt lat="47.34333" lon="-1.54922">
        <ele>62</ele>
        <time>2021-07-16T08:28:09.000Z</time>
      </trkpt>
      <trkpt lat="47.34335" lon="-1.54908">
        <ele>63</ele>
        <time>2021-07-16T08:28:11.000Z</time>
      </trkpt>
      <trkpt lat="47.34336" lon="-1.54893">
        <ele>63</ele>
        <time>2021-07-16T08:28:13.000Z</time>
      </trkpt>
      <trkpt lat="47.34337" lon="-1.54878">
        <ele>64</ele>
        <time>2021-07-16T08:28:15.000Z</time>
      </trkpt>
      <trkpt lat="47.34339" lon="-1.54862">
        <ele>64</ele>
        <time>2021-07-16T08:28:17.000Z</time>
      </trkpt>
      <trkpt lat="47.3434" lon="-1.54847">
        <ele>65</ele>
        <time>2021-07-16T08:28:19.000Z</time>
      </trkpt>
      <trkpt lat="47.34341" lon="-1.54831">
        <ele>65</ele>
        <time>2021-07-16T08:28:21.000Z</time>
      </trkpt>
      <trkpt lat="47.34342" lon="-1.54817">
        <ele>66</ele>
        <time>2021-07-16T08:28:23.000Z</time>
      </trkpt>
      <trkpt lat="47.34344" lon="-1.54802">
        <ele>66</ele>
        <time>2021-07-16T08:28:25.000Z</time>
      </trkpt>
      <trkpt lat="47.34345" lon="-1.54787">
        <ele>67</ele>
        <time>2021-07-16T08:28:27.000Z</time>
      </trkpt>
      <trkpt lat="47.34347" lon="-1.54772">
        <ele>68</ele>
        <time>2021-07-16T08:28:29.000Z</time>
      </trkpt>
      <trkpt lat="47.34349" lon="-1.54758">
        <ele>68</ele>
        <time>2021-07-16T08:28:31.000Z</time>
      </trkpt>
      <trkpt lat="47.34353" lon="-1.54745">
        <ele>69</ele>
        <time>2021-07-16T08:28:33.000Z</time>
      </trkpt>
      <trkpt lat="47.34358" lon="-1.54733">
        <ele>69</ele>
        <time>2021-07-16T08:28:35.000Z</time>
      </trkpt>
      <trkpt lat="47.34364" lon="-1.54721">
        <ele>70</ele>
        <time>2021-07-16T08:28:37.000Z</time>
      </trkpt>
      <trkpt lat="47.34371" lon="-1.5471">
        <ele>71</ele>
        <time>2021-07-16T08:28:39.000Z</time>
      </trkpt>
      <trkpt lat="47.34378" lon="-1.54701">
        <ele>71</ele>
        <time>2021-07-16T08:28:41.000Z</time>
      </trkpt>
      <trkpt lat="47.34386" lon="-1.54692">
        <ele>72</ele>
        <time>2021-07-16T08:28:43.000Z</time>
      </trkpt>
      <trkpt lat="47.34394" lon="-1.54683">
        <ele>72</ele>
        <time>2021-07-16T08:28:45.000Z</time>
      </trkpt>
      <trkpt lat="47.34402" lon="-1.54674">
        <ele>73</ele>
        <time>2021-07-16T08:28:47.000Z</time>
      </trkpt>
      <trkpt lat="47.3441" lon="-1.54665">
        <ele>74</ele>
        <time>2021-07-16T08:28:49.000Z</time>
      </trkpt>
      <trkpt lat="47.34418" lon="-1.54654">
        <ele>74</ele>
        <time>2021-07-16T08:28:51.000Z</time>
      </trkpt>
      <trkpt lat="47.34423" lon="-1.54641">
        <ele>75</ele>
        <time>2021-07-16T08:28:53.000Z</time>
      </trkpt>
      <trkpt lat="47.34426" lon="-1.54627">
        <ele>75</ele>
        <time>2021-07-16T08:28:55.000Z</time>
      </trkpt>
      <trkpt lat="47.34427" lon="-1.54612">
        <ele>75</ele>
        <time>2021-07-16T08:28:57.000Z</time>
      </trkpt>
      <trkpt lat="47.34426" lon="-1.54598">
        <ele>75</ele>
        <time>2021-07-16T08:28:59.000Z</time>
      </trkpt>
      <trkpt lat="47.34424" lon="-1.54582">
        <ele>75</ele>
        <time>2021-07-16T08:29:01.000Z</time>
      </trkpt>
      <trkpt lat="47.34421" lon="-1.54566">
        <ele>75</ele>
        <time>2021-07-16T08:29:03.000Z</time>
      </trkpt>
      <trkpt lat="47.34418" lon="-1.54551">
        <ele>75</ele>
        <time>2021-07-16T08:29:05.000Z</time>
      </trkpt>
      <trkpt lat="47.34416" lon="-1.54537">
        <ele>76</ele>
        <time>2021-07-16T08:29:07.000Z</time>
      </trkpt>
      <trkpt lat="47.34413" lon="-1.54521">
        <ele>76</ele>
        <time>2021-07-16T08:29:09.000Z</time>
      </trkpt>
      <trkpt lat="47.3441" lon="-1.54507">
        <ele>76</ele>
        <time>2021-07-16T08:29:11.000Z</time>
      </trkpt>
      <trkpt lat="47.34407" lon="-1.54492">
        <ele>76</ele>
        <time>2021-07-16T08:29:13.000Z</time>
      </trkpt>
      <trkpt lat="47.34404" lon="-1.54477">
        <ele>77</ele>
        <time>2021-07-16T08:29:15.000Z</time>
      </trkpt>
      <trkpt lat="47.34401" lon="-1.54462">
        <ele>77</ele>
        <time>2021-07-16T08:29:17.000Z</time>
      </trkpt>
      <trkpt lat="47.34399" lon="-1.54448">
        <ele>78</ele>
        <time>2021-07-16T08:29:19.000Z</time>
      </trkpt>
      <trkpt lat="47.34395" lon="-1.54434">
        <ele>78</ele>
        <time>2021-07-16T08:29:21.000Z</time>
      </trkpt>
      <trkpt lat="47.34392" lon="-1.54419">
        <ele>79</ele>
        <time>2021-07-16T08:29:23.000Z</time>
      </trkpt>
      <trkpt lat="47.34388" lon="-1.54404">
        <ele>79</ele>
        <time>2021-07-16T08:29:25.000Z</time>
      </trkpt>
      <trkpt lat="47.34384" lon="-1.5439">
        <ele>80</ele>
        <time>2021-07-16T08:29:27.000Z</time>
      </trkpt>
      <trkpt lat="47.34381" lon="-1.54376">
        <ele>80</ele>
        <time>2021-07-16T08:29:29.000Z</time>
      </trkpt>
      <trkpt lat="47.34377" lon="-1.54363">
        <ele>80</ele>
        <time>2021-07-16T08:29:31.000Z</time>
      </trkpt>
      <trkpt lat="47.34373" lon="-1.5435">
        <ele>80</ele>
        <time>2021-07-16T08:29:33.000Z</time>
      </trkpt>
      <trkpt lat="47.34368" lon="-1.54336">
        <ele>80</ele>
        <time>2021-07-16T08:29:35.000Z</time>
      </trkpt>
      <trkpt lat="47.34364" lon="-1.54323">
        <ele>81</ele>
        <time>2021-07-16T08:29:37.000Z</time>
      </trkpt>
      <trkpt lat="47.34359" lon="-1.5431">
        <ele>81</ele>
        <time>2021-07-16T08:29:39.000Z</time>
      </trkpt>
      <trkpt lat="47.34353" lon="-1.54298">
        <ele>82</ele>
        <time>2021-07-16T08:29:41.000Z</time>
      </trkpt>
      <trkpt lat="47.34348" lon="-1.54284">
        <ele>83</ele>
        <time>2021-07-16T08:29:43.000Z</time>
      </trkpt>
      <trkpt lat="47.34342" lon="-1.5427">
        <ele>83</ele>
        <time>2021-07-16T08:29:45.000Z</time>
      </trkpt>
      <trkpt lat="47.34336" lon="-1.54255">
        <ele>83</ele>
        <time>2021-07-16T08:29:47.000Z</time>
      </trkpt>
      <trkpt lat="47.3433" lon="-1.5424">
        <ele>83</ele>
        <time>2021-07-16T08:29:49.000Z</time>
      </trkpt>
      <trkpt lat="47.34323" lon="-1.54224">
        <ele>83</ele>
        <time>2021-07-16T08:29:51.000Z</time>
      </trkpt>
      <trkpt lat="47.34317" lon="-1.54209">
        <ele>83</ele>
        <time>2021-07-16T08:29:53.000Z</time>
      </trkpt>
      <trkpt lat="47.34311" lon="-1.54194">
        <ele>83</ele>
        <time>2021-07-16T08:29:55.000Z</time>
      </trkpt>
      <trkpt lat="47.34304" lon="-1.54179">
        <ele>82</ele>
        <time>2021-07-16T08:29:57.000Z</time>
      </trkpt>
      <trkpt lat="47.34299" lon="-1.54163">
        <ele>82</ele>
        <time>2021-07-16T08:29:59.000Z</time>
      </trkpt>
      <trkpt lat="47.34295" lon="-1.54146">
        <ele>82</ele>
        <time>2021-07-16T08:30:01.000Z</time>
      </trkpt>
      <trkpt lat="47.34291" lon="-1.54127">
        <ele>82</ele>
        <time>2021-07-16T08:30:03.000Z</time>
      </trkpt>
      <trkpt lat="47.34288" lon="-1.54107">
        <ele>82</ele>
        <time>2021-07-16T08:30:05.000Z</time>
      </trkpt>
      <trkpt lat="47.34286" lon="-1.54088">
        <ele>81</ele>
        <time>2021-07-16T08:30:07.000Z</time>
      </trkpt>
      <trkpt lat="47.34282" lon="-1.54069">
        <ele>81</ele>
        <time>2021-07-16T08:30:09.000Z</time>
      </trkpt>
      <trkpt lat="47.34279" lon="-1.54049">
        <ele>81</ele>
        <time>2021-07-16T08:30:11.000Z</time>
      </trkpt>
      <trkpt lat="47.34274" lon="-1.5403">
        <ele>81</ele>
        <time>2021-07-16T08:30:13.000Z</time>
      </trkpt>
      <trkpt lat="47.3427" lon="-1.54012">
        <ele>81</ele>
        <time>2021-07-16T08:30:15.000Z</time>
      </trkpt>
      <trkpt lat="47.34264" lon="-1.53994">
        <ele>81</ele>
        <time>2021-07-16T08:30:17.000Z</time>
      </trkpt>
      <trkpt lat="47.34257" lon="-1.53979">
        <ele>81</ele>
        <time>2021-07-16T08:30:19.000Z</time>
      </trkpt>
      <trkpt lat="47.34251" lon="-1.53962">
        <ele>81</ele>
        <time>2021-07-16T08:30:21.000Z</time>
      </trkpt>
      <trkpt lat="47.34245" lon="-1.53945">
        <ele>80</ele>
        <time>2021-07-16T08:30:23.000Z</time>
      </trkpt>
      <trkpt lat="47.34237" lon="-1.5393">
        <ele>80</ele>
        <time>2021-07-16T08:30:25.000Z</time>
      </trkpt>
      <trkpt lat="47.34229" lon="-1.53915">
        <ele>79</ele>
        <time>2021-07-16T08:30:27.000Z</time>
      </trkpt>
      <trkpt lat="47.34221" lon="-1.53901">
        <ele>79</ele>
        <time>2021-07-16T08:30:29.000Z</time>
      </trkpt>
      <trkpt lat="47.34212" lon="-1.53889">
        <ele>80</ele>
        <time>2021-07-16T08:30:31.000Z</time>
      </trkpt>
      <trkpt lat="47.34203" lon="-1.53878">
        <ele>80</ele>
        <time>2021-07-16T08:30:33.000Z</time>
      </trkpt>
      <trkpt lat="47.34193" lon="-1.53868">
        <ele>81</ele>
        <time>2021-07-16T08:30:35.000Z</time>
      </trkpt>
      <trkpt lat="47.34184" lon="-1.53857">
        <ele>81</ele>
        <time>2021-07-16T08:30:37.000Z</time>
      </trkpt>
      <trkpt lat="47.34174" lon="-1.53848">
        <ele>81</ele>
        <time>2021-07-16T08:30:39.000Z</time>
      </trkpt>
      <trkpt lat="47.34163" lon="-1.53839">
        <ele>81</ele>
        <time>2021-07-16T08:30:41.000Z</time>
      </trkpt>
      <trkpt lat="47.34152" lon="-1.5383">
        <ele>82</ele>
        <time>2021-07-16T08:30:43.000Z</time>
      </trkpt>
      <trkpt lat="47.34143" lon="-1.5382">
        <ele>81</ele>
        <time>2021-07-16T08:30:45.000Z</time>
      </trkpt>
      <trkpt lat="47.34133" lon="-1.5381">
        <ele>81</ele>
        <time>2021-07-16T08:30:47.000Z</time>
      </trkpt>
      <trkpt lat="47.34123" lon="-1.53798">
        <ele>80</ele>
        <time>2021-07-16T08:30:49.000Z</time>
      </trkpt>
      <trkpt lat="47.34113" lon="-1.53787">
        <ele>80</ele>
        <time>2021-07-16T08:30:51.000Z</time>
      </trkpt>
      <trkpt lat="47.34103" lon="-1.53777">
        <ele>81</ele>
        <time>2021-07-16T08:30:53.000Z</time>
      </trkpt>
      <trkpt lat="47.34093" lon="-1.53766">
        <ele>81</ele>
        <time>2021-07-16T08:30:55.000Z</time>
      </trkpt>
      <trkpt lat="47.34083" lon="-1.53756">
        <ele>81</ele>
        <time>2021-07-16T08:30:57.000Z</time>
      </trkpt>
      <trkpt lat="47.34073" lon="-1.53745">
        <ele>80</ele>
        <time>2021-07-16T08:30:59.000Z</time>
      </trkpt>
      <trkpt lat="47.34064" lon="-1.53734">
        <ele>80</ele>
        <time>2021-07-16T08:31:01.000Z</time>
      </trkpt>
      <trkpt lat="47.34053" lon="-1.53724">
        <ele>81</ele>
        <time>2021-07-16T08:31:03.000Z</time>
      </trkpt>
      <trkpt lat="47.34042" lon="-1.53713">
        <ele>81</ele>
        <time>2021-07-16T08:31:05.000Z</time>
      </trkpt>
      <trkpt lat="47.34031" lon="-1.53702">
        <ele>80</ele>
        <time>2021-07-16T08:31:07.000Z</time>
      </trkpt>
      <trkpt lat="47.34021" lon="-1.53691">
        <ele>80</ele>
        <time>2021-07-16T08:31:09.000Z</time>
      </trkpt>
      <trkpt lat="47.3401" lon="-1.5368">
        <ele>79</ele>
        <time>2021-07-16T08:31:11.000Z</time>
      </trkpt>
      <trkpt lat="47.33999" lon="-1.53668">
        <ele>79</ele>
        <time>2021-07-16T08:31:13.000Z</time>
      </trkpt>
      <trkpt lat="47.33988" lon="-1.53657">
        <ele>78</ele>
        <time>2021-07-16T08:31:15.000Z</time>
      </trkpt>
      <trkpt lat="47.33977" lon="-1.53646">
        <ele>78</ele>
        <time>2021-07-16T08:31:17.000Z</time>
      </trkpt>
      <trkpt lat="47.33966" lon="-1.53633">
        <ele>77</ele>
        <time>2021-07-16T08:31:19.000Z</time>
      </trkpt>
      <trkpt lat="47.33954" lon="-1.53619">
        <ele>77</ele>
        <time>2021-07-16T08:31:21.000Z</time>
      </trkpt>
      <trkpt lat="47.33941" lon="-1.53606">
        <ele>76</ele>
        <time>2021-07-16T08:31:23.000Z</time>
      </trkpt>
      <trkpt lat="47.33928" lon="-1.53592">
        <ele>76</ele>
        <time>2021-07-16T08:31:25.000Z</time>
      </trkpt>
      <trkpt lat="47.33917" lon="-1.53573">
        <ele>75</ele>
        <time>2021-07-16T08:31:27.000Z</time>
      </trkpt>
      <trkpt lat="47.33913" lon="-1.53561">
        <ele>74</ele>
        <time>2021-07-16T08:31:28.000Z</time>
      </trkpt>
      <trkpt lat="47.33912" lon="-1.53548">
        <ele>74</ele>
        <time>2021-07-16T08:31:29.000Z</time>
      </trkpt>
      <trkpt lat="47.33912" lon="-1.53534">
        <ele>73</ele>
        <time>2021-07-16T08:31:30.000Z</time>
      </trkpt>
      <trkpt lat="47.33912" lon="-1.5352">
        <ele>72</ele>
        <time>2021-07-16T08:31:31.000Z</time>
      </trkpt>
      <trkpt lat="47.33913" lon="-1.53506">
        <ele>72</ele>
        <time>2021-07-16T08:31:32.000Z</time>
      </trkpt>
      <trkpt lat="47.33913" lon="-1.53493">
        <ele>72</ele>
        <time>2021-07-16T08:31:33.000Z</time>
      </trkpt>
      <trkpt lat="47.33914" lon="-1.5348">
        <ele>71</ele>
        <time>2021-07-16T08:31:34.000Z</time>
      </trkpt>
      <trkpt lat="47.33914" lon="-1.53466">
        <ele>70</ele>
        <time>2021-07-16T08:31:35.000Z</time>
      </trkpt>
      <trkpt lat="47.33909" lon="-1.53441">
        <ele>68</ele>
        <time>2021-07-16T08:31:37.000Z</time>
      </trkpt>
      <trkpt lat="47.33904" lon="-1.5343">
        <ele>68</ele>
        <time>2021-07-16T08:31:38.000Z</time>
      </trkpt>
      <trkpt lat="47.33896" lon="-1.53408">
        <ele>67</ele>
        <time>2021-07-16T08:31:40.000Z</time>
      </trkpt>
      <trkpt lat="47.33894" lon="-1.53384">
        <ele>66</ele>
        <time>2021-07-16T08:31:42.000Z</time>
      </trkpt>
      <trkpt lat="47.339" lon="-1.5336">
        <ele>65</ele>
        <time>2021-07-16T08:31:44.000Z</time>
      </trkpt>
      <trkpt lat="47.33904" lon="-1.53348">
        <ele>65</ele>
        <time>2021-07-16T08:31:45.000Z</time>
      </trkpt>
      <trkpt lat="47.33914" lon="-1.53326">
        <ele>64</ele>
        <time>2021-07-16T08:31:47.000Z</time>
      </trkpt>
      <trkpt lat="47.33923" lon="-1.53304">
        <ele>63</ele>
        <time>2021-07-16T08:31:49.000Z</time>
      </trkpt>
      <trkpt lat="47.33932" lon="-1.53282">
        <ele>62</ele>
        <time>2021-07-16T08:31:51.000Z</time>
      </trkpt>
      <trkpt lat="47.33941" lon="-1.53261">
        <ele>61</ele>
        <time>2021-07-16T08:31:53.000Z</time>
      </trkpt>
      <trkpt lat="47.33949" lon="-1.53241">
        <ele>61</ele>
        <time>2021-07-16T08:31:55.000Z</time>
      </trkpt>
      <trkpt lat="47.33957" lon="-1.53224">
        <ele>60</ele>
        <time>2021-07-16T08:31:57.000Z</time>
      </trkpt>
      <trkpt lat="47.33958" lon="-1.53211">
        <ele>60</ele>
        <time>2021-07-16T08:31:59.000Z</time>
      </trkpt>
      <trkpt lat="47.33952" lon="-1.53197">
        <ele>60</ele>
        <time>2021-07-16T08:32:02.000Z</time>
      </trkpt>
      <trkpt lat="47.33945" lon="-1.53183">
        <ele>60</ele>
        <time>2021-07-16T08:32:04.000Z</time>
      </trkpt>
      <trkpt lat="47.33938" lon="-1.53167">
        <ele>60</ele>
        <time>2021-07-16T08:32:06.000Z</time>
      </trkpt>
      <trkpt lat="47.33929" lon="-1.5315">
        <ele>59</ele>
        <time>2021-07-16T08:32:08.000Z</time>
      </trkpt>
      <trkpt lat="47.33921" lon="-1.53133">
        <ele>59</ele>
        <time>2021-07-16T08:32:10.000Z</time>
      </trkpt>
      <trkpt lat="47.33913" lon="-1.53116">
        <ele>58</ele>
        <time>2021-07-16T08:32:12.000Z</time>
      </trkpt>
      <trkpt lat="47.33904" lon="-1.53099">
        <ele>58</ele>
        <time>2021-07-16T08:32:14.000Z</time>
      </trkpt>
      <trkpt lat="47.33897" lon="-1.53084">
        <ele>57</ele>
        <time>2021-07-16T08:32:16.000Z</time>
      </trkpt>
      <trkpt lat="47.33892" lon="-1.53072">
        <ele>56</ele>
        <time>2021-07-16T08:32:18.000Z</time>
      </trkpt>
      <trkpt lat="47.33895" lon="-1.53055">
        <ele>55</ele>
        <time>2021-07-16T08:32:20.000Z</time>
      </trkpt>
      <trkpt lat="47.33902" lon="-1.53037">
        <ele>55</ele>
        <time>2021-07-16T08:32:22.000Z</time>
      </trkpt>
      <trkpt lat="47.3391" lon="-1.5302">
        <ele>54</ele>
        <time>2021-07-16T08:32:24.000Z</time>
      </trkpt>
      <trkpt lat="47.33917" lon="-1.53002">
        <ele>54</ele>
        <time>2021-07-16T08:32:26.000Z</time>
      </trkpt>
      <trkpt lat="47.33924" lon="-1.52985">
        <ele>54</ele>
        <time>2021-07-16T08:32:28.000Z</time>
      </trkpt>
      <trkpt lat="47.33929" lon="-1.52967">
        <ele>54</ele>
        <time>2021-07-16T08:32:30.000Z</time>
      </trkpt>
      <trkpt lat="47.33936" lon="-1.52951">
        <ele>54</ele>
        <time>2021-07-16T08:32:32.000Z</time>
      </trkpt>
      <trkpt lat="47.33942" lon="-1.52936">
        <ele>55</ele>
        <time>2021-07-16T08:32:34.000Z</time>
      </trkpt>
      <trkpt lat="47.33948" lon="-1.5292">
        <ele>55</ele>
        <time>2021-07-16T08:32:36.000Z</time>
      </trkpt>
      <trkpt lat="47.33953" lon="-1.52906">
        <ele>55</ele>
        <time>2021-07-16T08:32:38.000Z</time>
      </trkpt>
      <trkpt lat="47.33958" lon="-1.52892">
        <ele>55</ele>
        <time>2021-07-16T08:32:40.000Z</time>
      </trkpt>
      <trkpt lat="47.33963" lon="-1.5288">
        <ele>55</ele>
        <time>2021-07-16T08:32:42.000Z</time>
      </trkpt>
      <trkpt lat="47.33968" lon="-1.52866">
        <ele>55</ele>
        <time>2021-07-16T08:32:45.000Z</time>
      </trkpt>
      <trkpt lat="47.33962" lon="-1.52855">
        <ele>55</ele>
        <time>2021-07-16T08:32:48.000Z</time>
      </trkpt>
      <trkpt lat="47.33951" lon="-1.52847">
        <ele>55</ele>
        <time>2021-07-16T08:32:50.000Z</time>
      </trkpt>
      <trkpt lat="47.3394" lon="-1.52838">
        <ele>55</ele>
        <time>2021-07-16T08:32:52.000Z</time>
      </trkpt>
      <trkpt lat="47.33929" lon="-1.52828">
        <ele>56</ele>
        <time>2021-07-16T08:32:54.000Z</time>
      </trkpt>
      <trkpt lat="47.33916" lon="-1.52818">
        <ele>56</ele>
        <time>2021-07-16T08:32:56.000Z</time>
      </trkpt>
      <trkpt lat="47.3391" lon="-1.52799">
        <ele>57</ele>
        <time>2021-07-16T08:32:58.000Z</time>
      </trkpt>
      <trkpt lat="47.33911" lon="-1.5278">
        <ele>56</ele>
        <time>2021-07-16T08:33:00.000Z</time>
      </trkpt>
      <trkpt lat="47.33913" lon="-1.5276">
        <ele>55</ele>
        <time>2021-07-16T08:33:02.000Z</time>
      </trkpt>
      <trkpt lat="47.33916" lon="-1.52742">
        <ele>55</ele>
        <time>2021-07-16T08:33:04.000Z</time>
      </trkpt>
      <trkpt lat="47.33919" lon="-1.52723">
        <ele>54</ele>
        <time>2021-07-16T08:33:06.000Z</time>
      </trkpt>
      <trkpt lat="47.3392" lon="-1.52703">
        <ele>54</ele>
        <time>2021-07-16T08:33:08.000Z</time>
      </trkpt>
      <trkpt lat="47.33922" lon="-1.52685">
        <ele>53</ele>
        <time>2021-07-16T08:33:10.000Z</time>
      </trkpt>
      <trkpt lat="47.33926" lon="-1.52665">
        <ele>53</ele>
        <time>2021-07-16T08:33:12.000Z</time>
      </trkpt>
      <trkpt lat="47.33929" lon="-1.52646">
        <ele>53</ele>
        <time>2021-07-16T08:33:14.000Z</time>
      </trkpt>
      <trkpt lat="47.33933" lon="-1.52628">
        <ele>54</ele>
        <time>2021-07-16T08:33:16.000Z</time>
      </trkpt>
      <trkpt lat="47.33935" lon="-1.52612">
        <ele>53</ele>
        <time>2021-07-16T08:33:18.000Z</time>
      </trkpt>
      <trkpt lat="47.33931" lon="-1.52599">
        <ele>54</ele>
        <time>2021-07-16T08:33:20.000Z</time>
      </trkpt>
      <trkpt lat="47.33921" lon="-1.52594">
        <ele>54</ele>
        <time>2021-07-16T08:33:22.000Z</time>
      </trkpt>
      <trkpt lat="47.33911" lon="-1.52591">
        <ele>53</ele>
        <time>2021-07-16T08:33:24.000Z</time>
      </trkpt>
      <trkpt lat="47.33901" lon="-1.52587">
        <ele>53</ele>
        <time>2021-07-16T08:33:26.000Z</time>
      </trkpt>
      <trkpt lat="47.3389" lon="-1.52585">
        <ele>53</ele>
        <time>2021-07-16T08:33:28.000Z</time>
      </trkpt>
      <trkpt lat="47.33879" lon="-1.52581">
        <ele>54</ele>
        <time>2021-07-16T08:33:30.000Z</time>
      </trkpt>
      <trkpt lat="47.33869" lon="-1.52577">
        <ele>55</ele>
        <time>2021-07-16T08:33:32.000Z</time>
      </trkpt>
      <trkpt lat="47.33859" lon="-1.52574">
        <ele>55</ele>
        <time>2021-07-16T08:33:34.000Z</time>
      </trkpt>
      <trkpt lat="47.33847" lon="-1.52569">
        <ele>56</ele>
        <time>2021-07-16T08:33:37.000Z</time>
      </trkpt>
      <trkpt lat="47.33837" lon="-1.52564">
        <ele>56</ele>
        <time>2021-07-16T08:33:40.000Z</time>
      </trkpt>
      <trkpt lat="47.33826" lon="-1.5256">
        <ele>57</ele>
        <time>2021-07-16T08:33:43.000Z</time>
      </trkpt>
      <trkpt lat="47.33816" lon="-1.52558">
        <ele>58</ele>
        <time>2021-07-16T08:33:45.000Z</time>
      </trkpt>
      <trkpt lat="47.33806" lon="-1.52555">
        <ele>58</ele>
        <time>2021-07-16T08:33:47.000Z</time>
      </trkpt>
      <trkpt lat="47.33796" lon="-1.52551">
        <ele>58</ele>
        <time>2021-07-16T08:33:49.000Z</time>
      </trkpt>
      <trkpt lat="47.33787" lon="-1.52547">
        <ele>58</ele>
        <time>2021-07-16T08:33:51.000Z</time>
      </trkpt>
      <trkpt lat="47.33777" lon="-1.52543">
        <ele>59</ele>
        <time>2021-07-16T08:33:53.000Z</time>
      </trkpt>
      <trkpt lat="47.33765" lon="-1.52538">
        <ele>59</ele>
        <time>2021-07-16T08:33:55.000Z</time>
      </trkpt>
      <trkpt lat="47.33752" lon="-1.52533">
        <ele>59</ele>
        <time>2021-07-16T08:33:57.000Z</time>
      </trkpt>
      <trkpt lat="47.33739" lon="-1.52527">
        <ele>59</ele>
        <time>2021-07-16T08:33:59.000Z</time>
      </trkpt>
      <trkpt lat="47.33726" lon="-1.52521">
        <ele>59</ele>
        <time>2021-07-16T08:34:01.000Z</time>
      </trkpt>
      <trkpt lat="47.33714" lon="-1.52512">
        <ele>59</ele>
        <time>2021-07-16T08:34:03.000Z</time>
      </trkpt>
      <trkpt lat="47.33704" lon="-1.52501">
        <ele>59</ele>
        <time>2021-07-16T08:34:05.000Z</time>
      </trkpt>
      <trkpt lat="47.33696" lon="-1.52489">
        <ele>59</ele>
        <time>2021-07-16T08:34:07.000Z</time>
      </trkpt>
      <trkpt lat="47.33692" lon="-1.52476">
        <ele>59</ele>
        <time>2021-07-16T08:34:09.000Z</time>
      </trkpt>
      <trkpt lat="47.33697" lon="-1.52461">
        <ele>59</ele>
        <time>2021-07-16T08:34:11.000Z</time>
      </trkpt>
      <trkpt lat="47.33701" lon="-1.52447">
        <ele>59</ele>
        <time>2021-07-16T08:34:13.000Z</time>
      </trkpt>
      <trkpt lat="47.33705" lon="-1.52433">
        <ele>60</ele>
        <time>2021-07-16T08:34:15.000Z</time>
      </trkpt>
      <trkpt lat="47.33708" lon="-1.5242">
        <ele>60</ele>
        <time>2021-07-16T08:34:17.000Z</time>
      </trkpt>
      <trkpt lat="47.33712" lon="-1.52402">
        <ele>61</ele>
        <time>2021-07-16T08:34:20.000Z</time>
      </trkpt>
      <trkpt lat="47.33713" lon="-1.52389">
        <ele>61</ele>
        <time>2021-07-16T08:34:22.000Z</time>
      </trkpt>
      <trkpt lat="47.33714" lon="-1.52375">
        <ele>61</ele>
        <time>2021-07-16T08:34:24.000Z</time>
      </trkpt>
      <trkpt lat="47.33716" lon="-1.52361">
        <ele>61</ele>
        <time>2021-07-16T08:34:26.000Z</time>
      </trkpt>
      <trkpt lat="47.33718" lon="-1.52348">
        <ele>61</ele>
        <time>2021-07-16T08:34:28.000Z</time>
      </trkpt>
      <trkpt lat="47.3372" lon="-1.52335">
        <ele>62</ele>
        <time>2021-07-16T08:34:30.000Z</time>
      </trkpt>
      <trkpt lat="47.33721" lon="-1.52322">
        <ele>62</ele>
        <time>2021-07-16T08:34:32.000Z</time>
      </trkpt>
      <trkpt lat="47.33724" lon="-1.52302">
        <ele>62</ele>
        <time>2021-07-16T08:34:35.000Z</time>
      </trkpt>
      <trkpt lat="47.33726" lon="-1.52289">
        <ele>62</ele>
        <time>2021-07-16T08:34:37.000Z</time>
      </trkpt>
      <trkpt lat="47.3373" lon="-1.52275">
        <ele>63</ele>
        <time>2021-07-16T08:34:39.000Z</time>
      </trkpt>
      <trkpt lat="47.33734" lon="-1.52261">
        <ele>64</ele>
        <time>2021-07-16T08:34:41.000Z</time>
      </trkpt>
      <trkpt lat="47.33737" lon="-1.52246">
        <ele>64</ele>
        <time>2021-07-16T08:34:43.000Z</time>
      </trkpt>
      <trkpt lat="47.3374" lon="-1.52232">
        <ele>64</ele>
        <time>2021-07-16T08:34:45.000Z</time>
      </trkpt>
      <trkpt lat="47.33742" lon="-1.52217">
        <ele>65</ele>
        <time>2021-07-16T08:34:47.000Z</time>
      </trkpt>
      <trkpt lat="47.33745" lon="-1.52203">
        <ele>64</ele>
        <time>2021-07-16T08:34:49.000Z</time>
      </trkpt>
      <trkpt lat="47.33747" lon="-1.52188">
        <ele>64</ele>
        <time>2021-07-16T08:34:51.000Z</time>
      </trkpt>
      <trkpt lat="47.33749" lon="-1.52173">
        <ele>64</ele>
        <time>2021-07-16T08:34:53.000Z</time>
      </trkpt>
      <trkpt lat="47.3375" lon="-1.52157">
        <ele>64</ele>
        <time>2021-07-16T08:34:55.000Z</time>
      </trkpt>
      <trkpt lat="47.33751" lon="-1.52142">
        <ele>64</ele>
        <time>2021-07-16T08:34:57.000Z</time>
      </trkpt>
      <trkpt lat="47.33752" lon="-1.52128">
        <ele>64</ele>
        <time>2021-07-16T08:34:59.000Z</time>
      </trkpt>
      <trkpt lat="47.33753" lon="-1.52113">
        <ele>64</ele>
        <time>2021-07-16T08:35:01.000Z</time>
      </trkpt>
      <trkpt lat="47.33755" lon="-1.521">
        <ele>65</ele>
        <time>2021-07-16T08:35:03.000Z</time>
      </trkpt>
      <trkpt lat="47.33756" lon="-1.52086">
        <ele>65</ele>
        <time>2021-07-16T08:35:05.000Z</time>
      </trkpt>
      <trkpt lat="47.33758" lon="-1.52071">
        <ele>66</ele>
        <time>2021-07-16T08:35:07.000Z</time>
      </trkpt>
      <trkpt lat="47.33759" lon="-1.52057">
        <ele>66</ele>
        <time>2021-07-16T08:35:09.000Z</time>
      </trkpt>
      <trkpt lat="47.33758" lon="-1.52043">
        <ele>66</ele>
        <time>2021-07-16T08:35:11.000Z</time>
      </trkpt>
      <trkpt lat="47.33758" lon="-1.52029">
        <ele>67</ele>
        <time>2021-07-16T08:35:13.000Z</time>
      </trkpt>
      <trkpt lat="47.33758" lon="-1.52015">
        <ele>67</ele>
        <time>2021-07-16T08:35:15.000Z</time>
      </trkpt>
      <trkpt lat="47.33757" lon="-1.52">
        <ele>67</ele>
        <time>2021-07-16T08:35:17.000Z</time>
      </trkpt>
      <trkpt lat="47.33755" lon="-1.51987">
        <ele>67</ele>
        <time>2021-07-16T08:35:19.000Z</time>
      </trkpt>
      <trkpt lat="47.33753" lon="-1.51973">
        <ele>67</ele>
        <time>2021-07-16T08:35:21.000Z</time>
      </trkpt>
      <trkpt lat="47.33751" lon="-1.51959">
        <ele>68</ele>
        <time>2021-07-16T08:35:23.000Z</time>
      </trkpt>
      <trkpt lat="47.3375" lon="-1.51944">
        <ele>68</ele>
        <time>2021-07-16T08:35:25.000Z</time>
      </trkpt>
      <trkpt lat="47.33749" lon="-1.51929">
        <ele>69</ele>
        <time>2021-07-16T08:35:27.000Z</time>
      </trkpt>
      <trkpt lat="47.33748" lon="-1.51915">
        <ele>70</ele>
        <time>2021-07-16T08:35:29.000Z</time>
      </trkpt>
      <trkpt lat="47.33747" lon="-1.519">
        <ele>70</ele>
        <time>2021-07-16T08:35:31.000Z</time>
      </trkpt>
      <trkpt lat="47.33747" lon="-1.51885">
        <ele>70</ele>
        <time>2021-07-16T08:35:33.000Z</time>
      </trkpt>
      <trkpt lat="47.33747" lon="-1.51869">
        <ele>70</ele>
        <time>2021-07-16T08:35:35.000Z</time>
      </trkpt>
      <trkpt lat="47.33746" lon="-1.51853">
        <ele>70</ele>
        <time>2021-07-16T08:35:37.000Z</time>
      </trkpt>
      <trkpt lat="47.33746" lon="-1.51837">
        <ele>71</ele>
        <time>2021-07-16T08:35:39.000Z</time>
      </trkpt>
      <trkpt lat="47.33744" lon="-1.5182">
        <ele>72</ele>
        <time>2021-07-16T08:35:41.000Z</time>
      </trkpt>
      <trkpt lat="47.33743" lon="-1.51804">
        <ele>72</ele>
        <time>2021-07-16T08:35:43.000Z</time>
      </trkpt>
      <trkpt lat="47.33741" lon="-1.51788">
        <ele>72</ele>
        <time>2021-07-16T08:35:45.000Z</time>
      </trkpt>
      <trkpt lat="47.33741" lon="-1.51772">
        <ele>72</ele>
        <time>2021-07-16T08:35:47.000Z</time>
      </trkpt>
      <trkpt lat="47.3374" lon="-1.51755">
        <ele>73</ele>
        <time>2021-07-16T08:35:49.000Z</time>
      </trkpt>
      <trkpt lat="47.33739" lon="-1.51739">
        <ele>73</ele>
        <time>2021-07-16T08:35:51.000Z</time>
      </trkpt>
      <trkpt lat="47.33738" lon="-1.51721">
        <ele>73</ele>
        <time>2021-07-16T08:35:53.000Z</time>
      </trkpt>
      <trkpt lat="47.33736" lon="-1.51705">
        <ele>73</ele>
        <time>2021-07-16T08:35:55.000Z</time>
      </trkpt>
      <trkpt lat="47.33734" lon="-1.51689">
        <ele>72</ele>
        <time>2021-07-16T08:35:57.000Z</time>
      </trkpt>
      <trkpt lat="47.33732" lon="-1.51672">
        <ele>72</ele>
        <time>2021-07-16T08:35:59.000Z</time>
      </trkpt>
      <trkpt lat="47.33729" lon="-1.51655">
        <ele>71</ele>
        <time>2021-07-16T08:36:01.000Z</time>
      </trkpt>
      <trkpt lat="47.33725" lon="-1.51637">
        <ele>71</ele>
        <time>2021-07-16T08:36:03.000Z</time>
      </trkpt>
      <trkpt lat="47.33721" lon="-1.51621">
        <ele>70</ele>
        <time>2021-07-16T08:36:05.000Z</time>
      </trkpt>
      <trkpt lat="47.33716" lon="-1.51607">
        <ele>71</ele>
        <time>2021-07-16T08:36:07.000Z</time>
      </trkpt>
      <trkpt lat="47.33711" lon="-1.5159">
        <ele>70</ele>
        <time>2021-07-16T08:36:09.000Z</time>
      </trkpt>
      <trkpt lat="47.33707" lon="-1.51572">
        <ele>71</ele>
        <time>2021-07-16T08:36:11.000Z</time>
      </trkpt>
      <trkpt lat="47.33702" lon="-1.51554">
        <ele>70</ele>
        <time>2021-07-16T08:36:13.000Z</time>
      </trkpt>
      <trkpt lat="47.33698" lon="-1.51535">
        <ele>70</ele>
        <time>2021-07-16T08:36:15.000Z</time>
      </trkpt>
      <trkpt lat="47.33694" lon="-1.51516">
        <ele>69</ele>
        <time>2021-07-16T08:36:17.000Z</time>
      </trkpt>
      <trkpt lat="47.33692" lon="-1.51497">
        <ele>69</ele>
        <time>2021-07-16T08:36:19.000Z</time>
      </trkpt>
      <trkpt lat="47.33691" lon="-1.51477">
        <ele>68</ele>
        <time>2021-07-16T08:36:21.000Z</time>
      </trkpt>
      <trkpt lat="47.33689" lon="-1.51456">
        <ele>68</ele>
        <time>2021-07-16T08:36:23.000Z</time>
      </trkpt>
      <trkpt lat="47.33688" lon="-1.51435">
        <ele>67</ele>
        <time>2021-07-16T08:36:25.000Z</time>
      </trkpt>
      <trkpt lat="47.33685" lon="-1.51414">
        <ele>67</ele>
        <time>2021-07-16T08:36:27.000Z</time>
      </trkpt>
      <trkpt lat="47.3368" lon="-1.51394">
        <ele>67</ele>
        <time>2021-07-16T08:36:29.000Z</time>
      </trkpt>
      <trkpt lat="47.33675" lon="-1.51374">
        <ele>66</ele>
        <time>2021-07-16T08:36:31.000Z</time>
      </trkpt>
      <trkpt lat="47.33671" lon="-1.51354">
        <ele>65</ele>
        <time>2021-07-16T08:36:33.000Z</time>
      </trkpt>
      <trkpt lat="47.33667" lon="-1.51335">
        <ele>65</ele>
        <time>2021-07-16T08:36:35.000Z</time>
      </trkpt>
      <trkpt lat="47.33663" lon="-1.51315">
        <ele>64</ele>
        <time>2021-07-16T08:36:37.000Z</time>
      </trkpt>
      <trkpt lat="47.3366" lon="-1.51295">
        <ele>64</ele>
        <time>2021-07-16T08:36:39.000Z</time>
      </trkpt>
      <trkpt lat="47.33657" lon="-1.51276">
        <ele>64</ele>
        <time>2021-07-16T08:36:41.000Z</time>
      </trkpt>
      <trkpt lat="47.33655" lon="-1.51257">
        <ele>63</ele>
        <time>2021-07-16T08:36:43.000Z</time>
      </trkpt>
      <trkpt lat="47.33654" lon="-1.51237">
        <ele>63</ele>
        <time>2021-07-16T08:36:45.000Z</time>
      </trkpt>
      <trkpt lat="47.33653" lon="-1.51217">
        <ele>63</ele>
        <time>2021-07-16T08:36:47.000Z</time>
      </trkpt>
      <trkpt lat="47.33652" lon="-1.51198">
        <ele>62</ele>
        <time>2021-07-16T08:36:49.000Z</time>
      </trkpt>
      <trkpt lat="47.33651" lon="-1.51178">
        <ele>62</ele>
        <time>2021-07-16T08:36:51.000Z</time>
      </trkpt>
      <trkpt lat="47.3365" lon="-1.51158">
        <ele>62</ele>
        <time>2021-07-16T08:36:53.000Z</time>
      </trkpt>
      <trkpt lat="47.3365" lon="-1.51139">
        <ele>62</ele>
        <time>2021-07-16T08:36:55.000Z</time>
      </trkpt>
      <trkpt lat="47.33651" lon="-1.5112">
        <ele>62</ele>
        <time>2021-07-16T08:36:57.000Z</time>
      </trkpt>
      <trkpt lat="47.33651" lon="-1.51103">
        <ele>63</ele>
        <time>2021-07-16T08:36:59.000Z</time>
      </trkpt>
      <trkpt lat="47.3365" lon="-1.51087">
        <ele>63</ele>
        <time>2021-07-16T08:37:01.000Z</time>
      </trkpt>
      <trkpt lat="47.33652" lon="-1.51069">
        <ele>63</ele>
        <time>2021-07-16T08:37:03.000Z</time>
      </trkpt>
      <trkpt lat="47.33658" lon="-1.51053">
        <ele>63</ele>
        <time>2021-07-16T08:37:05.000Z</time>
      </trkpt>
      <trkpt lat="47.33663" lon="-1.51035">
        <ele>63</ele>
        <time>2021-07-16T08:37:07.000Z</time>
      </trkpt>
      <trkpt lat="47.33668" lon="-1.51016">
        <ele>62</ele>
        <time>2021-07-16T08:37:09.000Z</time>
      </trkpt>
      <trkpt lat="47.33671" lon="-1.50997">
        <ele>62</ele>
        <time>2021-07-16T08:37:11.000Z</time>
      </trkpt>
      <trkpt lat="47.33675" lon="-1.50979">
        <ele>62</ele>
        <time>2021-07-16T08:37:13.000Z</time>
      </trkpt>
      <trkpt lat="47.33679" lon="-1.5096">
        <ele>62</ele>
        <time>2021-07-16T08:37:15.000Z</time>
      </trkpt>
      <trkpt lat="47.33684" lon="-1.50942">
        <ele>61</ele>
        <time>2021-07-16T08:37:17.000Z</time>
      </trkpt>
      <trkpt lat="47.33687" lon="-1.50923">
        <ele>61</ele>
        <time>2021-07-16T08:37:19.000Z</time>
      </trkpt>
      <trkpt lat="47.3369" lon="-1.50905">
        <ele>60</ele>
        <time>2021-07-16T08:37:21.000Z</time>
      </trkpt>
      <trkpt lat="47.33694" lon="-1.50886">
        <ele>60</ele>
        <time>2021-07-16T08:37:23.000Z</time>
      </trkpt>
      <trkpt lat="47.33698" lon="-1.50867">
        <ele>59</ele>
        <time>2021-07-16T08:37:25.000Z</time>
      </trkpt>
      <trkpt lat="47.33702" lon="-1.50848">
        <ele>59</ele>
        <time>2021-07-16T08:37:27.000Z</time>
      </trkpt>
      <trkpt lat="47.33706" lon="-1.50829">
        <ele>59</ele>
        <time>2021-07-16T08:37:29.000Z</time>
      </trkpt>
      <trkpt lat="47.33709" lon="-1.5081">
        <ele>59</ele>
        <time>2021-07-16T08:37:31.000Z</time>
      </trkpt>
      <trkpt lat="47.33713" lon="-1.50791">
        <ele>58</ele>
        <time>2021-07-16T08:37:33.000Z</time>
      </trkpt>
      <trkpt lat="47.33716" lon="-1.50771">
        <ele>58</ele>
        <time>2021-07-16T08:37:35.000Z</time>
      </trkpt>
      <trkpt lat="47.33721" lon="-1.50753">
        <ele>57</ele>
        <time>2021-07-16T08:37:37.000Z</time>
      </trkpt>
      <trkpt lat="47.33724" lon="-1.50734">
        <ele>58</ele>
        <time>2021-07-16T08:37:39.000Z</time>
      </trkpt>
      <trkpt lat="47.33727" lon="-1.50716">
        <ele>58</ele>
        <time>2021-07-16T08:37:41.000Z</time>
      </trkpt>
      <trkpt lat="47.33731" lon="-1.50697">
        <ele>58</ele>
        <time>2021-07-16T08:37:43.000Z</time>
      </trkpt>
      <trkpt lat="47.33735" lon="-1.50678">
        <ele>58</ele>
        <time>2021-07-16T08:37:45.000Z</time>
      </trkpt>
      <trkpt lat="47.33738" lon="-1.50659">
        <ele>57</ele>
        <time>2021-07-16T08:37:47.000Z</time>
      </trkpt>
      <trkpt lat="47.33742" lon="-1.5064">
        <ele>57</ele>
        <time>2021-07-16T08:37:49.000Z</time>
      </trkpt>
      <trkpt lat="47.33746" lon="-1.50621">
        <ele>56</ele>
        <time>2021-07-16T08:37:51.000Z</time>
      </trkpt>
      <trkpt lat="47.3375" lon="-1.50601">
        <ele>55</ele>
        <time>2021-07-16T08:37:53.000Z</time>
      </trkpt>
      <trkpt lat="47.33754" lon="-1.50582">
        <ele>55</ele>
        <time>2021-07-16T08:37:55.000Z</time>
      </trkpt>
      <trkpt lat="47.33758" lon="-1.50562">
        <ele>54</ele>
        <time>2021-07-16T08:37:57.000Z</time>
      </trkpt>
      <trkpt lat="47.33761" lon="-1.50543">
        <ele>54</ele>
        <time>2021-07-16T08:37:59.000Z</time>
      </trkpt>
      <trkpt lat="47.33765" lon="-1.50524">
        <ele>53</ele>
        <time>2021-07-16T08:38:01.000Z</time>
      </trkpt>
      <trkpt lat="47.33769" lon="-1.50505">
        <ele>53</ele>
        <time>2021-07-16T08:38:03.000Z</time>
      </trkpt>
      <trkpt lat="47.33773" lon="-1.50487">
        <ele>53</ele>
        <time>2021-07-16T08:38:05.000Z</time>
      </trkpt>
      <trkpt lat="47.33777" lon="-1.50468">
        <ele>53</ele>
        <time>2021-07-16T08:38:07.000Z</time>
      </trkpt>
      <trkpt lat="47.33779" lon="-1.5045">
        <ele>54</ele>
        <time>2021-07-16T08:38:09.000Z</time>
      </trkpt>
      <trkpt lat="47.33783" lon="-1.50432">
        <ele>54</ele>
        <time>2021-07-16T08:38:11.000Z</time>
      </trkpt>
      <trkpt lat="47.33787" lon="-1.50414">
        <ele>53</ele>
        <time>2021-07-16T08:38:13.000Z</time>
      </trkpt>
      <trkpt lat="47.3379" lon="-1.50395">
        <ele>54</ele>
        <time>2021-07-16T08:38:15.000Z</time>
      </trkpt>
      <trkpt lat="47.33792" lon="-1.50376">
        <ele>53</ele>
        <time>2021-07-16T08:38:17.000Z</time>
      </trkpt>
      <trkpt lat="47.33791" lon="-1.50357">
        <ele>53</ele>
        <time>2021-07-16T08:38:19.000Z</time>
      </trkpt>
      <trkpt lat="47.33789" lon="-1.50339">
        <ele>53</ele>
        <time>2021-07-16T08:38:21.000Z</time>
      </trkpt>
      <trkpt lat="47.33786" lon="-1.50321">
        <ele>54</ele>
        <time>2021-07-16T08:38:23.000Z</time>
      </trkpt>
      <trkpt lat="47.33783" lon="-1.50303">
        <ele>54</ele>
        <time>2021-07-16T08:38:25.000Z</time>
      </trkpt>
      <trkpt lat="47.3378" lon="-1.50286">
        <ele>54</ele>
        <time>2021-07-16T08:38:27.000Z</time>
      </trkpt>
      <trkpt lat="47.33778" lon="-1.50269">
        <ele>55</ele>
        <time>2021-07-16T08:38:29.000Z</time>
      </trkpt>
      <trkpt lat="47.33775" lon="-1.50252">
        <ele>55</ele>
        <time>2021-07-16T08:38:31.000Z</time>
      </trkpt>
      <trkpt lat="47.33773" lon="-1.50235">
        <ele>55</ele>
        <time>2021-07-16T08:38:33.000Z</time>
      </trkpt>
      <trkpt lat="47.3377" lon="-1.50217">
        <ele>56</ele>
        <time>2021-07-16T08:38:35.000Z</time>
      </trkpt>
      <trkpt lat="47.33767" lon="-1.50199">
        <ele>56</ele>
        <time>2021-07-16T08:38:37.000Z</time>
      </trkpt>
      <trkpt lat="47.33764" lon="-1.50182">
        <ele>56</ele>
        <time>2021-07-16T08:38:39.000Z</time>
      </trkpt>
      <trkpt lat="47.33761" lon="-1.50166">
        <ele>56</ele>
        <time>2021-07-16T08:38:41.000Z</time>
      </trkpt>
      <trkpt lat="47.33758" lon="-1.50151">
        <ele>57</ele>
        <time>2021-07-16T08:38:43.000Z</time>
      </trkpt>
      <trkpt lat="47.33756" lon="-1.50137">
        <ele>57</ele>
        <time>2021-07-16T08:38:45.000Z</time>
      </trkpt>
      <trkpt lat="47.33754" lon="-1.50123">
        <ele>57</ele>
        <time>2021-07-16T08:38:47.000Z</time>
      </trkpt>
      <trkpt lat="47.33753" lon="-1.50107">
        <ele>58</ele>
        <time>2021-07-16T08:38:49.000Z</time>
      </trkpt>
      <trkpt lat="47.33751" lon="-1.50088">
        <ele>59</ele>
        <time>2021-07-16T08:38:51.000Z</time>
      </trkpt>
      <trkpt lat="47.33749" lon="-1.50067">
        <ele>61</ele>
        <time>2021-07-16T08:38:53.000Z</time>
      </trkpt>
      <trkpt lat="47.33747" lon="-1.50046">
        <ele>61</ele>
        <time>2021-07-16T08:38:55.000Z</time>
      </trkpt>
      <trkpt lat="47.33745" lon="-1.50028">
        <ele>60</ele>
        <time>2021-07-16T08:38:57.000Z</time>
      </trkpt>
      <trkpt lat="47.33742" lon="-1.5001">
        <ele>61</ele>
        <time>2021-07-16T08:38:59.000Z</time>
      </trkpt>
      <trkpt lat="47.33738" lon="-1.49994">
        <ele>60</ele>
        <time>2021-07-16T08:39:01.000Z</time>
      </trkpt>
      <trkpt lat="47.33735" lon="-1.49978">
        <ele>59</ele>
        <time>2021-07-16T08:39:03.000Z</time>
      </trkpt>
      <trkpt lat="47.33731" lon="-1.49961">
        <ele>59</ele>
        <time>2021-07-16T08:39:05.000Z</time>
      </trkpt>
      <trkpt lat="47.33726" lon="-1.49944">
        <ele>58</ele>
        <time>2021-07-16T08:39:07.000Z</time>
      </trkpt>
      <trkpt lat="47.33718" lon="-1.49928">
        <ele>58</ele>
        <time>2021-07-16T08:39:09.000Z</time>
      </trkpt>
      <trkpt lat="47.33706" lon="-1.49914">
        <ele>58</ele>
        <time>2021-07-16T08:39:11.000Z</time>
      </trkpt>
      <trkpt lat="47.33693" lon="-1.499">
        <ele>57</ele>
        <time>2021-07-16T08:39:13.000Z</time>
      </trkpt>
      <trkpt lat="47.33681" lon="-1.49885">
        <ele>57</ele>
        <time>2021-07-16T08:39:15.000Z</time>
      </trkpt>
      <trkpt lat="47.3367" lon="-1.49867">
        <ele>56</ele>
        <time>2021-07-16T08:39:17.000Z</time>
      </trkpt>
      <trkpt lat="47.33661" lon="-1.49846">
        <ele>56</ele>
        <time>2021-07-16T08:39:19.000Z</time>
      </trkpt>
      <trkpt lat="47.33655" lon="-1.49824">
        <ele>56</ele>
        <time>2021-07-16T08:39:21.000Z</time>
      </trkpt>
      <trkpt lat="47.33652" lon="-1.49801">
        <ele>55</ele>
        <time>2021-07-16T08:39:23.000Z</time>
      </trkpt>
      <trkpt lat="47.33651" lon="-1.49778">
        <ele>54</ele>
        <time>2021-07-16T08:39:25.000Z</time>
      </trkpt>
      <trkpt lat="47.33648" lon="-1.49756">
        <ele>55</ele>
        <time>2021-07-16T08:39:27.000Z</time>
      </trkpt>
      <trkpt lat="47.33645" lon="-1.49734">
        <ele>55</ele>
        <time>2021-07-16T08:39:29.000Z</time>
      </trkpt>
      <trkpt lat="47.33643" lon="-1.49714">
        <ele>55</ele>
        <time>2021-07-16T08:39:31.000Z</time>
      </trkpt>
      <trkpt lat="47.33641" lon="-1.49694">
        <ele>54</ele>
        <time>2021-07-16T08:39:33.000Z</time>
      </trkpt>
      <trkpt lat="47.33639" lon="-1.49674">
        <ele>53</ele>
        <time>2021-07-16T08:39:35.000Z</time>
      </trkpt>
      <trkpt lat="47.33638" lon="-1.49654">
        <ele>53</ele>
        <time>2021-07-16T08:39:37.000Z</time>
      </trkpt>
      <trkpt lat="47.33637" lon="-1.49636">
        <ele>53</ele>
        <time>2021-07-16T08:39:39.000Z</time>
      </trkpt>
      <trkpt lat="47.33638" lon="-1.49617">
        <ele>53</ele>
        <time>2021-07-16T08:39:41.000Z</time>
      </trkpt>
      <trkpt lat="47.33639" lon="-1.49599">
        <ele>53</ele>
        <time>2021-07-16T08:39:43.000Z</time>
      </trkpt>
      <trkpt lat="47.33639" lon="-1.4958">
        <ele>54</ele>
        <time>2021-07-16T08:39:45.000Z</time>
      </trkpt>
      <trkpt lat="47.33637" lon="-1.49564">
        <ele>55</ele>
        <time>2021-07-16T08:39:47.000Z</time>
      </trkpt>
      <trkpt lat="47.33634" lon="-1.49545">
        <ele>55</ele>
        <time>2021-07-16T08:39:49.000Z</time>
      </trkpt>
      <trkpt lat="47.3363" lon="-1.49526">
        <ele>56</ele>
        <time>2021-07-16T08:39:51.000Z</time>
      </trkpt>
      <trkpt lat="47.33626" lon="-1.49508">
        <ele>56</ele>
        <time>2021-07-16T08:39:53.000Z</time>
      </trkpt>
      <trkpt lat="47.33621" lon="-1.49491">
        <ele>55</ele>
        <time>2021-07-16T08:39:55.000Z</time>
      </trkpt>
      <trkpt lat="47.33614" lon="-1.49471">
        <ele>55</ele>
        <time>2021-07-16T08:39:57.000Z</time>
      </trkpt>
      <trkpt lat="47.33607" lon="-1.49452">
        <ele>55</ele>
        <time>2021-07-16T08:39:59.000Z</time>
      </trkpt>
      <trkpt lat="47.336" lon="-1.49435">
        <ele>55</ele>
        <time>2021-07-16T08:40:01.000Z</time>
      </trkpt>
      <trkpt lat="47.33592" lon="-1.49418">
        <ele>56</ele>
        <time>2021-07-16T08:40:03.000Z</time>
      </trkpt>
      <trkpt lat="47.33585" lon="-1.49402">
        <ele>55</ele>
        <time>2021-07-16T08:40:05.000Z</time>
      </trkpt>
      <trkpt lat="47.33579" lon="-1.49386">
        <ele>55</ele>
        <time>2021-07-16T08:40:07.000Z</time>
      </trkpt>
      <trkpt lat="47.33572" lon="-1.4937">
        <ele>55</ele>
        <time>2021-07-16T08:40:09.000Z</time>
      </trkpt>
      <trkpt lat="47.33565" lon="-1.49355">
        <ele>55</ele>
        <time>2021-07-16T08:40:11.000Z</time>
      </trkpt>
      <trkpt lat="47.33561" lon="-1.49339">
        <ele>55</ele>
        <time>2021-07-16T08:40:13.000Z</time>
      </trkpt>
      <trkpt lat="47.33567" lon="-1.49322">
        <ele>54</ele>
        <time>2021-07-16T08:40:15.000Z</time>
      </trkpt>
      <trkpt lat="47.33576" lon="-1.49312">
        <ele>54</ele>
        <time>2021-07-16T08:40:17.000Z</time>
      </trkpt>
      <trkpt lat="47.33584" lon="-1.493">
        <ele>55</ele>
        <time>2021-07-16T08:40:19.000Z</time>
      </trkpt>
      <trkpt lat="47.33593" lon="-1.49289">
        <ele>55</ele>
        <time>2021-07-16T08:40:21.000Z</time>
      </trkpt>
      <trkpt lat="47.33603" lon="-1.49277">
        <ele>56</ele>
        <time>2021-07-16T08:40:23.000Z</time>
      </trkpt>
      <trkpt lat="47.33612" lon="-1.49265">
        <ele>56</ele>
        <time>2021-07-16T08:40:25.000Z</time>
      </trkpt>
      <trkpt lat="47.33622" lon="-1.49252">
        <ele>56</ele>
        <time>2021-07-16T08:40:27.000Z</time>
      </trkpt>
      <trkpt lat="47.33632" lon="-1.49239">
        <ele>56</ele>
        <time>2021-07-16T08:40:29.000Z</time>
      </trkpt>
      <trkpt lat="47.33641" lon="-1.49227">
        <ele>56</ele>
        <time>2021-07-16T08:40:31.000Z</time>
      </trkpt>
      <trkpt lat="47.33651" lon="-1.49216">
        <ele>56</ele>
        <time>2021-07-16T08:40:33.000Z</time>
      </trkpt>
      <trkpt lat="47.3366" lon="-1.49205">
        <ele>56</ele>
        <time>2021-07-16T08:40:35.000Z</time>
      </trkpt>
      <trkpt lat="47.33669" lon="-1.49194">
        <ele>56</ele>
        <time>2021-07-16T08:40:37.000Z</time>
      </trkpt>
      <trkpt lat="47.33677" lon="-1.49183">
        <ele>56</ele>
        <time>2021-07-16T08:40:39.000Z</time>
      </trkpt>
      <trkpt lat="47.33685" lon="-1.4917">
        <ele>55</ele>
        <time>2021-07-16T08:40:41.000Z</time>
      </trkpt>
      <trkpt lat="47.33691" lon="-1.49156">
        <ele>55</ele>
        <time>2021-07-16T08:40:43.000Z</time>
      </trkpt>
      <trkpt lat="47.33695" lon="-1.49141">
        <ele>56</ele>
        <time>2021-07-16T08:40:45.000Z</time>
      </trkpt>
      <trkpt lat="47.33698" lon="-1.49125">
        <ele>55</ele>
        <time>2021-07-16T08:40:47.000Z</time>
      </trkpt>
      <trkpt lat="47.33699" lon="-1.4911">
        <ele>55</ele>
        <time>2021-07-16T08:40:49.000Z</time>
      </trkpt>
      <trkpt lat="47.33703" lon="-1.49095">
        <ele>56</ele>
        <time>2021-07-16T08:40:51.000Z</time>
      </trkpt>
      <trkpt lat="47.33708" lon="-1.49081">
        <ele>57</ele>
        <time>2021-07-16T08:40:53.000Z</time>
      </trkpt>
      <trkpt lat="47.33715" lon="-1.4907">
        <ele>58</ele>
        <time>2021-07-16T08:40:55.000Z</time>
      </trkpt>
      <trkpt lat="47.33727" lon="-1.49055">
        <ele>58</ele>
        <time>2021-07-16T08:40:58.000Z</time>
      </trkpt>
      <trkpt lat="47.33736" lon="-1.49045">
        <ele>58</ele>
        <time>2021-07-16T08:41:00.000Z</time>
      </trkpt>
      <trkpt lat="47.33749" lon="-1.4903">
        <ele>59</ele>
        <time>2021-07-16T08:41:03.000Z</time>
      </trkpt>
      <trkpt lat="47.33762" lon="-1.49016">
        <ele>59</ele>
        <time>2021-07-16T08:41:06.000Z</time>
      </trkpt>
      <trkpt lat="47.33775" lon="-1.49001">
        <ele>59</ele>
        <time>2021-07-16T08:41:09.000Z</time>
      </trkpt>
      <trkpt lat="47.33783" lon="-1.48991">
        <ele>59</ele>
        <time>2021-07-16T08:41:11.000Z</time>
      </trkpt>
      <trkpt lat="47.33791" lon="-1.4898">
        <ele>59</ele>
        <time>2021-07-16T08:41:13.000Z</time>
      </trkpt>
      <trkpt lat="47.338" lon="-1.48969">
        <ele>59</ele>
        <time>2021-07-16T08:41:15.000Z</time>
      </trkpt>
      <trkpt lat="47.33808" lon="-1.48956">
        <ele>58</ele>
        <time>2021-07-16T08:41:17.000Z</time>
      </trkpt>
      <trkpt lat="47.33816" lon="-1.48943">
        <ele>58</ele>
        <time>2021-07-16T08:41:19.000Z</time>
      </trkpt>
      <trkpt lat="47.33824" lon="-1.48931">
        <ele>58</ele>
        <time>2021-07-16T08:41:21.000Z</time>
      </trkpt>
      <trkpt lat="47.33833" lon="-1.48917">
        <ele>58</ele>
        <time>2021-07-16T08:41:23.000Z</time>
      </trkpt>
      <trkpt lat="47.33841" lon="-1.48904">
        <ele>58</ele>
        <time>2021-07-16T08:41:25.000Z</time>
      </trkpt>
      <trkpt lat="47.3385" lon="-1.4889">
        <ele>58</ele>
        <time>2021-07-16T08:41:27.000Z</time>
      </trkpt>
      <trkpt lat="47.33858" lon="-1.48876">
        <ele>58</ele>
        <time>2021-07-16T08:41:29.000Z</time>
      </trkpt>
      <trkpt lat="47.33867" lon="-1.48863">
        <ele>57</ele>
        <time>2021-07-16T08:41:31.000Z</time>
      </trkpt>
      <trkpt lat="47.33876" lon="-1.4885">
        <ele>57</ele>
        <time>2021-07-16T08:41:33.000Z</time>
      </trkpt>
      <trkpt lat="47.33885" lon="-1.48835">
        <ele>57</ele>
        <time>2021-07-16T08:41:35.000Z</time>
      </trkpt>
      <trkpt lat="47.33894" lon="-1.48821">
        <ele>57</ele>
        <time>2021-07-16T08:41:37.000Z</time>
      </trkpt>
      <trkpt lat="47.33903" lon="-1.48806">
        <ele>56</ele>
        <time>2021-07-16T08:41:39.000Z</time>
      </trkpt>
      <trkpt lat="47.33912" lon="-1.48791">
        <ele>56</ele>
        <time>2021-07-16T08:41:41.000Z</time>
      </trkpt>
      <trkpt lat="47.33922" lon="-1.48775">
        <ele>55</ele>
        <time>2021-07-16T08:41:43.000Z</time>
      </trkpt>
      <trkpt lat="47.33931" lon="-1.4876">
        <ele>54</ele>
        <time>2021-07-16T08:41:45.000Z</time>
      </trkpt>
      <trkpt lat="47.33942" lon="-1.48744">
        <ele>54</ele>
        <time>2021-07-16T08:41:47.000Z</time>
      </trkpt>
      <trkpt lat="47.33952" lon="-1.48728">
        <ele>54</ele>
        <time>2021-07-16T08:41:49.000Z</time>
      </trkpt>
      <trkpt lat="47.33961" lon="-1.48713">
        <ele>53</ele>
        <time>2021-07-16T08:41:51.000Z</time>
      </trkpt>
      <trkpt lat="47.33971" lon="-1.48697">
        <ele>53</ele>
        <time>2021-07-16T08:41:53.000Z</time>
      </trkpt>
      <trkpt lat="47.3398" lon="-1.48681">
        <ele>52</ele>
        <time>2021-07-16T08:41:55.000Z</time>
      </trkpt>
      <trkpt lat="47.3399" lon="-1.48665">
        <ele>51</ele>
        <time>2021-07-16T08:41:57.000Z</time>
      </trkpt>
      <trkpt lat="47.34001" lon="-1.48649">
        <ele>51</ele>
        <time>2021-07-16T08:41:59.000Z</time>
      </trkpt>
      <trkpt lat="47.3401" lon="-1.48633">
        <ele>51</ele>
        <time>2021-07-16T08:42:01.000Z</time>
      </trkpt>
      <trkpt lat="47.3402" lon="-1.48617">
        <ele>51</ele>
        <time>2021-07-16T08:42:03.000Z</time>
      </trkpt>
      <trkpt lat="47.34029" lon="-1.48602">
        <ele>51</ele>
        <time>2021-07-16T08:42:05.000Z</time>
      </trkpt>
      <trkpt lat="47.34037" lon="-1.48585">
        <ele>51</ele>
        <time>2021-07-16T08:42:07.000Z</time>
      </trkpt>
      <trkpt lat="47.34045" lon="-1.48569">
        <ele>51</ele>
        <time>2021-07-16T08:42:09.000Z</time>
      </trkpt>
      <trkpt lat="47.34053" lon="-1.48553">
        <ele>51</ele>
        <time>2021-07-16T08:42:11.000Z</time>
      </trkpt>
      <trkpt lat="47.3406" lon="-1.48538">
        <ele>51</ele>
        <time>2021-07-16T08:42:13.000Z</time>
      </trkpt>
      <trkpt lat="47.34068" lon="-1.48522">
        <ele>51</ele>
        <time>2021-07-16T08:42:15.000Z</time>
      </trkpt>
      <trkpt lat="47.34075" lon="-1.48507">
        <ele>50</ele>
        <time>2021-07-16T08:42:17.000Z</time>
      </trkpt>
      <trkpt lat="47.34083" lon="-1.48491">
        <ele>50</ele>
        <time>2021-07-16T08:42:19.000Z</time>
      </trkpt>
      <trkpt lat="47.34091" lon="-1.48475">
        <ele>50</ele>
        <time>2021-07-16T08:42:21.000Z</time>
      </trkpt>
      <trkpt lat="47.34099" lon="-1.4846">
        <ele>51</ele>
        <time>2021-07-16T08:42:23.000Z</time>
      </trkpt>
      <trkpt lat="47.34106" lon="-1.48444">
        <ele>50</ele>
        <time>2021-07-16T08:42:25.000Z</time>
      </trkpt>
      <trkpt lat="47.34113" lon="-1.48429">
        <ele>51</ele>
        <time>2021-07-16T08:42:27.000Z</time>
      </trkpt>
      <trkpt lat="47.3412" lon="-1.48412">
        <ele>51</ele>
        <time>2021-07-16T08:42:29.000Z</time>
      </trkpt>
      <trkpt lat="47.34128" lon="-1.48396">
        <ele>50</ele>
        <time>2021-07-16T08:42:31.000Z</time>
      </trkpt>
      <trkpt lat="47.34135" lon="-1.4838">
        <ele>49</ele>
        <time>2021-07-16T08:42:33.000Z</time>
      </trkpt>
      <trkpt lat="47.34143" lon="-1.48365">
        <ele>49</ele>
        <time>2021-07-16T08:42:35.000Z</time>
      </trkpt>
      <trkpt lat="47.34151" lon="-1.4835">
        <ele>49</ele>
        <time>2021-07-16T08:42:37.000Z</time>
      </trkpt>
      <trkpt lat="47.34158" lon="-1.48334">
        <ele>49</ele>
        <time>2021-07-16T08:42:39.000Z</time>
      </trkpt>
      <trkpt lat="47.34166" lon="-1.48318">
        <ele>49</ele>
        <time>2021-07-16T08:42:41.000Z</time>
      </trkpt>
      <trkpt lat="47.34173" lon="-1.48302">
        <ele>48</ele>
        <time>2021-07-16T08:42:43.000Z</time>
      </trkpt>
      <trkpt lat="47.34181" lon="-1.48287">
        <ele>47</ele>
        <time>2021-07-16T08:42:45.000Z</time>
      </trkpt>
      <trkpt lat="47.34189" lon="-1.48273">
        <ele>47</ele>
        <time>2021-07-16T08:42:47.000Z</time>
      </trkpt>
      <trkpt lat="47.34197" lon="-1.48258">
        <ele>47</ele>
        <time>2021-07-16T08:42:49.000Z</time>
      </trkpt>
      <trkpt lat="47.34206" lon="-1.48242">
        <ele>47</ele>
        <time>2021-07-16T08:42:51.000Z</time>
      </trkpt>
      <trkpt lat="47.34215" lon="-1.48228">
        <ele>48</ele>
        <time>2021-07-16T08:42:53.000Z</time>
      </trkpt>
      <trkpt lat="47.34223" lon="-1.48213">
        <ele>48</ele>
        <time>2021-07-16T08:42:55.000Z</time>
      </trkpt>
      <trkpt lat="47.34232" lon="-1.48198">
        <ele>49</ele>
        <time>2021-07-16T08:42:57.000Z</time>
      </trkpt>
      <trkpt lat="47.34241" lon="-1.48183">
        <ele>49</ele>
        <time>2021-07-16T08:42:59.000Z</time>
      </trkpt>
      <trkpt lat="47.3425" lon="-1.48168">
        <ele>50</ele>
        <time>2021-07-16T08:43:01.000Z</time>
      </trkpt>
      <trkpt lat="47.34259" lon="-1.48154">
        <ele>50</ele>
        <time>2021-07-16T08:43:03.000Z</time>
      </trkpt>
      <trkpt lat="47.34267" lon="-1.4814">
        <ele>51</ele>
        <time>2021-07-16T08:43:05.000Z</time>
      </trkpt>
      <trkpt lat="47.34276" lon="-1.48126">
        <ele>51</ele>
        <time>2021-07-16T08:43:07.000Z</time>
      </trkpt>
      <trkpt lat="47.34285" lon="-1.48112">
        <ele>51</ele>
        <time>2021-07-16T08:43:09.000Z</time>
      </trkpt>
      <trkpt lat="47.34294" lon="-1.48099">
        <ele>51</ele>
        <time>2021-07-16T08:43:11.000Z</time>
      </trkpt>
      <trkpt lat="47.34302" lon="-1.48085">
        <ele>51</ele>
        <time>2021-07-16T08:43:13.000Z</time>
      </trkpt>
      <trkpt lat="47.34311" lon="-1.4807">
        <ele>52</ele>
        <time>2021-07-16T08:43:15.000Z</time>
      </trkpt>
      <trkpt lat="47.34319" lon="-1.48056">
        <ele>52</ele>
        <time>2021-07-16T08:43:17.000Z</time>
      </trkpt>
      <trkpt lat="47.34328" lon="-1.48042">
        <ele>52</ele>
        <time>2021-07-16T08:43:19.000Z</time>
      </trkpt>
      <trkpt lat="47.34336" lon="-1.48028">
        <ele>52</ele>
        <time>2021-07-16T08:43:21.000Z</time>
      </trkpt>
      <trkpt lat="47.34345" lon="-1.48015">
        <ele>52</ele>
        <time>2021-07-16T08:43:23.000Z</time>
      </trkpt>
      <trkpt lat="47.34355" lon="-1.48001">
        <ele>51</ele>
        <time>2021-07-16T08:43:25.000Z</time>
      </trkpt>
      <trkpt lat="47.34364" lon="-1.47987">
        <ele>51</ele>
        <time>2021-07-16T08:43:27.000Z</time>
      </trkpt>
      <trkpt lat="47.34373" lon="-1.47973">
        <ele>52</ele>
        <time>2021-07-16T08:43:29.000Z</time>
      </trkpt>
      <trkpt lat="47.34382" lon="-1.4796">
        <ele>51</ele>
        <time>2021-07-16T08:43:31.000Z</time>
      </trkpt>
      <trkpt lat="47.34392" lon="-1.47946">
        <ele>52</ele>
        <time>2021-07-16T08:43:33.000Z</time>
      </trkpt>
      <trkpt lat="47.34401" lon="-1.47932">
        <ele>52</ele>
        <time>2021-07-16T08:43:35.000Z</time>
      </trkpt>
      <trkpt lat="47.3441" lon="-1.47918">
        <ele>53</ele>
        <time>2021-07-16T08:43:37.000Z</time>
      </trkpt>
      <trkpt lat="47.34419" lon="-1.47905">
        <ele>53</ele>
        <time>2021-07-16T08:43:39.000Z</time>
      </trkpt>
      <trkpt lat="47.3443" lon="-1.47893">
        <ele>54</ele>
        <time>2021-07-16T08:43:41.000Z</time>
      </trkpt>
      <trkpt lat="47.34439" lon="-1.47881">
        <ele>53</ele>
        <time>2021-07-16T08:43:43.000Z</time>
      </trkpt>
      <trkpt lat="47.34448" lon="-1.47869">
        <ele>53</ele>
        <time>2021-07-16T08:43:45.000Z</time>
      </trkpt>
      <trkpt lat="47.34459" lon="-1.47858">
        <ele>54</ele>
        <time>2021-07-16T08:43:47.000Z</time>
      </trkpt>
      <trkpt lat="47.3447" lon="-1.47846">
        <ele>54</ele>
        <time>2021-07-16T08:43:49.000Z</time>
      </trkpt>
      <trkpt lat="47.3448" lon="-1.47834">
        <ele>53</ele>
        <time>2021-07-16T08:43:51.000Z</time>
      </trkpt>
      <trkpt lat="47.34491" lon="-1.47821">
        <ele>53</ele>
        <time>2021-07-16T08:43:53.000Z</time>
      </trkpt>
      <trkpt lat="47.34501" lon="-1.4781">
        <ele>53</ele>
        <time>2021-07-16T08:43:55.000Z</time>
      </trkpt>
      <trkpt lat="47.34511" lon="-1.47799">
        <ele>53</ele>
        <time>2021-07-16T08:43:57.000Z</time>
      </trkpt>
      <trkpt lat="47.34522" lon="-1.47787">
        <ele>52</ele>
        <time>2021-07-16T08:43:59.000Z</time>
      </trkpt>
      <trkpt lat="47.34533" lon="-1.47775">
        <ele>52</ele>
        <time>2021-07-16T08:44:01.000Z</time>
      </trkpt>
      <trkpt lat="47.34544" lon="-1.47763">
        <ele>52</ele>
        <time>2021-07-16T08:44:03.000Z</time>
      </trkpt>
      <trkpt lat="47.34554" lon="-1.47751">
        <ele>52</ele>
        <time>2021-07-16T08:44:05.000Z</time>
      </trkpt>
      <trkpt lat="47.34564" lon="-1.47739">
        <ele>52</ele>
        <time>2021-07-16T08:44:07.000Z</time>
      </trkpt>
      <trkpt lat="47.34575" lon="-1.47727">
        <ele>52</ele>
        <time>2021-07-16T08:44:09.000Z</time>
      </trkpt>
      <trkpt lat="47.34585" lon="-1.47716">
        <ele>53</ele>
        <time>2021-07-16T08:44:11.000Z</time>
      </trkpt>
      <trkpt lat="47.34595" lon="-1.47704">
        <ele>52</ele>
        <time>2021-07-16T08:44:13.000Z</time>
      </trkpt>
      <trkpt lat="47.34606" lon="-1.47693">
        <ele>52</ele>
        <time>2021-07-16T08:44:15.000Z</time>
      </trkpt>
      <trkpt lat="47.34616" lon="-1.47681">
        <ele>52</ele>
        <time>2021-07-16T08:44:17.000Z</time>
      </trkpt>
      <trkpt lat="47.34625" lon="-1.4767">
        <ele>53</ele>
        <time>2021-07-16T08:44:19.000Z</time>
      </trkpt>
      <trkpt lat="47.34635" lon="-1.47658">
        <ele>53</ele>
        <time>2021-07-16T08:44:21.000Z</time>
      </trkpt>
      <trkpt lat="47.34645" lon="-1.47647">
        <ele>54</ele>
        <time>2021-07-16T08:44:23.000Z</time>
      </trkpt>
      <trkpt lat="47.34655" lon="-1.47636">
        <ele>54</ele>
        <time>2021-07-16T08:44:25.000Z</time>
      </trkpt>
      <trkpt lat="47.34666" lon="-1.47625">
        <ele>54</ele>
        <time>2021-07-16T08:44:27.000Z</time>
      </trkpt>
      <trkpt lat="47.34676" lon="-1.47613">
        <ele>54</ele>
        <time>2021-07-16T08:44:29.000Z</time>
      </trkpt>
      <trkpt lat="47.34686" lon="-1.47602">
        <ele>54</ele>
        <time>2021-07-16T08:44:31.000Z</time>
      </trkpt>
      <trkpt lat="47.34695" lon="-1.47591">
        <ele>54</ele>
        <time>2021-07-16T08:44:33.000Z</time>
      </trkpt>
      <trkpt lat="47.34705" lon="-1.4758">
        <ele>54</ele>
        <time>2021-07-16T08:44:35.000Z</time>
      </trkpt>
      <trkpt lat="47.34715" lon="-1.47569">
        <ele>54</ele>
        <time>2021-07-16T08:44:37.000Z</time>
      </trkpt>
      <trkpt lat="47.34725" lon="-1.47558">
        <ele>54</ele>
        <time>2021-07-16T08:44:39.000Z</time>
      </trkpt>
      <trkpt lat="47.34735" lon="-1.47547">
        <ele>54</ele>
        <time>2021-07-16T08:44:41.000Z</time>
      </trkpt>
      <trkpt lat="47.34745" lon="-1.47535">
        <ele>54</ele>
        <time>2021-07-16T08:44:43.000Z</time>
      </trkpt>
      <trkpt lat="47.34755" lon="-1.47521">
        <ele>54</ele>
        <time>2021-07-16T08:44:45.000Z</time>
      </trkpt>
      <trkpt lat="47.34764" lon="-1.47508">
        <ele>54</ele>
        <time>2021-07-16T08:44:47.000Z</time>
      </trkpt>
      <trkpt lat="47.34773" lon="-1.47493">
        <ele>54</ele>
        <time>2021-07-16T08:44:49.000Z</time>
      </trkpt>
      <trkpt lat="47.34781" lon="-1.47478">
        <ele>54</ele>
        <time>2021-07-16T08:44:51.000Z</time>
      </trkpt>
      <trkpt lat="47.34788" lon="-1.47461">
        <ele>54</ele>
        <time>2021-07-16T08:44:53.000Z</time>
      </trkpt>
      <trkpt lat="47.34795" lon="-1.47444">
        <ele>54</ele>
        <time>2021-07-16T08:44:55.000Z</time>
      </trkpt>
      <trkpt lat="47.34801" lon="-1.47428">
        <ele>54</ele>
        <time>2021-07-16T08:44:57.000Z</time>
      </trkpt>
      <trkpt lat="47.34808" lon="-1.47412">
        <ele>54</ele>
        <time>2021-07-16T08:44:59.000Z</time>
      </trkpt>
      <trkpt lat="47.34814" lon="-1.47395">
        <ele>54</ele>
        <time>2021-07-16T08:45:01.000Z</time>
      </trkpt>
      <trkpt lat="47.34822" lon="-1.4738">
        <ele>54</ele>
        <time>2021-07-16T08:45:03.000Z</time>
      </trkpt>
      <trkpt lat="47.34829" lon="-1.47367">
        <ele>54</ele>
        <time>2021-07-16T08:45:05.000Z</time>
      </trkpt>
      <trkpt lat="47.34838" lon="-1.47353">
        <ele>54</ele>
        <time>2021-07-16T08:45:07.000Z</time>
      </trkpt>
      <trkpt lat="47.34847" lon="-1.4734">
        <ele>54</ele>
        <time>2021-07-16T08:45:09.000Z</time>
      </trkpt>
      <trkpt lat="47.34858" lon="-1.47329">
        <ele>53</ele>
        <time>2021-07-16T08:45:11.000Z</time>
      </trkpt>
      <trkpt lat="47.34869" lon="-1.47318">
        <ele>53</ele>
        <time>2021-07-16T08:45:13.000Z</time>
      </trkpt>
      <trkpt lat="47.34881" lon="-1.4731">
        <ele>54</ele>
        <time>2021-07-16T08:45:15.000Z</time>
      </trkpt>
      <trkpt lat="47.34891" lon="-1.47301">
        <ele>54</ele>
        <time>2021-07-16T08:45:17.000Z</time>
      </trkpt>
      <trkpt lat="47.34902" lon="-1.47293">
        <ele>54</ele>
        <time>2021-07-16T08:45:19.000Z</time>
      </trkpt>
      <trkpt lat="47.34912" lon="-1.47285">
        <ele>55</ele>
        <time>2021-07-16T08:45:21.000Z</time>
      </trkpt>
      <trkpt lat="47.34922" lon="-1.47278">
        <ele>55</ele>
        <time>2021-07-16T08:45:23.000Z</time>
      </trkpt>
      <trkpt lat="47.34932" lon="-1.4727">
        <ele>56</ele>
        <time>2021-07-16T08:45:25.000Z</time>
      </trkpt>
      <trkpt lat="47.34942" lon="-1.47264">
        <ele>57</ele>
        <time>2021-07-16T08:45:27.000Z</time>
      </trkpt>
      <trkpt lat="47.34952" lon="-1.4726">
        <ele>57</ele>
        <time>2021-07-16T08:45:29.000Z</time>
      </trkpt>
      <trkpt lat="47.34963" lon="-1.47256">
        <ele>58</ele>
        <time>2021-07-16T08:45:31.000Z</time>
      </trkpt>
      <trkpt lat="47.34973" lon="-1.47251">
        <ele>58</ele>
        <time>2021-07-16T08:45:33.000Z</time>
      </trkpt>
      <trkpt lat="47.34983" lon="-1.47246">
        <ele>59</ele>
        <time>2021-07-16T08:45:35.000Z</time>
      </trkpt>
      <trkpt lat="47.34992" lon="-1.47238">
        <ele>59</ele>
        <time>2021-07-16T08:45:37.000Z</time>
      </trkpt>
      <trkpt lat="47.35001" lon="-1.47228">
        <ele>59</ele>
        <time>2021-07-16T08:45:39.000Z</time>
      </trkpt>
      <trkpt lat="47.3501" lon="-1.4722">
        <ele>59</ele>
        <time>2021-07-16T08:45:41.000Z</time>
      </trkpt>
      <trkpt lat="47.35021" lon="-1.47213">
        <ele>59</ele>
        <time>2021-07-16T08:45:43.000Z</time>
      </trkpt>
      <trkpt lat="47.35031" lon="-1.47213">
        <ele>59</ele>
        <time>2021-07-16T08:45:45.000Z</time>
      </trkpt>
      <trkpt lat="47.35042" lon="-1.47217">
        <ele>59</ele>
        <time>2021-07-16T08:45:47.000Z</time>
      </trkpt>
      <trkpt lat="47.35053" lon="-1.47222">
        <ele>60</ele>
        <time>2021-07-16T08:45:49.000Z</time>
      </trkpt>
      <trkpt lat="47.35064" lon="-1.47227">
        <ele>60</ele>
        <time>2021-07-16T08:45:51.000Z</time>
      </trkpt>
      <trkpt lat="47.35076" lon="-1.47231">
        <ele>59</ele>
        <time>2021-07-16T08:45:53.000Z</time>
      </trkpt>
      <trkpt lat="47.35088" lon="-1.47234">
        <ele>59</ele>
        <time>2021-07-16T08:45:55.000Z</time>
      </trkpt>
      <trkpt lat="47.35099" lon="-1.47237">
        <ele>59</ele>
        <time>2021-07-16T08:45:57.000Z</time>
      </trkpt>
      <trkpt lat="47.35111" lon="-1.47239">
        <ele>59</ele>
        <time>2021-07-16T08:45:59.000Z</time>
      </trkpt>
      <trkpt lat="47.35123" lon="-1.47242">
        <ele>58</ele>
        <time>2021-07-16T08:46:01.000Z</time>
      </trkpt>
      <trkpt lat="47.35135" lon="-1.47244">
        <ele>59</ele>
        <time>2021-07-16T08:46:03.000Z</time>
      </trkpt>
      <trkpt lat="47.35146" lon="-1.47246">
        <ele>59</ele>
        <time>2021-07-16T08:46:05.000Z</time>
      </trkpt>
      <trkpt lat="47.35158" lon="-1.47245">
        <ele>59</ele>
        <time>2021-07-16T08:46:07.000Z</time>
      </trkpt>
      <trkpt lat="47.3517" lon="-1.47242">
        <ele>59</ele>
        <time>2021-07-16T08:46:09.000Z</time>
      </trkpt>
      <trkpt lat="47.35181" lon="-1.47238">
        <ele>58</ele>
        <time>2021-07-16T08:46:11.000Z</time>
      </trkpt>
      <trkpt lat="47.35193" lon="-1.47234">
        <ele>58</ele>
        <time>2021-07-16T08:46:13.000Z</time>
      </trkpt>
      <trkpt lat="47.35205" lon="-1.47234">
        <ele>58</ele>
        <time>2021-07-16T08:46:15.000Z</time>
      </trkpt>
      <trkpt lat="47.35216" lon="-1.47243">
        <ele>59</ele>
        <time>2021-07-16T08:46:17.000Z</time>
      </trkpt>
      <trkpt lat="47.35224" lon="-1.47257">
        <ele>59</ele>
        <time>2021-07-16T08:46:19.000Z</time>
      </trkpt>
      <trkpt lat="47.35232" lon="-1.4727">
        <ele>59</ele>
        <time>2021-07-16T08:46:21.000Z</time>
      </trkpt>
      <trkpt lat="47.35239" lon="-1.47284">
        <ele>58</ele>
        <time>2021-07-16T08:46:23.000Z</time>
      </trkpt>
      <trkpt lat="47.35247" lon="-1.47297">
        <ele>57</ele>
        <time>2021-07-16T08:46:25.000Z</time>
      </trkpt>
      <trkpt lat="47.35258" lon="-1.47304">
        <ele>57</ele>
        <time>2021-07-16T08:46:27.000Z</time>
      </trkpt>
      <trkpt lat="47.35267" lon="-1.47294">
        <ele>56</ele>
        <time>2021-07-16T08:46:29.000Z</time>
      </trkpt>
      <trkpt lat="47.35277" lon="-1.47287">
        <ele>57</ele>
        <time>2021-07-16T08:46:31.000Z</time>
      </trkpt>
      <trkpt lat="47.35287" lon="-1.47284">
        <ele>58</ele>
        <time>2021-07-16T08:46:33.000Z</time>
      </trkpt>
      <trkpt lat="47.35298" lon="-1.47282">
        <ele>58</ele>
        <time>2021-07-16T08:46:35.000Z</time>
      </trkpt>
      <trkpt lat="47.35309" lon="-1.4728">
        <ele>58</ele>
        <time>2021-07-16T08:46:37.000Z</time>
      </trkpt>
      <trkpt lat="47.3532" lon="-1.4728">
        <ele>59</ele>
        <time>2021-07-16T08:46:39.000Z</time>
      </trkpt>
      <trkpt lat="47.35331" lon="-1.47279">
        <ele>60</ele>
        <time>2021-07-16T08:46:41.000Z</time>
      </trkpt>
      <trkpt lat="47.35342" lon="-1.47279">
        <ele>61</ele>
        <time>2021-07-16T08:46:43.000Z</time>
      </trkpt>
      <trkpt lat="47.35352" lon="-1.47278">
        <ele>61</ele>
        <time>2021-07-16T08:46:45.000Z</time>
      </trkpt>
      <trkpt lat="47.35364" lon="-1.47276">
        <ele>61</ele>
        <time>2021-07-16T08:46:48.000Z</time>
      </trkpt>
      <trkpt lat="47.35376" lon="-1.47267">
        <ele>62</ele>
        <time>2021-07-16T08:46:51.000Z</time>
      </trkpt>
      <trkpt lat="47.35387" lon="-1.47258">
        <ele>63</ele>
        <time>2021-07-16T08:46:54.000Z</time>
      </trkpt>
      <trkpt lat="47.35398" lon="-1.47249">
        <ele>64</ele>
        <time>2021-07-16T08:46:57.000Z</time>
      </trkpt>
      <trkpt lat="47.35408" lon="-1.47239">
        <ele>65</ele>
        <time>2021-07-16T08:47:00.000Z</time>
      </trkpt>
      <trkpt lat="47.35419" lon="-1.47228">
        <ele>65</ele>
        <time>2021-07-16T08:47:03.000Z</time>
      </trkpt>
      <trkpt lat="47.35431" lon="-1.47219">
        <ele>66</ele>
        <time>2021-07-16T08:47:06.000Z</time>
      </trkpt>
      <trkpt lat="47.35439" lon="-1.47212">
        <ele>66</ele>
        <time>2021-07-16T08:47:08.000Z</time>
      </trkpt>
      <trkpt lat="47.3545" lon="-1.47202">
        <ele>67</ele>
        <time>2021-07-16T08:47:11.000Z</time>
      </trkpt>
      <trkpt lat="47.35461" lon="-1.47193">
        <ele>67</ele>
        <time>2021-07-16T08:47:14.000Z</time>
      </trkpt>
      <trkpt lat="47.35472" lon="-1.47184">
        <ele>68</ele>
        <time>2021-07-16T08:47:17.000Z</time>
      </trkpt>
      <trkpt lat="47.35483" lon="-1.47174">
        <ele>69</ele>
        <time>2021-07-16T08:47:20.000Z</time>
      </trkpt>
      <trkpt lat="47.35494" lon="-1.47165">
        <ele>70</ele>
        <time>2021-07-16T08:47:23.000Z</time>
      </trkpt>
      <trkpt lat="47.35502" lon="-1.47158">
        <ele>70</ele>
        <time>2021-07-16T08:47:25.000Z</time>
      </trkpt>
      <trkpt lat="47.3551" lon="-1.4715">
        <ele>70</ele>
        <time>2021-07-16T08:47:27.000Z</time>
      </trkpt>
      <trkpt lat="47.35519" lon="-1.47142">
        <ele>70</ele>
        <time>2021-07-16T08:47:29.000Z</time>
      </trkpt>
      <trkpt lat="47.35528" lon="-1.47135">
        <ele>71</ele>
        <time>2021-07-16T08:47:31.000Z</time>
      </trkpt>
      <trkpt lat="47.35538" lon="-1.47126">
        <ele>71</ele>
        <time>2021-07-16T08:47:33.000Z</time>
      </trkpt>
      <trkpt lat="47.35548" lon="-1.47118">
        <ele>71</ele>
        <time>2021-07-16T08:47:35.000Z</time>
      </trkpt>
      <trkpt lat="47.35559" lon="-1.47109">
        <ele>71</ele>
        <time>2021-07-16T08:47:37.000Z</time>
      </trkpt>
      <trkpt lat="47.35568" lon="-1.47101">
        <ele>72</ele>
        <time>2021-07-16T08:47:39.000Z</time>
      </trkpt>
      <trkpt lat="47.35578" lon="-1.47092">
        <ele>72</ele>
        <time>2021-07-16T08:47:41.000Z</time>
      </trkpt>
      <trkpt lat="47.35587" lon="-1.47084">
        <ele>72</ele>
        <time>2021-07-16T08:47:43.000Z</time>
      </trkpt>
      <trkpt lat="47.35596" lon="-1.47076">
        <ele>72</ele>
        <time>2021-07-16T08:47:45.000Z</time>
      </trkpt>
      <trkpt lat="47.35606" lon="-1.47068">
        <ele>71</ele>
        <time>2021-07-16T08:47:47.000Z</time>
      </trkpt>
      <trkpt lat="47.35617" lon="-1.47059">
        <ele>69</ele>
        <time>2021-07-16T08:47:49.000Z</time>
      </trkpt>
      <trkpt lat="47.35629" lon="-1.47048">
        <ele>68</ele>
        <time>2021-07-16T08:47:51.000Z</time>
      </trkpt>
      <trkpt lat="47.35643" lon="-1.47035">
        <ele>67</ele>
        <time>2021-07-16T08:47:53.000Z</time>
      </trkpt>
      <trkpt lat="47.35659" lon="-1.47022">
        <ele>65</ele>
        <time>2021-07-16T08:47:55.000Z</time>
      </trkpt>
      <trkpt lat="47.35667" lon="-1.47015">
        <ele>64</ele>
        <time>2021-07-16T08:47:56.000Z</time>
      </trkpt>
      <trkpt lat="47.35675" lon="-1.47008">
        <ele>63</ele>
        <time>2021-07-16T08:47:57.000Z</time>
      </trkpt>
      <trkpt lat="47.35684" lon="-1.47">
        <ele>62</ele>
        <time>2021-07-16T08:47:58.000Z</time>
      </trkpt>
      <trkpt lat="47.35693" lon="-1.46992">
        <ele>60</ele>
        <time>2021-07-16T08:47:59.000Z</time>
      </trkpt>
      <trkpt lat="47.35703" lon="-1.46984">
        <ele>59</ele>
        <time>2021-07-16T08:48:00.000Z</time>
      </trkpt>
      <trkpt lat="47.35712" lon="-1.46976">
        <ele>58</ele>
        <time>2021-07-16T08:48:01.000Z</time>
      </trkpt>
      <trkpt lat="47.35721" lon="-1.46969">
        <ele>57</ele>
        <time>2021-07-16T08:48:02.000Z</time>
      </trkpt>
      <trkpt lat="47.35735" lon="-1.46956">
        <ele>57</ele>
        <time>2021-07-16T08:48:04.000Z</time>
      </trkpt>
      <trkpt lat="47.35744" lon="-1.46942">
        <ele>56</ele>
        <time>2021-07-16T08:48:06.000Z</time>
      </trkpt>
      <trkpt lat="47.35745" lon="-1.46924">
        <ele>55</ele>
        <time>2021-07-16T08:48:08.000Z</time>
      </trkpt>
      <trkpt lat="47.35743" lon="-1.46906">
        <ele>55</ele>
        <time>2021-07-16T08:48:10.000Z</time>
      </trkpt>
      <trkpt lat="47.3574" lon="-1.46886">
        <ele>54</ele>
        <time>2021-07-16T08:48:12.000Z</time>
      </trkpt>
      <trkpt lat="47.35737" lon="-1.46867">
        <ele>55</ele>
        <time>2021-07-16T08:48:14.000Z</time>
      </trkpt>
      <trkpt lat="47.35736" lon="-1.46847">
        <ele>54</ele>
        <time>2021-07-16T08:48:16.000Z</time>
      </trkpt>
      <trkpt lat="47.35733" lon="-1.46828">
        <ele>54</ele>
        <time>2021-07-16T08:48:18.000Z</time>
      </trkpt>
      <trkpt lat="47.35732" lon="-1.46808">
        <ele>54</ele>
        <time>2021-07-16T08:48:20.000Z</time>
      </trkpt>
      <trkpt lat="47.35735" lon="-1.46788">
        <ele>53</ele>
        <time>2021-07-16T08:48:22.000Z</time>
      </trkpt>
      <trkpt lat="47.35738" lon="-1.46769">
        <ele>53</ele>
        <time>2021-07-16T08:48:24.000Z</time>
      </trkpt>
      <trkpt lat="47.35741" lon="-1.46751">
        <ele>53</ele>
        <time>2021-07-16T08:48:26.000Z</time>
      </trkpt>
      <trkpt lat="47.35744" lon="-1.46734">
        <ele>53</ele>
        <time>2021-07-16T08:48:28.000Z</time>
      </trkpt>
      <trkpt lat="47.35746" lon="-1.46716">
        <ele>53</ele>
        <time>2021-07-16T08:48:30.000Z</time>
      </trkpt>
      <trkpt lat="47.35749" lon="-1.46698">
        <ele>53</ele>
        <time>2021-07-16T08:48:32.000Z</time>
      </trkpt>
      <trkpt lat="47.35752" lon="-1.46679">
        <ele>52</ele>
        <time>2021-07-16T08:48:34.000Z</time>
      </trkpt>
      <trkpt lat="47.35757" lon="-1.46662">
        <ele>52</ele>
        <time>2021-07-16T08:48:36.000Z</time>
      </trkpt>
      <trkpt lat="47.35764" lon="-1.46646">
        <ele>52</ele>
        <time>2021-07-16T08:48:38.000Z</time>
      </trkpt>
      <trkpt lat="47.35775" lon="-1.46634">
        <ele>52</ele>
        <time>2021-07-16T08:48:40.000Z</time>
      </trkpt>
      <trkpt lat="47.35786" lon="-1.46624">
        <ele>52</ele>
        <time>2021-07-16T08:48:42.000Z</time>
      </trkpt>
      <trkpt lat="47.35798" lon="-1.46614">
        <ele>52</ele>
        <time>2021-07-16T08:48:44.000Z</time>
      </trkpt>
      <trkpt lat="47.35809" lon="-1.46606">
        <ele>52</ele>
        <time>2021-07-16T08:48:46.000Z</time>
      </trkpt>
      <trkpt lat="47.35821" lon="-1.46597">
        <ele>51</ele>
        <time>2021-07-16T08:48:48.000Z</time>
      </trkpt>
      <trkpt lat="47.35832" lon="-1.46587">
        <ele>51</ele>
        <time>2021-07-16T08:48:50.000Z</time>
      </trkpt>
      <trkpt lat="47.35843" lon="-1.46578">
        <ele>50</ele>
        <time>2021-07-16T08:48:52.000Z</time>
      </trkpt>
      <trkpt lat="47.35855" lon="-1.46569">
        <ele>50</ele>
        <time>2021-07-16T08:48:54.000Z</time>
      </trkpt>
      <trkpt lat="47.35867" lon="-1.46559">
        <ele>50</ele>
        <time>2021-07-16T08:48:56.000Z</time>
      </trkpt>
      <trkpt lat="47.35878" lon="-1.46549">
        <ele>50</ele>
        <time>2021-07-16T08:48:58.000Z</time>
      </trkpt>
      <trkpt lat="47.35886" lon="-1.46536">
        <ele>50</ele>
        <time>2021-07-16T08:49:00.000Z</time>
      </trkpt>
      <trkpt lat="47.3589" lon="-1.46519">
        <ele>50</ele>
        <time>2021-07-16T08:49:02.000Z</time>
      </trkpt>
      <trkpt lat="47.35893" lon="-1.46499">
        <ele>50</ele>
        <time>2021-07-16T08:49:04.000Z</time>
      </trkpt>
      <trkpt lat="47.35897" lon="-1.46478">
        <ele>51</ele>
        <time>2021-07-16T08:49:06.000Z</time>
      </trkpt>
      <trkpt lat="47.35901" lon="-1.4646">
        <ele>51</ele>
        <time>2021-07-16T08:49:08.000Z</time>
      </trkpt>
      <trkpt lat="47.35904" lon="-1.4644">
        <ele>51</ele>
        <time>2021-07-16T08:49:10.000Z</time>
      </trkpt>
      <trkpt lat="47.35907" lon="-1.46423">
        <ele>51</ele>
        <time>2021-07-16T08:49:12.000Z</time>
      </trkpt>
      <trkpt lat="47.3591" lon="-1.46405">
        <ele>51</ele>
        <time>2021-07-16T08:49:14.000Z</time>
      </trkpt>
      <trkpt lat="47.35909" lon="-1.46386">
        <ele>51</ele>
        <time>2021-07-16T08:49:16.000Z</time>
      </trkpt>
      <trkpt lat="47.35904" lon="-1.46368">
        <ele>51</ele>
        <time>2021-07-16T08:49:18.000Z</time>
      </trkpt>
      <trkpt lat="47.35894" lon="-1.46354">
        <ele>51</ele>
        <time>2021-07-16T08:49:20.000Z</time>
      </trkpt>
      <trkpt lat="47.35884" lon="-1.4634">
        <ele>52</ele>
        <time>2021-07-16T08:49:22.000Z</time>
      </trkpt>
      <trkpt lat="47.35874" lon="-1.46327">
        <ele>52</ele>
        <time>2021-07-16T08:49:24.000Z</time>
      </trkpt>
      <trkpt lat="47.35862" lon="-1.46315">
        <ele>52</ele>
        <time>2021-07-16T08:49:26.000Z</time>
      </trkpt>
      <trkpt lat="47.35852" lon="-1.46301">
        <ele>53</ele>
        <time>2021-07-16T08:49:28.000Z</time>
      </trkpt>
      <trkpt lat="47.35845" lon="-1.46286">
        <ele>54</ele>
        <time>2021-07-16T08:49:30.000Z</time>
      </trkpt>
      <trkpt lat="47.35839" lon="-1.46269">
        <ele>54</ele>
        <time>2021-07-16T08:49:32.000Z</time>
      </trkpt>
      <trkpt lat="47.35835" lon="-1.46249">
        <ele>54</ele>
        <time>2021-07-16T08:49:34.000Z</time>
      </trkpt>
      <trkpt lat="47.35834" lon="-1.46229">
        <ele>54</ele>
        <time>2021-07-16T08:49:36.000Z</time>
      </trkpt>
      <trkpt lat="47.35839" lon="-1.46212">
        <ele>55</ele>
        <time>2021-07-16T08:49:38.000Z</time>
      </trkpt>
      <trkpt lat="47.35843" lon="-1.46196">
        <ele>55</ele>
        <time>2021-07-16T08:49:40.000Z</time>
      </trkpt>
      <trkpt lat="47.35844" lon="-1.46178">
        <ele>55</ele>
        <time>2021-07-16T08:49:42.000Z</time>
      </trkpt>
      <trkpt lat="47.35841" lon="-1.46159">
        <ele>54</ele>
        <time>2021-07-16T08:49:44.000Z</time>
      </trkpt>
      <trkpt lat="47.35838" lon="-1.46139">
        <ele>55</ele>
        <time>2021-07-16T08:49:46.000Z</time>
      </trkpt>
      <trkpt lat="47.35834" lon="-1.46121">
        <ele>55</ele>
        <time>2021-07-16T08:49:48.000Z</time>
      </trkpt>
      <trkpt lat="47.3583" lon="-1.46103">
        <ele>55</ele>
        <time>2021-07-16T08:49:50.000Z</time>
      </trkpt>
      <trkpt lat="47.35825" lon="-1.46086">
        <ele>56</ele>
        <time>2021-07-16T08:49:52.000Z</time>
      </trkpt>
      <trkpt lat="47.3582" lon="-1.46068">
        <ele>56</ele>
        <time>2021-07-16T08:49:54.000Z</time>
      </trkpt>
      <trkpt lat="47.35814" lon="-1.46051">
        <ele>56</ele>
        <time>2021-07-16T08:49:56.000Z</time>
      </trkpt>
      <trkpt lat="47.35809" lon="-1.46034">
        <ele>56</ele>
        <time>2021-07-16T08:49:58.000Z</time>
      </trkpt>
      <trkpt lat="47.35804" lon="-1.46017">
        <ele>56</ele>
        <time>2021-07-16T08:50:00.000Z</time>
      </trkpt>
      <trkpt lat="47.35801" lon="-1.46">
        <ele>56</ele>
        <time>2021-07-16T08:50:02.000Z</time>
      </trkpt>
      <trkpt lat="47.358" lon="-1.45983">
        <ele>57</ele>
        <time>2021-07-16T08:50:04.000Z</time>
      </trkpt>
      <trkpt lat="47.358" lon="-1.45964">
        <ele>57</ele>
        <time>2021-07-16T08:50:06.000Z</time>
      </trkpt>
      <trkpt lat="47.358" lon="-1.45946">
        <ele>57</ele>
        <time>2021-07-16T08:50:08.000Z</time>
      </trkpt>
      <trkpt lat="47.358" lon="-1.45928">
        <ele>58</ele>
        <time>2021-07-16T08:50:10.000Z</time>
      </trkpt>
      <trkpt lat="47.358" lon="-1.45912">
        <ele>58</ele>
        <time>2021-07-16T08:50:12.000Z</time>
      </trkpt>
      <trkpt lat="47.358" lon="-1.45895">
        <ele>59</ele>
        <time>2021-07-16T08:50:14.000Z</time>
      </trkpt>
      <trkpt lat="47.35799" lon="-1.45878">
        <ele>59</ele>
        <time>2021-07-16T08:50:16.000Z</time>
      </trkpt>
      <trkpt lat="47.35798" lon="-1.4586">
        <ele>59</ele>
        <time>2021-07-16T08:50:18.000Z</time>
      </trkpt>
      <trkpt lat="47.35797" lon="-1.45844">
        <ele>59</ele>
        <time>2021-07-16T08:50:20.000Z</time>
      </trkpt>
      <trkpt lat="47.35796" lon="-1.45826">
        <ele>59</ele>
        <time>2021-07-16T08:50:22.000Z</time>
      </trkpt>
      <trkpt lat="47.35796" lon="-1.4581">
        <ele>59</ele>
        <time>2021-07-16T08:50:24.000Z</time>
      </trkpt>
      <trkpt lat="47.35796" lon="-1.45793">
        <ele>59</ele>
        <time>2021-07-16T08:50:26.000Z</time>
      </trkpt>
      <trkpt lat="47.35796" lon="-1.45777">
        <ele>59</ele>
        <time>2021-07-16T08:50:28.000Z</time>
      </trkpt>
      <trkpt lat="47.35796" lon="-1.45762">
        <ele>60</ele>
        <time>2021-07-16T08:50:30.000Z</time>
      </trkpt>
      <trkpt lat="47.35796" lon="-1.45748">
        <ele>60</ele>
        <time>2021-07-16T08:50:32.000Z</time>
      </trkpt>
      <trkpt lat="47.35793" lon="-1.45733">
        <ele>60</ele>
        <time>2021-07-16T08:50:35.000Z</time>
      </trkpt>
      <trkpt lat="47.35787" lon="-1.45722">
        <ele>60</ele>
        <time>2021-07-16T08:50:39.000Z</time>
      </trkpt>
      <trkpt lat="47.35784" lon="-1.45708">
        <ele>61</ele>
        <time>2021-07-16T08:50:41.000Z</time>
      </trkpt>
      <trkpt lat="47.35782" lon="-1.45694">
        <ele>61</ele>
        <time>2021-07-16T08:50:43.000Z</time>
      </trkpt>
      <trkpt lat="47.35779" lon="-1.45679">
        <ele>60</ele>
        <time>2021-07-16T08:50:45.000Z</time>
      </trkpt>
      <trkpt lat="47.35776" lon="-1.45664">
        <ele>61</ele>
        <time>2021-07-16T08:50:47.000Z</time>
      </trkpt>
      <trkpt lat="47.35773" lon="-1.45649">
        <ele>61</ele>
        <time>2021-07-16T08:50:49.000Z</time>
      </trkpt>
      <trkpt lat="47.35769" lon="-1.45633">
        <ele>61</ele>
        <time>2021-07-16T08:50:51.000Z</time>
      </trkpt>
      <trkpt lat="47.35766" lon="-1.45617">
        <ele>61</ele>
        <time>2021-07-16T08:50:53.000Z</time>
      </trkpt>
      <trkpt lat="47.35764" lon="-1.456">
        <ele>60</ele>
        <time>2021-07-16T08:50:55.000Z</time>
      </trkpt>
      <trkpt lat="47.35763" lon="-1.45583">
        <ele>60</ele>
        <time>2021-07-16T08:50:57.000Z</time>
      </trkpt>
      <trkpt lat="47.35764" lon="-1.45567">
        <ele>61</ele>
        <time>2021-07-16T08:50:59.000Z</time>
      </trkpt>
      <trkpt lat="47.35767" lon="-1.4555">
        <ele>62</ele>
        <time>2021-07-16T08:51:01.000Z</time>
      </trkpt>
      <trkpt lat="47.35771" lon="-1.45533">
        <ele>62</ele>
        <time>2021-07-16T08:51:03.000Z</time>
      </trkpt>
      <trkpt lat="47.35775" lon="-1.45516">
        <ele>62</ele>
        <time>2021-07-16T08:51:05.000Z</time>
      </trkpt>
      <trkpt lat="47.3578" lon="-1.455">
        <ele>62</ele>
        <time>2021-07-16T08:51:07.000Z</time>
      </trkpt>
      <trkpt lat="47.35785" lon="-1.45485">
        <ele>63</ele>
        <time>2021-07-16T08:51:09.000Z</time>
      </trkpt>
      <trkpt lat="47.35791" lon="-1.45469">
        <ele>63</ele>
        <time>2021-07-16T08:51:11.000Z</time>
      </trkpt>
      <trkpt lat="47.35795" lon="-1.45454">
        <ele>63</ele>
        <time>2021-07-16T08:51:13.000Z</time>
      </trkpt>
      <trkpt lat="47.35799" lon="-1.45436">
        <ele>64</ele>
        <time>2021-07-16T08:51:15.000Z</time>
      </trkpt>
      <trkpt lat="47.358" lon="-1.45419">
        <ele>63</ele>
        <time>2021-07-16T08:51:17.000Z</time>
      </trkpt>
      <trkpt lat="47.35801" lon="-1.45402">
        <ele>63</ele>
        <time>2021-07-16T08:51:19.000Z</time>
      </trkpt>
      <trkpt lat="47.35799" lon="-1.45385">
        <ele>63</ele>
        <time>2021-07-16T08:51:21.000Z</time>
      </trkpt>
      <trkpt lat="47.35797" lon="-1.45368">
        <ele>63</ele>
        <time>2021-07-16T08:51:23.000Z</time>
      </trkpt>
      <trkpt lat="47.35795" lon="-1.4535">
        <ele>63</ele>
        <time>2021-07-16T08:51:25.000Z</time>
      </trkpt>
      <trkpt lat="47.35792" lon="-1.45334">
        <ele>63</ele>
        <time>2021-07-16T08:51:27.000Z</time>
      </trkpt>
      <trkpt lat="47.35789" lon="-1.45317">
        <ele>64</ele>
        <time>2021-07-16T08:51:29.000Z</time>
      </trkpt>
      <trkpt lat="47.35786" lon="-1.453">
        <ele>64</ele>
        <time>2021-07-16T08:51:31.000Z</time>
      </trkpt>
      <trkpt lat="47.35783" lon="-1.45283">
        <ele>65</ele>
        <time>2021-07-16T08:51:33.000Z</time>
      </trkpt>
      <trkpt lat="47.3578" lon="-1.45265">
        <ele>65</ele>
        <time>2021-07-16T08:51:35.000Z</time>
      </trkpt>
      <trkpt lat="47.35777" lon="-1.45249">
        <ele>65</ele>
        <time>2021-07-16T08:51:37.000Z</time>
      </trkpt>
      <trkpt lat="47.35774" lon="-1.45233">
        <ele>66</ele>
        <time>2021-07-16T08:51:39.000Z</time>
      </trkpt>
      <trkpt lat="47.35772" lon="-1.45217">
        <ele>66</ele>
        <time>2021-07-16T08:51:41.000Z</time>
      </trkpt>
      <trkpt lat="47.35769" lon="-1.452">
        <ele>67</ele>
        <time>2021-07-16T08:51:43.000Z</time>
      </trkpt>
      <trkpt lat="47.35767" lon="-1.45183">
        <ele>67</ele>
        <time>2021-07-16T08:51:45.000Z</time>
      </trkpt>
      <trkpt lat="47.35765" lon="-1.45166">
        <ele>67</ele>
        <time>2021-07-16T08:51:47.000Z</time>
      </trkpt>
      <trkpt lat="47.35764" lon="-1.4515">
        <ele>67</ele>
        <time>2021-07-16T08:51:49.000Z</time>
      </trkpt>
      <trkpt lat="47.35764" lon="-1.45135">
        <ele>67</ele>
        <time>2021-07-16T08:51:51.000Z</time>
      </trkpt>
      <trkpt lat="47.35765" lon="-1.45119">
        <ele>67</ele>
        <time>2021-07-16T08:51:53.000Z</time>
      </trkpt>
      <trkpt lat="47.35767" lon="-1.45102">
        <ele>68</ele>
        <time>2021-07-16T08:51:55.000Z</time>
      </trkpt>
      <trkpt lat="47.3577" lon="-1.45085">
        <ele>67</ele>
        <time>2021-07-16T08:51:57.000Z</time>
      </trkpt>
      <trkpt lat="47.35772" lon="-1.45069">
        <ele>68</ele>
        <time>2021-07-16T08:51:59.000Z</time>
      </trkpt>
      <trkpt lat="47.35775" lon="-1.45053">
        <ele>68</ele>
        <time>2021-07-16T08:52:01.000Z</time>
      </trkpt>
      <trkpt lat="47.35777" lon="-1.45035">
        <ele>68</ele>
        <time>2021-07-16T08:52:03.000Z</time>
      </trkpt>
      <trkpt lat="47.35779" lon="-1.45019">
        <ele>67</ele>
        <time>2021-07-16T08:52:05.000Z</time>
      </trkpt>
      <trkpt lat="47.3578" lon="-1.45003">
        <ele>67</ele>
        <time>2021-07-16T08:52:07.000Z</time>
      </trkpt>
      <trkpt lat="47.35781" lon="-1.44986">
        <ele>67</ele>
        <time>2021-07-16T08:52:09.000Z</time>
      </trkpt>
      <trkpt lat="47.35782" lon="-1.44968">
        <ele>68</ele>
        <time>2021-07-16T08:52:11.000Z</time>
      </trkpt>
      <trkpt lat="47.35782" lon="-1.44952">
        <ele>68</ele>
        <time>2021-07-16T08:52:13.000Z</time>
      </trkpt>
      <trkpt lat="47.35782" lon="-1.44936">
        <ele>69</ele>
        <time>2021-07-16T08:52:15.000Z</time>
      </trkpt>
      <trkpt lat="47.35783" lon="-1.4492">
        <ele>69</ele>
        <time>2021-07-16T08:52:17.000Z</time>
      </trkpt>
      <trkpt lat="47.35784" lon="-1.44904">
        <ele>69</ele>
        <time>2021-07-16T08:52:19.000Z</time>
      </trkpt>
      <trkpt lat="47.35784" lon="-1.44887">
        <ele>70</ele>
        <time>2021-07-16T08:52:21.000Z</time>
      </trkpt>
      <trkpt lat="47.35784" lon="-1.44871">
        <ele>71</ele>
        <time>2021-07-16T08:52:23.000Z</time>
      </trkpt>
      <trkpt lat="47.35784" lon="-1.44855">
        <ele>71</ele>
        <time>2021-07-16T08:52:25.000Z</time>
      </trkpt>
      <trkpt lat="47.35785" lon="-1.4484">
        <ele>71</ele>
        <time>2021-07-16T08:52:27.000Z</time>
      </trkpt>
      <trkpt lat="47.35785" lon="-1.44824">
        <ele>72</ele>
        <time>2021-07-16T08:52:29.000Z</time>
      </trkpt>
      <trkpt lat="47.35786" lon="-1.44808">
        <ele>72</ele>
        <time>2021-07-16T08:52:31.000Z</time>
      </trkpt>
      <trkpt lat="47.35786" lon="-1.44793">
        <ele>73</ele>
        <time>2021-07-16T08:52:33.000Z</time>
      </trkpt>
      <trkpt lat="47.35786" lon="-1.44777">
        <ele>73</ele>
        <time>2021-07-16T08:52:35.000Z</time>
      </trkpt>
      <trkpt lat="47.35786" lon="-1.44761">
        <ele>73</ele>
        <time>2021-07-16T08:52:37.000Z</time>
      </trkpt>
      <trkpt lat="47.35786" lon="-1.44745">
        <ele>74</ele>
        <time>2021-07-16T08:52:39.000Z</time>
      </trkpt>
      <trkpt lat="47.35787" lon="-1.4473">
        <ele>74</ele>
        <time>2021-07-16T08:52:41.000Z</time>
      </trkpt>
      <trkpt lat="47.35787" lon="-1.44714">
        <ele>75</ele>
        <time>2021-07-16T08:52:43.000Z</time>
      </trkpt>
      <trkpt lat="47.35788" lon="-1.44697">
        <ele>75</ele>
        <time>2021-07-16T08:52:45.000Z</time>
      </trkpt>
      <trkpt lat="47.35788" lon="-1.44681">
        <ele>76</ele>
        <time>2021-07-16T08:52:47.000Z</time>
      </trkpt>
      <trkpt lat="47.35788" lon="-1.44664">
        <ele>77</ele>
        <time>2021-07-16T08:52:49.000Z</time>
      </trkpt>
      <trkpt lat="47.35789" lon="-1.44648">
        <ele>77</ele>
        <time>2021-07-16T08:52:51.000Z</time>
      </trkpt>
      <trkpt lat="47.35789" lon="-1.44631">
        <ele>78</ele>
        <time>2021-07-16T08:52:53.000Z</time>
      </trkpt>
      <trkpt lat="47.3579" lon="-1.44615">
        <ele>78</ele>
        <time>2021-07-16T08:52:55.000Z</time>
      </trkpt>
      <trkpt lat="47.35792" lon="-1.44599">
        <ele>79</ele>
        <time>2021-07-16T08:52:57.000Z</time>
      </trkpt>
      <trkpt lat="47.35793" lon="-1.44582">
        <ele>79</ele>
        <time>2021-07-16T08:52:59.000Z</time>
      </trkpt>
      <trkpt lat="47.35795" lon="-1.44566">
        <ele>80</ele>
        <time>2021-07-16T08:53:01.000Z</time>
      </trkpt>
      <trkpt lat="47.35797" lon="-1.4455">
        <ele>81</ele>
        <time>2021-07-16T08:53:03.000Z</time>
      </trkpt>
      <trkpt lat="47.35798" lon="-1.44534">
        <ele>81</ele>
        <time>2021-07-16T08:53:05.000Z</time>
      </trkpt>
      <trkpt lat="47.358" lon="-1.44519">
        <ele>82</ele>
        <time>2021-07-16T08:53:07.000Z</time>
      </trkpt>
      <trkpt lat="47.35801" lon="-1.44504">
        <ele>81</ele>
        <time>2021-07-16T08:53:09.000Z</time>
      </trkpt>
      <trkpt lat="47.35803" lon="-1.44489">
        <ele>81</ele>
        <time>2021-07-16T08:53:11.000Z</time>
      </trkpt>
      <trkpt lat="47.35804" lon="-1.44474">
        <ele>82</ele>
        <time>2021-07-16T08:53:13.000Z</time>
      </trkpt>
      <trkpt lat="47.35805" lon="-1.44457">
        <ele>82</ele>
        <time>2021-07-16T08:53:15.000Z</time>
      </trkpt>
      <trkpt lat="47.35806" lon="-1.44441">
        <ele>82</ele>
        <time>2021-07-16T08:53:17.000Z</time>
      </trkpt>
      <trkpt lat="47.35806" lon="-1.44425">
        <ele>82</ele>
        <time>2021-07-16T08:53:19.000Z</time>
      </trkpt>
      <trkpt lat="47.35806" lon="-1.44409">
        <ele>82</ele>
        <time>2021-07-16T08:53:21.000Z</time>
      </trkpt>
      <trkpt lat="47.35806" lon="-1.44393">
        <ele>82</ele>
        <time>2021-07-16T08:53:23.000Z</time>
      </trkpt>
      <trkpt lat="47.35806" lon="-1.44377">
        <ele>82</ele>
        <time>2021-07-16T08:53:25.000Z</time>
      </trkpt>
      <trkpt lat="47.35806" lon="-1.44358">
        <ele>81</ele>
        <time>2021-07-16T08:53:27.000Z</time>
      </trkpt>
      <trkpt lat="47.35807" lon="-1.44339">
        <ele>81</ele>
        <time>2021-07-16T08:53:29.000Z</time>
      </trkpt>
      <trkpt lat="47.35808" lon="-1.44321">
        <ele>81</ele>
        <time>2021-07-16T08:53:31.000Z</time>
      </trkpt>
      <trkpt lat="47.35809" lon="-1.44301">
        <ele>80</ele>
        <time>2021-07-16T08:53:33.000Z</time>
      </trkpt>
      <trkpt lat="47.35813" lon="-1.44283">
        <ele>81</ele>
        <time>2021-07-16T08:53:35.000Z</time>
      </trkpt>
      <trkpt lat="47.35818" lon="-1.44267">
        <ele>81</ele>
        <time>2021-07-16T08:53:37.000Z</time>
      </trkpt>
      <trkpt lat="47.35825" lon="-1.44251">
        <ele>81</ele>
        <time>2021-07-16T08:53:39.000Z</time>
      </trkpt>
      <trkpt lat="47.35834" lon="-1.44237">
        <ele>81</ele>
        <time>2021-07-16T08:53:41.000Z</time>
      </trkpt>
      <trkpt lat="47.35843" lon="-1.44224">
        <ele>81</ele>
        <time>2021-07-16T08:53:43.000Z</time>
      </trkpt>
      <trkpt lat="47.35852" lon="-1.44212">
        <ele>81</ele>
        <time>2021-07-16T08:53:45.000Z</time>
      </trkpt>
      <trkpt lat="47.35861" lon="-1.44199">
        <ele>81</ele>
        <time>2021-07-16T08:53:47.000Z</time>
      </trkpt>
      <trkpt lat="47.3587" lon="-1.44187">
        <ele>81</ele>
        <time>2021-07-16T08:53:49.000Z</time>
      </trkpt>
      <trkpt lat="47.3588" lon="-1.44175">
        <ele>81</ele>
        <time>2021-07-16T08:53:51.000Z</time>
      </trkpt>
      <trkpt lat="47.35889" lon="-1.44162">
        <ele>81</ele>
        <time>2021-07-16T08:53:53.000Z</time>
      </trkpt>
      <trkpt lat="47.35897" lon="-1.4415">
        <ele>81</ele>
        <time>2021-07-16T08:53:55.000Z</time>
      </trkpt>
      <trkpt lat="47.35906" lon="-1.44138">
        <ele>81</ele>
        <time>2021-07-16T08:53:57.000Z</time>
      </trkpt>
      <trkpt lat="47.35915" lon="-1.44126">
        <ele>82</ele>
        <time>2021-07-16T08:53:59.000Z</time>
      </trkpt>
      <trkpt lat="47.35925" lon="-1.44113">
        <ele>81</ele>
        <time>2021-07-16T08:54:01.000Z</time>
      </trkpt>
      <trkpt lat="47.35933" lon="-1.44101">
        <ele>82</ele>
        <time>2021-07-16T08:54:03.000Z</time>
      </trkpt>
      <trkpt lat="47.35942" lon="-1.44088">
        <ele>82</ele>
        <time>2021-07-16T08:54:05.000Z</time>
      </trkpt>
      <trkpt lat="47.35956" lon="-1.4407">
        <ele>82</ele>
        <time>2021-07-16T08:54:08.000Z</time>
      </trkpt>
      <trkpt lat="47.35965" lon="-1.4406">
        <ele>82</ele>
        <time>2021-07-16T08:54:10.000Z</time>
      </trkpt>
      <trkpt lat="47.35975" lon="-1.44048">
        <ele>83</ele>
        <time>2021-07-16T08:54:12.000Z</time>
      </trkpt>
      <trkpt lat="47.35989" lon="-1.4403">
        <ele>84</ele>
        <time>2021-07-16T08:54:15.000Z</time>
      </trkpt>
      <trkpt lat="47.35999" lon="-1.44019">
        <ele>84</ele>
        <time>2021-07-16T08:54:17.000Z</time>
      </trkpt>
      <trkpt lat="47.36013" lon="-1.44001">
        <ele>84</ele>
        <time>2021-07-16T08:54:20.000Z</time>
      </trkpt>
      <trkpt lat="47.36022" lon="-1.43988">
        <ele>84</ele>
        <time>2021-07-16T08:54:22.000Z</time>
      </trkpt>
      <trkpt lat="47.36031" lon="-1.43974">
        <ele>83</ele>
        <time>2021-07-16T08:54:24.000Z</time>
      </trkpt>
      <trkpt lat="47.36043" lon="-1.43951">
        <ele>83</ele>
        <time>2021-07-16T08:54:27.000Z</time>
      </trkpt>
      <trkpt lat="47.36049" lon="-1.43934">
        <ele>81</ele>
        <time>2021-07-16T08:54:29.000Z</time>
      </trkpt>
      <trkpt lat="47.36055" lon="-1.43916">
        <ele>81</ele>
        <time>2021-07-16T08:54:31.000Z</time>
      </trkpt>
      <trkpt lat="47.3606" lon="-1.43898">
        <ele>81</ele>
        <time>2021-07-16T08:54:33.000Z</time>
      </trkpt>
      <trkpt lat="47.36063" lon="-1.43878">
        <ele>80</ele>
        <time>2021-07-16T08:54:35.000Z</time>
      </trkpt>
      <trkpt lat="47.36066" lon="-1.43856">
        <ele>80</ele>
        <time>2021-07-16T08:54:37.000Z</time>
      </trkpt>
      <trkpt lat="47.36068" lon="-1.43834">
        <ele>79</ele>
        <time>2021-07-16T08:54:39.000Z</time>
      </trkpt>
      <trkpt lat="47.3607" lon="-1.43811">
        <ele>78</ele>
        <time>2021-07-16T08:54:41.000Z</time>
      </trkpt>
      <trkpt lat="47.36073" lon="-1.43786">
        <ele>77</ele>
        <time>2021-07-16T08:54:43.000Z</time>
      </trkpt>
      <trkpt lat="47.36078" lon="-1.43762">
        <ele>76</ele>
        <time>2021-07-16T08:54:45.000Z</time>
      </trkpt>
      <trkpt lat="47.36085" lon="-1.43739">
        <ele>76</ele>
        <time>2021-07-16T08:54:47.000Z</time>
      </trkpt>
      <trkpt lat="47.36089" lon="-1.43727">
        <ele>75</ele>
        <time>2021-07-16T08:54:48.000Z</time>
      </trkpt>
      <trkpt lat="47.36099" lon="-1.43705">
        <ele>76</ele>
        <time>2021-07-16T08:54:50.000Z</time>
      </trkpt>
      <trkpt lat="47.36105" lon="-1.43694">
        <ele>76</ele>
        <time>2021-07-16T08:54:51.000Z</time>
      </trkpt>
      <trkpt lat="47.36111" lon="-1.43683">
        <ele>75</ele>
        <time>2021-07-16T08:54:52.000Z</time>
      </trkpt>
      <trkpt lat="47.36117" lon="-1.43672">
        <ele>75</ele>
        <time>2021-07-16T08:54:53.000Z</time>
      </trkpt>
      <trkpt lat="47.36128" lon="-1.43653">
        <ele>75</ele>
        <time>2021-07-16T08:54:55.000Z</time>
      </trkpt>
      <trkpt lat="47.36139" lon="-1.43635">
        <ele>75</ele>
        <time>2021-07-16T08:54:57.000Z</time>
      </trkpt>
      <trkpt lat="47.36148" lon="-1.43616">
        <ele>75</ele>
        <time>2021-07-16T08:54:59.000Z</time>
      </trkpt>
      <trkpt lat="47.36157" lon="-1.43597">
        <ele>75</ele>
        <time>2021-07-16T08:55:01.000Z</time>
      </trkpt>
      <trkpt lat="47.36165" lon="-1.4358">
        <ele>75</ele>
        <time>2021-07-16T08:55:03.000Z</time>
      </trkpt>
      <trkpt lat="47.36173" lon="-1.43562">
        <ele>75</ele>
        <time>2021-07-16T08:55:05.000Z</time>
      </trkpt>
      <trkpt lat="47.36182" lon="-1.43545">
        <ele>74</ele>
        <time>2021-07-16T08:55:07.000Z</time>
      </trkpt>
      <trkpt lat="47.3619" lon="-1.4353">
        <ele>74</ele>
        <time>2021-07-16T08:55:09.000Z</time>
      </trkpt>
      <trkpt lat="47.36198" lon="-1.43516">
        <ele>74</ele>
        <time>2021-07-16T08:55:11.000Z</time>
      </trkpt>
      <trkpt lat="47.36206" lon="-1.43504">
        <ele>74</ele>
        <time>2021-07-16T08:55:13.000Z</time>
      </trkpt>
      <trkpt lat="47.36214" lon="-1.43493">
        <ele>75</ele>
        <time>2021-07-16T08:55:15.000Z</time>
      </trkpt>
      <trkpt lat="47.36223" lon="-1.43483">
        <ele>75</ele>
        <time>2021-07-16T08:55:17.000Z</time>
      </trkpt>
      <trkpt lat="47.36232" lon="-1.43472">
        <ele>76</ele>
        <time>2021-07-16T08:55:19.000Z</time>
      </trkpt>
      <trkpt lat="47.3624" lon="-1.43463">
        <ele>77</ele>
        <time>2021-07-16T08:55:21.000Z</time>
      </trkpt>
      <trkpt lat="47.36248" lon="-1.43455">
        <ele>77</ele>
        <time>2021-07-16T08:55:23.000Z</time>
      </trkpt>
      <trkpt lat="47.36257" lon="-1.43446">
        <ele>78</ele>
        <time>2021-07-16T08:55:25.000Z</time>
      </trkpt>
      <trkpt lat="47.36264" lon="-1.43439">
        <ele>78</ele>
        <time>2021-07-16T08:55:27.000Z</time>
      </trkpt>
      <trkpt lat="47.36272" lon="-1.43431">
        <ele>79</ele>
        <time>2021-07-16T08:55:29.000Z</time>
      </trkpt>
      <trkpt lat="47.36283" lon="-1.4342">
        <ele>80</ele>
        <time>2021-07-16T08:55:32.000Z</time>
      </trkpt>
      <trkpt lat="47.36294" lon="-1.43409">
        <ele>81</ele>
        <time>2021-07-16T08:55:35.000Z</time>
      </trkpt>
      <trkpt lat="47.36301" lon="-1.43401">
        <ele>82</ele>
        <time>2021-07-16T08:55:37.000Z</time>
      </trkpt>
      <trkpt lat="47.36313" lon="-1.4339">
        <ele>83</ele>
        <time>2021-07-16T08:55:40.000Z</time>
      </trkpt>
      <trkpt lat="47.36324" lon="-1.43379">
        <ele>83</ele>
        <time>2021-07-16T08:55:43.000Z</time>
      </trkpt>
      <trkpt lat="47.36334" lon="-1.43368">
        <ele>84</ele>
        <time>2021-07-16T08:55:46.000Z</time>
      </trkpt>
      <trkpt lat="47.36344" lon="-1.43359">
        <ele>85</ele>
        <time>2021-07-16T08:55:49.000Z</time>
      </trkpt>
      <trkpt lat="47.36353" lon="-1.43349">
        <ele>86</ele>
        <time>2021-07-16T08:55:52.000Z</time>
      </trkpt>
      <trkpt lat="47.36363" lon="-1.43339">
        <ele>87</ele>
        <time>2021-07-16T08:55:55.000Z</time>
      </trkpt>
      <trkpt lat="47.36372" lon="-1.4333">
        <ele>87</ele>
        <time>2021-07-16T08:55:58.000Z</time>
      </trkpt>
      <trkpt lat="47.36381" lon="-1.43321">
        <ele>88</ele>
        <time>2021-07-16T08:56:01.000Z</time>
      </trkpt>
      <trkpt lat="47.3639" lon="-1.43312">
        <ele>89</ele>
        <time>2021-07-16T08:56:04.000Z</time>
      </trkpt>
      <trkpt lat="47.36399" lon="-1.43303">
        <ele>89</ele>
        <time>2021-07-16T08:56:07.000Z</time>
      </trkpt>
      <trkpt lat="47.36408" lon="-1.43293">
        <ele>90</ele>
        <time>2021-07-16T08:56:10.000Z</time>
      </trkpt>
      <trkpt lat="47.36416" lon="-1.43284">
        <ele>90</ele>
        <time>2021-07-16T08:56:13.000Z</time>
      </trkpt>
      <trkpt lat="47.36425" lon="-1.43273">
        <ele>91</ele>
        <time>2021-07-16T08:56:16.000Z</time>
      </trkpt>
      <trkpt lat="47.36432" lon="-1.43262">
        <ele>92</ele>
        <time>2021-07-16T08:56:19.000Z</time>
      </trkpt>
      <trkpt lat="47.3644" lon="-1.43249">
        <ele>93</ele>
        <time>2021-07-16T08:56:22.000Z</time>
      </trkpt>
      <trkpt lat="47.36448" lon="-1.43236">
        <ele>94</ele>
        <time>2021-07-16T08:56:25.000Z</time>
      </trkpt>
      <trkpt lat="47.36455" lon="-1.43222">
        <ele>94</ele>
        <time>2021-07-16T08:56:28.000Z</time>
      </trkpt>
      <trkpt lat="47.36462" lon="-1.43206">
        <ele>95</ele>
        <time>2021-07-16T08:56:31.000Z</time>
      </trkpt>
      <trkpt lat="47.36469" lon="-1.4319">
        <ele>95</ele>
        <time>2021-07-16T08:56:34.000Z</time>
      </trkpt>
      <trkpt lat="47.36476" lon="-1.43174">
        <ele>96</ele>
        <time>2021-07-16T08:56:37.000Z</time>
      </trkpt>
      <trkpt lat="47.36483" lon="-1.43157">
        <ele>95</ele>
        <time>2021-07-16T08:56:40.000Z</time>
      </trkpt>
      <trkpt lat="47.36489" lon="-1.43146">
        <ele>95</ele>
        <time>2021-07-16T08:56:42.000Z</time>
      </trkpt>
      <trkpt lat="47.36494" lon="-1.43135">
        <ele>95</ele>
        <time>2021-07-16T08:56:44.000Z</time>
      </trkpt>
      <trkpt lat="47.36499" lon="-1.43123">
        <ele>96</ele>
        <time>2021-07-16T08:56:46.000Z</time>
      </trkpt>
      <trkpt lat="47.36503" lon="-1.4311">
        <ele>96</ele>
        <time>2021-07-16T08:56:48.000Z</time>
      </trkpt>
      <trkpt lat="47.36508" lon="-1.43097">
        <ele>96</ele>
        <time>2021-07-16T08:56:50.000Z</time>
      </trkpt>
      <trkpt lat="47.36511" lon="-1.43083">
        <ele>96</ele>
        <time>2021-07-16T08:56:52.000Z</time>
      </trkpt>
      <trkpt lat="47.36514" lon="-1.43069">
        <ele>96</ele>
        <time>2021-07-16T08:56:54.000Z</time>
      </trkpt>
      <trkpt lat="47.36516" lon="-1.43055">
        <ele>96</ele>
        <time>2021-07-16T08:56:56.000Z</time>
      </trkpt>
      <trkpt lat="47.36518" lon="-1.4304">
        <ele>97</ele>
        <time>2021-07-16T08:56:58.000Z</time>
      </trkpt>
      <trkpt lat="47.36519" lon="-1.43027">
        <ele>97</ele>
        <time>2021-07-16T08:57:00.000Z</time>
      </trkpt>
      <trkpt lat="47.36521" lon="-1.43012">
        <ele>97</ele>
        <time>2021-07-16T08:57:02.000Z</time>
      </trkpt>
      <trkpt lat="47.36524" lon="-1.42999">
        <ele>98</ele>
        <time>2021-07-16T08:57:04.000Z</time>
      </trkpt>
      <trkpt lat="47.36534" lon="-1.42985">
        <ele>97</ele>
        <time>2021-07-16T08:57:07.000Z</time>
      </trkpt>
      <trkpt lat="47.36543" lon="-1.42982">
        <ele>97</ele>
        <time>2021-07-16T08:57:09.000Z</time>
      </trkpt>
      <trkpt lat="47.36554" lon="-1.42981">
        <ele>97</ele>
        <time>2021-07-16T08:57:11.000Z</time>
      </trkpt>
      <trkpt lat="47.36564" lon="-1.42981">
        <ele>97</ele>
        <time>2021-07-16T08:57:13.000Z</time>
      </trkpt>
      <trkpt lat="47.36576" lon="-1.42979">
        <ele>96</ele>
        <time>2021-07-16T08:57:15.000Z</time>
      </trkpt>
      <trkpt lat="47.36588" lon="-1.42978">
        <ele>96</ele>
        <time>2021-07-16T08:57:17.000Z</time>
      </trkpt>
      <trkpt lat="47.36601" lon="-1.42978">
        <ele>96</ele>
        <time>2021-07-16T08:57:19.000Z</time>
      </trkpt>
      <trkpt lat="47.36613" lon="-1.42976">
        <ele>96</ele>
        <time>2021-07-16T08:57:21.000Z</time>
      </trkpt>
      <trkpt lat="47.36626" lon="-1.42976">
        <ele>97</ele>
        <time>2021-07-16T08:57:23.000Z</time>
      </trkpt>
      <trkpt lat="47.36638" lon="-1.42976">
        <ele>97</ele>
        <time>2021-07-16T08:57:25.000Z</time>
      </trkpt>
      <trkpt lat="47.3665" lon="-1.42975">
        <ele>97</ele>
        <time>2021-07-16T08:57:27.000Z</time>
      </trkpt>
      <trkpt lat="47.36661" lon="-1.42974">
        <ele>97</ele>
        <time>2021-07-16T08:57:29.000Z</time>
      </trkpt>
      <trkpt lat="47.36673" lon="-1.42974">
        <ele>97</ele>
        <time>2021-07-16T08:57:31.000Z</time>
      </trkpt>
      <trkpt lat="47.36683" lon="-1.42973">
        <ele>97</ele>
        <time>2021-07-16T08:57:33.000Z</time>
      </trkpt>
      <trkpt lat="47.36691" lon="-1.42966">
        <ele>98</ele>
        <time>2021-07-16T08:57:35.000Z</time>
      </trkpt>
      <trkpt lat="47.36694" lon="-1.42951">
        <ele>98</ele>
        <time>2021-07-16T08:57:37.000Z</time>
      </trkpt>
      <trkpt lat="47.36698" lon="-1.42937">
        <ele>98</ele>
        <time>2021-07-16T08:57:39.000Z</time>
      </trkpt>
      <trkpt lat="47.36703" lon="-1.42921">
        <ele>98</ele>
        <time>2021-07-16T08:57:41.000Z</time>
      </trkpt>
      <trkpt lat="47.36709" lon="-1.42904">
        <ele>99</ele>
        <time>2021-07-16T08:57:43.000Z</time>
      </trkpt>
      <trkpt lat="47.36714" lon="-1.42888">
        <ele>99</ele>
        <time>2021-07-16T08:57:45.000Z</time>
      </trkpt>
      <trkpt lat="47.36719" lon="-1.42871">
        <ele>99</ele>
        <time>2021-07-16T08:57:47.000Z</time>
      </trkpt>
      <trkpt lat="47.36722" lon="-1.42854">
        <ele>99</ele>
        <time>2021-07-16T08:57:49.000Z</time>
      </trkpt>
      <trkpt lat="47.36726" lon="-1.42836">
        <ele>99</ele>
        <time>2021-07-16T08:57:51.000Z</time>
      </trkpt>
      <trkpt lat="47.3673" lon="-1.42817">
        <ele>99</ele>
        <time>2021-07-16T08:57:53.000Z</time>
      </trkpt>
      <trkpt lat="47.36733" lon="-1.42799">
        <ele>100</ele>
        <time>2021-07-16T08:57:55.000Z</time>
      </trkpt>
      <trkpt lat="47.36735" lon="-1.42781">
        <ele>99</ele>
        <time>2021-07-16T08:57:57.000Z</time>
      </trkpt>
      <trkpt lat="47.36737" lon="-1.42762">
        <ele>99</ele>
        <time>2021-07-16T08:57:59.000Z</time>
      </trkpt>
      <trkpt lat="47.36737" lon="-1.42743">
        <ele>99</ele>
        <time>2021-07-16T08:58:01.000Z</time>
      </trkpt>
      <trkpt lat="47.36738" lon="-1.42723">
        <ele>99</ele>
        <time>2021-07-16T08:58:03.000Z</time>
      </trkpt>
      <trkpt lat="47.36738" lon="-1.42704">
        <ele>100</ele>
        <time>2021-07-16T08:58:05.000Z</time>
      </trkpt>
      <trkpt lat="47.36737" lon="-1.42685">
        <ele>100</ele>
        <time>2021-07-16T08:58:07.000Z</time>
      </trkpt>
      <trkpt lat="47.36736" lon="-1.42666">
        <ele>100</ele>
        <time>2021-07-16T08:58:09.000Z</time>
      </trkpt>
      <trkpt lat="47.36734" lon="-1.42648">
        <ele>99</ele>
        <time>2021-07-16T08:58:11.000Z</time>
      </trkpt>
      <trkpt lat="47.36732" lon="-1.4263">
        <ele>99</ele>
        <time>2021-07-16T08:58:13.000Z</time>
      </trkpt>
      <trkpt lat="47.36729" lon="-1.42611">
        <ele>99</ele>
        <time>2021-07-16T08:58:15.000Z</time>
      </trkpt>
      <trkpt lat="47.36726" lon="-1.42592">
        <ele>100</ele>
        <time>2021-07-16T08:58:17.000Z</time>
      </trkpt>
      <trkpt lat="47.36723" lon="-1.42573">
        <ele>99</ele>
        <time>2021-07-16T08:58:19.000Z</time>
      </trkpt>
      <trkpt lat="47.3672" lon="-1.42556">
        <ele>99</ele>
        <time>2021-07-16T08:58:21.000Z</time>
      </trkpt>
      <trkpt lat="47.36717" lon="-1.42537">
        <ele>99</ele>
        <time>2021-07-16T08:58:23.000Z</time>
      </trkpt>
      <trkpt lat="47.36714" lon="-1.42519">
        <ele>100</ele>
        <time>2021-07-16T08:58:25.000Z</time>
      </trkpt>
      <trkpt lat="47.36711" lon="-1.42501">
        <ele>100</ele>
        <time>2021-07-16T08:58:27.000Z</time>
      </trkpt>
      <trkpt lat="47.36708" lon="-1.42482">
        <ele>100</ele>
        <time>2021-07-16T08:58:29.000Z</time>
      </trkpt>
      <trkpt lat="47.36705" lon="-1.42463">
        <ele>100</ele>
        <time>2021-07-16T08:58:31.000Z</time>
      </trkpt>
      <trkpt lat="47.36702" lon="-1.42445">
        <ele>100</ele>
        <time>2021-07-16T08:58:33.000Z</time>
      </trkpt>
      <trkpt lat="47.36699" lon="-1.42427">
        <ele>100</ele>
        <time>2021-07-16T08:58:35.000Z</time>
      </trkpt>
      <trkpt lat="47.36697" lon="-1.42409">
        <ele>100</ele>
        <time>2021-07-16T08:58:37.000Z</time>
      </trkpt>
      <trkpt lat="47.36694" lon="-1.42392">
        <ele>100</ele>
        <time>2021-07-16T08:58:39.000Z</time>
      </trkpt>
      <trkpt lat="47.36691" lon="-1.42374">
        <ele>100</ele>
        <time>2021-07-16T08:58:41.000Z</time>
      </trkpt>
      <trkpt lat="47.36688" lon="-1.42357">
        <ele>100</ele>
        <time>2021-07-16T08:58:43.000Z</time>
      </trkpt>
      <trkpt lat="47.36685" lon="-1.4234">
        <ele>101</ele>
        <time>2021-07-16T08:58:45.000Z</time>
      </trkpt>
      <trkpt lat="47.36683" lon="-1.42322">
        <ele>101</ele>
        <time>2021-07-16T08:58:47.000Z</time>
      </trkpt>
      <trkpt lat="47.36681" lon="-1.42304">
        <ele>101</ele>
        <time>2021-07-16T08:58:49.000Z</time>
      </trkpt>
      <trkpt lat="47.36679" lon="-1.42287">
        <ele>101</ele>
        <time>2021-07-16T08:58:51.000Z</time>
      </trkpt>
      <trkpt lat="47.36677" lon="-1.4227">
        <ele>101</ele>
        <time>2021-07-16T08:58:53.000Z</time>
      </trkpt>
      <trkpt lat="47.36675" lon="-1.42253">
        <ele>101</ele>
        <time>2021-07-16T08:58:55.000Z</time>
      </trkpt>
      <trkpt lat="47.36673" lon="-1.42236">
        <ele>102</ele>
        <time>2021-07-16T08:58:57.000Z</time>
      </trkpt>
      <trkpt lat="47.36672" lon="-1.42219">
        <ele>101</ele>
        <time>2021-07-16T08:58:59.000Z</time>
      </trkpt>
      <trkpt lat="47.36671" lon="-1.42202">
        <ele>102</ele>
        <time>2021-07-16T08:59:01.000Z</time>
      </trkpt>
      <trkpt lat="47.36669" lon="-1.42185">
        <ele>102</ele>
        <time>2021-07-16T08:59:03.000Z</time>
      </trkpt>
      <trkpt lat="47.36668" lon="-1.42169">
        <ele>102</ele>
        <time>2021-07-16T08:59:05.000Z</time>
      </trkpt>
      <trkpt lat="47.36667" lon="-1.42153">
        <ele>102</ele>
        <time>2021-07-16T08:59:07.000Z</time>
      </trkpt>
      <trkpt lat="47.36665" lon="-1.42138">
        <ele>103</ele>
        <time>2021-07-16T08:59:09.000Z</time>
      </trkpt>
      <trkpt lat="47.36663" lon="-1.42122">
        <ele>103</ele>
        <time>2021-07-16T08:59:11.000Z</time>
      </trkpt>
      <trkpt lat="47.36662" lon="-1.42106">
        <ele>103</ele>
        <time>2021-07-16T08:59:13.000Z</time>
      </trkpt>
      <trkpt lat="47.3666" lon="-1.4209">
        <ele>103</ele>
        <time>2021-07-16T08:59:15.000Z</time>
      </trkpt>
      <trkpt lat="47.36659" lon="-1.42074">
        <ele>104</ele>
        <time>2021-07-16T08:59:17.000Z</time>
      </trkpt>
      <trkpt lat="47.36657" lon="-1.42059">
        <ele>104</ele>
        <time>2021-07-16T08:59:19.000Z</time>
      </trkpt>
      <trkpt lat="47.36656" lon="-1.42042">
        <ele>104</ele>
        <time>2021-07-16T08:59:21.000Z</time>
      </trkpt>
      <trkpt lat="47.36655" lon="-1.42027">
        <ele>104</ele>
        <time>2021-07-16T08:59:23.000Z</time>
      </trkpt>
      <trkpt lat="47.36654" lon="-1.42012">
        <ele>104</ele>
        <time>2021-07-16T08:59:25.000Z</time>
      </trkpt>
      <trkpt lat="47.36652" lon="-1.41997">
        <ele>104</ele>
        <time>2021-07-16T08:59:27.000Z</time>
      </trkpt>
      <trkpt lat="47.3665" lon="-1.41982">
        <ele>105</ele>
        <time>2021-07-16T08:59:29.000Z</time>
      </trkpt>
      <trkpt lat="47.36649" lon="-1.41966">
        <ele>105</ele>
        <time>2021-07-16T08:59:31.000Z</time>
      </trkpt>
      <trkpt lat="47.36648" lon="-1.41949">
        <ele>105</ele>
        <time>2021-07-16T08:59:33.000Z</time>
      </trkpt>
      <trkpt lat="47.36646" lon="-1.41934">
        <ele>106</ele>
        <time>2021-07-16T08:59:35.000Z</time>
      </trkpt>
      <trkpt lat="47.36645" lon="-1.41918">
        <ele>106</ele>
        <time>2021-07-16T08:59:37.000Z</time>
      </trkpt>
      <trkpt lat="47.36644" lon="-1.41902">
        <ele>107</ele>
        <time>2021-07-16T08:59:39.000Z</time>
      </trkpt>
      <trkpt lat="47.36642" lon="-1.41886">
        <ele>107</ele>
        <time>2021-07-16T08:59:41.000Z</time>
      </trkpt>
      <trkpt lat="47.36641" lon="-1.4187">
        <ele>108</ele>
        <time>2021-07-16T08:59:43.000Z</time>
      </trkpt>
      <trkpt lat="47.36639" lon="-1.41854">
        <ele>108</ele>
        <time>2021-07-16T08:59:45.000Z</time>
      </trkpt>
      <trkpt lat="47.36638" lon="-1.41838">
        <ele>108</ele>
        <time>2021-07-16T08:59:47.000Z</time>
      </trkpt>
      <trkpt lat="47.36637" lon="-1.41823">
        <ele>108</ele>
        <time>2021-07-16T08:59:49.000Z</time>
      </trkpt>
      <trkpt lat="47.36636" lon="-1.41808">
        <ele>108</ele>
        <time>2021-07-16T08:59:51.000Z</time>
      </trkpt>
      <trkpt lat="47.36634" lon="-1.41792">
        <ele>109</ele>
        <time>2021-07-16T08:59:53.000Z</time>
      </trkpt>
      <trkpt lat="47.36632" lon="-1.41777">
        <ele>110</ele>
        <time>2021-07-16T08:59:55.000Z</time>
      </trkpt>
      <trkpt lat="47.36631" lon="-1.41763">
        <ele>110</ele>
        <time>2021-07-16T08:59:57.000Z</time>
      </trkpt>
      <trkpt lat="47.36629" lon="-1.41747">
        <ele>110</ele>
        <time>2021-07-16T08:59:59.000Z</time>
      </trkpt>
      <trkpt lat="47.36628" lon="-1.41732">
        <ele>110</ele>
        <time>2021-07-16T09:00:01.000Z</time>
      </trkpt>
      <trkpt lat="47.36627" lon="-1.41716">
        <ele>110</ele>
        <time>2021-07-16T09:00:03.000Z</time>
      </trkpt>
      <trkpt lat="47.36626" lon="-1.417">
        <ele>110</ele>
        <time>2021-07-16T09:00:05.000Z</time>
      </trkpt>
      <trkpt lat="47.36626" lon="-1.41685">
        <ele>110</ele>
        <time>2021-07-16T09:00:07.000Z</time>
      </trkpt>
      <trkpt lat="47.36625" lon="-1.41669">
        <ele>110</ele>
        <time>2021-07-16T09:00:09.000Z</time>
      </trkpt>
      <trkpt lat="47.36625" lon="-1.41653">
        <ele>110</ele>
        <time>2021-07-16T09:00:11.000Z</time>
      </trkpt>
      <trkpt lat="47.36625" lon="-1.41637">
        <ele>110</ele>
        <time>2021-07-16T09:00:13.000Z</time>
      </trkpt>
      <trkpt lat="47.36625" lon="-1.41621">
        <ele>111</ele>
        <time>2021-07-16T09:00:15.000Z</time>
      </trkpt>
      <trkpt lat="47.36626" lon="-1.41604">
        <ele>111</ele>
        <time>2021-07-16T09:00:17.000Z</time>
      </trkpt>
      <trkpt lat="47.36627" lon="-1.41588">
        <ele>111</ele>
        <time>2021-07-16T09:00:19.000Z</time>
      </trkpt>
      <trkpt lat="47.36628" lon="-1.41573">
        <ele>111</ele>
        <time>2021-07-16T09:00:21.000Z</time>
      </trkpt>
      <trkpt lat="47.36628" lon="-1.41557">
        <ele>111</ele>
        <time>2021-07-16T09:00:23.000Z</time>
      </trkpt>
      <trkpt lat="47.36629" lon="-1.41541">
        <ele>111</ele>
        <time>2021-07-16T09:00:25.000Z</time>
      </trkpt>
      <trkpt lat="47.36634" lon="-1.41525">
        <ele>111</ele>
        <time>2021-07-16T09:00:27.000Z</time>
      </trkpt>
      <trkpt lat="47.36639" lon="-1.4151">
        <ele>111</ele>
        <time>2021-07-16T09:00:29.000Z</time>
      </trkpt>
      <trkpt lat="47.36642" lon="-1.41495">
        <ele>111</ele>
        <time>2021-07-16T09:00:31.000Z</time>
      </trkpt>
      <trkpt lat="47.36646" lon="-1.41478">
        <ele>111</ele>
        <time>2021-07-16T09:00:33.000Z</time>
      </trkpt>
      <trkpt lat="47.36651" lon="-1.41462">
        <ele>111</ele>
        <time>2021-07-16T09:00:35.000Z</time>
      </trkpt>
      <trkpt lat="47.36656" lon="-1.41446">
        <ele>111</ele>
        <time>2021-07-16T09:00:37.000Z</time>
      </trkpt>
      <trkpt lat="47.36661" lon="-1.4143">
        <ele>111</ele>
        <time>2021-07-16T09:00:39.000Z</time>
      </trkpt>
      <trkpt lat="47.36667" lon="-1.41415">
        <ele>111</ele>
        <time>2021-07-16T09:00:41.000Z</time>
      </trkpt>
      <trkpt lat="47.36672" lon="-1.414">
        <ele>112</ele>
        <time>2021-07-16T09:00:43.000Z</time>
      </trkpt>
      <trkpt lat="47.36677" lon="-1.41385">
        <ele>112</ele>
        <time>2021-07-16T09:00:45.000Z</time>
      </trkpt>
      <trkpt lat="47.36683" lon="-1.4137">
        <ele>112</ele>
        <time>2021-07-16T09:00:47.000Z</time>
      </trkpt>
      <trkpt lat="47.36688" lon="-1.41354">
        <ele>111</ele>
        <time>2021-07-16T09:00:49.000Z</time>
      </trkpt>
      <trkpt lat="47.36694" lon="-1.41339">
        <ele>111</ele>
        <time>2021-07-16T09:00:51.000Z</time>
      </trkpt>
      <trkpt lat="47.36699" lon="-1.41323">
        <ele>111</ele>
        <time>2021-07-16T09:00:53.000Z</time>
      </trkpt>
      <trkpt lat="47.36704" lon="-1.41309">
        <ele>111</ele>
        <time>2021-07-16T09:00:55.000Z</time>
      </trkpt>
      <trkpt lat="47.3671" lon="-1.41294">
        <ele>111</ele>
        <time>2021-07-16T09:00:57.000Z</time>
      </trkpt>
      <trkpt lat="47.36716" lon="-1.4128">
        <ele>111</ele>
        <time>2021-07-16T09:00:59.000Z</time>
      </trkpt>
      <trkpt lat="47.36722" lon="-1.41264">
        <ele>111</ele>
        <time>2021-07-16T09:01:01.000Z</time>
      </trkpt>
      <trkpt lat="47.36727" lon="-1.41249">
        <ele>110</ele>
        <time>2021-07-16T09:01:03.000Z</time>
      </trkpt>
      <trkpt lat="47.36733" lon="-1.41234">
        <ele>110</ele>
        <time>2021-07-16T09:01:05.000Z</time>
      </trkpt>
      <trkpt lat="47.36738" lon="-1.41218">
        <ele>110</ele>
        <time>2021-07-16T09:01:07.000Z</time>
      </trkpt>
      <trkpt lat="47.36741" lon="-1.41201">
        <ele>109</ele>
        <time>2021-07-16T09:01:09.000Z</time>
      </trkpt>
      <trkpt lat="47.36742" lon="-1.41182">
        <ele>109</ele>
        <time>2021-07-16T09:01:11.000Z</time>
      </trkpt>
      <trkpt lat="47.36741" lon="-1.41164">
        <ele>108</ele>
        <time>2021-07-16T09:01:13.000Z</time>
      </trkpt>
      <trkpt lat="47.36737" lon="-1.41146">
        <ele>108</ele>
        <time>2021-07-16T09:01:15.000Z</time>
      </trkpt>
      <trkpt lat="47.36734" lon="-1.41129">
        <ele>108</ele>
        <time>2021-07-16T09:01:17.000Z</time>
      </trkpt>
      <trkpt lat="47.3673" lon="-1.41111">
        <ele>107</ele>
        <time>2021-07-16T09:01:19.000Z</time>
      </trkpt>
      <trkpt lat="47.36725" lon="-1.41094">
        <ele>107</ele>
        <time>2021-07-16T09:01:21.000Z</time>
      </trkpt>
      <trkpt lat="47.3672" lon="-1.41076">
        <ele>106</ele>
        <time>2021-07-16T09:01:23.000Z</time>
      </trkpt>
      <trkpt lat="47.36716" lon="-1.41057">
        <ele>106</ele>
        <time>2021-07-16T09:01:25.000Z</time>
      </trkpt>
      <trkpt lat="47.36712" lon="-1.41041">
        <ele>105</ele>
        <time>2021-07-16T09:01:27.000Z</time>
      </trkpt>
      <trkpt lat="47.36707" lon="-1.41023">
        <ele>105</ele>
        <time>2021-07-16T09:01:29.000Z</time>
      </trkpt>
      <trkpt lat="47.36702" lon="-1.41005">
        <ele>105</ele>
        <time>2021-07-16T09:01:31.000Z</time>
      </trkpt>
      <trkpt lat="47.36698" lon="-1.40989">
        <ele>105</ele>
        <time>2021-07-16T09:01:33.000Z</time>
      </trkpt>
      <trkpt lat="47.36695" lon="-1.40972">
        <ele>106</ele>
        <time>2021-07-16T09:01:35.000Z</time>
      </trkpt>
      <trkpt lat="47.36692" lon="-1.40956">
        <ele>106</ele>
        <time>2021-07-16T09:01:37.000Z</time>
      </trkpt>
      <trkpt lat="47.3669" lon="-1.40941">
        <ele>106</ele>
        <time>2021-07-16T09:01:39.000Z</time>
      </trkpt>
      <trkpt lat="47.36689" lon="-1.40924">
        <ele>107</ele>
        <time>2021-07-16T09:01:41.000Z</time>
      </trkpt>
      <trkpt lat="47.36689" lon="-1.40908">
        <ele>107</ele>
        <time>2021-07-16T09:01:43.000Z</time>
      </trkpt>
      <trkpt lat="47.36689" lon="-1.40891">
        <ele>107</ele>
        <time>2021-07-16T09:01:45.000Z</time>
      </trkpt>
      <trkpt lat="47.36689" lon="-1.40873">
        <ele>107</ele>
        <time>2021-07-16T09:01:47.000Z</time>
      </trkpt>
      <trkpt lat="47.36689" lon="-1.40857">
        <ele>108</ele>
        <time>2021-07-16T09:01:49.000Z</time>
      </trkpt>
      <trkpt lat="47.3669" lon="-1.4084">
        <ele>108</ele>
        <time>2021-07-16T09:01:51.000Z</time>
      </trkpt>
      <trkpt lat="47.3669" lon="-1.40823">
        <ele>108</ele>
        <time>2021-07-16T09:01:53.000Z</time>
      </trkpt>
      <trkpt lat="47.36691" lon="-1.40807">
        <ele>108</ele>
        <time>2021-07-16T09:01:55.000Z</time>
      </trkpt>
      <trkpt lat="47.36692" lon="-1.40791">
        <ele>108</ele>
        <time>2021-07-16T09:01:57.000Z</time>
      </trkpt>
      <trkpt lat="47.36692" lon="-1.40774">
        <ele>108</ele>
        <time>2021-07-16T09:01:59.000Z</time>
      </trkpt>
      <trkpt lat="47.36692" lon="-1.40758">
        <ele>108</ele>
        <time>2021-07-16T09:02:01.000Z</time>
      </trkpt>
      <trkpt lat="47.36693" lon="-1.40741">
        <ele>108</ele>
        <time>2021-07-16T09:02:03.000Z</time>
      </trkpt>
      <trkpt lat="47.36694" lon="-1.40725">
        <ele>108</ele>
        <time>2021-07-16T09:02:05.000Z</time>
      </trkpt>
      <trkpt lat="47.36694" lon="-1.40708">
        <ele>107</ele>
        <time>2021-07-16T09:02:07.000Z</time>
      </trkpt>
      <trkpt lat="47.36694" lon="-1.4069">
        <ele>107</ele>
        <time>2021-07-16T09:02:09.000Z</time>
      </trkpt>
      <trkpt lat="47.36694" lon="-1.40671">
        <ele>107</ele>
        <time>2021-07-16T09:02:11.000Z</time>
      </trkpt>
      <trkpt lat="47.36695" lon="-1.40653">
        <ele>107</ele>
        <time>2021-07-16T09:02:13.000Z</time>
      </trkpt>
      <trkpt lat="47.36696" lon="-1.40635">
        <ele>107</ele>
        <time>2021-07-16T09:02:15.000Z</time>
      </trkpt>
      <trkpt lat="47.36696" lon="-1.40617">
        <ele>106</ele>
        <time>2021-07-16T09:02:17.000Z</time>
      </trkpt>
      <trkpt lat="47.36696" lon="-1.40598">
        <ele>106</ele>
        <time>2021-07-16T09:02:19.000Z</time>
      </trkpt>
      <trkpt lat="47.36697" lon="-1.4058">
        <ele>106</ele>
        <time>2021-07-16T09:02:21.000Z</time>
      </trkpt>
      <trkpt lat="47.36697" lon="-1.4056">
        <ele>105</ele>
        <time>2021-07-16T09:02:23.000Z</time>
      </trkpt>
      <trkpt lat="47.36696" lon="-1.40541">
        <ele>105</ele>
        <time>2021-07-16T09:02:25.000Z</time>
      </trkpt>
      <trkpt lat="47.36695" lon="-1.40524">
        <ele>105</ele>
        <time>2021-07-16T09:02:28.000Z</time>
      </trkpt>
      <trkpt lat="47.36706" lon="-1.40514">
        <ele>104</ele>
        <time>2021-07-16T09:02:31.000Z</time>
      </trkpt>
      <trkpt lat="47.36717" lon="-1.40512">
        <ele>104</ele>
        <time>2021-07-16T09:02:33.000Z</time>
      </trkpt>
      <trkpt lat="47.36725" lon="-1.40502">
        <ele>105</ele>
        <time>2021-07-16T09:02:35.000Z</time>
      </trkpt>
      <trkpt lat="47.36728" lon="-1.40484">
        <ele>105</ele>
        <time>2021-07-16T09:02:37.000Z</time>
      </trkpt>
      <trkpt lat="47.36729" lon="-1.40466">
        <ele>105</ele>
        <time>2021-07-16T09:02:39.000Z</time>
      </trkpt>
      <trkpt lat="47.3673" lon="-1.40448">
        <ele>104</ele>
        <time>2021-07-16T09:02:41.000Z</time>
      </trkpt>
      <trkpt lat="47.36731" lon="-1.40429">
        <ele>104</ele>
        <time>2021-07-16T09:02:43.000Z</time>
      </trkpt>
      <trkpt lat="47.36734" lon="-1.4041">
        <ele>103</ele>
        <time>2021-07-16T09:02:45.000Z</time>
      </trkpt>
      <trkpt lat="47.36736" lon="-1.40391">
        <ele>103</ele>
        <time>2021-07-16T09:02:47.000Z</time>
      </trkpt>
      <trkpt lat="47.36739" lon="-1.40371">
        <ele>103</ele>
        <time>2021-07-16T09:02:49.000Z</time>
      </trkpt>
      <trkpt lat="47.36742" lon="-1.40352">
        <ele>102</ele>
        <time>2021-07-16T09:02:51.000Z</time>
      </trkpt>
      <trkpt lat="47.36746" lon="-1.40331">
        <ele>101</ele>
        <time>2021-07-16T09:02:53.000Z</time>
      </trkpt>
      <trkpt lat="47.36749" lon="-1.40313">
        <ele>100</ele>
        <time>2021-07-16T09:02:55.000Z</time>
      </trkpt>
      <trkpt lat="47.36752" lon="-1.40294">
        <ele>100</ele>
        <time>2021-07-16T09:02:57.000Z</time>
      </trkpt>
      <trkpt lat="47.36755" lon="-1.40275">
        <ele>100</ele>
        <time>2021-07-16T09:02:59.000Z</time>
      </trkpt>
      <trkpt lat="47.36757" lon="-1.40256">
        <ele>99</ele>
        <time>2021-07-16T09:03:01.000Z</time>
      </trkpt>
      <trkpt lat="47.3676" lon="-1.40237">
        <ele>99</ele>
        <time>2021-07-16T09:03:03.000Z</time>
      </trkpt>
      <trkpt lat="47.36761" lon="-1.40218">
        <ele>99</ele>
        <time>2021-07-16T09:03:05.000Z</time>
      </trkpt>
      <trkpt lat="47.36762" lon="-1.40199">
        <ele>99</ele>
        <time>2021-07-16T09:03:07.000Z</time>
      </trkpt>
      <trkpt lat="47.36761" lon="-1.40179">
        <ele>100</ele>
        <time>2021-07-16T09:03:09.000Z</time>
      </trkpt>
      <trkpt lat="47.36761" lon="-1.40158">
        <ele>100</ele>
        <time>2021-07-16T09:03:11.000Z</time>
      </trkpt>
      <trkpt lat="47.36761" lon="-1.40138">
        <ele>100</ele>
        <time>2021-07-16T09:03:13.000Z</time>
      </trkpt>
      <trkpt lat="47.3676" lon="-1.40117">
        <ele>100</ele>
        <time>2021-07-16T09:03:15.000Z</time>
      </trkpt>
      <trkpt lat="47.3676" lon="-1.40099">
        <ele>100</ele>
        <time>2021-07-16T09:03:17.000Z</time>
      </trkpt>
      <trkpt lat="47.3676" lon="-1.40083">
        <ele>101</ele>
        <time>2021-07-16T09:03:19.000Z</time>
      </trkpt>
      <trkpt lat="47.36761" lon="-1.40068">
        <ele>101</ele>
        <time>2021-07-16T09:03:21.000Z</time>
      </trkpt>
      <trkpt lat="47.36761" lon="-1.40053">
        <ele>101</ele>
        <time>2021-07-16T09:03:23.000Z</time>
      </trkpt>
      <trkpt lat="47.36762" lon="-1.40039">
        <ele>101</ele>
        <time>2021-07-16T09:03:25.000Z</time>
      </trkpt>
      <trkpt lat="47.36762" lon="-1.40023">
        <ele>101</ele>
        <time>2021-07-16T09:03:27.000Z</time>
      </trkpt>
      <trkpt lat="47.36762" lon="-1.40006">
        <ele>102</ele>
        <time>2021-07-16T09:03:29.000Z</time>
      </trkpt>
      <trkpt lat="47.36762" lon="-1.39989">
        <ele>103</ele>
        <time>2021-07-16T09:03:31.000Z</time>
      </trkpt>
      <trkpt lat="47.36763" lon="-1.39974">
        <ele>103</ele>
        <time>2021-07-16T09:03:33.000Z</time>
      </trkpt>
      <trkpt lat="47.36763" lon="-1.39957">
        <ele>104</ele>
        <time>2021-07-16T09:03:35.000Z</time>
      </trkpt>
      <trkpt lat="47.36763" lon="-1.39942">
        <ele>105</ele>
        <time>2021-07-16T09:03:37.000Z</time>
      </trkpt>
      <trkpt lat="47.36764" lon="-1.39928">
        <ele>105</ele>
        <time>2021-07-16T09:03:39.000Z</time>
      </trkpt>
      <trkpt lat="47.36763" lon="-1.39913">
        <ele>106</ele>
        <time>2021-07-16T09:03:41.000Z</time>
      </trkpt>
      <trkpt lat="47.36763" lon="-1.39899">
        <ele>106</ele>
        <time>2021-07-16T09:03:43.000Z</time>
      </trkpt>
      <trkpt lat="47.36763" lon="-1.39885">
        <ele>107</ele>
        <time>2021-07-16T09:03:45.000Z</time>
      </trkpt>
      <trkpt lat="47.36763" lon="-1.39869">
        <ele>107</ele>
        <time>2021-07-16T09:03:47.000Z</time>
      </trkpt>
      <trkpt lat="47.36763" lon="-1.39853">
        <ele>107</ele>
        <time>2021-07-16T09:03:49.000Z</time>
      </trkpt>
      <trkpt lat="47.36764" lon="-1.39837">
        <ele>108</ele>
        <time>2021-07-16T09:03:51.000Z</time>
      </trkpt>
      <trkpt lat="47.36763" lon="-1.39822">
        <ele>108</ele>
        <time>2021-07-16T09:03:53.000Z</time>
      </trkpt>
      <trkpt lat="47.36763" lon="-1.39807">
        <ele>109</ele>
        <time>2021-07-16T09:03:55.000Z</time>
      </trkpt>
      <trkpt lat="47.36763" lon="-1.39792">
        <ele>109</ele>
        <time>2021-07-16T09:03:57.000Z</time>
      </trkpt>
      <trkpt lat="47.36764" lon="-1.39777">
        <ele>109</ele>
        <time>2021-07-16T09:03:59.000Z</time>
      </trkpt>
      <trkpt lat="47.36763" lon="-1.39762">
        <ele>108</ele>
        <time>2021-07-16T09:04:01.000Z</time>
      </trkpt>
      <trkpt lat="47.36763" lon="-1.39746">
        <ele>108</ele>
        <time>2021-07-16T09:04:03.000Z</time>
      </trkpt>
      <trkpt lat="47.36764" lon="-1.3973">
        <ele>108</ele>
        <time>2021-07-16T09:04:05.000Z</time>
      </trkpt>
      <trkpt lat="47.36764" lon="-1.39714">
        <ele>109</ele>
        <time>2021-07-16T09:04:07.000Z</time>
      </trkpt>
      <trkpt lat="47.36764" lon="-1.39697">
        <ele>109</ele>
        <time>2021-07-16T09:04:09.000Z</time>
      </trkpt>
      <trkpt lat="47.36765" lon="-1.39681">
        <ele>109</ele>
        <time>2021-07-16T09:04:11.000Z</time>
      </trkpt>
      <trkpt lat="47.36765" lon="-1.39667">
        <ele>109</ele>
        <time>2021-07-16T09:04:13.000Z</time>
      </trkpt>
      <trkpt lat="47.36765" lon="-1.39651">
        <ele>109</ele>
        <time>2021-07-16T09:04:15.000Z</time>
      </trkpt>
      <trkpt lat="47.36765" lon="-1.39635">
        <ele>109</ele>
        <time>2021-07-16T09:04:17.000Z</time>
      </trkpt>
      <trkpt lat="47.36765" lon="-1.39619">
        <ele>110</ele>
        <time>2021-07-16T09:04:19.000Z</time>
      </trkpt>
      <trkpt lat="47.36765" lon="-1.39603">
        <ele>110</ele>
        <time>2021-07-16T09:04:21.000Z</time>
      </trkpt>
      <trkpt lat="47.36765" lon="-1.39587">
        <ele>111</ele>
        <time>2021-07-16T09:04:23.000Z</time>
      </trkpt>
      <trkpt lat="47.36765" lon="-1.3957">
        <ele>111</ele>
        <time>2021-07-16T09:04:25.000Z</time>
      </trkpt>
      <trkpt lat="47.36765" lon="-1.39554">
        <ele>110</ele>
        <time>2021-07-16T09:04:27.000Z</time>
      </trkpt>
      <trkpt lat="47.36764" lon="-1.39537">
        <ele>111</ele>
        <time>2021-07-16T09:04:29.000Z</time>
      </trkpt>
      <trkpt lat="47.36764" lon="-1.39519">
        <ele>110</ele>
        <time>2021-07-16T09:04:31.000Z</time>
      </trkpt>
      <trkpt lat="47.36765" lon="-1.39502">
        <ele>111</ele>
        <time>2021-07-16T09:04:33.000Z</time>
      </trkpt>
      <trkpt lat="47.36765" lon="-1.39485">
        <ele>111</ele>
        <time>2021-07-16T09:04:35.000Z</time>
      </trkpt>
      <trkpt lat="47.36764" lon="-1.39467">
        <ele>110</ele>
        <time>2021-07-16T09:04:37.000Z</time>
      </trkpt>
      <trkpt lat="47.36765" lon="-1.39449">
        <ele>110</ele>
        <time>2021-07-16T09:04:39.000Z</time>
      </trkpt>
      <trkpt lat="47.36765" lon="-1.39432">
        <ele>110</ele>
        <time>2021-07-16T09:04:41.000Z</time>
      </trkpt>
      <trkpt lat="47.36766" lon="-1.39415">
        <ele>110</ele>
        <time>2021-07-16T09:04:43.000Z</time>
      </trkpt>
      <trkpt lat="47.36766" lon="-1.39399">
        <ele>110</ele>
        <time>2021-07-16T09:04:45.000Z</time>
      </trkpt>
      <trkpt lat="47.36766" lon="-1.39382">
        <ele>111</ele>
        <time>2021-07-16T09:04:47.000Z</time>
      </trkpt>
      <trkpt lat="47.36766" lon="-1.39366">
        <ele>111</ele>
        <time>2021-07-16T09:04:49.000Z</time>
      </trkpt>
      <trkpt lat="47.36765" lon="-1.3935">
        <ele>110</ele>
        <time>2021-07-16T09:04:51.000Z</time>
      </trkpt>
      <trkpt lat="47.36764" lon="-1.39333">
        <ele>110</ele>
        <time>2021-07-16T09:04:53.000Z</time>
      </trkpt>
      <trkpt lat="47.36761" lon="-1.39316">
        <ele>111</ele>
        <time>2021-07-16T09:04:55.000Z</time>
      </trkpt>
      <trkpt lat="47.36759" lon="-1.393">
        <ele>111</ele>
        <time>2021-07-16T09:04:57.000Z</time>
      </trkpt>
      <trkpt lat="47.36755" lon="-1.39285">
        <ele>111</ele>
        <time>2021-07-16T09:04:59.000Z</time>
      </trkpt>
      <trkpt lat="47.3675" lon="-1.39269">
        <ele>111</ele>
        <time>2021-07-16T09:05:01.000Z</time>
      </trkpt>
      <trkpt lat="47.36744" lon="-1.39255">
        <ele>111</ele>
        <time>2021-07-16T09:05:03.000Z</time>
      </trkpt>
      <trkpt lat="47.36738" lon="-1.39241">
        <ele>111</ele>
        <time>2021-07-16T09:05:05.000Z</time>
      </trkpt>
      <trkpt lat="47.36731" lon="-1.39227">
        <ele>112</ele>
        <time>2021-07-16T09:05:07.000Z</time>
      </trkpt>
      <trkpt lat="47.36725" lon="-1.39213">
        <ele>112</ele>
        <time>2021-07-16T09:05:09.000Z</time>
      </trkpt>
      <trkpt lat="47.36718" lon="-1.392">
        <ele>111</ele>
        <time>2021-07-16T09:05:11.000Z</time>
      </trkpt>
      <trkpt lat="47.36712" lon="-1.39186">
        <ele>112</ele>
        <time>2021-07-16T09:05:13.000Z</time>
      </trkpt>
      <trkpt lat="47.36705" lon="-1.39172">
        <ele>112</ele>
        <time>2021-07-16T09:05:15.000Z</time>
      </trkpt>
      <trkpt lat="47.36699" lon="-1.39158">
        <ele>113</ele>
        <time>2021-07-16T09:05:17.000Z</time>
      </trkpt>
      <trkpt lat="47.36692" lon="-1.39144">
        <ele>113</ele>
        <time>2021-07-16T09:05:19.000Z</time>
      </trkpt>
      <trkpt lat="47.36685" lon="-1.3913">
        <ele>113</ele>
        <time>2021-07-16T09:05:21.000Z</time>
      </trkpt>
      <trkpt lat="47.36679" lon="-1.39116">
        <ele>113</ele>
        <time>2021-07-16T09:05:23.000Z</time>
      </trkpt>
      <trkpt lat="47.36672" lon="-1.39102">
        <ele>113</ele>
        <time>2021-07-16T09:05:25.000Z</time>
      </trkpt>
      <trkpt lat="47.36665" lon="-1.39088">
        <ele>114</ele>
        <time>2021-07-16T09:05:27.000Z</time>
      </trkpt>
      <trkpt lat="47.36658" lon="-1.39074">
        <ele>114</ele>
        <time>2021-07-16T09:05:29.000Z</time>
      </trkpt>
      <trkpt lat="47.36651" lon="-1.3906">
        <ele>114</ele>
        <time>2021-07-16T09:05:31.000Z</time>
      </trkpt>
      <trkpt lat="47.36645" lon="-1.39046">
        <ele>114</ele>
        <time>2021-07-16T09:05:33.000Z</time>
      </trkpt>
      <trkpt lat="47.36638" lon="-1.39032">
        <ele>114</ele>
        <time>2021-07-16T09:05:35.000Z</time>
      </trkpt>
      <trkpt lat="47.36631" lon="-1.39017">
        <ele>114</ele>
        <time>2021-07-16T09:05:37.000Z</time>
      </trkpt>
      <trkpt lat="47.36624" lon="-1.39003">
        <ele>114</ele>
        <time>2021-07-16T09:05:39.000Z</time>
      </trkpt>
      <trkpt lat="47.36617" lon="-1.38989">
        <ele>114</ele>
        <time>2021-07-16T09:05:41.000Z</time>
      </trkpt>
      <trkpt lat="47.3661" lon="-1.38974">
        <ele>114</ele>
        <time>2021-07-16T09:05:43.000Z</time>
      </trkpt>
      <trkpt lat="47.36604" lon="-1.38961">
        <ele>115</ele>
        <time>2021-07-16T09:05:45.000Z</time>
      </trkpt>
      <trkpt lat="47.36598" lon="-1.38949">
        <ele>115</ele>
        <time>2021-07-16T09:05:47.000Z</time>
      </trkpt>
      <trkpt lat="47.36592" lon="-1.38937">
        <ele>115</ele>
        <time>2021-07-16T09:05:49.000Z</time>
      </trkpt>
      <trkpt lat="47.36586" lon="-1.38925">
        <ele>116</ele>
        <time>2021-07-16T09:05:51.000Z</time>
      </trkpt>
      <trkpt lat="47.36579" lon="-1.38911">
        <ele>116</ele>
        <time>2021-07-16T09:05:53.000Z</time>
      </trkpt>
      <trkpt lat="47.36572" lon="-1.38896">
        <ele>115</ele>
        <time>2021-07-16T09:05:55.000Z</time>
      </trkpt>
      <trkpt lat="47.36565" lon="-1.3888">
        <ele>115</ele>
        <time>2021-07-16T09:05:57.000Z</time>
      </trkpt>
      <trkpt lat="47.36558" lon="-1.38866">
        <ele>115</ele>
        <time>2021-07-16T09:05:59.000Z</time>
      </trkpt>
      <trkpt lat="47.36551" lon="-1.38852">
        <ele>116</ele>
        <time>2021-07-16T09:06:01.000Z</time>
      </trkpt>
      <trkpt lat="47.36544" lon="-1.38837">
        <ele>116</ele>
        <time>2021-07-16T09:06:03.000Z</time>
      </trkpt>
      <trkpt lat="47.36537" lon="-1.38823">
        <ele>117</ele>
        <time>2021-07-16T09:06:05.000Z</time>
      </trkpt>
      <trkpt lat="47.3653" lon="-1.38809">
        <ele>117</ele>
        <time>2021-07-16T09:06:07.000Z</time>
      </trkpt>
      <trkpt lat="47.36523" lon="-1.38794">
        <ele>117</ele>
        <time>2021-07-16T09:06:09.000Z</time>
      </trkpt>
      <trkpt lat="47.36516" lon="-1.3878">
        <ele>118</ele>
        <time>2021-07-16T09:06:11.000Z</time>
      </trkpt>
      <trkpt lat="47.3651" lon="-1.38766">
        <ele>118</ele>
        <time>2021-07-16T09:06:13.000Z</time>
      </trkpt>
      <trkpt lat="47.36504" lon="-1.38753">
        <ele>119</ele>
        <time>2021-07-16T09:06:15.000Z</time>
      </trkpt>
      <trkpt lat="47.36497" lon="-1.38738">
        <ele>119</ele>
        <time>2021-07-16T09:06:17.000Z</time>
      </trkpt>
      <trkpt lat="47.36491" lon="-1.38725">
        <ele>119</ele>
        <time>2021-07-16T09:06:19.000Z</time>
      </trkpt>
      <trkpt lat="47.36484" lon="-1.3871">
        <ele>120</ele>
        <time>2021-07-16T09:06:21.000Z</time>
      </trkpt>
      <trkpt lat="47.36476" lon="-1.38696">
        <ele>119</ele>
        <time>2021-07-16T09:06:23.000Z</time>
      </trkpt>
      <trkpt lat="47.36469" lon="-1.38681">
        <ele>119</ele>
        <time>2021-07-16T09:06:25.000Z</time>
      </trkpt>
      <trkpt lat="47.36463" lon="-1.38666">
        <ele>118</ele>
        <time>2021-07-16T09:06:27.000Z</time>
      </trkpt>
      <trkpt lat="47.36456" lon="-1.38652">
        <ele>118</ele>
        <time>2021-07-16T09:06:29.000Z</time>
      </trkpt>
      <trkpt lat="47.36449" lon="-1.38637">
        <ele>118</ele>
        <time>2021-07-16T09:06:31.000Z</time>
      </trkpt>
      <trkpt lat="47.36442" lon="-1.38622">
        <ele>118</ele>
        <time>2021-07-16T09:06:33.000Z</time>
      </trkpt>
      <trkpt lat="47.36435" lon="-1.38606">
        <ele>117</ele>
        <time>2021-07-16T09:06:35.000Z</time>
      </trkpt>
      <trkpt lat="47.36428" lon="-1.38592">
        <ele>117</ele>
        <time>2021-07-16T09:06:37.000Z</time>
      </trkpt>
      <trkpt lat="47.36421" lon="-1.38578">
        <ele>117</ele>
        <time>2021-07-16T09:06:39.000Z</time>
      </trkpt>
      <trkpt lat="47.36414" lon="-1.38564">
        <ele>117</ele>
        <time>2021-07-16T09:06:41.000Z</time>
      </trkpt>
      <trkpt lat="47.36406" lon="-1.38551">
        <ele>117</ele>
        <time>2021-07-16T09:06:43.000Z</time>
      </trkpt>
      <trkpt lat="47.36398" lon="-1.38538">
        <ele>117</ele>
        <time>2021-07-16T09:06:45.000Z</time>
      </trkpt>
      <trkpt lat="47.36389" lon="-1.38525">
        <ele>117</ele>
        <time>2021-07-16T09:06:47.000Z</time>
      </trkpt>
      <trkpt lat="47.36381" lon="-1.38513">
        <ele>117</ele>
        <time>2021-07-16T09:06:49.000Z</time>
      </trkpt>
      <trkpt lat="47.36372" lon="-1.38501">
        <ele>117</ele>
        <time>2021-07-16T09:06:51.000Z</time>
      </trkpt>
      <trkpt lat="47.36363" lon="-1.38488">
        <ele>117</ele>
        <time>2021-07-16T09:06:53.000Z</time>
      </trkpt>
      <trkpt lat="47.36355" lon="-1.38476">
        <ele>117</ele>
        <time>2021-07-16T09:06:55.000Z</time>
      </trkpt>
      <trkpt lat="47.36346" lon="-1.38462">
        <ele>117</ele>
        <time>2021-07-16T09:06:57.000Z</time>
      </trkpt>
      <trkpt lat="47.36338" lon="-1.38449">
        <ele>117</ele>
        <time>2021-07-16T09:06:59.000Z</time>
      </trkpt>
      <trkpt lat="47.36329" lon="-1.38436">
        <ele>117</ele>
        <time>2021-07-16T09:07:01.000Z</time>
      </trkpt>
      <trkpt lat="47.3632" lon="-1.38422">
        <ele>117</ele>
        <time>2021-07-16T09:07:03.000Z</time>
      </trkpt>
      <trkpt lat="47.36311" lon="-1.38409">
        <ele>117</ele>
        <time>2021-07-16T09:07:05.000Z</time>
      </trkpt>
      <trkpt lat="47.36303" lon="-1.38396">
        <ele>117</ele>
        <time>2021-07-16T09:07:07.000Z</time>
      </trkpt>
      <trkpt lat="47.36294" lon="-1.38383">
        <ele>117</ele>
        <time>2021-07-16T09:07:09.000Z</time>
      </trkpt>
      <trkpt lat="47.36285" lon="-1.3837">
        <ele>117</ele>
        <time>2021-07-16T09:07:11.000Z</time>
      </trkpt>
      <trkpt lat="47.36277" lon="-1.38357">
        <ele>117</ele>
        <time>2021-07-16T09:07:13.000Z</time>
      </trkpt>
      <trkpt lat="47.36268" lon="-1.38344">
        <ele>116</ele>
        <time>2021-07-16T09:07:15.000Z</time>
      </trkpt>
      <trkpt lat="47.36259" lon="-1.38331">
        <ele>116</ele>
        <time>2021-07-16T09:07:17.000Z</time>
      </trkpt>
      <trkpt lat="47.3625" lon="-1.38318">
        <ele>116</ele>
        <time>2021-07-16T09:07:19.000Z</time>
      </trkpt>
      <trkpt lat="47.36242" lon="-1.38304">
        <ele>116</ele>
        <time>2021-07-16T09:07:21.000Z</time>
      </trkpt>
      <trkpt lat="47.36233" lon="-1.3829">
        <ele>116</ele>
        <time>2021-07-16T09:07:23.000Z</time>
      </trkpt>
      <trkpt lat="47.36225" lon="-1.38277">
        <ele>116</ele>
        <time>2021-07-16T09:07:25.000Z</time>
      </trkpt>
      <trkpt lat="47.36211" lon="-1.38258">
        <ele>116</ele>
        <time>2021-07-16T09:07:28.000Z</time>
      </trkpt>
      <trkpt lat="47.36203" lon="-1.38246">
        <ele>116</ele>
        <time>2021-07-16T09:07:30.000Z</time>
      </trkpt>
      <trkpt lat="47.36195" lon="-1.38233">
        <ele>116</ele>
        <time>2021-07-16T09:07:32.000Z</time>
      </trkpt>
      <trkpt lat="47.36182" lon="-1.38214">
        <ele>116</ele>
        <time>2021-07-16T09:07:35.000Z</time>
      </trkpt>
      <trkpt lat="47.36173" lon="-1.38201">
        <ele>117</ele>
        <time>2021-07-16T09:07:37.000Z</time>
      </trkpt>
      <trkpt lat="47.36165" lon="-1.38189">
        <ele>117</ele>
        <time>2021-07-16T09:07:39.000Z</time>
      </trkpt>
      <trkpt lat="47.36157" lon="-1.38176">
        <ele>117</ele>
        <time>2021-07-16T09:07:41.000Z</time>
      </trkpt>
      <trkpt lat="47.36148" lon="-1.38164">
        <ele>117</ele>
        <time>2021-07-16T09:07:43.000Z</time>
      </trkpt>
      <trkpt lat="47.36136" lon="-1.38145">
        <ele>118</ele>
        <time>2021-07-16T09:07:46.000Z</time>
      </trkpt>
      <trkpt lat="47.36128" lon="-1.38133">
        <ele>118</ele>
        <time>2021-07-16T09:07:48.000Z</time>
      </trkpt>
      <trkpt lat="47.3612" lon="-1.38121">
        <ele>118</ele>
        <time>2021-07-16T09:07:50.000Z</time>
      </trkpt>
      <trkpt lat="47.36111" lon="-1.3811">
        <ele>118</ele>
        <time>2021-07-16T09:07:52.000Z</time>
      </trkpt>
      <trkpt lat="47.36103" lon="-1.38098">
        <ele>118</ele>
        <time>2021-07-16T09:07:54.000Z</time>
      </trkpt>
      <trkpt lat="47.36095" lon="-1.38086">
        <ele>118</ele>
        <time>2021-07-16T09:07:56.000Z</time>
      </trkpt>
      <trkpt lat="47.36087" lon="-1.38073">
        <ele>119</ele>
        <time>2021-07-16T09:07:58.000Z</time>
      </trkpt>
      <trkpt lat="47.36079" lon="-1.38062">
        <ele>119</ele>
        <time>2021-07-16T09:08:00.000Z</time>
      </trkpt>
      <trkpt lat="47.36071" lon="-1.3805">
        <ele>119</ele>
        <time>2021-07-16T09:08:02.000Z</time>
      </trkpt>
      <trkpt lat="47.36063" lon="-1.38038">
        <ele>119</ele>
        <time>2021-07-16T09:08:04.000Z</time>
      </trkpt>
      <trkpt lat="47.36055" lon="-1.38026">
        <ele>119</ele>
        <time>2021-07-16T09:08:06.000Z</time>
      </trkpt>
      <trkpt lat="47.36047" lon="-1.38013">
        <ele>119</ele>
        <time>2021-07-16T09:08:08.000Z</time>
      </trkpt>
      <trkpt lat="47.36039" lon="-1.38001">
        <ele>119</ele>
        <time>2021-07-16T09:08:10.000Z</time>
      </trkpt>
      <trkpt lat="47.36031" lon="-1.37989">
        <ele>119</ele>
        <time>2021-07-16T09:08:12.000Z</time>
      </trkpt>
      <trkpt lat="47.36023" lon="-1.37977">
        <ele>120</ele>
        <time>2021-07-16T09:08:14.000Z</time>
      </trkpt>
      <trkpt lat="47.36015" lon="-1.37964">
        <ele>120</ele>
        <time>2021-07-16T09:08:16.000Z</time>
      </trkpt>
      <trkpt lat="47.36006" lon="-1.37952">
        <ele>120</ele>
        <time>2021-07-16T09:08:18.000Z</time>
      </trkpt>
      <trkpt lat="47.35998" lon="-1.3794">
        <ele>120</ele>
        <time>2021-07-16T09:08:20.000Z</time>
      </trkpt>
      <trkpt lat="47.3599" lon="-1.37928">
        <ele>120</ele>
        <time>2021-07-16T09:08:22.000Z</time>
      </trkpt>
      <trkpt lat="47.35982" lon="-1.37916">
        <ele>120</ele>
        <time>2021-07-16T09:08:24.000Z</time>
      </trkpt>
      <trkpt lat="47.35975" lon="-1.37904">
        <ele>121</ele>
        <time>2021-07-16T09:08:26.000Z</time>
      </trkpt>
      <trkpt lat="47.35966" lon="-1.37891">
        <ele>121</ele>
        <time>2021-07-16T09:08:28.000Z</time>
      </trkpt>
      <trkpt lat="47.35958" lon="-1.3788">
        <ele>121</ele>
        <time>2021-07-16T09:08:30.000Z</time>
      </trkpt>
      <trkpt lat="47.3595" lon="-1.37868">
        <ele>122</ele>
        <time>2021-07-16T09:08:32.000Z</time>
      </trkpt>
      <trkpt lat="47.35942" lon="-1.37856">
        <ele>122</ele>
        <time>2021-07-16T09:08:34.000Z</time>
      </trkpt>
      <trkpt lat="47.35935" lon="-1.37844">
        <ele>123</ele>
        <time>2021-07-16T09:08:36.000Z</time>
      </trkpt>
      <trkpt lat="47.35927" lon="-1.37832">
        <ele>123</ele>
        <time>2021-07-16T09:08:38.000Z</time>
      </trkpt>
      <trkpt lat="47.35919" lon="-1.3782">
        <ele>123</ele>
        <time>2021-07-16T09:08:40.000Z</time>
      </trkpt>
      <trkpt lat="47.35911" lon="-1.37808">
        <ele>124</ele>
        <time>2021-07-16T09:08:42.000Z</time>
      </trkpt>
      <trkpt lat="47.35903" lon="-1.37796">
        <ele>124</ele>
        <time>2021-07-16T09:08:44.000Z</time>
      </trkpt>
      <trkpt lat="47.35895" lon="-1.37784">
        <ele>124</ele>
        <time>2021-07-16T09:08:46.000Z</time>
      </trkpt>
      <trkpt lat="47.35887" lon="-1.37772">
        <ele>124</ele>
        <time>2021-07-16T09:08:48.000Z</time>
      </trkpt>
      <trkpt lat="47.35879" lon="-1.3776">
        <ele>124</ele>
        <time>2021-07-16T09:08:50.000Z</time>
      </trkpt>
      <trkpt lat="47.35871" lon="-1.37748">
        <ele>125</ele>
        <time>2021-07-16T09:08:52.000Z</time>
      </trkpt>
      <trkpt lat="47.35863" lon="-1.37735">
        <ele>125</ele>
        <time>2021-07-16T09:08:54.000Z</time>
      </trkpt>
      <trkpt lat="47.35855" lon="-1.37723">
        <ele>125</ele>
        <time>2021-07-16T09:08:56.000Z</time>
      </trkpt>
      <trkpt lat="47.35846" lon="-1.37711">
        <ele>125</ele>
        <time>2021-07-16T09:08:58.000Z</time>
      </trkpt>
      <trkpt lat="47.35838" lon="-1.37699">
        <ele>126</ele>
        <time>2021-07-16T09:09:00.000Z</time>
      </trkpt>
      <trkpt lat="47.35831" lon="-1.37687">
        <ele>126</ele>
        <time>2021-07-16T09:09:02.000Z</time>
      </trkpt>
      <trkpt lat="47.35823" lon="-1.37676">
        <ele>126</ele>
        <time>2021-07-16T09:09:04.000Z</time>
      </trkpt>
      <trkpt lat="47.35814" lon="-1.37663">
        <ele>126</ele>
        <time>2021-07-16T09:09:06.000Z</time>
      </trkpt>
      <trkpt lat="47.35806" lon="-1.37652">
        <ele>126</ele>
        <time>2021-07-16T09:09:08.000Z</time>
      </trkpt>
      <trkpt lat="47.35797" lon="-1.37639">
        <ele>127</ele>
        <time>2021-07-16T09:09:10.000Z</time>
      </trkpt>
      <trkpt lat="47.35789" lon="-1.37627">
        <ele>127</ele>
        <time>2021-07-16T09:09:12.000Z</time>
      </trkpt>
      <trkpt lat="47.35781" lon="-1.37615">
        <ele>127</ele>
        <time>2021-07-16T09:09:14.000Z</time>
      </trkpt>
      <trkpt lat="47.35773" lon="-1.37604">
        <ele>127</ele>
        <time>2021-07-16T09:09:16.000Z</time>
      </trkpt>
      <trkpt lat="47.35766" lon="-1.37591">
        <ele>127</ele>
        <time>2021-07-16T09:09:18.000Z</time>
      </trkpt>
      <trkpt lat="47.35758" lon="-1.3758">
        <ele>127</ele>
        <time>2021-07-16T09:09:20.000Z</time>
      </trkpt>
      <trkpt lat="47.3575" lon="-1.37568">
        <ele>127</ele>
        <time>2021-07-16T09:09:22.000Z</time>
      </trkpt>
      <trkpt lat="47.35742" lon="-1.37555">
        <ele>128</ele>
        <time>2021-07-16T09:09:24.000Z</time>
      </trkpt>
      <trkpt lat="47.35734" lon="-1.37543">
        <ele>128</ele>
        <time>2021-07-16T09:09:26.000Z</time>
      </trkpt>
      <trkpt lat="47.35726" lon="-1.37531">
        <ele>128</ele>
        <time>2021-07-16T09:09:28.000Z</time>
      </trkpt>
      <trkpt lat="47.35718" lon="-1.37519">
        <ele>129</ele>
        <time>2021-07-16T09:09:30.000Z</time>
      </trkpt>
      <trkpt lat="47.3571" lon="-1.37507">
        <ele>129</ele>
        <time>2021-07-16T09:09:32.000Z</time>
      </trkpt>
      <trkpt lat="47.35701" lon="-1.37495">
        <ele>129</ele>
        <time>2021-07-16T09:09:34.000Z</time>
      </trkpt>
      <trkpt lat="47.35693" lon="-1.37483">
        <ele>129</ele>
        <time>2021-07-16T09:09:36.000Z</time>
      </trkpt>
      <trkpt lat="47.35684" lon="-1.3747">
        <ele>129</ele>
        <time>2021-07-16T09:09:38.000Z</time>
      </trkpt>
      <trkpt lat="47.35676" lon="-1.37457">
        <ele>129</ele>
        <time>2021-07-16T09:09:40.000Z</time>
      </trkpt>
      <trkpt lat="47.35667" lon="-1.37445">
        <ele>129</ele>
        <time>2021-07-16T09:09:42.000Z</time>
      </trkpt>
      <trkpt lat="47.35659" lon="-1.37432">
        <ele>129</ele>
        <time>2021-07-16T09:09:44.000Z</time>
      </trkpt>
      <trkpt lat="47.3565" lon="-1.37418">
        <ele>129</ele>
        <time>2021-07-16T09:09:46.000Z</time>
      </trkpt>
      <trkpt lat="47.35642" lon="-1.37405">
        <ele>129</ele>
        <time>2021-07-16T09:09:48.000Z</time>
      </trkpt>
      <trkpt lat="47.35633" lon="-1.37392">
        <ele>128</ele>
        <time>2021-07-16T09:09:50.000Z</time>
      </trkpt>
      <trkpt lat="47.35625" lon="-1.37379">
        <ele>128</ele>
        <time>2021-07-16T09:09:52.000Z</time>
      </trkpt>
      <trkpt lat="47.35616" lon="-1.37366">
        <ele>128</ele>
        <time>2021-07-16T09:09:54.000Z</time>
      </trkpt>
      <trkpt lat="47.35608" lon="-1.37354">
        <ele>128</ele>
        <time>2021-07-16T09:09:56.000Z</time>
      </trkpt>
      <trkpt lat="47.35599" lon="-1.37341">
        <ele>128</ele>
        <time>2021-07-16T09:09:58.000Z</time>
      </trkpt>
      <trkpt lat="47.35591" lon="-1.37328">
        <ele>128</ele>
        <time>2021-07-16T09:10:00.000Z</time>
      </trkpt>
      <trkpt lat="47.35582" lon="-1.37314">
        <ele>128</ele>
        <time>2021-07-16T09:10:02.000Z</time>
      </trkpt>
      <trkpt lat="47.35573" lon="-1.373">
        <ele>128</ele>
        <time>2021-07-16T09:10:04.000Z</time>
      </trkpt>
      <trkpt lat="47.35564" lon="-1.37288">
        <ele>128</ele>
        <time>2021-07-16T09:10:06.000Z</time>
      </trkpt>
      <trkpt lat="47.35556" lon="-1.37275">
        <ele>128</ele>
        <time>2021-07-16T09:10:08.000Z</time>
      </trkpt>
      <trkpt lat="47.35547" lon="-1.37262">
        <ele>127</ele>
        <time>2021-07-16T09:10:10.000Z</time>
      </trkpt>
      <trkpt lat="47.35539" lon="-1.37248">
        <ele>127</ele>
        <time>2021-07-16T09:10:12.000Z</time>
      </trkpt>
      <trkpt lat="47.3553" lon="-1.37236">
        <ele>126</ele>
        <time>2021-07-16T09:10:14.000Z</time>
      </trkpt>
      <trkpt lat="47.35521" lon="-1.37224">
        <ele>127</ele>
        <time>2021-07-16T09:10:16.000Z</time>
      </trkpt>
      <trkpt lat="47.35512" lon="-1.37212">
        <ele>127</ele>
        <time>2021-07-16T09:10:18.000Z</time>
      </trkpt>
      <trkpt lat="47.35504" lon="-1.37199">
        <ele>127</ele>
        <time>2021-07-16T09:10:20.000Z</time>
      </trkpt>
      <trkpt lat="47.35495" lon="-1.37187">
        <ele>127</ele>
        <time>2021-07-16T09:10:22.000Z</time>
      </trkpt>
      <trkpt lat="47.35487" lon="-1.37175">
        <ele>128</ele>
        <time>2021-07-16T09:10:24.000Z</time>
      </trkpt>
      <trkpt lat="47.35478" lon="-1.37163">
        <ele>128</ele>
        <time>2021-07-16T09:10:26.000Z</time>
      </trkpt>
      <trkpt lat="47.3547" lon="-1.37152">
        <ele>129</ele>
        <time>2021-07-16T09:10:28.000Z</time>
      </trkpt>
      <trkpt lat="47.35462" lon="-1.37141">
        <ele>129</ele>
        <time>2021-07-16T09:10:30.000Z</time>
      </trkpt>
      <trkpt lat="47.35454" lon="-1.3713">
        <ele>129</ele>
        <time>2021-07-16T09:10:32.000Z</time>
      </trkpt>
      <trkpt lat="47.35447" lon="-1.37119">
        <ele>129</ele>
        <time>2021-07-16T09:10:34.000Z</time>
      </trkpt>
      <trkpt lat="47.35438" lon="-1.37106">
        <ele>129</ele>
        <time>2021-07-16T09:10:36.000Z</time>
      </trkpt>
      <trkpt lat="47.35429" lon="-1.37093">
        <ele>129</ele>
        <time>2021-07-16T09:10:38.000Z</time>
      </trkpt>
      <trkpt lat="47.3542" lon="-1.37078">
        <ele>130</ele>
        <time>2021-07-16T09:10:40.000Z</time>
      </trkpt>
      <trkpt lat="47.35411" lon="-1.37063">
        <ele>131</ele>
        <time>2021-07-16T09:10:42.000Z</time>
      </trkpt>
      <trkpt lat="47.35401" lon="-1.37048">
        <ele>131</ele>
        <time>2021-07-16T09:10:44.000Z</time>
      </trkpt>
      <trkpt lat="47.35393" lon="-1.37032">
        <ele>130</ele>
        <time>2021-07-16T09:10:46.000Z</time>
      </trkpt>
      <trkpt lat="47.35384" lon="-1.37017">
        <ele>130</ele>
        <time>2021-07-16T09:10:48.000Z</time>
      </trkpt>
      <trkpt lat="47.35376" lon="-1.37002">
        <ele>130</ele>
        <time>2021-07-16T09:10:50.000Z</time>
      </trkpt>
      <trkpt lat="47.35368" lon="-1.36988">
        <ele>131</ele>
        <time>2021-07-16T09:10:52.000Z</time>
      </trkpt>
      <trkpt lat="47.35359" lon="-1.36975">
        <ele>131</ele>
        <time>2021-07-16T09:10:54.000Z</time>
      </trkpt>
      <trkpt lat="47.35351" lon="-1.36962">
        <ele>131</ele>
        <time>2021-07-16T09:10:56.000Z</time>
      </trkpt>
      <trkpt lat="47.35342" lon="-1.36949">
        <ele>131</ele>
        <time>2021-07-16T09:10:58.000Z</time>
      </trkpt>
      <trkpt lat="47.35334" lon="-1.36936">
        <ele>131</ele>
        <time>2021-07-16T09:11:00.000Z</time>
      </trkpt>
      <trkpt lat="47.35325" lon="-1.36923">
        <ele>131</ele>
        <time>2021-07-16T09:11:02.000Z</time>
      </trkpt>
      <trkpt lat="47.35316" lon="-1.36911">
        <ele>130</ele>
        <time>2021-07-16T09:11:04.000Z</time>
      </trkpt>
      <trkpt lat="47.35308" lon="-1.36898">
        <ele>131</ele>
        <time>2021-07-16T09:11:06.000Z</time>
      </trkpt>
      <trkpt lat="47.353" lon="-1.36885">
        <ele>130</ele>
        <time>2021-07-16T09:11:08.000Z</time>
      </trkpt>
      <trkpt lat="47.35292" lon="-1.36872">
        <ele>130</ele>
        <time>2021-07-16T09:11:10.000Z</time>
      </trkpt>
      <trkpt lat="47.35283" lon="-1.3686">
        <ele>130</ele>
        <time>2021-07-16T09:11:12.000Z</time>
      </trkpt>
      <trkpt lat="47.35275" lon="-1.36847">
        <ele>130</ele>
        <time>2021-07-16T09:11:14.000Z</time>
      </trkpt>
      <trkpt lat="47.35266" lon="-1.36834">
        <ele>130</ele>
        <time>2021-07-16T09:11:16.000Z</time>
      </trkpt>
      <trkpt lat="47.35258" lon="-1.36821">
        <ele>130</ele>
        <time>2021-07-16T09:11:18.000Z</time>
      </trkpt>
      <trkpt lat="47.35249" lon="-1.36808">
        <ele>130</ele>
        <time>2021-07-16T09:11:20.000Z</time>
      </trkpt>
      <trkpt lat="47.3524" lon="-1.36795">
        <ele>130</ele>
        <time>2021-07-16T09:11:22.000Z</time>
      </trkpt>
      <trkpt lat="47.35232" lon="-1.36782">
        <ele>130</ele>
        <time>2021-07-16T09:11:24.000Z</time>
      </trkpt>
      <trkpt lat="47.35223" lon="-1.36769">
        <ele>130</ele>
        <time>2021-07-16T09:11:26.000Z</time>
      </trkpt>
      <trkpt lat="47.35215" lon="-1.36756">
        <ele>130</ele>
        <time>2021-07-16T09:11:28.000Z</time>
      </trkpt>
      <trkpt lat="47.35207" lon="-1.36743">
        <ele>130</ele>
        <time>2021-07-16T09:11:30.000Z</time>
      </trkpt>
      <trkpt lat="47.35198" lon="-1.36729">
        <ele>130</ele>
        <time>2021-07-16T09:11:32.000Z</time>
      </trkpt>
      <trkpt lat="47.35189" lon="-1.36716">
        <ele>130</ele>
        <time>2021-07-16T09:11:34.000Z</time>
      </trkpt>
      <trkpt lat="47.35181" lon="-1.36704">
        <ele>130</ele>
        <time>2021-07-16T09:11:36.000Z</time>
      </trkpt>
      <trkpt lat="47.35172" lon="-1.36691">
        <ele>131</ele>
        <time>2021-07-16T09:11:38.000Z</time>
      </trkpt>
      <trkpt lat="47.35163" lon="-1.36679">
        <ele>131</ele>
        <time>2021-07-16T09:11:40.000Z</time>
      </trkpt>
      <trkpt lat="47.35155" lon="-1.36666">
        <ele>130</ele>
        <time>2021-07-16T09:11:42.000Z</time>
      </trkpt>
      <trkpt lat="47.35145" lon="-1.36654">
        <ele>131</ele>
        <time>2021-07-16T09:11:44.000Z</time>
      </trkpt>
      <trkpt lat="47.35136" lon="-1.3664">
        <ele>131</ele>
        <time>2021-07-16T09:11:46.000Z</time>
      </trkpt>
      <trkpt lat="47.35127" lon="-1.36628">
        <ele>132</ele>
        <time>2021-07-16T09:11:48.000Z</time>
      </trkpt>
      <trkpt lat="47.35119" lon="-1.36616">
        <ele>132</ele>
        <time>2021-07-16T09:11:50.000Z</time>
      </trkpt>
      <trkpt lat="47.35111" lon="-1.36605">
        <ele>132</ele>
        <time>2021-07-16T09:11:52.000Z</time>
      </trkpt>
      <trkpt lat="47.35103" lon="-1.36593">
        <ele>132</ele>
        <time>2021-07-16T09:11:54.000Z</time>
      </trkpt>
      <trkpt lat="47.35094" lon="-1.36581">
        <ele>132</ele>
        <time>2021-07-16T09:11:56.000Z</time>
      </trkpt>
      <trkpt lat="47.35086" lon="-1.36569">
        <ele>132</ele>
        <time>2021-07-16T09:11:58.000Z</time>
      </trkpt>
      <trkpt lat="47.35077" lon="-1.36556">
        <ele>132</ele>
        <time>2021-07-16T09:12:00.000Z</time>
      </trkpt>
      <trkpt lat="47.35069" lon="-1.36542">
        <ele>132</ele>
        <time>2021-07-16T09:12:02.000Z</time>
      </trkpt>
      <trkpt lat="47.3506" lon="-1.36528">
        <ele>132</ele>
        <time>2021-07-16T09:12:04.000Z</time>
      </trkpt>
      <trkpt lat="47.35052" lon="-1.36514">
        <ele>132</ele>
        <time>2021-07-16T09:12:06.000Z</time>
      </trkpt>
      <trkpt lat="47.35043" lon="-1.365">
        <ele>131</ele>
        <time>2021-07-16T09:12:08.000Z</time>
      </trkpt>
      <trkpt lat="47.35035" lon="-1.36486">
        <ele>132</ele>
        <time>2021-07-16T09:12:10.000Z</time>
      </trkpt>
      <trkpt lat="47.35026" lon="-1.36472">
        <ele>131</ele>
        <time>2021-07-16T09:12:12.000Z</time>
      </trkpt>
      <trkpt lat="47.35017" lon="-1.3646">
        <ele>131</ele>
        <time>2021-07-16T09:12:14.000Z</time>
      </trkpt>
      <trkpt lat="47.35009" lon="-1.36447">
        <ele>131</ele>
        <time>2021-07-16T09:12:16.000Z</time>
      </trkpt>
      <trkpt lat="47.35" lon="-1.36436">
        <ele>131</ele>
        <time>2021-07-16T09:12:18.000Z</time>
      </trkpt>
      <trkpt lat="47.34991" lon="-1.36425">
        <ele>131</ele>
        <time>2021-07-16T09:12:20.000Z</time>
      </trkpt>
      <trkpt lat="47.34981" lon="-1.36413">
        <ele>130</ele>
        <time>2021-07-16T09:12:22.000Z</time>
      </trkpt>
      <trkpt lat="47.34972" lon="-1.36402">
        <ele>131</ele>
        <time>2021-07-16T09:12:24.000Z</time>
      </trkpt>
      <trkpt lat="47.34963" lon="-1.36391">
        <ele>130</ele>
        <time>2021-07-16T09:12:26.000Z</time>
      </trkpt>
      <trkpt lat="47.34953" lon="-1.3638">
        <ele>130</ele>
        <time>2021-07-16T09:12:28.000Z</time>
      </trkpt>
      <trkpt lat="47.34943" lon="-1.36368">
        <ele>130</ele>
        <time>2021-07-16T09:12:30.000Z</time>
      </trkpt>
      <trkpt lat="47.34935" lon="-1.36358">
        <ele>130</ele>
        <time>2021-07-16T09:12:32.000Z</time>
      </trkpt>
      <trkpt lat="47.34925" lon="-1.36346">
        <ele>130</ele>
        <time>2021-07-16T09:12:34.000Z</time>
      </trkpt>
      <trkpt lat="47.34916" lon="-1.36334">
        <ele>130</ele>
        <time>2021-07-16T09:12:36.000Z</time>
      </trkpt>
      <trkpt lat="47.34907" lon="-1.36321">
        <ele>130</ele>
        <time>2021-07-16T09:12:38.000Z</time>
      </trkpt>
      <trkpt lat="47.34898" lon="-1.36308">
        <ele>130</ele>
        <time>2021-07-16T09:12:40.000Z</time>
      </trkpt>
      <trkpt lat="47.3489" lon="-1.36294">
        <ele>131</ele>
        <time>2021-07-16T09:12:42.000Z</time>
      </trkpt>
      <trkpt lat="47.34882" lon="-1.3628">
        <ele>130</ele>
        <time>2021-07-16T09:12:44.000Z</time>
      </trkpt>
      <trkpt lat="47.34874" lon="-1.36267">
        <ele>130</ele>
        <time>2021-07-16T09:12:46.000Z</time>
      </trkpt>
      <trkpt lat="47.34866" lon="-1.36254">
        <ele>130</ele>
        <time>2021-07-16T09:12:48.000Z</time>
      </trkpt>
      <trkpt lat="47.34859" lon="-1.36241">
        <ele>130</ele>
        <time>2021-07-16T09:12:50.000Z</time>
      </trkpt>
      <trkpt lat="47.34851" lon="-1.36229">
        <ele>130</ele>
        <time>2021-07-16T09:12:52.000Z</time>
      </trkpt>
      <trkpt lat="47.34844" lon="-1.36217">
        <ele>130</ele>
        <time>2021-07-16T09:12:54.000Z</time>
      </trkpt>
      <trkpt lat="47.34835" lon="-1.36204">
        <ele>130</ele>
        <time>2021-07-16T09:12:56.000Z</time>
      </trkpt>
      <trkpt lat="47.34827" lon="-1.36192">
        <ele>130</ele>
        <time>2021-07-16T09:12:58.000Z</time>
      </trkpt>
      <trkpt lat="47.34819" lon="-1.3618">
        <ele>131</ele>
        <time>2021-07-16T09:13:00.000Z</time>
      </trkpt>
      <trkpt lat="47.34812" lon="-1.36168">
        <ele>131</ele>
        <time>2021-07-16T09:13:02.000Z</time>
      </trkpt>
      <trkpt lat="47.34803" lon="-1.36157">
        <ele>131</ele>
        <time>2021-07-16T09:13:04.000Z</time>
      </trkpt>
      <trkpt lat="47.34795" lon="-1.36146">
        <ele>131</ele>
        <time>2021-07-16T09:13:06.000Z</time>
      </trkpt>
      <trkpt lat="47.34786" lon="-1.36135">
        <ele>132</ele>
        <time>2021-07-16T09:13:08.000Z</time>
      </trkpt>
      <trkpt lat="47.34778" lon="-1.36124">
        <ele>132</ele>
        <time>2021-07-16T09:13:10.000Z</time>
      </trkpt>
      <trkpt lat="47.34769" lon="-1.36114">
        <ele>132</ele>
        <time>2021-07-16T09:13:12.000Z</time>
      </trkpt>
      <trkpt lat="47.3476" lon="-1.36103">
        <ele>132</ele>
        <time>2021-07-16T09:13:14.000Z</time>
      </trkpt>
      <trkpt lat="47.34751" lon="-1.36093">
        <ele>133</ele>
        <time>2021-07-16T09:13:16.000Z</time>
      </trkpt>
      <trkpt lat="47.34742" lon="-1.36082">
        <ele>132</ele>
        <time>2021-07-16T09:13:18.000Z</time>
      </trkpt>
      <trkpt lat="47.34733" lon="-1.36071">
        <ele>132</ele>
        <time>2021-07-16T09:13:20.000Z</time>
      </trkpt>
      <trkpt lat="47.34724" lon="-1.3606">
        <ele>132</ele>
        <time>2021-07-16T09:13:22.000Z</time>
      </trkpt>
      <trkpt lat="47.34714" lon="-1.36049">
        <ele>132</ele>
        <time>2021-07-16T09:13:24.000Z</time>
      </trkpt>
      <trkpt lat="47.34704" lon="-1.36037">
        <ele>131</ele>
        <time>2021-07-16T09:13:26.000Z</time>
      </trkpt>
      <trkpt lat="47.34693" lon="-1.36025">
        <ele>131</ele>
        <time>2021-07-16T09:13:28.000Z</time>
      </trkpt>
      <trkpt lat="47.34683" lon="-1.36013">
        <ele>130</ele>
        <time>2021-07-16T09:13:30.000Z</time>
      </trkpt>
      <trkpt lat="47.34671" lon="-1.36001">
        <ele>129</ele>
        <time>2021-07-16T09:13:32.000Z</time>
      </trkpt>
      <trkpt lat="47.34659" lon="-1.35988">
        <ele>129</ele>
        <time>2021-07-16T09:13:34.000Z</time>
      </trkpt>
      <trkpt lat="47.34648" lon="-1.35974">
        <ele>128</ele>
        <time>2021-07-16T09:13:36.000Z</time>
      </trkpt>
      <trkpt lat="47.34636" lon="-1.35962">
        <ele>128</ele>
        <time>2021-07-16T09:13:38.000Z</time>
      </trkpt>
      <trkpt lat="47.34624" lon="-1.35949">
        <ele>128</ele>
        <time>2021-07-16T09:13:40.000Z</time>
      </trkpt>
      <trkpt lat="47.34613" lon="-1.35937">
        <ele>128</ele>
        <time>2021-07-16T09:13:42.000Z</time>
      </trkpt>
      <trkpt lat="47.34602" lon="-1.35924">
        <ele>127</ele>
        <time>2021-07-16T09:13:44.000Z</time>
      </trkpt>
      <trkpt lat="47.34591" lon="-1.35911">
        <ele>127</ele>
        <time>2021-07-16T09:13:46.000Z</time>
      </trkpt>
      <trkpt lat="47.34581" lon="-1.35898">
        <ele>128</ele>
        <time>2021-07-16T09:13:48.000Z</time>
      </trkpt>
      <trkpt lat="47.34571" lon="-1.35885">
        <ele>128</ele>
        <time>2021-07-16T09:13:50.000Z</time>
      </trkpt>
      <trkpt lat="47.34562" lon="-1.35873">
        <ele>128</ele>
        <time>2021-07-16T09:13:52.000Z</time>
      </trkpt>
      <trkpt lat="47.34553" lon="-1.35859">
        <ele>128</ele>
        <time>2021-07-16T09:13:54.000Z</time>
      </trkpt>
      <trkpt lat="47.34544" lon="-1.35845">
        <ele>129</ele>
        <time>2021-07-16T09:13:56.000Z</time>
      </trkpt>
      <trkpt lat="47.34535" lon="-1.35831">
        <ele>129</ele>
        <time>2021-07-16T09:13:58.000Z</time>
      </trkpt>
      <trkpt lat="47.34528" lon="-1.35817">
        <ele>128</ele>
        <time>2021-07-16T09:14:00.000Z</time>
      </trkpt>
      <trkpt lat="47.3452" lon="-1.35804">
        <ele>128</ele>
        <time>2021-07-16T09:14:02.000Z</time>
      </trkpt>
      <trkpt lat="47.34512" lon="-1.3579">
        <ele>128</ele>
        <time>2021-07-16T09:14:04.000Z</time>
      </trkpt>
      <trkpt lat="47.34504" lon="-1.35776">
        <ele>128</ele>
        <time>2021-07-16T09:14:06.000Z</time>
      </trkpt>
      <trkpt lat="47.34497" lon="-1.35763">
        <ele>129</ele>
        <time>2021-07-16T09:14:08.000Z</time>
      </trkpt>
      <trkpt lat="47.3449" lon="-1.35749">
        <ele>129</ele>
        <time>2021-07-16T09:14:10.000Z</time>
      </trkpt>
      <trkpt lat="47.34482" lon="-1.35735">
        <ele>130</ele>
        <time>2021-07-16T09:14:12.000Z</time>
      </trkpt>
      <trkpt lat="47.34475" lon="-1.35722">
        <ele>130</ele>
        <time>2021-07-16T09:14:14.000Z</time>
      </trkpt>
      <trkpt lat="47.34468" lon="-1.35709">
        <ele>130</ele>
        <time>2021-07-16T09:14:16.000Z</time>
      </trkpt>
      <trkpt lat="47.34461" lon="-1.35696">
        <ele>130</ele>
        <time>2021-07-16T09:14:18.000Z</time>
      </trkpt>
      <trkpt lat="47.34453" lon="-1.35684">
        <ele>130</ele>
        <time>2021-07-16T09:14:20.000Z</time>
      </trkpt>
      <trkpt lat="47.34445" lon="-1.35674">
        <ele>130</ele>
        <time>2021-07-16T09:14:22.000Z</time>
      </trkpt>
      <trkpt lat="47.34437" lon="-1.35663">
        <ele>130</ele>
        <time>2021-07-16T09:14:24.000Z</time>
      </trkpt>
      <trkpt lat="47.34429" lon="-1.35651">
        <ele>130</ele>
        <time>2021-07-16T09:14:26.000Z</time>
      </trkpt>
      <trkpt lat="47.34421" lon="-1.35638">
        <ele>130</ele>
        <time>2021-07-16T09:14:28.000Z</time>
      </trkpt>
      <trkpt lat="47.34413" lon="-1.35624">
        <ele>129</ele>
        <time>2021-07-16T09:14:30.000Z</time>
      </trkpt>
      <trkpt lat="47.34405" lon="-1.35608">
        <ele>129</ele>
        <time>2021-07-16T09:14:32.000Z</time>
      </trkpt>
      <trkpt lat="47.34397" lon="-1.35593">
        <ele>129</ele>
        <time>2021-07-16T09:14:34.000Z</time>
      </trkpt>
      <trkpt lat="47.34389" lon="-1.35578">
        <ele>129</ele>
        <time>2021-07-16T09:14:36.000Z</time>
      </trkpt>
      <trkpt lat="47.34381" lon="-1.35564">
        <ele>130</ele>
        <time>2021-07-16T09:14:38.000Z</time>
      </trkpt>
      <trkpt lat="47.34373" lon="-1.3555">
        <ele>130</ele>
        <time>2021-07-16T09:14:40.000Z</time>
      </trkpt>
      <trkpt lat="47.34364" lon="-1.35536">
        <ele>131</ele>
        <time>2021-07-16T09:14:42.000Z</time>
      </trkpt>
      <trkpt lat="47.34356" lon="-1.35522">
        <ele>131</ele>
        <time>2021-07-16T09:14:44.000Z</time>
      </trkpt>
      <trkpt lat="47.34349" lon="-1.35508">
        <ele>131</ele>
        <time>2021-07-16T09:14:46.000Z</time>
      </trkpt>
      <trkpt lat="47.34341" lon="-1.35494">
        <ele>131</ele>
        <time>2021-07-16T09:14:48.000Z</time>
      </trkpt>
      <trkpt lat="47.34333" lon="-1.3548">
        <ele>131</ele>
        <time>2021-07-16T09:14:50.000Z</time>
      </trkpt>
      <trkpt lat="47.34325" lon="-1.35466">
        <ele>131</ele>
        <time>2021-07-16T09:14:52.000Z</time>
      </trkpt>
      <trkpt lat="47.34316" lon="-1.35452">
        <ele>131</ele>
        <time>2021-07-16T09:14:54.000Z</time>
      </trkpt>
      <trkpt lat="47.34308" lon="-1.35437">
        <ele>131</ele>
        <time>2021-07-16T09:14:56.000Z</time>
      </trkpt>
      <trkpt lat="47.343" lon="-1.35424">
        <ele>132</ele>
        <time>2021-07-16T09:14:58.000Z</time>
      </trkpt>
      <trkpt lat="47.34292" lon="-1.35411">
        <ele>131</ele>
        <time>2021-07-16T09:15:00.000Z</time>
      </trkpt>
      <trkpt lat="47.34284" lon="-1.35398">
        <ele>131</ele>
        <time>2021-07-16T09:15:02.000Z</time>
      </trkpt>
      <trkpt lat="47.34276" lon="-1.35383">
        <ele>131</ele>
        <time>2021-07-16T09:15:04.000Z</time>
      </trkpt>
      <trkpt lat="47.34268" lon="-1.35369">
        <ele>131</ele>
        <time>2021-07-16T09:15:06.000Z</time>
      </trkpt>
      <trkpt lat="47.3426" lon="-1.35355">
        <ele>131</ele>
        <time>2021-07-16T09:15:08.000Z</time>
      </trkpt>
      <trkpt lat="47.34252" lon="-1.35341">
        <ele>131</ele>
        <time>2021-07-16T09:15:10.000Z</time>
      </trkpt>
      <trkpt lat="47.34243" lon="-1.35328">
        <ele>131</ele>
        <time>2021-07-16T09:15:12.000Z</time>
      </trkpt>
      <trkpt lat="47.34235" lon="-1.35315">
        <ele>131</ele>
        <time>2021-07-16T09:15:14.000Z</time>
      </trkpt>
      <trkpt lat="47.34227" lon="-1.35301">
        <ele>132</ele>
        <time>2021-07-16T09:15:16.000Z</time>
      </trkpt>
      <trkpt lat="47.34218" lon="-1.35287">
        <ele>132</ele>
        <time>2021-07-16T09:15:18.000Z</time>
      </trkpt>
      <trkpt lat="47.3421" lon="-1.35273">
        <ele>132</ele>
        <time>2021-07-16T09:15:20.000Z</time>
      </trkpt>
      <trkpt lat="47.34202" lon="-1.3526">
        <ele>132</ele>
        <time>2021-07-16T09:15:22.000Z</time>
      </trkpt>
      <trkpt lat="47.34194" lon="-1.35247">
        <ele>131</ele>
        <time>2021-07-16T09:15:24.000Z</time>
      </trkpt>
      <trkpt lat="47.34186" lon="-1.35234">
        <ele>132</ele>
        <time>2021-07-16T09:15:26.000Z</time>
      </trkpt>
      <trkpt lat="47.34178" lon="-1.3522">
        <ele>132</ele>
        <time>2021-07-16T09:15:28.000Z</time>
      </trkpt>
      <trkpt lat="47.3417" lon="-1.35207">
        <ele>131</ele>
        <time>2021-07-16T09:15:30.000Z</time>
      </trkpt>
      <trkpt lat="47.34162" lon="-1.35193">
        <ele>131</ele>
        <time>2021-07-16T09:15:32.000Z</time>
      </trkpt>
      <trkpt lat="47.34154" lon="-1.35179">
        <ele>131</ele>
        <time>2021-07-16T09:15:34.000Z</time>
      </trkpt>
      <trkpt lat="47.34145" lon="-1.35164">
        <ele>131</ele>
        <time>2021-07-16T09:15:36.000Z</time>
      </trkpt>
      <trkpt lat="47.34137" lon="-1.3515">
        <ele>131</ele>
        <time>2021-07-16T09:15:38.000Z</time>
      </trkpt>
      <trkpt lat="47.34128" lon="-1.35136">
        <ele>131</ele>
        <time>2021-07-16T09:15:40.000Z</time>
      </trkpt>
      <trkpt lat="47.3412" lon="-1.35121">
        <ele>131</ele>
        <time>2021-07-16T09:15:42.000Z</time>
      </trkpt>
      <trkpt lat="47.34112" lon="-1.35106">
        <ele>131</ele>
        <time>2021-07-16T09:15:44.000Z</time>
      </trkpt>
      <trkpt lat="47.34103" lon="-1.35092">
        <ele>131</ele>
        <time>2021-07-16T09:15:46.000Z</time>
      </trkpt>
      <trkpt lat="47.34095" lon="-1.35079">
        <ele>131</ele>
        <time>2021-07-16T09:15:48.000Z</time>
      </trkpt>
      <trkpt lat="47.34086" lon="-1.35065">
        <ele>131</ele>
        <time>2021-07-16T09:15:50.000Z</time>
      </trkpt>
      <trkpt lat="47.34078" lon="-1.35051">
        <ele>131</ele>
        <time>2021-07-16T09:15:52.000Z</time>
      </trkpt>
      <trkpt lat="47.34069" lon="-1.35037">
        <ele>131</ele>
        <time>2021-07-16T09:15:54.000Z</time>
      </trkpt>
      <trkpt lat="47.34061" lon="-1.35023">
        <ele>132</ele>
        <time>2021-07-16T09:15:56.000Z</time>
      </trkpt>
      <trkpt lat="47.34053" lon="-1.35009">
        <ele>131</ele>
        <time>2021-07-16T09:15:58.000Z</time>
      </trkpt>
      <trkpt lat="47.34044" lon="-1.34997">
        <ele>131</ele>
        <time>2021-07-16T09:16:00.000Z</time>
      </trkpt>
      <trkpt lat="47.34036" lon="-1.34984">
        <ele>130</ele>
        <time>2021-07-16T09:16:02.000Z</time>
      </trkpt>
      <trkpt lat="47.34028" lon="-1.34975">
        <ele>130</ele>
        <time>2021-07-16T09:16:04.000Z</time>
      </trkpt>
      <trkpt lat="47.34021" lon="-1.34967">
        <ele>130</ele>
        <time>2021-07-16T09:16:06.000Z</time>
      </trkpt>
      <trkpt lat="47.3401" lon="-1.34964">
        <ele>131</ele>
        <time>2021-07-16T09:16:11.000Z</time>
      </trkpt>
      <trkpt lat="47.34" lon="-1.34964">
        <ele>131</ele>
        <time>2021-07-16T09:16:14.000Z</time>
      </trkpt>
      <trkpt lat="47.33992" lon="-1.34954">
        <ele>131</ele>
        <time>2021-07-16T09:16:16.000Z</time>
      </trkpt>
      <trkpt lat="47.33986" lon="-1.34935">
        <ele>131</ele>
        <time>2021-07-16T09:16:18.000Z</time>
      </trkpt>
      <trkpt lat="47.3398" lon="-1.34918">
        <ele>131</ele>
        <time>2021-07-16T09:16:20.000Z</time>
      </trkpt>
      <trkpt lat="47.33968" lon="-1.34905">
        <ele>130</ele>
        <time>2021-07-16T09:16:22.000Z</time>
      </trkpt>
      <trkpt lat="47.33956" lon="-1.34894">
        <ele>131</ele>
        <time>2021-07-16T09:16:24.000Z</time>
      </trkpt>
      <trkpt lat="47.33945" lon="-1.34883">
        <ele>130</ele>
        <time>2021-07-16T09:16:26.000Z</time>
      </trkpt>
      <trkpt lat="47.33933" lon="-1.34872">
        <ele>131</ele>
        <time>2021-07-16T09:16:28.000Z</time>
      </trkpt>
      <trkpt lat="47.33921" lon="-1.34861">
        <ele>130</ele>
        <time>2021-07-16T09:16:30.000Z</time>
      </trkpt>
      <trkpt lat="47.33911" lon="-1.3485">
        <ele>131</ele>
        <time>2021-07-16T09:16:32.000Z</time>
      </trkpt>
      <trkpt lat="47.339" lon="-1.34839">
        <ele>130</ele>
        <time>2021-07-16T09:16:34.000Z</time>
      </trkpt>
      <trkpt lat="47.3389" lon="-1.34826">
        <ele>130</ele>
        <time>2021-07-16T09:16:36.000Z</time>
      </trkpt>
      <trkpt lat="47.3388" lon="-1.34812">
        <ele>130</ele>
        <time>2021-07-16T09:16:38.000Z</time>
      </trkpt>
      <trkpt lat="47.3387" lon="-1.34798">
        <ele>131</ele>
        <time>2021-07-16T09:16:40.000Z</time>
      </trkpt>
      <trkpt lat="47.33861" lon="-1.34785">
        <ele>131</ele>
        <time>2021-07-16T09:16:42.000Z</time>
      </trkpt>
      <trkpt lat="47.33851" lon="-1.34772">
        <ele>130</ele>
        <time>2021-07-16T09:16:44.000Z</time>
      </trkpt>
      <trkpt lat="47.33841" lon="-1.34758">
        <ele>130</ele>
        <time>2021-07-16T09:16:46.000Z</time>
      </trkpt>
      <trkpt lat="47.33831" lon="-1.34745">
        <ele>130</ele>
        <time>2021-07-16T09:16:48.000Z</time>
      </trkpt>
      <trkpt lat="47.33821" lon="-1.34731">
        <ele>130</ele>
        <time>2021-07-16T09:16:50.000Z</time>
      </trkpt>
      <trkpt lat="47.33811" lon="-1.34718">
        <ele>130</ele>
        <time>2021-07-16T09:16:52.000Z</time>
      </trkpt>
      <trkpt lat="47.33801" lon="-1.34704">
        <ele>130</ele>
        <time>2021-07-16T09:16:54.000Z</time>
      </trkpt>
      <trkpt lat="47.33791" lon="-1.3469">
        <ele>130</ele>
        <time>2021-07-16T09:16:56.000Z</time>
      </trkpt>
      <trkpt lat="47.33781" lon="-1.34676">
        <ele>130</ele>
        <time>2021-07-16T09:16:58.000Z</time>
      </trkpt>
      <trkpt lat="47.33771" lon="-1.34663">
        <ele>130</ele>
        <time>2021-07-16T09:17:00.000Z</time>
      </trkpt>
      <trkpt lat="47.33761" lon="-1.34649">
        <ele>130</ele>
        <time>2021-07-16T09:17:02.000Z</time>
      </trkpt>
      <trkpt lat="47.33751" lon="-1.34636">
        <ele>130</ele>
        <time>2021-07-16T09:17:04.000Z</time>
      </trkpt>
      <trkpt lat="47.33742" lon="-1.34624">
        <ele>129</ele>
        <time>2021-07-16T09:17:06.000Z</time>
      </trkpt>
      <trkpt lat="47.33732" lon="-1.34612">
        <ele>130</ele>
        <time>2021-07-16T09:17:08.000Z</time>
      </trkpt>
      <trkpt lat="47.33723" lon="-1.34599">
        <ele>130</ele>
        <time>2021-07-16T09:17:10.000Z</time>
      </trkpt>
      <trkpt lat="47.33714" lon="-1.34586">
        <ele>130</ele>
        <time>2021-07-16T09:17:12.000Z</time>
      </trkpt>
      <trkpt lat="47.33705" lon="-1.34575">
        <ele>130</ele>
        <time>2021-07-16T09:17:14.000Z</time>
      </trkpt>
      <trkpt lat="47.33696" lon="-1.34561">
        <ele>130</ele>
        <time>2021-07-16T09:17:16.000Z</time>
      </trkpt>
      <trkpt lat="47.33686" lon="-1.34548">
        <ele>130</ele>
        <time>2021-07-16T09:17:18.000Z</time>
      </trkpt>
      <trkpt lat="47.33677" lon="-1.34536">
        <ele>129</ele>
        <time>2021-07-16T09:17:20.000Z</time>
      </trkpt>
      <trkpt lat="47.33667" lon="-1.34522">
        <ele>129</ele>
        <time>2021-07-16T09:17:22.000Z</time>
      </trkpt>
      <trkpt lat="47.33658" lon="-1.34509">
        <ele>129</ele>
        <time>2021-07-16T09:17:24.000Z</time>
      </trkpt>
      <trkpt lat="47.33649" lon="-1.34496">
        <ele>129</ele>
        <time>2021-07-16T09:17:26.000Z</time>
      </trkpt>
      <trkpt lat="47.3364" lon="-1.34484">
        <ele>130</ele>
        <time>2021-07-16T09:17:28.000Z</time>
      </trkpt>
      <trkpt lat="47.33629" lon="-1.34474">
        <ele>130</ele>
        <time>2021-07-16T09:17:30.000Z</time>
      </trkpt>
      <trkpt lat="47.33617" lon="-1.34465">
        <ele>130</ele>
        <time>2021-07-16T09:17:32.000Z</time>
      </trkpt>
      <trkpt lat="47.33605" lon="-1.34458">
        <ele>130</ele>
        <time>2021-07-16T09:17:34.000Z</time>
      </trkpt>
      <trkpt lat="47.33593" lon="-1.34452">
        <ele>130</ele>
        <time>2021-07-16T09:17:36.000Z</time>
      </trkpt>
      <trkpt lat="47.3358" lon="-1.34446">
        <ele>130</ele>
        <time>2021-07-16T09:17:38.000Z</time>
      </trkpt>
      <trkpt lat="47.33568" lon="-1.3444">
        <ele>129</ele>
        <time>2021-07-16T09:17:40.000Z</time>
      </trkpt>
      <trkpt lat="47.33556" lon="-1.34434">
        <ele>129</ele>
        <time>2021-07-16T09:17:42.000Z</time>
      </trkpt>
      <trkpt lat="47.33543" lon="-1.34427">
        <ele>129</ele>
        <time>2021-07-16T09:17:44.000Z</time>
      </trkpt>
      <trkpt lat="47.3353" lon="-1.34419">
        <ele>129</ele>
        <time>2021-07-16T09:17:46.000Z</time>
      </trkpt>
      <trkpt lat="47.33518" lon="-1.34413">
        <ele>129</ele>
        <time>2021-07-16T09:17:48.000Z</time>
      </trkpt>
      <trkpt lat="47.33506" lon="-1.34408">
        <ele>129</ele>
        <time>2021-07-16T09:17:50.000Z</time>
      </trkpt>
      <trkpt lat="47.33494" lon="-1.34402">
        <ele>129</ele>
        <time>2021-07-16T09:17:52.000Z</time>
      </trkpt>
      <trkpt lat="47.33482" lon="-1.34396">
        <ele>129</ele>
        <time>2021-07-16T09:17:54.000Z</time>
      </trkpt>
      <trkpt lat="47.33469" lon="-1.34389">
        <ele>128</ele>
        <time>2021-07-16T09:17:56.000Z</time>
      </trkpt>
      <trkpt lat="47.33457" lon="-1.34383">
        <ele>128</ele>
        <time>2021-07-16T09:17:58.000Z</time>
      </trkpt>
      <trkpt lat="47.33445" lon="-1.34377">
        <ele>128</ele>
        <time>2021-07-16T09:18:00.000Z</time>
      </trkpt>
      <trkpt lat="47.33431" lon="-1.3437">
        <ele>127</ele>
        <time>2021-07-16T09:18:02.000Z</time>
      </trkpt>
      <trkpt lat="47.33418" lon="-1.34365">
        <ele>127</ele>
        <time>2021-07-16T09:18:04.000Z</time>
      </trkpt>
      <trkpt lat="47.33405" lon="-1.34359">
        <ele>127</ele>
        <time>2021-07-16T09:18:06.000Z</time>
      </trkpt>
      <trkpt lat="47.33392" lon="-1.34353">
        <ele>127</ele>
        <time>2021-07-16T09:18:08.000Z</time>
      </trkpt>
      <trkpt lat="47.33379" lon="-1.34347">
        <ele>127</ele>
        <time>2021-07-16T09:18:10.000Z</time>
      </trkpt>
      <trkpt lat="47.33367" lon="-1.34342">
        <ele>127</ele>
        <time>2021-07-16T09:18:12.000Z</time>
      </trkpt>
      <trkpt lat="47.33354" lon="-1.34336">
        <ele>126</ele>
        <time>2021-07-16T09:18:14.000Z</time>
      </trkpt>
      <trkpt lat="47.33341" lon="-1.34329">
        <ele>126</ele>
        <time>2021-07-16T09:18:16.000Z</time>
      </trkpt>
      <trkpt lat="47.33327" lon="-1.34322">
        <ele>126</ele>
        <time>2021-07-16T09:18:18.000Z</time>
      </trkpt>
      <trkpt lat="47.33314" lon="-1.34317">
        <ele>126</ele>
        <time>2021-07-16T09:18:20.000Z</time>
      </trkpt>
      <trkpt lat="47.33301" lon="-1.34313">
        <ele>126</ele>
        <time>2021-07-16T09:18:22.000Z</time>
      </trkpt>
      <trkpt lat="47.33288" lon="-1.3431">
        <ele>126</ele>
        <time>2021-07-16T09:18:24.000Z</time>
      </trkpt>
      <trkpt lat="47.33275" lon="-1.34308">
        <ele>126</ele>
        <time>2021-07-16T09:18:26.000Z</time>
      </trkpt>
      <trkpt lat="47.33262" lon="-1.34306">
        <ele>126</ele>
        <time>2021-07-16T09:18:28.000Z</time>
      </trkpt>
      <trkpt lat="47.33248" lon="-1.34304">
        <ele>126</ele>
        <time>2021-07-16T09:18:30.000Z</time>
      </trkpt>
      <trkpt lat="47.33235" lon="-1.34302">
        <ele>126</ele>
        <time>2021-07-16T09:18:32.000Z</time>
      </trkpt>
      <trkpt lat="47.33221" lon="-1.34301">
        <ele>126</ele>
        <time>2021-07-16T09:18:34.000Z</time>
      </trkpt>
      <trkpt lat="47.33207" lon="-1.34299">
        <ele>125</ele>
        <time>2021-07-16T09:18:36.000Z</time>
      </trkpt>
      <trkpt lat="47.33194" lon="-1.34297">
        <ele>125</ele>
        <time>2021-07-16T09:18:38.000Z</time>
      </trkpt>
      <trkpt lat="47.3318" lon="-1.34294">
        <ele>125</ele>
        <time>2021-07-16T09:18:40.000Z</time>
      </trkpt>
      <trkpt lat="47.33167" lon="-1.34291">
        <ele>124</ele>
        <time>2021-07-16T09:18:42.000Z</time>
      </trkpt>
      <trkpt lat="47.33154" lon="-1.34286">
        <ele>124</ele>
        <time>2021-07-16T09:18:44.000Z</time>
      </trkpt>
      <trkpt lat="47.33141" lon="-1.34279">
        <ele>124</ele>
        <time>2021-07-16T09:18:46.000Z</time>
      </trkpt>
      <trkpt lat="47.33129" lon="-1.34271">
        <ele>123</ele>
        <time>2021-07-16T09:18:48.000Z</time>
      </trkpt>
      <trkpt lat="47.33116" lon="-1.34262">
        <ele>122</ele>
        <time>2021-07-16T09:18:50.000Z</time>
      </trkpt>
      <trkpt lat="47.33102" lon="-1.34254">
        <ele>122</ele>
        <time>2021-07-16T09:18:52.000Z</time>
      </trkpt>
      <trkpt lat="47.33089" lon="-1.34244">
        <ele>121</ele>
        <time>2021-07-16T09:18:54.000Z</time>
      </trkpt>
      <trkpt lat="47.33076" lon="-1.34235">
        <ele>121</ele>
        <time>2021-07-16T09:18:56.000Z</time>
      </trkpt>
      <trkpt lat="47.33061" lon="-1.34225">
        <ele>120</ele>
        <time>2021-07-16T09:18:58.000Z</time>
      </trkpt>
      <trkpt lat="47.33047" lon="-1.34216">
        <ele>119</ele>
        <time>2021-07-16T09:19:00.000Z</time>
      </trkpt>
      <trkpt lat="47.33032" lon="-1.34205">
        <ele>117</ele>
        <time>2021-07-16T09:19:02.000Z</time>
      </trkpt>
      <trkpt lat="47.33018" lon="-1.34194">
        <ele>117</ele>
        <time>2021-07-16T09:19:04.000Z</time>
      </trkpt>
      <trkpt lat="47.33001" lon="-1.34184">
        <ele>116</ele>
        <time>2021-07-16T09:19:06.000Z</time>
      </trkpt>
      <trkpt lat="47.32986" lon="-1.34173">
        <ele>116</ele>
        <time>2021-07-16T09:19:08.000Z</time>
      </trkpt>
      <trkpt lat="47.32978" lon="-1.34165">
        <ele>116</ele>
        <time>2021-07-16T09:19:09.000Z</time>
      </trkpt>
      <trkpt lat="47.3297" lon="-1.34157">
        <ele>116</ele>
        <time>2021-07-16T09:19:10.000Z</time>
      </trkpt>
      <trkpt lat="47.32963" lon="-1.34147">
        <ele>116</ele>
        <time>2021-07-16T09:19:11.000Z</time>
      </trkpt>
      <trkpt lat="47.32957" lon="-1.34137">
        <ele>115</ele>
        <time>2021-07-16T09:19:12.000Z</time>
      </trkpt>
      <trkpt lat="47.32946" lon="-1.34115">
        <ele>114</ele>
        <time>2021-07-16T09:19:14.000Z</time>
      </trkpt>
      <trkpt lat="47.32942" lon="-1.34102">
        <ele>114</ele>
        <time>2021-07-16T09:19:15.000Z</time>
      </trkpt>
      <trkpt lat="47.32938" lon="-1.34089">
        <ele>114</ele>
        <time>2021-07-16T09:19:16.000Z</time>
      </trkpt>
      <trkpt lat="47.32935" lon="-1.34076">
        <ele>113</ele>
        <time>2021-07-16T09:19:17.000Z</time>
      </trkpt>
      <trkpt lat="47.32935" lon="-1.34062">
        <ele>113</ele>
        <time>2021-07-16T09:19:18.000Z</time>
      </trkpt>
      <trkpt lat="47.32936" lon="-1.34048">
        <ele>113</ele>
        <time>2021-07-16T09:19:19.000Z</time>
      </trkpt>
      <trkpt lat="47.32939" lon="-1.34035">
        <ele>113</ele>
        <time>2021-07-16T09:19:20.000Z</time>
      </trkpt>
      <trkpt lat="47.32942" lon="-1.34021">
        <ele>112</ele>
        <time>2021-07-16T09:19:21.000Z</time>
      </trkpt>
      <trkpt lat="47.32945" lon="-1.34009">
        <ele>112</ele>
        <time>2021-07-16T09:19:22.000Z</time>
      </trkpt>
      <trkpt lat="47.32949" lon="-1.33996">
        <ele>111</ele>
        <time>2021-07-16T09:19:23.000Z</time>
      </trkpt>
      <trkpt lat="47.32953" lon="-1.33984">
        <ele>110</ele>
        <time>2021-07-16T09:19:24.000Z</time>
      </trkpt>
      <trkpt lat="47.32957" lon="-1.33971">
        <ele>110</ele>
        <time>2021-07-16T09:19:25.000Z</time>
      </trkpt>
      <trkpt lat="47.32962" lon="-1.33959">
        <ele>109</ele>
        <time>2021-07-16T09:19:26.000Z</time>
      </trkpt>
      <trkpt lat="47.32966" lon="-1.33947">
        <ele>108</ele>
        <time>2021-07-16T09:19:27.000Z</time>
      </trkpt>
      <trkpt lat="47.32971" lon="-1.33936">
        <ele>108</ele>
        <time>2021-07-16T09:19:28.000Z</time>
      </trkpt>
      <trkpt lat="47.32976" lon="-1.33924">
        <ele>107</ele>
        <time>2021-07-16T09:19:29.000Z</time>
      </trkpt>
      <trkpt lat="47.3298" lon="-1.33912">
        <ele>107</ele>
        <time>2021-07-16T09:19:30.000Z</time>
      </trkpt>
      <trkpt lat="47.32985" lon="-1.33899">
        <ele>107</ele>
        <time>2021-07-16T09:19:31.000Z</time>
      </trkpt>
      <trkpt lat="47.32989" lon="-1.33887">
        <ele>106</ele>
        <time>2021-07-16T09:19:32.000Z</time>
      </trkpt>
      <trkpt lat="47.32994" lon="-1.33875">
        <ele>106</ele>
        <time>2021-07-16T09:19:33.000Z</time>
      </trkpt>
      <trkpt lat="47.32998" lon="-1.33863">
        <ele>106</ele>
        <time>2021-07-16T09:19:34.000Z</time>
      </trkpt>
      <trkpt lat="47.33003" lon="-1.33851">
        <ele>106</ele>
        <time>2021-07-16T09:19:35.000Z</time>
      </trkpt>
      <trkpt lat="47.33008" lon="-1.33839">
        <ele>105</ele>
        <time>2021-07-16T09:19:36.000Z</time>
      </trkpt>
      <trkpt lat="47.33012" lon="-1.33826">
        <ele>105</ele>
        <time>2021-07-16T09:19:37.000Z</time>
      </trkpt>
      <trkpt lat="47.33017" lon="-1.33814">
        <ele>104</ele>
        <time>2021-07-16T09:19:38.000Z</time>
      </trkpt>
      <trkpt lat="47.33021" lon="-1.33802">
        <ele>103</ele>
        <time>2021-07-16T09:19:39.000Z</time>
      </trkpt>
      <trkpt lat="47.33027" lon="-1.33789">
        <ele>102</ele>
        <time>2021-07-16T09:19:40.000Z</time>
      </trkpt>
      <trkpt lat="47.33032" lon="-1.33777">
        <ele>102</ele>
        <time>2021-07-16T09:19:41.000Z</time>
      </trkpt>
      <trkpt lat="47.33038" lon="-1.33766">
        <ele>101</ele>
        <time>2021-07-16T09:19:42.000Z</time>
      </trkpt>
      <trkpt lat="47.33044" lon="-1.33755">
        <ele>101</ele>
        <time>2021-07-16T09:19:43.000Z</time>
      </trkpt>
      <trkpt lat="47.3305" lon="-1.33743">
        <ele>101</ele>
        <time>2021-07-16T09:19:44.000Z</time>
      </trkpt>
      <trkpt lat="47.33057" lon="-1.33732">
        <ele>100</ele>
        <time>2021-07-16T09:19:45.000Z</time>
      </trkpt>
      <trkpt lat="47.33063" lon="-1.33721">
        <ele>100</ele>
        <time>2021-07-16T09:19:46.000Z</time>
      </trkpt>
      <trkpt lat="47.33069" lon="-1.33709">
        <ele>99</ele>
        <time>2021-07-16T09:19:47.000Z</time>
      </trkpt>
      <trkpt lat="47.33075" lon="-1.33697">
        <ele>98</ele>
        <time>2021-07-16T09:19:48.000Z</time>
      </trkpt>
      <trkpt lat="47.33081" lon="-1.33685">
        <ele>98</ele>
        <time>2021-07-16T09:19:49.000Z</time>
      </trkpt>
      <trkpt lat="47.33085" lon="-1.33672">
        <ele>97</ele>
        <time>2021-07-16T09:19:50.000Z</time>
      </trkpt>
      <trkpt lat="47.3309" lon="-1.33658">
        <ele>96</ele>
        <time>2021-07-16T09:19:51.000Z</time>
      </trkpt>
      <trkpt lat="47.33095" lon="-1.33645">
        <ele>96</ele>
        <time>2021-07-16T09:19:52.000Z</time>
      </trkpt>
      <trkpt lat="47.33099" lon="-1.33631">
        <ele>95</ele>
        <time>2021-07-16T09:19:53.000Z</time>
      </trkpt>
      <trkpt lat="47.33103" lon="-1.33617">
        <ele>95</ele>
        <time>2021-07-16T09:19:54.000Z</time>
      </trkpt>
      <trkpt lat="47.33107" lon="-1.33603">
        <ele>94</ele>
        <time>2021-07-16T09:19:55.000Z</time>
      </trkpt>
      <trkpt lat="47.33111" lon="-1.33589">
        <ele>93</ele>
        <time>2021-07-16T09:19:56.000Z</time>
      </trkpt>
      <trkpt lat="47.33115" lon="-1.33576">
        <ele>93</ele>
        <time>2021-07-16T09:19:57.000Z</time>
      </trkpt>
      <trkpt lat="47.33119" lon="-1.33562">
        <ele>93</ele>
        <time>2021-07-16T09:19:58.000Z</time>
      </trkpt>
      <trkpt lat="47.33122" lon="-1.33548">
        <ele>93</ele>
        <time>2021-07-16T09:19:59.000Z</time>
      </trkpt>
      <trkpt lat="47.33124" lon="-1.33534">
        <ele>93</ele>
        <time>2021-07-16T09:20:00.000Z</time>
      </trkpt>
      <trkpt lat="47.33123" lon="-1.33518">
        <ele>92</ele>
        <time>2021-07-16T09:20:01.000Z</time>
      </trkpt>
      <trkpt lat="47.3312" lon="-1.33504">
        <ele>92</ele>
        <time>2021-07-16T09:20:02.000Z</time>
      </trkpt>
      <trkpt lat="47.33115" lon="-1.33489">
        <ele>92</ele>
        <time>2021-07-16T09:20:03.000Z</time>
      </trkpt>
      <trkpt lat="47.33109" lon="-1.33476">
        <ele>92</ele>
        <time>2021-07-16T09:20:04.000Z</time>
      </trkpt>
      <trkpt lat="47.33102" lon="-1.33465">
        <ele>91</ele>
        <time>2021-07-16T09:20:05.000Z</time>
      </trkpt>
      <trkpt lat="47.33094" lon="-1.33454">
        <ele>90</ele>
        <time>2021-07-16T09:20:06.000Z</time>
      </trkpt>
      <trkpt lat="47.33086" lon="-1.33446">
        <ele>90</ele>
        <time>2021-07-16T09:20:07.000Z</time>
      </trkpt>
      <trkpt lat="47.33077" lon="-1.33437">
        <ele>89</ele>
        <time>2021-07-16T09:20:08.000Z</time>
      </trkpt>
      <trkpt lat="47.33068" lon="-1.33429">
        <ele>89</ele>
        <time>2021-07-16T09:20:09.000Z</time>
      </trkpt>
      <trkpt lat="47.33059" lon="-1.3342">
        <ele>89</ele>
        <time>2021-07-16T09:20:10.000Z</time>
      </trkpt>
      <trkpt lat="47.33051" lon="-1.33411">
        <ele>89</ele>
        <time>2021-07-16T09:20:11.000Z</time>
      </trkpt>
      <trkpt lat="47.33043" lon="-1.33403">
        <ele>88</ele>
        <time>2021-07-16T09:20:12.000Z</time>
      </trkpt>
      <trkpt lat="47.33035" lon="-1.33393">
        <ele>88</ele>
        <time>2021-07-16T09:20:13.000Z</time>
      </trkpt>
      <trkpt lat="47.33027" lon="-1.33385">
        <ele>87</ele>
        <time>2021-07-16T09:20:14.000Z</time>
      </trkpt>
      <trkpt lat="47.33019" lon="-1.33376">
        <ele>87</ele>
        <time>2021-07-16T09:20:15.000Z</time>
      </trkpt>
      <trkpt lat="47.33011" lon="-1.33367">
        <ele>87</ele>
        <time>2021-07-16T09:20:16.000Z</time>
      </trkpt>
      <trkpt lat="47.33004" lon="-1.33358">
        <ele>87</ele>
        <time>2021-07-16T09:20:17.000Z</time>
      </trkpt>
      <trkpt lat="47.32996" lon="-1.33349">
        <ele>87</ele>
        <time>2021-07-16T09:20:18.000Z</time>
      </trkpt>
      <trkpt lat="47.32988" lon="-1.33339">
        <ele>86</ele>
        <time>2021-07-16T09:20:19.000Z</time>
      </trkpt>
      <trkpt lat="47.32981" lon="-1.3333">
        <ele>85</ele>
        <time>2021-07-16T09:20:20.000Z</time>
      </trkpt>
      <trkpt lat="47.32973" lon="-1.33321">
        <ele>84</ele>
        <time>2021-07-16T09:20:21.000Z</time>
      </trkpt>
      <trkpt lat="47.32964" lon="-1.33312">
        <ele>84</ele>
        <time>2021-07-16T09:20:22.000Z</time>
      </trkpt>
      <trkpt lat="47.32957" lon="-1.33303">
        <ele>84</ele>
        <time>2021-07-16T09:20:23.000Z</time>
      </trkpt>
      <trkpt lat="47.32949" lon="-1.33294">
        <ele>83</ele>
        <time>2021-07-16T09:20:24.000Z</time>
      </trkpt>
      <trkpt lat="47.32941" lon="-1.33285">
        <ele>82</ele>
        <time>2021-07-16T09:20:25.000Z</time>
      </trkpt>
      <trkpt lat="47.32933" lon="-1.33275">
        <ele>82</ele>
        <time>2021-07-16T09:20:26.000Z</time>
      </trkpt>
      <trkpt lat="47.32925" lon="-1.33267">
        <ele>81</ele>
        <time>2021-07-16T09:20:27.000Z</time>
      </trkpt>
      <trkpt lat="47.32917" lon="-1.33258">
        <ele>80</ele>
        <time>2021-07-16T09:20:28.000Z</time>
      </trkpt>
      <trkpt lat="47.32908" lon="-1.33249">
        <ele>80</ele>
        <time>2021-07-16T09:20:29.000Z</time>
      </trkpt>
      <trkpt lat="47.32899" lon="-1.3324">
        <ele>80</ele>
        <time>2021-07-16T09:20:30.000Z</time>
      </trkpt>
      <trkpt lat="47.32891" lon="-1.33231">
        <ele>80</ele>
        <time>2021-07-16T09:20:31.000Z</time>
      </trkpt>
      <trkpt lat="47.32882" lon="-1.33222">
        <ele>79</ele>
        <time>2021-07-16T09:20:32.000Z</time>
      </trkpt>
      <trkpt lat="47.32864" lon="-1.33207">
        <ele>79</ele>
        <time>2021-07-16T09:20:34.000Z</time>
      </trkpt>
      <trkpt lat="47.32854" lon="-1.33199">
        <ele>78</ele>
        <time>2021-07-16T09:20:35.000Z</time>
      </trkpt>
      <trkpt lat="47.32844" lon="-1.3319">
        <ele>77</ele>
        <time>2021-07-16T09:20:36.000Z</time>
      </trkpt>
      <trkpt lat="47.32835" lon="-1.33182">
        <ele>76</ele>
        <time>2021-07-16T09:20:37.000Z</time>
      </trkpt>
      <trkpt lat="47.32817" lon="-1.33166">
        <ele>74</ele>
        <time>2021-07-16T09:20:39.000Z</time>
      </trkpt>
      <trkpt lat="47.32808" lon="-1.33158">
        <ele>73</ele>
        <time>2021-07-16T09:20:40.000Z</time>
      </trkpt>
      <trkpt lat="47.32798" lon="-1.3315">
        <ele>73</ele>
        <time>2021-07-16T09:20:41.000Z</time>
      </trkpt>
      <trkpt lat="47.32788" lon="-1.33142">
        <ele>72</ele>
        <time>2021-07-16T09:20:42.000Z</time>
      </trkpt>
      <trkpt lat="47.32779" lon="-1.33134">
        <ele>71</ele>
        <time>2021-07-16T09:20:43.000Z</time>
      </trkpt>
      <trkpt lat="47.3277" lon="-1.33125">
        <ele>71</ele>
        <time>2021-07-16T09:20:44.000Z</time>
      </trkpt>
      <trkpt lat="47.32762" lon="-1.33116">
        <ele>70</ele>
        <time>2021-07-16T09:20:45.000Z</time>
      </trkpt>
      <trkpt lat="47.32745" lon="-1.33099">
        <ele>69</ele>
        <time>2021-07-16T09:20:47.000Z</time>
      </trkpt>
      <trkpt lat="47.32737" lon="-1.3309">
        <ele>68</ele>
        <time>2021-07-16T09:20:48.000Z</time>
      </trkpt>
      <trkpt lat="47.3272" lon="-1.33072">
        <ele>67</ele>
        <time>2021-07-16T09:20:50.000Z</time>
      </trkpt>
      <trkpt lat="47.32712" lon="-1.33064">
        <ele>67</ele>
        <time>2021-07-16T09:20:51.000Z</time>
      </trkpt>
      <trkpt lat="47.32703" lon="-1.33056">
        <ele>66</ele>
        <time>2021-07-16T09:20:52.000Z</time>
      </trkpt>
      <trkpt lat="47.32694" lon="-1.33049">
        <ele>65</ele>
        <time>2021-07-16T09:20:53.000Z</time>
      </trkpt>
      <trkpt lat="47.32677" lon="-1.33032">
        <ele>62</ele>
        <time>2021-07-16T09:20:55.000Z</time>
      </trkpt>
      <trkpt lat="47.32668" lon="-1.33023">
        <ele>61</ele>
        <time>2021-07-16T09:20:56.000Z</time>
      </trkpt>
      <trkpt lat="47.32659" lon="-1.33016">
        <ele>60</ele>
        <time>2021-07-16T09:20:57.000Z</time>
      </trkpt>
      <trkpt lat="47.32645" lon="-1.33003">
        <ele>60</ele>
        <time>2021-07-16T09:20:59.000Z</time>
      </trkpt>
      <trkpt lat="47.32636" lon="-1.32991">
        <ele>60</ele>
        <time>2021-07-16T09:21:01.000Z</time>
      </trkpt>
      <trkpt lat="47.32631" lon="-1.32978">
        <ele>61</ele>
        <time>2021-07-16T09:21:03.000Z</time>
      </trkpt>
      <trkpt lat="47.32625" lon="-1.32967">
        <ele>59</ele>
        <time>2021-07-16T09:21:05.000Z</time>
      </trkpt>
      <trkpt lat="47.32613" lon="-1.32955">
        <ele>59</ele>
        <time>2021-07-16T09:21:09.000Z</time>
      </trkpt>
      <trkpt lat="47.32604" lon="-1.32965">
        <ele>59</ele>
        <time>2021-07-16T09:21:12.000Z</time>
      </trkpt>
      <trkpt lat="47.32595" lon="-1.32978">
        <ele>59</ele>
        <time>2021-07-16T09:21:15.000Z</time>
      </trkpt>
      <trkpt lat="47.32589" lon="-1.32987">
        <ele>59</ele>
        <time>2021-07-16T09:21:17.000Z</time>
      </trkpt>
      <trkpt lat="47.32582" lon="-1.32997">
        <ele>60</ele>
        <time>2021-07-16T09:21:19.000Z</time>
      </trkpt>
      <trkpt lat="47.32572" lon="-1.33008">
        <ele>60</ele>
        <time>2021-07-16T09:21:22.000Z</time>
      </trkpt>
      <trkpt lat="47.32565" lon="-1.33016">
        <ele>60</ele>
        <time>2021-07-16T09:21:24.000Z</time>
      </trkpt>
      <trkpt lat="47.32557" lon="-1.33025">
        <ele>60</ele>
        <time>2021-07-16T09:21:26.000Z</time>
      </trkpt>
      <trkpt lat="47.32549" lon="-1.33033">
        <ele>60</ele>
        <time>2021-07-16T09:21:28.000Z</time>
      </trkpt>
      <trkpt lat="47.32539" lon="-1.33039">
        <ele>61</ele>
        <time>2021-07-16T09:21:30.000Z</time>
      </trkpt>
      <trkpt lat="47.32528" lon="-1.3305">
        <ele>61</ele>
        <time>2021-07-16T09:21:32.000Z</time>
      </trkpt>
      <trkpt lat="47.32518" lon="-1.33059">
        <ele>61</ele>
        <time>2021-07-16T09:21:34.000Z</time>
      </trkpt>
      <trkpt lat="47.32508" lon="-1.33069">
        <ele>60</ele>
        <time>2021-07-16T09:21:36.000Z</time>
      </trkpt>
      <trkpt lat="47.32498" lon="-1.33078">
        <ele>60</ele>
        <time>2021-07-16T09:21:38.000Z</time>
      </trkpt>
      <trkpt lat="47.32489" lon="-1.33089">
        <ele>60</ele>
        <time>2021-07-16T09:21:40.000Z</time>
      </trkpt>
      <trkpt lat="47.32479" lon="-1.33099">
        <ele>60</ele>
        <time>2021-07-16T09:21:42.000Z</time>
      </trkpt>
      <trkpt lat="47.3247" lon="-1.33109">
        <ele>59</ele>
        <time>2021-07-16T09:21:44.000Z</time>
      </trkpt>
      <trkpt lat="47.3246" lon="-1.33121">
        <ele>59</ele>
        <time>2021-07-16T09:21:46.000Z</time>
      </trkpt>
      <trkpt lat="47.32452" lon="-1.33132">
        <ele>59</ele>
        <time>2021-07-16T09:21:48.000Z</time>
      </trkpt>
      <trkpt lat="47.32443" lon="-1.33142">
        <ele>59</ele>
        <time>2021-07-16T09:21:50.000Z</time>
      </trkpt>
      <trkpt lat="47.32434" lon="-1.33144">
        <ele>59</ele>
        <time>2021-07-16T09:21:52.000Z</time>
      </trkpt>
      <trkpt lat="47.32422" lon="-1.33143">
        <ele>59</ele>
        <time>2021-07-16T09:21:55.000Z</time>
      </trkpt>
      <trkpt lat="47.32414" lon="-1.33151">
        <ele>60</ele>
        <time>2021-07-16T09:21:57.000Z</time>
      </trkpt>
      <trkpt lat="47.32407" lon="-1.33163">
        <ele>60</ele>
        <time>2021-07-16T09:21:59.000Z</time>
      </trkpt>
      <trkpt lat="47.32399" lon="-1.33175">
        <ele>59</ele>
        <time>2021-07-16T09:22:01.000Z</time>
      </trkpt>
      <trkpt lat="47.3239" lon="-1.33188">
        <ele>59</ele>
        <time>2021-07-16T09:22:03.000Z</time>
      </trkpt>
      <trkpt lat="47.32382" lon="-1.332">
        <ele>59</ele>
        <time>2021-07-16T09:22:05.000Z</time>
      </trkpt>
      <trkpt lat="47.32374" lon="-1.33214">
        <ele>59</ele>
        <time>2021-07-16T09:22:07.000Z</time>
      </trkpt>
      <trkpt lat="47.32367" lon="-1.33228">
        <ele>59</ele>
        <time>2021-07-16T09:22:09.000Z</time>
      </trkpt>
      <trkpt lat="47.3236" lon="-1.33242">
        <ele>59</ele>
        <time>2021-07-16T09:22:11.000Z</time>
      </trkpt>
      <trkpt lat="47.32352" lon="-1.33255">
        <ele>59</ele>
        <time>2021-07-16T09:22:13.000Z</time>
      </trkpt>
      <trkpt lat="47.32345" lon="-1.3327">
        <ele>59</ele>
        <time>2021-07-16T09:22:15.000Z</time>
      </trkpt>
      <trkpt lat="47.32338" lon="-1.33285">
        <ele>59</ele>
        <time>2021-07-16T09:22:17.000Z</time>
      </trkpt>
      <trkpt lat="47.32331" lon="-1.333">
        <ele>58</ele>
        <time>2021-07-16T09:22:19.000Z</time>
      </trkpt>
      <trkpt lat="47.32325" lon="-1.33315">
        <ele>58</ele>
        <time>2021-07-16T09:22:21.000Z</time>
      </trkpt>
      <trkpt lat="47.32317" lon="-1.3333">
        <ele>58</ele>
        <time>2021-07-16T09:22:23.000Z</time>
      </trkpt>
      <trkpt lat="47.32311" lon="-1.33345">
        <ele>58</ele>
        <time>2021-07-16T09:22:25.000Z</time>
      </trkpt>
      <trkpt lat="47.32306" lon="-1.33361">
        <ele>58</ele>
        <time>2021-07-16T09:22:27.000Z</time>
      </trkpt>
      <trkpt lat="47.32299" lon="-1.33376">
        <ele>57</ele>
        <time>2021-07-16T09:22:29.000Z</time>
      </trkpt>
      <trkpt lat="47.32292" lon="-1.3339">
        <ele>58</ele>
        <time>2021-07-16T09:22:31.000Z</time>
      </trkpt>
      <trkpt lat="47.32286" lon="-1.33405">
        <ele>58</ele>
        <time>2021-07-16T09:22:33.000Z</time>
      </trkpt>
      <trkpt lat="47.32279" lon="-1.3342">
        <ele>58</ele>
        <time>2021-07-16T09:22:35.000Z</time>
      </trkpt>
      <trkpt lat="47.32272" lon="-1.33434">
        <ele>58</ele>
        <time>2021-07-16T09:22:37.000Z</time>
      </trkpt>
      <trkpt lat="47.32265" lon="-1.33448">
        <ele>58</ele>
        <time>2021-07-16T09:22:39.000Z</time>
      </trkpt>
      <trkpt lat="47.32259" lon="-1.33462">
        <ele>58</ele>
        <time>2021-07-16T09:22:41.000Z</time>
      </trkpt>
      <trkpt lat="47.32252" lon="-1.33477">
        <ele>58</ele>
        <time>2021-07-16T09:22:43.000Z</time>
      </trkpt>
      <trkpt lat="47.32246" lon="-1.33491">
        <ele>58</ele>
        <time>2021-07-16T09:22:45.000Z</time>
      </trkpt>
      <trkpt lat="47.32239" lon="-1.33506">
        <ele>59</ele>
        <time>2021-07-16T09:22:47.000Z</time>
      </trkpt>
      <trkpt lat="47.32232" lon="-1.3352">
        <ele>58</ele>
        <time>2021-07-16T09:22:49.000Z</time>
      </trkpt>
      <trkpt lat="47.32225" lon="-1.33534">
        <ele>59</ele>
        <time>2021-07-16T09:22:51.000Z</time>
      </trkpt>
      <trkpt lat="47.32219" lon="-1.33548">
        <ele>58</ele>
        <time>2021-07-16T09:22:53.000Z</time>
      </trkpt>
      <trkpt lat="47.32214" lon="-1.33563">
        <ele>58</ele>
        <time>2021-07-16T09:22:55.000Z</time>
      </trkpt>
      <trkpt lat="47.32208" lon="-1.33576">
        <ele>58</ele>
        <time>2021-07-16T09:22:57.000Z</time>
      </trkpt>
      <trkpt lat="47.32202" lon="-1.3359">
        <ele>58</ele>
        <time>2021-07-16T09:22:59.000Z</time>
      </trkpt>
      <trkpt lat="47.32196" lon="-1.33603">
        <ele>58</ele>
        <time>2021-07-16T09:23:01.000Z</time>
      </trkpt>
      <trkpt lat="47.3219" lon="-1.33616">
        <ele>58</ele>
        <time>2021-07-16T09:23:03.000Z</time>
      </trkpt>
      <trkpt lat="47.32186" lon="-1.3363">
        <ele>58</ele>
        <time>2021-07-16T09:23:05.000Z</time>
      </trkpt>
      <trkpt lat="47.3218" lon="-1.33641">
        <ele>58</ele>
        <time>2021-07-16T09:23:07.000Z</time>
      </trkpt>
      <trkpt lat="47.32175" lon="-1.33659">
        <ele>58</ele>
        <time>2021-07-16T09:23:10.000Z</time>
      </trkpt>
      <trkpt lat="47.32169" lon="-1.33672">
        <ele>58</ele>
        <time>2021-07-16T09:23:12.000Z</time>
      </trkpt>
      <trkpt lat="47.32163" lon="-1.33686">
        <ele>58</ele>
        <time>2021-07-16T09:23:14.000Z</time>
      </trkpt>
      <trkpt lat="47.32158" lon="-1.33702">
        <ele>58</ele>
        <time>2021-07-16T09:23:16.000Z</time>
      </trkpt>
      <trkpt lat="47.32152" lon="-1.33717">
        <ele>57</ele>
        <time>2021-07-16T09:23:18.000Z</time>
      </trkpt>
      <trkpt lat="47.32145" lon="-1.33732">
        <ele>58</ele>
        <time>2021-07-16T09:23:20.000Z</time>
      </trkpt>
      <trkpt lat="47.32139" lon="-1.33747">
        <ele>57</ele>
        <time>2021-07-16T09:23:22.000Z</time>
      </trkpt>
      <trkpt lat="47.32133" lon="-1.33761">
        <ele>57</ele>
        <time>2021-07-16T09:23:24.000Z</time>
      </trkpt>
      <trkpt lat="47.32126" lon="-1.33776">
        <ele>57</ele>
        <time>2021-07-16T09:23:26.000Z</time>
      </trkpt>
      <trkpt lat="47.3212" lon="-1.33791">
        <ele>57</ele>
        <time>2021-07-16T09:23:28.000Z</time>
      </trkpt>
      <trkpt lat="47.32114" lon="-1.33805">
        <ele>57</ele>
        <time>2021-07-16T09:23:30.000Z</time>
      </trkpt>
      <trkpt lat="47.32107" lon="-1.3382">
        <ele>57</ele>
        <time>2021-07-16T09:23:32.000Z</time>
      </trkpt>
      <trkpt lat="47.321" lon="-1.33834">
        <ele>57</ele>
        <time>2021-07-16T09:23:34.000Z</time>
      </trkpt>
      <trkpt lat="47.32093" lon="-1.33848">
        <ele>58</ele>
        <time>2021-07-16T09:23:36.000Z</time>
      </trkpt>
      <trkpt lat="47.32086" lon="-1.33862">
        <ele>58</ele>
        <time>2021-07-16T09:23:38.000Z</time>
      </trkpt>
      <trkpt lat="47.32079" lon="-1.33876">
        <ele>58</ele>
        <time>2021-07-16T09:23:40.000Z</time>
      </trkpt>
      <trkpt lat="47.32072" lon="-1.33891">
        <ele>58</ele>
        <time>2021-07-16T09:23:42.000Z</time>
      </trkpt>
      <trkpt lat="47.32065" lon="-1.33904">
        <ele>58</ele>
        <time>2021-07-16T09:23:44.000Z</time>
      </trkpt>
      <trkpt lat="47.32058" lon="-1.33918">
        <ele>58</ele>
        <time>2021-07-16T09:23:46.000Z</time>
      </trkpt>
      <trkpt lat="47.32049" lon="-1.3393">
        <ele>58</ele>
        <time>2021-07-16T09:23:48.000Z</time>
      </trkpt>
      <trkpt lat="47.32041" lon="-1.33943">
        <ele>57</ele>
        <time>2021-07-16T09:23:50.000Z</time>
      </trkpt>
      <trkpt lat="47.32034" lon="-1.33955">
        <ele>58</ele>
        <time>2021-07-16T09:23:52.000Z</time>
      </trkpt>
      <trkpt lat="47.32028" lon="-1.33967">
        <ele>58</ele>
        <time>2021-07-16T09:23:54.000Z</time>
      </trkpt>
      <trkpt lat="47.32021" lon="-1.33982">
        <ele>58</ele>
        <time>2021-07-16T09:23:57.000Z</time>
      </trkpt>
      <trkpt lat="47.32013" lon="-1.33993">
        <ele>59</ele>
        <time>2021-07-16T09:23:59.000Z</time>
      </trkpt>
      <trkpt lat="47.32006" lon="-1.34004">
        <ele>59</ele>
        <time>2021-07-16T09:24:01.000Z</time>
      </trkpt>
      <trkpt lat="47.31998" lon="-1.34017">
        <ele>59</ele>
        <time>2021-07-16T09:24:03.000Z</time>
      </trkpt>
      <trkpt lat="47.3199" lon="-1.34028">
        <ele>59</ele>
        <time>2021-07-16T09:24:05.000Z</time>
      </trkpt>
      <trkpt lat="47.31982" lon="-1.34041">
        <ele>59</ele>
        <time>2021-07-16T09:24:07.000Z</time>
      </trkpt>
      <trkpt lat="47.31975" lon="-1.34054">
        <ele>59</ele>
        <time>2021-07-16T09:24:09.000Z</time>
      </trkpt>
      <trkpt lat="47.31967" lon="-1.34066">
        <ele>59</ele>
        <time>2021-07-16T09:24:11.000Z</time>
      </trkpt>
      <trkpt lat="47.31959" lon="-1.34078">
        <ele>59</ele>
        <time>2021-07-16T09:24:13.000Z</time>
      </trkpt>
      <trkpt lat="47.31951" lon="-1.3409">
        <ele>59</ele>
        <time>2021-07-16T09:24:15.000Z</time>
      </trkpt>
      <trkpt lat="47.31944" lon="-1.34103">
        <ele>60</ele>
        <time>2021-07-16T09:24:17.000Z</time>
      </trkpt>
      <trkpt lat="47.31937" lon="-1.34114">
        <ele>60</ele>
        <time>2021-07-16T09:24:19.000Z</time>
      </trkpt>
      <trkpt lat="47.31931" lon="-1.34124">
        <ele>60</ele>
        <time>2021-07-16T09:24:21.000Z</time>
      </trkpt>
      <trkpt lat="47.31924" lon="-1.34134">
        <ele>60</ele>
        <time>2021-07-16T09:24:23.000Z</time>
      </trkpt>
      <trkpt lat="47.31916" lon="-1.34145">
        <ele>60</ele>
        <time>2021-07-16T09:24:25.000Z</time>
      </trkpt>
      <trkpt lat="47.31908" lon="-1.34157">
        <ele>60</ele>
        <time>2021-07-16T09:24:27.000Z</time>
      </trkpt>
      <trkpt lat="47.31901" lon="-1.3417">
        <ele>60</ele>
        <time>2021-07-16T09:24:29.000Z</time>
      </trkpt>
      <trkpt lat="47.31891" lon="-1.34183">
        <ele>61</ele>
        <time>2021-07-16T09:24:31.000Z</time>
      </trkpt>
      <trkpt lat="47.31881" lon="-1.34196">
        <ele>60</ele>
        <time>2021-07-16T09:24:33.000Z</time>
      </trkpt>
      <trkpt lat="47.31871" lon="-1.3421">
        <ele>60</ele>
        <time>2021-07-16T09:24:35.000Z</time>
      </trkpt>
      <trkpt lat="47.31863" lon="-1.34224">
        <ele>60</ele>
        <time>2021-07-16T09:24:37.000Z</time>
      </trkpt>
      <trkpt lat="47.31853" lon="-1.34238">
        <ele>60</ele>
        <time>2021-07-16T09:24:39.000Z</time>
      </trkpt>
      <trkpt lat="47.31844" lon="-1.34251">
        <ele>60</ele>
        <time>2021-07-16T09:24:41.000Z</time>
      </trkpt>
      <trkpt lat="47.31836" lon="-1.34264">
        <ele>59</ele>
        <time>2021-07-16T09:24:43.000Z</time>
      </trkpt>
      <trkpt lat="47.31827" lon="-1.34278">
        <ele>59</ele>
        <time>2021-07-16T09:24:45.000Z</time>
      </trkpt>
      <trkpt lat="47.31819" lon="-1.34291">
        <ele>59</ele>
        <time>2021-07-16T09:24:47.000Z</time>
      </trkpt>
      <trkpt lat="47.3181" lon="-1.34304">
        <ele>60</ele>
        <time>2021-07-16T09:24:49.000Z</time>
      </trkpt>
      <trkpt lat="47.31801" lon="-1.34318">
        <ele>60</ele>
        <time>2021-07-16T09:24:51.000Z</time>
      </trkpt>
      <trkpt lat="47.31794" lon="-1.34331">
        <ele>60</ele>
        <time>2021-07-16T09:24:53.000Z</time>
      </trkpt>
      <trkpt lat="47.31785" lon="-1.34345">
        <ele>60</ele>
        <time>2021-07-16T09:24:55.000Z</time>
      </trkpt>
      <trkpt lat="47.31777" lon="-1.34358">
        <ele>58</ele>
        <time>2021-07-16T09:24:57.000Z</time>
      </trkpt>
      <trkpt lat="47.31768" lon="-1.34371">
        <ele>58</ele>
        <time>2021-07-16T09:24:59.000Z</time>
      </trkpt>
      <trkpt lat="47.31761" lon="-1.34383">
        <ele>58</ele>
        <time>2021-07-16T09:25:01.000Z</time>
      </trkpt>
      <trkpt lat="47.31754" lon="-1.34395">
        <ele>58</ele>
        <time>2021-07-16T09:25:03.000Z</time>
      </trkpt>
      <trkpt lat="47.31747" lon="-1.34408">
        <ele>58</ele>
        <time>2021-07-16T09:25:05.000Z</time>
      </trkpt>
      <trkpt lat="47.31739" lon="-1.34421">
        <ele>59</ele>
        <time>2021-07-16T09:25:07.000Z</time>
      </trkpt>
      <trkpt lat="47.3173" lon="-1.34434">
        <ele>59</ele>
        <time>2021-07-16T09:25:09.000Z</time>
      </trkpt>
      <trkpt lat="47.31721" lon="-1.34449">
        <ele>59</ele>
        <time>2021-07-16T09:25:11.000Z</time>
      </trkpt>
      <trkpt lat="47.31712" lon="-1.34462">
        <ele>59</ele>
        <time>2021-07-16T09:25:13.000Z</time>
      </trkpt>
      <trkpt lat="47.31703" lon="-1.34475">
        <ele>59</ele>
        <time>2021-07-16T09:25:15.000Z</time>
      </trkpt>
      <trkpt lat="47.31694" lon="-1.34488">
        <ele>59</ele>
        <time>2021-07-16T09:25:17.000Z</time>
      </trkpt>
      <trkpt lat="47.31686" lon="-1.34501">
        <ele>58</ele>
        <time>2021-07-16T09:25:19.000Z</time>
      </trkpt>
      <trkpt lat="47.31677" lon="-1.34515">
        <ele>58</ele>
        <time>2021-07-16T09:25:21.000Z</time>
      </trkpt>
      <trkpt lat="47.31669" lon="-1.34527">
        <ele>57</ele>
        <time>2021-07-16T09:25:23.000Z</time>
      </trkpt>
      <trkpt lat="47.31662" lon="-1.3454">
        <ele>57</ele>
        <time>2021-07-16T09:25:25.000Z</time>
      </trkpt>
      <trkpt lat="47.31654" lon="-1.34552">
        <ele>57</ele>
        <time>2021-07-16T09:25:27.000Z</time>
      </trkpt>
      <trkpt lat="47.31646" lon="-1.34566">
        <ele>57</ele>
        <time>2021-07-16T09:25:29.000Z</time>
      </trkpt>
      <trkpt lat="47.31639" lon="-1.34579">
        <ele>58</ele>
        <time>2021-07-16T09:25:31.000Z</time>
      </trkpt>
      <trkpt lat="47.31631" lon="-1.34591">
        <ele>57</ele>
        <time>2021-07-16T09:25:33.000Z</time>
      </trkpt>
      <trkpt lat="47.31623" lon="-1.34604">
        <ele>57</ele>
        <time>2021-07-16T09:25:35.000Z</time>
      </trkpt>
      <trkpt lat="47.31615" lon="-1.34616">
        <ele>58</ele>
        <time>2021-07-16T09:25:37.000Z</time>
      </trkpt>
      <trkpt lat="47.31607" lon="-1.34629">
        <ele>58</ele>
        <time>2021-07-16T09:25:39.000Z</time>
      </trkpt>
      <trkpt lat="47.31598" lon="-1.34643">
        <ele>58</ele>
        <time>2021-07-16T09:25:41.000Z</time>
      </trkpt>
      <trkpt lat="47.31589" lon="-1.34657">
        <ele>57</ele>
        <time>2021-07-16T09:25:43.000Z</time>
      </trkpt>
      <trkpt lat="47.31581" lon="-1.3467">
        <ele>57</ele>
        <time>2021-07-16T09:25:45.000Z</time>
      </trkpt>
      <trkpt lat="47.31574" lon="-1.34683">
        <ele>57</ele>
        <time>2021-07-16T09:25:47.000Z</time>
      </trkpt>
      <trkpt lat="47.31566" lon="-1.34696">
        <ele>57</ele>
        <time>2021-07-16T09:25:49.000Z</time>
      </trkpt>
      <trkpt lat="47.31557" lon="-1.34709">
        <ele>57</ele>
        <time>2021-07-16T09:25:51.000Z</time>
      </trkpt>
      <trkpt lat="47.31549" lon="-1.34723">
        <ele>57</ele>
        <time>2021-07-16T09:25:53.000Z</time>
      </trkpt>
      <trkpt lat="47.3154" lon="-1.34736">
        <ele>57</ele>
        <time>2021-07-16T09:25:55.000Z</time>
      </trkpt>
      <trkpt lat="47.31532" lon="-1.34749">
        <ele>58</ele>
        <time>2021-07-16T09:25:57.000Z</time>
      </trkpt>
      <trkpt lat="47.31524" lon="-1.34762">
        <ele>57</ele>
        <time>2021-07-16T09:25:59.000Z</time>
      </trkpt>
      <trkpt lat="47.31515" lon="-1.34774">
        <ele>57</ele>
        <time>2021-07-16T09:26:01.000Z</time>
      </trkpt>
      <trkpt lat="47.31508" lon="-1.34787">
        <ele>57</ele>
        <time>2021-07-16T09:26:03.000Z</time>
      </trkpt>
      <trkpt lat="47.315" lon="-1.34799">
        <ele>57</ele>
        <time>2021-07-16T09:26:05.000Z</time>
      </trkpt>
      <trkpt lat="47.31492" lon="-1.34813">
        <ele>57</ele>
        <time>2021-07-16T09:26:07.000Z</time>
      </trkpt>
      <trkpt lat="47.31484" lon="-1.34825">
        <ele>57</ele>
        <time>2021-07-16T09:26:09.000Z</time>
      </trkpt>
      <trkpt lat="47.31476" lon="-1.34838">
        <ele>58</ele>
        <time>2021-07-16T09:26:11.000Z</time>
      </trkpt>
      <trkpt lat="47.31468" lon="-1.34851">
        <ele>58</ele>
        <time>2021-07-16T09:26:13.000Z</time>
      </trkpt>
      <trkpt lat="47.3146" lon="-1.34864">
        <ele>58</ele>
        <time>2021-07-16T09:26:15.000Z</time>
      </trkpt>
      <trkpt lat="47.31452" lon="-1.34877">
        <ele>58</ele>
        <time>2021-07-16T09:26:17.000Z</time>
      </trkpt>
      <trkpt lat="47.31443" lon="-1.3489">
        <ele>58</ele>
        <time>2021-07-16T09:26:19.000Z</time>
      </trkpt>
      <trkpt lat="47.31435" lon="-1.34904">
        <ele>58</ele>
        <time>2021-07-16T09:26:21.000Z</time>
      </trkpt>
      <trkpt lat="47.31427" lon="-1.34918">
        <ele>58</ele>
        <time>2021-07-16T09:26:23.000Z</time>
      </trkpt>
      <trkpt lat="47.31418" lon="-1.34931">
        <ele>58</ele>
        <time>2021-07-16T09:26:25.000Z</time>
      </trkpt>
      <trkpt lat="47.31409" lon="-1.34944">
        <ele>58</ele>
        <time>2021-07-16T09:26:27.000Z</time>
      </trkpt>
      <trkpt lat="47.31401" lon="-1.34956">
        <ele>58</ele>
        <time>2021-07-16T09:26:29.000Z</time>
      </trkpt>
      <trkpt lat="47.31392" lon="-1.34968">
        <ele>58</ele>
        <time>2021-07-16T09:26:31.000Z</time>
      </trkpt>
      <trkpt lat="47.31385" lon="-1.34982">
        <ele>58</ele>
        <time>2021-07-16T09:26:33.000Z</time>
      </trkpt>
      <trkpt lat="47.31378" lon="-1.34995">
        <ele>58</ele>
        <time>2021-07-16T09:26:35.000Z</time>
      </trkpt>
      <trkpt lat="47.3137" lon="-1.35008">
        <ele>58</ele>
        <time>2021-07-16T09:26:37.000Z</time>
      </trkpt>
      <trkpt lat="47.31362" lon="-1.35022">
        <ele>58</ele>
        <time>2021-07-16T09:26:39.000Z</time>
      </trkpt>
      <trkpt lat="47.31354" lon="-1.35035">
        <ele>58</ele>
        <time>2021-07-16T09:26:41.000Z</time>
      </trkpt>
      <trkpt lat="47.31346" lon="-1.35047">
        <ele>59</ele>
        <time>2021-07-16T09:26:43.000Z</time>
      </trkpt>
      <trkpt lat="47.31339" lon="-1.35059">
        <ele>59</ele>
        <time>2021-07-16T09:26:45.000Z</time>
      </trkpt>
      <trkpt lat="47.31332" lon="-1.35072">
        <ele>59</ele>
        <time>2021-07-16T09:26:47.000Z</time>
      </trkpt>
      <trkpt lat="47.31325" lon="-1.35083">
        <ele>59</ele>
        <time>2021-07-16T09:26:49.000Z</time>
      </trkpt>
      <trkpt lat="47.31317" lon="-1.35089">
        <ele>58</ele>
        <time>2021-07-16T09:26:51.000Z</time>
      </trkpt>
      <trkpt lat="47.31306" lon="-1.35093">
        <ele>58</ele>
        <time>2021-07-16T09:26:53.000Z</time>
      </trkpt>
      <trkpt lat="47.31297" lon="-1.35105">
        <ele>58</ele>
        <time>2021-07-16T09:26:55.000Z</time>
      </trkpt>
      <trkpt lat="47.31291" lon="-1.35118">
        <ele>58</ele>
        <time>2021-07-16T09:26:57.000Z</time>
      </trkpt>
      <trkpt lat="47.31286" lon="-1.3513">
        <ele>58</ele>
        <time>2021-07-16T09:26:59.000Z</time>
      </trkpt>
      <trkpt lat="47.3128" lon="-1.35145">
        <ele>58</ele>
        <time>2021-07-16T09:27:01.000Z</time>
      </trkpt>
      <trkpt lat="47.31272" lon="-1.35159">
        <ele>58</ele>
        <time>2021-07-16T09:27:03.000Z</time>
      </trkpt>
      <trkpt lat="47.31264" lon="-1.35172">
        <ele>58</ele>
        <time>2021-07-16T09:27:05.000Z</time>
      </trkpt>
      <trkpt lat="47.31255" lon="-1.35186">
        <ele>58</ele>
        <time>2021-07-16T09:27:07.000Z</time>
      </trkpt>
      <trkpt lat="47.31247" lon="-1.35199">
        <ele>58</ele>
        <time>2021-07-16T09:27:09.000Z</time>
      </trkpt>
      <trkpt lat="47.31239" lon="-1.35212">
        <ele>58</ele>
        <time>2021-07-16T09:27:11.000Z</time>
      </trkpt>
      <trkpt lat="47.31231" lon="-1.35225">
        <ele>58</ele>
        <time>2021-07-16T09:27:13.000Z</time>
      </trkpt>
      <trkpt lat="47.31222" lon="-1.35238">
        <ele>58</ele>
        <time>2021-07-16T09:27:15.000Z</time>
      </trkpt>
      <trkpt lat="47.31214" lon="-1.35251">
        <ele>58</ele>
        <time>2021-07-16T09:27:17.000Z</time>
      </trkpt>
      <trkpt lat="47.31206" lon="-1.35264">
        <ele>58</ele>
        <time>2021-07-16T09:27:19.000Z</time>
      </trkpt>
      <trkpt lat="47.31198" lon="-1.35278">
        <ele>58</ele>
        <time>2021-07-16T09:27:21.000Z</time>
      </trkpt>
      <trkpt lat="47.3119" lon="-1.35291">
        <ele>58</ele>
        <time>2021-07-16T09:27:23.000Z</time>
      </trkpt>
      <trkpt lat="47.31182" lon="-1.35303">
        <ele>58</ele>
        <time>2021-07-16T09:27:25.000Z</time>
      </trkpt>
      <trkpt lat="47.31174" lon="-1.35316">
        <ele>58</ele>
        <time>2021-07-16T09:27:27.000Z</time>
      </trkpt>
      <trkpt lat="47.31166" lon="-1.35329">
        <ele>58</ele>
        <time>2021-07-16T09:27:29.000Z</time>
      </trkpt>
      <trkpt lat="47.31158" lon="-1.35342">
        <ele>57</ele>
        <time>2021-07-16T09:27:31.000Z</time>
      </trkpt>
      <trkpt lat="47.3115" lon="-1.35354">
        <ele>57</ele>
        <time>2021-07-16T09:27:33.000Z</time>
      </trkpt>
      <trkpt lat="47.31141" lon="-1.35368">
        <ele>57</ele>
        <time>2021-07-16T09:27:35.000Z</time>
      </trkpt>
      <trkpt lat="47.31132" lon="-1.3538">
        <ele>57</ele>
        <time>2021-07-16T09:27:37.000Z</time>
      </trkpt>
      <trkpt lat="47.31124" lon="-1.35393">
        <ele>57</ele>
        <time>2021-07-16T09:27:39.000Z</time>
      </trkpt>
      <trkpt lat="47.31116" lon="-1.35406">
        <ele>56</ele>
        <time>2021-07-16T09:27:41.000Z</time>
      </trkpt>
      <trkpt lat="47.31108" lon="-1.35419">
        <ele>56</ele>
        <time>2021-07-16T09:27:43.000Z</time>
      </trkpt>
      <trkpt lat="47.31099" lon="-1.35431">
        <ele>57</ele>
        <time>2021-07-16T09:27:45.000Z</time>
      </trkpt>
      <trkpt lat="47.3109" lon="-1.35443">
        <ele>57</ele>
        <time>2021-07-16T09:27:47.000Z</time>
      </trkpt>
      <trkpt lat="47.31082" lon="-1.35455">
        <ele>57</ele>
        <time>2021-07-16T09:27:49.000Z</time>
      </trkpt>
      <trkpt lat="47.31073" lon="-1.35467">
        <ele>57</ele>
        <time>2021-07-16T09:27:51.000Z</time>
      </trkpt>
      <trkpt lat="47.31064" lon="-1.35479">
        <ele>57</ele>
        <time>2021-07-16T09:27:53.000Z</time>
      </trkpt>
      <trkpt lat="47.31054" lon="-1.3549">
        <ele>57</ele>
        <time>2021-07-16T09:27:55.000Z</time>
      </trkpt>
      <trkpt lat="47.31044" lon="-1.35501">
        <ele>57</ele>
        <time>2021-07-16T09:27:57.000Z</time>
      </trkpt>
      <trkpt lat="47.31035" lon="-1.35512">
        <ele>56</ele>
        <time>2021-07-16T09:27:59.000Z</time>
      </trkpt>
      <trkpt lat="47.31026" lon="-1.35523">
        <ele>56</ele>
        <time>2021-07-16T09:28:01.000Z</time>
      </trkpt>
      <trkpt lat="47.31015" lon="-1.35535">
        <ele>56</ele>
        <time>2021-07-16T09:28:03.000Z</time>
      </trkpt>
      <trkpt lat="47.31005" lon="-1.35546">
        <ele>57</ele>
        <time>2021-07-16T09:28:05.000Z</time>
      </trkpt>
      <trkpt lat="47.30996" lon="-1.35556">
        <ele>57</ele>
        <time>2021-07-16T09:28:07.000Z</time>
      </trkpt>
      <trkpt lat="47.30986" lon="-1.35568">
        <ele>57</ele>
        <time>2021-07-16T09:28:09.000Z</time>
      </trkpt>
      <trkpt lat="47.30976" lon="-1.35579">
        <ele>57</ele>
        <time>2021-07-16T09:28:11.000Z</time>
      </trkpt>
      <trkpt lat="47.30966" lon="-1.3559">
        <ele>57</ele>
        <time>2021-07-16T09:28:13.000Z</time>
      </trkpt>
      <trkpt lat="47.30956" lon="-1.35601">
        <ele>57</ele>
        <time>2021-07-16T09:28:15.000Z</time>
      </trkpt>
      <trkpt lat="47.30947" lon="-1.35612">
        <ele>57</ele>
        <time>2021-07-16T09:28:17.000Z</time>
      </trkpt>
      <trkpt lat="47.30937" lon="-1.35623">
        <ele>57</ele>
        <time>2021-07-16T09:28:19.000Z</time>
      </trkpt>
      <trkpt lat="47.30928" lon="-1.35635">
        <ele>57</ele>
        <time>2021-07-16T09:28:21.000Z</time>
      </trkpt>
      <trkpt lat="47.30917" lon="-1.35646">
        <ele>57</ele>
        <time>2021-07-16T09:28:23.000Z</time>
      </trkpt>
      <trkpt lat="47.30908" lon="-1.35657">
        <ele>58</ele>
        <time>2021-07-16T09:28:25.000Z</time>
      </trkpt>
      <trkpt lat="47.30899" lon="-1.35668">
        <ele>57</ele>
        <time>2021-07-16T09:28:27.000Z</time>
      </trkpt>
      <trkpt lat="47.30889" lon="-1.3568">
        <ele>57</ele>
        <time>2021-07-16T09:28:29.000Z</time>
      </trkpt>
      <trkpt lat="47.30879" lon="-1.35691">
        <ele>58</ele>
        <time>2021-07-16T09:28:31.000Z</time>
      </trkpt>
      <trkpt lat="47.3087" lon="-1.35703">
        <ele>58</ele>
        <time>2021-07-16T09:28:33.000Z</time>
      </trkpt>
      <trkpt lat="47.3086" lon="-1.35714">
        <ele>58</ele>
        <time>2021-07-16T09:28:35.000Z</time>
      </trkpt>
      <trkpt lat="47.3085" lon="-1.35724">
        <ele>58</ele>
        <time>2021-07-16T09:28:37.000Z</time>
      </trkpt>
      <trkpt lat="47.3084" lon="-1.35736">
        <ele>58</ele>
        <time>2021-07-16T09:28:39.000Z</time>
      </trkpt>
      <trkpt lat="47.3083" lon="-1.35748">
        <ele>58</ele>
        <time>2021-07-16T09:28:41.000Z</time>
      </trkpt>
      <trkpt lat="47.30821" lon="-1.3576">
        <ele>58</ele>
        <time>2021-07-16T09:28:43.000Z</time>
      </trkpt>
      <trkpt lat="47.30811" lon="-1.35771">
        <ele>58</ele>
        <time>2021-07-16T09:28:45.000Z</time>
      </trkpt>
      <trkpt lat="47.30802" lon="-1.35781">
        <ele>58</ele>
        <time>2021-07-16T09:28:47.000Z</time>
      </trkpt>
      <trkpt lat="47.30793" lon="-1.35793">
        <ele>58</ele>
        <time>2021-07-16T09:28:49.000Z</time>
      </trkpt>
      <trkpt lat="47.30783" lon="-1.35804">
        <ele>58</ele>
        <time>2021-07-16T09:28:51.000Z</time>
      </trkpt>
      <trkpt lat="47.30773" lon="-1.35816">
        <ele>58</ele>
        <time>2021-07-16T09:28:53.000Z</time>
      </trkpt>
      <trkpt lat="47.30763" lon="-1.35827">
        <ele>58</ele>
        <time>2021-07-16T09:28:55.000Z</time>
      </trkpt>
      <trkpt lat="47.30753" lon="-1.35839">
        <ele>58</ele>
        <time>2021-07-16T09:28:57.000Z</time>
      </trkpt>
      <trkpt lat="47.30744" lon="-1.3585">
        <ele>58</ele>
        <time>2021-07-16T09:28:59.000Z</time>
      </trkpt>
      <trkpt lat="47.30734" lon="-1.35861">
        <ele>58</ele>
        <time>2021-07-16T09:29:01.000Z</time>
      </trkpt>
      <trkpt lat="47.30724" lon="-1.35872">
        <ele>58</ele>
        <time>2021-07-16T09:29:03.000Z</time>
      </trkpt>
      <trkpt lat="47.30714" lon="-1.35883">
        <ele>58</ele>
        <time>2021-07-16T09:29:05.000Z</time>
      </trkpt>
      <trkpt lat="47.30705" lon="-1.35893">
        <ele>58</ele>
        <time>2021-07-16T09:29:07.000Z</time>
      </trkpt>
      <trkpt lat="47.30695" lon="-1.35905">
        <ele>58</ele>
        <time>2021-07-16T09:29:09.000Z</time>
      </trkpt>
      <trkpt lat="47.30685" lon="-1.35916">
        <ele>58</ele>
        <time>2021-07-16T09:29:11.000Z</time>
      </trkpt>
      <trkpt lat="47.30675" lon="-1.35928">
        <ele>58</ele>
        <time>2021-07-16T09:29:13.000Z</time>
      </trkpt>
      <trkpt lat="47.30665" lon="-1.35938">
        <ele>58</ele>
        <time>2021-07-16T09:29:15.000Z</time>
      </trkpt>
      <trkpt lat="47.30656" lon="-1.3595">
        <ele>58</ele>
        <time>2021-07-16T09:29:17.000Z</time>
      </trkpt>
      <trkpt lat="47.30646" lon="-1.35961">
        <ele>58</ele>
        <time>2021-07-16T09:29:19.000Z</time>
      </trkpt>
      <trkpt lat="47.30637" lon="-1.35973">
        <ele>58</ele>
        <time>2021-07-16T09:29:21.000Z</time>
      </trkpt>
      <trkpt lat="47.30627" lon="-1.35985">
        <ele>58</ele>
        <time>2021-07-16T09:29:23.000Z</time>
      </trkpt>
      <trkpt lat="47.30618" lon="-1.35996">
        <ele>58</ele>
        <time>2021-07-16T09:29:25.000Z</time>
      </trkpt>
      <trkpt lat="47.30609" lon="-1.36006">
        <ele>57</ele>
        <time>2021-07-16T09:29:27.000Z</time>
      </trkpt>
      <trkpt lat="47.306" lon="-1.36015">
        <ele>57</ele>
        <time>2021-07-16T09:29:29.000Z</time>
      </trkpt>
      <trkpt lat="47.3059" lon="-1.36024">
        <ele>56</ele>
        <time>2021-07-16T09:29:31.000Z</time>
      </trkpt>
      <trkpt lat="47.30584" lon="-1.36038">
        <ele>57</ele>
        <time>2021-07-16T09:29:34.000Z</time>
      </trkpt>
      <trkpt lat="47.30578" lon="-1.36053">
        <ele>58</ele>
        <time>2021-07-16T09:29:37.000Z</time>
      </trkpt>
      <trkpt lat="47.30569" lon="-1.36064">
        <ele>58</ele>
        <time>2021-07-16T09:29:39.000Z</time>
      </trkpt>
      <trkpt lat="47.3056" lon="-1.36076">
        <ele>58</ele>
        <time>2021-07-16T09:29:41.000Z</time>
      </trkpt>
      <trkpt lat="47.30551" lon="-1.36088">
        <ele>58</ele>
        <time>2021-07-16T09:29:43.000Z</time>
      </trkpt>
      <trkpt lat="47.30543" lon="-1.36101">
        <ele>58</ele>
        <time>2021-07-16T09:29:45.000Z</time>
      </trkpt>
      <trkpt lat="47.30534" lon="-1.36114">
        <ele>58</ele>
        <time>2021-07-16T09:29:47.000Z</time>
      </trkpt>
      <trkpt lat="47.30526" lon="-1.36127">
        <ele>58</ele>
        <time>2021-07-16T09:29:49.000Z</time>
      </trkpt>
      <trkpt lat="47.30518" lon="-1.3614">
        <ele>58</ele>
        <time>2021-07-16T09:29:51.000Z</time>
      </trkpt>
      <trkpt lat="47.3051" lon="-1.36154">
        <ele>58</ele>
        <time>2021-07-16T09:29:53.000Z</time>
      </trkpt>
      <trkpt lat="47.30502" lon="-1.36168">
        <ele>57</ele>
        <time>2021-07-16T09:29:55.000Z</time>
      </trkpt>
      <trkpt lat="47.30494" lon="-1.36182">
        <ele>57</ele>
        <time>2021-07-16T09:29:57.000Z</time>
      </trkpt>
      <trkpt lat="47.30486" lon="-1.36197">
        <ele>57</ele>
        <time>2021-07-16T09:29:59.000Z</time>
      </trkpt>
      <trkpt lat="47.30478" lon="-1.36211">
        <ele>57</ele>
        <time>2021-07-16T09:30:01.000Z</time>
      </trkpt>
      <trkpt lat="47.30471" lon="-1.36225">
        <ele>57</ele>
        <time>2021-07-16T09:30:03.000Z</time>
      </trkpt>
      <trkpt lat="47.30463" lon="-1.3624">
        <ele>57</ele>
        <time>2021-07-16T09:30:05.000Z</time>
      </trkpt>
      <trkpt lat="47.30456" lon="-1.36255">
        <ele>57</ele>
        <time>2021-07-16T09:30:07.000Z</time>
      </trkpt>
      <trkpt lat="47.30449" lon="-1.36271">
        <ele>56</ele>
        <time>2021-07-16T09:30:09.000Z</time>
      </trkpt>
      <trkpt lat="47.30442" lon="-1.36285">
        <ele>56</ele>
        <time>2021-07-16T09:30:11.000Z</time>
      </trkpt>
      <trkpt lat="47.30434" lon="-1.363">
        <ele>56</ele>
        <time>2021-07-16T09:30:13.000Z</time>
      </trkpt>
      <trkpt lat="47.30427" lon="-1.36315">
        <ele>56</ele>
        <time>2021-07-16T09:30:15.000Z</time>
      </trkpt>
      <trkpt lat="47.3042" lon="-1.36329">
        <ele>56</ele>
        <time>2021-07-16T09:30:17.000Z</time>
      </trkpt>
      <trkpt lat="47.30414" lon="-1.36344">
        <ele>57</ele>
        <time>2021-07-16T09:30:19.000Z</time>
      </trkpt>
      <trkpt lat="47.30406" lon="-1.36359">
        <ele>57</ele>
        <time>2021-07-16T09:30:21.000Z</time>
      </trkpt>
      <trkpt lat="47.304" lon="-1.36374">
        <ele>56</ele>
        <time>2021-07-16T09:30:23.000Z</time>
      </trkpt>
      <trkpt lat="47.30392" lon="-1.36389">
        <ele>56</ele>
        <time>2021-07-16T09:30:25.000Z</time>
      </trkpt>
      <trkpt lat="47.30384" lon="-1.36405">
        <ele>55</ele>
        <time>2021-07-16T09:30:27.000Z</time>
      </trkpt>
      <trkpt lat="47.30377" lon="-1.3642">
        <ele>56</ele>
        <time>2021-07-16T09:30:29.000Z</time>
      </trkpt>
      <trkpt lat="47.30369" lon="-1.36435">
        <ele>56</ele>
        <time>2021-07-16T09:30:31.000Z</time>
      </trkpt>
      <trkpt lat="47.30362" lon="-1.3645">
        <ele>56</ele>
        <time>2021-07-16T09:30:33.000Z</time>
      </trkpt>
      <trkpt lat="47.30355" lon="-1.36465">
        <ele>56</ele>
        <time>2021-07-16T09:30:35.000Z</time>
      </trkpt>
      <trkpt lat="47.30348" lon="-1.3648">
        <ele>57</ele>
        <time>2021-07-16T09:30:37.000Z</time>
      </trkpt>
      <trkpt lat="47.3034" lon="-1.36496">
        <ele>57</ele>
        <time>2021-07-16T09:30:39.000Z</time>
      </trkpt>
      <trkpt lat="47.30332" lon="-1.36511">
        <ele>57</ele>
        <time>2021-07-16T09:30:41.000Z</time>
      </trkpt>
      <trkpt lat="47.30325" lon="-1.36526">
        <ele>57</ele>
        <time>2021-07-16T09:30:43.000Z</time>
      </trkpt>
      <trkpt lat="47.30318" lon="-1.3654">
        <ele>57</ele>
        <time>2021-07-16T09:30:45.000Z</time>
      </trkpt>
      <trkpt lat="47.3031" lon="-1.36556">
        <ele>57</ele>
        <time>2021-07-16T09:30:47.000Z</time>
      </trkpt>
      <trkpt lat="47.30304" lon="-1.36571">
        <ele>57</ele>
        <time>2021-07-16T09:30:49.000Z</time>
      </trkpt>
      <trkpt lat="47.30296" lon="-1.36587">
        <ele>56</ele>
        <time>2021-07-16T09:30:51.000Z</time>
      </trkpt>
      <trkpt lat="47.30288" lon="-1.36603">
        <ele>56</ele>
        <time>2021-07-16T09:30:53.000Z</time>
      </trkpt>
      <trkpt lat="47.30281" lon="-1.36618">
        <ele>56</ele>
        <time>2021-07-16T09:30:55.000Z</time>
      </trkpt>
      <trkpt lat="47.30272" lon="-1.36633">
        <ele>56</ele>
        <time>2021-07-16T09:30:57.000Z</time>
      </trkpt>
      <trkpt lat="47.30265" lon="-1.36648">
        <ele>56</ele>
        <time>2021-07-16T09:30:59.000Z</time>
      </trkpt>
      <trkpt lat="47.30257" lon="-1.36664">
        <ele>55</ele>
        <time>2021-07-16T09:31:01.000Z</time>
      </trkpt>
      <trkpt lat="47.3025" lon="-1.36679">
        <ele>55</ele>
        <time>2021-07-16T09:31:03.000Z</time>
      </trkpt>
      <trkpt lat="47.30243" lon="-1.36694">
        <ele>55</ele>
        <time>2021-07-16T09:31:05.000Z</time>
      </trkpt>
      <trkpt lat="47.30235" lon="-1.36709">
        <ele>55</ele>
        <time>2021-07-16T09:31:07.000Z</time>
      </trkpt>
      <trkpt lat="47.30229" lon="-1.36723">
        <ele>55</ele>
        <time>2021-07-16T09:31:09.000Z</time>
      </trkpt>
      <trkpt lat="47.30222" lon="-1.36738">
        <ele>55</ele>
        <time>2021-07-16T09:31:11.000Z</time>
      </trkpt>
      <trkpt lat="47.30214" lon="-1.36753">
        <ele>55</ele>
        <time>2021-07-16T09:31:13.000Z</time>
      </trkpt>
      <trkpt lat="47.30208" lon="-1.36767">
        <ele>55</ele>
        <time>2021-07-16T09:31:15.000Z</time>
      </trkpt>
      <trkpt lat="47.30201" lon="-1.36782">
        <ele>55</ele>
        <time>2021-07-16T09:31:17.000Z</time>
      </trkpt>
      <trkpt lat="47.30193" lon="-1.36796">
        <ele>55</ele>
        <time>2021-07-16T09:31:19.000Z</time>
      </trkpt>
      <trkpt lat="47.30186" lon="-1.36811">
        <ele>55</ele>
        <time>2021-07-16T09:31:21.000Z</time>
      </trkpt>
      <trkpt lat="47.30178" lon="-1.36826">
        <ele>55</ele>
        <time>2021-07-16T09:31:23.000Z</time>
      </trkpt>
      <trkpt lat="47.30171" lon="-1.3684">
        <ele>56</ele>
        <time>2021-07-16T09:31:25.000Z</time>
      </trkpt>
      <trkpt lat="47.30164" lon="-1.36855">
        <ele>56</ele>
        <time>2021-07-16T09:31:27.000Z</time>
      </trkpt>
      <trkpt lat="47.30158" lon="-1.3687">
        <ele>56</ele>
        <time>2021-07-16T09:31:29.000Z</time>
      </trkpt>
      <trkpt lat="47.3015" lon="-1.36884">
        <ele>57</ele>
        <time>2021-07-16T09:31:31.000Z</time>
      </trkpt>
      <trkpt lat="47.30143" lon="-1.36899">
        <ele>56</ele>
        <time>2021-07-16T09:31:33.000Z</time>
      </trkpt>
      <trkpt lat="47.30136" lon="-1.36914">
        <ele>56</ele>
        <time>2021-07-16T09:31:35.000Z</time>
      </trkpt>
      <trkpt lat="47.30129" lon="-1.36929">
        <ele>56</ele>
        <time>2021-07-16T09:31:37.000Z</time>
      </trkpt>
      <trkpt lat="47.30122" lon="-1.36943">
        <ele>56</ele>
        <time>2021-07-16T09:31:39.000Z</time>
      </trkpt>
      <trkpt lat="47.30117" lon="-1.36959">
        <ele>56</ele>
        <time>2021-07-16T09:31:41.000Z</time>
      </trkpt>
      <trkpt lat="47.30111" lon="-1.36974">
        <ele>56</ele>
        <time>2021-07-16T09:31:43.000Z</time>
      </trkpt>
      <trkpt lat="47.30105" lon="-1.36988">
        <ele>55</ele>
        <time>2021-07-16T09:31:45.000Z</time>
      </trkpt>
      <trkpt lat="47.30098" lon="-1.37002">
        <ele>56</ele>
        <time>2021-07-16T09:31:47.000Z</time>
      </trkpt>
      <trkpt lat="47.3009" lon="-1.37016">
        <ele>56</ele>
        <time>2021-07-16T09:31:49.000Z</time>
      </trkpt>
      <trkpt lat="47.30083" lon="-1.37031">
        <ele>56</ele>
        <time>2021-07-16T09:31:51.000Z</time>
      </trkpt>
      <trkpt lat="47.30075" lon="-1.37045">
        <ele>56</ele>
        <time>2021-07-16T09:31:53.000Z</time>
      </trkpt>
      <trkpt lat="47.30068" lon="-1.37059">
        <ele>56</ele>
        <time>2021-07-16T09:31:55.000Z</time>
      </trkpt>
      <trkpt lat="47.3006" lon="-1.37073">
        <ele>56</ele>
        <time>2021-07-16T09:31:57.000Z</time>
      </trkpt>
      <trkpt lat="47.30052" lon="-1.37088">
        <ele>56</ele>
        <time>2021-07-16T09:31:59.000Z</time>
      </trkpt>
      <trkpt lat="47.30044" lon="-1.37101">
        <ele>56</ele>
        <time>2021-07-16T09:32:01.000Z</time>
      </trkpt>
      <trkpt lat="47.30036" lon="-1.37115">
        <ele>56</ele>
        <time>2021-07-16T09:32:03.000Z</time>
      </trkpt>
      <trkpt lat="47.30028" lon="-1.37128">
        <ele>56</ele>
        <time>2021-07-16T09:32:05.000Z</time>
      </trkpt>
      <trkpt lat="47.3002" lon="-1.37139">
        <ele>56</ele>
        <time>2021-07-16T09:32:07.000Z</time>
      </trkpt>
      <trkpt lat="47.30012" lon="-1.37149">
        <ele>56</ele>
        <time>2021-07-16T09:32:09.000Z</time>
      </trkpt>
      <trkpt lat="47.30006" lon="-1.3716">
        <ele>55</ele>
        <time>2021-07-16T09:32:11.000Z</time>
      </trkpt>
      <trkpt lat="47.3" lon="-1.37169">
        <ele>55</ele>
        <time>2021-07-16T09:32:13.000Z</time>
      </trkpt>
      <trkpt lat="47.29992" lon="-1.37181">
        <ele>56</ele>
        <time>2021-07-16T09:32:15.000Z</time>
      </trkpt>
      <trkpt lat="47.29983" lon="-1.37196">
        <ele>56</ele>
        <time>2021-07-16T09:32:17.000Z</time>
      </trkpt>
      <trkpt lat="47.29974" lon="-1.3721">
        <ele>56</ele>
        <time>2021-07-16T09:32:19.000Z</time>
      </trkpt>
      <trkpt lat="47.29965" lon="-1.37223">
        <ele>57</ele>
        <time>2021-07-16T09:32:21.000Z</time>
      </trkpt>
      <trkpt lat="47.29957" lon="-1.37236">
        <ele>57</ele>
        <time>2021-07-16T09:32:23.000Z</time>
      </trkpt>
      <trkpt lat="47.29948" lon="-1.37249">
        <ele>57</ele>
        <time>2021-07-16T09:32:25.000Z</time>
      </trkpt>
      <trkpt lat="47.29939" lon="-1.37263">
        <ele>57</ele>
        <time>2021-07-16T09:32:27.000Z</time>
      </trkpt>
      <trkpt lat="47.29929" lon="-1.37278">
        <ele>57</ele>
        <time>2021-07-16T09:32:29.000Z</time>
      </trkpt>
      <trkpt lat="47.29919" lon="-1.37294">
        <ele>57</ele>
        <time>2021-07-16T09:32:31.000Z</time>
      </trkpt>
      <trkpt lat="47.29909" lon="-1.3731">
        <ele>56</ele>
        <time>2021-07-16T09:32:33.000Z</time>
      </trkpt>
      <trkpt lat="47.29898" lon="-1.37326">
        <ele>56</ele>
        <time>2021-07-16T09:32:35.000Z</time>
      </trkpt>
      <trkpt lat="47.29888" lon="-1.37342">
        <ele>56</ele>
        <time>2021-07-16T09:32:37.000Z</time>
      </trkpt>
      <trkpt lat="47.29879" lon="-1.37358">
        <ele>56</ele>
        <time>2021-07-16T09:32:39.000Z</time>
      </trkpt>
      <trkpt lat="47.29869" lon="-1.37372">
        <ele>56</ele>
        <time>2021-07-16T09:32:41.000Z</time>
      </trkpt>
      <trkpt lat="47.29859" lon="-1.37387">
        <ele>57</ele>
        <time>2021-07-16T09:32:43.000Z</time>
      </trkpt>
      <trkpt lat="47.29849" lon="-1.37402">
        <ele>56</ele>
        <time>2021-07-16T09:32:45.000Z</time>
      </trkpt>
      <trkpt lat="47.2984" lon="-1.37416">
        <ele>56</ele>
        <time>2021-07-16T09:32:47.000Z</time>
      </trkpt>
      <trkpt lat="47.29831" lon="-1.3743">
        <ele>56</ele>
        <time>2021-07-16T09:32:49.000Z</time>
      </trkpt>
      <trkpt lat="47.29822" lon="-1.37444">
        <ele>56</ele>
        <time>2021-07-16T09:32:51.000Z</time>
      </trkpt>
      <trkpt lat="47.29813" lon="-1.37458">
        <ele>56</ele>
        <time>2021-07-16T09:32:53.000Z</time>
      </trkpt>
      <trkpt lat="47.29804" lon="-1.37473">
        <ele>56</ele>
        <time>2021-07-16T09:32:55.000Z</time>
      </trkpt>
      <trkpt lat="47.29796" lon="-1.37487">
        <ele>55</ele>
        <time>2021-07-16T09:32:57.000Z</time>
      </trkpt>
      <trkpt lat="47.29787" lon="-1.37502">
        <ele>55</ele>
        <time>2021-07-16T09:32:59.000Z</time>
      </trkpt>
      <trkpt lat="47.29779" lon="-1.37518">
        <ele>55</ele>
        <time>2021-07-16T09:33:01.000Z</time>
      </trkpt>
      <trkpt lat="47.2977" lon="-1.37533">
        <ele>55</ele>
        <time>2021-07-16T09:33:03.000Z</time>
      </trkpt>
      <trkpt lat="47.29762" lon="-1.37549">
        <ele>55</ele>
        <time>2021-07-16T09:33:05.000Z</time>
      </trkpt>
      <trkpt lat="47.29754" lon="-1.37565">
        <ele>55</ele>
        <time>2021-07-16T09:33:07.000Z</time>
      </trkpt>
      <trkpt lat="47.29746" lon="-1.37581">
        <ele>55</ele>
        <time>2021-07-16T09:33:09.000Z</time>
      </trkpt>
      <trkpt lat="47.29738" lon="-1.37597">
        <ele>54</ele>
        <time>2021-07-16T09:33:11.000Z</time>
      </trkpt>
      <trkpt lat="47.2973" lon="-1.37614">
        <ele>54</ele>
        <time>2021-07-16T09:33:13.000Z</time>
      </trkpt>
      <trkpt lat="47.29721" lon="-1.3763">
        <ele>54</ele>
        <time>2021-07-16T09:33:15.000Z</time>
      </trkpt>
      <trkpt lat="47.29713" lon="-1.37645">
        <ele>54</ele>
        <time>2021-07-16T09:33:17.000Z</time>
      </trkpt>
      <trkpt lat="47.29705" lon="-1.37662">
        <ele>54</ele>
        <time>2021-07-16T09:33:19.000Z</time>
      </trkpt>
      <trkpt lat="47.29697" lon="-1.37678">
        <ele>54</ele>
        <time>2021-07-16T09:33:21.000Z</time>
      </trkpt>
      <trkpt lat="47.29689" lon="-1.37694">
        <ele>54</ele>
        <time>2021-07-16T09:33:23.000Z</time>
      </trkpt>
      <trkpt lat="47.29681" lon="-1.3771">
        <ele>54</ele>
        <time>2021-07-16T09:33:25.000Z</time>
      </trkpt>
      <trkpt lat="47.29673" lon="-1.37726">
        <ele>53</ele>
        <time>2021-07-16T09:33:27.000Z</time>
      </trkpt>
      <trkpt lat="47.29664" lon="-1.37741">
        <ele>53</ele>
        <time>2021-07-16T09:33:29.000Z</time>
      </trkpt>
      <trkpt lat="47.29656" lon="-1.37756">
        <ele>53</ele>
        <time>2021-07-16T09:33:31.000Z</time>
      </trkpt>
      <trkpt lat="47.29649" lon="-1.37771">
        <ele>53</ele>
        <time>2021-07-16T09:33:33.000Z</time>
      </trkpt>
      <trkpt lat="47.29641" lon="-1.37786">
        <ele>53</ele>
        <time>2021-07-16T09:33:35.000Z</time>
      </trkpt>
      <trkpt lat="47.29633" lon="-1.378">
        <ele>54</ele>
        <time>2021-07-16T09:33:37.000Z</time>
      </trkpt>
      <trkpt lat="47.29624" lon="-1.37814">
        <ele>54</ele>
        <time>2021-07-16T09:33:39.000Z</time>
      </trkpt>
      <trkpt lat="47.29617" lon="-1.3783">
        <ele>54</ele>
        <time>2021-07-16T09:33:41.000Z</time>
      </trkpt>
      <trkpt lat="47.29609" lon="-1.37846">
        <ele>54</ele>
        <time>2021-07-16T09:33:43.000Z</time>
      </trkpt>
      <trkpt lat="47.29602" lon="-1.37861">
        <ele>54</ele>
        <time>2021-07-16T09:33:45.000Z</time>
      </trkpt>
      <trkpt lat="47.29595" lon="-1.37878">
        <ele>54</ele>
        <time>2021-07-16T09:33:47.000Z</time>
      </trkpt>
      <trkpt lat="47.29587" lon="-1.37893">
        <ele>55</ele>
        <time>2021-07-16T09:33:49.000Z</time>
      </trkpt>
      <trkpt lat="47.2958" lon="-1.37908">
        <ele>55</ele>
        <time>2021-07-16T09:33:51.000Z</time>
      </trkpt>
      <trkpt lat="47.29574" lon="-1.37923">
        <ele>56</ele>
        <time>2021-07-16T09:33:53.000Z</time>
      </trkpt>
      <trkpt lat="47.29565" lon="-1.37947">
        <ele>55</ele>
        <time>2021-07-16T09:33:56.000Z</time>
      </trkpt>
      <trkpt lat="47.29559" lon="-1.37963">
        <ele>56</ele>
        <time>2021-07-16T09:33:58.000Z</time>
      </trkpt>
      <trkpt lat="47.29552" lon="-1.37979">
        <ele>56</ele>
        <time>2021-07-16T09:34:00.000Z</time>
      </trkpt>
      <trkpt lat="47.29546" lon="-1.37996">
        <ele>55</ele>
        <time>2021-07-16T09:34:02.000Z</time>
      </trkpt>
      <trkpt lat="47.2954" lon="-1.38012">
        <ele>55</ele>
        <time>2021-07-16T09:34:04.000Z</time>
      </trkpt>
      <trkpt lat="47.29533" lon="-1.38029">
        <ele>55</ele>
        <time>2021-07-16T09:34:06.000Z</time>
      </trkpt>
      <trkpt lat="47.29528" lon="-1.38045">
        <ele>56</ele>
        <time>2021-07-16T09:34:08.000Z</time>
      </trkpt>
      <trkpt lat="47.29519" lon="-1.3807">
        <ele>56</ele>
        <time>2021-07-16T09:34:11.000Z</time>
      </trkpt>
      <trkpt lat="47.29514" lon="-1.38087">
        <ele>55</ele>
        <time>2021-07-16T09:34:13.000Z</time>
      </trkpt>
      <trkpt lat="47.29509" lon="-1.38105">
        <ele>55</ele>
        <time>2021-07-16T09:34:15.000Z</time>
      </trkpt>
      <trkpt lat="47.29504" lon="-1.38123">
        <ele>55</ele>
        <time>2021-07-16T09:34:17.000Z</time>
      </trkpt>
      <trkpt lat="47.29499" lon="-1.38141">
        <ele>55</ele>
        <time>2021-07-16T09:34:19.000Z</time>
      </trkpt>
      <trkpt lat="47.29494" lon="-1.38159">
        <ele>55</ele>
        <time>2021-07-16T09:34:21.000Z</time>
      </trkpt>
      <trkpt lat="47.29487" lon="-1.38186">
        <ele>55</ele>
        <time>2021-07-16T09:34:24.000Z</time>
      </trkpt>
      <trkpt lat="47.29483" lon="-1.38204">
        <ele>56</ele>
        <time>2021-07-16T09:34:26.000Z</time>
      </trkpt>
      <trkpt lat="47.29478" lon="-1.38222">
        <ele>56</ele>
        <time>2021-07-16T09:34:28.000Z</time>
      </trkpt>
      <trkpt lat="47.29471" lon="-1.38249">
        <ele>56</ele>
        <time>2021-07-16T09:34:31.000Z</time>
      </trkpt>
      <trkpt lat="47.29465" lon="-1.38265">
        <ele>56</ele>
        <time>2021-07-16T09:34:33.000Z</time>
      </trkpt>
      <trkpt lat="47.29459" lon="-1.38291">
        <ele>56</ele>
        <time>2021-07-16T09:34:36.000Z</time>
      </trkpt>
      <trkpt lat="47.29452" lon="-1.38315">
        <ele>58</ele>
        <time>2021-07-16T09:34:39.000Z</time>
      </trkpt>
      <trkpt lat="47.29447" lon="-1.38328">
        <ele>58</ele>
        <time>2021-07-16T09:34:41.000Z</time>
      </trkpt>
      <trkpt lat="47.2944" lon="-1.38339">
        <ele>59</ele>
        <time>2021-07-16T09:34:43.000Z</time>
      </trkpt>
      <trkpt lat="47.29437" lon="-1.38356">
        <ele>59</ele>
        <time>2021-07-16T09:34:45.000Z</time>
      </trkpt>
      <trkpt lat="47.29434" lon="-1.38374">
        <ele>58</ele>
        <time>2021-07-16T09:34:47.000Z</time>
      </trkpt>
      <trkpt lat="47.2943" lon="-1.38393">
        <ele>58</ele>
        <time>2021-07-16T09:34:49.000Z</time>
      </trkpt>
      <trkpt lat="47.29425" lon="-1.38412">
        <ele>58</ele>
        <time>2021-07-16T09:34:51.000Z</time>
      </trkpt>
      <trkpt lat="47.2942" lon="-1.38432">
        <ele>57</ele>
        <time>2021-07-16T09:34:53.000Z</time>
      </trkpt>
      <trkpt lat="47.29415" lon="-1.38451">
        <ele>57</ele>
        <time>2021-07-16T09:34:55.000Z</time>
      </trkpt>
      <trkpt lat="47.29409" lon="-1.3847">
        <ele>57</ele>
        <time>2021-07-16T09:34:57.000Z</time>
      </trkpt>
      <trkpt lat="47.29401" lon="-1.38487">
        <ele>57</ele>
        <time>2021-07-16T09:34:59.000Z</time>
      </trkpt>
      <trkpt lat="47.29394" lon="-1.38504">
        <ele>57</ele>
        <time>2021-07-16T09:35:01.000Z</time>
      </trkpt>
      <trkpt lat="47.29387" lon="-1.38522">
        <ele>57</ele>
        <time>2021-07-16T09:35:03.000Z</time>
      </trkpt>
      <trkpt lat="47.29381" lon="-1.38541">
        <ele>57</ele>
        <time>2021-07-16T09:35:05.000Z</time>
      </trkpt>
      <trkpt lat="47.29375" lon="-1.38559">
        <ele>56</ele>
        <time>2021-07-16T09:35:07.000Z</time>
      </trkpt>
      <trkpt lat="47.29369" lon="-1.38578">
        <ele>55</ele>
        <time>2021-07-16T09:35:09.000Z</time>
      </trkpt>
      <trkpt lat="47.29363" lon="-1.38598">
        <ele>55</ele>
        <time>2021-07-16T09:35:11.000Z</time>
      </trkpt>
      <trkpt lat="47.29357" lon="-1.3862">
        <ele>54</ele>
        <time>2021-07-16T09:35:13.000Z</time>
      </trkpt>
      <trkpt lat="47.29351" lon="-1.3864">
        <ele>54</ele>
        <time>2021-07-16T09:35:15.000Z</time>
      </trkpt>
      <trkpt lat="47.29344" lon="-1.3866">
        <ele>54</ele>
        <time>2021-07-16T09:35:17.000Z</time>
      </trkpt>
      <trkpt lat="47.29338" lon="-1.38679">
        <ele>54</ele>
        <time>2021-07-16T09:35:19.000Z</time>
      </trkpt>
      <trkpt lat="47.29331" lon="-1.38697">
        <ele>54</ele>
        <time>2021-07-16T09:35:21.000Z</time>
      </trkpt>
      <trkpt lat="47.29325" lon="-1.38717">
        <ele>53</ele>
        <time>2021-07-16T09:35:23.000Z</time>
      </trkpt>
      <trkpt lat="47.29322" lon="-1.38737">
        <ele>53</ele>
        <time>2021-07-16T09:35:25.000Z</time>
      </trkpt>
      <trkpt lat="47.29318" lon="-1.38755">
        <ele>54</ele>
        <time>2021-07-16T09:35:27.000Z</time>
      </trkpt>
      <trkpt lat="47.29313" lon="-1.38773">
        <ele>55</ele>
        <time>2021-07-16T09:35:29.000Z</time>
      </trkpt>
      <trkpt lat="47.29309" lon="-1.3879">
        <ele>55</ele>
        <time>2021-07-16T09:35:31.000Z</time>
      </trkpt>
      <trkpt lat="47.29305" lon="-1.38808">
        <ele>55</ele>
        <time>2021-07-16T09:35:33.000Z</time>
      </trkpt>
      <trkpt lat="47.293" lon="-1.38826">
        <ele>54</ele>
        <time>2021-07-16T09:35:35.000Z</time>
      </trkpt>
      <trkpt lat="47.29294" lon="-1.38843">
        <ele>55</ele>
        <time>2021-07-16T09:35:37.000Z</time>
      </trkpt>
      <trkpt lat="47.29289" lon="-1.38861">
        <ele>55</ele>
        <time>2021-07-16T09:35:39.000Z</time>
      </trkpt>
      <trkpt lat="47.29285" lon="-1.3888">
        <ele>55</ele>
        <time>2021-07-16T09:35:41.000Z</time>
      </trkpt>
      <trkpt lat="47.2928" lon="-1.38898">
        <ele>55</ele>
        <time>2021-07-16T09:35:43.000Z</time>
      </trkpt>
      <trkpt lat="47.29275" lon="-1.38916">
        <ele>55</ele>
        <time>2021-07-16T09:35:45.000Z</time>
      </trkpt>
      <trkpt lat="47.29269" lon="-1.38934">
        <ele>55</ele>
        <time>2021-07-16T09:35:47.000Z</time>
      </trkpt>
      <trkpt lat="47.29264" lon="-1.38951">
        <ele>55</ele>
        <time>2021-07-16T09:35:49.000Z</time>
      </trkpt>
      <trkpt lat="47.2926" lon="-1.38969">
        <ele>56</ele>
        <time>2021-07-16T09:35:51.000Z</time>
      </trkpt>
      <trkpt lat="47.29255" lon="-1.38987">
        <ele>56</ele>
        <time>2021-07-16T09:35:53.000Z</time>
      </trkpt>
      <trkpt lat="47.29251" lon="-1.39006">
        <ele>55</ele>
        <time>2021-07-16T09:35:55.000Z</time>
      </trkpt>
      <trkpt lat="47.29246" lon="-1.39024">
        <ele>56</ele>
        <time>2021-07-16T09:35:57.000Z</time>
      </trkpt>
      <trkpt lat="47.29241" lon="-1.39042">
        <ele>56</ele>
        <time>2021-07-16T09:35:59.000Z</time>
      </trkpt>
      <trkpt lat="47.29236" lon="-1.3906">
        <ele>56</ele>
        <time>2021-07-16T09:36:01.000Z</time>
      </trkpt>
      <trkpt lat="47.29231" lon="-1.39077">
        <ele>56</ele>
        <time>2021-07-16T09:36:03.000Z</time>
      </trkpt>
      <trkpt lat="47.29224" lon="-1.39094">
        <ele>56</ele>
        <time>2021-07-16T09:36:05.000Z</time>
      </trkpt>
      <trkpt lat="47.29216" lon="-1.39111">
        <ele>57</ele>
        <time>2021-07-16T09:36:07.000Z</time>
      </trkpt>
      <trkpt lat="47.29208" lon="-1.39124">
        <ele>57</ele>
        <time>2021-07-16T09:36:09.000Z</time>
      </trkpt>
      <trkpt lat="47.29198" lon="-1.39137">
        <ele>56</ele>
        <time>2021-07-16T09:36:11.000Z</time>
      </trkpt>
      <trkpt lat="47.29188" lon="-1.3915">
        <ele>56</ele>
        <time>2021-07-16T09:36:13.000Z</time>
      </trkpt>
      <trkpt lat="47.29178" lon="-1.39162">
        <ele>56</ele>
        <time>2021-07-16T09:36:15.000Z</time>
      </trkpt>
      <trkpt lat="47.29168" lon="-1.39174">
        <ele>56</ele>
        <time>2021-07-16T09:36:17.000Z</time>
      </trkpt>
      <trkpt lat="47.29157" lon="-1.39187">
        <ele>56</ele>
        <time>2021-07-16T09:36:19.000Z</time>
      </trkpt>
      <trkpt lat="47.29147" lon="-1.39199">
        <ele>56</ele>
        <time>2021-07-16T09:36:21.000Z</time>
      </trkpt>
      <trkpt lat="47.29137" lon="-1.39211">
        <ele>55</ele>
        <time>2021-07-16T09:36:23.000Z</time>
      </trkpt>
      <trkpt lat="47.29127" lon="-1.39223">
        <ele>55</ele>
        <time>2021-07-16T09:36:25.000Z</time>
      </trkpt>
      <trkpt lat="47.29117" lon="-1.39235">
        <ele>55</ele>
        <time>2021-07-16T09:36:27.000Z</time>
      </trkpt>
      <trkpt lat="47.29108" lon="-1.39247">
        <ele>55</ele>
        <time>2021-07-16T09:36:29.000Z</time>
      </trkpt>
      <trkpt lat="47.29099" lon="-1.3926">
        <ele>55</ele>
        <time>2021-07-16T09:36:31.000Z</time>
      </trkpt>
      <trkpt lat="47.29091" lon="-1.39274">
        <ele>55</ele>
        <time>2021-07-16T09:36:33.000Z</time>
      </trkpt>
      <trkpt lat="47.29084" lon="-1.39287">
        <ele>55</ele>
        <time>2021-07-16T09:36:35.000Z</time>
      </trkpt>
      <trkpt lat="47.29074" lon="-1.39299">
        <ele>55</ele>
        <time>2021-07-16T09:36:37.000Z</time>
      </trkpt>
      <trkpt lat="47.29065" lon="-1.3931">
        <ele>55</ele>
        <time>2021-07-16T09:36:39.000Z</time>
      </trkpt>
      <trkpt lat="47.29054" lon="-1.39319">
        <ele>55</ele>
        <time>2021-07-16T09:36:41.000Z</time>
      </trkpt>
      <trkpt lat="47.29045" lon="-1.39329">
        <ele>55</ele>
        <time>2021-07-16T09:36:43.000Z</time>
      </trkpt>
      <trkpt lat="47.29036" lon="-1.39341">
        <ele>55</ele>
        <time>2021-07-16T09:36:45.000Z</time>
      </trkpt>
      <trkpt lat="47.29026" lon="-1.39354">
        <ele>55</ele>
        <time>2021-07-16T09:36:47.000Z</time>
      </trkpt>
      <trkpt lat="47.29017" lon="-1.39367">
        <ele>56</ele>
        <time>2021-07-16T09:36:49.000Z</time>
      </trkpt>
      <trkpt lat="47.29009" lon="-1.3938">
        <ele>56</ele>
        <time>2021-07-16T09:36:51.000Z</time>
      </trkpt>
      <trkpt lat="47.28999" lon="-1.39392">
        <ele>56</ele>
        <time>2021-07-16T09:36:53.000Z</time>
      </trkpt>
      <trkpt lat="47.2899" lon="-1.39405">
        <ele>56</ele>
        <time>2021-07-16T09:36:55.000Z</time>
      </trkpt>
      <trkpt lat="47.2898" lon="-1.39417">
        <ele>56</ele>
        <time>2021-07-16T09:36:57.000Z</time>
      </trkpt>
      <trkpt lat="47.28971" lon="-1.39429">
        <ele>56</ele>
        <time>2021-07-16T09:36:59.000Z</time>
      </trkpt>
      <trkpt lat="47.28961" lon="-1.39441">
        <ele>56</ele>
        <time>2021-07-16T09:37:01.000Z</time>
      </trkpt>
      <trkpt lat="47.28951" lon="-1.39452">
        <ele>56</ele>
        <time>2021-07-16T09:37:03.000Z</time>
      </trkpt>
      <trkpt lat="47.28942" lon="-1.39463">
        <ele>57</ele>
        <time>2021-07-16T09:37:05.000Z</time>
      </trkpt>
      <trkpt lat="47.28932" lon="-1.39475">
        <ele>57</ele>
        <time>2021-07-16T09:37:07.000Z</time>
      </trkpt>
      <trkpt lat="47.28922" lon="-1.39487">
        <ele>56</ele>
        <time>2021-07-16T09:37:09.000Z</time>
      </trkpt>
      <trkpt lat="47.28912" lon="-1.39499">
        <ele>56</ele>
        <time>2021-07-16T09:37:11.000Z</time>
      </trkpt>
      <trkpt lat="47.28902" lon="-1.3951">
        <ele>56</ele>
        <time>2021-07-16T09:37:13.000Z</time>
      </trkpt>
      <trkpt lat="47.28892" lon="-1.39522">
        <ele>56</ele>
        <time>2021-07-16T09:37:15.000Z</time>
      </trkpt>
      <trkpt lat="47.28883" lon="-1.39533">
        <ele>55</ele>
        <time>2021-07-16T09:37:17.000Z</time>
      </trkpt>
      <trkpt lat="47.28873" lon="-1.39544">
        <ele>55</ele>
        <time>2021-07-16T09:37:19.000Z</time>
      </trkpt>
      <trkpt lat="47.28863" lon="-1.39556">
        <ele>55</ele>
        <time>2021-07-16T09:37:21.000Z</time>
      </trkpt>
      <trkpt lat="47.28853" lon="-1.39569">
        <ele>55</ele>
        <time>2021-07-16T09:37:23.000Z</time>
      </trkpt>
      <trkpt lat="47.28843" lon="-1.39581">
        <ele>55</ele>
        <time>2021-07-16T09:37:25.000Z</time>
      </trkpt>
      <trkpt lat="47.28833" lon="-1.39593">
        <ele>55</ele>
        <time>2021-07-16T09:37:27.000Z</time>
      </trkpt>
      <trkpt lat="47.28823" lon="-1.39604">
        <ele>55</ele>
        <time>2021-07-16T09:37:29.000Z</time>
      </trkpt>
      <trkpt lat="47.28813" lon="-1.39616">
        <ele>55</ele>
        <time>2021-07-16T09:37:31.000Z</time>
      </trkpt>
      <trkpt lat="47.28803" lon="-1.39628">
        <ele>55</ele>
        <time>2021-07-16T09:37:33.000Z</time>
      </trkpt>
      <trkpt lat="47.28794" lon="-1.3964">
        <ele>55</ele>
        <time>2021-07-16T09:37:35.000Z</time>
      </trkpt>
      <trkpt lat="47.28784" lon="-1.39651">
        <ele>55</ele>
        <time>2021-07-16T09:37:37.000Z</time>
      </trkpt>
      <trkpt lat="47.28775" lon="-1.39663">
        <ele>55</ele>
        <time>2021-07-16T09:37:39.000Z</time>
      </trkpt>
      <trkpt lat="47.28765" lon="-1.39674">
        <ele>55</ele>
        <time>2021-07-16T09:37:41.000Z</time>
      </trkpt>
      <trkpt lat="47.28755" lon="-1.39686">
        <ele>55</ele>
        <time>2021-07-16T09:37:43.000Z</time>
      </trkpt>
      <trkpt lat="47.28746" lon="-1.39698">
        <ele>55</ele>
        <time>2021-07-16T09:37:45.000Z</time>
      </trkpt>
      <trkpt lat="47.28736" lon="-1.39709">
        <ele>55</ele>
        <time>2021-07-16T09:37:47.000Z</time>
      </trkpt>
      <trkpt lat="47.28726" lon="-1.39721">
        <ele>55</ele>
        <time>2021-07-16T09:37:49.000Z</time>
      </trkpt>
      <trkpt lat="47.28717" lon="-1.39732">
        <ele>55</ele>
        <time>2021-07-16T09:37:51.000Z</time>
      </trkpt>
      <trkpt lat="47.28707" lon="-1.39745">
        <ele>56</ele>
        <time>2021-07-16T09:37:53.000Z</time>
      </trkpt>
      <trkpt lat="47.28698" lon="-1.39757">
        <ele>56</ele>
        <time>2021-07-16T09:37:55.000Z</time>
      </trkpt>
      <trkpt lat="47.28688" lon="-1.39768">
        <ele>56</ele>
        <time>2021-07-16T09:37:57.000Z</time>
      </trkpt>
      <trkpt lat="47.28678" lon="-1.3978">
        <ele>56</ele>
        <time>2021-07-16T09:37:59.000Z</time>
      </trkpt>
      <trkpt lat="47.28669" lon="-1.39792">
        <ele>57</ele>
        <time>2021-07-16T09:38:01.000Z</time>
      </trkpt>
      <trkpt lat="47.2866" lon="-1.39806">
        <ele>57</ele>
        <time>2021-07-16T09:38:03.000Z</time>
      </trkpt>
      <trkpt lat="47.28651" lon="-1.3982">
        <ele>57</ele>
        <time>2021-07-16T09:38:05.000Z</time>
      </trkpt>
      <trkpt lat="47.28643" lon="-1.39834">
        <ele>56</ele>
        <time>2021-07-16T09:38:07.000Z</time>
      </trkpt>
      <trkpt lat="47.28633" lon="-1.39848">
        <ele>56</ele>
        <time>2021-07-16T09:38:09.000Z</time>
      </trkpt>
      <trkpt lat="47.28624" lon="-1.39862">
        <ele>56</ele>
        <time>2021-07-16T09:38:11.000Z</time>
      </trkpt>
      <trkpt lat="47.28616" lon="-1.39876">
        <ele>57</ele>
        <time>2021-07-16T09:38:13.000Z</time>
      </trkpt>
      <trkpt lat="47.28607" lon="-1.39889">
        <ele>57</ele>
        <time>2021-07-16T09:38:15.000Z</time>
      </trkpt>
      <trkpt lat="47.28598" lon="-1.39902">
        <ele>56</ele>
        <time>2021-07-16T09:38:17.000Z</time>
      </trkpt>
      <trkpt lat="47.28589" lon="-1.39916">
        <ele>56</ele>
        <time>2021-07-16T09:38:19.000Z</time>
      </trkpt>
      <trkpt lat="47.2858" lon="-1.39929">
        <ele>56</ele>
        <time>2021-07-16T09:38:21.000Z</time>
      </trkpt>
      <trkpt lat="47.28571" lon="-1.39942">
        <ele>56</ele>
        <time>2021-07-16T09:38:23.000Z</time>
      </trkpt>
      <trkpt lat="47.28562" lon="-1.39956">
        <ele>56</ele>
        <time>2021-07-16T09:38:25.000Z</time>
      </trkpt>
      <trkpt lat="47.28553" lon="-1.39969">
        <ele>56</ele>
        <time>2021-07-16T09:38:27.000Z</time>
      </trkpt>
      <trkpt lat="47.28543" lon="-1.39981">
        <ele>56</ele>
        <time>2021-07-16T09:38:29.000Z</time>
      </trkpt>
      <trkpt lat="47.28533" lon="-1.39993">
        <ele>56</ele>
        <time>2021-07-16T09:38:31.000Z</time>
      </trkpt>
      <trkpt lat="47.28524" lon="-1.40005">
        <ele>56</ele>
        <time>2021-07-16T09:38:33.000Z</time>
      </trkpt>
      <trkpt lat="47.28515" lon="-1.40018">
        <ele>56</ele>
        <time>2021-07-16T09:38:35.000Z</time>
      </trkpt>
      <trkpt lat="47.28508" lon="-1.40033">
        <ele>56</ele>
        <time>2021-07-16T09:38:37.000Z</time>
      </trkpt>
      <trkpt lat="47.285" lon="-1.40047">
        <ele>56</ele>
        <time>2021-07-16T09:38:39.000Z</time>
      </trkpt>
      <trkpt lat="47.28494" lon="-1.40063">
        <ele>56</ele>
        <time>2021-07-16T09:38:41.000Z</time>
      </trkpt>
      <trkpt lat="47.28487" lon="-1.40078">
        <ele>56</ele>
        <time>2021-07-16T09:38:43.000Z</time>
      </trkpt>
      <trkpt lat="47.2848" lon="-1.40094">
        <ele>57</ele>
        <time>2021-07-16T09:38:45.000Z</time>
      </trkpt>
      <trkpt lat="47.28473" lon="-1.4011">
        <ele>57</ele>
        <time>2021-07-16T09:38:47.000Z</time>
      </trkpt>
      <trkpt lat="47.28467" lon="-1.40125">
        <ele>56</ele>
        <time>2021-07-16T09:38:49.000Z</time>
      </trkpt>
      <trkpt lat="47.28461" lon="-1.40141">
        <ele>56</ele>
        <time>2021-07-16T09:38:51.000Z</time>
      </trkpt>
      <trkpt lat="47.28454" lon="-1.40158">
        <ele>56</ele>
        <time>2021-07-16T09:38:53.000Z</time>
      </trkpt>
      <trkpt lat="47.28448" lon="-1.40174">
        <ele>55</ele>
        <time>2021-07-16T09:38:55.000Z</time>
      </trkpt>
      <trkpt lat="47.28442" lon="-1.40192">
        <ele>55</ele>
        <time>2021-07-16T09:38:57.000Z</time>
      </trkpt>
      <trkpt lat="47.28435" lon="-1.40209">
        <ele>55</ele>
        <time>2021-07-16T09:38:59.000Z</time>
      </trkpt>
      <trkpt lat="47.28428" lon="-1.40226">
        <ele>55</ele>
        <time>2021-07-16T09:39:01.000Z</time>
      </trkpt>
      <trkpt lat="47.28421" lon="-1.40242">
        <ele>55</ele>
        <time>2021-07-16T09:39:03.000Z</time>
      </trkpt>
      <trkpt lat="47.28413" lon="-1.40258">
        <ele>55</ele>
        <time>2021-07-16T09:39:05.000Z</time>
      </trkpt>
      <trkpt lat="47.28406" lon="-1.40274">
        <ele>55</ele>
        <time>2021-07-16T09:39:07.000Z</time>
      </trkpt>
      <trkpt lat="47.28399" lon="-1.4029">
        <ele>54</ele>
        <time>2021-07-16T09:39:09.000Z</time>
      </trkpt>
      <trkpt lat="47.28391" lon="-1.40305">
        <ele>54</ele>
        <time>2021-07-16T09:39:11.000Z</time>
      </trkpt>
      <trkpt lat="47.28383" lon="-1.4032">
        <ele>54</ele>
        <time>2021-07-16T09:39:13.000Z</time>
      </trkpt>
      <trkpt lat="47.28374" lon="-1.40334">
        <ele>54</ele>
        <time>2021-07-16T09:39:15.000Z</time>
      </trkpt>
      <trkpt lat="47.28365" lon="-1.40347">
        <ele>54</ele>
        <time>2021-07-16T09:39:17.000Z</time>
      </trkpt>
      <trkpt lat="47.28356" lon="-1.40359">
        <ele>54</ele>
        <time>2021-07-16T09:39:19.000Z</time>
      </trkpt>
      <trkpt lat="47.28346" lon="-1.40372">
        <ele>54</ele>
        <time>2021-07-16T09:39:21.000Z</time>
      </trkpt>
      <trkpt lat="47.28337" lon="-1.40385">
        <ele>54</ele>
        <time>2021-07-16T09:39:23.000Z</time>
      </trkpt>
      <trkpt lat="47.28327" lon="-1.40398">
        <ele>55</ele>
        <time>2021-07-16T09:39:25.000Z</time>
      </trkpt>
      <trkpt lat="47.28318" lon="-1.4041">
        <ele>55</ele>
        <time>2021-07-16T09:39:27.000Z</time>
      </trkpt>
      <trkpt lat="47.28307" lon="-1.40421">
        <ele>55</ele>
        <time>2021-07-16T09:39:29.000Z</time>
      </trkpt>
      <trkpt lat="47.28297" lon="-1.40432">
        <ele>54</ele>
        <time>2021-07-16T09:39:31.000Z</time>
      </trkpt>
      <trkpt lat="47.28287" lon="-1.40444">
        <ele>55</ele>
        <time>2021-07-16T09:39:33.000Z</time>
      </trkpt>
      <trkpt lat="47.28275" lon="-1.40454">
        <ele>55</ele>
        <time>2021-07-16T09:39:35.000Z</time>
      </trkpt>
      <trkpt lat="47.28265" lon="-1.40464">
        <ele>55</ele>
        <time>2021-07-16T09:39:37.000Z</time>
      </trkpt>
      <trkpt lat="47.28254" lon="-1.40474">
        <ele>55</ele>
        <time>2021-07-16T09:39:39.000Z</time>
      </trkpt>
      <trkpt lat="47.28244" lon="-1.40484">
        <ele>55</ele>
        <time>2021-07-16T09:39:41.000Z</time>
      </trkpt>
      <trkpt lat="47.28233" lon="-1.40495">
        <ele>55</ele>
        <time>2021-07-16T09:39:43.000Z</time>
      </trkpt>
      <trkpt lat="47.28222" lon="-1.40505">
        <ele>55</ele>
        <time>2021-07-16T09:39:45.000Z</time>
      </trkpt>
      <trkpt lat="47.28212" lon="-1.40516">
        <ele>55</ele>
        <time>2021-07-16T09:39:47.000Z</time>
      </trkpt>
      <trkpt lat="47.28201" lon="-1.40526">
        <ele>55</ele>
        <time>2021-07-16T09:39:49.000Z</time>
      </trkpt>
      <trkpt lat="47.2819" lon="-1.40537">
        <ele>55</ele>
        <time>2021-07-16T09:39:51.000Z</time>
      </trkpt>
      <trkpt lat="47.2818" lon="-1.40548">
        <ele>55</ele>
        <time>2021-07-16T09:39:53.000Z</time>
      </trkpt>
      <trkpt lat="47.28169" lon="-1.40559">
        <ele>55</ele>
        <time>2021-07-16T09:39:55.000Z</time>
      </trkpt>
      <trkpt lat="47.28157" lon="-1.4057">
        <ele>56</ele>
        <time>2021-07-16T09:39:57.000Z</time>
      </trkpt>
      <trkpt lat="47.28146" lon="-1.4058">
        <ele>56</ele>
        <time>2021-07-16T09:39:59.000Z</time>
      </trkpt>
      <trkpt lat="47.28134" lon="-1.40591">
        <ele>56</ele>
        <time>2021-07-16T09:40:01.000Z</time>
      </trkpt>
      <trkpt lat="47.28123" lon="-1.40601">
        <ele>56</ele>
        <time>2021-07-16T09:40:03.000Z</time>
      </trkpt>
      <trkpt lat="47.28112" lon="-1.40612">
        <ele>56</ele>
        <time>2021-07-16T09:40:05.000Z</time>
      </trkpt>
      <trkpt lat="47.28101" lon="-1.40622">
        <ele>56</ele>
        <time>2021-07-16T09:40:07.000Z</time>
      </trkpt>
      <trkpt lat="47.28089" lon="-1.40632">
        <ele>55</ele>
        <time>2021-07-16T09:40:09.000Z</time>
      </trkpt>
      <trkpt lat="47.28078" lon="-1.40642">
        <ele>56</ele>
        <time>2021-07-16T09:40:11.000Z</time>
      </trkpt>
      <trkpt lat="47.28067" lon="-1.40653">
        <ele>56</ele>
        <time>2021-07-16T09:40:13.000Z</time>
      </trkpt>
      <trkpt lat="47.28055" lon="-1.40664">
        <ele>55</ele>
        <time>2021-07-16T09:40:15.000Z</time>
      </trkpt>
      <trkpt lat="47.28044" lon="-1.40675">
        <ele>55</ele>
        <time>2021-07-16T09:40:17.000Z</time>
      </trkpt>
      <trkpt lat="47.28033" lon="-1.40687">
        <ele>55</ele>
        <time>2021-07-16T09:40:19.000Z</time>
      </trkpt>
      <trkpt lat="47.28023" lon="-1.40699">
        <ele>56</ele>
        <time>2021-07-16T09:40:21.000Z</time>
      </trkpt>
      <trkpt lat="47.28012" lon="-1.4071">
        <ele>56</ele>
        <time>2021-07-16T09:40:23.000Z</time>
      </trkpt>
      <trkpt lat="47.28002" lon="-1.40721">
        <ele>56</ele>
        <time>2021-07-16T09:40:25.000Z</time>
      </trkpt>
      <trkpt lat="47.27991" lon="-1.40732">
        <ele>56</ele>
        <time>2021-07-16T09:40:27.000Z</time>
      </trkpt>
      <trkpt lat="47.2798" lon="-1.40742">
        <ele>56</ele>
        <time>2021-07-16T09:40:29.000Z</time>
      </trkpt>
      <trkpt lat="47.27969" lon="-1.40752">
        <ele>56</ele>
        <time>2021-07-16T09:40:31.000Z</time>
      </trkpt>
      <trkpt lat="47.27957" lon="-1.40762">
        <ele>55</ele>
        <time>2021-07-16T09:40:33.000Z</time>
      </trkpt>
      <trkpt lat="47.27947" lon="-1.40772">
        <ele>55</ele>
        <time>2021-07-16T09:40:35.000Z</time>
      </trkpt>
      <trkpt lat="47.27935" lon="-1.40782">
        <ele>55</ele>
        <time>2021-07-16T09:40:37.000Z</time>
      </trkpt>
      <trkpt lat="47.27924" lon="-1.40792">
        <ele>55</ele>
        <time>2021-07-16T09:40:39.000Z</time>
      </trkpt>
      <trkpt lat="47.27913" lon="-1.40803">
        <ele>55</ele>
        <time>2021-07-16T09:40:41.000Z</time>
      </trkpt>
      <trkpt lat="47.27902" lon="-1.40814">
        <ele>54</ele>
        <time>2021-07-16T09:40:43.000Z</time>
      </trkpt>
      <trkpt lat="47.27891" lon="-1.40825">
        <ele>55</ele>
        <time>2021-07-16T09:40:45.000Z</time>
      </trkpt>
      <trkpt lat="47.27882" lon="-1.40839">
        <ele>55</ele>
        <time>2021-07-16T09:40:47.000Z</time>
      </trkpt>
      <trkpt lat="47.27874" lon="-1.40854">
        <ele>54</ele>
        <time>2021-07-16T09:40:49.000Z</time>
      </trkpt>
      <trkpt lat="47.27866" lon="-1.4087">
        <ele>54</ele>
        <time>2021-07-16T09:40:51.000Z</time>
      </trkpt>
      <trkpt lat="47.27859" lon="-1.40886">
        <ele>54</ele>
        <time>2021-07-16T09:40:53.000Z</time>
      </trkpt>
      <trkpt lat="47.27852" lon="-1.40902">
        <ele>54</ele>
        <time>2021-07-16T09:40:55.000Z</time>
      </trkpt>
      <trkpt lat="47.27845" lon="-1.40918">
        <ele>54</ele>
        <time>2021-07-16T09:40:57.000Z</time>
      </trkpt>
      <trkpt lat="47.27837" lon="-1.40933">
        <ele>55</ele>
        <time>2021-07-16T09:40:59.000Z</time>
      </trkpt>
      <trkpt lat="47.27829" lon="-1.40949">
        <ele>54</ele>
        <time>2021-07-16T09:41:01.000Z</time>
      </trkpt>
      <trkpt lat="47.27821" lon="-1.40964">
        <ele>55</ele>
        <time>2021-07-16T09:41:03.000Z</time>
      </trkpt>
      <trkpt lat="47.27813" lon="-1.40979">
        <ele>54</ele>
        <time>2021-07-16T09:41:05.000Z</time>
      </trkpt>
      <trkpt lat="47.27804" lon="-1.40992">
        <ele>54</ele>
        <time>2021-07-16T09:41:07.000Z</time>
      </trkpt>
      <trkpt lat="47.27795" lon="-1.41006">
        <ele>54</ele>
        <time>2021-07-16T09:41:09.000Z</time>
      </trkpt>
      <trkpt lat="47.27786" lon="-1.41018">
        <ele>54</ele>
        <time>2021-07-16T09:41:11.000Z</time>
      </trkpt>
      <trkpt lat="47.27778" lon="-1.41032">
        <ele>55</ele>
        <time>2021-07-16T09:41:13.000Z</time>
      </trkpt>
      <trkpt lat="47.27772" lon="-1.41049">
        <ele>55</ele>
        <time>2021-07-16T09:41:15.000Z</time>
      </trkpt>
      <trkpt lat="47.27765" lon="-1.41066">
        <ele>55</ele>
        <time>2021-07-16T09:41:17.000Z</time>
      </trkpt>
      <trkpt lat="47.27756" lon="-1.41079">
        <ele>55</ele>
        <time>2021-07-16T09:41:19.000Z</time>
      </trkpt>
      <trkpt lat="47.27745" lon="-1.4109">
        <ele>55</ele>
        <time>2021-07-16T09:41:21.000Z</time>
      </trkpt>
      <trkpt lat="47.27734" lon="-1.411">
        <ele>55</ele>
        <time>2021-07-16T09:41:23.000Z</time>
      </trkpt>
      <trkpt lat="47.27724" lon="-1.4111">
        <ele>55</ele>
        <time>2021-07-16T09:41:25.000Z</time>
      </trkpt>
      <trkpt lat="47.27713" lon="-1.41121">
        <ele>54</ele>
        <time>2021-07-16T09:41:27.000Z</time>
      </trkpt>
      <trkpt lat="47.27702" lon="-1.41133">
        <ele>54</ele>
        <time>2021-07-16T09:41:29.000Z</time>
      </trkpt>
      <trkpt lat="47.27692" lon="-1.41145">
        <ele>55</ele>
        <time>2021-07-16T09:41:31.000Z</time>
      </trkpt>
      <trkpt lat="47.27682" lon="-1.41157">
        <ele>55</ele>
        <time>2021-07-16T09:41:33.000Z</time>
      </trkpt>
      <trkpt lat="47.27672" lon="-1.41169">
        <ele>55</ele>
        <time>2021-07-16T09:41:35.000Z</time>
      </trkpt>
      <trkpt lat="47.27662" lon="-1.41181">
        <ele>55</ele>
        <time>2021-07-16T09:41:37.000Z</time>
      </trkpt>
      <trkpt lat="47.27652" lon="-1.41191">
        <ele>55</ele>
        <time>2021-07-16T09:41:39.000Z</time>
      </trkpt>
      <trkpt lat="47.27641" lon="-1.41202">
        <ele>55</ele>
        <time>2021-07-16T09:41:41.000Z</time>
      </trkpt>
      <trkpt lat="47.2763" lon="-1.41212">
        <ele>54</ele>
        <time>2021-07-16T09:41:43.000Z</time>
      </trkpt>
      <trkpt lat="47.27619" lon="-1.41222">
        <ele>55</ele>
        <time>2021-07-16T09:41:45.000Z</time>
      </trkpt>
      <trkpt lat="47.27609" lon="-1.41234">
        <ele>55</ele>
        <time>2021-07-16T09:41:47.000Z</time>
      </trkpt>
      <trkpt lat="47.27598" lon="-1.41245">
        <ele>55</ele>
        <time>2021-07-16T09:41:49.000Z</time>
      </trkpt>
      <trkpt lat="47.27587" lon="-1.41256">
        <ele>55</ele>
        <time>2021-07-16T09:41:51.000Z</time>
      </trkpt>
      <trkpt lat="47.27577" lon="-1.41268">
        <ele>55</ele>
        <time>2021-07-16T09:41:53.000Z</time>
      </trkpt>
      <trkpt lat="47.27567" lon="-1.41281">
        <ele>54</ele>
        <time>2021-07-16T09:41:55.000Z</time>
      </trkpt>
      <trkpt lat="47.27557" lon="-1.41293">
        <ele>55</ele>
        <time>2021-07-16T09:41:57.000Z</time>
      </trkpt>
      <trkpt lat="47.27548" lon="-1.41305">
        <ele>55</ele>
        <time>2021-07-16T09:41:59.000Z</time>
      </trkpt>
      <trkpt lat="47.27538" lon="-1.41318">
        <ele>54</ele>
        <time>2021-07-16T09:42:01.000Z</time>
      </trkpt>
      <trkpt lat="47.27528" lon="-1.4133">
        <ele>54</ele>
        <time>2021-07-16T09:42:03.000Z</time>
      </trkpt>
      <trkpt lat="47.27519" lon="-1.41344">
        <ele>54</ele>
        <time>2021-07-16T09:42:05.000Z</time>
      </trkpt>
      <trkpt lat="47.2751" lon="-1.41357">
        <ele>54</ele>
        <time>2021-07-16T09:42:07.000Z</time>
      </trkpt>
      <trkpt lat="47.275" lon="-1.4137">
        <ele>54</ele>
        <time>2021-07-16T09:42:09.000Z</time>
      </trkpt>
      <trkpt lat="47.27492" lon="-1.41384">
        <ele>54</ele>
        <time>2021-07-16T09:42:11.000Z</time>
      </trkpt>
      <trkpt lat="47.27484" lon="-1.41398">
        <ele>54</ele>
        <time>2021-07-16T09:42:13.000Z</time>
      </trkpt>
      <trkpt lat="47.27475" lon="-1.41412">
        <ele>54</ele>
        <time>2021-07-16T09:42:15.000Z</time>
      </trkpt>
      <trkpt lat="47.27467" lon="-1.41427">
        <ele>54</ele>
        <time>2021-07-16T09:42:17.000Z</time>
      </trkpt>
      <trkpt lat="47.27459" lon="-1.41442">
        <ele>54</ele>
        <time>2021-07-16T09:42:19.000Z</time>
      </trkpt>
      <trkpt lat="47.2745" lon="-1.41457">
        <ele>54</ele>
        <time>2021-07-16T09:42:21.000Z</time>
      </trkpt>
      <trkpt lat="47.27442" lon="-1.41471">
        <ele>54</ele>
        <time>2021-07-16T09:42:23.000Z</time>
      </trkpt>
      <trkpt lat="47.27434" lon="-1.41485">
        <ele>54</ele>
        <time>2021-07-16T09:42:25.000Z</time>
      </trkpt>
      <trkpt lat="47.27426" lon="-1.41499">
        <ele>54</ele>
        <time>2021-07-16T09:42:27.000Z</time>
      </trkpt>
      <trkpt lat="47.27418" lon="-1.41513">
        <ele>54</ele>
        <time>2021-07-16T09:42:29.000Z</time>
      </trkpt>
      <trkpt lat="47.27409" lon="-1.41527">
        <ele>54</ele>
        <time>2021-07-16T09:42:31.000Z</time>
      </trkpt>
      <trkpt lat="47.27401" lon="-1.4154">
        <ele>54</ele>
        <time>2021-07-16T09:42:33.000Z</time>
      </trkpt>
      <trkpt lat="47.27393" lon="-1.41553">
        <ele>54</ele>
        <time>2021-07-16T09:42:35.000Z</time>
      </trkpt>
      <trkpt lat="47.27384" lon="-1.41567">
        <ele>54</ele>
        <time>2021-07-16T09:42:37.000Z</time>
      </trkpt>
      <trkpt lat="47.27375" lon="-1.4158">
        <ele>53</ele>
        <time>2021-07-16T09:42:39.000Z</time>
      </trkpt>
      <trkpt lat="47.27366" lon="-1.41594">
        <ele>53</ele>
        <time>2021-07-16T09:42:41.000Z</time>
      </trkpt>
      <trkpt lat="47.27357" lon="-1.41608">
        <ele>53</ele>
        <time>2021-07-16T09:42:43.000Z</time>
      </trkpt>
      <trkpt lat="47.27348" lon="-1.41622">
        <ele>53</ele>
        <time>2021-07-16T09:42:45.000Z</time>
      </trkpt>
      <trkpt lat="47.27339" lon="-1.41635">
        <ele>53</ele>
        <time>2021-07-16T09:42:47.000Z</time>
      </trkpt>
      <trkpt lat="47.2733" lon="-1.4165">
        <ele>54</ele>
        <time>2021-07-16T09:42:49.000Z</time>
      </trkpt>
      <trkpt lat="47.27322" lon="-1.41664">
        <ele>54</ele>
        <time>2021-07-16T09:42:51.000Z</time>
      </trkpt>
      <trkpt lat="47.27314" lon="-1.41679">
        <ele>54</ele>
        <time>2021-07-16T09:42:53.000Z</time>
      </trkpt>
      <trkpt lat="47.27306" lon="-1.41693">
        <ele>54</ele>
        <time>2021-07-16T09:42:55.000Z</time>
      </trkpt>
      <trkpt lat="47.27298" lon="-1.41709">
        <ele>53</ele>
        <time>2021-07-16T09:42:57.000Z</time>
      </trkpt>
      <trkpt lat="47.2729" lon="-1.41724">
        <ele>53</ele>
        <time>2021-07-16T09:42:59.000Z</time>
      </trkpt>
      <trkpt lat="47.27282" lon="-1.4174">
        <ele>52</ele>
        <time>2021-07-16T09:43:01.000Z</time>
      </trkpt>
      <trkpt lat="47.27274" lon="-1.41756">
        <ele>52</ele>
        <time>2021-07-16T09:43:03.000Z</time>
      </trkpt>
      <trkpt lat="47.27266" lon="-1.41771">
        <ele>53</ele>
        <time>2021-07-16T09:43:05.000Z</time>
      </trkpt>
      <trkpt lat="47.27257" lon="-1.41787">
        <ele>53</ele>
        <time>2021-07-16T09:43:07.000Z</time>
      </trkpt>
      <trkpt lat="47.27249" lon="-1.41803">
        <ele>53</ele>
        <time>2021-07-16T09:43:09.000Z</time>
      </trkpt>
      <trkpt lat="47.27241" lon="-1.41818">
        <ele>53</ele>
        <time>2021-07-16T09:43:11.000Z</time>
      </trkpt>
      <trkpt lat="47.27233" lon="-1.41832">
        <ele>53</ele>
        <time>2021-07-16T09:43:13.000Z</time>
      </trkpt>
      <trkpt lat="47.27225" lon="-1.41847">
        <ele>53</ele>
        <time>2021-07-16T09:43:15.000Z</time>
      </trkpt>
      <trkpt lat="47.27217" lon="-1.41861">
        <ele>53</ele>
        <time>2021-07-16T09:43:17.000Z</time>
      </trkpt>
      <trkpt lat="47.27209" lon="-1.41875">
        <ele>53</ele>
        <time>2021-07-16T09:43:19.000Z</time>
      </trkpt>
      <trkpt lat="47.272" lon="-1.41889">
        <ele>53</ele>
        <time>2021-07-16T09:43:21.000Z</time>
      </trkpt>
      <trkpt lat="47.27192" lon="-1.41904">
        <ele>53</ele>
        <time>2021-07-16T09:43:23.000Z</time>
      </trkpt>
      <trkpt lat="47.27183" lon="-1.41918">
        <ele>53</ele>
        <time>2021-07-16T09:43:25.000Z</time>
      </trkpt>
      <trkpt lat="47.27174" lon="-1.41933">
        <ele>53</ele>
        <time>2021-07-16T09:43:27.000Z</time>
      </trkpt>
      <trkpt lat="47.27166" lon="-1.41947">
        <ele>53</ele>
        <time>2021-07-16T09:43:29.000Z</time>
      </trkpt>
      <trkpt lat="47.27158" lon="-1.41962">
        <ele>53</ele>
        <time>2021-07-16T09:43:31.000Z</time>
      </trkpt>
      <trkpt lat="47.27149" lon="-1.41978">
        <ele>53</ele>
        <time>2021-07-16T09:43:33.000Z</time>
      </trkpt>
      <trkpt lat="47.27141" lon="-1.41994">
        <ele>53</ele>
        <time>2021-07-16T09:43:35.000Z</time>
      </trkpt>
      <trkpt lat="47.27133" lon="-1.42009">
        <ele>53</ele>
        <time>2021-07-16T09:43:37.000Z</time>
      </trkpt>
      <trkpt lat="47.27124" lon="-1.42023">
        <ele>53</ele>
        <time>2021-07-16T09:43:39.000Z</time>
      </trkpt>
      <trkpt lat="47.27115" lon="-1.42036">
        <ele>53</ele>
        <time>2021-07-16T09:43:41.000Z</time>
      </trkpt>
      <trkpt lat="47.27106" lon="-1.4205">
        <ele>53</ele>
        <time>2021-07-16T09:43:43.000Z</time>
      </trkpt>
      <trkpt lat="47.27097" lon="-1.42064">
        <ele>53</ele>
        <time>2021-07-16T09:43:45.000Z</time>
      </trkpt>
      <trkpt lat="47.27088" lon="-1.42077">
        <ele>53</ele>
        <time>2021-07-16T09:43:47.000Z</time>
      </trkpt>
      <trkpt lat="47.2708" lon="-1.42091">
        <ele>53</ele>
        <time>2021-07-16T09:43:49.000Z</time>
      </trkpt>
      <trkpt lat="47.27072" lon="-1.42105">
        <ele>53</ele>
        <time>2021-07-16T09:43:51.000Z</time>
      </trkpt>
      <trkpt lat="47.27064" lon="-1.4212">
        <ele>53</ele>
        <time>2021-07-16T09:43:53.000Z</time>
      </trkpt>
      <trkpt lat="47.27056" lon="-1.42136">
        <ele>53</ele>
        <time>2021-07-16T09:43:55.000Z</time>
      </trkpt>
      <trkpt lat="47.27048" lon="-1.42151">
        <ele>53</ele>
        <time>2021-07-16T09:43:57.000Z</time>
      </trkpt>
      <trkpt lat="47.27039" lon="-1.42165">
        <ele>53</ele>
        <time>2021-07-16T09:43:59.000Z</time>
      </trkpt>
      <trkpt lat="47.27031" lon="-1.4218">
        <ele>53</ele>
        <time>2021-07-16T09:44:01.000Z</time>
      </trkpt>
      <trkpt lat="47.27022" lon="-1.42195">
        <ele>53</ele>
        <time>2021-07-16T09:44:03.000Z</time>
      </trkpt>
      <trkpt lat="47.27013" lon="-1.42209">
        <ele>53</ele>
        <time>2021-07-16T09:44:05.000Z</time>
      </trkpt>
      <trkpt lat="47.27004" lon="-1.42225">
        <ele>53</ele>
        <time>2021-07-16T09:44:07.000Z</time>
      </trkpt>
      <trkpt lat="47.26996" lon="-1.42241">
        <ele>53</ele>
        <time>2021-07-16T09:44:09.000Z</time>
      </trkpt>
      <trkpt lat="47.26987" lon="-1.42258">
        <ele>53</ele>
        <time>2021-07-16T09:44:11.000Z</time>
      </trkpt>
      <trkpt lat="47.26979" lon="-1.42274">
        <ele>53</ele>
        <time>2021-07-16T09:44:13.000Z</time>
      </trkpt>
      <trkpt lat="47.2697" lon="-1.42289">
        <ele>53</ele>
        <time>2021-07-16T09:44:15.000Z</time>
      </trkpt>
      <trkpt lat="47.26962" lon="-1.42305">
        <ele>53</ele>
        <time>2021-07-16T09:44:17.000Z</time>
      </trkpt>
      <trkpt lat="47.26954" lon="-1.4232">
        <ele>53</ele>
        <time>2021-07-16T09:44:19.000Z</time>
      </trkpt>
      <trkpt lat="47.26946" lon="-1.42336">
        <ele>53</ele>
        <time>2021-07-16T09:44:21.000Z</time>
      </trkpt>
      <trkpt lat="47.26938" lon="-1.42352">
        <ele>52</ele>
        <time>2021-07-16T09:44:23.000Z</time>
      </trkpt>
      <trkpt lat="47.26931" lon="-1.42369">
        <ele>53</ele>
        <time>2021-07-16T09:44:25.000Z</time>
      </trkpt>
      <trkpt lat="47.26923" lon="-1.42385">
        <ele>53</ele>
        <time>2021-07-16T09:44:27.000Z</time>
      </trkpt>
      <trkpt lat="47.26915" lon="-1.424">
        <ele>53</ele>
        <time>2021-07-16T09:44:29.000Z</time>
      </trkpt>
      <trkpt lat="47.26908" lon="-1.42415">
        <ele>52</ele>
        <time>2021-07-16T09:44:31.000Z</time>
      </trkpt>
      <trkpt lat="47.269" lon="-1.4243">
        <ele>53</ele>
        <time>2021-07-16T09:44:33.000Z</time>
      </trkpt>
      <trkpt lat="47.26892" lon="-1.42445">
        <ele>53</ele>
        <time>2021-07-16T09:44:35.000Z</time>
      </trkpt>
      <trkpt lat="47.26883" lon="-1.4246">
        <ele>53</ele>
        <time>2021-07-16T09:44:37.000Z</time>
      </trkpt>
      <trkpt lat="47.26875" lon="-1.42475">
        <ele>53</ele>
        <time>2021-07-16T09:44:39.000Z</time>
      </trkpt>
      <trkpt lat="47.26866" lon="-1.42491">
        <ele>53</ele>
        <time>2021-07-16T09:44:41.000Z</time>
      </trkpt>
      <trkpt lat="47.26858" lon="-1.42505">
        <ele>52</ele>
        <time>2021-07-16T09:44:43.000Z</time>
      </trkpt>
      <trkpt lat="47.2685" lon="-1.42521">
        <ele>52</ele>
        <time>2021-07-16T09:44:45.000Z</time>
      </trkpt>
      <trkpt lat="47.26842" lon="-1.42536">
        <ele>51</ele>
        <time>2021-07-16T09:44:47.000Z</time>
      </trkpt>
      <trkpt lat="47.26833" lon="-1.42552">
        <ele>52</ele>
        <time>2021-07-16T09:44:49.000Z</time>
      </trkpt>
      <trkpt lat="47.26826" lon="-1.42568">
        <ele>52</ele>
        <time>2021-07-16T09:44:51.000Z</time>
      </trkpt>
      <trkpt lat="47.26818" lon="-1.42583">
        <ele>52</ele>
        <time>2021-07-16T09:44:53.000Z</time>
      </trkpt>
      <trkpt lat="47.26811" lon="-1.426">
        <ele>51</ele>
        <time>2021-07-16T09:44:55.000Z</time>
      </trkpt>
      <trkpt lat="47.26804" lon="-1.42617">
        <ele>51</ele>
        <time>2021-07-16T09:44:57.000Z</time>
      </trkpt>
      <trkpt lat="47.26797" lon="-1.42634">
        <ele>52</ele>
        <time>2021-07-16T09:44:59.000Z</time>
      </trkpt>
      <trkpt lat="47.2679" lon="-1.42651">
        <ele>52</ele>
        <time>2021-07-16T09:45:01.000Z</time>
      </trkpt>
      <trkpt lat="47.26784" lon="-1.42668">
        <ele>52</ele>
        <time>2021-07-16T09:45:03.000Z</time>
      </trkpt>
      <trkpt lat="47.26778" lon="-1.42685">
        <ele>51</ele>
        <time>2021-07-16T09:45:05.000Z</time>
      </trkpt>
      <trkpt lat="47.26772" lon="-1.42702">
        <ele>52</ele>
        <time>2021-07-16T09:45:07.000Z</time>
      </trkpt>
      <trkpt lat="47.26765" lon="-1.42719">
        <ele>52</ele>
        <time>2021-07-16T09:45:09.000Z</time>
      </trkpt>
      <trkpt lat="47.26758" lon="-1.42735">
        <ele>53</ele>
        <time>2021-07-16T09:45:11.000Z</time>
      </trkpt>
      <trkpt lat="47.26751" lon="-1.42748">
        <ele>53</ele>
        <time>2021-07-16T09:45:13.000Z</time>
      </trkpt>
      <trkpt lat="47.26744" lon="-1.42763">
        <ele>53</ele>
        <time>2021-07-16T09:45:15.000Z</time>
      </trkpt>
      <trkpt lat="47.26737" lon="-1.4278">
        <ele>53</ele>
        <time>2021-07-16T09:45:17.000Z</time>
      </trkpt>
      <trkpt lat="47.26733" lon="-1.42797">
        <ele>53</ele>
        <time>2021-07-16T09:45:19.000Z</time>
      </trkpt>
      <trkpt lat="47.26728" lon="-1.42813">
        <ele>53</ele>
        <time>2021-07-16T09:45:21.000Z</time>
      </trkpt>
      <trkpt lat="47.26723" lon="-1.42829">
        <ele>53</ele>
        <time>2021-07-16T09:45:23.000Z</time>
      </trkpt>
      <trkpt lat="47.26717" lon="-1.42844">
        <ele>53</ele>
        <time>2021-07-16T09:45:25.000Z</time>
      </trkpt>
      <trkpt lat="47.2671" lon="-1.42861">
        <ele>52</ele>
        <time>2021-07-16T09:45:27.000Z</time>
      </trkpt>
      <trkpt lat="47.26702" lon="-1.42878">
        <ele>52</ele>
        <time>2021-07-16T09:45:29.000Z</time>
      </trkpt>
      <trkpt lat="47.26692" lon="-1.42896">
        <ele>51</ele>
        <time>2021-07-16T09:45:31.000Z</time>
      </trkpt>
      <trkpt lat="47.26684" lon="-1.42913">
        <ele>52</ele>
        <time>2021-07-16T09:45:33.000Z</time>
      </trkpt>
      <trkpt lat="47.26675" lon="-1.4293">
        <ele>52</ele>
        <time>2021-07-16T09:45:35.000Z</time>
      </trkpt>
      <trkpt lat="47.26667" lon="-1.42946">
        <ele>52</ele>
        <time>2021-07-16T09:45:37.000Z</time>
      </trkpt>
      <trkpt lat="47.2666" lon="-1.42963">
        <ele>52</ele>
        <time>2021-07-16T09:45:39.000Z</time>
      </trkpt>
      <trkpt lat="47.26652" lon="-1.42979">
        <ele>52</ele>
        <time>2021-07-16T09:45:41.000Z</time>
      </trkpt>
      <trkpt lat="47.26645" lon="-1.42995">
        <ele>52</ele>
        <time>2021-07-16T09:45:43.000Z</time>
      </trkpt>
      <trkpt lat="47.26637" lon="-1.43011">
        <ele>52</ele>
        <time>2021-07-16T09:45:45.000Z</time>
      </trkpt>
      <trkpt lat="47.26629" lon="-1.43026">
        <ele>51</ele>
        <time>2021-07-16T09:45:47.000Z</time>
      </trkpt>
      <trkpt lat="47.26621" lon="-1.43041">
        <ele>51</ele>
        <time>2021-07-16T09:45:49.000Z</time>
      </trkpt>
      <trkpt lat="47.26614" lon="-1.43056">
        <ele>50</ele>
        <time>2021-07-16T09:45:51.000Z</time>
      </trkpt>
      <trkpt lat="47.26606" lon="-1.4307">
        <ele>51</ele>
        <time>2021-07-16T09:45:53.000Z</time>
      </trkpt>
      <trkpt lat="47.26597" lon="-1.43086">
        <ele>51</ele>
        <time>2021-07-16T09:45:55.000Z</time>
      </trkpt>
      <trkpt lat="47.26589" lon="-1.431">
        <ele>51</ele>
        <time>2021-07-16T09:45:57.000Z</time>
      </trkpt>
      <trkpt lat="47.26581" lon="-1.43114">
        <ele>51</ele>
        <time>2021-07-16T09:45:59.000Z</time>
      </trkpt>
      <trkpt lat="47.26572" lon="-1.43128">
        <ele>51</ele>
        <time>2021-07-16T09:46:01.000Z</time>
      </trkpt>
      <trkpt lat="47.26564" lon="-1.43143">
        <ele>51</ele>
        <time>2021-07-16T09:46:03.000Z</time>
      </trkpt>
      <trkpt lat="47.26555" lon="-1.43156">
        <ele>51</ele>
        <time>2021-07-16T09:46:05.000Z</time>
      </trkpt>
      <trkpt lat="47.26546" lon="-1.43169">
        <ele>52</ele>
        <time>2021-07-16T09:46:07.000Z</time>
      </trkpt>
      <trkpt lat="47.26538" lon="-1.43183">
        <ele>51</ele>
        <time>2021-07-16T09:46:09.000Z</time>
      </trkpt>
      <trkpt lat="47.26529" lon="-1.43197">
        <ele>52</ele>
        <time>2021-07-16T09:46:11.000Z</time>
      </trkpt>
      <trkpt lat="47.2652" lon="-1.4321">
        <ele>52</ele>
        <time>2021-07-16T09:46:13.000Z</time>
      </trkpt>
      <trkpt lat="47.2651" lon="-1.43223">
        <ele>52</ele>
        <time>2021-07-16T09:46:15.000Z</time>
      </trkpt>
      <trkpt lat="47.26501" lon="-1.43235">
        <ele>53</ele>
        <time>2021-07-16T09:46:17.000Z</time>
      </trkpt>
      <trkpt lat="47.26493" lon="-1.43246">
        <ele>53</ele>
        <time>2021-07-16T09:46:19.000Z</time>
      </trkpt>
      <trkpt lat="47.26485" lon="-1.43257">
        <ele>53</ele>
        <time>2021-07-16T09:46:21.000Z</time>
      </trkpt>
      <trkpt lat="47.26476" lon="-1.43269">
        <ele>54</ele>
        <time>2021-07-16T09:46:23.000Z</time>
      </trkpt>
      <trkpt lat="47.26468" lon="-1.43282">
        <ele>55</ele>
        <time>2021-07-16T09:46:25.000Z</time>
      </trkpt>
      <trkpt lat="47.26459" lon="-1.43296">
        <ele>55</ele>
        <time>2021-07-16T09:46:27.000Z</time>
      </trkpt>
      <trkpt lat="47.2645" lon="-1.4331">
        <ele>55</ele>
        <time>2021-07-16T09:46:29.000Z</time>
      </trkpt>
      <trkpt lat="47.26441" lon="-1.43323">
        <ele>55</ele>
        <time>2021-07-16T09:46:31.000Z</time>
      </trkpt>
      <trkpt lat="47.26432" lon="-1.43335">
        <ele>55</ele>
        <time>2021-07-16T09:46:33.000Z</time>
      </trkpt>
      <trkpt lat="47.26422" lon="-1.43348">
        <ele>53</ele>
        <time>2021-07-16T09:46:35.000Z</time>
      </trkpt>
      <trkpt lat="47.26413" lon="-1.43359">
        <ele>53</ele>
        <time>2021-07-16T09:46:37.000Z</time>
      </trkpt>
      <trkpt lat="47.26403" lon="-1.43372">
        <ele>52</ele>
        <time>2021-07-16T09:46:39.000Z</time>
      </trkpt>
      <trkpt lat="47.26393" lon="-1.43384">
        <ele>52</ele>
        <time>2021-07-16T09:46:41.000Z</time>
      </trkpt>
      <trkpt lat="47.26382" lon="-1.43396">
        <ele>53</ele>
        <time>2021-07-16T09:46:43.000Z</time>
      </trkpt>
      <trkpt lat="47.26372" lon="-1.43407">
        <ele>53</ele>
        <time>2021-07-16T09:46:45.000Z</time>
      </trkpt>
      <trkpt lat="47.26362" lon="-1.43418">
        <ele>53</ele>
        <time>2021-07-16T09:46:47.000Z</time>
      </trkpt>
      <trkpt lat="47.26352" lon="-1.43429">
        <ele>53</ele>
        <time>2021-07-16T09:46:49.000Z</time>
      </trkpt>
      <trkpt lat="47.26341" lon="-1.4344">
        <ele>54</ele>
        <time>2021-07-16T09:46:51.000Z</time>
      </trkpt>
      <trkpt lat="47.26332" lon="-1.4345">
        <ele>54</ele>
        <time>2021-07-16T09:46:53.000Z</time>
      </trkpt>
      <trkpt lat="47.26321" lon="-1.43461">
        <ele>54</ele>
        <time>2021-07-16T09:46:55.000Z</time>
      </trkpt>
      <trkpt lat="47.26312" lon="-1.43471">
        <ele>55</ele>
        <time>2021-07-16T09:46:57.000Z</time>
      </trkpt>
      <trkpt lat="47.26302" lon="-1.43481">
        <ele>55</ele>
        <time>2021-07-16T09:46:59.000Z</time>
      </trkpt>
      <trkpt lat="47.26291" lon="-1.43488">
        <ele>55</ele>
        <time>2021-07-16T09:47:01.000Z</time>
      </trkpt>
      <trkpt lat="47.2628" lon="-1.43492">
        <ele>55</ele>
        <time>2021-07-16T09:47:03.000Z</time>
      </trkpt>
      <trkpt lat="47.26269" lon="-1.43495">
        <ele>55</ele>
        <time>2021-07-16T09:47:05.000Z</time>
      </trkpt>
      <trkpt lat="47.26257" lon="-1.43502">
        <ele>55</ele>
        <time>2021-07-16T09:47:07.000Z</time>
      </trkpt>
      <trkpt lat="47.26246" lon="-1.43511">
        <ele>56</ele>
        <time>2021-07-16T09:47:09.000Z</time>
      </trkpt>
      <trkpt lat="47.26236" lon="-1.43522">
        <ele>55</ele>
        <time>2021-07-16T09:47:11.000Z</time>
      </trkpt>
      <trkpt lat="47.26227" lon="-1.43534">
        <ele>55</ele>
        <time>2021-07-16T09:47:13.000Z</time>
      </trkpt>
      <trkpt lat="47.26219" lon="-1.43547">
        <ele>55</ele>
        <time>2021-07-16T09:47:15.000Z</time>
      </trkpt>
      <trkpt lat="47.26216" lon="-1.43565">
        <ele>55</ele>
        <time>2021-07-16T09:47:17.000Z</time>
      </trkpt>
      <trkpt lat="47.26212" lon="-1.43581">
        <ele>54</ele>
        <time>2021-07-16T09:47:19.000Z</time>
      </trkpt>
      <trkpt lat="47.26203" lon="-1.43594">
        <ele>54</ele>
        <time>2021-07-16T09:47:21.000Z</time>
      </trkpt>
      <trkpt lat="47.26195" lon="-1.43608">
        <ele>54</ele>
        <time>2021-07-16T09:47:23.000Z</time>
      </trkpt>
      <trkpt lat="47.26188" lon="-1.43622">
        <ele>54</ele>
        <time>2021-07-16T09:47:25.000Z</time>
      </trkpt>
      <trkpt lat="47.26183" lon="-1.43635">
        <ele>54</ele>
        <time>2021-07-16T09:47:27.000Z</time>
      </trkpt>
      <trkpt lat="47.26175" lon="-1.43648">
        <ele>54</ele>
        <time>2021-07-16T09:47:30.000Z</time>
      </trkpt>
      <trkpt lat="47.26165" lon="-1.43662">
        <ele>54</ele>
        <time>2021-07-16T09:47:33.000Z</time>
      </trkpt>
      <trkpt lat="47.26156" lon="-1.43675">
        <ele>53</ele>
        <time>2021-07-16T09:47:35.000Z</time>
      </trkpt>
      <trkpt lat="47.26147" lon="-1.43688">
        <ele>53</ele>
        <time>2021-07-16T09:47:37.000Z</time>
      </trkpt>
      <trkpt lat="47.26138" lon="-1.43702">
        <ele>52</ele>
        <time>2021-07-16T09:47:39.000Z</time>
      </trkpt>
      <trkpt lat="47.26131" lon="-1.43715">
        <ele>53</ele>
        <time>2021-07-16T09:47:41.000Z</time>
      </trkpt>
      <trkpt lat="47.26123" lon="-1.43728">
        <ele>53</ele>
        <time>2021-07-16T09:47:43.000Z</time>
      </trkpt>
      <trkpt lat="47.26113" lon="-1.43741">
        <ele>53</ele>
        <time>2021-07-16T09:47:45.000Z</time>
      </trkpt>
      <trkpt lat="47.26102" lon="-1.43753">
        <ele>52</ele>
        <time>2021-07-16T09:47:47.000Z</time>
      </trkpt>
      <trkpt lat="47.26092" lon="-1.43765">
        <ele>52</ele>
        <time>2021-07-16T09:47:49.000Z</time>
      </trkpt>
      <trkpt lat="47.26083" lon="-1.43778">
        <ele>53</ele>
        <time>2021-07-16T09:47:51.000Z</time>
      </trkpt>
      <trkpt lat="47.26073" lon="-1.43791">
        <ele>53</ele>
        <time>2021-07-16T09:47:53.000Z</time>
      </trkpt>
      <trkpt lat="47.26063" lon="-1.43805">
        <ele>53</ele>
        <time>2021-07-16T09:47:55.000Z</time>
      </trkpt>
      <trkpt lat="47.26054" lon="-1.43821">
        <ele>53</ele>
        <time>2021-07-16T09:47:57.000Z</time>
      </trkpt>
      <trkpt lat="47.26046" lon="-1.43837">
        <ele>53</ele>
        <time>2021-07-16T09:47:59.000Z</time>
      </trkpt>
      <trkpt lat="47.2604" lon="-1.43854">
        <ele>53</ele>
        <time>2021-07-16T09:48:01.000Z</time>
      </trkpt>
      <trkpt lat="47.26031" lon="-1.43867">
        <ele>53</ele>
        <time>2021-07-16T09:48:03.000Z</time>
      </trkpt>
      <trkpt lat="47.26021" lon="-1.43878">
        <ele>53</ele>
        <time>2021-07-16T09:48:05.000Z</time>
      </trkpt>
      <trkpt lat="47.26011" lon="-1.43887">
        <ele>54</ele>
        <time>2021-07-16T09:48:07.000Z</time>
      </trkpt>
      <trkpt lat="47.25999" lon="-1.43899">
        <ele>54</ele>
        <time>2021-07-16T09:48:09.000Z</time>
      </trkpt>
      <trkpt lat="47.25989" lon="-1.43911">
        <ele>53</ele>
        <time>2021-07-16T09:48:11.000Z</time>
      </trkpt>
      <trkpt lat="47.25979" lon="-1.43923">
        <ele>53</ele>
        <time>2021-07-16T09:48:13.000Z</time>
      </trkpt>
      <trkpt lat="47.25969" lon="-1.43936">
        <ele>54</ele>
        <time>2021-07-16T09:48:15.000Z</time>
      </trkpt>
      <trkpt lat="47.2596" lon="-1.43948">
        <ele>54</ele>
        <time>2021-07-16T09:48:17.000Z</time>
      </trkpt>
      <trkpt lat="47.25951" lon="-1.4396">
        <ele>54</ele>
        <time>2021-07-16T09:48:19.000Z</time>
      </trkpt>
      <trkpt lat="47.25941" lon="-1.43971">
        <ele>54</ele>
        <time>2021-07-16T09:48:21.000Z</time>
      </trkpt>
      <trkpt lat="47.25931" lon="-1.43983">
        <ele>54</ele>
        <time>2021-07-16T09:48:23.000Z</time>
      </trkpt>
      <trkpt lat="47.25921" lon="-1.43994">
        <ele>54</ele>
        <time>2021-07-16T09:48:25.000Z</time>
      </trkpt>
      <trkpt lat="47.2591" lon="-1.44006">
        <ele>54</ele>
        <time>2021-07-16T09:48:27.000Z</time>
      </trkpt>
      <trkpt lat="47.25899" lon="-1.44017">
        <ele>53</ele>
        <time>2021-07-16T09:48:29.000Z</time>
      </trkpt>
      <trkpt lat="47.25888" lon="-1.4403">
        <ele>54</ele>
        <time>2021-07-16T09:48:31.000Z</time>
      </trkpt>
      <trkpt lat="47.25879" lon="-1.44046">
        <ele>55</ele>
        <time>2021-07-16T09:48:33.000Z</time>
      </trkpt>
      <trkpt lat="47.25871" lon="-1.44064">
        <ele>53</ele>
        <time>2021-07-16T09:48:35.000Z</time>
      </trkpt>
      <trkpt lat="47.25863" lon="-1.44081">
        <ele>53</ele>
        <time>2021-07-16T09:48:37.000Z</time>
      </trkpt>
      <trkpt lat="47.25853" lon="-1.44095">
        <ele>53</ele>
        <time>2021-07-16T09:48:39.000Z</time>
      </trkpt>
      <trkpt lat="47.25842" lon="-1.44107">
        <ele>52</ele>
        <time>2021-07-16T09:48:41.000Z</time>
      </trkpt>
      <trkpt lat="47.25832" lon="-1.44119">
        <ele>53</ele>
        <time>2021-07-16T09:48:43.000Z</time>
      </trkpt>
      <trkpt lat="47.25822" lon="-1.44133">
        <ele>53</ele>
        <time>2021-07-16T09:48:45.000Z</time>
      </trkpt>
      <trkpt lat="47.25812" lon="-1.44146">
        <ele>54</ele>
        <time>2021-07-16T09:48:47.000Z</time>
      </trkpt>
      <trkpt lat="47.25801" lon="-1.44158">
        <ele>54</ele>
        <time>2021-07-16T09:48:49.000Z</time>
      </trkpt>
      <trkpt lat="47.2579" lon="-1.44171">
        <ele>54</ele>
        <time>2021-07-16T09:48:51.000Z</time>
      </trkpt>
      <trkpt lat="47.25779" lon="-1.44184">
        <ele>54</ele>
        <time>2021-07-16T09:48:53.000Z</time>
      </trkpt>
      <trkpt lat="47.25768" lon="-1.44197">
        <ele>54</ele>
        <time>2021-07-16T09:48:55.000Z</time>
      </trkpt>
      <trkpt lat="47.25757" lon="-1.44209">
        <ele>54</ele>
        <time>2021-07-16T09:48:57.000Z</time>
      </trkpt>
      <trkpt lat="47.25746" lon="-1.44223">
        <ele>55</ele>
        <time>2021-07-16T09:48:59.000Z</time>
      </trkpt>
      <trkpt lat="47.25736" lon="-1.44236">
        <ele>55</ele>
        <time>2021-07-16T09:49:01.000Z</time>
      </trkpt>
      <trkpt lat="47.25726" lon="-1.44249">
        <ele>54</ele>
        <time>2021-07-16T09:49:03.000Z</time>
      </trkpt>
      <trkpt lat="47.25715" lon="-1.44262">
        <ele>54</ele>
        <time>2021-07-16T09:49:05.000Z</time>
      </trkpt>
      <trkpt lat="47.25705" lon="-1.44274">
        <ele>54</ele>
        <time>2021-07-16T09:49:07.000Z</time>
      </trkpt>
      <trkpt lat="47.25695" lon="-1.44286">
        <ele>54</ele>
        <time>2021-07-16T09:49:09.000Z</time>
      </trkpt>
      <trkpt lat="47.25685" lon="-1.44298">
        <ele>54</ele>
        <time>2021-07-16T09:49:11.000Z</time>
      </trkpt>
      <trkpt lat="47.25675" lon="-1.44311">
        <ele>54</ele>
        <time>2021-07-16T09:49:13.000Z</time>
      </trkpt>
      <trkpt lat="47.25666" lon="-1.44323">
        <ele>54</ele>
        <time>2021-07-16T09:49:15.000Z</time>
      </trkpt>
      <trkpt lat="47.25656" lon="-1.44335">
        <ele>54</ele>
        <time>2021-07-16T09:49:17.000Z</time>
      </trkpt>
      <trkpt lat="47.25646" lon="-1.44346">
        <ele>55</ele>
        <time>2021-07-16T09:49:19.000Z</time>
      </trkpt>
      <trkpt lat="47.25636" lon="-1.44358">
        <ele>55</ele>
        <time>2021-07-16T09:49:21.000Z</time>
      </trkpt>
      <trkpt lat="47.25625" lon="-1.44369">
        <ele>55</ele>
        <time>2021-07-16T09:49:23.000Z</time>
      </trkpt>
      <trkpt lat="47.25615" lon="-1.44381">
        <ele>55</ele>
        <time>2021-07-16T09:49:25.000Z</time>
      </trkpt>
      <trkpt lat="47.25604" lon="-1.44393">
        <ele>56</ele>
        <time>2021-07-16T09:49:27.000Z</time>
      </trkpt>
      <trkpt lat="47.25594" lon="-1.44404">
        <ele>57</ele>
        <time>2021-07-16T09:49:29.000Z</time>
      </trkpt>
      <trkpt lat="47.25584" lon="-1.44417">
        <ele>57</ele>
        <time>2021-07-16T09:49:31.000Z</time>
      </trkpt>
      <trkpt lat="47.25574" lon="-1.4443">
        <ele>57</ele>
        <time>2021-07-16T09:49:33.000Z</time>
      </trkpt>
      <trkpt lat="47.25564" lon="-1.44443">
        <ele>57</ele>
        <time>2021-07-16T09:49:35.000Z</time>
      </trkpt>
      <trkpt lat="47.25554" lon="-1.44456">
        <ele>57</ele>
        <time>2021-07-16T09:49:37.000Z</time>
      </trkpt>
      <trkpt lat="47.25545" lon="-1.44468">
        <ele>57</ele>
        <time>2021-07-16T09:49:39.000Z</time>
      </trkpt>
      <trkpt lat="47.25535" lon="-1.44482">
        <ele>57</ele>
        <time>2021-07-16T09:49:41.000Z</time>
      </trkpt>
      <trkpt lat="47.25525" lon="-1.44496">
        <ele>57</ele>
        <time>2021-07-16T09:49:43.000Z</time>
      </trkpt>
      <trkpt lat="47.25515" lon="-1.44511">
        <ele>56</ele>
        <time>2021-07-16T09:49:45.000Z</time>
      </trkpt>
      <trkpt lat="47.25505" lon="-1.44525">
        <ele>55</ele>
        <time>2021-07-16T09:49:47.000Z</time>
      </trkpt>
      <trkpt lat="47.25495" lon="-1.44541">
        <ele>55</ele>
        <time>2021-07-16T09:49:49.000Z</time>
      </trkpt>
      <trkpt lat="47.25485" lon="-1.44555">
        <ele>55</ele>
        <time>2021-07-16T09:49:51.000Z</time>
      </trkpt>
      <trkpt lat="47.25476" lon="-1.4457">
        <ele>55</ele>
        <time>2021-07-16T09:49:53.000Z</time>
      </trkpt>
      <trkpt lat="47.25466" lon="-1.44584">
        <ele>55</ele>
        <time>2021-07-16T09:49:55.000Z</time>
      </trkpt>
      <trkpt lat="47.25457" lon="-1.44598">
        <ele>55</ele>
        <time>2021-07-16T09:49:57.000Z</time>
      </trkpt>
      <trkpt lat="47.25447" lon="-1.44612">
        <ele>55</ele>
        <time>2021-07-16T09:49:59.000Z</time>
      </trkpt>
      <trkpt lat="47.25438" lon="-1.44625">
        <ele>55</ele>
        <time>2021-07-16T09:50:01.000Z</time>
      </trkpt>
      <trkpt lat="47.25428" lon="-1.44638">
        <ele>55</ele>
        <time>2021-07-16T09:50:03.000Z</time>
      </trkpt>
      <trkpt lat="47.2542" lon="-1.44651">
        <ele>55</ele>
        <time>2021-07-16T09:50:05.000Z</time>
      </trkpt>
      <trkpt lat="47.25411" lon="-1.44664">
        <ele>55</ele>
        <time>2021-07-16T09:50:07.000Z</time>
      </trkpt>
      <trkpt lat="47.25402" lon="-1.44677">
        <ele>54</ele>
        <time>2021-07-16T09:50:09.000Z</time>
      </trkpt>
      <trkpt lat="47.25392" lon="-1.4469">
        <ele>54</ele>
        <time>2021-07-16T09:50:11.000Z</time>
      </trkpt>
      <trkpt lat="47.25382" lon="-1.44701">
        <ele>55</ele>
        <time>2021-07-16T09:50:13.000Z</time>
      </trkpt>
      <trkpt lat="47.25372" lon="-1.44712">
        <ele>55</ele>
        <time>2021-07-16T09:50:15.000Z</time>
      </trkpt>
      <trkpt lat="47.25363" lon="-1.44724">
        <ele>55</ele>
        <time>2021-07-16T09:50:17.000Z</time>
      </trkpt>
      <trkpt lat="47.25352" lon="-1.44735">
        <ele>56</ele>
        <time>2021-07-16T09:50:19.000Z</time>
      </trkpt>
      <trkpt lat="47.25341" lon="-1.44745">
        <ele>55</ele>
        <time>2021-07-16T09:50:21.000Z</time>
      </trkpt>
      <trkpt lat="47.2533" lon="-1.44756">
        <ele>56</ele>
        <time>2021-07-16T09:50:23.000Z</time>
      </trkpt>
      <trkpt lat="47.25319" lon="-1.44766">
        <ele>55</ele>
        <time>2021-07-16T09:50:25.000Z</time>
      </trkpt>
      <trkpt lat="47.2531" lon="-1.44776">
        <ele>56</ele>
        <time>2021-07-16T09:50:27.000Z</time>
      </trkpt>
      <trkpt lat="47.253" lon="-1.44787">
        <ele>56</ele>
        <time>2021-07-16T09:50:29.000Z</time>
      </trkpt>
      <trkpt lat="47.25292" lon="-1.44798">
        <ele>56</ele>
        <time>2021-07-16T09:50:31.000Z</time>
      </trkpt>
      <trkpt lat="47.25283" lon="-1.44809">
        <ele>56</ele>
        <time>2021-07-16T09:50:33.000Z</time>
      </trkpt>
      <trkpt lat="47.25271" lon="-1.4482">
        <ele>57</ele>
        <time>2021-07-16T09:50:35.000Z</time>
      </trkpt>
      <trkpt lat="47.2526" lon="-1.44833">
        <ele>56</ele>
        <time>2021-07-16T09:50:37.000Z</time>
      </trkpt>
      <trkpt lat="47.25249" lon="-1.44844">
        <ele>56</ele>
        <time>2021-07-16T09:50:39.000Z</time>
      </trkpt>
      <trkpt lat="47.25239" lon="-1.44856">
        <ele>56</ele>
        <time>2021-07-16T09:50:41.000Z</time>
      </trkpt>
      <trkpt lat="47.25229" lon="-1.44866">
        <ele>56</ele>
        <time>2021-07-16T09:50:43.000Z</time>
      </trkpt>
      <trkpt lat="47.25218" lon="-1.44876">
        <ele>56</ele>
        <time>2021-07-16T09:50:45.000Z</time>
      </trkpt>
      <trkpt lat="47.25207" lon="-1.44886">
        <ele>55</ele>
        <time>2021-07-16T09:50:47.000Z</time>
      </trkpt>
      <trkpt lat="47.25195" lon="-1.44896">
        <ele>55</ele>
        <time>2021-07-16T09:50:49.000Z</time>
      </trkpt>
      <trkpt lat="47.25184" lon="-1.44905">
        <ele>55</ele>
        <time>2021-07-16T09:50:51.000Z</time>
      </trkpt>
      <trkpt lat="47.25172" lon="-1.44914">
        <ele>54</ele>
        <time>2021-07-16T09:50:53.000Z</time>
      </trkpt>
      <trkpt lat="47.2516" lon="-1.44925">
        <ele>55</ele>
        <time>2021-07-16T09:50:55.000Z</time>
      </trkpt>
      <trkpt lat="47.25148" lon="-1.44936">
        <ele>55</ele>
        <time>2021-07-16T09:50:57.000Z</time>
      </trkpt>
      <trkpt lat="47.25137" lon="-1.44946">
        <ele>55</ele>
        <time>2021-07-16T09:50:59.000Z</time>
      </trkpt>
      <trkpt lat="47.25126" lon="-1.44957">
        <ele>54</ele>
        <time>2021-07-16T09:51:01.000Z</time>
      </trkpt>
      <trkpt lat="47.25116" lon="-1.44968">
        <ele>54</ele>
        <time>2021-07-16T09:51:03.000Z</time>
      </trkpt>
      <trkpt lat="47.25105" lon="-1.44979">
        <ele>54</ele>
        <time>2021-07-16T09:51:05.000Z</time>
      </trkpt>
      <trkpt lat="47.25094" lon="-1.44988">
        <ele>54</ele>
        <time>2021-07-16T09:51:07.000Z</time>
      </trkpt>
      <trkpt lat="47.25084" lon="-1.44997">
        <ele>54</ele>
        <time>2021-07-16T09:51:09.000Z</time>
      </trkpt>
      <trkpt lat="47.25074" lon="-1.45006">
        <ele>54</ele>
        <time>2021-07-16T09:51:11.000Z</time>
      </trkpt>
      <trkpt lat="47.25062" lon="-1.45015">
        <ele>53</ele>
        <time>2021-07-16T09:51:13.000Z</time>
      </trkpt>
      <trkpt lat="47.25051" lon="-1.45025">
        <ele>52</ele>
        <time>2021-07-16T09:51:15.000Z</time>
      </trkpt>
      <trkpt lat="47.25039" lon="-1.45033">
        <ele>53</ele>
        <time>2021-07-16T09:51:17.000Z</time>
      </trkpt>
      <trkpt lat="47.25027" lon="-1.45041">
        <ele>52</ele>
        <time>2021-07-16T09:51:19.000Z</time>
      </trkpt>
      <trkpt lat="47.25016" lon="-1.45051">
        <ele>52</ele>
        <time>2021-07-16T09:51:21.000Z</time>
      </trkpt>
      <trkpt lat="47.25004" lon="-1.4506">
        <ele>52</ele>
        <time>2021-07-16T09:51:23.000Z</time>
      </trkpt>
      <trkpt lat="47.24994" lon="-1.45071">
        <ele>52</ele>
        <time>2021-07-16T09:51:25.000Z</time>
      </trkpt>
      <trkpt lat="47.24984" lon="-1.45083">
        <ele>52</ele>
        <time>2021-07-16T09:51:27.000Z</time>
      </trkpt>
      <trkpt lat="47.24974" lon="-1.45095">
        <ele>52</ele>
        <time>2021-07-16T09:51:29.000Z</time>
      </trkpt>
      <trkpt lat="47.24962" lon="-1.45106">
        <ele>51</ele>
        <time>2021-07-16T09:51:31.000Z</time>
      </trkpt>
      <trkpt lat="47.24952" lon="-1.45117">
        <ele>51</ele>
        <time>2021-07-16T09:51:33.000Z</time>
      </trkpt>
      <trkpt lat="47.24941" lon="-1.45128">
        <ele>51</ele>
        <time>2021-07-16T09:51:35.000Z</time>
      </trkpt>
      <trkpt lat="47.24932" lon="-1.4514">
        <ele>52</ele>
        <time>2021-07-16T09:51:37.000Z</time>
      </trkpt>
      <trkpt lat="47.2492" lon="-1.45152">
        <ele>52</ele>
        <time>2021-07-16T09:51:39.000Z</time>
      </trkpt>
      <trkpt lat="47.2491" lon="-1.45164">
        <ele>52</ele>
        <time>2021-07-16T09:51:41.000Z</time>
      </trkpt>
      <trkpt lat="47.249" lon="-1.45175">
        <ele>53</ele>
        <time>2021-07-16T09:51:43.000Z</time>
      </trkpt>
      <trkpt lat="47.24891" lon="-1.45187">
        <ele>54</ele>
        <time>2021-07-16T09:51:45.000Z</time>
      </trkpt>
      <trkpt lat="47.24883" lon="-1.45201">
        <ele>54</ele>
        <time>2021-07-16T09:51:47.000Z</time>
      </trkpt>
      <trkpt lat="47.24875" lon="-1.45212">
        <ele>55</ele>
        <time>2021-07-16T09:51:49.000Z</time>
      </trkpt>
      <trkpt lat="47.24867" lon="-1.45223">
        <ele>55</ele>
        <time>2021-07-16T09:51:51.000Z</time>
      </trkpt>
      <trkpt lat="47.24859" lon="-1.45236">
        <ele>54</ele>
        <time>2021-07-16T09:51:53.000Z</time>
      </trkpt>
      <trkpt lat="47.24851" lon="-1.45248">
        <ele>55</ele>
        <time>2021-07-16T09:51:55.000Z</time>
      </trkpt>
      <trkpt lat="47.24844" lon="-1.45261">
        <ele>55</ele>
        <time>2021-07-16T09:51:57.000Z</time>
      </trkpt>
      <trkpt lat="47.24836" lon="-1.45272">
        <ele>54</ele>
        <time>2021-07-16T09:51:59.000Z</time>
      </trkpt>
      <trkpt lat="47.24829" lon="-1.45285">
        <ele>54</ele>
        <time>2021-07-16T09:52:01.000Z</time>
      </trkpt>
      <trkpt lat="47.24823" lon="-1.453">
        <ele>54</ele>
        <time>2021-07-16T09:52:03.000Z</time>
      </trkpt>
      <trkpt lat="47.24815" lon="-1.45315">
        <ele>54</ele>
        <time>2021-07-16T09:52:05.000Z</time>
      </trkpt>
      <trkpt lat="47.24809" lon="-1.45329">
        <ele>54</ele>
        <time>2021-07-16T09:52:07.000Z</time>
      </trkpt>
      <trkpt lat="47.24802" lon="-1.45343">
        <ele>54</ele>
        <time>2021-07-16T09:52:09.000Z</time>
      </trkpt>
      <trkpt lat="47.24795" lon="-1.4536">
        <ele>55</ele>
        <time>2021-07-16T09:52:11.000Z</time>
      </trkpt>
      <trkpt lat="47.24789" lon="-1.45377">
        <ele>54</ele>
        <time>2021-07-16T09:52:13.000Z</time>
      </trkpt>
      <trkpt lat="47.2478" lon="-1.45395">
        <ele>54</ele>
        <time>2021-07-16T09:52:15.000Z</time>
      </trkpt>
      <trkpt lat="47.24772" lon="-1.45413">
        <ele>54</ele>
        <time>2021-07-16T09:52:17.000Z</time>
      </trkpt>
      <trkpt lat="47.24765" lon="-1.4543">
        <ele>55</ele>
        <time>2021-07-16T09:52:19.000Z</time>
      </trkpt>
      <trkpt lat="47.24758" lon="-1.45448">
        <ele>55</ele>
        <time>2021-07-16T09:52:21.000Z</time>
      </trkpt>
      <trkpt lat="47.24752" lon="-1.45464">
        <ele>55</ele>
        <time>2021-07-16T09:52:23.000Z</time>
      </trkpt>
      <trkpt lat="47.24745" lon="-1.4548">
        <ele>54</ele>
        <time>2021-07-16T09:52:25.000Z</time>
      </trkpt>
      <trkpt lat="47.24738" lon="-1.45496">
        <ele>54</ele>
        <time>2021-07-16T09:52:27.000Z</time>
      </trkpt>
      <trkpt lat="47.24731" lon="-1.45512">
        <ele>54</ele>
        <time>2021-07-16T09:52:29.000Z</time>
      </trkpt>
      <trkpt lat="47.24725" lon="-1.45529">
        <ele>54</ele>
        <time>2021-07-16T09:52:31.000Z</time>
      </trkpt>
      <trkpt lat="47.24719" lon="-1.45544">
        <ele>54</ele>
        <time>2021-07-16T09:52:33.000Z</time>
      </trkpt>
      <trkpt lat="47.24713" lon="-1.4556">
        <ele>53</ele>
        <time>2021-07-16T09:52:35.000Z</time>
      </trkpt>
      <trkpt lat="47.24708" lon="-1.45576">
        <ele>54</ele>
        <time>2021-07-16T09:52:37.000Z</time>
      </trkpt>
      <trkpt lat="47.24704" lon="-1.45591">
        <ele>54</ele>
        <time>2021-07-16T09:52:39.000Z</time>
      </trkpt>
      <trkpt lat="47.24699" lon="-1.45606">
        <ele>54</ele>
        <time>2021-07-16T09:52:41.000Z</time>
      </trkpt>
      <trkpt lat="47.24695" lon="-1.45619">
        <ele>54</ele>
        <time>2021-07-16T09:52:43.000Z</time>
      </trkpt>
      <trkpt lat="47.24691" lon="-1.45632">
        <ele>54</ele>
        <time>2021-07-16T09:52:45.000Z</time>
      </trkpt>
      <trkpt lat="47.24686" lon="-1.45649">
        <ele>54</ele>
        <time>2021-07-16T09:52:48.000Z</time>
      </trkpt>
      <trkpt lat="47.24681" lon="-1.45663">
        <ele>54</ele>
        <time>2021-07-16T09:52:52.000Z</time>
      </trkpt>
      <trkpt lat="47.24678" lon="-1.45678">
        <ele>54</ele>
        <time>2021-07-16T09:53:40.000Z</time>
      </trkpt>
      <trkpt lat="47.24674" lon="-1.45697">
        <ele>55</ele>
        <time>2021-07-16T09:53:43.000Z</time>
      </trkpt>
      <trkpt lat="47.2467" lon="-1.45714">
        <ele>55</ele>
        <time>2021-07-16T09:53:45.000Z</time>
      </trkpt>
      <trkpt lat="47.24666" lon="-1.45732">
        <ele>55</ele>
        <time>2021-07-16T09:53:47.000Z</time>
      </trkpt>
      <trkpt lat="47.24662" lon="-1.45751">
        <ele>55</ele>
        <time>2021-07-16T09:53:49.000Z</time>
      </trkpt>
      <trkpt lat="47.24658" lon="-1.45768">
        <ele>55</ele>
        <time>2021-07-16T09:53:51.000Z</time>
      </trkpt>
      <trkpt lat="47.24654" lon="-1.45784">
        <ele>56</ele>
        <time>2021-07-16T09:53:53.000Z</time>
      </trkpt>
      <trkpt lat="47.2465" lon="-1.458">
        <ele>56</ele>
        <time>2021-07-16T09:53:55.000Z</time>
      </trkpt>
      <trkpt lat="47.24643" lon="-1.45816">
        <ele>56</ele>
        <time>2021-07-16T09:53:57.000Z</time>
      </trkpt>
      <trkpt lat="47.24638" lon="-1.45832">
        <ele>56</ele>
        <time>2021-07-16T09:53:59.000Z</time>
      </trkpt>
      <trkpt lat="47.24634" lon="-1.45848">
        <ele>57</ele>
        <time>2021-07-16T09:54:01.000Z</time>
      </trkpt>
      <trkpt lat="47.2463" lon="-1.45864">
        <ele>57</ele>
        <time>2021-07-16T09:54:03.000Z</time>
      </trkpt>
      <trkpt lat="47.24626" lon="-1.4588">
        <ele>57</ele>
        <time>2021-07-16T09:54:05.000Z</time>
      </trkpt>
      <trkpt lat="47.2462" lon="-1.45899">
        <ele>56</ele>
        <time>2021-07-16T09:54:07.000Z</time>
      </trkpt>
      <trkpt lat="47.24614" lon="-1.45918">
        <ele>55</ele>
        <time>2021-07-16T09:54:09.000Z</time>
      </trkpt>
      <trkpt lat="47.24608" lon="-1.45935">
        <ele>54</ele>
        <time>2021-07-16T09:54:11.000Z</time>
      </trkpt>
      <trkpt lat="47.246" lon="-1.45951">
        <ele>54</ele>
        <time>2021-07-16T09:54:13.000Z</time>
      </trkpt>
      <trkpt lat="47.24592" lon="-1.45969">
        <ele>54</ele>
        <time>2021-07-16T09:54:15.000Z</time>
      </trkpt>
      <trkpt lat="47.24586" lon="-1.45984">
        <ele>55</ele>
        <time>2021-07-16T09:54:17.000Z</time>
      </trkpt>
      <trkpt lat="47.24579" lon="-1.46">
        <ele>55</ele>
        <time>2021-07-16T09:54:19.000Z</time>
      </trkpt>
      <trkpt lat="47.24571" lon="-1.46015">
        <ele>55</ele>
        <time>2021-07-16T09:54:21.000Z</time>
      </trkpt>
      <trkpt lat="47.24563" lon="-1.4603">
        <ele>55</ele>
        <time>2021-07-16T09:54:23.000Z</time>
      </trkpt>
      <trkpt lat="47.24554" lon="-1.46045">
        <ele>55</ele>
        <time>2021-07-16T09:54:25.000Z</time>
      </trkpt>
      <trkpt lat="47.24546" lon="-1.46061">
        <ele>55</ele>
        <time>2021-07-16T09:54:27.000Z</time>
      </trkpt>
      <trkpt lat="47.24537" lon="-1.46078">
        <ele>55</ele>
        <time>2021-07-16T09:54:29.000Z</time>
      </trkpt>
      <trkpt lat="47.24529" lon="-1.46093">
        <ele>54</ele>
        <time>2021-07-16T09:54:31.000Z</time>
      </trkpt>
      <trkpt lat="47.24519" lon="-1.46107">
        <ele>53</ele>
        <time>2021-07-16T09:54:33.000Z</time>
      </trkpt>
      <trkpt lat="47.24508" lon="-1.46119">
        <ele>53</ele>
        <time>2021-07-16T09:54:35.000Z</time>
      </trkpt>
      <trkpt lat="47.24497" lon="-1.46132">
        <ele>54</ele>
        <time>2021-07-16T09:54:37.000Z</time>
      </trkpt>
      <trkpt lat="47.24487" lon="-1.46145">
        <ele>54</ele>
        <time>2021-07-16T09:54:39.000Z</time>
      </trkpt>
      <trkpt lat="47.24476" lon="-1.46159">
        <ele>54</ele>
        <time>2021-07-16T09:54:41.000Z</time>
      </trkpt>
      <trkpt lat="47.24465" lon="-1.46172">
        <ele>54</ele>
        <time>2021-07-16T09:54:43.000Z</time>
      </trkpt>
      <trkpt lat="47.24455" lon="-1.46183">
        <ele>54</ele>
        <time>2021-07-16T09:54:45.000Z</time>
      </trkpt>
      <trkpt lat="47.24444" lon="-1.46196">
        <ele>54</ele>
        <time>2021-07-16T09:54:47.000Z</time>
      </trkpt>
      <trkpt lat="47.24434" lon="-1.46209">
        <ele>54</ele>
        <time>2021-07-16T09:54:49.000Z</time>
      </trkpt>
      <trkpt lat="47.24425" lon="-1.46222">
        <ele>54</ele>
        <time>2021-07-16T09:54:51.000Z</time>
      </trkpt>
      <trkpt lat="47.24416" lon="-1.46234">
        <ele>55</ele>
        <time>2021-07-16T09:54:53.000Z</time>
      </trkpt>
      <trkpt lat="47.24407" lon="-1.46248">
        <ele>55</ele>
        <time>2021-07-16T09:54:55.000Z</time>
      </trkpt>
      <trkpt lat="47.24398" lon="-1.46261">
        <ele>55</ele>
        <time>2021-07-16T09:54:57.000Z</time>
      </trkpt>
      <trkpt lat="47.24389" lon="-1.46273">
        <ele>55</ele>
        <time>2021-07-16T09:54:59.000Z</time>
      </trkpt>
      <trkpt lat="47.2438" lon="-1.46287">
        <ele>55</ele>
        <time>2021-07-16T09:55:01.000Z</time>
      </trkpt>
      <trkpt lat="47.24369" lon="-1.46302">
        <ele>54</ele>
        <time>2021-07-16T09:55:03.000Z</time>
      </trkpt>
      <trkpt lat="47.2436" lon="-1.46316">
        <ele>54</ele>
        <time>2021-07-16T09:55:05.000Z</time>
      </trkpt>
      <trkpt lat="47.24351" lon="-1.4633">
        <ele>54</ele>
        <time>2021-07-16T09:55:07.000Z</time>
      </trkpt>
      <trkpt lat="47.24342" lon="-1.46345">
        <ele>54</ele>
        <time>2021-07-16T09:55:09.000Z</time>
      </trkpt>
      <trkpt lat="47.24333" lon="-1.4636">
        <ele>54</ele>
        <time>2021-07-16T09:55:11.000Z</time>
      </trkpt>
      <trkpt lat="47.24324" lon="-1.46375">
        <ele>54</ele>
        <time>2021-07-16T09:55:13.000Z</time>
      </trkpt>
      <trkpt lat="47.24315" lon="-1.4639">
        <ele>54</ele>
        <time>2021-07-16T09:55:15.000Z</time>
      </trkpt>
      <trkpt lat="47.24306" lon="-1.46405">
        <ele>55</ele>
        <time>2021-07-16T09:55:17.000Z</time>
      </trkpt>
      <trkpt lat="47.24298" lon="-1.46419">
        <ele>55</ele>
        <time>2021-07-16T09:55:19.000Z</time>
      </trkpt>
      <trkpt lat="47.24289" lon="-1.46434">
        <ele>55</ele>
        <time>2021-07-16T09:55:21.000Z</time>
      </trkpt>
      <trkpt lat="47.2428" lon="-1.46448">
        <ele>55</ele>
        <time>2021-07-16T09:55:23.000Z</time>
      </trkpt>
      <trkpt lat="47.24271" lon="-1.46462">
        <ele>55</ele>
        <time>2021-07-16T09:55:25.000Z</time>
      </trkpt>
      <trkpt lat="47.24262" lon="-1.46474">
        <ele>55</ele>
        <time>2021-07-16T09:55:27.000Z</time>
      </trkpt>
      <trkpt lat="47.24252" lon="-1.46486">
        <ele>55</ele>
        <time>2021-07-16T09:55:29.000Z</time>
      </trkpt>
      <trkpt lat="47.24243" lon="-1.46498">
        <ele>55</ele>
        <time>2021-07-16T09:55:31.000Z</time>
      </trkpt>
      <trkpt lat="47.24233" lon="-1.4651">
        <ele>55</ele>
        <time>2021-07-16T09:55:33.000Z</time>
      </trkpt>
      <trkpt lat="47.24223" lon="-1.46523">
        <ele>54</ele>
        <time>2021-07-16T09:55:35.000Z</time>
      </trkpt>
      <trkpt lat="47.24214" lon="-1.46534">
        <ele>55</ele>
        <time>2021-07-16T09:55:37.000Z</time>
      </trkpt>
      <trkpt lat="47.24205" lon="-1.46547">
        <ele>55</ele>
        <time>2021-07-16T09:55:39.000Z</time>
      </trkpt>
      <trkpt lat="47.24195" lon="-1.4656">
        <ele>54</ele>
        <time>2021-07-16T09:55:41.000Z</time>
      </trkpt>
      <trkpt lat="47.24184" lon="-1.46572">
        <ele>54</ele>
        <time>2021-07-16T09:55:43.000Z</time>
      </trkpt>
      <trkpt lat="47.24174" lon="-1.46584">
        <ele>54</ele>
        <time>2021-07-16T09:55:45.000Z</time>
      </trkpt>
      <trkpt lat="47.24165" lon="-1.46596">
        <ele>54</ele>
        <time>2021-07-16T09:55:47.000Z</time>
      </trkpt>
      <trkpt lat="47.24155" lon="-1.46608">
        <ele>54</ele>
        <time>2021-07-16T09:55:49.000Z</time>
      </trkpt>
      <trkpt lat="47.24146" lon="-1.46619">
        <ele>54</ele>
        <time>2021-07-16T09:55:51.000Z</time>
      </trkpt>
      <trkpt lat="47.24137" lon="-1.46631">
        <ele>54</ele>
        <time>2021-07-16T09:55:53.000Z</time>
      </trkpt>
      <trkpt lat="47.24128" lon="-1.46644">
        <ele>53</ele>
        <time>2021-07-16T09:55:55.000Z</time>
      </trkpt>
      <trkpt lat="47.24119" lon="-1.46657">
        <ele>53</ele>
        <time>2021-07-16T09:55:57.000Z</time>
      </trkpt>
      <trkpt lat="47.24111" lon="-1.4667">
        <ele>53</ele>
        <time>2021-07-16T09:55:59.000Z</time>
      </trkpt>
      <trkpt lat="47.24103" lon="-1.46683">
        <ele>54</ele>
        <time>2021-07-16T09:56:01.000Z</time>
      </trkpt>
      <trkpt lat="47.24095" lon="-1.46696">
        <ele>54</ele>
        <time>2021-07-16T09:56:03.000Z</time>
      </trkpt>
      <trkpt lat="47.24087" lon="-1.46707">
        <ele>53</ele>
        <time>2021-07-16T09:56:05.000Z</time>
      </trkpt>
      <trkpt lat="47.24082" lon="-1.46721">
        <ele>54</ele>
        <time>2021-07-16T09:56:07.000Z</time>
      </trkpt>
      <trkpt lat="47.24075" lon="-1.46735">
        <ele>54</ele>
        <time>2021-07-16T09:56:09.000Z</time>
      </trkpt>
      <trkpt lat="47.24064" lon="-1.46743">
        <ele>55</ele>
        <time>2021-07-16T09:56:11.000Z</time>
      </trkpt>
      <trkpt lat="47.24052" lon="-1.46752">
        <ele>54</ele>
        <time>2021-07-16T09:56:13.000Z</time>
      </trkpt>
      <trkpt lat="47.24041" lon="-1.46764">
        <ele>55</ele>
        <time>2021-07-16T09:56:15.000Z</time>
      </trkpt>
      <trkpt lat="47.2403" lon="-1.46775">
        <ele>55</ele>
        <time>2021-07-16T09:56:17.000Z</time>
      </trkpt>
      <trkpt lat="47.2402" lon="-1.46786">
        <ele>55</ele>
        <time>2021-07-16T09:56:19.000Z</time>
      </trkpt>
      <trkpt lat="47.24011" lon="-1.46797">
        <ele>55</ele>
        <time>2021-07-16T09:56:21.000Z</time>
      </trkpt>
      <trkpt lat="47.24002" lon="-1.46807">
        <ele>55</ele>
        <time>2021-07-16T09:56:23.000Z</time>
      </trkpt>
      <trkpt lat="47.23994" lon="-1.46815">
        <ele>55</ele>
        <time>2021-07-16T09:56:25.000Z</time>
      </trkpt>
      <trkpt lat="47.23985" lon="-1.46827">
        <ele>55</ele>
        <time>2021-07-16T09:56:28.000Z</time>
      </trkpt>
      <trkpt lat="47.23974" lon="-1.46838">
        <ele>55</ele>
        <time>2021-07-16T09:56:31.000Z</time>
      </trkpt>
      <trkpt lat="47.23966" lon="-1.46847">
        <ele>56</ele>
        <time>2021-07-16T09:56:33.000Z</time>
      </trkpt>
      <trkpt lat="47.23956" lon="-1.46856">
        <ele>56</ele>
        <time>2021-07-16T09:56:35.000Z</time>
      </trkpt>
      <trkpt lat="47.23946" lon="-1.46865">
        <ele>56</ele>
        <time>2021-07-16T09:56:37.000Z</time>
      </trkpt>
      <trkpt lat="47.23936" lon="-1.46872">
        <ele>56</ele>
        <time>2021-07-16T09:56:39.000Z</time>
      </trkpt>
      <trkpt lat="47.23926" lon="-1.46882">
        <ele>56</ele>
        <time>2021-07-16T09:56:42.000Z</time>
      </trkpt>
      <trkpt lat="47.23919" lon="-1.4689">
        <ele>56</ele>
        <time>2021-07-16T09:56:45.000Z</time>
      </trkpt>
      <trkpt lat="47.23911" lon="-1.469">
        <ele>56</ele>
        <time>2021-07-16T09:56:48.000Z</time>
      </trkpt>
      <trkpt lat="47.23903" lon="-1.46908">
        <ele>56</ele>
        <time>2021-07-16T09:56:50.000Z</time>
      </trkpt>
      <trkpt lat="47.23897" lon="-1.46919">
        <ele>56</ele>
        <time>2021-07-16T09:56:53.000Z</time>
      </trkpt>
      <trkpt lat="47.23888" lon="-1.46933">
        <ele>56</ele>
        <time>2021-07-16T09:56:57.000Z</time>
      </trkpt>
      <trkpt lat="47.23879" lon="-1.46942">
        <ele>56</ele>
        <time>2021-07-16T09:56:59.000Z</time>
      </trkpt>
      <trkpt lat="47.2387" lon="-1.46954">
        <ele>56</ele>
        <time>2021-07-16T09:57:01.000Z</time>
      </trkpt>
      <trkpt lat="47.23861" lon="-1.46965">
        <ele>55</ele>
        <time>2021-07-16T09:57:03.000Z</time>
      </trkpt>
      <trkpt lat="47.23853" lon="-1.46976">
        <ele>55</ele>
        <time>2021-07-16T09:57:05.000Z</time>
      </trkpt>
      <trkpt lat="47.23847" lon="-1.46985">
        <ele>55</ele>
        <time>2021-07-16T09:57:08.000Z</time>
      </trkpt>
      <trkpt lat="47.2384" lon="-1.46996">
        <ele>55</ele>
        <time>2021-07-16T09:57:11.000Z</time>
      </trkpt>
      <trkpt lat="47.23833" lon="-1.47006">
        <ele>56</ele>
        <time>2021-07-16T09:57:13.000Z</time>
      </trkpt>
      <trkpt lat="47.23824" lon="-1.47019">
        <ele>55</ele>
        <time>2021-07-16T09:57:15.000Z</time>
      </trkpt>
      <trkpt lat="47.23814" lon="-1.47032">
        <ele>55</ele>
        <time>2021-07-16T09:57:17.000Z</time>
      </trkpt>
      <trkpt lat="47.23805" lon="-1.47046">
        <ele>55</ele>
        <time>2021-07-16T09:57:19.000Z</time>
      </trkpt>
      <trkpt lat="47.23795" lon="-1.47059">
        <ele>55</ele>
        <time>2021-07-16T09:57:21.000Z</time>
      </trkpt>
      <trkpt lat="47.23785" lon="-1.47073">
        <ele>55</ele>
        <time>2021-07-16T09:57:23.000Z</time>
      </trkpt>
      <trkpt lat="47.23775" lon="-1.47088">
        <ele>55</ele>
        <time>2021-07-16T09:57:25.000Z</time>
      </trkpt>
      <trkpt lat="47.23765" lon="-1.47102">
        <ele>54</ele>
        <time>2021-07-16T09:57:27.000Z</time>
      </trkpt>
      <trkpt lat="47.23756" lon="-1.47116">
        <ele>54</ele>
        <time>2021-07-16T09:57:29.000Z</time>
      </trkpt>
      <trkpt lat="47.23745" lon="-1.47129">
        <ele>54</ele>
        <time>2021-07-16T09:57:31.000Z</time>
      </trkpt>
      <trkpt lat="47.23733" lon="-1.4714">
        <ele>55</ele>
        <time>2021-07-16T09:57:33.000Z</time>
      </trkpt>
      <trkpt lat="47.23723" lon="-1.47151">
        <ele>54</ele>
        <time>2021-07-16T09:57:35.000Z</time>
      </trkpt>
      <trkpt lat="47.23713" lon="-1.47166">
        <ele>54</ele>
        <time>2021-07-16T09:57:37.000Z</time>
      </trkpt>
      <trkpt lat="47.23704" lon="-1.47179">
        <ele>53</ele>
        <time>2021-07-16T09:57:39.000Z</time>
      </trkpt>
      <trkpt lat="47.23694" lon="-1.47194">
        <ele>53</ele>
        <time>2021-07-16T09:57:41.000Z</time>
      </trkpt>
      <trkpt lat="47.23686" lon="-1.47209">
        <ele>53</ele>
        <time>2021-07-16T09:57:43.000Z</time>
      </trkpt>
      <trkpt lat="47.23676" lon="-1.47224">
        <ele>53</ele>
        <time>2021-07-16T09:57:45.000Z</time>
      </trkpt>
      <trkpt lat="47.23665" lon="-1.47236">
        <ele>54</ele>
        <time>2021-07-16T09:57:47.000Z</time>
      </trkpt>
      <trkpt lat="47.23653" lon="-1.47248">
        <ele>54</ele>
        <time>2021-07-16T09:57:49.000Z</time>
      </trkpt>
      <trkpt lat="47.23643" lon="-1.47261">
        <ele>54</ele>
        <time>2021-07-16T09:57:51.000Z</time>
      </trkpt>
      <trkpt lat="47.23632" lon="-1.47273">
        <ele>55</ele>
        <time>2021-07-16T09:57:53.000Z</time>
      </trkpt>
      <trkpt lat="47.23621" lon="-1.47285">
        <ele>55</ele>
        <time>2021-07-16T09:57:55.000Z</time>
      </trkpt>
      <trkpt lat="47.2361" lon="-1.47297">
        <ele>56</ele>
        <time>2021-07-16T09:57:57.000Z</time>
      </trkpt>
      <trkpt lat="47.236" lon="-1.47308">
        <ele>56</ele>
        <time>2021-07-16T09:57:59.000Z</time>
      </trkpt>
      <trkpt lat="47.23588" lon="-1.4732">
        <ele>55</ele>
        <time>2021-07-16T09:58:01.000Z</time>
      </trkpt>
      <trkpt lat="47.23577" lon="-1.4733">
        <ele>55</ele>
        <time>2021-07-16T09:58:03.000Z</time>
      </trkpt>
      <trkpt lat="47.23565" lon="-1.47339">
        <ele>55</ele>
        <time>2021-07-16T09:58:05.000Z</time>
      </trkpt>
      <trkpt lat="47.23553" lon="-1.47348">
        <ele>55</ele>
        <time>2021-07-16T09:58:07.000Z</time>
      </trkpt>
      <trkpt lat="47.23542" lon="-1.47358">
        <ele>55</ele>
        <time>2021-07-16T09:58:09.000Z</time>
      </trkpt>
      <trkpt lat="47.23531" lon="-1.47368">
        <ele>55</ele>
        <time>2021-07-16T09:58:11.000Z</time>
      </trkpt>
      <trkpt lat="47.23519" lon="-1.47377">
        <ele>55</ele>
        <time>2021-07-16T09:58:13.000Z</time>
      </trkpt>
      <trkpt lat="47.23509" lon="-1.47386">
        <ele>55</ele>
        <time>2021-07-16T09:58:15.000Z</time>
      </trkpt>
      <trkpt lat="47.23498" lon="-1.47397">
        <ele>55</ele>
        <time>2021-07-16T09:58:17.000Z</time>
      </trkpt>
      <trkpt lat="47.23485" lon="-1.47404">
        <ele>55</ele>
        <time>2021-07-16T09:58:19.000Z</time>
      </trkpt>
      <trkpt lat="47.23472" lon="-1.47409">
        <ele>54</ele>
        <time>2021-07-16T09:58:21.000Z</time>
      </trkpt>
      <trkpt lat="47.2346" lon="-1.47414">
        <ele>54</ele>
        <time>2021-07-16T09:58:23.000Z</time>
      </trkpt>
      <trkpt lat="47.23448" lon="-1.47419">
        <ele>54</ele>
        <time>2021-07-16T09:58:25.000Z</time>
      </trkpt>
      <trkpt lat="47.23436" lon="-1.47424">
        <ele>54</ele>
        <time>2021-07-16T09:58:27.000Z</time>
      </trkpt>
      <trkpt lat="47.23424" lon="-1.47429">
        <ele>54</ele>
        <time>2021-07-16T09:58:29.000Z</time>
      </trkpt>
      <trkpt lat="47.23412" lon="-1.47437">
        <ele>54</ele>
        <time>2021-07-16T09:58:31.000Z</time>
      </trkpt>
      <trkpt lat="47.23401" lon="-1.47447">
        <ele>53</ele>
        <time>2021-07-16T09:58:33.000Z</time>
      </trkpt>
      <trkpt lat="47.2339" lon="-1.47455">
        <ele>53</ele>
        <time>2021-07-16T09:58:35.000Z</time>
      </trkpt>
      <trkpt lat="47.23379" lon="-1.47463">
        <ele>54</ele>
        <time>2021-07-16T09:58:37.000Z</time>
      </trkpt>
      <trkpt lat="47.23366" lon="-1.47469">
        <ele>54</ele>
        <time>2021-07-16T09:58:39.000Z</time>
      </trkpt>
      <trkpt lat="47.23353" lon="-1.47473">
        <ele>54</ele>
        <time>2021-07-16T09:58:41.000Z</time>
      </trkpt>
      <trkpt lat="47.23343" lon="-1.47479">
        <ele>53</ele>
        <time>2021-07-16T09:58:43.000Z</time>
      </trkpt>
      <trkpt lat="47.23332" lon="-1.47485">
        <ele>53</ele>
        <time>2021-07-16T09:58:45.000Z</time>
      </trkpt>
      <trkpt lat="47.23321" lon="-1.47493">
        <ele>53</ele>
        <time>2021-07-16T09:58:47.000Z</time>
      </trkpt>
      <trkpt lat="47.23309" lon="-1.47501">
        <ele>53</ele>
        <time>2021-07-16T09:58:49.000Z</time>
      </trkpt>
      <trkpt lat="47.23297" lon="-1.47508">
        <ele>53</ele>
        <time>2021-07-16T09:58:51.000Z</time>
      </trkpt>
      <trkpt lat="47.23285" lon="-1.47514">
        <ele>53</ele>
        <time>2021-07-16T09:58:53.000Z</time>
      </trkpt>
      <trkpt lat="47.23274" lon="-1.47522">
        <ele>54</ele>
        <time>2021-07-16T09:58:55.000Z</time>
      </trkpt>
      <trkpt lat="47.23263" lon="-1.4753">
        <ele>55</ele>
        <time>2021-07-16T09:58:57.000Z</time>
      </trkpt>
      <trkpt lat="47.23256" lon="-1.47544">
        <ele>56</ele>
        <time>2021-07-16T09:58:59.000Z</time>
      </trkpt>
      <trkpt lat="47.23248" lon="-1.4756">
        <ele>56</ele>
        <time>2021-07-16T09:59:01.000Z</time>
      </trkpt>
      <trkpt lat="47.2324" lon="-1.47574">
        <ele>55</ele>
        <time>2021-07-16T09:59:03.000Z</time>
      </trkpt>
      <trkpt lat="47.23232" lon="-1.47587">
        <ele>54</ele>
        <time>2021-07-16T09:59:05.000Z</time>
      </trkpt>
      <trkpt lat="47.23225" lon="-1.47602">
        <ele>54</ele>
        <time>2021-07-16T09:59:07.000Z</time>
      </trkpt>
      <trkpt lat="47.23218" lon="-1.47617">
        <ele>54</ele>
        <time>2021-07-16T09:59:09.000Z</time>
      </trkpt>
      <trkpt lat="47.23211" lon="-1.47632">
        <ele>53</ele>
        <time>2021-07-16T09:59:11.000Z</time>
      </trkpt>
      <trkpt lat="47.23206" lon="-1.47647">
        <ele>53</ele>
        <time>2021-07-16T09:59:13.000Z</time>
      </trkpt>
      <trkpt lat="47.23199" lon="-1.47663">
        <ele>53</ele>
        <time>2021-07-16T09:59:15.000Z</time>
      </trkpt>
      <trkpt lat="47.23193" lon="-1.47678">
        <ele>53</ele>
        <time>2021-07-16T09:59:17.000Z</time>
      </trkpt>
      <trkpt lat="47.23186" lon="-1.47693">
        <ele>53</ele>
        <time>2021-07-16T09:59:19.000Z</time>
      </trkpt>
      <trkpt lat="47.2318" lon="-1.47709">
        <ele>52</ele>
        <time>2021-07-16T09:59:21.000Z</time>
      </trkpt>
      <trkpt lat="47.23173" lon="-1.47725">
        <ele>52</ele>
        <time>2021-07-16T09:59:23.000Z</time>
      </trkpt>
      <trkpt lat="47.23165" lon="-1.47742">
        <ele>52</ele>
        <time>2021-07-16T09:59:25.000Z</time>
      </trkpt>
      <trkpt lat="47.23157" lon="-1.47759">
        <ele>52</ele>
        <time>2021-07-16T09:59:27.000Z</time>
      </trkpt>
      <trkpt lat="47.2315" lon="-1.47776">
        <ele>51</ele>
        <time>2021-07-16T09:59:29.000Z</time>
      </trkpt>
      <trkpt lat="47.23144" lon="-1.47793">
        <ele>51</ele>
        <time>2021-07-16T09:59:31.000Z</time>
      </trkpt>
      <trkpt lat="47.23139" lon="-1.47808">
        <ele>51</ele>
        <time>2021-07-16T09:59:33.000Z</time>
      </trkpt>
      <trkpt lat="47.23134" lon="-1.47822">
        <ele>52</ele>
        <time>2021-07-16T09:59:35.000Z</time>
      </trkpt>
      <trkpt lat="47.23127" lon="-1.47838">
        <ele>52</ele>
        <time>2021-07-16T09:59:37.000Z</time>
      </trkpt>
      <trkpt lat="47.2312" lon="-1.47855">
        <ele>52</ele>
        <time>2021-07-16T09:59:39.000Z</time>
      </trkpt>
      <trkpt lat="47.23111" lon="-1.4787">
        <ele>52</ele>
        <time>2021-07-16T09:59:41.000Z</time>
      </trkpt>
      <trkpt lat="47.231" lon="-1.47883">
        <ele>52</ele>
        <time>2021-07-16T09:59:43.000Z</time>
      </trkpt>
      <trkpt lat="47.2309" lon="-1.47896">
        <ele>52</ele>
        <time>2021-07-16T09:59:45.000Z</time>
      </trkpt>
      <trkpt lat="47.2308" lon="-1.47908">
        <ele>52</ele>
        <time>2021-07-16T09:59:47.000Z</time>
      </trkpt>
      <trkpt lat="47.2307" lon="-1.47921">
        <ele>52</ele>
        <time>2021-07-16T09:59:49.000Z</time>
      </trkpt>
      <trkpt lat="47.2306" lon="-1.47936">
        <ele>52</ele>
        <time>2021-07-16T09:59:51.000Z</time>
      </trkpt>
      <trkpt lat="47.23049" lon="-1.47951">
        <ele>52</ele>
        <time>2021-07-16T09:59:53.000Z</time>
      </trkpt>
      <trkpt lat="47.23038" lon="-1.47965">
        <ele>52</ele>
        <time>2021-07-16T09:59:55.000Z</time>
      </trkpt>
      <trkpt lat="47.23028" lon="-1.4798">
        <ele>52</ele>
        <time>2021-07-16T09:59:57.000Z</time>
      </trkpt>
      <trkpt lat="47.23018" lon="-1.47995">
        <ele>52</ele>
        <time>2021-07-16T09:59:59.000Z</time>
      </trkpt>
      <trkpt lat="47.23008" lon="-1.4801">
        <ele>51</ele>
        <time>2021-07-16T10:00:01.000Z</time>
      </trkpt>
      <trkpt lat="47.22999" lon="-1.48025">
        <ele>51</ele>
        <time>2021-07-16T10:00:03.000Z</time>
      </trkpt>
      <trkpt lat="47.2299" lon="-1.48041">
        <ele>51</ele>
        <time>2021-07-16T10:00:05.000Z</time>
      </trkpt>
      <trkpt lat="47.2298" lon="-1.48056">
        <ele>51</ele>
        <time>2021-07-16T10:00:07.000Z</time>
      </trkpt>
      <trkpt lat="47.2297" lon="-1.48072">
        <ele>51</ele>
        <time>2021-07-16T10:00:09.000Z</time>
      </trkpt>
      <trkpt lat="47.22961" lon="-1.48087">
        <ele>50</ele>
        <time>2021-07-16T10:00:11.000Z</time>
      </trkpt>
      <trkpt lat="47.22953" lon="-1.48101">
        <ele>50</ele>
        <time>2021-07-16T10:00:13.000Z</time>
      </trkpt>
      <trkpt lat="47.22941" lon="-1.48109">
        <ele>50</ele>
        <time>2021-07-16T10:00:15.000Z</time>
      </trkpt>
      <trkpt lat="47.22926" lon="-1.48113">
        <ele>51</ele>
        <time>2021-07-16T10:00:17.000Z</time>
      </trkpt>
      <trkpt lat="47.22913" lon="-1.48117">
        <ele>52</ele>
        <time>2021-07-16T10:00:19.000Z</time>
      </trkpt>
      <trkpt lat="47.22901" lon="-1.48127">
        <ele>52</ele>
        <time>2021-07-16T10:00:21.000Z</time>
      </trkpt>
      <trkpt lat="47.22891" lon="-1.4814">
        <ele>52</ele>
        <time>2021-07-16T10:00:23.000Z</time>
      </trkpt>
      <trkpt lat="47.22882" lon="-1.48155">
        <ele>52</ele>
        <time>2021-07-16T10:00:25.000Z</time>
      </trkpt>
      <trkpt lat="47.22873" lon="-1.4817">
        <ele>52</ele>
        <time>2021-07-16T10:00:27.000Z</time>
      </trkpt>
      <trkpt lat="47.22864" lon="-1.48185">
        <ele>52</ele>
        <time>2021-07-16T10:00:29.000Z</time>
      </trkpt>
      <trkpt lat="47.22855" lon="-1.48199">
        <ele>53</ele>
        <time>2021-07-16T10:00:31.000Z</time>
      </trkpt>
      <trkpt lat="47.22846" lon="-1.48213">
        <ele>53</ele>
        <time>2021-07-16T10:00:33.000Z</time>
      </trkpt>
      <trkpt lat="47.22836" lon="-1.48227">
        <ele>53</ele>
        <time>2021-07-16T10:00:35.000Z</time>
      </trkpt>
      <trkpt lat="47.22827" lon="-1.4824">
        <ele>52</ele>
        <time>2021-07-16T10:00:37.000Z</time>
      </trkpt>
      <trkpt lat="47.22818" lon="-1.48254">
        <ele>52</ele>
        <time>2021-07-16T10:00:39.000Z</time>
      </trkpt>
      <trkpt lat="47.22809" lon="-1.48267">
        <ele>52</ele>
        <time>2021-07-16T10:00:41.000Z</time>
      </trkpt>
      <trkpt lat="47.228" lon="-1.48282">
        <ele>52</ele>
        <time>2021-07-16T10:00:43.000Z</time>
      </trkpt>
      <trkpt lat="47.22791" lon="-1.48297">
        <ele>52</ele>
        <time>2021-07-16T10:00:45.000Z</time>
      </trkpt>
      <trkpt lat="47.22777" lon="-1.48319">
        <ele>52</ele>
        <time>2021-07-16T10:00:48.000Z</time>
      </trkpt>
      <trkpt lat="47.22768" lon="-1.48334">
        <ele>51</ele>
        <time>2021-07-16T10:00:50.000Z</time>
      </trkpt>
      <trkpt lat="47.22758" lon="-1.48346">
        <ele>52</ele>
        <time>2021-07-16T10:00:52.000Z</time>
      </trkpt>
      <trkpt lat="47.22748" lon="-1.48359">
        <ele>52</ele>
        <time>2021-07-16T10:00:54.000Z</time>
      </trkpt>
      <trkpt lat="47.22735" lon="-1.48378">
        <ele>52</ele>
        <time>2021-07-16T10:00:57.000Z</time>
      </trkpt>
      <trkpt lat="47.2272" lon="-1.48397">
        <ele>52</ele>
        <time>2021-07-16T10:01:00.000Z</time>
      </trkpt>
      <trkpt lat="47.22711" lon="-1.4841">
        <ele>52</ele>
        <time>2021-07-16T10:01:02.000Z</time>
      </trkpt>
      <trkpt lat="47.22703" lon="-1.48426">
        <ele>52</ele>
        <time>2021-07-16T10:01:04.000Z</time>
      </trkpt>
      <trkpt lat="47.22697" lon="-1.48444">
        <ele>52</ele>
        <time>2021-07-16T10:01:06.000Z</time>
      </trkpt>
      <trkpt lat="47.22691" lon="-1.48461">
        <ele>52</ele>
        <time>2021-07-16T10:01:08.000Z</time>
      </trkpt>
      <trkpt lat="47.22685" lon="-1.48478">
        <ele>52</ele>
        <time>2021-07-16T10:01:10.000Z</time>
      </trkpt>
      <trkpt lat="47.22677" lon="-1.48493">
        <ele>52</ele>
        <time>2021-07-16T10:01:12.000Z</time>
      </trkpt>
      <trkpt lat="47.22671" lon="-1.48508">
        <ele>52</ele>
        <time>2021-07-16T10:01:14.000Z</time>
      </trkpt>
      <trkpt lat="47.22666" lon="-1.48524">
        <ele>52</ele>
        <time>2021-07-16T10:01:16.000Z</time>
      </trkpt>
      <trkpt lat="47.22661" lon="-1.48541">
        <ele>52</ele>
        <time>2021-07-16T10:01:18.000Z</time>
      </trkpt>
      <trkpt lat="47.22655" lon="-1.48559">
        <ele>51</ele>
        <time>2021-07-16T10:01:20.000Z</time>
      </trkpt>
      <trkpt lat="47.22648" lon="-1.48577">
        <ele>52</ele>
        <time>2021-07-16T10:01:22.000Z</time>
      </trkpt>
      <trkpt lat="47.22642" lon="-1.48593">
        <ele>52</ele>
        <time>2021-07-16T10:01:24.000Z</time>
      </trkpt>
      <trkpt lat="47.22638" lon="-1.48607">
        <ele>52</ele>
        <time>2021-07-16T10:01:26.000Z</time>
      </trkpt>
      <trkpt lat="47.22633" lon="-1.48622">
        <ele>53</ele>
        <time>2021-07-16T10:01:28.000Z</time>
      </trkpt>
      <trkpt lat="47.22628" lon="-1.48637">
        <ele>53</ele>
        <time>2021-07-16T10:01:30.000Z</time>
      </trkpt>
      <trkpt lat="47.22621" lon="-1.48655">
        <ele>54</ele>
        <time>2021-07-16T10:01:32.000Z</time>
      </trkpt>
      <trkpt lat="47.22616" lon="-1.48673">
        <ele>54</ele>
        <time>2021-07-16T10:01:34.000Z</time>
      </trkpt>
      <trkpt lat="47.22609" lon="-1.48693">
        <ele>54</ele>
        <time>2021-07-16T10:01:36.000Z</time>
      </trkpt>
      <trkpt lat="47.22604" lon="-1.48712">
        <ele>54</ele>
        <time>2021-07-16T10:01:38.000Z</time>
      </trkpt>
      <trkpt lat="47.22598" lon="-1.48729">
        <ele>54</ele>
        <time>2021-07-16T10:01:40.000Z</time>
      </trkpt>
      <trkpt lat="47.22593" lon="-1.48748">
        <ele>54</ele>
        <time>2021-07-16T10:01:42.000Z</time>
      </trkpt>
      <trkpt lat="47.22589" lon="-1.48765">
        <ele>54</ele>
        <time>2021-07-16T10:01:44.000Z</time>
      </trkpt>
      <trkpt lat="47.22584" lon="-1.48782">
        <ele>53</ele>
        <time>2021-07-16T10:01:46.000Z</time>
      </trkpt>
      <trkpt lat="47.22579" lon="-1.48798">
        <ele>53</ele>
        <time>2021-07-16T10:01:48.000Z</time>
      </trkpt>
      <trkpt lat="47.22573" lon="-1.48812">
        <ele>53</ele>
        <time>2021-07-16T10:01:50.000Z</time>
      </trkpt>
      <trkpt lat="47.22568" lon="-1.48827">
        <ele>53</ele>
        <time>2021-07-16T10:01:52.000Z</time>
      </trkpt>
      <trkpt lat="47.22563" lon="-1.48842">
        <ele>53</ele>
        <time>2021-07-16T10:01:54.000Z</time>
      </trkpt>
      <trkpt lat="47.2256" lon="-1.48858">
        <ele>53</ele>
        <time>2021-07-16T10:01:56.000Z</time>
      </trkpt>
      <trkpt lat="47.22555" lon="-1.48874">
        <ele>54</ele>
        <time>2021-07-16T10:01:58.000Z</time>
      </trkpt>
      <trkpt lat="47.22552" lon="-1.48888">
        <ele>54</ele>
        <time>2021-07-16T10:02:00.000Z</time>
      </trkpt>
      <trkpt lat="47.22547" lon="-1.48904">
        <ele>54</ele>
        <time>2021-07-16T10:02:02.000Z</time>
      </trkpt>
      <trkpt lat="47.22541" lon="-1.48924">
        <ele>53</ele>
        <time>2021-07-16T10:02:04.000Z</time>
      </trkpt>
      <trkpt lat="47.22535" lon="-1.48945">
        <ele>54</ele>
        <time>2021-07-16T10:02:06.000Z</time>
      </trkpt>
      <trkpt lat="47.22528" lon="-1.48962">
        <ele>53</ele>
        <time>2021-07-16T10:02:08.000Z</time>
      </trkpt>
      <trkpt lat="47.22522" lon="-1.48979">
        <ele>54</ele>
        <time>2021-07-16T10:02:10.000Z</time>
      </trkpt>
      <trkpt lat="47.22516" lon="-1.48999">
        <ele>53</ele>
        <time>2021-07-16T10:02:12.000Z</time>
      </trkpt>
      <trkpt lat="47.22512" lon="-1.49016">
        <ele>53</ele>
        <time>2021-07-16T10:02:14.000Z</time>
      </trkpt>
      <trkpt lat="47.22507" lon="-1.49032">
        <ele>53</ele>
        <time>2021-07-16T10:02:16.000Z</time>
      </trkpt>
      <trkpt lat="47.22503" lon="-1.49049">
        <ele>53</ele>
        <time>2021-07-16T10:02:18.000Z</time>
      </trkpt>
      <trkpt lat="47.22498" lon="-1.49065">
        <ele>53</ele>
        <time>2021-07-16T10:02:20.000Z</time>
      </trkpt>
      <trkpt lat="47.22492" lon="-1.49083">
        <ele>53</ele>
        <time>2021-07-16T10:02:22.000Z</time>
      </trkpt>
      <trkpt lat="47.22486" lon="-1.49099">
        <ele>53</ele>
        <time>2021-07-16T10:02:24.000Z</time>
      </trkpt>
      <trkpt lat="47.22482" lon="-1.49116">
        <ele>53</ele>
        <time>2021-07-16T10:02:26.000Z</time>
      </trkpt>
      <trkpt lat="47.22477" lon="-1.49135">
        <ele>53</ele>
        <time>2021-07-16T10:02:28.000Z</time>
      </trkpt>
      <trkpt lat="47.22472" lon="-1.49151">
        <ele>52</ele>
        <time>2021-07-16T10:02:30.000Z</time>
      </trkpt>
      <trkpt lat="47.22464" lon="-1.49168">
        <ele>52</ele>
        <time>2021-07-16T10:02:32.000Z</time>
      </trkpt>
      <trkpt lat="47.22457" lon="-1.49184">
        <ele>52</ele>
        <time>2021-07-16T10:02:34.000Z</time>
      </trkpt>
      <trkpt lat="47.2245" lon="-1.49202">
        <ele>51</ele>
        <time>2021-07-16T10:02:36.000Z</time>
      </trkpt>
      <trkpt lat="47.22443" lon="-1.4922">
        <ele>51</ele>
        <time>2021-07-16T10:02:38.000Z</time>
      </trkpt>
      <trkpt lat="47.22437" lon="-1.49238">
        <ele>51</ele>
        <time>2021-07-16T10:02:40.000Z</time>
      </trkpt>
      <trkpt lat="47.22431" lon="-1.49255">
        <ele>51</ele>
        <time>2021-07-16T10:02:42.000Z</time>
      </trkpt>
      <trkpt lat="47.22424" lon="-1.49271">
        <ele>51</ele>
        <time>2021-07-16T10:02:44.000Z</time>
      </trkpt>
      <trkpt lat="47.22417" lon="-1.49288">
        <ele>50</ele>
        <time>2021-07-16T10:02:46.000Z</time>
      </trkpt>
      <trkpt lat="47.22411" lon="-1.49304">
        <ele>50</ele>
        <time>2021-07-16T10:02:48.000Z</time>
      </trkpt>
      <trkpt lat="47.22405" lon="-1.49321">
        <ele>50</ele>
        <time>2021-07-16T10:02:50.000Z</time>
      </trkpt>
      <trkpt lat="47.22399" lon="-1.49338">
        <ele>50</ele>
        <time>2021-07-16T10:02:52.000Z</time>
      </trkpt>
      <trkpt lat="47.22392" lon="-1.49354">
        <ele>50</ele>
        <time>2021-07-16T10:02:54.000Z</time>
      </trkpt>
      <trkpt lat="47.22385" lon="-1.49369">
        <ele>50</ele>
        <time>2021-07-16T10:02:56.000Z</time>
      </trkpt>
      <trkpt lat="47.22379" lon="-1.49383">
        <ele>50</ele>
        <time>2021-07-16T10:02:58.000Z</time>
      </trkpt>
      <trkpt lat="47.22374" lon="-1.49396">
        <ele>50</ele>
        <time>2021-07-16T10:03:00.000Z</time>
      </trkpt>
      <trkpt lat="47.22369" lon="-1.4941">
        <ele>51</ele>
        <time>2021-07-16T10:03:02.000Z</time>
      </trkpt>
      <trkpt lat="47.22363" lon="-1.49425">
        <ele>52</ele>
        <time>2021-07-16T10:03:04.000Z</time>
      </trkpt>
      <trkpt lat="47.22355" lon="-1.4944">
        <ele>52</ele>
        <time>2021-07-16T10:03:06.000Z</time>
      </trkpt>
      <trkpt lat="47.2235" lon="-1.49455">
        <ele>53</ele>
        <time>2021-07-16T10:03:08.000Z</time>
      </trkpt>
      <trkpt lat="47.22345" lon="-1.49472">
        <ele>53</ele>
        <time>2021-07-16T10:03:10.000Z</time>
      </trkpt>
      <trkpt lat="47.2234" lon="-1.49491">
        <ele>53</ele>
        <time>2021-07-16T10:03:12.000Z</time>
      </trkpt>
      <trkpt lat="47.22334" lon="-1.49509">
        <ele>53</ele>
        <time>2021-07-16T10:03:14.000Z</time>
      </trkpt>
      <trkpt lat="47.22328" lon="-1.49527">
        <ele>53</ele>
        <time>2021-07-16T10:03:16.000Z</time>
      </trkpt>
      <trkpt lat="47.22322" lon="-1.49544">
        <ele>53</ele>
        <time>2021-07-16T10:03:18.000Z</time>
      </trkpt>
      <trkpt lat="47.22316" lon="-1.4956">
        <ele>53</ele>
        <time>2021-07-16T10:03:20.000Z</time>
      </trkpt>
      <trkpt lat="47.2231" lon="-1.49575">
        <ele>53</ele>
        <time>2021-07-16T10:03:22.000Z</time>
      </trkpt>
      <trkpt lat="47.22305" lon="-1.49591">
        <ele>53</ele>
        <time>2021-07-16T10:03:24.000Z</time>
      </trkpt>
      <trkpt lat="47.22301" lon="-1.49607">
        <ele>53</ele>
        <time>2021-07-16T10:03:26.000Z</time>
      </trkpt>
      <trkpt lat="47.22297" lon="-1.49624">
        <ele>53</ele>
        <time>2021-07-16T10:03:28.000Z</time>
      </trkpt>
      <trkpt lat="47.22292" lon="-1.49643">
        <ele>52</ele>
        <time>2021-07-16T10:03:30.000Z</time>
      </trkpt>
      <trkpt lat="47.22287" lon="-1.49662">
        <ele>51</ele>
        <time>2021-07-16T10:03:32.000Z</time>
      </trkpt>
      <trkpt lat="47.22281" lon="-1.4968">
        <ele>51</ele>
        <time>2021-07-16T10:03:34.000Z</time>
      </trkpt>
      <trkpt lat="47.22275" lon="-1.49696">
        <ele>51</ele>
        <time>2021-07-16T10:03:36.000Z</time>
      </trkpt>
      <trkpt lat="47.22268" lon="-1.49713">
        <ele>51</ele>
        <time>2021-07-16T10:03:38.000Z</time>
      </trkpt>
      <trkpt lat="47.22263" lon="-1.4973">
        <ele>52</ele>
        <time>2021-07-16T10:03:40.000Z</time>
      </trkpt>
      <trkpt lat="47.22258" lon="-1.49747">
        <ele>52</ele>
        <time>2021-07-16T10:03:42.000Z</time>
      </trkpt>
      <trkpt lat="47.22256" lon="-1.49762">
        <ele>52</ele>
        <time>2021-07-16T10:03:44.000Z</time>
      </trkpt>
      <trkpt lat="47.22253" lon="-1.49779">
        <ele>52</ele>
        <time>2021-07-16T10:03:46.000Z</time>
      </trkpt>
      <trkpt lat="47.2225" lon="-1.49796">
        <ele>52</ele>
        <time>2021-07-16T10:03:48.000Z</time>
      </trkpt>
      <trkpt lat="47.22245" lon="-1.49814">
        <ele>52</ele>
        <time>2021-07-16T10:03:50.000Z</time>
      </trkpt>
      <trkpt lat="47.22241" lon="-1.49832">
        <ele>52</ele>
        <time>2021-07-16T10:03:52.000Z</time>
      </trkpt>
      <trkpt lat="47.22238" lon="-1.49852">
        <ele>52</ele>
        <time>2021-07-16T10:03:54.000Z</time>
      </trkpt>
      <trkpt lat="47.22234" lon="-1.49872">
        <ele>52</ele>
        <time>2021-07-16T10:03:56.000Z</time>
      </trkpt>
      <trkpt lat="47.2223" lon="-1.49892">
        <ele>53</ele>
        <time>2021-07-16T10:03:58.000Z</time>
      </trkpt>
      <trkpt lat="47.22225" lon="-1.49911">
        <ele>53</ele>
        <time>2021-07-16T10:04:00.000Z</time>
      </trkpt>
      <trkpt lat="47.22221" lon="-1.4993">
        <ele>53</ele>
        <time>2021-07-16T10:04:02.000Z</time>
      </trkpt>
      <trkpt lat="47.22217" lon="-1.4995">
        <ele>53</ele>
        <time>2021-07-16T10:04:04.000Z</time>
      </trkpt>
      <trkpt lat="47.22213" lon="-1.49969">
        <ele>54</ele>
        <time>2021-07-16T10:04:06.000Z</time>
      </trkpt>
      <trkpt lat="47.22207" lon="-1.49986">
        <ele>54</ele>
        <time>2021-07-16T10:04:08.000Z</time>
      </trkpt>
      <trkpt lat="47.22202" lon="-1.50004">
        <ele>54</ele>
        <time>2021-07-16T10:04:10.000Z</time>
      </trkpt>
      <trkpt lat="47.22196" lon="-1.50023">
        <ele>53</ele>
        <time>2021-07-16T10:04:12.000Z</time>
      </trkpt>
      <trkpt lat="47.2219" lon="-1.50045">
        <ele>53</ele>
        <time>2021-07-16T10:04:14.000Z</time>
      </trkpt>
      <trkpt lat="47.22186" lon="-1.50065">
        <ele>53</ele>
        <time>2021-07-16T10:04:16.000Z</time>
      </trkpt>
      <trkpt lat="47.22182" lon="-1.50085">
        <ele>54</ele>
        <time>2021-07-16T10:04:18.000Z</time>
      </trkpt>
      <trkpt lat="47.22177" lon="-1.50104">
        <ele>54</ele>
        <time>2021-07-16T10:04:20.000Z</time>
      </trkpt>
      <trkpt lat="47.22171" lon="-1.50122">
        <ele>54</ele>
        <time>2021-07-16T10:04:22.000Z</time>
      </trkpt>
      <trkpt lat="47.22164" lon="-1.5014">
        <ele>55</ele>
        <time>2021-07-16T10:04:24.000Z</time>
      </trkpt>
      <trkpt lat="47.22158" lon="-1.50159">
        <ele>55</ele>
        <time>2021-07-16T10:04:26.000Z</time>
      </trkpt>
      <trkpt lat="47.22152" lon="-1.5018">
        <ele>53</ele>
        <time>2021-07-16T10:04:28.000Z</time>
      </trkpt>
      <trkpt lat="47.22147" lon="-1.50201">
        <ele>53</ele>
        <time>2021-07-16T10:04:30.000Z</time>
      </trkpt>
      <trkpt lat="47.22143" lon="-1.5022">
        <ele>52</ele>
        <time>2021-07-16T10:04:32.000Z</time>
      </trkpt>
      <trkpt lat="47.22137" lon="-1.50236">
        <ele>52</ele>
        <time>2021-07-16T10:04:34.000Z</time>
      </trkpt>
      <trkpt lat="47.22134" lon="-1.50252">
        <ele>52</ele>
        <time>2021-07-16T10:04:36.000Z</time>
      </trkpt>
      <trkpt lat="47.2213" lon="-1.50271">
        <ele>53</ele>
        <time>2021-07-16T10:04:38.000Z</time>
      </trkpt>
      <trkpt lat="47.22123" lon="-1.50289">
        <ele>54</ele>
        <time>2021-07-16T10:04:40.000Z</time>
      </trkpt>
      <trkpt lat="47.22113" lon="-1.50305">
        <ele>54</ele>
        <time>2021-07-16T10:04:42.000Z</time>
      </trkpt>
      <trkpt lat="47.22106" lon="-1.5032">
        <ele>54</ele>
        <time>2021-07-16T10:04:44.000Z</time>
      </trkpt>
      <trkpt lat="47.22099" lon="-1.50332">
        <ele>54</ele>
        <time>2021-07-16T10:04:46.000Z</time>
      </trkpt>
      <trkpt lat="47.22095" lon="-1.5035">
        <ele>54</ele>
        <time>2021-07-16T10:04:48.000Z</time>
      </trkpt>
      <trkpt lat="47.2209" lon="-1.5037">
        <ele>54</ele>
        <time>2021-07-16T10:04:50.000Z</time>
      </trkpt>
      <trkpt lat="47.22084" lon="-1.50389">
        <ele>53</ele>
        <time>2021-07-16T10:04:52.000Z</time>
      </trkpt>
      <trkpt lat="47.22079" lon="-1.50407">
        <ele>53</ele>
        <time>2021-07-16T10:04:54.000Z</time>
      </trkpt>
      <trkpt lat="47.22074" lon="-1.50426">
        <ele>52</ele>
        <time>2021-07-16T10:04:56.000Z</time>
      </trkpt>
      <trkpt lat="47.22071" lon="-1.50446">
        <ele>52</ele>
        <time>2021-07-16T10:04:58.000Z</time>
      </trkpt>
      <trkpt lat="47.22067" lon="-1.50465">
        <ele>51</ele>
        <time>2021-07-16T10:05:00.000Z</time>
      </trkpt>
      <trkpt lat="47.22064" lon="-1.50483">
        <ele>51</ele>
        <time>2021-07-16T10:05:02.000Z</time>
      </trkpt>
      <trkpt lat="47.22063" lon="-1.50501">
        <ele>51</ele>
        <time>2021-07-16T10:05:04.000Z</time>
      </trkpt>
      <trkpt lat="47.22063" lon="-1.50519">
        <ele>51</ele>
        <time>2021-07-16T10:05:06.000Z</time>
      </trkpt>
      <trkpt lat="47.22061" lon="-1.50538">
        <ele>50</ele>
        <time>2021-07-16T10:05:08.000Z</time>
      </trkpt>
      <trkpt lat="47.2206" lon="-1.50557">
        <ele>50</ele>
        <time>2021-07-16T10:05:10.000Z</time>
      </trkpt>
      <trkpt lat="47.22059" lon="-1.50574">
        <ele>50</ele>
        <time>2021-07-16T10:05:12.000Z</time>
      </trkpt>
      <trkpt lat="47.22057" lon="-1.50592">
        <ele>49</ele>
        <time>2021-07-16T10:05:14.000Z</time>
      </trkpt>
      <trkpt lat="47.22057" lon="-1.50611">
        <ele>49</ele>
        <time>2021-07-16T10:05:16.000Z</time>
      </trkpt>
      <trkpt lat="47.22057" lon="-1.50629">
        <ele>49</ele>
        <time>2021-07-16T10:05:18.000Z</time>
      </trkpt>
      <trkpt lat="47.22056" lon="-1.50647">
        <ele>51</ele>
        <time>2021-07-16T10:05:20.000Z</time>
      </trkpt>
      <trkpt lat="47.22054" lon="-1.50664">
        <ele>50</ele>
        <time>2021-07-16T10:05:22.000Z</time>
      </trkpt>
      <trkpt lat="47.22053" lon="-1.5068">
        <ele>50</ele>
        <time>2021-07-16T10:05:24.000Z</time>
      </trkpt>
      <trkpt lat="47.22052" lon="-1.50695">
        <ele>51</ele>
        <time>2021-07-16T10:05:26.000Z</time>
      </trkpt>
      <trkpt lat="47.22052" lon="-1.50712">
        <ele>52</ele>
        <time>2021-07-16T10:05:28.000Z</time>
      </trkpt>
      <trkpt lat="47.22051" lon="-1.50729">
        <ele>52</ele>
        <time>2021-07-16T10:05:30.000Z</time>
      </trkpt>
      <trkpt lat="47.22049" lon="-1.50747">
        <ele>52</ele>
        <time>2021-07-16T10:05:32.000Z</time>
      </trkpt>
      <trkpt lat="47.22046" lon="-1.50765">
        <ele>51</ele>
        <time>2021-07-16T10:05:34.000Z</time>
      </trkpt>
      <trkpt lat="47.22041" lon="-1.50783">
        <ele>51</ele>
        <time>2021-07-16T10:05:36.000Z</time>
      </trkpt>
      <trkpt lat="47.22035" lon="-1.508">
        <ele>50</ele>
        <time>2021-07-16T10:05:38.000Z</time>
      </trkpt>
      <trkpt lat="47.2203" lon="-1.50815">
        <ele>50</ele>
        <time>2021-07-16T10:05:40.000Z</time>
      </trkpt>
      <trkpt lat="47.22025" lon="-1.5083">
        <ele>50</ele>
        <time>2021-07-16T10:05:42.000Z</time>
      </trkpt>
      <trkpt lat="47.22018" lon="-1.50845">
        <ele>49</ele>
        <time>2021-07-16T10:05:44.000Z</time>
      </trkpt>
      <trkpt lat="47.22011" lon="-1.50864">
        <ele>48</ele>
        <time>2021-07-16T10:05:46.000Z</time>
      </trkpt>
      <trkpt lat="47.22006" lon="-1.50876">
        <ele>48</ele>
        <time>2021-07-16T10:05:47.000Z</time>
      </trkpt>
      <trkpt lat="47.22" lon="-1.50899">
        <ele>49</ele>
        <time>2021-07-16T10:05:49.000Z</time>
      </trkpt>
      <trkpt lat="47.21993" lon="-1.50918">
        <ele>50</ele>
        <time>2021-07-16T10:05:51.000Z</time>
      </trkpt>
      <trkpt lat="47.21987" lon="-1.50936">
        <ele>50</ele>
        <time>2021-07-16T10:05:53.000Z</time>
      </trkpt>
      <trkpt lat="47.21982" lon="-1.50955">
        <ele>50</ele>
        <time>2021-07-16T10:05:55.000Z</time>
      </trkpt>
      <trkpt lat="47.21976" lon="-1.50972">
        <ele>50</ele>
        <time>2021-07-16T10:05:57.000Z</time>
      </trkpt>
      <trkpt lat="47.2197" lon="-1.5099">
        <ele>50</ele>
        <time>2021-07-16T10:05:59.000Z</time>
      </trkpt>
      <trkpt lat="47.21965" lon="-1.51008">
        <ele>49</ele>
        <time>2021-07-16T10:06:01.000Z</time>
      </trkpt>
      <trkpt lat="47.2196" lon="-1.51025">
        <ele>49</ele>
        <time>2021-07-16T10:06:03.000Z</time>
      </trkpt>
      <trkpt lat="47.21956" lon="-1.51041">
        <ele>48</ele>
        <time>2021-07-16T10:06:05.000Z</time>
      </trkpt>
      <trkpt lat="47.21951" lon="-1.51056">
        <ele>50</ele>
        <time>2021-07-16T10:06:08.000Z</time>
      </trkpt>
      <trkpt lat="47.21942" lon="-1.51067">
        <ele>50</ele>
        <time>2021-07-16T10:06:11.000Z</time>
      </trkpt>
      <trkpt lat="47.21934" lon="-1.51081">
        <ele>50</ele>
        <time>2021-07-16T10:06:13.000Z</time>
      </trkpt>
      <trkpt lat="47.21928" lon="-1.51098">
        <ele>50</ele>
        <time>2021-07-16T10:06:15.000Z</time>
      </trkpt>
      <trkpt lat="47.21923" lon="-1.51117">
        <ele>51</ele>
        <time>2021-07-16T10:06:17.000Z</time>
      </trkpt>
      <trkpt lat="47.21917" lon="-1.51135">
        <ele>52</ele>
        <time>2021-07-16T10:06:19.000Z</time>
      </trkpt>
      <trkpt lat="47.21912" lon="-1.51153">
        <ele>52</ele>
        <time>2021-07-16T10:06:21.000Z</time>
      </trkpt>
      <trkpt lat="47.21905" lon="-1.5117">
        <ele>53</ele>
        <time>2021-07-16T10:06:23.000Z</time>
      </trkpt>
      <trkpt lat="47.219" lon="-1.51187">
        <ele>53</ele>
        <time>2021-07-16T10:06:25.000Z</time>
      </trkpt>
      <trkpt lat="47.21894" lon="-1.51205">
        <ele>53</ele>
        <time>2021-07-16T10:06:27.000Z</time>
      </trkpt>
      <trkpt lat="47.21888" lon="-1.51223">
        <ele>53</ele>
        <time>2021-07-16T10:06:29.000Z</time>
      </trkpt>
      <trkpt lat="47.21883" lon="-1.5124">
        <ele>53</ele>
        <time>2021-07-16T10:06:31.000Z</time>
      </trkpt>
      <trkpt lat="47.21877" lon="-1.51257">
        <ele>53</ele>
        <time>2021-07-16T10:06:33.000Z</time>
      </trkpt>
      <trkpt lat="47.21872" lon="-1.51274">
        <ele>54</ele>
        <time>2021-07-16T10:06:35.000Z</time>
      </trkpt>
      <trkpt lat="47.21866" lon="-1.51291">
        <ele>54</ele>
        <time>2021-07-16T10:06:37.000Z</time>
      </trkpt>
      <trkpt lat="47.2186" lon="-1.51308">
        <ele>54</ele>
        <time>2021-07-16T10:06:39.000Z</time>
      </trkpt>
      <trkpt lat="47.21855" lon="-1.51324">
        <ele>54</ele>
        <time>2021-07-16T10:06:41.000Z</time>
      </trkpt>
      <trkpt lat="47.2185" lon="-1.5134">
        <ele>54</ele>
        <time>2021-07-16T10:06:43.000Z</time>
      </trkpt>
      <trkpt lat="47.21845" lon="-1.51357">
        <ele>53</ele>
        <time>2021-07-16T10:06:45.000Z</time>
      </trkpt>
      <trkpt lat="47.2184" lon="-1.51375">
        <ele>53</ele>
        <time>2021-07-16T10:06:47.000Z</time>
      </trkpt>
      <trkpt lat="47.21836" lon="-1.51394">
        <ele>53</ele>
        <time>2021-07-16T10:06:49.000Z</time>
      </trkpt>
      <trkpt lat="47.21831" lon="-1.51411">
        <ele>53</ele>
        <time>2021-07-16T10:06:51.000Z</time>
      </trkpt>
      <trkpt lat="47.21828" lon="-1.5143">
        <ele>53</ele>
        <time>2021-07-16T10:06:53.000Z</time>
      </trkpt>
      <trkpt lat="47.21825" lon="-1.51448">
        <ele>53</ele>
        <time>2021-07-16T10:06:55.000Z</time>
      </trkpt>
      <trkpt lat="47.21821" lon="-1.51465">
        <ele>53</ele>
        <time>2021-07-16T10:06:57.000Z</time>
      </trkpt>
      <trkpt lat="47.21818" lon="-1.51482">
        <ele>53</ele>
        <time>2021-07-16T10:06:59.000Z</time>
      </trkpt>
      <trkpt lat="47.21812" lon="-1.51499">
        <ele>52</ele>
        <time>2021-07-16T10:07:01.000Z</time>
      </trkpt>
      <trkpt lat="47.21805" lon="-1.51514">
        <ele>52</ele>
        <time>2021-07-16T10:07:03.000Z</time>
      </trkpt>
      <trkpt lat="47.21798" lon="-1.51529">
        <ele>53</ele>
        <time>2021-07-16T10:07:05.000Z</time>
      </trkpt>
      <trkpt lat="47.21791" lon="-1.51545">
        <ele>53</ele>
        <time>2021-07-16T10:07:07.000Z</time>
      </trkpt>
      <trkpt lat="47.21785" lon="-1.51561">
        <ele>52</ele>
        <time>2021-07-16T10:07:09.000Z</time>
      </trkpt>
      <trkpt lat="47.21778" lon="-1.51575">
        <ele>53</ele>
        <time>2021-07-16T10:07:11.000Z</time>
      </trkpt>
      <trkpt lat="47.21769" lon="-1.51589">
        <ele>53</ele>
        <time>2021-07-16T10:07:13.000Z</time>
      </trkpt>
      <trkpt lat="47.2176" lon="-1.51602">
        <ele>53</ele>
        <time>2021-07-16T10:07:15.000Z</time>
      </trkpt>
      <trkpt lat="47.21751" lon="-1.51616">
        <ele>53</ele>
        <time>2021-07-16T10:07:17.000Z</time>
      </trkpt>
      <trkpt lat="47.21744" lon="-1.51631">
        <ele>54</ele>
        <time>2021-07-16T10:07:19.000Z</time>
      </trkpt>
      <trkpt lat="47.21737" lon="-1.51645">
        <ele>53</ele>
        <time>2021-07-16T10:07:21.000Z</time>
      </trkpt>
      <trkpt lat="47.2173" lon="-1.51661">
        <ele>53</ele>
        <time>2021-07-16T10:07:23.000Z</time>
      </trkpt>
      <trkpt lat="47.21723" lon="-1.51677">
        <ele>53</ele>
        <time>2021-07-16T10:07:25.000Z</time>
      </trkpt>
      <trkpt lat="47.21717" lon="-1.51691">
        <ele>53</ele>
        <time>2021-07-16T10:07:27.000Z</time>
      </trkpt>
      <trkpt lat="47.21711" lon="-1.51705">
        <ele>54</ele>
        <time>2021-07-16T10:07:29.000Z</time>
      </trkpt>
      <trkpt lat="47.21705" lon="-1.51719">
        <ele>54</ele>
        <time>2021-07-16T10:07:31.000Z</time>
      </trkpt>
      <trkpt lat="47.21699" lon="-1.51736">
        <ele>54</ele>
        <time>2021-07-16T10:07:33.000Z</time>
      </trkpt>
      <trkpt lat="47.21692" lon="-1.51752">
        <ele>54</ele>
        <time>2021-07-16T10:07:35.000Z</time>
      </trkpt>
      <trkpt lat="47.21685" lon="-1.51769">
        <ele>54</ele>
        <time>2021-07-16T10:07:37.000Z</time>
      </trkpt>
      <trkpt lat="47.21677" lon="-1.51785">
        <ele>54</ele>
        <time>2021-07-16T10:07:39.000Z</time>
      </trkpt>
      <trkpt lat="47.2167" lon="-1.518">
        <ele>54</ele>
        <time>2021-07-16T10:07:41.000Z</time>
      </trkpt>
      <trkpt lat="47.21663" lon="-1.51816">
        <ele>54</ele>
        <time>2021-07-16T10:07:43.000Z</time>
      </trkpt>
      <trkpt lat="47.21657" lon="-1.51833">
        <ele>54</ele>
        <time>2021-07-16T10:07:45.000Z</time>
      </trkpt>
      <trkpt lat="47.21652" lon="-1.51849">
        <ele>53</ele>
        <time>2021-07-16T10:07:47.000Z</time>
      </trkpt>
      <trkpt lat="47.21648" lon="-1.51865">
        <ele>54</ele>
        <time>2021-07-16T10:07:49.000Z</time>
      </trkpt>
      <trkpt lat="47.21645" lon="-1.51883">
        <ele>54</ele>
        <time>2021-07-16T10:07:51.000Z</time>
      </trkpt>
      <trkpt lat="47.21637" lon="-1.51898">
        <ele>54</ele>
        <time>2021-07-16T10:07:53.000Z</time>
      </trkpt>
      <trkpt lat="47.21631" lon="-1.51912">
        <ele>54</ele>
        <time>2021-07-16T10:07:55.000Z</time>
      </trkpt>
      <trkpt lat="47.21627" lon="-1.51927">
        <ele>53</ele>
        <time>2021-07-16T10:07:57.000Z</time>
      </trkpt>
      <trkpt lat="47.21622" lon="-1.51944">
        <ele>53</ele>
        <time>2021-07-16T10:07:59.000Z</time>
      </trkpt>
      <trkpt lat="47.2162" lon="-1.51962">
        <ele>53</ele>
        <time>2021-07-16T10:08:01.000Z</time>
      </trkpt>
      <trkpt lat="47.21613" lon="-1.51976">
        <ele>54</ele>
        <time>2021-07-16T10:08:03.000Z</time>
      </trkpt>
      <trkpt lat="47.21607" lon="-1.51988">
        <ele>54</ele>
        <time>2021-07-16T10:08:05.000Z</time>
      </trkpt>
      <trkpt lat="47.21603" lon="-1.52002">
        <ele>54</ele>
        <time>2021-07-16T10:08:07.000Z</time>
      </trkpt>
      <trkpt lat="47.21597" lon="-1.5202">
        <ele>54</ele>
        <time>2021-07-16T10:08:09.000Z</time>
      </trkpt>
      <trkpt lat="47.21591" lon="-1.52037">
        <ele>53</ele>
        <time>2021-07-16T10:08:11.000Z</time>
      </trkpt>
      <trkpt lat="47.21585" lon="-1.52056">
        <ele>53</ele>
        <time>2021-07-16T10:08:13.000Z</time>
      </trkpt>
      <trkpt lat="47.2158" lon="-1.52074">
        <ele>54</ele>
        <time>2021-07-16T10:08:15.000Z</time>
      </trkpt>
      <trkpt lat="47.21574" lon="-1.5209">
        <ele>54</ele>
        <time>2021-07-16T10:08:17.000Z</time>
      </trkpt>
      <trkpt lat="47.21568" lon="-1.52107">
        <ele>55</ele>
        <time>2021-07-16T10:08:19.000Z</time>
      </trkpt>
      <trkpt lat="47.21563" lon="-1.52123">
        <ele>55</ele>
        <time>2021-07-16T10:08:21.000Z</time>
      </trkpt>
      <trkpt lat="47.21557" lon="-1.5214">
        <ele>55</ele>
        <time>2021-07-16T10:08:23.000Z</time>
      </trkpt>
      <trkpt lat="47.21552" lon="-1.52157">
        <ele>55</ele>
        <time>2021-07-16T10:08:25.000Z</time>
      </trkpt>
      <trkpt lat="47.21546" lon="-1.52176">
        <ele>54</ele>
        <time>2021-07-16T10:08:27.000Z</time>
      </trkpt>
      <trkpt lat="47.2154" lon="-1.52194">
        <ele>54</ele>
        <time>2021-07-16T10:08:29.000Z</time>
      </trkpt>
      <trkpt lat="47.21534" lon="-1.52212">
        <ele>54</ele>
        <time>2021-07-16T10:08:31.000Z</time>
      </trkpt>
      <trkpt lat="47.21529" lon="-1.52229">
        <ele>54</ele>
        <time>2021-07-16T10:08:33.000Z</time>
      </trkpt>
      <trkpt lat="47.21523" lon="-1.52246">
        <ele>54</ele>
        <time>2021-07-16T10:08:35.000Z</time>
      </trkpt>
      <trkpt lat="47.21518" lon="-1.52264">
        <ele>53</ele>
        <time>2021-07-16T10:08:37.000Z</time>
      </trkpt>
      <trkpt lat="47.21513" lon="-1.52281">
        <ele>53</ele>
        <time>2021-07-16T10:08:39.000Z</time>
      </trkpt>
      <trkpt lat="47.21507" lon="-1.52299">
        <ele>54</ele>
        <time>2021-07-16T10:08:41.000Z</time>
      </trkpt>
      <trkpt lat="47.21502" lon="-1.52317">
        <ele>54</ele>
        <time>2021-07-16T10:08:43.000Z</time>
      </trkpt>
      <trkpt lat="47.21496" lon="-1.52333">
        <ele>54</ele>
        <time>2021-07-16T10:08:45.000Z</time>
      </trkpt>
      <trkpt lat="47.21491" lon="-1.5235">
        <ele>54</ele>
        <time>2021-07-16T10:08:47.000Z</time>
      </trkpt>
      <trkpt lat="47.21485" lon="-1.52368">
        <ele>54</ele>
        <time>2021-07-16T10:08:49.000Z</time>
      </trkpt>
      <trkpt lat="47.2148" lon="-1.52384">
        <ele>54</ele>
        <time>2021-07-16T10:08:51.000Z</time>
      </trkpt>
      <trkpt lat="47.21474" lon="-1.52401">
        <ele>54</ele>
        <time>2021-07-16T10:08:53.000Z</time>
      </trkpt>
      <trkpt lat="47.21468" lon="-1.52419">
        <ele>54</ele>
        <time>2021-07-16T10:08:55.000Z</time>
      </trkpt>
      <trkpt lat="47.21462" lon="-1.52436">
        <ele>54</ele>
        <time>2021-07-16T10:08:57.000Z</time>
      </trkpt>
      <trkpt lat="47.21456" lon="-1.52453">
        <ele>54</ele>
        <time>2021-07-16T10:08:59.000Z</time>
      </trkpt>
      <trkpt lat="47.21451" lon="-1.52469">
        <ele>53</ele>
        <time>2021-07-16T10:09:01.000Z</time>
      </trkpt>
      <trkpt lat="47.21446" lon="-1.52486">
        <ele>52</ele>
        <time>2021-07-16T10:09:03.000Z</time>
      </trkpt>
      <trkpt lat="47.21441" lon="-1.52505">
        <ele>52</ele>
        <time>2021-07-16T10:09:05.000Z</time>
      </trkpt>
      <trkpt lat="47.21435" lon="-1.52523">
        <ele>53</ele>
        <time>2021-07-16T10:09:07.000Z</time>
      </trkpt>
      <trkpt lat="47.2143" lon="-1.5254">
        <ele>53</ele>
        <time>2021-07-16T10:09:09.000Z</time>
      </trkpt>
      <trkpt lat="47.21424" lon="-1.52557">
        <ele>54</ele>
        <time>2021-07-16T10:09:11.000Z</time>
      </trkpt>
      <trkpt lat="47.21418" lon="-1.52574">
        <ele>54</ele>
        <time>2021-07-16T10:09:13.000Z</time>
      </trkpt>
      <trkpt lat="47.21413" lon="-1.52592">
        <ele>54</ele>
        <time>2021-07-16T10:09:15.000Z</time>
      </trkpt>
      <trkpt lat="47.21407" lon="-1.52609">
        <ele>54</ele>
        <time>2021-07-16T10:09:17.000Z</time>
      </trkpt>
      <trkpt lat="47.21402" lon="-1.52626">
        <ele>53</ele>
        <time>2021-07-16T10:09:19.000Z</time>
      </trkpt>
      <trkpt lat="47.21397" lon="-1.52643">
        <ele>53</ele>
        <time>2021-07-16T10:09:21.000Z</time>
      </trkpt>
      <trkpt lat="47.21393" lon="-1.52661">
        <ele>54</ele>
        <time>2021-07-16T10:09:23.000Z</time>
      </trkpt>
      <trkpt lat="47.21389" lon="-1.5268">
        <ele>54</ele>
        <time>2021-07-16T10:09:25.000Z</time>
      </trkpt>
      <trkpt lat="47.21384" lon="-1.52698">
        <ele>54</ele>
        <time>2021-07-16T10:09:27.000Z</time>
      </trkpt>
      <trkpt lat="47.21379" lon="-1.52716">
        <ele>54</ele>
        <time>2021-07-16T10:09:29.000Z</time>
      </trkpt>
      <trkpt lat="47.21374" lon="-1.52733">
        <ele>54</ele>
        <time>2021-07-16T10:09:31.000Z</time>
      </trkpt>
      <trkpt lat="47.21371" lon="-1.52753">
        <ele>54</ele>
        <time>2021-07-16T10:09:33.000Z</time>
      </trkpt>
      <trkpt lat="47.21368" lon="-1.52771">
        <ele>55</ele>
        <time>2021-07-16T10:09:35.000Z</time>
      </trkpt>
      <trkpt lat="47.21366" lon="-1.52789">
        <ele>55</ele>
        <time>2021-07-16T10:09:37.000Z</time>
      </trkpt>
      <trkpt lat="47.21364" lon="-1.52806">
        <ele>55</ele>
        <time>2021-07-16T10:09:39.000Z</time>
      </trkpt>
      <trkpt lat="47.21361" lon="-1.52823">
        <ele>55</ele>
        <time>2021-07-16T10:09:41.000Z</time>
      </trkpt>
      <trkpt lat="47.21356" lon="-1.52842">
        <ele>54</ele>
        <time>2021-07-16T10:09:43.000Z</time>
      </trkpt>
      <trkpt lat="47.21353" lon="-1.5286">
        <ele>54</ele>
        <time>2021-07-16T10:09:45.000Z</time>
      </trkpt>
      <trkpt lat="47.21349" lon="-1.52879">
        <ele>54</ele>
        <time>2021-07-16T10:09:47.000Z</time>
      </trkpt>
      <trkpt lat="47.21346" lon="-1.52898">
        <ele>54</ele>
        <time>2021-07-16T10:09:49.000Z</time>
      </trkpt>
      <trkpt lat="47.21342" lon="-1.52917">
        <ele>53</ele>
        <time>2021-07-16T10:09:51.000Z</time>
      </trkpt>
      <trkpt lat="47.2134" lon="-1.52937">
        <ele>53</ele>
        <time>2021-07-16T10:09:53.000Z</time>
      </trkpt>
      <trkpt lat="47.21339" lon="-1.52955">
        <ele>53</ele>
        <time>2021-07-16T10:09:55.000Z</time>
      </trkpt>
      <trkpt lat="47.21337" lon="-1.52974">
        <ele>53</ele>
        <time>2021-07-16T10:09:57.000Z</time>
      </trkpt>
      <trkpt lat="47.21336" lon="-1.52992">
        <ele>52</ele>
        <time>2021-07-16T10:09:59.000Z</time>
      </trkpt>
      <trkpt lat="47.21334" lon="-1.53011">
        <ele>52</ele>
        <time>2021-07-16T10:10:01.000Z</time>
      </trkpt>
      <trkpt lat="47.2133" lon="-1.5303">
        <ele>52</ele>
        <time>2021-07-16T10:10:03.000Z</time>
      </trkpt>
      <trkpt lat="47.21328" lon="-1.5305">
        <ele>52</ele>
        <time>2021-07-16T10:10:05.000Z</time>
      </trkpt>
      <trkpt lat="47.21327" lon="-1.5307">
        <ele>52</ele>
        <time>2021-07-16T10:10:07.000Z</time>
      </trkpt>
      <trkpt lat="47.21327" lon="-1.53092">
        <ele>54</ele>
        <time>2021-07-16T10:10:09.000Z</time>
      </trkpt>
      <trkpt lat="47.21325" lon="-1.53113">
        <ele>54</ele>
        <time>2021-07-16T10:10:11.000Z</time>
      </trkpt>
      <trkpt lat="47.21321" lon="-1.53135">
        <ele>54</ele>
        <time>2021-07-16T10:10:13.000Z</time>
      </trkpt>
      <trkpt lat="47.21317" lon="-1.53156">
        <ele>54</ele>
        <time>2021-07-16T10:10:15.000Z</time>
      </trkpt>
      <trkpt lat="47.21315" lon="-1.53177">
        <ele>54</ele>
        <time>2021-07-16T10:10:17.000Z</time>
      </trkpt>
      <trkpt lat="47.21313" lon="-1.53197">
        <ele>54</ele>
        <time>2021-07-16T10:10:19.000Z</time>
      </trkpt>
      <trkpt lat="47.2131" lon="-1.53218">
        <ele>53</ele>
        <time>2021-07-16T10:10:21.000Z</time>
      </trkpt>
      <trkpt lat="47.2131" lon="-1.53239">
        <ele>53</ele>
        <time>2021-07-16T10:10:23.000Z</time>
      </trkpt>
      <trkpt lat="47.2131" lon="-1.53259">
        <ele>53</ele>
        <time>2021-07-16T10:10:25.000Z</time>
      </trkpt>
      <trkpt lat="47.21309" lon="-1.53279">
        <ele>53</ele>
        <time>2021-07-16T10:10:27.000Z</time>
      </trkpt>
      <trkpt lat="47.21309" lon="-1.53298">
        <ele>52</ele>
        <time>2021-07-16T10:10:29.000Z</time>
      </trkpt>
      <trkpt lat="47.21308" lon="-1.53317">
        <ele>52</ele>
        <time>2021-07-16T10:10:31.000Z</time>
      </trkpt>
      <trkpt lat="47.21305" lon="-1.53336">
        <ele>52</ele>
        <time>2021-07-16T10:10:33.000Z</time>
      </trkpt>
      <trkpt lat="47.21302" lon="-1.53356">
        <ele>52</ele>
        <time>2021-07-16T10:10:35.000Z</time>
      </trkpt>
      <trkpt lat="47.21298" lon="-1.53374">
        <ele>52</ele>
        <time>2021-07-16T10:10:37.000Z</time>
      </trkpt>
      <trkpt lat="47.21295" lon="-1.53394">
        <ele>52</ele>
        <time>2021-07-16T10:10:39.000Z</time>
      </trkpt>
      <trkpt lat="47.21292" lon="-1.53413">
        <ele>53</ele>
        <time>2021-07-16T10:10:41.000Z</time>
      </trkpt>
      <trkpt lat="47.2129" lon="-1.53432">
        <ele>52</ele>
        <time>2021-07-16T10:10:43.000Z</time>
      </trkpt>
      <trkpt lat="47.2129" lon="-1.53451">
        <ele>52</ele>
        <time>2021-07-16T10:10:45.000Z</time>
      </trkpt>
      <trkpt lat="47.21295" lon="-1.53469">
        <ele>52</ele>
        <time>2021-07-16T10:10:47.000Z</time>
      </trkpt>
      <trkpt lat="47.213" lon="-1.53488">
        <ele>52</ele>
        <time>2021-07-16T10:10:49.000Z</time>
      </trkpt>
      <trkpt lat="47.21302" lon="-1.53507">
        <ele>53</ele>
        <time>2021-07-16T10:10:51.000Z</time>
      </trkpt>
      <trkpt lat="47.21302" lon="-1.53526">
        <ele>53</ele>
        <time>2021-07-16T10:10:53.000Z</time>
      </trkpt>
      <trkpt lat="47.21303" lon="-1.53544">
        <ele>54</ele>
        <time>2021-07-16T10:10:55.000Z</time>
      </trkpt>
      <trkpt lat="47.21304" lon="-1.53562">
        <ele>53</ele>
        <time>2021-07-16T10:10:57.000Z</time>
      </trkpt>
      <trkpt lat="47.21304" lon="-1.5358">
        <ele>53</ele>
        <time>2021-07-16T10:10:59.000Z</time>
      </trkpt>
      <trkpt lat="47.21305" lon="-1.53596">
        <ele>53</ele>
        <time>2021-07-16T10:11:01.000Z</time>
      </trkpt>
      <trkpt lat="47.21305" lon="-1.53612">
        <ele>53</ele>
        <time>2021-07-16T10:11:03.000Z</time>
      </trkpt>
      <trkpt lat="47.21302" lon="-1.53625">
        <ele>53</ele>
        <time>2021-07-16T10:11:05.000Z</time>
      </trkpt>
      <trkpt lat="47.21296" lon="-1.53636">
        <ele>55</ele>
        <time>2021-07-16T10:11:08.000Z</time>
      </trkpt>
      <trkpt lat="47.21294" lon="-1.5365">
        <ele>55</ele>
        <time>2021-07-16T10:11:13.000Z</time>
      </trkpt>
      <trkpt lat="47.21294" lon="-1.53666">
        <ele>55</ele>
        <time>2021-07-16T10:11:16.000Z</time>
      </trkpt>
      <trkpt lat="47.21298" lon="-1.5368">
        <ele>55</ele>
        <time>2021-07-16T10:11:18.000Z</time>
      </trkpt>
      <trkpt lat="47.21303" lon="-1.53694">
        <ele>55</ele>
        <time>2021-07-16T10:11:20.000Z</time>
      </trkpt>
      <trkpt lat="47.21307" lon="-1.5371">
        <ele>55</ele>
        <time>2021-07-16T10:11:22.000Z</time>
      </trkpt>
      <trkpt lat="47.21311" lon="-1.53728">
        <ele>55</ele>
        <time>2021-07-16T10:11:24.000Z</time>
      </trkpt>
      <trkpt lat="47.21315" lon="-1.53747">
        <ele>55</ele>
        <time>2021-07-16T10:11:26.000Z</time>
      </trkpt>
      <trkpt lat="47.21318" lon="-1.53765">
        <ele>55</ele>
        <time>2021-07-16T10:11:28.000Z</time>
      </trkpt>
      <trkpt lat="47.21321" lon="-1.53784">
        <ele>55</ele>
        <time>2021-07-16T10:11:30.000Z</time>
      </trkpt>
      <trkpt lat="47.21324" lon="-1.53801">
        <ele>56</ele>
        <time>2021-07-16T10:11:32.000Z</time>
      </trkpt>
      <trkpt lat="47.21327" lon="-1.53819">
        <ele>56</ele>
        <time>2021-07-16T10:11:34.000Z</time>
      </trkpt>
      <trkpt lat="47.21329" lon="-1.53835">
        <ele>56</ele>
        <time>2021-07-16T10:11:36.000Z</time>
      </trkpt>
      <trkpt lat="47.21332" lon="-1.53851">
        <ele>56</ele>
        <time>2021-07-16T10:11:38.000Z</time>
      </trkpt>
      <trkpt lat="47.21335" lon="-1.53867">
        <ele>56</ele>
        <time>2021-07-16T10:11:40.000Z</time>
      </trkpt>
      <trkpt lat="47.21338" lon="-1.53883">
        <ele>56</ele>
        <time>2021-07-16T10:11:42.000Z</time>
      </trkpt>
      <trkpt lat="47.2134" lon="-1.53898">
        <ele>57</ele>
        <time>2021-07-16T10:11:44.000Z</time>
      </trkpt>
      <trkpt lat="47.21342" lon="-1.53912">
        <ele>56</ele>
        <time>2021-07-16T10:11:46.000Z</time>
      </trkpt>
      <trkpt lat="47.21348" lon="-1.53922">
        <ele>57</ele>
        <time>2021-07-16T10:11:56.000Z</time>
      </trkpt>
      <trkpt lat="47.21361" lon="-1.53927">
        <ele>57</ele>
        <time>2021-07-16T10:11:59.000Z</time>
      </trkpt>
      <trkpt lat="47.21371" lon="-1.53931">
        <ele>57</ele>
        <time>2021-07-16T10:12:01.000Z</time>
      </trkpt>
      <trkpt lat="47.21382" lon="-1.53937">
        <ele>57</ele>
        <time>2021-07-16T10:12:03.000Z</time>
      </trkpt>
      <trkpt lat="47.21391" lon="-1.53952">
        <ele>58</ele>
        <time>2021-07-16T10:12:05.000Z</time>
      </trkpt>
      <trkpt lat="47.21393" lon="-1.53971">
        <ele>57</ele>
        <time>2021-07-16T10:12:07.000Z</time>
      </trkpt>
      <trkpt lat="47.21389" lon="-1.53988">
        <ele>57</ele>
        <time>2021-07-16T10:12:09.000Z</time>
      </trkpt>
      <trkpt lat="47.21389" lon="-1.54004">
        <ele>57</ele>
        <time>2021-07-16T10:12:11.000Z</time>
      </trkpt>
      <trkpt lat="47.21397" lon="-1.54016">
        <ele>57</ele>
        <time>2021-07-16T10:12:13.000Z</time>
      </trkpt>
      <trkpt lat="47.21406" lon="-1.54028">
        <ele>57</ele>
        <time>2021-07-16T10:12:15.000Z</time>
      </trkpt>
      <trkpt lat="47.21415" lon="-1.54041">
        <ele>57</ele>
        <time>2021-07-16T10:12:17.000Z</time>
      </trkpt>
      <trkpt lat="47.21422" lon="-1.54056">
        <ele>57</ele>
        <time>2021-07-16T10:12:19.000Z</time>
      </trkpt>
      <trkpt lat="47.21432" lon="-1.5407">
        <ele>57</ele>
        <time>2021-07-16T10:12:21.000Z</time>
      </trkpt>
      <trkpt lat="47.21442" lon="-1.54083">
        <ele>56</ele>
        <time>2021-07-16T10:12:23.000Z</time>
      </trkpt>
      <trkpt lat="47.21453" lon="-1.54097">
        <ele>56</ele>
        <time>2021-07-16T10:12:25.000Z</time>
      </trkpt>
      <trkpt lat="47.21463" lon="-1.54112">
        <ele>56</ele>
        <time>2021-07-16T10:12:27.000Z</time>
      </trkpt>
      <trkpt lat="47.21473" lon="-1.54126">
        <ele>55</ele>
        <time>2021-07-16T10:12:29.000Z</time>
      </trkpt>
      <trkpt lat="47.21484" lon="-1.5414">
        <ele>55</ele>
        <time>2021-07-16T10:12:31.000Z</time>
      </trkpt>
      <trkpt lat="47.21494" lon="-1.54153">
        <ele>54</ele>
        <time>2021-07-16T10:12:33.000Z</time>
      </trkpt>
      <trkpt lat="47.21502" lon="-1.54166">
        <ele>55</ele>
        <time>2021-07-16T10:12:35.000Z</time>
      </trkpt>
      <trkpt lat="47.2151" lon="-1.54182">
        <ele>56</ele>
        <time>2021-07-16T10:12:37.000Z</time>
      </trkpt>
      <trkpt lat="47.21518" lon="-1.54196">
        <ele>56</ele>
        <time>2021-07-16T10:12:39.000Z</time>
      </trkpt>
      <trkpt lat="47.21527" lon="-1.5421">
        <ele>57</ele>
        <time>2021-07-16T10:12:41.000Z</time>
      </trkpt>
      <trkpt lat="47.21536" lon="-1.54224">
        <ele>56</ele>
        <time>2021-07-16T10:12:43.000Z</time>
      </trkpt>
      <trkpt lat="47.21543" lon="-1.54239">
        <ele>57</ele>
        <time>2021-07-16T10:12:45.000Z</time>
      </trkpt>
      <trkpt lat="47.21551" lon="-1.54252">
        <ele>56</ele>
        <time>2021-07-16T10:12:47.000Z</time>
      </trkpt>
      <trkpt lat="47.21558" lon="-1.54265">
        <ele>56</ele>
        <time>2021-07-16T10:12:49.000Z</time>
      </trkpt>
      <trkpt lat="47.21565" lon="-1.54278">
        <ele>56</ele>
        <time>2021-07-16T10:12:51.000Z</time>
      </trkpt>
      <trkpt lat="47.21573" lon="-1.54292">
        <ele>56</ele>
        <time>2021-07-16T10:12:53.000Z</time>
      </trkpt>
      <trkpt lat="47.21582" lon="-1.54305">
        <ele>56</ele>
        <time>2021-07-16T10:12:55.000Z</time>
      </trkpt>
      <trkpt lat="47.21591" lon="-1.54319">
        <ele>56</ele>
        <time>2021-07-16T10:12:57.000Z</time>
      </trkpt>
      <trkpt lat="47.21599" lon="-1.54331">
        <ele>56</ele>
        <time>2021-07-16T10:12:59.000Z</time>
      </trkpt>
      <trkpt lat="47.21607" lon="-1.54342">
        <ele>56</ele>
        <time>2021-07-16T10:13:03.000Z</time>
      </trkpt>
      <trkpt lat="47.21612" lon="-1.54355">
        <ele>57</ele>
        <time>2021-07-16T10:13:35.000Z</time>
      </trkpt>
      <trkpt lat="47.21615" lon="-1.54368">
        <ele>56</ele>
        <time>2021-07-16T10:13:37.000Z</time>
      </trkpt>
      <trkpt lat="47.21621" lon="-1.54385">
        <ele>57</ele>
        <time>2021-07-16T10:13:40.000Z</time>
      </trkpt>
      <trkpt lat="47.21624" lon="-1.544">
        <ele>58</ele>
        <time>2021-07-16T10:13:42.000Z</time>
      </trkpt>
      <trkpt lat="47.2162" lon="-1.54415">
        <ele>58</ele>
        <time>2021-07-16T10:13:44.000Z</time>
      </trkpt>
      <trkpt lat="47.21616" lon="-1.54431">
        <ele>59</ele>
        <time>2021-07-16T10:13:46.000Z</time>
      </trkpt>
      <trkpt lat="47.21615" lon="-1.54448">
        <ele>58</ele>
        <time>2021-07-16T10:13:48.000Z</time>
      </trkpt>
      <trkpt lat="47.21613" lon="-1.54467">
        <ele>58</ele>
        <time>2021-07-16T10:13:50.000Z</time>
      </trkpt>
      <trkpt lat="47.2161" lon="-1.54485">
        <ele>58</ele>
        <time>2021-07-16T10:13:52.000Z</time>
      </trkpt>
      <trkpt lat="47.21606" lon="-1.54503">
        <ele>58</ele>
        <time>2021-07-16T10:13:54.000Z</time>
      </trkpt>
      <trkpt lat="47.21601" lon="-1.5452">
        <ele>58</ele>
        <time>2021-07-16T10:13:56.000Z</time>
      </trkpt>
      <trkpt lat="47.21594" lon="-1.54537">
        <ele>59</ele>
        <time>2021-07-16T10:13:58.000Z</time>
      </trkpt>
      <trkpt lat="47.21588" lon="-1.54552">
        <ele>58</ele>
        <time>2021-07-16T10:14:00.000Z</time>
      </trkpt>
      <trkpt lat="47.21583" lon="-1.54566">
        <ele>58</ele>
        <time>2021-07-16T10:14:02.000Z</time>
      </trkpt>
      <trkpt lat="47.21578" lon="-1.54579">
        <ele>58</ele>
        <time>2021-07-16T10:14:07.000Z</time>
      </trkpt>
      <trkpt lat="47.2157" lon="-1.54595">
        <ele>58</ele>
        <time>2021-07-16T10:14:11.000Z</time>
      </trkpt>
      <trkpt lat="47.21565" lon="-1.54611">
        <ele>58</ele>
        <time>2021-07-16T10:14:13.000Z</time>
      </trkpt>
      <trkpt lat="47.2156" lon="-1.54631">
        <ele>56</ele>
        <time>2021-07-16T10:14:15.000Z</time>
      </trkpt>
      <trkpt lat="47.21552" lon="-1.54648">
        <ele>57</ele>
        <time>2021-07-16T10:14:17.000Z</time>
      </trkpt>
      <trkpt lat="47.21543" lon="-1.54671">
        <ele>57</ele>
        <time>2021-07-16T10:14:20.000Z</time>
      </trkpt>
      <trkpt lat="47.21538" lon="-1.54697">
        <ele>56</ele>
        <time>2021-07-16T10:14:23.000Z</time>
      </trkpt>
      <trkpt lat="47.21532" lon="-1.54715">
        <ele>56</ele>
        <time>2021-07-16T10:14:25.000Z</time>
      </trkpt>
      <trkpt lat="47.21524" lon="-1.54732">
        <ele>56</ele>
        <time>2021-07-16T10:14:27.000Z</time>
      </trkpt>
      <trkpt lat="47.21517" lon="-1.54749">
        <ele>57</ele>
        <time>2021-07-16T10:14:29.000Z</time>
      </trkpt>
      <trkpt lat="47.2151" lon="-1.54767">
        <ele>57</ele>
        <time>2021-07-16T10:14:31.000Z</time>
      </trkpt>
      <trkpt lat="47.21499" lon="-1.54792">
        <ele>56</ele>
        <time>2021-07-16T10:14:34.000Z</time>
      </trkpt>
      <trkpt lat="47.21493" lon="-1.54809">
        <ele>55</ele>
        <time>2021-07-16T10:14:36.000Z</time>
      </trkpt>
      <trkpt lat="47.21482" lon="-1.54833">
        <ele>55</ele>
        <time>2021-07-16T10:14:39.000Z</time>
      </trkpt>
      <trkpt lat="47.21473" lon="-1.54848">
        <ele>55</ele>
        <time>2021-07-16T10:14:41.000Z</time>
      </trkpt>
      <trkpt lat="47.21461" lon="-1.54873">
        <ele>56</ele>
        <time>2021-07-16T10:14:44.000Z</time>
      </trkpt>
      <trkpt lat="47.21453" lon="-1.5489">
        <ele>56</ele>
        <time>2021-07-16T10:14:46.000Z</time>
      </trkpt>
      <trkpt lat="47.21441" lon="-1.54914">
        <ele>57</ele>
        <time>2021-07-16T10:14:49.000Z</time>
      </trkpt>
      <trkpt lat="47.21431" lon="-1.54938">
        <ele>58</ele>
        <time>2021-07-16T10:14:52.000Z</time>
      </trkpt>
      <trkpt lat="47.21423" lon="-1.54955">
        <ele>58</ele>
        <time>2021-07-16T10:14:54.000Z</time>
      </trkpt>
      <trkpt lat="47.21415" lon="-1.54971">
        <ele>57</ele>
        <time>2021-07-16T10:14:56.000Z</time>
      </trkpt>
      <trkpt lat="47.21407" lon="-1.54987">
        <ele>58</ele>
        <time>2021-07-16T10:14:58.000Z</time>
      </trkpt>
      <trkpt lat="47.214" lon="-1.55004">
        <ele>58</ele>
        <time>2021-07-16T10:15:00.000Z</time>
      </trkpt>
      <trkpt lat="47.21392" lon="-1.5502">
        <ele>58</ele>
        <time>2021-07-16T10:15:02.000Z</time>
      </trkpt>
      <trkpt lat="47.21386" lon="-1.55035">
        <ele>58</ele>
        <time>2021-07-16T10:15:04.000Z</time>
      </trkpt>
      <trkpt lat="47.21379" lon="-1.55051">
        <ele>57</ele>
        <time>2021-07-16T10:15:06.000Z</time>
      </trkpt>
      <trkpt lat="47.21372" lon="-1.55066">
        <ele>57</ele>
        <time>2021-07-16T10:15:08.000Z</time>
      </trkpt>
      <trkpt lat="47.21366" lon="-1.55081">
        <ele>56</ele>
        <time>2021-07-16T10:15:10.000Z</time>
      </trkpt>
      <trkpt lat="47.2136" lon="-1.55098">
        <ele>56</ele>
        <time>2021-07-16T10:15:12.000Z</time>
      </trkpt>
      <trkpt lat="47.21354" lon="-1.55113">
        <ele>56</ele>
        <time>2021-07-16T10:15:14.000Z</time>
      </trkpt>
      <trkpt lat="47.21348" lon="-1.55127">
        <ele>56</ele>
        <time>2021-07-16T10:15:16.000Z</time>
      </trkpt>
      <trkpt lat="47.21343" lon="-1.55141">
        <ele>55</ele>
        <time>2021-07-16T10:15:18.000Z</time>
      </trkpt>
      <trkpt lat="47.21337" lon="-1.55156">
        <ele>55</ele>
        <time>2021-07-16T10:15:20.000Z</time>
      </trkpt>
      <trkpt lat="47.21331" lon="-1.55172">
        <ele>55</ele>
        <time>2021-07-16T10:15:22.000Z</time>
      </trkpt>
      <trkpt lat="47.21323" lon="-1.5519">
        <ele>54</ele>
        <time>2021-07-16T10:15:24.000Z</time>
      </trkpt>
      <trkpt lat="47.21315" lon="-1.55209">
        <ele>54</ele>
        <time>2021-07-16T10:15:26.000Z</time>
      </trkpt>
      <trkpt lat="47.21307" lon="-1.55228">
        <ele>55</ele>
        <time>2021-07-16T10:15:28.000Z</time>
      </trkpt>
      <trkpt lat="47.213" lon="-1.55245">
        <ele>54</ele>
        <time>2021-07-16T10:15:30.000Z</time>
      </trkpt>
      <trkpt lat="47.21293" lon="-1.55263">
        <ele>54</ele>
        <time>2021-07-16T10:15:32.000Z</time>
      </trkpt>
      <trkpt lat="47.21286" lon="-1.5528">
        <ele>55</ele>
        <time>2021-07-16T10:15:34.000Z</time>
      </trkpt>
      <trkpt lat="47.2128" lon="-1.55293">
        <ele>55</ele>
        <time>2021-07-16T10:15:36.000Z</time>
      </trkpt>
      <trkpt lat="47.21269" lon="-1.55296">
        <ele>56</ele>
        <time>2021-07-16T10:15:38.000Z</time>
      </trkpt>
      <trkpt lat="47.21258" lon="-1.553">
        <ele>56</ele>
        <time>2021-07-16T10:15:40.000Z</time>
      </trkpt>
      <trkpt lat="47.21255" lon="-1.55315">
        <ele>56</ele>
        <time>2021-07-16T10:15:42.000Z</time>
      </trkpt>
      <trkpt lat="47.21259" lon="-1.55331">
        <ele>56</ele>
        <time>2021-07-16T10:15:44.000Z</time>
      </trkpt>
      <trkpt lat="47.21265" lon="-1.55342">
        <ele>56</ele>
        <time>2021-07-16T10:15:46.000Z</time>
      </trkpt>
      <trkpt lat="47.21274" lon="-1.55349">
        <ele>56</ele>
        <time>2021-07-16T10:15:48.000Z</time>
      </trkpt>
      <trkpt lat="47.21283" lon="-1.55361">
        <ele>57</ele>
        <time>2021-07-16T10:15:50.000Z</time>
      </trkpt>
      <trkpt lat="47.21281" lon="-1.55382">
        <ele>58</ele>
        <time>2021-07-16T10:15:52.000Z</time>
      </trkpt>
      <trkpt lat="47.2127" lon="-1.55399">
        <ele>58</ele>
        <time>2021-07-16T10:15:54.000Z</time>
      </trkpt>
      <trkpt lat="47.2126" lon="-1.55417">
        <ele>57</ele>
        <time>2021-07-16T10:15:56.000Z</time>
      </trkpt>
      <trkpt lat="47.21249" lon="-1.55435">
        <ele>57</ele>
        <time>2021-07-16T10:15:58.000Z</time>
      </trkpt>
      <trkpt lat="47.21237" lon="-1.55451">
        <ele>56</ele>
        <time>2021-07-16T10:16:00.000Z</time>
      </trkpt>
      <trkpt lat="47.21229" lon="-1.55467">
        <ele>56</ele>
        <time>2021-07-16T10:16:02.000Z</time>
      </trkpt>
      <trkpt lat="47.21223" lon="-1.55484">
        <ele>56</ele>
        <time>2021-07-16T10:16:05.000Z</time>
      </trkpt>
      <trkpt lat="47.21217" lon="-1.55499">
        <ele>57</ele>
        <time>2021-07-16T10:16:07.000Z</time>
      </trkpt>
      <trkpt lat="47.21209" lon="-1.55517">
        <ele>57</ele>
        <time>2021-07-16T10:16:09.000Z</time>
      </trkpt>
      <trkpt lat="47.21202" lon="-1.5554">
        <ele>56</ele>
        <time>2021-07-16T10:16:11.000Z</time>
      </trkpt>
      <trkpt lat="47.21194" lon="-1.55564">
        <ele>56</ele>
        <time>2021-07-16T10:16:13.000Z</time>
      </trkpt>
      <trkpt lat="47.21188" lon="-1.55588">
        <ele>56</ele>
        <time>2021-07-16T10:16:15.000Z</time>
      </trkpt>
      <trkpt lat="47.21182" lon="-1.5561">
        <ele>55</ele>
        <time>2021-07-16T10:16:17.000Z</time>
      </trkpt>
      <trkpt lat="47.21175" lon="-1.55632">
        <ele>55</ele>
        <time>2021-07-16T10:16:19.000Z</time>
      </trkpt>
      <trkpt lat="47.2117" lon="-1.55654">
        <ele>55</ele>
        <time>2021-07-16T10:16:21.000Z</time>
      </trkpt>
      <trkpt lat="47.21171" lon="-1.55676">
        <ele>55</ele>
        <time>2021-07-16T10:16:23.000Z</time>
      </trkpt>
      <trkpt lat="47.21176" lon="-1.55697">
        <ele>54</ele>
        <time>2021-07-16T10:16:25.000Z</time>
      </trkpt>
      <trkpt lat="47.21172" lon="-1.55719">
        <ele>54</ele>
        <time>2021-07-16T10:16:27.000Z</time>
      </trkpt>
      <trkpt lat="47.21164" lon="-1.55738">
        <ele>54</ele>
        <time>2021-07-16T10:16:29.000Z</time>
      </trkpt>
      <trkpt lat="47.21157" lon="-1.55759">
        <ele>54</ele>
        <time>2021-07-16T10:16:31.000Z</time>
      </trkpt>
      <trkpt lat="47.21151" lon="-1.55779">
        <ele>53</ele>
        <time>2021-07-16T10:16:33.000Z</time>
      </trkpt>
      <trkpt lat="47.21146" lon="-1.558">
        <ele>53</ele>
        <time>2021-07-16T10:16:35.000Z</time>
      </trkpt>
      <trkpt lat="47.21143" lon="-1.5582">
        <ele>52</ele>
        <time>2021-07-16T10:16:37.000Z</time>
      </trkpt>
      <trkpt lat="47.21142" lon="-1.5584">
        <ele>52</ele>
        <time>2021-07-16T10:16:39.000Z</time>
      </trkpt>
      <trkpt lat="47.21142" lon="-1.55854">
        <ele>52</ele>
        <time>2021-07-16T10:16:41.000Z</time>
      </trkpt>
      <trkpt lat="47.21145" lon="-1.5587">
        <ele>52</ele>
        <time>2021-07-16T10:16:44.000Z</time>
      </trkpt>
      <trkpt lat="47.2115" lon="-1.5589">
        <ele>53</ele>
        <time>2021-07-16T10:16:47.000Z</time>
      </trkpt>
      <trkpt lat="47.21146" lon="-1.55903">
        <ele>53</ele>
        <time>2021-07-16T10:16:49.000Z</time>
      </trkpt>
      <trkpt lat="47.21138" lon="-1.55913">
        <ele>53</ele>
        <time>2021-07-16T10:16:51.000Z</time>
      </trkpt>
      <trkpt lat="47.21126" lon="-1.55919">
        <ele>53</ele>
        <time>2021-07-16T10:16:53.000Z</time>
      </trkpt>
      <trkpt lat="47.21115" lon="-1.55926">
        <ele>53</ele>
        <time>2021-07-16T10:16:55.000Z</time>
      </trkpt>
      <trkpt lat="47.21106" lon="-1.55934">
        <ele>54</ele>
        <time>2021-07-16T10:16:57.000Z</time>
      </trkpt>
      <trkpt lat="47.21096" lon="-1.55944">
        <ele>54</ele>
        <time>2021-07-16T10:16:59.000Z</time>
      </trkpt>
      <trkpt lat="47.21088" lon="-1.55955">
        <ele>54</ele>
        <time>2021-07-16T10:17:01.000Z</time>
      </trkpt>
      <trkpt lat="47.2108" lon="-1.55966">
        <ele>54</ele>
        <time>2021-07-16T10:17:03.000Z</time>
      </trkpt>
      <trkpt lat="47.21073" lon="-1.55978">
        <ele>54</ele>
        <time>2021-07-16T10:17:05.000Z</time>
      </trkpt>
      <trkpt lat="47.21068" lon="-1.5599">
        <ele>54</ele>
        <time>2021-07-16T10:17:07.000Z</time>
      </trkpt>
      <trkpt lat="47.21065" lon="-1.56004">
        <ele>54</ele>
        <time>2021-07-16T10:17:09.000Z</time>
      </trkpt>
      <trkpt lat="47.21059" lon="-1.56018">
        <ele>54</ele>
        <time>2021-07-16T10:17:11.000Z</time>
      </trkpt>
      <trkpt lat="47.2105" lon="-1.5603">
        <ele>54</ele>
        <time>2021-07-16T10:17:13.000Z</time>
      </trkpt>
      <trkpt lat="47.21044" lon="-1.56046">
        <ele>54</ele>
        <time>2021-07-16T10:17:15.000Z</time>
      </trkpt>
      <trkpt lat="47.21038" lon="-1.5606">
        <ele>55</ele>
        <time>2021-07-16T10:17:17.000Z</time>
      </trkpt>
      <trkpt lat="47.21033" lon="-1.56074">
        <ele>55</ele>
        <time>2021-07-16T10:17:19.000Z</time>
      </trkpt>
      <trkpt lat="47.21028" lon="-1.56087">
        <ele>54</ele>
        <time>2021-07-16T10:17:21.000Z</time>
      </trkpt>
      <trkpt lat="47.21023" lon="-1.56099">
        <ele>54</ele>
        <time>2021-07-16T10:17:23.000Z</time>
      </trkpt>
      <trkpt lat="47.21017" lon="-1.56111">
        <ele>54</ele>
        <time>2021-07-16T10:17:25.000Z</time>
      </trkpt>
      <trkpt lat="47.21013" lon="-1.56123">
        <ele>55</ele>
        <time>2021-07-16T10:17:27.000Z</time>
      </trkpt>
      <trkpt lat="47.21009" lon="-1.56135">
        <ele>55</ele>
        <time>2021-07-16T10:17:29.000Z</time>
      </trkpt>
      <trkpt lat="47.21003" lon="-1.56148">
        <ele>55</ele>
        <time>2021-07-16T10:17:32.000Z</time>
      </trkpt>
      <trkpt lat="47.20999" lon="-1.56163">
        <ele>55</ele>
        <time>2021-07-16T10:17:35.000Z</time>
      </trkpt>
      <trkpt lat="47.20991" lon="-1.56172">
        <ele>56</ele>
        <time>2021-07-16T10:17:37.000Z</time>
      </trkpt>
      <trkpt lat="47.20983" lon="-1.5618">
        <ele>55</ele>
        <time>2021-07-16T10:17:41.000Z</time>
      </trkpt>
      <trkpt lat="47.20975" lon="-1.56173">
        <ele>54</ele>
        <time>2021-07-16T10:17:48.000Z</time>
      </trkpt>
      <trkpt lat="47.20963" lon="-1.5617">
        <ele>55</ele>
        <time>2021-07-16T10:17:50.000Z</time>
      </trkpt>
      <trkpt lat="47.20949" lon="-1.56167">
        <ele>56</ele>
        <time>2021-07-16T10:17:52.000Z</time>
      </trkpt>
      <trkpt lat="47.20936" lon="-1.56164">
        <ele>56</ele>
        <time>2021-07-16T10:17:54.000Z</time>
      </trkpt>
      <trkpt lat="47.20923" lon="-1.56161">
        <ele>57</ele>
        <time>2021-07-16T10:17:56.000Z</time>
      </trkpt>
      <trkpt lat="47.20912" lon="-1.56159">
        <ele>57</ele>
        <time>2021-07-16T10:17:58.000Z</time>
      </trkpt>
      <trkpt lat="47.209" lon="-1.56156">
        <ele>57</ele>
        <time>2021-07-16T10:18:01.000Z</time>
      </trkpt>
      <trkpt lat="47.20889" lon="-1.56154">
        <ele>57</ele>
        <time>2021-07-16T10:18:04.000Z</time>
      </trkpt>
      <trkpt lat="47.20876" lon="-1.5615">
        <ele>57</ele>
        <time>2021-07-16T10:18:07.000Z</time>
      </trkpt>
      <trkpt lat="47.20867" lon="-1.56148">
        <ele>56</ele>
        <time>2021-07-16T10:18:09.000Z</time>
      </trkpt>
      <trkpt lat="47.20858" lon="-1.56145">
        <ele>56</ele>
        <time>2021-07-16T10:18:11.000Z</time>
      </trkpt>
      <trkpt lat="47.20849" lon="-1.56142">
        <ele>56</ele>
        <time>2021-07-16T10:18:13.000Z</time>
      </trkpt>
      <trkpt lat="47.2084" lon="-1.56142">
        <ele>56</ele>
        <time>2021-07-16T10:18:15.000Z</time>
      </trkpt>
      <trkpt lat="47.20832" lon="-1.56152">
        <ele>55</ele>
        <time>2021-07-16T10:18:17.000Z</time>
      </trkpt>
      <trkpt lat="47.20834" lon="-1.56168">
        <ele>55</ele>
        <time>2021-07-16T10:18:19.000Z</time>
      </trkpt>
      <trkpt lat="47.20835" lon="-1.56187">
        <ele>54</ele>
        <time>2021-07-16T10:18:21.000Z</time>
      </trkpt>
      <trkpt lat="47.20835" lon="-1.56205">
        <ele>54</ele>
        <time>2021-07-16T10:18:23.000Z</time>
      </trkpt>
      <trkpt lat="47.20834" lon="-1.56223">
        <ele>54</ele>
        <time>2021-07-16T10:18:25.000Z</time>
      </trkpt>
      <trkpt lat="47.20834" lon="-1.56242">
        <ele>53</ele>
        <time>2021-07-16T10:18:27.000Z</time>
      </trkpt>
      <trkpt lat="47.20834" lon="-1.5626">
        <ele>53</ele>
        <time>2021-07-16T10:18:29.000Z</time>
      </trkpt>
      <trkpt lat="47.20833" lon="-1.56278">
        <ele>54</ele>
        <time>2021-07-16T10:18:31.000Z</time>
      </trkpt>
      <trkpt lat="47.20832" lon="-1.56294">
        <ele>54</ele>
        <time>2021-07-16T10:18:33.000Z</time>
      </trkpt>
      <trkpt lat="47.2083" lon="-1.56311">
        <ele>54</ele>
        <time>2021-07-16T10:18:35.000Z</time>
      </trkpt>
      <trkpt lat="47.20827" lon="-1.56328">
        <ele>53</ele>
        <time>2021-07-16T10:18:37.000Z</time>
      </trkpt>
      <trkpt lat="47.20822" lon="-1.56345">
        <ele>53</ele>
        <time>2021-07-16T10:18:39.000Z</time>
      </trkpt>
      <trkpt lat="47.20818" lon="-1.56363">
        <ele>53</ele>
        <time>2021-07-16T10:18:41.000Z</time>
      </trkpt>
      <trkpt lat="47.20813" lon="-1.56381">
        <ele>53</ele>
        <time>2021-07-16T10:18:43.000Z</time>
      </trkpt>
      <trkpt lat="47.20809" lon="-1.564">
        <ele>53</ele>
        <time>2021-07-16T10:18:45.000Z</time>
      </trkpt>
      <trkpt lat="47.20805" lon="-1.56418">
        <ele>53</ele>
        <time>2021-07-16T10:18:47.000Z</time>
      </trkpt>
      <trkpt lat="47.20801" lon="-1.56436">
        <ele>53</ele>
        <time>2021-07-16T10:18:49.000Z</time>
      </trkpt>
      <trkpt lat="47.20797" lon="-1.56453">
        <ele>53</ele>
        <time>2021-07-16T10:18:51.000Z</time>
      </trkpt>
      <trkpt lat="47.20793" lon="-1.5647">
        <ele>53</ele>
        <time>2021-07-16T10:18:53.000Z</time>
      </trkpt>
      <trkpt lat="47.20789" lon="-1.56485">
        <ele>53</ele>
        <time>2021-07-16T10:18:55.000Z</time>
      </trkpt>
      <trkpt lat="47.20785" lon="-1.56499">
        <ele>52</ele>
        <time>2021-07-16T10:18:57.000Z</time>
      </trkpt>
      <trkpt lat="47.20779" lon="-1.56511">
        <ele>52</ele>
        <time>2021-07-16T10:18:59.000Z</time>
      </trkpt>
      <trkpt lat="47.20769" lon="-1.56514">
        <ele>52</ele>
        <time>2021-07-16T10:19:01.000Z</time>
      </trkpt>
      <trkpt lat="47.2076" lon="-1.56508">
        <ele>53</ele>
        <time>2021-07-16T10:19:03.000Z</time>
      </trkpt>
      <trkpt lat="47.20752" lon="-1.56502">
        <ele>53</ele>
        <time>2021-07-16T10:19:05.000Z</time>
      </trkpt>
      <trkpt lat="47.20743" lon="-1.56493">
        <ele>54</ele>
        <time>2021-07-16T10:19:08.000Z</time>
      </trkpt>
      <trkpt lat="47.20738" lon="-1.56506">
        <ele>54</ele>
        <time>2021-07-16T10:19:16.000Z</time>
      </trkpt>
      <trkpt lat="47.20733" lon="-1.56519">
        <ele>53</ele>
        <time>2021-07-16T10:19:18.000Z</time>
      </trkpt>
      <trkpt lat="47.20726" lon="-1.56536">
        <ele>53</ele>
        <time>2021-07-16T10:19:20.000Z</time>
      </trkpt>
      <trkpt lat="47.20718" lon="-1.56554">
        <ele>53</ele>
        <time>2021-07-16T10:19:22.000Z</time>
      </trkpt>
      <trkpt lat="47.20708" lon="-1.56568">
        <ele>53</ele>
        <time>2021-07-16T10:19:24.000Z</time>
      </trkpt>
      <trkpt lat="47.20696" lon="-1.56573">
        <ele>53</ele>
        <time>2021-07-16T10:19:26.000Z</time>
      </trkpt>
      <trkpt lat="47.20684" lon="-1.5658">
        <ele>54</ele>
        <time>2021-07-16T10:19:28.000Z</time>
      </trkpt>
      <trkpt lat="47.20673" lon="-1.5659">
        <ele>54</ele>
        <time>2021-07-16T10:19:30.000Z</time>
      </trkpt>
      <trkpt lat="47.20661" lon="-1.56599">
        <ele>53</ele>
        <time>2021-07-16T10:19:32.000Z</time>
      </trkpt>
      <trkpt lat="47.20648" lon="-1.56606">
        <ele>54</ele>
        <time>2021-07-16T10:19:34.000Z</time>
      </trkpt>
      <trkpt lat="47.20635" lon="-1.56613">
        <ele>53</ele>
        <time>2021-07-16T10:19:36.000Z</time>
      </trkpt>
      <trkpt lat="47.20622" lon="-1.56616">
        <ele>53</ele>
        <time>2021-07-16T10:19:38.000Z</time>
      </trkpt>
      <trkpt lat="47.20609" lon="-1.56619">
        <ele>53</ele>
        <time>2021-07-16T10:19:40.000Z</time>
      </trkpt>
      <trkpt lat="47.20596" lon="-1.56627">
        <ele>53</ele>
        <time>2021-07-16T10:19:42.000Z</time>
      </trkpt>
      <trkpt lat="47.20585" lon="-1.5664">
        <ele>53</ele>
        <time>2021-07-16T10:19:44.000Z</time>
      </trkpt>
      <trkpt lat="47.20576" lon="-1.56655">
        <ele>53</ele>
        <time>2021-07-16T10:19:46.000Z</time>
      </trkpt>
      <trkpt lat="47.20569" lon="-1.56671">
        <ele>53</ele>
        <time>2021-07-16T10:19:48.000Z</time>
      </trkpt>
      <trkpt lat="47.20561" lon="-1.56687">
        <ele>53</ele>
        <time>2021-07-16T10:19:50.000Z</time>
      </trkpt>
      <trkpt lat="47.20552" lon="-1.56701">
        <ele>53</ele>
        <time>2021-07-16T10:19:52.000Z</time>
      </trkpt>
      <trkpt lat="47.20541" lon="-1.56711">
        <ele>53</ele>
        <time>2021-07-16T10:19:54.000Z</time>
      </trkpt>
      <trkpt lat="47.20528" lon="-1.56716">
        <ele>53</ele>
        <time>2021-07-16T10:19:56.000Z</time>
      </trkpt>
      <trkpt lat="47.20514" lon="-1.56716">
        <ele>54</ele>
        <time>2021-07-16T10:19:58.000Z</time>
      </trkpt>
      <trkpt lat="47.205" lon="-1.56715">
        <ele>54</ele>
        <time>2021-07-16T10:20:00.000Z</time>
      </trkpt>
      <trkpt lat="47.20485" lon="-1.56716">
        <ele>54</ele>
        <time>2021-07-16T10:20:02.000Z</time>
      </trkpt>
      <trkpt lat="47.2047" lon="-1.56715">
        <ele>54</ele>
        <time>2021-07-16T10:20:04.000Z</time>
      </trkpt>
      <trkpt lat="47.20456" lon="-1.56712">
        <ele>54</ele>
        <time>2021-07-16T10:20:06.000Z</time>
      </trkpt>
      <trkpt lat="47.20443" lon="-1.56709">
        <ele>55</ele>
        <time>2021-07-16T10:20:08.000Z</time>
      </trkpt>
      <trkpt lat="47.20431" lon="-1.56706">
        <ele>56</ele>
        <time>2021-07-16T10:20:10.000Z</time>
      </trkpt>
      <trkpt lat="47.20419" lon="-1.56706">
        <ele>57</ele>
        <time>2021-07-16T10:20:12.000Z</time>
      </trkpt>
      <trkpt lat="47.20409" lon="-1.56707">
        <ele>57</ele>
        <time>2021-07-16T10:20:14.000Z</time>
      </trkpt>
      <trkpt lat="47.204" lon="-1.56714">
        <ele>59</ele>
        <time>2021-07-16T10:20:17.000Z</time>
      </trkpt>
      <trkpt lat="47.20397" lon="-1.5673">
        <ele>60</ele>
        <time>2021-07-16T10:20:20.000Z</time>
      </trkpt>
      <trkpt lat="47.20399" lon="-1.56745">
        <ele>59</ele>
        <time>2021-07-16T10:20:22.000Z</time>
      </trkpt>
      <trkpt lat="47.204" lon="-1.56762">
        <ele>59</ele>
        <time>2021-07-16T10:20:24.000Z</time>
      </trkpt>
      <trkpt lat="47.20396" lon="-1.56779">
        <ele>60</ele>
        <time>2021-07-16T10:20:26.000Z</time>
      </trkpt>
      <trkpt lat="47.20397" lon="-1.568">
        <ele>59</ele>
        <time>2021-07-16T10:20:28.000Z</time>
      </trkpt>
      <trkpt lat="47.20397" lon="-1.56824">
        <ele>58</ele>
        <time>2021-07-16T10:20:30.000Z</time>
      </trkpt>
      <trkpt lat="47.20393" lon="-1.56844">
        <ele>57</ele>
        <time>2021-07-16T10:20:32.000Z</time>
      </trkpt>
      <trkpt lat="47.20392" lon="-1.56864">
        <ele>56</ele>
        <time>2021-07-16T10:20:34.000Z</time>
      </trkpt>
      <trkpt lat="47.2039" lon="-1.56886">
        <ele>57</ele>
        <time>2021-07-16T10:20:36.000Z</time>
      </trkpt>
      <trkpt lat="47.20389" lon="-1.56904">
        <ele>55</ele>
        <time>2021-07-16T10:20:38.000Z</time>
      </trkpt>
      <trkpt lat="47.20386" lon="-1.56922">
        <ele>55</ele>
        <time>2021-07-16T10:20:40.000Z</time>
      </trkpt>
      <trkpt lat="47.20384" lon="-1.56942">
        <ele>54</ele>
        <time>2021-07-16T10:20:42.000Z</time>
      </trkpt>
      <trkpt lat="47.20383" lon="-1.56961">
        <ele>54</ele>
        <time>2021-07-16T10:20:44.000Z</time>
      </trkpt>
      <trkpt lat="47.20379" lon="-1.56982">
        <ele>54</ele>
        <time>2021-07-16T10:20:46.000Z</time>
      </trkpt>
      <trkpt lat="47.20376" lon="-1.57001">
        <ele>54</ele>
        <time>2021-07-16T10:20:48.000Z</time>
      </trkpt>
      <trkpt lat="47.20373" lon="-1.57019">
        <ele>53</ele>
        <time>2021-07-16T10:20:50.000Z</time>
      </trkpt>
      <trkpt lat="47.20369" lon="-1.57037">
        <ele>52</ele>
        <time>2021-07-16T10:20:52.000Z</time>
      </trkpt>
      <trkpt lat="47.20363" lon="-1.57053">
        <ele>52</ele>
        <time>2021-07-16T10:20:54.000Z</time>
      </trkpt>
      <trkpt lat="47.20356" lon="-1.57069">
        <ele>52</ele>
        <time>2021-07-16T10:20:56.000Z</time>
      </trkpt>
      <trkpt lat="47.20349" lon="-1.57085">
        <ele>53</ele>
        <time>2021-07-16T10:20:58.000Z</time>
      </trkpt>
      <trkpt lat="47.20341" lon="-1.571">
        <ele>54</ele>
        <time>2021-07-16T10:21:00.000Z</time>
      </trkpt>
      <trkpt lat="47.20331" lon="-1.57111">
        <ele>54</ele>
        <time>2021-07-16T10:21:02.000Z</time>
      </trkpt>
      <trkpt lat="47.20319" lon="-1.5712">
        <ele>55</ele>
        <time>2021-07-16T10:21:04.000Z</time>
      </trkpt>
      <trkpt lat="47.20308" lon="-1.57128">
        <ele>55</ele>
        <time>2021-07-16T10:21:06.000Z</time>
      </trkpt>
      <trkpt lat="47.20296" lon="-1.57137">
        <ele>56</ele>
        <time>2021-07-16T10:21:08.000Z</time>
      </trkpt>
      <trkpt lat="47.20283" lon="-1.57144">
        <ele>56</ele>
        <time>2021-07-16T10:21:10.000Z</time>
      </trkpt>
      <trkpt lat="47.2027" lon="-1.57152">
        <ele>56</ele>
        <time>2021-07-16T10:21:12.000Z</time>
      </trkpt>
      <trkpt lat="47.20258" lon="-1.57161">
        <ele>56</ele>
        <time>2021-07-16T10:21:14.000Z</time>
      </trkpt>
      <trkpt lat="47.20245" lon="-1.57169">
        <ele>56</ele>
        <time>2021-07-16T10:21:16.000Z</time>
      </trkpt>
      <trkpt lat="47.20232" lon="-1.57177">
        <ele>56</ele>
        <time>2021-07-16T10:21:18.000Z</time>
      </trkpt>
      <trkpt lat="47.2022" lon="-1.57184">
        <ele>55</ele>
        <time>2021-07-16T10:21:20.000Z</time>
      </trkpt>
      <trkpt lat="47.20208" lon="-1.57191">
        <ele>54</ele>
        <time>2021-07-16T10:21:22.000Z</time>
      </trkpt>
      <trkpt lat="47.20196" lon="-1.57199">
        <ele>54</ele>
        <time>2021-07-16T10:21:24.000Z</time>
      </trkpt>
      <trkpt lat="47.20184" lon="-1.57208">
        <ele>54</ele>
        <time>2021-07-16T10:21:26.000Z</time>
      </trkpt>
      <trkpt lat="47.20172" lon="-1.57217">
        <ele>54</ele>
        <time>2021-07-16T10:21:28.000Z</time>
      </trkpt>
      <trkpt lat="47.2016" lon="-1.57226">
        <ele>54</ele>
        <time>2021-07-16T10:21:30.000Z</time>
      </trkpt>
      <trkpt lat="47.20147" lon="-1.57234">
        <ele>54</ele>
        <time>2021-07-16T10:21:32.000Z</time>
      </trkpt>
      <trkpt lat="47.20135" lon="-1.57243">
        <ele>54</ele>
        <time>2021-07-16T10:21:34.000Z</time>
      </trkpt>
      <trkpt lat="47.20122" lon="-1.57252">
        <ele>54</ele>
        <time>2021-07-16T10:21:36.000Z</time>
      </trkpt>
      <trkpt lat="47.2011" lon="-1.5726">
        <ele>54</ele>
        <time>2021-07-16T10:21:38.000Z</time>
      </trkpt>
      <trkpt lat="47.20098" lon="-1.57268">
        <ele>54</ele>
        <time>2021-07-16T10:21:40.000Z</time>
      </trkpt>
      <trkpt lat="47.20086" lon="-1.57276">
        <ele>55</ele>
        <time>2021-07-16T10:21:42.000Z</time>
      </trkpt>
      <trkpt lat="47.20074" lon="-1.57285">
        <ele>55</ele>
        <time>2021-07-16T10:21:44.000Z</time>
      </trkpt>
      <trkpt lat="47.20062" lon="-1.57296">
        <ele>55</ele>
        <time>2021-07-16T10:21:46.000Z</time>
      </trkpt>
      <trkpt lat="47.2005" lon="-1.57307">
        <ele>55</ele>
        <time>2021-07-16T10:21:48.000Z</time>
      </trkpt>
      <trkpt lat="47.20037" lon="-1.57317">
        <ele>55</ele>
        <time>2021-07-16T10:21:50.000Z</time>
      </trkpt>
      <trkpt lat="47.20025" lon="-1.57326">
        <ele>56</ele>
        <time>2021-07-16T10:21:52.000Z</time>
      </trkpt>
      <trkpt lat="47.20014" lon="-1.57334">
        <ele>57</ele>
        <time>2021-07-16T10:21:54.000Z</time>
      </trkpt>
      <trkpt lat="47.20003" lon="-1.57342">
        <ele>56</ele>
        <time>2021-07-16T10:21:56.000Z</time>
      </trkpt>
      <trkpt lat="47.19991" lon="-1.57345">
        <ele>56</ele>
        <time>2021-07-16T10:21:58.000Z</time>
      </trkpt>
      <trkpt lat="47.19982" lon="-1.57333">
        <ele>56</ele>
        <time>2021-07-16T10:22:00.000Z</time>
      </trkpt>
      <trkpt lat="47.1998" lon="-1.57313">
        <ele>55</ele>
        <time>2021-07-16T10:22:02.000Z</time>
      </trkpt>
      <trkpt lat="47.1998" lon="-1.57295">
        <ele>55</ele>
        <time>2021-07-16T10:22:04.000Z</time>
      </trkpt>
      <trkpt lat="47.19979" lon="-1.57277">
        <ele>55</ele>
        <time>2021-07-16T10:22:06.000Z</time>
      </trkpt>
      <trkpt lat="47.19979" lon="-1.57258">
        <ele>55</ele>
        <time>2021-07-16T10:22:08.000Z</time>
      </trkpt>
      <trkpt lat="47.1998" lon="-1.57239">
        <ele>54</ele>
        <time>2021-07-16T10:22:10.000Z</time>
      </trkpt>
      <trkpt lat="47.19979" lon="-1.57219">
        <ele>54</ele>
        <time>2021-07-16T10:22:12.000Z</time>
      </trkpt>
      <trkpt lat="47.19979" lon="-1.57199">
        <ele>53</ele>
        <time>2021-07-16T10:22:14.000Z</time>
      </trkpt>
      <trkpt lat="47.19979" lon="-1.57178">
        <ele>53</ele>
        <time>2021-07-16T10:22:16.000Z</time>
      </trkpt>
      <trkpt lat="47.19978" lon="-1.57158">
        <ele>53</ele>
        <time>2021-07-16T10:22:18.000Z</time>
      </trkpt>
      <trkpt lat="47.19975" lon="-1.57137">
        <ele>53</ele>
        <time>2021-07-16T10:22:20.000Z</time>
      </trkpt>
      <trkpt lat="47.19971" lon="-1.57118">
        <ele>53</ele>
        <time>2021-07-16T10:22:22.000Z</time>
      </trkpt>
      <trkpt lat="47.19967" lon="-1.57098">
        <ele>53</ele>
        <time>2021-07-16T10:22:24.000Z</time>
      </trkpt>
      <trkpt lat="47.19962" lon="-1.5708">
        <ele>54</ele>
        <time>2021-07-16T10:22:26.000Z</time>
      </trkpt>
      <trkpt lat="47.19958" lon="-1.5706">
        <ele>54</ele>
        <time>2021-07-16T10:22:28.000Z</time>
      </trkpt>
      <trkpt lat="47.19952" lon="-1.57044">
        <ele>53</ele>
        <time>2021-07-16T10:22:30.000Z</time>
      </trkpt>
      <trkpt lat="47.1995" lon="-1.57025">
        <ele>54</ele>
        <time>2021-07-16T10:22:32.000Z</time>
      </trkpt>
      <trkpt lat="47.19951" lon="-1.57004">
        <ele>54</ele>
        <time>2021-07-16T10:22:34.000Z</time>
      </trkpt>
      <trkpt lat="47.19951" lon="-1.56985">
        <ele>54</ele>
        <time>2021-07-16T10:22:36.000Z</time>
      </trkpt>
      <trkpt lat="47.19951" lon="-1.56965">
        <ele>54</ele>
        <time>2021-07-16T10:22:38.000Z</time>
      </trkpt>
      <trkpt lat="47.19951" lon="-1.56945">
        <ele>54</ele>
        <time>2021-07-16T10:22:40.000Z</time>
      </trkpt>
      <trkpt lat="47.19951" lon="-1.56925">
        <ele>54</ele>
        <time>2021-07-16T10:22:42.000Z</time>
      </trkpt>
      <trkpt lat="47.19951" lon="-1.56906">
        <ele>54</ele>
        <time>2021-07-16T10:22:44.000Z</time>
      </trkpt>
      <trkpt lat="47.19951" lon="-1.56886">
        <ele>54</ele>
        <time>2021-07-16T10:22:46.000Z</time>
      </trkpt>
      <trkpt lat="47.19951" lon="-1.56866">
        <ele>54</ele>
        <time>2021-07-16T10:22:48.000Z</time>
      </trkpt>
      <trkpt lat="47.19951" lon="-1.56847">
        <ele>54</ele>
        <time>2021-07-16T10:22:50.000Z</time>
      </trkpt>
      <trkpt lat="47.19951" lon="-1.56827">
        <ele>54</ele>
        <time>2021-07-16T10:22:52.000Z</time>
      </trkpt>
      <trkpt lat="47.19951" lon="-1.56807">
        <ele>54</ele>
        <time>2021-07-16T10:22:54.000Z</time>
      </trkpt>
      <trkpt lat="47.19951" lon="-1.56787">
        <ele>54</ele>
        <time>2021-07-16T10:22:56.000Z</time>
      </trkpt>
      <trkpt lat="47.19951" lon="-1.56768">
        <ele>54</ele>
        <time>2021-07-16T10:22:58.000Z</time>
      </trkpt>
      <trkpt lat="47.19951" lon="-1.56748">
        <ele>54</ele>
        <time>2021-07-16T10:23:00.000Z</time>
      </trkpt>
      <trkpt lat="47.19951" lon="-1.56728">
        <ele>54</ele>
        <time>2021-07-16T10:23:02.000Z</time>
      </trkpt>
      <trkpt lat="47.19951" lon="-1.56709">
        <ele>53</ele>
        <time>2021-07-16T10:23:04.000Z</time>
      </trkpt>
      <trkpt lat="47.19951" lon="-1.5669">
        <ele>53</ele>
        <time>2021-07-16T10:23:06.000Z</time>
      </trkpt>
      <trkpt lat="47.1995" lon="-1.56671">
        <ele>54</ele>
        <time>2021-07-16T10:23:08.000Z</time>
      </trkpt>
      <trkpt lat="47.1995" lon="-1.56652">
        <ele>54</ele>
        <time>2021-07-16T10:23:10.000Z</time>
      </trkpt>
      <trkpt lat="47.19951" lon="-1.56633">
        <ele>54</ele>
        <time>2021-07-16T10:23:12.000Z</time>
      </trkpt>
      <trkpt lat="47.19951" lon="-1.56614">
        <ele>54</ele>
        <time>2021-07-16T10:23:14.000Z</time>
      </trkpt>
      <trkpt lat="47.19951" lon="-1.56595">
        <ele>54</ele>
        <time>2021-07-16T10:23:16.000Z</time>
      </trkpt>
      <trkpt lat="47.19951" lon="-1.56577">
        <ele>54</ele>
        <time>2021-07-16T10:23:18.000Z</time>
      </trkpt>
      <trkpt lat="47.19951" lon="-1.56559">
        <ele>54</ele>
        <time>2021-07-16T10:23:20.000Z</time>
      </trkpt>
      <trkpt lat="47.19951" lon="-1.56542">
        <ele>54</ele>
        <time>2021-07-16T10:23:22.000Z</time>
      </trkpt>
      <trkpt lat="47.19952" lon="-1.56523">
        <ele>54</ele>
        <time>2021-07-16T10:23:24.000Z</time>
      </trkpt>
      <trkpt lat="47.19953" lon="-1.56506">
        <ele>54</ele>
        <time>2021-07-16T10:23:26.000Z</time>
      </trkpt>
      <trkpt lat="47.19954" lon="-1.56487">
        <ele>54</ele>
        <time>2021-07-16T10:23:28.000Z</time>
      </trkpt>
      <trkpt lat="47.19955" lon="-1.56469">
        <ele>54</ele>
        <time>2021-07-16T10:23:30.000Z</time>
      </trkpt>
      <trkpt lat="47.19958" lon="-1.56451">
        <ele>54</ele>
        <time>2021-07-16T10:23:32.000Z</time>
      </trkpt>
      <trkpt lat="47.19962" lon="-1.56433">
        <ele>54</ele>
        <time>2021-07-16T10:23:34.000Z</time>
      </trkpt>
      <trkpt lat="47.19966" lon="-1.56416">
        <ele>54</ele>
        <time>2021-07-16T10:23:36.000Z</time>
      </trkpt>
      <trkpt lat="47.19969" lon="-1.56399">
        <ele>54</ele>
        <time>2021-07-16T10:23:38.000Z</time>
      </trkpt>
      <trkpt lat="47.1997" lon="-1.5638">
        <ele>54</ele>
        <time>2021-07-16T10:23:40.000Z</time>
      </trkpt>
      <trkpt lat="47.19971" lon="-1.56362">
        <ele>54</ele>
        <time>2021-07-16T10:23:42.000Z</time>
      </trkpt>
      <trkpt lat="47.19972" lon="-1.56344">
        <ele>55</ele>
        <time>2021-07-16T10:23:44.000Z</time>
      </trkpt>
      <trkpt lat="47.19974" lon="-1.56326">
        <ele>55</ele>
        <time>2021-07-16T10:23:46.000Z</time>
      </trkpt>
      <trkpt lat="47.19975" lon="-1.56308">
        <ele>55</ele>
        <time>2021-07-16T10:23:48.000Z</time>
      </trkpt>
      <trkpt lat="47.19976" lon="-1.56291">
        <ele>55</ele>
        <time>2021-07-16T10:23:50.000Z</time>
      </trkpt>
      <trkpt lat="47.19976" lon="-1.56273">
        <ele>55</ele>
        <time>2021-07-16T10:23:52.000Z</time>
      </trkpt>
      <trkpt lat="47.19976" lon="-1.56257">
        <ele>55</ele>
        <time>2021-07-16T10:23:54.000Z</time>
      </trkpt>
      <trkpt lat="47.19977" lon="-1.5624">
        <ele>55</ele>
        <time>2021-07-16T10:23:56.000Z</time>
      </trkpt>
      <trkpt lat="47.19976" lon="-1.56225">
        <ele>55</ele>
        <time>2021-07-16T10:23:58.000Z</time>
      </trkpt>
      <trkpt lat="47.19976" lon="-1.5621">
        <ele>55</ele>
        <time>2021-07-16T10:24:00.000Z</time>
      </trkpt>
      <trkpt lat="47.19975" lon="-1.56195">
        <ele>55</ele>
        <time>2021-07-16T10:24:02.000Z</time>
      </trkpt>
      <trkpt lat="47.19974" lon="-1.5618">
        <ele>55</ele>
        <time>2021-07-16T10:24:04.000Z</time>
      </trkpt>
      <trkpt lat="47.19967" lon="-1.56171">
        <ele>55</ele>
        <time>2021-07-16T10:24:06.000Z</time>
      </trkpt>
      <trkpt lat="47.19957" lon="-1.56168">
        <ele>56</ele>
        <time>2021-07-16T10:24:08.000Z</time>
      </trkpt>
      <trkpt lat="47.19947" lon="-1.56171">
        <ele>56</ele>
        <time>2021-07-16T10:24:10.000Z</time>
      </trkpt>
      <trkpt lat="47.19936" lon="-1.56174">
        <ele>57</ele>
        <time>2021-07-16T10:24:12.000Z</time>
      </trkpt>
      <trkpt lat="47.19926" lon="-1.56176">
        <ele>58</ele>
        <time>2021-07-16T10:24:14.000Z</time>
      </trkpt>
      <trkpt lat="47.19916" lon="-1.56177">
        <ele>59</ele>
        <time>2021-07-16T10:24:16.000Z</time>
      </trkpt>
      <trkpt lat="47.19906" lon="-1.56179">
        <ele>59</ele>
        <time>2021-07-16T10:24:18.000Z</time>
      </trkpt>
      <trkpt lat="47.19895" lon="-1.56181">
        <ele>59</ele>
        <time>2021-07-16T10:24:20.000Z</time>
      </trkpt>
      <trkpt lat="47.19884" lon="-1.56182">
        <ele>60</ele>
        <time>2021-07-16T10:24:22.000Z</time>
      </trkpt>
      <trkpt lat="47.19873" lon="-1.56184">
        <ele>60</ele>
        <time>2021-07-16T10:24:24.000Z</time>
      </trkpt>
      <trkpt lat="47.19863" lon="-1.56186">
        <ele>60</ele>
        <time>2021-07-16T10:24:26.000Z</time>
      </trkpt>
      <trkpt lat="47.19852" lon="-1.56188">
        <ele>61</ele>
        <time>2021-07-16T10:24:28.000Z</time>
      </trkpt>
      <trkpt lat="47.19841" lon="-1.5619">
        <ele>61</ele>
        <time>2021-07-16T10:24:30.000Z</time>
      </trkpt>
      <trkpt lat="47.19831" lon="-1.56192">
        <ele>61</ele>
        <time>2021-07-16T10:24:32.000Z</time>
      </trkpt>
      <trkpt lat="47.1982" lon="-1.56194">
        <ele>61</ele>
        <time>2021-07-16T10:24:34.000Z</time>
      </trkpt>
      <trkpt lat="47.19809" lon="-1.56197">
        <ele>61</ele>
        <time>2021-07-16T10:24:36.000Z</time>
      </trkpt>
      <trkpt lat="47.19798" lon="-1.56199">
        <ele>61</ele>
        <time>2021-07-16T10:24:38.000Z</time>
      </trkpt>
      <trkpt lat="47.19787" lon="-1.56201">
        <ele>61</ele>
        <time>2021-07-16T10:24:40.000Z</time>
      </trkpt>
      <trkpt lat="47.19775" lon="-1.56203">
        <ele>61</ele>
        <time>2021-07-16T10:24:42.000Z</time>
      </trkpt>
      <trkpt lat="47.19763" lon="-1.56205">
        <ele>60</ele>
        <time>2021-07-16T10:24:44.000Z</time>
      </trkpt>
      <trkpt lat="47.1975" lon="-1.56207">
        <ele>60</ele>
        <time>2021-07-16T10:24:46.000Z</time>
      </trkpt>
      <trkpt lat="47.19737" lon="-1.5621">
        <ele>59</ele>
        <time>2021-07-16T10:24:48.000Z</time>
      </trkpt>
      <trkpt lat="47.19723" lon="-1.56213">
        <ele>59</ele>
        <time>2021-07-16T10:24:50.000Z</time>
      </trkpt>
      <trkpt lat="47.19707" lon="-1.56215">
        <ele>58</ele>
        <time>2021-07-16T10:24:52.000Z</time>
      </trkpt>
      <trkpt lat="47.19691" lon="-1.56218">
        <ele>57</ele>
        <time>2021-07-16T10:24:54.000Z</time>
      </trkpt>
      <trkpt lat="47.19674" lon="-1.56222">
        <ele>56</ele>
        <time>2021-07-16T10:24:56.000Z</time>
      </trkpt>
      <trkpt lat="47.19657" lon="-1.56228">
        <ele>55</ele>
        <time>2021-07-16T10:24:58.000Z</time>
      </trkpt>
      <trkpt lat="47.1964" lon="-1.56235">
        <ele>54</ele>
        <time>2021-07-16T10:25:00.000Z</time>
      </trkpt>
      <trkpt lat="47.19634" lon="-1.56256">
        <ele>53</ele>
        <time>2021-07-16T10:25:02.000Z</time>
      </trkpt>
      <trkpt lat="47.19634" lon="-1.56279">
        <ele>53</ele>
        <time>2021-07-16T10:25:04.000Z</time>
      </trkpt>
      <trkpt lat="47.19634" lon="-1.563">
        <ele>53</ele>
        <time>2021-07-16T10:25:06.000Z</time>
      </trkpt>
      <trkpt lat="47.19632" lon="-1.56321">
        <ele>53</ele>
        <time>2021-07-16T10:25:08.000Z</time>
      </trkpt>
      <trkpt lat="47.19632" lon="-1.56342">
        <ele>53</ele>
        <time>2021-07-16T10:25:10.000Z</time>
      </trkpt>
      <trkpt lat="47.19631" lon="-1.56363">
        <ele>53</ele>
        <time>2021-07-16T10:25:12.000Z</time>
      </trkpt>
      <trkpt lat="47.1963" lon="-1.56385">
        <ele>52</ele>
        <time>2021-07-16T10:25:14.000Z</time>
      </trkpt>
      <trkpt lat="47.19631" lon="-1.56406">
        <ele>52</ele>
        <time>2021-07-16T10:25:16.000Z</time>
      </trkpt>
      <trkpt lat="47.19632" lon="-1.56426">
        <ele>51</ele>
        <time>2021-07-16T10:25:18.000Z</time>
      </trkpt>
      <trkpt lat="47.19633" lon="-1.56447">
        <ele>51</ele>
        <time>2021-07-16T10:25:20.000Z</time>
      </trkpt>
      <trkpt lat="47.19634" lon="-1.56468">
        <ele>52</ele>
        <time>2021-07-16T10:25:22.000Z</time>
      </trkpt>
      <trkpt lat="47.19635" lon="-1.56488">
        <ele>52</ele>
        <time>2021-07-16T10:25:24.000Z</time>
      </trkpt>
      <trkpt lat="47.19635" lon="-1.56509">
        <ele>52</ele>
        <time>2021-07-16T10:25:26.000Z</time>
      </trkpt>
      <trkpt lat="47.19635" lon="-1.56529">
        <ele>52</ele>
        <time>2021-07-16T10:25:28.000Z</time>
      </trkpt>
      <trkpt lat="47.19635" lon="-1.56548">
        <ele>53</ele>
        <time>2021-07-16T10:25:30.000Z</time>
      </trkpt>
      <trkpt lat="47.19634" lon="-1.56568">
        <ele>54</ele>
        <time>2021-07-16T10:25:32.000Z</time>
      </trkpt>
      <trkpt lat="47.19634" lon="-1.56588">
        <ele>54</ele>
        <time>2021-07-16T10:25:34.000Z</time>
      </trkpt>
      <trkpt lat="47.19633" lon="-1.56608">
        <ele>54</ele>
        <time>2021-07-16T10:25:36.000Z</time>
      </trkpt>
      <trkpt lat="47.19632" lon="-1.56628">
        <ele>54</ele>
        <time>2021-07-16T10:25:38.000Z</time>
      </trkpt>
      <trkpt lat="47.19631" lon="-1.56648">
        <ele>54</ele>
        <time>2021-07-16T10:25:40.000Z</time>
      </trkpt>
      <trkpt lat="47.1963" lon="-1.56667">
        <ele>54</ele>
        <time>2021-07-16T10:25:42.000Z</time>
      </trkpt>
      <trkpt lat="47.19631" lon="-1.56687">
        <ele>54</ele>
        <time>2021-07-16T10:25:44.000Z</time>
      </trkpt>
      <trkpt lat="47.1963" lon="-1.56707">
        <ele>54</ele>
        <time>2021-07-16T10:25:46.000Z</time>
      </trkpt>
      <trkpt lat="47.19629" lon="-1.56727">
        <ele>54</ele>
        <time>2021-07-16T10:25:48.000Z</time>
      </trkpt>
      <trkpt lat="47.19627" lon="-1.56746">
        <ele>54</ele>
        <time>2021-07-16T10:25:50.000Z</time>
      </trkpt>
      <trkpt lat="47.19624" lon="-1.56766">
        <ele>54</ele>
        <time>2021-07-16T10:25:52.000Z</time>
      </trkpt>
      <trkpt lat="47.19623" lon="-1.56786">
        <ele>54</ele>
        <time>2021-07-16T10:25:54.000Z</time>
      </trkpt>
      <trkpt lat="47.19621" lon="-1.56806">
        <ele>54</ele>
        <time>2021-07-16T10:25:56.000Z</time>
      </trkpt>
      <trkpt lat="47.1962" lon="-1.56825">
        <ele>53</ele>
        <time>2021-07-16T10:25:58.000Z</time>
      </trkpt>
      <trkpt lat="47.1962" lon="-1.56844">
        <ele>53</ele>
        <time>2021-07-16T10:26:00.000Z</time>
      </trkpt>
      <trkpt lat="47.19619" lon="-1.56863">
        <ele>54</ele>
        <time>2021-07-16T10:26:02.000Z</time>
      </trkpt>
      <trkpt lat="47.19618" lon="-1.56882">
        <ele>53</ele>
        <time>2021-07-16T10:26:04.000Z</time>
      </trkpt>
      <trkpt lat="47.19616" lon="-1.569">
        <ele>53</ele>
        <time>2021-07-16T10:26:06.000Z</time>
      </trkpt>
      <trkpt lat="47.19614" lon="-1.5692">
        <ele>53</ele>
        <time>2021-07-16T10:26:08.000Z</time>
      </trkpt>
      <trkpt lat="47.19613" lon="-1.5694">
        <ele>53</ele>
        <time>2021-07-16T10:26:10.000Z</time>
      </trkpt>
      <trkpt lat="47.19612" lon="-1.56959">
        <ele>53</ele>
        <time>2021-07-16T10:26:12.000Z</time>
      </trkpt>
      <trkpt lat="47.1961" lon="-1.56978">
        <ele>53</ele>
        <time>2021-07-16T10:26:14.000Z</time>
      </trkpt>
      <trkpt lat="47.19608" lon="-1.56998">
        <ele>53</ele>
        <time>2021-07-16T10:26:16.000Z</time>
      </trkpt>
      <trkpt lat="47.19607" lon="-1.57018">
        <ele>53</ele>
        <time>2021-07-16T10:26:18.000Z</time>
      </trkpt>
      <trkpt lat="47.19605" lon="-1.57037">
        <ele>52</ele>
        <time>2021-07-16T10:26:20.000Z</time>
      </trkpt>
      <trkpt lat="47.19603" lon="-1.57057">
        <ele>52</ele>
        <time>2021-07-16T10:26:22.000Z</time>
      </trkpt>
      <trkpt lat="47.19602" lon="-1.57074">
        <ele>52</ele>
        <time>2021-07-16T10:26:24.000Z</time>
      </trkpt>
      <trkpt lat="47.19602" lon="-1.57091">
        <ele>52</ele>
        <time>2021-07-16T10:26:26.000Z</time>
      </trkpt>
      <trkpt lat="47.196" lon="-1.57106">
        <ele>52</ele>
        <time>2021-07-16T10:26:28.000Z</time>
      </trkpt>
      <trkpt lat="47.19599" lon="-1.57122">
        <ele>53</ele>
        <time>2021-07-16T10:26:31.000Z</time>
      </trkpt>
      <trkpt lat="47.19592" lon="-1.57132">
        <ele>53</ele>
        <time>2021-07-16T10:26:35.000Z</time>
      </trkpt>
      <trkpt lat="47.19579" lon="-1.57129">
        <ele>53</ele>
        <time>2021-07-16T10:26:38.000Z</time>
      </trkpt>
      <trkpt lat="47.1957" lon="-1.57126">
        <ele>54</ele>
        <time>2021-07-16T10:26:40.000Z</time>
      </trkpt>
      <trkpt lat="47.19557" lon="-1.57125">
        <ele>55</ele>
        <time>2021-07-16T10:26:42.000Z</time>
      </trkpt>
      <trkpt lat="47.19543" lon="-1.57123">
        <ele>56</ele>
        <time>2021-07-16T10:26:44.000Z</time>
      </trkpt>
      <trkpt lat="47.1953" lon="-1.57122">
        <ele>58</ele>
        <time>2021-07-16T10:26:46.000Z</time>
      </trkpt>
      <trkpt lat="47.19517" lon="-1.57119">
        <ele>59</ele>
        <time>2021-07-16T10:26:48.000Z</time>
      </trkpt>
      <trkpt lat="47.19505" lon="-1.57114">
        <ele>59</ele>
        <time>2021-07-16T10:26:50.000Z</time>
      </trkpt>
      <trkpt lat="47.19493" lon="-1.5711">
        <ele>58</ele>
        <time>2021-07-16T10:26:52.000Z</time>
      </trkpt>
      <trkpt lat="47.19483" lon="-1.57106">
        <ele>58</ele>
        <time>2021-07-16T10:26:54.000Z</time>
      </trkpt>
      <trkpt lat="47.19474" lon="-1.57106">
        <ele>57</ele>
        <time>2021-07-16T10:26:56.000Z</time>
      </trkpt>
      <trkpt lat="47.19464" lon="-1.57111">
        <ele>57</ele>
        <time>2021-07-16T10:26:58.000Z</time>
      </trkpt>
      <trkpt lat="47.19453" lon="-1.57111">
        <ele>57</ele>
        <time>2021-07-16T10:27:00.000Z</time>
      </trkpt>
      <trkpt lat="47.19442" lon="-1.57102">
        <ele>56</ele>
        <time>2021-07-16T10:27:02.000Z</time>
      </trkpt>
      <trkpt lat="47.19432" lon="-1.57096">
        <ele>56</ele>
        <time>2021-07-16T10:27:04.000Z</time>
      </trkpt>
      <trkpt lat="47.1942" lon="-1.57094">
        <ele>56</ele>
        <time>2021-07-16T10:27:06.000Z</time>
      </trkpt>
      <trkpt lat="47.19409" lon="-1.57091">
        <ele>56</ele>
        <time>2021-07-16T10:27:08.000Z</time>
      </trkpt>
      <trkpt lat="47.19397" lon="-1.57089">
        <ele>56</ele>
        <time>2021-07-16T10:27:10.000Z</time>
      </trkpt>
      <trkpt lat="47.19385" lon="-1.57086">
        <ele>56</ele>
        <time>2021-07-16T10:27:12.000Z</time>
      </trkpt>
      <trkpt lat="47.19373" lon="-1.57083">
        <ele>56</ele>
        <time>2021-07-16T10:27:14.000Z</time>
      </trkpt>
      <trkpt lat="47.19361" lon="-1.57079">
        <ele>56</ele>
        <time>2021-07-16T10:27:16.000Z</time>
      </trkpt>
      <trkpt lat="47.19349" lon="-1.57079">
        <ele>55</ele>
        <time>2021-07-16T10:27:19.000Z</time>
      </trkpt>
      <trkpt lat="47.19339" lon="-1.57084">
        <ele>55</ele>
        <time>2021-07-16T10:27:22.000Z</time>
      </trkpt>
      <trkpt lat="47.19327" lon="-1.57085">
        <ele>55</ele>
        <time>2021-07-16T10:27:24.000Z</time>
      </trkpt>
      <trkpt lat="47.19314" lon="-1.57079">
        <ele>55</ele>
        <time>2021-07-16T10:27:26.000Z</time>
      </trkpt>
      <trkpt lat="47.19304" lon="-1.57067">
        <ele>54</ele>
        <time>2021-07-16T10:27:28.000Z</time>
      </trkpt>
      <trkpt lat="47.19294" lon="-1.57062">
        <ele>54</ele>
        <time>2021-07-16T10:27:30.000Z</time>
      </trkpt>
      <trkpt lat="47.19282" lon="-1.57061">
        <ele>54</ele>
        <time>2021-07-16T10:27:32.000Z</time>
      </trkpt>
      <trkpt lat="47.19267" lon="-1.57064">
        <ele>54</ele>
        <time>2021-07-16T10:27:34.000Z</time>
      </trkpt>
      <trkpt lat="47.19253" lon="-1.57058">
        <ele>53</ele>
        <time>2021-07-16T10:27:36.000Z</time>
      </trkpt>
      <trkpt lat="47.19239" lon="-1.57049">
        <ele>53</ele>
        <time>2021-07-16T10:27:38.000Z</time>
      </trkpt>
      <trkpt lat="47.19225" lon="-1.57045">
        <ele>52</ele>
        <time>2021-07-16T10:27:40.000Z</time>
      </trkpt>
      <trkpt lat="47.19205" lon="-1.5704">
        <ele>53</ele>
        <time>2021-07-16T10:27:43.000Z</time>
      </trkpt>
      <trkpt lat="47.19192" lon="-1.57036">
        <ele>54</ele>
        <time>2021-07-16T10:27:45.000Z</time>
      </trkpt>
      <trkpt lat="47.19179" lon="-1.57031">
        <ele>55</ele>
        <time>2021-07-16T10:27:47.000Z</time>
      </trkpt>
      <trkpt lat="47.19166" lon="-1.57028">
        <ele>56</ele>
        <time>2021-07-16T10:27:49.000Z</time>
      </trkpt>
      <trkpt lat="47.19154" lon="-1.57025">
        <ele>56</ele>
        <time>2021-07-16T10:27:51.000Z</time>
      </trkpt>
      <trkpt lat="47.19142" lon="-1.57023">
        <ele>55</ele>
        <time>2021-07-16T10:27:53.000Z</time>
      </trkpt>
      <trkpt lat="47.19133" lon="-1.57021">
        <ele>55</ele>
        <time>2021-07-16T10:27:55.000Z</time>
      </trkpt>
      <trkpt lat="47.19125" lon="-1.57036">
        <ele>55</ele>
        <time>2021-07-16T10:27:58.000Z</time>
      </trkpt>
      <trkpt lat="47.19118" lon="-1.57059">
        <ele>54</ele>
        <time>2021-07-16T10:28:01.000Z</time>
      </trkpt>
      <trkpt lat="47.19114" lon="-1.57074">
        <ele>53</ele>
        <time>2021-07-16T10:28:03.000Z</time>
      </trkpt>
      <trkpt lat="47.19109" lon="-1.57091">
        <ele>53</ele>
        <time>2021-07-16T10:28:05.000Z</time>
      </trkpt>
      <trkpt lat="47.19105" lon="-1.57108">
        <ele>54</ele>
        <time>2021-07-16T10:28:07.000Z</time>
      </trkpt>
      <trkpt lat="47.19098" lon="-1.57123">
        <ele>54</ele>
        <time>2021-07-16T10:28:09.000Z</time>
      </trkpt>
      <trkpt lat="47.19091" lon="-1.57138">
        <ele>55</ele>
        <time>2021-07-16T10:28:11.000Z</time>
      </trkpt>
      <trkpt lat="47.19084" lon="-1.57155">
        <ele>55</ele>
        <time>2021-07-16T10:28:13.000Z</time>
      </trkpt>
      <trkpt lat="47.19077" lon="-1.57171">
        <ele>55</ele>
        <time>2021-07-16T10:28:15.000Z</time>
      </trkpt>
      <trkpt lat="47.19071" lon="-1.57188">
        <ele>55</ele>
        <time>2021-07-16T10:28:17.000Z</time>
      </trkpt>
      <trkpt lat="47.19064" lon="-1.57204">
        <ele>54</ele>
        <time>2021-07-16T10:28:19.000Z</time>
      </trkpt>
      <trkpt lat="47.19056" lon="-1.57216">
        <ele>55</ele>
        <time>2021-07-16T10:28:21.000Z</time>
      </trkpt>
      <trkpt lat="47.19047" lon="-1.57226">
        <ele>56</ele>
        <time>2021-07-16T10:28:23.000Z</time>
      </trkpt>
      <trkpt lat="47.19037" lon="-1.57233">
        <ele>57</ele>
        <time>2021-07-16T10:28:25.000Z</time>
      </trkpt>
      <trkpt lat="47.19025" lon="-1.57239">
        <ele>57</ele>
        <time>2021-07-16T10:28:27.000Z</time>
      </trkpt>
      <trkpt lat="47.19014" lon="-1.57246">
        <ele>57</ele>
        <time>2021-07-16T10:28:29.000Z</time>
      </trkpt>
      <trkpt lat="47.19004" lon="-1.57253">
        <ele>57</ele>
        <time>2021-07-16T10:28:31.000Z</time>
      </trkpt>
      <trkpt lat="47.18994" lon="-1.5726">
        <ele>57</ele>
        <time>2021-07-16T10:28:33.000Z</time>
      </trkpt>
      <trkpt lat="47.18984" lon="-1.57263">
        <ele>56</ele>
        <time>2021-07-16T10:28:35.000Z</time>
      </trkpt>
      <trkpt lat="47.18974" lon="-1.57264">
        <ele>57</ele>
        <time>2021-07-16T10:28:37.000Z</time>
      </trkpt>
      <trkpt lat="47.18963" lon="-1.57266">
        <ele>57</ele>
        <time>2021-07-16T10:28:39.000Z</time>
      </trkpt>
      <trkpt lat="47.18952" lon="-1.57265">
        <ele>57</ele>
        <time>2021-07-16T10:28:41.000Z</time>
      </trkpt>
      <trkpt lat="47.18941" lon="-1.57266">
        <ele>57</ele>
        <time>2021-07-16T10:28:43.000Z</time>
      </trkpt>
      <trkpt lat="47.1893" lon="-1.57266">
        <ele>58</ele>
        <time>2021-07-16T10:28:45.000Z</time>
      </trkpt>
      <trkpt lat="47.18919" lon="-1.57267">
        <ele>58</ele>
        <time>2021-07-16T10:28:47.000Z</time>
      </trkpt>
      <trkpt lat="47.18909" lon="-1.5727">
        <ele>58</ele>
        <time>2021-07-16T10:28:49.000Z</time>
      </trkpt>
      <trkpt lat="47.18897" lon="-1.57273">
        <ele>59</ele>
        <time>2021-07-16T10:28:51.000Z</time>
      </trkpt>
      <trkpt lat="47.18886" lon="-1.57274">
        <ele>59</ele>
        <time>2021-07-16T10:28:53.000Z</time>
      </trkpt>
      <trkpt lat="47.18876" lon="-1.57277">
        <ele>59</ele>
        <time>2021-07-16T10:28:55.000Z</time>
      </trkpt>
      <trkpt lat="47.18866" lon="-1.5728">
        <ele>59</ele>
        <time>2021-07-16T10:28:57.000Z</time>
      </trkpt>
      <trkpt lat="47.18856" lon="-1.57285">
        <ele>59</ele>
        <time>2021-07-16T10:28:59.000Z</time>
      </trkpt>
      <trkpt lat="47.18847" lon="-1.57293">
        <ele>60</ele>
        <time>2021-07-16T10:29:01.000Z</time>
      </trkpt>
      <trkpt lat="47.18839" lon="-1.57306">
        <ele>60</ele>
        <time>2021-07-16T10:29:03.000Z</time>
      </trkpt>
      <trkpt lat="47.18832" lon="-1.57322">
        <ele>60</ele>
        <time>2021-07-16T10:29:05.000Z</time>
      </trkpt>
      <trkpt lat="47.18827" lon="-1.57339">
        <ele>60</ele>
        <time>2021-07-16T10:29:07.000Z</time>
      </trkpt>
      <trkpt lat="47.18822" lon="-1.57357">
        <ele>60</ele>
        <time>2021-07-16T10:29:09.000Z</time>
      </trkpt>
      <trkpt lat="47.18816" lon="-1.57376">
        <ele>60</ele>
        <time>2021-07-16T10:29:11.000Z</time>
      </trkpt>
      <trkpt lat="47.18808" lon="-1.57393">
        <ele>59</ele>
        <time>2021-07-16T10:29:13.000Z</time>
      </trkpt>
      <trkpt lat="47.18796" lon="-1.57406">
        <ele>59</ele>
        <time>2021-07-16T10:29:15.000Z</time>
      </trkpt>
      <trkpt lat="47.18781" lon="-1.57415">
        <ele>58</ele>
        <time>2021-07-16T10:29:17.000Z</time>
      </trkpt>
      <trkpt lat="47.18766" lon="-1.57423">
        <ele>57</ele>
        <time>2021-07-16T10:29:19.000Z</time>
      </trkpt>
      <trkpt lat="47.18752" lon="-1.57431">
        <ele>57</ele>
        <time>2021-07-16T10:29:21.000Z</time>
      </trkpt>
      <trkpt lat="47.18738" lon="-1.57439">
        <ele>57</ele>
        <time>2021-07-16T10:29:23.000Z</time>
      </trkpt>
      <trkpt lat="47.18724" lon="-1.57446">
        <ele>57</ele>
        <time>2021-07-16T10:29:25.000Z</time>
      </trkpt>
      <trkpt lat="47.1871" lon="-1.57452">
        <ele>58</ele>
        <time>2021-07-16T10:29:27.000Z</time>
      </trkpt>
      <trkpt lat="47.18698" lon="-1.57459">
        <ele>58</ele>
        <time>2021-07-16T10:29:29.000Z</time>
      </trkpt>
      <trkpt lat="47.18686" lon="-1.57465">
        <ele>58</ele>
        <time>2021-07-16T10:29:31.000Z</time>
      </trkpt>
      <trkpt lat="47.18675" lon="-1.57473">
        <ele>58</ele>
        <time>2021-07-16T10:29:33.000Z</time>
      </trkpt>
      <trkpt lat="47.18667" lon="-1.57481">
        <ele>59</ele>
        <time>2021-07-16T10:29:35.000Z</time>
      </trkpt>
      <trkpt lat="47.18659" lon="-1.57491">
        <ele>59</ele>
        <time>2021-07-16T10:29:37.000Z</time>
      </trkpt>
      <trkpt lat="47.18651" lon="-1.57503">
        <ele>60</ele>
        <time>2021-07-16T10:29:39.000Z</time>
      </trkpt>
      <trkpt lat="47.18644" lon="-1.57515">
        <ele>60</ele>
        <time>2021-07-16T10:29:41.000Z</time>
      </trkpt>
      <trkpt lat="47.18638" lon="-1.57529">
        <ele>61</ele>
        <time>2021-07-16T10:29:43.000Z</time>
      </trkpt>
      <trkpt lat="47.18634" lon="-1.57544">
        <ele>61</ele>
        <time>2021-07-16T10:29:45.000Z</time>
      </trkpt>
      <trkpt lat="47.18629" lon="-1.57559">
        <ele>61</ele>
        <time>2021-07-16T10:29:47.000Z</time>
      </trkpt>
      <trkpt lat="47.18626" lon="-1.57574">
        <ele>62</ele>
        <time>2021-07-16T10:29:49.000Z</time>
      </trkpt>
      <trkpt lat="47.18624" lon="-1.57588">
        <ele>62</ele>
        <time>2021-07-16T10:29:51.000Z</time>
      </trkpt>
      <trkpt lat="47.18624" lon="-1.57603">
        <ele>62</ele>
        <time>2021-07-16T10:29:53.000Z</time>
      </trkpt>
      <trkpt lat="47.18625" lon="-1.57617">
        <ele>62</ele>
        <time>2021-07-16T10:29:55.000Z</time>
      </trkpt>
      <trkpt lat="47.18627" lon="-1.57633">
        <ele>62</ele>
        <time>2021-07-16T10:29:57.000Z</time>
      </trkpt>
      <trkpt lat="47.18628" lon="-1.57649">
        <ele>63</ele>
        <time>2021-07-16T10:29:59.000Z</time>
      </trkpt>
      <trkpt lat="47.18629" lon="-1.57665">
        <ele>63</ele>
        <time>2021-07-16T10:30:01.000Z</time>
      </trkpt>
      <trkpt lat="47.18631" lon="-1.5768">
        <ele>63</ele>
        <time>2021-07-16T10:30:03.000Z</time>
      </trkpt>
      <trkpt lat="47.18632" lon="-1.57695">
        <ele>63</ele>
        <time>2021-07-16T10:30:05.000Z</time>
      </trkpt>
      <trkpt lat="47.18633" lon="-1.5771">
        <ele>63</ele>
        <time>2021-07-16T10:30:07.000Z</time>
      </trkpt>
      <trkpt lat="47.18634" lon="-1.57725">
        <ele>64</ele>
        <time>2021-07-16T10:30:09.000Z</time>
      </trkpt>
      <trkpt lat="47.18634" lon="-1.5774">
        <ele>64</ele>
        <time>2021-07-16T10:30:11.000Z</time>
      </trkpt>
      <trkpt lat="47.18635" lon="-1.57754">
        <ele>64</ele>
        <time>2021-07-16T10:30:13.000Z</time>
      </trkpt>
      <trkpt lat="47.18636" lon="-1.57769">
        <ele>64</ele>
        <time>2021-07-16T10:30:15.000Z</time>
      </trkpt>
      <trkpt lat="47.18637" lon="-1.57784">
        <ele>64</ele>
        <time>2021-07-16T10:30:17.000Z</time>
      </trkpt>
      <trkpt lat="47.18638" lon="-1.578">
        <ele>64</ele>
        <time>2021-07-16T10:30:19.000Z</time>
      </trkpt>
      <trkpt lat="47.18639" lon="-1.57816">
        <ele>65</ele>
        <time>2021-07-16T10:30:21.000Z</time>
      </trkpt>
      <trkpt lat="47.1864" lon="-1.57832">
        <ele>64</ele>
        <time>2021-07-16T10:30:23.000Z</time>
      </trkpt>
      <trkpt lat="47.1864" lon="-1.57847">
        <ele>64</ele>
        <time>2021-07-16T10:30:25.000Z</time>
      </trkpt>
      <trkpt lat="47.1864" lon="-1.57864">
        <ele>64</ele>
        <time>2021-07-16T10:30:27.000Z</time>
      </trkpt>
      <trkpt lat="47.18637" lon="-1.57879">
        <ele>64</ele>
        <time>2021-07-16T10:30:29.000Z</time>
      </trkpt>
      <trkpt lat="47.18636" lon="-1.57896">
        <ele>64</ele>
        <time>2021-07-16T10:30:31.000Z</time>
      </trkpt>
      <trkpt lat="47.18633" lon="-1.57911">
        <ele>63</ele>
        <time>2021-07-16T10:30:33.000Z</time>
      </trkpt>
      <trkpt lat="47.1863" lon="-1.57927">
        <ele>63</ele>
        <time>2021-07-16T10:30:35.000Z</time>
      </trkpt>
      <trkpt lat="47.18627" lon="-1.57943">
        <ele>63</ele>
        <time>2021-07-16T10:30:37.000Z</time>
      </trkpt>
      <trkpt lat="47.18624" lon="-1.57959">
        <ele>63</ele>
        <time>2021-07-16T10:30:39.000Z</time>
      </trkpt>
      <trkpt lat="47.18621" lon="-1.57976">
        <ele>64</ele>
        <time>2021-07-16T10:30:41.000Z</time>
      </trkpt>
      <trkpt lat="47.18619" lon="-1.57992">
        <ele>64</ele>
        <time>2021-07-16T10:30:43.000Z</time>
      </trkpt>
      <trkpt lat="47.18617" lon="-1.58007">
        <ele>64</ele>
        <time>2021-07-16T10:30:45.000Z</time>
      </trkpt>
      <trkpt lat="47.18615" lon="-1.58023">
        <ele>64</ele>
        <time>2021-07-16T10:30:47.000Z</time>
      </trkpt>
      <trkpt lat="47.18611" lon="-1.58039">
        <ele>64</ele>
        <time>2021-07-16T10:30:49.000Z</time>
      </trkpt>
      <trkpt lat="47.18609" lon="-1.58054">
        <ele>64</ele>
        <time>2021-07-16T10:30:51.000Z</time>
      </trkpt>
      <trkpt lat="47.18607" lon="-1.58068">
        <ele>64</ele>
        <time>2021-07-16T10:30:53.000Z</time>
      </trkpt>
      <trkpt lat="47.18606" lon="-1.58083">
        <ele>64</ele>
        <time>2021-07-16T10:30:55.000Z</time>
      </trkpt>
      <trkpt lat="47.18596" lon="-1.58086">
        <ele>64</ele>
        <time>2021-07-16T10:30:57.000Z</time>
      </trkpt>
      <trkpt lat="47.18586" lon="-1.58078">
        <ele>64</ele>
        <time>2021-07-16T10:30:59.000Z</time>
      </trkpt>
      <trkpt lat="47.18575" lon="-1.58075">
        <ele>64</ele>
        <time>2021-07-16T10:31:01.000Z</time>
      </trkpt>
      <trkpt lat="47.18565" lon="-1.58071">
        <ele>64</ele>
        <time>2021-07-16T10:31:03.000Z</time>
      </trkpt>
      <trkpt lat="47.18553" lon="-1.58068">
        <ele>64</ele>
        <time>2021-07-16T10:31:05.000Z</time>
      </trkpt>
      <trkpt lat="47.18543" lon="-1.58063">
        <ele>65</ele>
        <time>2021-07-16T10:31:07.000Z</time>
      </trkpt>
      <trkpt lat="47.18532" lon="-1.5806">
        <ele>65</ele>
        <time>2021-07-16T10:31:09.000Z</time>
      </trkpt>
      <trkpt lat="47.1852" lon="-1.58056">
        <ele>65</ele>
        <time>2021-07-16T10:31:11.000Z</time>
      </trkpt>
      <trkpt lat="47.18509" lon="-1.58052">
        <ele>65</ele>
        <time>2021-07-16T10:31:13.000Z</time>
      </trkpt>
      <trkpt lat="47.18498" lon="-1.58049">
        <ele>65</ele>
        <time>2021-07-16T10:31:15.000Z</time>
      </trkpt>
      <trkpt lat="47.18487" lon="-1.58045">
        <ele>66</ele>
        <time>2021-07-16T10:31:17.000Z</time>
      </trkpt>
      <trkpt lat="47.18476" lon="-1.58042">
        <ele>66</ele>
        <time>2021-07-16T10:31:19.000Z</time>
      </trkpt>
      <trkpt lat="47.18465" lon="-1.58038">
        <ele>66</ele>
        <time>2021-07-16T10:31:21.000Z</time>
      </trkpt>
      <trkpt lat="47.18454" lon="-1.58034">
        <ele>67</ele>
        <time>2021-07-16T10:31:23.000Z</time>
      </trkpt>
      <trkpt lat="47.18443" lon="-1.58031">
        <ele>67</ele>
        <time>2021-07-16T10:31:25.000Z</time>
      </trkpt>
      <trkpt lat="47.18432" lon="-1.58027">
        <ele>67</ele>
        <time>2021-07-16T10:31:27.000Z</time>
      </trkpt>
      <trkpt lat="47.18422" lon="-1.58022">
        <ele>67</ele>
        <time>2021-07-16T10:31:29.000Z</time>
      </trkpt>
      <trkpt lat="47.18411" lon="-1.58019">
        <ele>68</ele>
        <time>2021-07-16T10:31:31.000Z</time>
      </trkpt>
      <trkpt lat="47.184" lon="-1.58015">
        <ele>68</ele>
        <time>2021-07-16T10:31:33.000Z</time>
      </trkpt>
      <trkpt lat="47.1839" lon="-1.58011">
        <ele>68</ele>
        <time>2021-07-16T10:31:35.000Z</time>
      </trkpt>
      <trkpt lat="47.1838" lon="-1.58008">
        <ele>68</ele>
        <time>2021-07-16T10:31:37.000Z</time>
      </trkpt>
      <trkpt lat="47.18369" lon="-1.58005">
        <ele>69</ele>
        <time>2021-07-16T10:31:39.000Z</time>
      </trkpt>
      <trkpt lat="47.18359" lon="-1.58003">
        <ele>68</ele>
        <time>2021-07-16T10:31:41.000Z</time>
      </trkpt>
      <trkpt lat="47.18348" lon="-1.58001">
        <ele>69</ele>
        <time>2021-07-16T10:31:43.000Z</time>
      </trkpt>
      <trkpt lat="47.18338" lon="-1.58">
        <ele>69</ele>
        <time>2021-07-16T10:31:45.000Z</time>
      </trkpt>
      <trkpt lat="47.18328" lon="-1.58">
        <ele>69</ele>
        <time>2021-07-16T10:31:47.000Z</time>
      </trkpt>
      <trkpt lat="47.18317" lon="-1.57998">
        <ele>70</ele>
        <time>2021-07-16T10:31:49.000Z</time>
      </trkpt>
      <trkpt lat="47.18306" lon="-1.57998">
        <ele>70</ele>
        <time>2021-07-16T10:31:51.000Z</time>
      </trkpt>
      <trkpt lat="47.18296" lon="-1.57996">
        <ele>70</ele>
        <time>2021-07-16T10:31:53.000Z</time>
      </trkpt>
      <trkpt lat="47.18285" lon="-1.57996">
        <ele>70</ele>
        <time>2021-07-16T10:31:55.000Z</time>
      </trkpt>
      <trkpt lat="47.18275" lon="-1.57994">
        <ele>70</ele>
        <time>2021-07-16T10:31:57.000Z</time>
      </trkpt>
      <trkpt lat="47.18265" lon="-1.57991">
        <ele>70</ele>
        <time>2021-07-16T10:31:59.000Z</time>
      </trkpt>
      <trkpt lat="47.18255" lon="-1.5799">
        <ele>70</ele>
        <time>2021-07-16T10:32:01.000Z</time>
      </trkpt>
      <trkpt lat="47.18244" lon="-1.57989">
        <ele>70</ele>
        <time>2021-07-16T10:32:03.000Z</time>
      </trkpt>
      <trkpt lat="47.18234" lon="-1.57988">
        <ele>71</ele>
        <time>2021-07-16T10:32:05.000Z</time>
      </trkpt>
      <trkpt lat="47.18225" lon="-1.57989">
        <ele>71</ele>
        <time>2021-07-16T10:32:07.000Z</time>
      </trkpt>
      <trkpt lat="47.18217" lon="-1.58004">
        <ele>71</ele>
        <time>2021-07-16T10:32:10.000Z</time>
      </trkpt>
      <trkpt lat="47.18217" lon="-1.58024">
        <ele>71</ele>
        <time>2021-07-16T10:32:13.000Z</time>
      </trkpt>
      <trkpt lat="47.18218" lon="-1.58038">
        <ele>71</ele>
        <time>2021-07-16T10:32:15.000Z</time>
      </trkpt>
      <trkpt lat="47.18219" lon="-1.58053">
        <ele>71</ele>
        <time>2021-07-16T10:32:17.000Z</time>
      </trkpt>
      <trkpt lat="47.18221" lon="-1.58069">
        <ele>70</ele>
        <time>2021-07-16T10:32:19.000Z</time>
      </trkpt>
      <trkpt lat="47.18222" lon="-1.58083">
        <ele>70</ele>
        <time>2021-07-16T10:32:21.000Z</time>
      </trkpt>
      <trkpt lat="47.18223" lon="-1.58099">
        <ele>70</ele>
        <time>2021-07-16T10:32:23.000Z</time>
      </trkpt>
      <trkpt lat="47.18225" lon="-1.58116">
        <ele>70</ele>
        <time>2021-07-16T10:32:25.000Z</time>
      </trkpt>
      <trkpt lat="47.18226" lon="-1.58133">
        <ele>69</ele>
        <time>2021-07-16T10:32:27.000Z</time>
      </trkpt>
      <trkpt lat="47.18227" lon="-1.58152">
        <ele>69</ele>
        <time>2021-07-16T10:32:29.000Z</time>
      </trkpt>
      <trkpt lat="47.18227" lon="-1.5817">
        <ele>68</ele>
        <time>2021-07-16T10:32:31.000Z</time>
      </trkpt>
      <trkpt lat="47.18225" lon="-1.58189">
        <ele>68</ele>
        <time>2021-07-16T10:32:33.000Z</time>
      </trkpt>
      <trkpt lat="47.1822" lon="-1.58208">
        <ele>67</ele>
        <time>2021-07-16T10:32:35.000Z</time>
      </trkpt>
      <trkpt lat="47.18215" lon="-1.58225">
        <ele>67</ele>
        <time>2021-07-16T10:32:37.000Z</time>
      </trkpt>
      <trkpt lat="47.18208" lon="-1.58241">
        <ele>67</ele>
        <time>2021-07-16T10:32:39.000Z</time>
      </trkpt>
      <trkpt lat="47.18201" lon="-1.58256">
        <ele>68</ele>
        <time>2021-07-16T10:32:41.000Z</time>
      </trkpt>
      <trkpt lat="47.18194" lon="-1.58269">
        <ele>68</ele>
        <time>2021-07-16T10:32:43.000Z</time>
      </trkpt>
      <trkpt lat="47.18188" lon="-1.58282">
        <ele>68</ele>
        <time>2021-07-16T10:32:45.000Z</time>
      </trkpt>
      <trkpt lat="47.18181" lon="-1.58295">
        <ele>68</ele>
        <time>2021-07-16T10:32:47.000Z</time>
      </trkpt>
      <trkpt lat="47.18174" lon="-1.58309">
        <ele>68</ele>
        <time>2021-07-16T10:32:49.000Z</time>
      </trkpt>
      <trkpt lat="47.18168" lon="-1.58323">
        <ele>68</ele>
        <time>2021-07-16T10:32:51.000Z</time>
      </trkpt>
      <trkpt lat="47.18162" lon="-1.58338">
        <ele>68</ele>
        <time>2021-07-16T10:32:53.000Z</time>
      </trkpt>
      <trkpt lat="47.18156" lon="-1.58353">
        <ele>68</ele>
        <time>2021-07-16T10:32:55.000Z</time>
      </trkpt>
      <trkpt lat="47.1815" lon="-1.58369">
        <ele>68</ele>
        <time>2021-07-16T10:32:57.000Z</time>
      </trkpt>
      <trkpt lat="47.18145" lon="-1.58385">
        <ele>68</ele>
        <time>2021-07-16T10:32:59.000Z</time>
      </trkpt>
      <trkpt lat="47.1814" lon="-1.58399">
        <ele>68</ele>
        <time>2021-07-16T10:33:01.000Z</time>
      </trkpt>
      <trkpt lat="47.18135" lon="-1.58413">
        <ele>68</ele>
        <time>2021-07-16T10:33:03.000Z</time>
      </trkpt>
      <trkpt lat="47.18132" lon="-1.58429">
        <ele>68</ele>
        <time>2021-07-16T10:33:05.000Z</time>
      </trkpt>
      <trkpt lat="47.18127" lon="-1.58442">
        <ele>68</ele>
        <time>2021-07-16T10:33:07.000Z</time>
      </trkpt>
      <trkpt lat="47.18119" lon="-1.58453">
        <ele>68</ele>
        <time>2021-07-16T10:33:09.000Z</time>
      </trkpt>
      <trkpt lat="47.18116" lon="-1.58468">
        <ele>68</ele>
        <time>2021-07-16T10:33:11.000Z</time>
      </trkpt>
      <trkpt lat="47.18114" lon="-1.58484">
        <ele>68</ele>
        <time>2021-07-16T10:33:13.000Z</time>
      </trkpt>
      <trkpt lat="47.18112" lon="-1.58501">
        <ele>68</ele>
        <time>2021-07-16T10:33:15.000Z</time>
      </trkpt>
      <trkpt lat="47.18111" lon="-1.58517">
        <ele>68</ele>
        <time>2021-07-16T10:33:17.000Z</time>
      </trkpt>
      <trkpt lat="47.1811" lon="-1.58532">
        <ele>68</ele>
        <time>2021-07-16T10:33:19.000Z</time>
      </trkpt>
      <trkpt lat="47.18113" lon="-1.58546">
        <ele>68</ele>
        <time>2021-07-16T10:33:21.000Z</time>
      </trkpt>
      <trkpt lat="47.18121" lon="-1.58555">
        <ele>68</ele>
        <time>2021-07-16T10:33:23.000Z</time>
      </trkpt>
      <trkpt lat="47.18132" lon="-1.58559">
        <ele>68</ele>
        <time>2021-07-16T10:33:25.000Z</time>
      </trkpt>
      <trkpt lat="47.18142" lon="-1.58565">
        <ele>68</ele>
        <time>2021-07-16T10:33:27.000Z</time>
      </trkpt>
      <trkpt lat="47.18153" lon="-1.5857">
        <ele>69</ele>
        <time>2021-07-16T10:33:29.000Z</time>
      </trkpt>
      <trkpt lat="47.18164" lon="-1.58575">
        <ele>70</ele>
        <time>2021-07-16T10:33:31.000Z</time>
      </trkpt>
      <trkpt lat="47.18174" lon="-1.5858">
        <ele>70</ele>
        <time>2021-07-16T10:33:33.000Z</time>
      </trkpt>
      <trkpt lat="47.18185" lon="-1.58584">
        <ele>71</ele>
        <time>2021-07-16T10:33:35.000Z</time>
      </trkpt>
      <trkpt lat="47.18196" lon="-1.58588">
        <ele>71</ele>
        <time>2021-07-16T10:33:37.000Z</time>
      </trkpt>
      <trkpt lat="47.18206" lon="-1.58593">
        <ele>71</ele>
        <time>2021-07-16T10:33:39.000Z</time>
      </trkpt>
      <trkpt lat="47.18217" lon="-1.58597">
        <ele>72</ele>
        <time>2021-07-16T10:33:41.000Z</time>
      </trkpt>
      <trkpt lat="47.18226" lon="-1.58602">
        <ele>72</ele>
        <time>2021-07-16T10:33:43.000Z</time>
      </trkpt>
      <trkpt lat="47.18237" lon="-1.58609">
        <ele>72</ele>
        <time>2021-07-16T10:33:45.000Z</time>
      </trkpt>
      <trkpt lat="47.18246" lon="-1.58617">
        <ele>72</ele>
        <time>2021-07-16T10:33:47.000Z</time>
      </trkpt>
      <trkpt lat="47.18248" lon="-1.58635">
        <ele>72</ele>
        <time>2021-07-16T10:33:49.000Z</time>
      </trkpt>
      <trkpt lat="47.18246" lon="-1.58653">
        <ele>72</ele>
        <time>2021-07-16T10:33:51.000Z</time>
      </trkpt>
      <trkpt lat="47.18244" lon="-1.5867">
        <ele>72</ele>
        <time>2021-07-16T10:33:53.000Z</time>
      </trkpt>
      <trkpt lat="47.18244" lon="-1.58689">
        <ele>72</ele>
        <time>2021-07-16T10:33:55.000Z</time>
      </trkpt>
      <trkpt lat="47.18245" lon="-1.58706">
        <ele>71</ele>
        <time>2021-07-16T10:33:57.000Z</time>
      </trkpt>
      <trkpt lat="47.18245" lon="-1.58723">
        <ele>70</ele>
        <time>2021-07-16T10:33:59.000Z</time>
      </trkpt>
      <trkpt lat="47.18245" lon="-1.5874">
        <ele>70</ele>
        <time>2021-07-16T10:34:01.000Z</time>
      </trkpt>
      <trkpt lat="47.18246" lon="-1.58757">
        <ele>70</ele>
        <time>2021-07-16T10:34:03.000Z</time>
      </trkpt>
      <trkpt lat="47.18246" lon="-1.58773">
        <ele>70</ele>
        <time>2021-07-16T10:34:05.000Z</time>
      </trkpt>
      <trkpt lat="47.18248" lon="-1.58788">
        <ele>69</ele>
        <time>2021-07-16T10:34:07.000Z</time>
      </trkpt>
      <trkpt lat="47.18254" lon="-1.58803">
        <ele>69</ele>
        <time>2021-07-16T10:34:09.000Z</time>
      </trkpt>
      <trkpt lat="47.1826" lon="-1.58817">
        <ele>70</ele>
        <time>2021-07-16T10:34:11.000Z</time>
      </trkpt>
      <trkpt lat="47.18267" lon="-1.5883">
        <ele>69</ele>
        <time>2021-07-16T10:34:13.000Z</time>
      </trkpt>
      <trkpt lat="47.18273" lon="-1.58844">
        <ele>70</ele>
        <time>2021-07-16T10:34:15.000Z</time>
      </trkpt>
      <trkpt lat="47.18277" lon="-1.58858">
        <ele>69</ele>
        <time>2021-07-16T10:34:17.000Z</time>
      </trkpt>
      <trkpt lat="47.18279" lon="-1.58871">
        <ele>70</ele>
        <time>2021-07-16T10:34:19.000Z</time>
      </trkpt>
      <trkpt lat="47.18285" lon="-1.58886">
        <ele>69</ele>
        <time>2021-07-16T10:34:22.000Z</time>
      </trkpt>
      <trkpt lat="47.18296" lon="-1.58889">
        <ele>70</ele>
        <time>2021-07-16T10:34:25.000Z</time>
      </trkpt>
      <trkpt lat="47.18307" lon="-1.58887">
        <ele>70</ele>
        <time>2021-07-16T10:34:28.000Z</time>
      </trkpt>
      <trkpt lat="47.18316" lon="-1.58892">
        <ele>70</ele>
        <time>2021-07-16T10:34:32.000Z</time>
      </trkpt>
      <trkpt lat="47.18328" lon="-1.58913">
        <ele>102</ele>
        <time>2021-07-16T11:30:47.980Z</time>
      </trkpt>
      <trkpt lat="47.18315" lon="-1.58895">
        <ele>76</ele>
        <time>2021-07-16T11:30:49.017Z</time>
      </trkpt>
      <trkpt lat="47.18321" lon="-1.58907">
        <ele>72</ele>
        <time>2021-07-16T11:37:38.000Z</time>
      </trkpt>
      <trkpt lat="47.18323" lon="-1.58923">
        <ele>72</ele>
        <time>2021-07-16T11:37:41.000Z</time>
      </trkpt>
      <trkpt lat="47.18326" lon="-1.58938">
        <ele>72</ele>
        <time>2021-07-16T11:37:44.000Z</time>
      </trkpt>
      <trkpt lat="47.18333" lon="-1.58951">
        <ele>72</ele>
        <time>2021-07-16T11:37:47.000Z</time>
      </trkpt>
      <trkpt lat="47.18343" lon="-1.58964">
        <ele>71</ele>
        <time>2021-07-16T11:37:50.000Z</time>
      </trkpt>
      <trkpt lat="47.18353" lon="-1.58979">
        <ele>72</ele>
        <time>2021-07-16T11:37:53.000Z</time>
      </trkpt>
      <trkpt lat="47.18357" lon="-1.58993">
        <ele>72</ele>
        <time>2021-07-16T11:37:56.000Z</time>
      </trkpt>
      <trkpt lat="47.18352" lon="-1.59005">
        <ele>71</ele>
        <time>2021-07-16T11:37:58.000Z</time>
      </trkpt>
      <trkpt lat="47.18344" lon="-1.59017">
        <ele>71</ele>
        <time>2021-07-16T11:38:00.000Z</time>
      </trkpt>
      <trkpt lat="47.18337" lon="-1.59031">
        <ele>71</ele>
        <time>2021-07-16T11:38:02.000Z</time>
      </trkpt>
      <trkpt lat="47.18331" lon="-1.59044">
        <ele>71</ele>
        <time>2021-07-16T11:38:04.000Z</time>
      </trkpt>
      <trkpt lat="47.18327" lon="-1.59059">
        <ele>71</ele>
        <time>2021-07-16T11:38:06.000Z</time>
      </trkpt>
      <trkpt lat="47.18321" lon="-1.59074">
        <ele>71</ele>
        <time>2021-07-16T11:38:08.000Z</time>
      </trkpt>
      <trkpt lat="47.18316" lon="-1.59088">
        <ele>71</ele>
        <time>2021-07-16T11:38:10.000Z</time>
      </trkpt>
      <trkpt lat="47.18311" lon="-1.59104">
        <ele>71</ele>
        <time>2021-07-16T11:38:12.000Z</time>
      </trkpt>
      <trkpt lat="47.18305" lon="-1.59119">
        <ele>71</ele>
        <time>2021-07-16T11:38:14.000Z</time>
      </trkpt>
      <trkpt lat="47.18299" lon="-1.59134">
        <ele>71</ele>
        <time>2021-07-16T11:38:16.000Z</time>
      </trkpt>
      <trkpt lat="47.18293" lon="-1.5915">
        <ele>71</ele>
        <time>2021-07-16T11:38:18.000Z</time>
      </trkpt>
      <trkpt lat="47.18288" lon="-1.59165">
        <ele>71</ele>
        <time>2021-07-16T11:38:20.000Z</time>
      </trkpt>
      <trkpt lat="47.18284" lon="-1.5918">
        <ele>71</ele>
        <time>2021-07-16T11:38:22.000Z</time>
      </trkpt>
      <trkpt lat="47.1828" lon="-1.59193">
        <ele>71</ele>
        <time>2021-07-16T11:38:24.000Z</time>
      </trkpt>
      <trkpt lat="47.18276" lon="-1.59208">
        <ele>71</ele>
        <time>2021-07-16T11:38:26.000Z</time>
      </trkpt>
      <trkpt lat="47.18267" lon="-1.59219">
        <ele>71</ele>
        <time>2021-07-16T11:38:28.000Z</time>
      </trkpt>
      <trkpt lat="47.18257" lon="-1.59227">
        <ele>71</ele>
        <time>2021-07-16T11:38:30.000Z</time>
      </trkpt>
      <trkpt lat="47.18247" lon="-1.59237">
        <ele>71</ele>
        <time>2021-07-16T11:38:32.000Z</time>
      </trkpt>
      <trkpt lat="47.18238" lon="-1.5925">
        <ele>71</ele>
        <time>2021-07-16T11:38:34.000Z</time>
      </trkpt>
      <trkpt lat="47.18228" lon="-1.5926">
        <ele>71</ele>
        <time>2021-07-16T11:38:36.000Z</time>
      </trkpt>
      <trkpt lat="47.18217" lon="-1.5927">
        <ele>72</ele>
        <time>2021-07-16T11:38:38.000Z</time>
      </trkpt>
      <trkpt lat="47.18207" lon="-1.5928">
        <ele>72</ele>
        <time>2021-07-16T11:38:40.000Z</time>
      </trkpt>
      <trkpt lat="47.18196" lon="-1.5929">
        <ele>72</ele>
        <time>2021-07-16T11:38:42.000Z</time>
      </trkpt>
      <trkpt lat="47.18186" lon="-1.593">
        <ele>72</ele>
        <time>2021-07-16T11:38:44.000Z</time>
      </trkpt>
      <trkpt lat="47.18176" lon="-1.5931">
        <ele>72</ele>
        <time>2021-07-16T11:38:46.000Z</time>
      </trkpt>
      <trkpt lat="47.18167" lon="-1.59322">
        <ele>72</ele>
        <time>2021-07-16T11:38:48.000Z</time>
      </trkpt>
      <trkpt lat="47.18157" lon="-1.59332">
        <ele>72</ele>
        <time>2021-07-16T11:38:50.000Z</time>
      </trkpt>
      <trkpt lat="47.18146" lon="-1.59342">
        <ele>72</ele>
        <time>2021-07-16T11:38:52.000Z</time>
      </trkpt>
      <trkpt lat="47.18136" lon="-1.59353">
        <ele>72</ele>
        <time>2021-07-16T11:38:54.000Z</time>
      </trkpt>
      <trkpt lat="47.18125" lon="-1.59363">
        <ele>72</ele>
        <time>2021-07-16T11:38:56.000Z</time>
      </trkpt>
      <trkpt lat="47.18115" lon="-1.59373">
        <ele>72</ele>
        <time>2021-07-16T11:38:58.000Z</time>
      </trkpt>
      <trkpt lat="47.18103" lon="-1.59384">
        <ele>72</ele>
        <time>2021-07-16T11:39:00.000Z</time>
      </trkpt>
      <trkpt lat="47.18093" lon="-1.59394">
        <ele>72</ele>
        <time>2021-07-16T11:39:02.000Z</time>
      </trkpt>
      <trkpt lat="47.18082" lon="-1.59404">
        <ele>72</ele>
        <time>2021-07-16T11:39:04.000Z</time>
      </trkpt>
      <trkpt lat="47.18072" lon="-1.59416">
        <ele>72</ele>
        <time>2021-07-16T11:39:06.000Z</time>
      </trkpt>
      <trkpt lat="47.18063" lon="-1.5943">
        <ele>72</ele>
        <time>2021-07-16T11:39:08.000Z</time>
      </trkpt>
      <trkpt lat="47.18054" lon="-1.59442">
        <ele>72</ele>
        <time>2021-07-16T11:39:10.000Z</time>
      </trkpt>
      <trkpt lat="47.18046" lon="-1.59456">
        <ele>72</ele>
        <time>2021-07-16T11:39:12.000Z</time>
      </trkpt>
      <trkpt lat="47.1804" lon="-1.59472">
        <ele>72</ele>
        <time>2021-07-16T11:39:14.000Z</time>
      </trkpt>
      <trkpt lat="47.18034" lon="-1.59491">
        <ele>72</ele>
        <time>2021-07-16T11:39:16.000Z</time>
      </trkpt>
      <trkpt lat="47.1803" lon="-1.59508">
        <ele>72</ele>
        <time>2021-07-16T11:39:18.000Z</time>
      </trkpt>
      <trkpt lat="47.18025" lon="-1.59526">
        <ele>72</ele>
        <time>2021-07-16T11:39:20.000Z</time>
      </trkpt>
      <trkpt lat="47.18021" lon="-1.59544">
        <ele>71</ele>
        <time>2021-07-16T11:39:22.000Z</time>
      </trkpt>
      <trkpt lat="47.18016" lon="-1.59562">
        <ele>72</ele>
        <time>2021-07-16T11:39:24.000Z</time>
      </trkpt>
      <trkpt lat="47.18012" lon="-1.5958">
        <ele>72</ele>
        <time>2021-07-16T11:39:26.000Z</time>
      </trkpt>
      <trkpt lat="47.18008" lon="-1.59598">
        <ele>72</ele>
        <time>2021-07-16T11:39:28.000Z</time>
      </trkpt>
      <trkpt lat="47.18002" lon="-1.59614">
        <ele>71</ele>
        <time>2021-07-16T11:39:30.000Z</time>
      </trkpt>
      <trkpt lat="47.17997" lon="-1.59631">
        <ele>71</ele>
        <time>2021-07-16T11:39:32.000Z</time>
      </trkpt>
      <trkpt lat="47.17992" lon="-1.59649">
        <ele>71</ele>
        <time>2021-07-16T11:39:34.000Z</time>
      </trkpt>
      <trkpt lat="47.17988" lon="-1.59668">
        <ele>71</ele>
        <time>2021-07-16T11:39:36.000Z</time>
      </trkpt>
      <trkpt lat="47.17984" lon="-1.59687">
        <ele>71</ele>
        <time>2021-07-16T11:39:38.000Z</time>
      </trkpt>
      <trkpt lat="47.17979" lon="-1.59706">
        <ele>70</ele>
        <time>2021-07-16T11:39:40.000Z</time>
      </trkpt>
      <trkpt lat="47.17973" lon="-1.59725">
        <ele>69</ele>
        <time>2021-07-16T11:39:42.000Z</time>
      </trkpt>
      <trkpt lat="47.17967" lon="-1.59744">
        <ele>69</ele>
        <time>2021-07-16T11:39:44.000Z</time>
      </trkpt>
      <trkpt lat="47.17961" lon="-1.59764">
        <ele>68</ele>
        <time>2021-07-16T11:39:46.000Z</time>
      </trkpt>
      <trkpt lat="47.17956" lon="-1.59786">
        <ele>67</ele>
        <time>2021-07-16T11:39:48.000Z</time>
      </trkpt>
      <trkpt lat="47.17952" lon="-1.59809">
        <ele>66</ele>
        <time>2021-07-16T11:39:50.000Z</time>
      </trkpt>
      <trkpt lat="47.17948" lon="-1.59834">
        <ele>65</ele>
        <time>2021-07-16T11:39:52.000Z</time>
      </trkpt>
      <trkpt lat="47.17945" lon="-1.59859">
        <ele>63</ele>
        <time>2021-07-16T11:39:54.000Z</time>
      </trkpt>
      <trkpt lat="47.17943" lon="-1.59872">
        <ele>63</ele>
        <time>2021-07-16T11:39:55.000Z</time>
      </trkpt>
      <trkpt lat="47.1794" lon="-1.59885">
        <ele>62</ele>
        <time>2021-07-16T11:39:56.000Z</time>
      </trkpt>
      <trkpt lat="47.17936" lon="-1.59898">
        <ele>61</ele>
        <time>2021-07-16T11:39:57.000Z</time>
      </trkpt>
      <trkpt lat="47.17934" lon="-1.5991">
        <ele>60</ele>
        <time>2021-07-16T11:39:58.000Z</time>
      </trkpt>
      <trkpt lat="47.17931" lon="-1.59924">
        <ele>59</ele>
        <time>2021-07-16T11:39:59.000Z</time>
      </trkpt>
      <trkpt lat="47.17927" lon="-1.59937">
        <ele>58</ele>
        <time>2021-07-16T11:40:00.000Z</time>
      </trkpt>
      <trkpt lat="47.17919" lon="-1.59944">
        <ele>58</ele>
        <time>2021-07-16T11:40:01.000Z</time>
      </trkpt>
      <trkpt lat="47.17908" lon="-1.59947">
        <ele>58</ele>
        <time>2021-07-16T11:40:02.000Z</time>
      </trkpt>
      <trkpt lat="47.17899" lon="-1.59947">
        <ele>59</ele>
        <time>2021-07-16T11:40:03.000Z</time>
      </trkpt>
      <trkpt lat="47.17885" lon="-1.59955">
        <ele>58</ele>
        <time>2021-07-16T11:40:05.000Z</time>
      </trkpt>
      <trkpt lat="47.17876" lon="-1.59972">
        <ele>58</ele>
        <time>2021-07-16T11:40:07.000Z</time>
      </trkpt>
      <trkpt lat="47.17865" lon="-1.59988">
        <ele>59</ele>
        <time>2021-07-16T11:40:09.000Z</time>
      </trkpt>
      <trkpt lat="47.17856" lon="-1.60003">
        <ele>59</ele>
        <time>2021-07-16T11:40:11.000Z</time>
      </trkpt>
      <trkpt lat="47.17847" lon="-1.60019">
        <ele>60</ele>
        <time>2021-07-16T11:40:13.000Z</time>
      </trkpt>
      <trkpt lat="47.17839" lon="-1.60033">
        <ele>60</ele>
        <time>2021-07-16T11:40:15.000Z</time>
      </trkpt>
      <trkpt lat="47.1783" lon="-1.60047">
        <ele>61</ele>
        <time>2021-07-16T11:40:17.000Z</time>
      </trkpt>
      <trkpt lat="47.17822" lon="-1.60062">
        <ele>61</ele>
        <time>2021-07-16T11:40:19.000Z</time>
      </trkpt>
      <trkpt lat="47.17814" lon="-1.60076">
        <ele>62</ele>
        <time>2021-07-16T11:40:21.000Z</time>
      </trkpt>
      <trkpt lat="47.17807" lon="-1.6009">
        <ele>63</ele>
        <time>2021-07-16T11:40:23.000Z</time>
      </trkpt>
      <trkpt lat="47.178" lon="-1.60103">
        <ele>64</ele>
        <time>2021-07-16T11:40:25.000Z</time>
      </trkpt>
      <trkpt lat="47.17792" lon="-1.60117">
        <ele>64</ele>
        <time>2021-07-16T11:40:27.000Z</time>
      </trkpt>
      <trkpt lat="47.17785" lon="-1.6013">
        <ele>65</ele>
        <time>2021-07-16T11:40:29.000Z</time>
      </trkpt>
      <trkpt lat="47.17777" lon="-1.60144">
        <ele>65</ele>
        <time>2021-07-16T11:40:31.000Z</time>
      </trkpt>
      <trkpt lat="47.17769" lon="-1.60158">
        <ele>65</ele>
        <time>2021-07-16T11:40:33.000Z</time>
      </trkpt>
      <trkpt lat="47.17763" lon="-1.60173">
        <ele>65</ele>
        <time>2021-07-16T11:40:35.000Z</time>
      </trkpt>
      <trkpt lat="47.17757" lon="-1.60188">
        <ele>66</ele>
        <time>2021-07-16T11:40:37.000Z</time>
      </trkpt>
      <trkpt lat="47.17751" lon="-1.60204">
        <ele>66</ele>
        <time>2021-07-16T11:40:39.000Z</time>
      </trkpt>
      <trkpt lat="47.17748" lon="-1.60222">
        <ele>66</ele>
        <time>2021-07-16T11:40:41.000Z</time>
      </trkpt>
      <trkpt lat="47.17744" lon="-1.60239">
        <ele>66</ele>
        <time>2021-07-16T11:40:43.000Z</time>
      </trkpt>
      <trkpt lat="47.1774" lon="-1.60256">
        <ele>66</ele>
        <time>2021-07-16T11:40:45.000Z</time>
      </trkpt>
      <trkpt lat="47.17734" lon="-1.60271">
        <ele>66</ele>
        <time>2021-07-16T11:40:47.000Z</time>
      </trkpt>
      <trkpt lat="47.17725" lon="-1.60285">
        <ele>68</ele>
        <time>2021-07-16T11:40:49.000Z</time>
      </trkpt>
      <trkpt lat="47.17717" lon="-1.60297">
        <ele>67</ele>
        <time>2021-07-16T11:40:51.000Z</time>
      </trkpt>
      <trkpt lat="47.17708" lon="-1.60309">
        <ele>68</ele>
        <time>2021-07-16T11:40:53.000Z</time>
      </trkpt>
      <trkpt lat="47.177" lon="-1.6032">
        <ele>68</ele>
        <time>2021-07-16T11:40:55.000Z</time>
      </trkpt>
      <trkpt lat="47.17691" lon="-1.60332">
        <ele>68</ele>
        <time>2021-07-16T11:40:57.000Z</time>
      </trkpt>
      <trkpt lat="47.17682" lon="-1.60344">
        <ele>68</ele>
        <time>2021-07-16T11:40:59.000Z</time>
      </trkpt>
      <trkpt lat="47.17673" lon="-1.60357">
        <ele>69</ele>
        <time>2021-07-16T11:41:01.000Z</time>
      </trkpt>
      <trkpt lat="47.17664" lon="-1.60371">
        <ele>69</ele>
        <time>2021-07-16T11:41:03.000Z</time>
      </trkpt>
      <trkpt lat="47.17656" lon="-1.60384">
        <ele>69</ele>
        <time>2021-07-16T11:41:05.000Z</time>
      </trkpt>
      <trkpt lat="47.17648" lon="-1.60399">
        <ele>68</ele>
        <time>2021-07-16T11:41:07.000Z</time>
      </trkpt>
      <trkpt lat="47.17638" lon="-1.60413">
        <ele>68</ele>
        <time>2021-07-16T11:41:09.000Z</time>
      </trkpt>
      <trkpt lat="47.17628" lon="-1.60429">
        <ele>67</ele>
        <time>2021-07-16T11:41:11.000Z</time>
      </trkpt>
      <trkpt lat="47.17618" lon="-1.60445">
        <ele>67</ele>
        <time>2021-07-16T11:41:13.000Z</time>
      </trkpt>
      <trkpt lat="47.17607" lon="-1.60461">
        <ele>66</ele>
        <time>2021-07-16T11:41:15.000Z</time>
      </trkpt>
      <trkpt lat="47.17597" lon="-1.60477">
        <ele>66</ele>
        <time>2021-07-16T11:41:17.000Z</time>
      </trkpt>
      <trkpt lat="47.17587" lon="-1.60493">
        <ele>66</ele>
        <time>2021-07-16T11:41:19.000Z</time>
      </trkpt>
      <trkpt lat="47.17576" lon="-1.60509">
        <ele>66</ele>
        <time>2021-07-16T11:41:21.000Z</time>
      </trkpt>
      <trkpt lat="47.17567" lon="-1.60525">
        <ele>65</ele>
        <time>2021-07-16T11:41:23.000Z</time>
      </trkpt>
      <trkpt lat="47.17557" lon="-1.60542">
        <ele>65</ele>
        <time>2021-07-16T11:41:25.000Z</time>
      </trkpt>
      <trkpt lat="47.17547" lon="-1.60558">
        <ele>65</ele>
        <time>2021-07-16T11:41:27.000Z</time>
      </trkpt>
      <trkpt lat="47.17537" lon="-1.60574">
        <ele>65</ele>
        <time>2021-07-16T11:41:29.000Z</time>
      </trkpt>
      <trkpt lat="47.17527" lon="-1.6059">
        <ele>65</ele>
        <time>2021-07-16T11:41:31.000Z</time>
      </trkpt>
      <trkpt lat="47.17518" lon="-1.60605">
        <ele>65</ele>
        <time>2021-07-16T11:41:33.000Z</time>
      </trkpt>
      <trkpt lat="47.17508" lon="-1.6062">
        <ele>64</ele>
        <time>2021-07-16T11:41:35.000Z</time>
      </trkpt>
      <trkpt lat="47.17498" lon="-1.60637">
        <ele>64</ele>
        <time>2021-07-16T11:41:37.000Z</time>
      </trkpt>
      <trkpt lat="47.17488" lon="-1.60653">
        <ele>64</ele>
        <time>2021-07-16T11:41:39.000Z</time>
      </trkpt>
      <trkpt lat="47.17479" lon="-1.60669">
        <ele>63</ele>
        <time>2021-07-16T11:41:41.000Z</time>
      </trkpt>
      <trkpt lat="47.17469" lon="-1.60686">
        <ele>63</ele>
        <time>2021-07-16T11:41:43.000Z</time>
      </trkpt>
      <trkpt lat="47.17458" lon="-1.60703">
        <ele>62</ele>
        <time>2021-07-16T11:41:45.000Z</time>
      </trkpt>
      <trkpt lat="47.17448" lon="-1.60721">
        <ele>62</ele>
        <time>2021-07-16T11:41:47.000Z</time>
      </trkpt>
      <trkpt lat="47.17438" lon="-1.60739">
        <ele>61</ele>
        <time>2021-07-16T11:41:49.000Z</time>
      </trkpt>
      <trkpt lat="47.17428" lon="-1.60758">
        <ele>61</ele>
        <time>2021-07-16T11:41:51.000Z</time>
      </trkpt>
      <trkpt lat="47.1742" lon="-1.6078">
        <ele>60</ele>
        <time>2021-07-16T11:41:53.000Z</time>
      </trkpt>
      <trkpt lat="47.17412" lon="-1.60802">
        <ele>60</ele>
        <time>2021-07-16T11:41:55.000Z</time>
      </trkpt>
      <trkpt lat="47.17405" lon="-1.60826">
        <ele>59</ele>
        <time>2021-07-16T11:41:57.000Z</time>
      </trkpt>
      <trkpt lat="47.17401" lon="-1.6085">
        <ele>58</ele>
        <time>2021-07-16T11:41:59.000Z</time>
      </trkpt>
      <trkpt lat="47.17399" lon="-1.60864">
        <ele>58</ele>
        <time>2021-07-16T11:42:00.000Z</time>
      </trkpt>
      <trkpt lat="47.17398" lon="-1.60889">
        <ele>58</ele>
        <time>2021-07-16T11:42:02.000Z</time>
      </trkpt>
      <trkpt lat="47.17398" lon="-1.60913">
        <ele>57</ele>
        <time>2021-07-16T11:42:04.000Z</time>
      </trkpt>
      <trkpt lat="47.17399" lon="-1.60938">
        <ele>57</ele>
        <time>2021-07-16T11:42:06.000Z</time>
      </trkpt>
      <trkpt lat="47.17404" lon="-1.6096">
        <ele>56</ele>
        <time>2021-07-16T11:42:08.000Z</time>
      </trkpt>
      <trkpt lat="47.17411" lon="-1.60981">
        <ele>56</ele>
        <time>2021-07-16T11:42:10.000Z</time>
      </trkpt>
      <trkpt lat="47.17419" lon="-1.60999">
        <ele>56</ele>
        <time>2021-07-16T11:42:12.000Z</time>
      </trkpt>
      <trkpt lat="47.17422" lon="-1.6102">
        <ele>56</ele>
        <time>2021-07-16T11:42:14.000Z</time>
      </trkpt>
      <trkpt lat="47.17424" lon="-1.61042">
        <ele>56</ele>
        <time>2021-07-16T11:42:16.000Z</time>
      </trkpt>
      <trkpt lat="47.1743" lon="-1.61061">
        <ele>57</ele>
        <time>2021-07-16T11:42:18.000Z</time>
      </trkpt>
      <trkpt lat="47.17436" lon="-1.61077">
        <ele>57</ele>
        <time>2021-07-16T11:42:20.000Z</time>
      </trkpt>
      <trkpt lat="47.17443" lon="-1.61093">
        <ele>58</ele>
        <time>2021-07-16T11:42:22.000Z</time>
      </trkpt>
      <trkpt lat="47.17449" lon="-1.61109">
        <ele>59</ele>
        <time>2021-07-16T11:42:24.000Z</time>
      </trkpt>
      <trkpt lat="47.17455" lon="-1.61125">
        <ele>60</ele>
        <time>2021-07-16T11:42:26.000Z</time>
      </trkpt>
      <trkpt lat="47.17461" lon="-1.6114">
        <ele>61</ele>
        <time>2021-07-16T11:42:28.000Z</time>
      </trkpt>
      <trkpt lat="47.17467" lon="-1.61155">
        <ele>61</ele>
        <time>2021-07-16T11:42:30.000Z</time>
      </trkpt>
      <trkpt lat="47.17473" lon="-1.6117">
        <ele>61</ele>
        <time>2021-07-16T11:42:32.000Z</time>
      </trkpt>
      <trkpt lat="47.1748" lon="-1.61186">
        <ele>61</ele>
        <time>2021-07-16T11:42:34.000Z</time>
      </trkpt>
      <trkpt lat="47.17486" lon="-1.61202">
        <ele>61</ele>
        <time>2021-07-16T11:42:36.000Z</time>
      </trkpt>
      <trkpt lat="47.17493" lon="-1.61219">
        <ele>61</ele>
        <time>2021-07-16T11:42:38.000Z</time>
      </trkpt>
      <trkpt lat="47.17499" lon="-1.61233">
        <ele>61</ele>
        <time>2021-07-16T11:42:40.000Z</time>
      </trkpt>
      <trkpt lat="47.17507" lon="-1.61248">
        <ele>61</ele>
        <time>2021-07-16T11:42:42.000Z</time>
      </trkpt>
      <trkpt lat="47.17515" lon="-1.61263">
        <ele>60</ele>
        <time>2021-07-16T11:42:44.000Z</time>
      </trkpt>
      <trkpt lat="47.17523" lon="-1.61275">
        <ele>60</ele>
        <time>2021-07-16T11:42:46.000Z</time>
      </trkpt>
      <trkpt lat="47.17533" lon="-1.61286">
        <ele>61</ele>
        <time>2021-07-16T11:42:48.000Z</time>
      </trkpt>
      <trkpt lat="47.17545" lon="-1.61293">
        <ele>61</ele>
        <time>2021-07-16T11:42:50.000Z</time>
      </trkpt>
      <trkpt lat="47.17557" lon="-1.61302">
        <ele>61</ele>
        <time>2021-07-16T11:42:52.000Z</time>
      </trkpt>
      <trkpt lat="47.17562" lon="-1.61321">
        <ele>60</ele>
        <time>2021-07-16T11:42:54.000Z</time>
      </trkpt>
      <trkpt lat="47.17559" lon="-1.61341">
        <ele>61</ele>
        <time>2021-07-16T11:42:56.000Z</time>
      </trkpt>
      <trkpt lat="47.17549" lon="-1.61356">
        <ele>61</ele>
        <time>2021-07-16T11:42:58.000Z</time>
      </trkpt>
      <trkpt lat="47.17537" lon="-1.61369">
        <ele>61</ele>
        <time>2021-07-16T11:43:00.000Z</time>
      </trkpt>
      <trkpt lat="47.17529" lon="-1.61387">
        <ele>61</ele>
        <time>2021-07-16T11:43:02.000Z</time>
      </trkpt>
      <trkpt lat="47.17525" lon="-1.61407">
        <ele>61</ele>
        <time>2021-07-16T11:43:04.000Z</time>
      </trkpt>
      <trkpt lat="47.17521" lon="-1.61424">
        <ele>61</ele>
        <time>2021-07-16T11:43:06.000Z</time>
      </trkpt>
      <trkpt lat="47.17518" lon="-1.61441">
        <ele>62</ele>
        <time>2021-07-16T11:43:08.000Z</time>
      </trkpt>
      <trkpt lat="47.17514" lon="-1.61456">
        <ele>63</ele>
        <time>2021-07-16T11:43:10.000Z</time>
      </trkpt>
      <trkpt lat="47.17506" lon="-1.61465">
        <ele>63</ele>
        <time>2021-07-16T11:43:12.000Z</time>
      </trkpt>
      <trkpt lat="47.17493" lon="-1.6147">
        <ele>63</ele>
        <time>2021-07-16T11:43:14.000Z</time>
      </trkpt>
      <trkpt lat="47.17481" lon="-1.61474">
        <ele>64</ele>
        <time>2021-07-16T11:43:16.000Z</time>
      </trkpt>
      <trkpt lat="47.1747" lon="-1.6148">
        <ele>66</ele>
        <time>2021-07-16T11:43:18.000Z</time>
      </trkpt>
      <trkpt lat="47.17458" lon="-1.61486">
        <ele>67</ele>
        <time>2021-07-16T11:43:20.000Z</time>
      </trkpt>
      <trkpt lat="47.17446" lon="-1.61492">
        <ele>67</ele>
        <time>2021-07-16T11:43:22.000Z</time>
      </trkpt>
      <trkpt lat="47.17434" lon="-1.61499">
        <ele>68</ele>
        <time>2021-07-16T11:43:24.000Z</time>
      </trkpt>
      <trkpt lat="47.17423" lon="-1.61507">
        <ele>69</ele>
        <time>2021-07-16T11:43:26.000Z</time>
      </trkpt>
      <trkpt lat="47.17412" lon="-1.61514">
        <ele>69</ele>
        <time>2021-07-16T11:43:28.000Z</time>
      </trkpt>
      <trkpt lat="47.17402" lon="-1.61522">
        <ele>69</ele>
        <time>2021-07-16T11:43:30.000Z</time>
      </trkpt>
      <trkpt lat="47.17392" lon="-1.61531">
        <ele>69</ele>
        <time>2021-07-16T11:43:32.000Z</time>
      </trkpt>
      <trkpt lat="47.17382" lon="-1.61541">
        <ele>69</ele>
        <time>2021-07-16T11:43:34.000Z</time>
      </trkpt>
      <trkpt lat="47.17373" lon="-1.6155">
        <ele>70</ele>
        <time>2021-07-16T11:43:36.000Z</time>
      </trkpt>
      <trkpt lat="47.17364" lon="-1.61561">
        <ele>71</ele>
        <time>2021-07-16T11:43:38.000Z</time>
      </trkpt>
      <trkpt lat="47.17355" lon="-1.61571">
        <ele>71</ele>
        <time>2021-07-16T11:43:40.000Z</time>
      </trkpt>
      <trkpt lat="47.17347" lon="-1.61581">
        <ele>72</ele>
        <time>2021-07-16T11:43:42.000Z</time>
      </trkpt>
      <trkpt lat="47.1734" lon="-1.61592">
        <ele>73</ele>
        <time>2021-07-16T11:43:44.000Z</time>
      </trkpt>
      <trkpt lat="47.1733" lon="-1.61603">
        <ele>73</ele>
        <time>2021-07-16T11:43:46.000Z</time>
      </trkpt>
      <trkpt lat="47.17321" lon="-1.61614">
        <ele>73</ele>
        <time>2021-07-16T11:43:48.000Z</time>
      </trkpt>
      <trkpt lat="47.17312" lon="-1.61627">
        <ele>73</ele>
        <time>2021-07-16T11:43:50.000Z</time>
      </trkpt>
      <trkpt lat="47.17304" lon="-1.61639">
        <ele>73</ele>
        <time>2021-07-16T11:43:52.000Z</time>
      </trkpt>
      <trkpt lat="47.17296" lon="-1.61654">
        <ele>74</ele>
        <time>2021-07-16T11:43:54.000Z</time>
      </trkpt>
      <trkpt lat="47.17289" lon="-1.61667">
        <ele>74</ele>
        <time>2021-07-16T11:43:56.000Z</time>
      </trkpt>
      <trkpt lat="47.17282" lon="-1.61681">
        <ele>73</ele>
        <time>2021-07-16T11:43:58.000Z</time>
      </trkpt>
      <trkpt lat="47.17275" lon="-1.61696">
        <ele>73</ele>
        <time>2021-07-16T11:44:00.000Z</time>
      </trkpt>
      <trkpt lat="47.17268" lon="-1.6171">
        <ele>72</ele>
        <time>2021-07-16T11:44:02.000Z</time>
      </trkpt>
      <trkpt lat="47.17261" lon="-1.61725">
        <ele>72</ele>
        <time>2021-07-16T11:44:04.000Z</time>
      </trkpt>
      <trkpt lat="47.17254" lon="-1.6174">
        <ele>72</ele>
        <time>2021-07-16T11:44:06.000Z</time>
      </trkpt>
      <trkpt lat="47.17249" lon="-1.61754">
        <ele>71</ele>
        <time>2021-07-16T11:44:08.000Z</time>
      </trkpt>
      <trkpt lat="47.17247" lon="-1.61772">
        <ele>70</ele>
        <time>2021-07-16T11:44:10.000Z</time>
      </trkpt>
      <trkpt lat="47.17239" lon="-1.61785">
        <ele>70</ele>
        <time>2021-07-16T11:44:12.000Z</time>
      </trkpt>
      <trkpt lat="47.17227" lon="-1.61794">
        <ele>69</ele>
        <time>2021-07-16T11:44:14.000Z</time>
      </trkpt>
      <trkpt lat="47.17216" lon="-1.61804">
        <ele>69</ele>
        <time>2021-07-16T11:44:16.000Z</time>
      </trkpt>
      <trkpt lat="47.17205" lon="-1.61813">
        <ele>69</ele>
        <time>2021-07-16T11:44:18.000Z</time>
      </trkpt>
      <trkpt lat="47.17195" lon="-1.61823">
        <ele>69</ele>
        <time>2021-07-16T11:44:20.000Z</time>
      </trkpt>
      <trkpt lat="47.17184" lon="-1.61833">
        <ele>69</ele>
        <time>2021-07-16T11:44:22.000Z</time>
      </trkpt>
      <trkpt lat="47.17174" lon="-1.61842">
        <ele>69</ele>
        <time>2021-07-16T11:44:24.000Z</time>
      </trkpt>
      <trkpt lat="47.17164" lon="-1.61852">
        <ele>69</ele>
        <time>2021-07-16T11:44:26.000Z</time>
      </trkpt>
      <trkpt lat="47.17154" lon="-1.61862">
        <ele>69</ele>
        <time>2021-07-16T11:44:28.000Z</time>
      </trkpt>
      <trkpt lat="47.17143" lon="-1.61872">
        <ele>69</ele>
        <time>2021-07-16T11:44:30.000Z</time>
      </trkpt>
      <trkpt lat="47.17133" lon="-1.61882">
        <ele>69</ele>
        <time>2021-07-16T11:44:32.000Z</time>
      </trkpt>
      <trkpt lat="47.17122" lon="-1.61892">
        <ele>68</ele>
        <time>2021-07-16T11:44:34.000Z</time>
      </trkpt>
      <trkpt lat="47.17112" lon="-1.61903">
        <ele>68</ele>
        <time>2021-07-16T11:44:36.000Z</time>
      </trkpt>
      <trkpt lat="47.17102" lon="-1.61913">
        <ele>68</ele>
        <time>2021-07-16T11:44:38.000Z</time>
      </trkpt>
      <trkpt lat="47.17091" lon="-1.61923">
        <ele>69</ele>
        <time>2021-07-16T11:44:40.000Z</time>
      </trkpt>
      <trkpt lat="47.17081" lon="-1.61933">
        <ele>69</ele>
        <time>2021-07-16T11:44:42.000Z</time>
      </trkpt>
      <trkpt lat="47.17072" lon="-1.61943">
        <ele>69</ele>
        <time>2021-07-16T11:44:44.000Z</time>
      </trkpt>
      <trkpt lat="47.17062" lon="-1.61955">
        <ele>69</ele>
        <time>2021-07-16T11:44:46.000Z</time>
      </trkpt>
      <trkpt lat="47.17053" lon="-1.61969">
        <ele>69</ele>
        <time>2021-07-16T11:44:48.000Z</time>
      </trkpt>
      <trkpt lat="47.17044" lon="-1.61982">
        <ele>69</ele>
        <time>2021-07-16T11:44:50.000Z</time>
      </trkpt>
      <trkpt lat="47.17035" lon="-1.61994">
        <ele>69</ele>
        <time>2021-07-16T11:44:52.000Z</time>
      </trkpt>
      <trkpt lat="47.17026" lon="-1.62007">
        <ele>69</ele>
        <time>2021-07-16T11:44:54.000Z</time>
      </trkpt>
      <trkpt lat="47.17017" lon="-1.6202">
        <ele>69</ele>
        <time>2021-07-16T11:44:56.000Z</time>
      </trkpt>
      <trkpt lat="47.17008" lon="-1.62034">
        <ele>69</ele>
        <time>2021-07-16T11:44:58.000Z</time>
      </trkpt>
      <trkpt lat="47.16999" lon="-1.62049">
        <ele>69</ele>
        <time>2021-07-16T11:45:00.000Z</time>
      </trkpt>
      <trkpt lat="47.16991" lon="-1.62064">
        <ele>69</ele>
        <time>2021-07-16T11:45:02.000Z</time>
      </trkpt>
      <trkpt lat="47.16983" lon="-1.62079">
        <ele>69</ele>
        <time>2021-07-16T11:45:04.000Z</time>
      </trkpt>
      <trkpt lat="47.16974" lon="-1.62093">
        <ele>69</ele>
        <time>2021-07-16T11:45:06.000Z</time>
      </trkpt>
      <trkpt lat="47.16966" lon="-1.62107">
        <ele>69</ele>
        <time>2021-07-16T11:45:08.000Z</time>
      </trkpt>
      <trkpt lat="47.16958" lon="-1.62122">
        <ele>69</ele>
        <time>2021-07-16T11:45:10.000Z</time>
      </trkpt>
      <trkpt lat="47.16951" lon="-1.62136">
        <ele>69</ele>
        <time>2021-07-16T11:45:12.000Z</time>
      </trkpt>
      <trkpt lat="47.16943" lon="-1.62151">
        <ele>69</ele>
        <time>2021-07-16T11:45:14.000Z</time>
      </trkpt>
      <trkpt lat="47.16936" lon="-1.62166">
        <ele>69</ele>
        <time>2021-07-16T11:45:16.000Z</time>
      </trkpt>
      <trkpt lat="47.1693" lon="-1.62182">
        <ele>69</ele>
        <time>2021-07-16T11:45:18.000Z</time>
      </trkpt>
      <trkpt lat="47.16922" lon="-1.62196">
        <ele>69</ele>
        <time>2021-07-16T11:45:20.000Z</time>
      </trkpt>
      <trkpt lat="47.16914" lon="-1.6221">
        <ele>69</ele>
        <time>2021-07-16T11:45:22.000Z</time>
      </trkpt>
      <trkpt lat="47.16904" lon="-1.62223">
        <ele>69</ele>
        <time>2021-07-16T11:45:24.000Z</time>
      </trkpt>
      <trkpt lat="47.16895" lon="-1.62235">
        <ele>69</ele>
        <time>2021-07-16T11:45:26.000Z</time>
      </trkpt>
      <trkpt lat="47.16885" lon="-1.62248">
        <ele>70</ele>
        <time>2021-07-16T11:45:28.000Z</time>
      </trkpt>
      <trkpt lat="47.16875" lon="-1.62259">
        <ele>69</ele>
        <time>2021-07-16T11:45:30.000Z</time>
      </trkpt>
      <trkpt lat="47.16865" lon="-1.62271">
        <ele>69</ele>
        <time>2021-07-16T11:45:32.000Z</time>
      </trkpt>
      <trkpt lat="47.16856" lon="-1.62283">
        <ele>69</ele>
        <time>2021-07-16T11:45:34.000Z</time>
      </trkpt>
      <trkpt lat="47.16846" lon="-1.62295">
        <ele>69</ele>
        <time>2021-07-16T11:45:36.000Z</time>
      </trkpt>
      <trkpt lat="47.16836" lon="-1.62306">
        <ele>69</ele>
        <time>2021-07-16T11:45:38.000Z</time>
      </trkpt>
      <trkpt lat="47.16826" lon="-1.62315">
        <ele>70</ele>
        <time>2021-07-16T11:45:40.000Z</time>
      </trkpt>
      <trkpt lat="47.16815" lon="-1.62324">
        <ele>70</ele>
        <time>2021-07-16T11:45:42.000Z</time>
      </trkpt>
      <trkpt lat="47.16804" lon="-1.62331">
        <ele>70</ele>
        <time>2021-07-16T11:45:44.000Z</time>
      </trkpt>
      <trkpt lat="47.16792" lon="-1.62337">
        <ele>70</ele>
        <time>2021-07-16T11:45:46.000Z</time>
      </trkpt>
      <trkpt lat="47.16781" lon="-1.62343">
        <ele>69</ele>
        <time>2021-07-16T11:45:48.000Z</time>
      </trkpt>
      <trkpt lat="47.16769" lon="-1.6235">
        <ele>69</ele>
        <time>2021-07-16T11:45:50.000Z</time>
      </trkpt>
      <trkpt lat="47.16757" lon="-1.62359">
        <ele>68</ele>
        <time>2021-07-16T11:45:52.000Z</time>
      </trkpt>
      <trkpt lat="47.16747" lon="-1.6237">
        <ele>67</ele>
        <time>2021-07-16T11:45:54.000Z</time>
      </trkpt>
      <trkpt lat="47.16738" lon="-1.62385">
        <ele>67</ele>
        <time>2021-07-16T11:45:56.000Z</time>
      </trkpt>
      <trkpt lat="47.16733" lon="-1.62401">
        <ele>67</ele>
        <time>2021-07-16T11:45:58.000Z</time>
      </trkpt>
      <trkpt lat="47.16731" lon="-1.62419">
        <ele>68</ele>
        <time>2021-07-16T11:46:00.000Z</time>
      </trkpt>
      <trkpt lat="47.16729" lon="-1.62436">
        <ele>68</ele>
        <time>2021-07-16T11:46:02.000Z</time>
      </trkpt>
      <trkpt lat="47.16725" lon="-1.62453">
        <ele>68</ele>
        <time>2021-07-16T11:46:04.000Z</time>
      </trkpt>
      <trkpt lat="47.16721" lon="-1.62469">
        <ele>68</ele>
        <time>2021-07-16T11:46:06.000Z</time>
      </trkpt>
      <trkpt lat="47.16717" lon="-1.62486">
        <ele>68</ele>
        <time>2021-07-16T11:46:08.000Z</time>
      </trkpt>
      <trkpt lat="47.16722" lon="-1.62498">
        <ele>68</ele>
        <time>2021-07-16T11:46:10.000Z</time>
      </trkpt>
      <trkpt lat="47.16734" lon="-1.62503">
        <ele>68</ele>
        <time>2021-07-16T11:46:12.000Z</time>
      </trkpt>
      <trkpt lat="47.16745" lon="-1.62507">
        <ele>69</ele>
        <time>2021-07-16T11:46:14.000Z</time>
      </trkpt>
      <trkpt lat="47.16755" lon="-1.62513">
        <ele>69</ele>
        <time>2021-07-16T11:46:16.000Z</time>
      </trkpt>
      <trkpt lat="47.16766" lon="-1.62519">
        <ele>70</ele>
        <time>2021-07-16T11:46:18.000Z</time>
      </trkpt>
      <trkpt lat="47.16776" lon="-1.62525">
        <ele>71</ele>
        <time>2021-07-16T11:46:20.000Z</time>
      </trkpt>
      <trkpt lat="47.16787" lon="-1.62532">
        <ele>72</ele>
        <time>2021-07-16T11:46:22.000Z</time>
      </trkpt>
      <trkpt lat="47.16798" lon="-1.62539">
        <ele>72</ele>
        <time>2021-07-16T11:46:24.000Z</time>
      </trkpt>
      <trkpt lat="47.16808" lon="-1.62545">
        <ele>72</ele>
        <time>2021-07-16T11:46:26.000Z</time>
      </trkpt>
      <trkpt lat="47.16817" lon="-1.62553">
        <ele>72</ele>
        <time>2021-07-16T11:46:28.000Z</time>
      </trkpt>
      <trkpt lat="47.16826" lon="-1.62563">
        <ele>72</ele>
        <time>2021-07-16T11:46:30.000Z</time>
      </trkpt>
      <trkpt lat="47.16832" lon="-1.62577">
        <ele>72</ele>
        <time>2021-07-16T11:46:32.000Z</time>
      </trkpt>
      <trkpt lat="47.16828" lon="-1.62595">
        <ele>71</ele>
        <time>2021-07-16T11:46:34.000Z</time>
      </trkpt>
      <trkpt lat="47.1682" lon="-1.62607">
        <ele>72</ele>
        <time>2021-07-16T11:46:36.000Z</time>
      </trkpt>
      <trkpt lat="47.16813" lon="-1.6262">
        <ele>73</ele>
        <time>2021-07-16T11:46:38.000Z</time>
      </trkpt>
      <trkpt lat="47.16806" lon="-1.62632">
        <ele>74</ele>
        <time>2021-07-16T11:46:40.000Z</time>
      </trkpt>
      <trkpt lat="47.16799" lon="-1.62642">
        <ele>74</ele>
        <time>2021-07-16T11:46:42.000Z</time>
      </trkpt>
      <trkpt lat="47.1679" lon="-1.62657">
        <ele>74</ele>
        <time>2021-07-16T11:46:45.000Z</time>
      </trkpt>
      <trkpt lat="47.16781" lon="-1.62661">
        <ele>74</ele>
        <time>2021-07-16T11:46:49.000Z</time>
      </trkpt>
    </trkseg>
  </trk>
</gpx>